<?xml version='1.0' encoding='UTF-8'?><gpx version="1.1" creator="JPX - https://github.com/jenetics/jpx" xmlns="http://www.topografix.com/GPX/1/1"><trk><trkseg><trkpt lat="41.13822984071194" lon="9.477570417224156"><ele>27.0</ele><time>2026-05-01T08:22:27.999Z</time></trkpt><trkpt lat="41.13814272922115" lon="9.47762471279734"><ele>27.0</ele><time>2026-05-01T08:22:30.999Z</time></trkpt><trkpt lat="41.13818656111273" lon="9.477506452018538"><ele>27.0</ele><time>2026-05-01T08:27:54.999Z</time></trkpt><trkpt lat="41.13824832066494" lon="9.477475843817684"><ele>27.0</ele><time>2026-05-01T08:31:02.999Z</time></trkpt><trkpt lat="41.13824707827165" lon="9.477577290389695"><ele>27.0</ele><time>2026-05-01T08:31:04.999Z</time></trkpt><trkpt lat="41.13818271602962" lon="9.477611813342874"><ele>27.0</ele><time>2026-05-01T08:31:06.999Z</time></trkpt><trkpt lat="41.13812124431976" lon="9.477635758905544"><ele>26.8</ele><time>2026-05-01T08:31:08.999Z</time></trkpt><trkpt lat="41.13803578665537" lon="9.477660149968866"><ele>26.6</ele><time>2026-05-01T08:31:10.999Z</time></trkpt><trkpt lat="41.13794764588747" lon="9.47766587936779"><ele>26.400000000000002</ele><time>2026-05-01T08:31:12.998Z</time></trkpt><trkpt lat="41.13786123131668" lon="9.477625854999006"><ele>26.200000000000003</ele><time>2026-05-01T08:31:14.998Z</time></trkpt><trkpt lat="41.13779100518064" lon="9.477553130370872"><ele>26.0</ele><time>2026-05-01T08:31:16.998Z</time></trkpt><trkpt lat="41.13770668936617" lon="9.477485250269485"><ele>26.0</ele><time>2026-05-01T08:31:18.998Z</time></trkpt><trkpt lat="41.13762150100803" lon="9.477403459117312"><ele>26.0</ele><time>2026-05-01T08:31:20.998Z</time></trkpt><trkpt lat="41.137560114127695" lon="9.477314917798934"><ele>26.0</ele><time>2026-05-01T08:31:22.998Z</time></trkpt><trkpt lat="41.13749216895781" lon="9.47727772794343"><ele>26.0</ele><time>2026-05-01T08:31:24.998Z</time></trkpt><trkpt lat="41.13738943446533" lon="9.477278276685139"><ele>26.0</ele><time>2026-05-01T08:31:26.999Z</time></trkpt><trkpt lat="41.137310370848056" lon="9.477332806521682"><ele>25.666666666666664</ele><time>2026-05-01T08:31:27.999Z</time></trkpt><trkpt lat="41.137224842993724" lon="9.477345282192045"><ele>25.333333333333332</ele><time>2026-05-01T08:31:28.999Z</time></trkpt><trkpt lat="41.137151368424526" lon="9.477379339519453"><ele>25.0</ele><time>2026-05-01T08:31:29.999Z</time></trkpt><trkpt lat="41.13708057083409" lon="9.477431368510185"><ele>24.666666666666664</ele><time>2026-05-01T08:31:30.999Z</time></trkpt><trkpt lat="41.13699200617321" lon="9.477466020653631"><ele>24.333333333333332</ele><time>2026-05-01T08:31:31.999Z</time></trkpt><trkpt lat="41.13689858614082" lon="9.477512375535841"><ele>24.0</ele><time>2026-05-01T08:31:32.999Z</time></trkpt><trkpt lat="41.13681732921381" lon="9.4775514958941"><ele>24.0</ele><time>2026-05-01T08:31:33.999Z</time></trkpt><trkpt lat="41.13673999271102" lon="9.477588747706175"><ele>24.0</ele><time>2026-05-01T08:31:34.999Z</time></trkpt><trkpt lat="41.13666499964623" lon="9.477622708584946"><ele>24.0</ele><time>2026-05-01T08:31:35.999Z</time></trkpt><trkpt lat="41.13659222667311" lon="9.477655004297388"><ele>24.0</ele><time>2026-05-01T08:31:36.999Z</time></trkpt><trkpt lat="41.13652139566986" lon="9.477686981895571"><ele>24.0</ele><time>2026-05-01T08:31:37.999Z</time></trkpt><trkpt lat="41.136452943948214" lon="9.477717221536352"><ele>24.0</ele><time>2026-05-01T08:31:38.999Z</time></trkpt><trkpt lat="41.136351762613934" lon="9.47776224930749"><ele>25.0</ele><time>2026-05-01T08:31:40.999Z</time></trkpt><trkpt lat="41.13627010314365" lon="9.477800721810787"><ele>26.0</ele><time>2026-05-01T08:31:42.999Z</time></trkpt><trkpt lat="41.136206830831604" lon="9.477824761685465"><ele>27.0</ele><time>2026-05-01T08:31:44.999Z</time></trkpt><trkpt lat="41.136132354981264" lon="9.477859471682807"><ele>28.0</ele><time>2026-05-01T08:31:47.999Z</time></trkpt><trkpt lat="41.136063983045204" lon="9.477825237418841"><ele>29.0</ele><time>2026-05-01T08:31:49.999Z</time></trkpt><trkpt lat="41.13600270450596" lon="9.477782087911075"><ele>30.0</ele><time>2026-05-01T08:31:51.999Z</time></trkpt><trkpt lat="41.13592981271227" lon="9.477729281471227"><ele>30.0</ele><time>2026-05-01T08:32:03.999Z</time></trkpt><trkpt lat="41.13581565798126" lon="9.477655510596026"><ele>30.0</ele><time>2026-05-01T08:32:05.999Z</time></trkpt><trkpt lat="41.13573794895512" lon="9.477599850680882"><ele>30.0</ele><time>2026-05-01T08:32:06.999Z</time></trkpt><trkpt lat="41.13566146046204" lon="9.477540044984345"><ele>30.0</ele><time>2026-05-01T08:32:07.999Z</time></trkpt><trkpt lat="41.135571701554085" lon="9.477466028983994"><ele>30.0</ele><time>2026-05-01T08:32:08.999Z</time></trkpt><trkpt lat="41.135466109547025" lon="9.477399143845844"><ele>30.5</ele><time>2026-05-01T08:32:09.999Z</time></trkpt><trkpt lat="41.13535748516055" lon="9.47734276865228"><ele>31.0</ele><time>2026-05-01T08:32:10.999Z</time></trkpt><trkpt lat="41.135241505074816" lon="9.4772823297226"><ele>31.5</ele><time>2026-05-01T08:32:11.999Z</time></trkpt><trkpt lat="41.13511739534388" lon="9.477223403643224"><ele>32.0</ele><time>2026-05-01T08:32:12.999Z</time></trkpt><trkpt lat="41.1349840698404" lon="9.477172303780174"><ele>31.25</ele><time>2026-05-01T08:32:13.999Z</time></trkpt><trkpt lat="41.13484699861825" lon="9.47712512105043"><ele>30.5</ele><time>2026-05-01T08:32:14.999Z</time></trkpt><trkpt lat="41.13471008214542" lon="9.477083819592211"><ele>29.75</ele><time>2026-05-01T08:32:15.999Z</time></trkpt><trkpt lat="41.13457449249346" lon="9.477044484285575"><ele>29.0</ele><time>2026-05-01T08:32:16.999Z</time></trkpt><trkpt lat="41.13443913551009" lon="9.477010447983385"><ele>27.333333333333332</ele><time>2026-05-01T08:32:17.999Z</time></trkpt><trkpt lat="41.13430362068384" lon="9.476979280228207"><ele>25.666666666666664</ele><time>2026-05-01T08:32:18.999Z</time></trkpt><trkpt lat="41.13416486893731" lon="9.476946489070258"><ele>24.0</ele><time>2026-05-01T08:32:19.999Z</time></trkpt><trkpt lat="41.13389920071345" lon="9.476878019612007"><ele>22.75</ele><time>2026-05-01T08:32:21.999Z</time></trkpt><trkpt lat="41.133770092444294" lon="9.476848394382309"><ele>21.5</ele><time>2026-05-01T08:32:22.999Z</time></trkpt><trkpt lat="41.13363946395332" lon="9.476820204496734"><ele>20.25</ele><time>2026-05-01T08:32:23.999Z</time></trkpt><trkpt lat="41.13350636648066" lon="9.476791120219271"><ele>19.0</ele><time>2026-05-01T08:32:24.999Z</time></trkpt><trkpt lat="41.13337328131929" lon="9.47677674911561"><ele>19.0</ele><time>2026-05-01T08:32:25.999Z</time></trkpt><trkpt lat="41.13324025834017" lon="9.47677050110397"><ele>19.0</ele><time>2026-05-01T08:32:26.999Z</time></trkpt><trkpt lat="41.13310697776132" lon="9.47676327680769"><ele>19.0</ele><time>2026-05-01T08:32:27.999Z</time></trkpt><trkpt lat="41.13297319969879" lon="9.476757686432743"><ele>19.0</ele><time>2026-05-01T08:32:28.999Z</time></trkpt><trkpt lat="41.132838016999315" lon="9.47675461252639"><ele>18.0</ele><time>2026-05-01T08:32:29.999Z</time></trkpt><trkpt lat="41.132704440027126" lon="9.476751622738316"><ele>17.0</ele><time>2026-05-01T08:32:30.999Z</time></trkpt><trkpt lat="41.13256572065241" lon="9.476747715944091"><ele>16.0</ele><time>2026-05-01T08:32:31.999Z</time></trkpt><trkpt lat="41.13242191651961" lon="9.476740753126156"><ele>15.0</ele><time>2026-05-01T08:32:32.999Z</time></trkpt><trkpt lat="41.13226977532578" lon="9.47673416601592"><ele>13.666666666666666</ele><time>2026-05-01T08:32:33.999Z</time></trkpt><trkpt lat="41.13212032874385" lon="9.476727712398443"><ele>12.333333333333332</ele><time>2026-05-01T08:32:34.999Z</time></trkpt><trkpt lat="41.13196738566473" lon="9.476720955283394"><ele>11.0</ele><time>2026-05-01T08:32:35.999Z</time></trkpt><trkpt lat="41.13181597466833" lon="9.476712522937232"><ele>11.0</ele><time>2026-05-01T08:32:36.999Z</time></trkpt><trkpt lat="41.13166319113839" lon="9.476705171878683"><ele>11.0</ele><time>2026-05-01T08:32:37.999Z</time></trkpt><trkpt lat="41.131511954299064" lon="9.476700244024702"><ele>11.0</ele><time>2026-05-01T08:32:38.999Z</time></trkpt><trkpt lat="41.131361792360636" lon="9.476696310591507"><ele>11.75</ele><time>2026-05-01T08:32:39.999Z</time></trkpt><trkpt lat="41.13121218579787" lon="9.476689976964817"><ele>12.5</ele><time>2026-05-01T08:32:40.999Z</time></trkpt><trkpt lat="41.13106435713825" lon="9.476681009352893"><ele>13.25</ele><time>2026-05-01T08:32:41.999Z</time></trkpt><trkpt lat="41.130916449357" lon="9.47667198552918"><ele>14.0</ele><time>2026-05-01T08:32:42.999Z</time></trkpt><trkpt lat="41.13076865413484" lon="9.476662629647365"><ele>14.0</ele><time>2026-05-01T08:32:43.999Z</time></trkpt><trkpt lat="41.130623197131364" lon="9.476659761417547"><ele>14.0</ele><time>2026-05-01T08:32:44.999Z</time></trkpt><trkpt lat="41.13047771724134" lon="9.476658765552234"><ele>14.0</ele><time>2026-05-01T08:32:45.999Z</time></trkpt><trkpt lat="41.13033403104021" lon="9.476648843195322"><ele>14.0</ele><time>2026-05-01T08:32:46.999Z</time></trkpt><trkpt lat="41.13018698887724" lon="9.476626467846666"><ele>14.0</ele><time>2026-05-01T08:32:47.999Z</time></trkpt><trkpt lat="41.13003577910404" lon="9.476597342118483"><ele>14.0</ele><time>2026-05-01T08:32:48.999Z</time></trkpt><trkpt lat="41.12987632502107" lon="9.476563943421723"><ele>14.0</ele><time>2026-05-01T08:32:49.999Z</time></trkpt><trkpt lat="41.12971013161474" lon="9.47652543061021"><ele>15.0</ele><time>2026-05-01T08:32:50.999Z</time></trkpt><trkpt lat="41.12952873442077" lon="9.47648180130459"><ele>16.0</ele><time>2026-05-01T08:32:51.999Z</time></trkpt><trkpt lat="41.12931916742478" lon="9.476432775366984"><ele>17.0</ele><time>2026-05-01T08:32:52.999Z</time></trkpt><trkpt lat="41.129086300848826" lon="9.476376732832158"><ele>16.666666666666668</ele><time>2026-05-01T08:32:53.999Z</time></trkpt><trkpt lat="41.128878766766654" lon="9.476326965441638"><ele>16.333333333333332</ele><time>2026-05-01T08:32:54.999Z</time></trkpt><trkpt lat="41.1286746241451" lon="9.476277165696704"><ele>16.0</ele><time>2026-05-01T08:32:55.999Z</time></trkpt><trkpt lat="41.128477344791264" lon="9.476232678278233"><ele>16.0</ele><time>2026-05-01T08:32:56.999Z</time></trkpt><trkpt lat="41.12828516316377" lon="9.476191970426768"><ele>16.0</ele><time>2026-05-01T08:32:57.999Z</time></trkpt><trkpt lat="41.128097925854384" lon="9.47614933642685"><ele>16.0</ele><time>2026-05-01T08:32:58.999Z</time></trkpt><trkpt lat="41.12791267299578" lon="9.476100983892204"><ele>16.0</ele><time>2026-05-01T08:32:59.999Z</time></trkpt><trkpt lat="41.12773051654002" lon="9.476055473592345"><ele>16.0</ele><time>2026-05-01T08:33:00.999Z</time></trkpt><trkpt lat="41.127550187155435" lon="9.476014641111172"><ele>16.0</ele><time>2026-05-01T08:33:01.999Z</time></trkpt><trkpt lat="41.12736837116495" lon="9.47597453504859"><ele>16.0</ele><time>2026-05-01T08:33:02.999Z</time></trkpt><trkpt lat="41.12719082588258" lon="9.475933536670563"><ele>16.0</ele><time>2026-05-01T08:33:03.999Z</time></trkpt><trkpt lat="41.12701555379731" lon="9.475891417657612"><ele>16.0</ele><time>2026-05-01T08:33:04.999Z</time></trkpt><trkpt lat="41.126840916496086" lon="9.47585313356542"><ele>16.0</ele><time>2026-05-01T08:33:05.999Z</time></trkpt><trkpt lat="41.126665835157894" lon="9.475814236602728"><ele>16.0</ele><time>2026-05-01T08:33:06.999Z</time></trkpt><trkpt lat="41.12649280152426" lon="9.475776180160192"><ele>16.0</ele><time>2026-05-01T08:33:07.999Z</time></trkpt><trkpt lat="41.126320149032594" lon="9.475738205178587"><ele>15.666666666666666</ele><time>2026-05-01T08:33:08.999Z</time></trkpt><trkpt lat="41.12614775271955" lon="9.475698215318971"><ele>15.333333333333332</ele><time>2026-05-01T08:33:09.999Z</time></trkpt><trkpt lat="41.12597437093537" lon="9.475660291655185"><ele>15.0</ele><time>2026-05-01T08:33:10.999Z</time></trkpt><trkpt lat="41.12580310400624" lon="9.475619127236106"><ele>14.333333333333332</ele><time>2026-05-01T08:33:11.999Z</time></trkpt><trkpt lat="41.125632488733956" lon="9.475578736888979"><ele>13.666666666666666</ele><time>2026-05-01T08:33:12.999Z</time></trkpt><trkpt lat="41.125466724448756" lon="9.47554192099718"><ele>13.0</ele><time>2026-05-01T08:33:13.999Z</time></trkpt><trkpt lat="41.125312647090894" lon="9.475505428401426"><ele>13.0</ele><time>2026-05-01T08:33:14.999Z</time></trkpt><trkpt lat="41.125165914353" lon="9.475471315297602"><ele>13.0</ele><time>2026-05-01T08:33:15.999Z</time></trkpt><trkpt lat="41.12502767671405" lon="9.47544115144218"><ele>13.0</ele><time>2026-05-01T08:33:16.999Z</time></trkpt><trkpt lat="41.124899765222466" lon="9.475411117405997"><ele>13.0</ele><time>2026-05-01T08:33:17.998Z</time></trkpt><trkpt lat="41.12477741102716" lon="9.475384651553222"><ele>12.5</ele><time>2026-05-01T08:33:18.998Z</time></trkpt><trkpt lat="41.12466189366534" lon="9.475357440654934"><ele>12.0</ele><time>2026-05-01T08:33:19.998Z</time></trkpt><trkpt lat="41.12455747118412" lon="9.475328257193736"><ele>11.5</ele><time>2026-05-01T08:33:20.998Z</time></trkpt><trkpt lat="41.12444212254076" lon="9.475293165709333"><ele>11.0</ele><time>2026-05-01T08:33:21.998Z</time></trkpt><trkpt lat="41.1243237934308" lon="9.475243785873799"><ele>11.0</ele><time>2026-05-01T08:33:22.998Z</time></trkpt><trkpt lat="41.12420942491263" lon="9.475184412165353"><ele>11.0</ele><time>2026-05-01T08:33:23.998Z</time></trkpt><trkpt lat="41.124094477843585" lon="9.475124407111553"><ele>11.0</ele><time>2026-05-01T08:33:24.998Z</time></trkpt><trkpt lat="41.12397750711754" lon="9.475064558160994"><ele>11.0</ele><time>2026-05-01T08:33:25.998Z</time></trkpt><trkpt lat="41.1238628648664" lon="9.475007254132745"><ele>12.0</ele><time>2026-05-01T08:33:26.998Z</time></trkpt><trkpt lat="41.123746901038686" lon="9.474948254804524"><ele>13.0</ele><time>2026-05-01T08:33:27.998Z</time></trkpt><trkpt lat="41.12363811049553" lon="9.47488992043281"><ele>14.000000000000002</ele><time>2026-05-01T08:33:28.998Z</time></trkpt><trkpt lat="41.123533889475134" lon="9.474837447040187"><ele>15.0</ele><time>2026-05-01T08:33:29.998Z</time></trkpt><trkpt lat="41.1234448437821" lon="9.474792135259598"><ele>16.0</ele><time>2026-05-01T08:33:30.998Z</time></trkpt><trkpt lat="41.1233698232512" lon="9.474754290112164"><ele>16.0</ele><time>2026-05-01T08:33:31.998Z</time></trkpt><trkpt lat="41.12327285215144" lon="9.47470535884587"><ele>16.0</ele><time>2026-05-01T08:33:33.998Z</time></trkpt><trkpt lat="41.12320587912529" lon="9.474674891692656"><ele>16.0</ele><time>2026-05-01T08:33:41.999Z</time></trkpt><trkpt lat="41.12312386571002" lon="9.474825176374441"><ele>16.0</ele><time>2026-05-01T08:33:44.999Z</time></trkpt><trkpt lat="41.12306342757075" lon="9.474875250523361"><ele>16.0</ele><time>2026-05-01T08:33:45.999Z</time></trkpt><trkpt lat="41.12300848383438" lon="9.474955873561232"><ele>15.4</ele><time>2026-05-01T08:33:46.999Z</time></trkpt><trkpt lat="41.1229262114083" lon="9.475026351583615"><ele>14.8</ele><time>2026-05-01T08:33:47.999Z</time></trkpt><trkpt lat="41.12284931758237" lon="9.475118369579441"><ele>14.200000000000001</ele><time>2026-05-01T08:33:48.999Z</time></trkpt><trkpt lat="41.12276302510466" lon="9.475226337004775"><ele>13.600000000000001</ele><time>2026-05-01T08:33:49.999Z</time></trkpt><trkpt lat="41.122664878587486" lon="9.475334343125445"><ele>13.0</ele><time>2026-05-01T08:33:50.999Z</time></trkpt><trkpt lat="41.12255749382337" lon="9.47544723299461"><ele>13.25</ele><time>2026-05-01T08:33:51.999Z</time></trkpt><trkpt lat="41.122491863370584" lon="9.475595357224249"><ele>13.5</ele><time>2026-05-01T08:33:52.999Z</time></trkpt><trkpt lat="41.122417558624484" lon="9.475744931883415"><ele>13.75</ele><time>2026-05-01T08:33:53.999Z</time></trkpt><trkpt lat="41.1223408625048" lon="9.47589491925693"><ele>14.0</ele><time>2026-05-01T08:33:54.999Z</time></trkpt><trkpt lat="41.12226876702771" lon="9.476049739191774"><ele>14.0</ele><time>2026-05-01T08:33:55.999Z</time></trkpt><trkpt lat="41.122194802678024" lon="9.476193439791349"><ele>14.0</ele><time>2026-05-01T08:33:56.999Z</time></trkpt><trkpt lat="41.12212692331193" lon="9.476349342520432"><ele>14.0</ele><time>2026-05-01T08:33:57.999Z</time></trkpt><trkpt lat="41.122045288400905" lon="9.476501852396058"><ele>14.0</ele><time>2026-05-01T08:33:58.999Z</time></trkpt><trkpt lat="41.12196147165411" lon="9.476656376555708"><ele>16.25</ele><time>2026-05-01T08:33:59.999Z</time></trkpt><trkpt lat="41.1218824539191" lon="9.476818284366125"><ele>18.5</ele><time>2026-05-01T08:34:00.999Z</time></trkpt><trkpt lat="41.12181396538411" lon="9.476990690033743"><ele>20.75</ele><time>2026-05-01T08:34:01.999Z</time></trkpt><trkpt lat="41.12176779627638" lon="9.4771489329294"><ele>23.0</ele><time>2026-05-01T08:34:02.999Z</time></trkpt><trkpt lat="41.121728486717956" lon="9.477307993941801"><ele>24.0</ele><time>2026-05-01T08:34:03.999Z</time></trkpt><trkpt lat="41.12165624770348" lon="9.4774341481706"><ele>25.0</ele><time>2026-05-01T08:34:04.999Z</time></trkpt><trkpt lat="41.1215740977982" lon="9.477536650364762"><ele>26.0</ele><time>2026-05-01T08:34:05.999Z</time></trkpt><trkpt lat="41.121481839795415" lon="9.477658226971004"><ele>27.0</ele><time>2026-05-01T08:34:06.999Z</time></trkpt><trkpt lat="41.121374039641594" lon="9.477777326491038"><ele>27.0</ele><time>2026-05-01T08:34:07.999Z</time></trkpt><trkpt lat="41.12125979538642" lon="9.477898835305322"><ele>27.0</ele><time>2026-05-01T08:34:08.999Z</time></trkpt><trkpt lat="41.121140863474764" lon="9.478010230220791"><ele>27.0</ele><time>2026-05-01T08:34:09.999Z</time></trkpt><trkpt lat="41.12102357036012" lon="9.478120310948603"><ele>27.0</ele><time>2026-05-01T08:34:10.999Z</time></trkpt><trkpt lat="41.12090931275149" lon="9.478236942640411"><ele>27.25</ele><time>2026-05-01T08:34:11.999Z</time></trkpt><trkpt lat="41.12081392192985" lon="9.478351679223337"><ele>27.5</ele><time>2026-05-01T08:34:12.999Z</time></trkpt><trkpt lat="41.12075016486586" lon="9.47847126867218"><ele>27.75</ele><time>2026-05-01T08:34:13.999Z</time></trkpt><trkpt lat="41.120730598008016" lon="9.47862046965007"><ele>28.0</ele><time>2026-05-01T08:34:14.999Z</time></trkpt><trkpt lat="41.12071533132203" lon="9.47880821657082"><ele>28.75</ele><time>2026-05-01T08:34:15.999Z</time></trkpt><trkpt lat="41.12069849073719" lon="9.479010511348237"><ele>29.5</ele><time>2026-05-01T08:34:16.999Z</time></trkpt><trkpt lat="41.12068061646919" lon="9.479195802350139"><ele>30.25</ele><time>2026-05-01T08:34:17.999Z</time></trkpt><trkpt lat="41.120692027902145" lon="9.479381198151025"><ele>31.0</ele><time>2026-05-01T08:34:18.999Z</time></trkpt><trkpt lat="41.12075115133046" lon="9.479559737775377"><ele>34.66666666666667</ele><time>2026-05-01T08:34:19.999Z</time></trkpt><trkpt lat="41.12084874220015" lon="9.479758188003794"><ele>38.333333333333336</ele><time>2026-05-01T08:34:20.999Z</time></trkpt><trkpt lat="41.120902866071816" lon="9.48001633622686"><ele>42.0</ele><time>2026-05-01T08:34:21.999Z</time></trkpt><trkpt lat="41.120961947620195" lon="9.480326836121822"><ele>42.5</ele><time>2026-05-01T08:34:22.999Z</time></trkpt><trkpt lat="41.12104110719133" lon="9.480660779335937"><ele>43.0</ele><time>2026-05-01T08:34:23.999Z</time></trkpt><trkpt lat="41.12107758218254" lon="9.480953417492305"><ele>43.0</ele><time>2026-05-01T08:34:24.999Z</time></trkpt><trkpt lat="41.12111812109306" lon="9.481189560768117"><ele>43.0</ele><time>2026-05-01T08:34:25.999Z</time></trkpt><trkpt lat="41.1211624599726" lon="9.481390286416161"><ele>43.0</ele><time>2026-05-01T08:34:26.999Z</time></trkpt><trkpt lat="41.121191096608655" lon="9.481583332458603"><ele>43.0</ele><time>2026-05-01T08:34:27.999Z</time></trkpt><trkpt lat="41.1212443748442" lon="9.481750062089748"><ele>43.0</ele><time>2026-05-01T08:34:28.999Z</time></trkpt><trkpt lat="41.12130694400568" lon="9.481905275235277"><ele>43.0</ele><time>2026-05-01T08:34:29.999Z</time></trkpt><trkpt lat="41.12138861255192" lon="9.482050794496079"><ele>43.0</ele><time>2026-05-01T08:34:30.999Z</time></trkpt><trkpt lat="41.12151711186807" lon="9.48217488425419"><ele>46.66666666666667</ele><time>2026-05-01T08:34:31.999Z</time></trkpt><trkpt lat="41.121688729813975" lon="9.48229652951415"><ele>50.333333333333336</ele><time>2026-05-01T08:34:32.999Z</time></trkpt><trkpt lat="41.1218410695455" lon="9.482450137543967"><ele>54.0</ele><time>2026-05-01T08:34:33.999Z</time></trkpt><trkpt lat="41.121981919388496" lon="9.48254285741799"><ele>54.0</ele><time>2026-05-01T08:34:34.999Z</time></trkpt><trkpt lat="41.12207900031756" lon="9.482644894418062"><ele>54.0</ele><time>2026-05-01T08:34:35.999Z</time></trkpt><trkpt lat="41.12212881391689" lon="9.482795951371724"><ele>54.0</ele><time>2026-05-01T08:34:36.999Z</time></trkpt><trkpt lat="41.122191068704595" lon="9.482958672890305"><ele>54.0</ele><time>2026-05-01T08:34:37.999Z</time></trkpt><trkpt lat="41.12220550259651" lon="9.483134753825055"><ele>53.25</ele><time>2026-05-01T08:34:38.999Z</time></trkpt><trkpt lat="41.12220213512617" lon="9.483329387049174"><ele>52.5</ele><time>2026-05-01T08:34:39.999Z</time></trkpt><trkpt lat="41.12221726538169" lon="9.48350273501613"><ele>51.75</ele><time>2026-05-01T08:34:40.999Z</time></trkpt><trkpt lat="41.122249730927514" lon="9.483641437944357"><ele>51.0</ele><time>2026-05-01T08:34:41.999Z</time></trkpt><trkpt lat="41.12231724586512" lon="9.483736519497976"><ele>53.599999999999994</ele><time>2026-05-01T08:34:42.999Z</time></trkpt><trkpt lat="41.122412906350434" lon="9.483818171070851"><ele>56.2</ele><time>2026-05-01T08:34:43.999Z</time></trkpt><trkpt lat="41.122512124986464" lon="9.48390056595116"><ele>58.800000000000004</ele><time>2026-05-01T08:34:44.999Z</time></trkpt><trkpt lat="41.12258111084209" lon="9.483995671197526"><ele>61.400000000000006</ele><time>2026-05-01T08:34:45.999Z</time></trkpt><trkpt lat="41.12260464897096" lon="9.48411849066224"><ele>64.0</ele><time>2026-05-01T08:34:46.999Z</time></trkpt><trkpt lat="41.12256925389514" lon="9.484227354685707"><ele>64.0</ele><time>2026-05-01T08:34:47.999Z</time></trkpt><trkpt lat="41.12251903111947" lon="9.484316861644363"><ele>64.0</ele><time>2026-05-01T08:34:48.999Z</time></trkpt><trkpt lat="41.122475370075826" lon="9.484433277865381"><ele>64.0</ele><time>2026-05-01T08:34:49.999Z</time></trkpt><trkpt lat="41.12244685372363" lon="9.484554305685297"><ele>64.0</ele><time>2026-05-01T08:34:50.999Z</time></trkpt><trkpt lat="41.122391884964046" lon="9.484656576144431"><ele>64.0</ele><time>2026-05-01T08:34:51.999Z</time></trkpt><trkpt lat="41.122364073189985" lon="9.484773386228662"><ele>63.166666666666664</ele><time>2026-05-01T08:34:52.999Z</time></trkpt><trkpt lat="41.12232990013077" lon="9.484879245781563"><ele>62.33333333333333</ele><time>2026-05-01T08:34:53.999Z</time></trkpt><trkpt lat="41.12232685676346" lon="9.484995027788143"><ele>61.5</ele><time>2026-05-01T08:34:54.999Z</time></trkpt><trkpt lat="41.12232915521155" lon="9.48511306051781"><ele>60.66666666666667</ele><time>2026-05-01T08:34:55.999Z</time></trkpt><trkpt lat="41.122331560404106" lon="9.48523766606125"><ele>59.833333333333336</ele><time>2026-05-01T08:34:56.999Z</time></trkpt><trkpt lat="41.12233658894656" lon="9.485358175759007"><ele>59.0</ele><time>2026-05-01T08:34:57.999Z</time></trkpt><trkpt lat="41.12236481509239" lon="9.485472947243744"><ele>60.800000000000004</ele><time>2026-05-01T08:34:58.999Z</time></trkpt><trkpt lat="41.122428440419824" lon="9.485569807204953"><ele>62.60000000000001</ele><time>2026-05-01T08:34:59.999Z</time></trkpt><trkpt lat="41.12250619259037" lon="9.485652209467549"><ele>64.4</ele><time>2026-05-01T08:35:00.999Z</time></trkpt><trkpt lat="41.12257782798559" lon="9.485740768016834"><ele>66.2</ele><time>2026-05-01T08:35:01.999Z</time></trkpt><trkpt lat="41.12264397487298" lon="9.485828041553678"><ele>68.0</ele><time>2026-05-01T08:35:02.999Z</time></trkpt><trkpt lat="41.12271341561317" lon="9.485911815973594"><ele>68.0</ele><time>2026-05-01T08:35:03.999Z</time></trkpt><trkpt lat="41.12277669607907" lon="9.485992278967473"><ele>68.0</ele><time>2026-05-01T08:35:04.999Z</time></trkpt><trkpt lat="41.12283553626644" lon="9.48607037733135"><ele>68.0</ele><time>2026-05-01T08:35:05.999Z</time></trkpt><trkpt lat="41.122886925772484" lon="9.48614555266831"><ele>68.0</ele><time>2026-05-01T08:35:06.999Z</time></trkpt><trkpt lat="41.12293796886077" lon="9.486210103539097"><ele>68.0</ele><time>2026-05-01T08:35:07.999Z</time></trkpt><trkpt lat="41.123001413170925" lon="9.486328667566166"><ele>68.0</ele><time>2026-05-01T08:35:08.999Z</time></trkpt><trkpt lat="41.12305872218918" lon="9.486402626376426"><ele>67.99999999999999</ele><time>2026-05-01T08:35:09.999Z</time></trkpt><trkpt lat="41.123094568874194" lon="9.486485040112967"><ele>68.0</ele><time>2026-05-01T08:35:10.999Z</time></trkpt><trkpt lat="41.12311758441251" lon="9.486569885604185"><ele>68.0</ele><time>2026-05-01T08:35:12Z</time></trkpt><trkpt lat="41.12311706140146" lon="9.486656196978027"><ele>68.0</ele><time>2026-05-01T08:35:13Z</time></trkpt><trkpt lat="41.12313444930233" lon="9.48674104761477"><ele>68.0</ele><time>2026-05-01T08:35:14Z</time></trkpt><trkpt lat="41.123167304994645" lon="9.48682132647557"><ele>67.99999999999999</ele><time>2026-05-01T08:35:15Z</time></trkpt><trkpt lat="41.123206037134764" lon="9.486907422414825"><ele>68.0</ele><time>2026-05-01T08:35:16Z</time></trkpt><trkpt lat="41.123247916070156" lon="9.486995447598153"><ele>69.2</ele><time>2026-05-01T08:35:17Z</time></trkpt><trkpt lat="41.12329606372136" lon="9.487130456203195"><ele>70.4</ele><time>2026-05-01T08:35:19Z</time></trkpt><trkpt lat="41.12330886368527" lon="9.487288786341015"><ele>71.60000000000001</ele><time>2026-05-01T08:35:21Z</time></trkpt><trkpt lat="41.123262780834416" lon="9.487368363487171"><ele>72.8</ele><time>2026-05-01T08:35:22Z</time></trkpt><trkpt lat="41.1232068591893" lon="9.487436236628108"><ele>74.0</ele><time>2026-05-01T08:35:22.999Z</time></trkpt><trkpt lat="41.12316062771708" lon="9.48751596210163"><ele>74.0</ele><time>2026-05-01T08:35:23.999Z</time></trkpt><trkpt lat="41.12312135633098" lon="9.487597684128458"><ele>74.0</ele><time>2026-05-01T08:35:24.999Z</time></trkpt><trkpt lat="41.1230738724613" lon="9.48768395375199"><ele>74.0</ele><time>2026-05-01T08:35:25.999Z</time></trkpt><trkpt lat="41.123025806431514" lon="9.48776802049062"><ele>74.0</ele><time>2026-05-01T08:35:26.999Z</time></trkpt><trkpt lat="41.122980506945815" lon="9.48784791053725"><ele>74.0</ele><time>2026-05-01T08:35:27.999Z</time></trkpt><trkpt lat="41.12293272691078" lon="9.487920594263935"><ele>74.0</ele><time>2026-05-01T08:35:28.999Z</time></trkpt><trkpt lat="41.122894079877845" lon="9.48800342005722"><ele>75.5</ele><time>2026-05-01T08:35:29.999Z</time></trkpt><trkpt lat="41.12287160547784" lon="9.488098323653695"><ele>77.0</ele><time>2026-05-01T08:35:30.999Z</time></trkpt><trkpt lat="41.12285498379238" lon="9.488192313434377"><ele>78.5</ele><time>2026-05-01T08:35:31.999Z</time></trkpt><trkpt lat="41.12284686544544" lon="9.488284708440995"><ele>80.0</ele><time>2026-05-01T08:35:32.999Z</time></trkpt><trkpt lat="41.12284479022219" lon="9.488377221326896"><ele>81.5</ele><time>2026-05-01T08:35:33.999Z</time></trkpt><trkpt lat="41.12284740131666" lon="9.488467731438156"><ele>83.0</ele><time>2026-05-01T08:35:34.999Z</time></trkpt><trkpt lat="41.12285602133709" lon="9.488608899410883"><ele>83.60000000000001</ele><time>2026-05-01T08:35:36.999Z</time></trkpt><trkpt lat="41.12288036190672" lon="9.488771956366012"><ele>84.2</ele><time>2026-05-01T08:35:38.999Z</time></trkpt><trkpt lat="41.12292112613857" lon="9.488869732690384"><ele>84.8</ele><time>2026-05-01T08:35:40.999Z</time></trkpt><trkpt lat="41.122997823686575" lon="9.489020386230122"><ele>85.4</ele><time>2026-05-01T08:35:46.999Z</time></trkpt><trkpt lat="41.1230543180172" lon="9.48913240804038"><ele>86.0</ele><time>2026-05-01T08:35:47.999Z</time></trkpt><trkpt lat="41.12310648186812" lon="9.489262667442974"><ele>86.0</ele><time>2026-05-01T08:35:48.999Z</time></trkpt><trkpt lat="41.123164636775336" lon="9.489418985406793"><ele>86.0</ele><time>2026-05-01T08:35:49.999Z</time></trkpt><trkpt lat="41.12316357723328" lon="9.489612842257708"><ele>86.0</ele><time>2026-05-01T08:35:50.999Z</time></trkpt><trkpt lat="41.12315869875681" lon="9.489805424500023"><ele>86.0</ele><time>2026-05-01T08:35:51.999Z</time></trkpt><trkpt lat="41.12316566551538" lon="9.489986174023777"><ele>86.19999999999999</ele><time>2026-05-01T08:35:52.999Z</time></trkpt><trkpt lat="41.12313317145865" lon="9.490139833857299"><ele>86.39999999999999</ele><time>2026-05-01T08:35:53.999Z</time></trkpt><trkpt lat="41.12309852436882" lon="9.490276652598496"><ele>86.6</ele><time>2026-05-01T08:35:54.999Z</time></trkpt><trkpt lat="41.12306441163139" lon="9.490404767346712"><ele>86.8</ele><time>2026-05-01T08:35:55.999Z</time></trkpt><trkpt lat="41.123050697804246" lon="9.490525558593019"><ele>87.0</ele><time>2026-05-01T08:35:56.999Z</time></trkpt><trkpt lat="41.123016605623405" lon="9.490626989953975"><ele>88.39999999999999</ele><time>2026-05-01T08:35:57.999Z</time></trkpt><trkpt lat="41.12296653645429" lon="9.490715799185617"><ele>89.8</ele><time>2026-05-01T08:35:58.999Z</time></trkpt><trkpt lat="41.122881649627416" lon="9.490765857090782"><ele>91.2</ele><time>2026-05-01T08:35:59.999Z</time></trkpt><trkpt lat="41.12281105170719" lon="9.490832739878822"><ele>92.6</ele><time>2026-05-01T08:36:00.999Z</time></trkpt><trkpt lat="41.12275518017054" lon="9.490911018748971"><ele>94.0</ele><time>2026-05-01T08:36:01.999Z</time></trkpt><trkpt lat="41.12265095731627" lon="9.490965266410132"><ele>94.0</ele><time>2026-05-01T08:36:03.999Z</time></trkpt><trkpt lat="41.1225316843907" lon="9.490940554130093"><ele>94.0</ele><time>2026-05-01T08:36:06Z</time></trkpt><trkpt lat="41.12247136830175" lon="9.490908366330105"><ele>94.0</ele><time>2026-05-01T08:36:07Z</time></trkpt><trkpt lat="41.122422755384704" lon="9.490835313136397"><ele>94.0</ele><time>2026-05-01T08:36:08Z</time></trkpt><trkpt lat="41.12236360165424" lon="9.49076872980066"><ele>94.0</ele><time>2026-05-01T08:36:09Z</time></trkpt><trkpt lat="41.12229848057621" lon="9.490704435203746"><ele>94.0</ele><time>2026-05-01T08:36:10Z</time></trkpt><trkpt lat="41.122224536593365" lon="9.490633225522819"><ele>94.0</ele><time>2026-05-01T08:36:11Z</time></trkpt><trkpt lat="41.12213316320859" lon="9.490567355685531"><ele>94.0</ele><time>2026-05-01T08:36:12Z</time></trkpt><trkpt lat="41.12205220854123" lon="9.490480812639591"><ele>94.0</ele><time>2026-05-01T08:36:13Z</time></trkpt><trkpt lat="41.121988055585994" lon="9.490435873400967"><ele>94.0</ele><time>2026-05-01T08:36:14Z</time></trkpt><trkpt lat="41.12193757990884" lon="9.490377111036675"><ele>94.0</ele><time>2026-05-01T08:36:16Z</time></trkpt><trkpt lat="41.12192437929197" lon="9.49025607735862"><ele>94.0</ele><time>2026-05-01T08:36:18Z</time></trkpt><trkpt lat="41.121889014527255" lon="9.49018447762309"><ele>94.0</ele><time>2026-05-01T08:36:19Z</time></trkpt><trkpt lat="41.12194726219366" lon="9.490013169423934"><ele>94.0</ele><time>2026-05-01T08:36:20Z</time></trkpt><trkpt lat="41.12194861124946" lon="9.489891871185627"><ele>94.0</ele><time>2026-05-01T08:36:21Z</time></trkpt><trkpt lat="41.121936652630815" lon="9.489764589669937"><ele>94.0</ele><time>2026-05-01T08:36:22Z</time></trkpt><trkpt lat="41.12191914144906" lon="9.489624060774126"><ele>94.0</ele><time>2026-05-01T08:36:23Z</time></trkpt><trkpt lat="41.12190287558494" lon="9.489483362430864"><ele>94.5</ele><time>2026-05-01T08:36:24Z</time></trkpt><trkpt lat="41.121903262943206" lon="9.48935430980467"><ele>95.0</ele><time>2026-05-01T08:36:25Z</time></trkpt><trkpt lat="41.1219166905239" lon="9.489229497340002"><ele>95.5</ele><time>2026-05-01T08:36:26Z</time></trkpt><trkpt lat="41.12191839499085" lon="9.489110927116522"><ele>96.0</ele><time>2026-05-01T08:36:27Z</time></trkpt><trkpt lat="41.12190126160904" lon="9.488997808950351"><ele>96.50000000000001</ele><time>2026-05-01T08:36:28Z</time></trkpt><trkpt lat="41.12187741847023" lon="9.488901562816293"><ele>97.0</ele><time>2026-05-01T08:36:29Z</time></trkpt><trkpt lat="41.12184214161027" lon="9.488751379649704"><ele>96.00000000000001</ele><time>2026-05-01T08:36:31Z</time></trkpt><trkpt lat="41.12177455366287" lon="9.488604003028883"><ele>95.0</ele><time>2026-05-01T08:36:33Z</time></trkpt><trkpt lat="41.121726354068265" lon="9.48852317748729"><ele>94.0</ele><time>2026-05-01T08:36:34Z</time></trkpt><trkpt lat="41.12167684335729" lon="9.488439668282806"><ele>93.0</ele><time>2026-05-01T08:36:35Z</time></trkpt><trkpt lat="41.121632182299216" lon="9.488352877196169"><ele>92.0</ele><time>2026-05-01T08:36:36Z</time></trkpt><trkpt lat="41.12159066918164" lon="9.488267116573507"><ele>91.0</ele><time>2026-05-01T08:36:37Z</time></trkpt><trkpt lat="41.121557781238415" lon="9.48818593711313"><ele>91.5</ele><time>2026-05-01T08:36:38Z</time></trkpt><trkpt lat="41.12152214040994" lon="9.488095892075092"><ele>92.0</ele><time>2026-05-01T08:36:39Z</time></trkpt><trkpt lat="41.12148472624116" lon="9.48800924781157"><ele>92.5</ele><time>2026-05-01T08:36:40Z</time></trkpt><trkpt lat="41.121457256883204" lon="9.487908758799179"><ele>93.0</ele><time>2026-05-01T08:36:41Z</time></trkpt><trkpt lat="41.12144392886747" lon="9.48780660945035"><ele>93.5</ele><time>2026-05-01T08:36:42Z</time></trkpt><trkpt lat="41.12144154420283" lon="9.487714573111711"><ele>94.0</ele><time>2026-05-01T08:36:43Z</time></trkpt><trkpt lat="41.12141339302188" lon="9.487576839872805"><ele>94.0</ele><time>2026-05-01T08:36:45Z</time></trkpt><trkpt lat="41.121333157305216" lon="9.487458584527227"><ele>94.0</ele><time>2026-05-01T08:36:47Z</time></trkpt><trkpt lat="41.121283292345254" lon="9.48739134837583"><ele>94.0</ele><time>2026-05-01T08:36:48Z</time></trkpt><trkpt lat="41.12122193450295" lon="9.48731118832744"><ele>94.0</ele><time>2026-05-01T08:36:49Z</time></trkpt><trkpt lat="41.121193545388046" lon="9.487225112119479"><ele>94.0</ele><time>2026-05-01T08:36:50Z</time></trkpt><trkpt lat="41.12115658339809" lon="9.487135853126832"><ele>94.0</ele><time>2026-05-01T08:36:51Z</time></trkpt><trkpt lat="41.12112833076526" lon="9.48704302195737"><ele>92.2</ele><time>2026-05-01T08:36:52Z</time></trkpt><trkpt lat="41.12110202635989" lon="9.486956339131975"><ele>90.4</ele><time>2026-05-01T08:36:53Z</time></trkpt><trkpt lat="41.12102643192648" lon="9.486803793516117"><ele>88.6</ele><time>2026-05-01T08:36:55Z</time></trkpt><trkpt lat="41.120990806021155" lon="9.486729203584652"><ele>86.8</ele><time>2026-05-01T08:36:56Z</time></trkpt><trkpt lat="41.12095249590976" lon="9.48664088161878"><ele>85.0</ele><time>2026-05-01T08:36:58Z</time></trkpt><trkpt lat="41.120908387213575" lon="9.48651992252353"><ele>85.0</ele><time>2026-05-01T08:37:09Z</time></trkpt><trkpt lat="41.12087030109585" lon="9.486431751176863"><ele>85.0</ele><time>2026-05-01T08:37:11Z</time></trkpt><trkpt lat="41.12083237258317" lon="9.486346487450916"><ele>85.0</ele><time>2026-05-01T08:37:43Z</time></trkpt><trkpt lat="41.120814320260884" lon="9.486252335017193"><ele>85.0</ele><time>2026-05-01T08:37:46Z</time></trkpt><trkpt lat="41.12072705516806" lon="9.486200539727184"><ele>85.0</ele><time>2026-05-01T08:37:49Z</time></trkpt><trkpt lat="41.120661056148045" lon="9.48616056374087"><ele>85.0</ele><time>2026-05-01T08:37:53Z</time></trkpt><trkpt lat="41.12059990929715" lon="9.486134969530891"><ele>86.0</ele><time>2026-05-01T08:38:16Z</time></trkpt><trkpt lat="41.12053542522439" lon="9.486083815592004"><ele>87.0</ele><time>2026-05-01T08:38:45Z</time></trkpt><trkpt lat="41.12048945414846" lon="9.48601975316689"><ele>88.0</ele><time>2026-05-01T08:38:48Z</time></trkpt><trkpt lat="41.12044351280696" lon="9.485951839583665"><ele>89.0</ele><time>2026-05-01T08:38:51Z</time></trkpt><trkpt lat="41.12038616137773" lon="9.485898316791312"><ele>90.0</ele><time>2026-05-01T08:38:54Z</time></trkpt><trkpt lat="41.1203543902984" lon="9.48580940709593"><ele>91.0</ele><time>2026-05-01T08:38:58Z</time></trkpt><trkpt lat="41.12031547184196" lon="9.485734181124702"><ele>92.0</ele><time>2026-05-01T08:39:01Z</time></trkpt><trkpt lat="41.12025744013519" lon="9.485647038193488"><ele>92.0</ele><time>2026-05-01T08:39:04Z</time></trkpt><trkpt lat="41.12021289764349" lon="9.485566939433928"><ele>92.0</ele><time>2026-05-01T08:39:09Z</time></trkpt><trkpt lat="41.120165267914416" lon="9.485478453771428"><ele>92.0</ele><time>2026-05-01T08:39:13Z</time></trkpt><trkpt lat="41.12012638348049" lon="9.485399590582306"><ele>92.0</ele><time>2026-05-01T08:39:17Z</time></trkpt><trkpt lat="41.120103613389695" lon="9.48531008562157"><ele>92.0</ele><time>2026-05-01T08:39:22Z</time></trkpt><trkpt lat="41.12008365210217" lon="9.485228766130966"><ele>92.0</ele><time>2026-05-01T08:39:27Z</time></trkpt><trkpt lat="41.120061850106495" lon="9.485141719743137"><ele>92.0</ele><time>2026-05-01T08:39:32Z</time></trkpt><trkpt lat="41.11998758176779" lon="9.485061428860591"><ele>90.19999999999999</ele><time>2026-05-01T08:39:35Z</time></trkpt><trkpt lat="41.11991276118909" lon="9.485014123470075"><ele>88.4</ele><time>2026-05-01T08:39:37Z</time></trkpt><trkpt lat="41.11981198120365" lon="9.484947206168627"><ele>86.6</ele><time>2026-05-01T08:39:39Z</time></trkpt><trkpt lat="41.11975066341364" lon="9.484915274662047"><ele>84.80000000000001</ele><time>2026-05-01T08:39:40Z</time></trkpt><trkpt lat="41.1196836901518" lon="9.48482637710197"><ele>83.0</ele><time>2026-05-01T08:39:42Z</time></trkpt><trkpt lat="41.119618549854096" lon="9.484726381588816"><ele>84.60000000000001</ele><time>2026-05-01T08:39:44Z</time></trkpt><trkpt lat="41.11954440668258" lon="9.484639762792893"><ele>86.2</ele><time>2026-05-01T08:39:47Z</time></trkpt><trkpt lat="41.11947968212243" lon="9.484600589862012"><ele>87.8</ele><time>2026-05-01T08:39:49Z</time></trkpt><trkpt lat="41.11937442163971" lon="9.484560413628513"><ele>89.4</ele><time>2026-05-01T08:39:51Z</time></trkpt><trkpt lat="41.1192819875965" lon="9.48446700434245"><ele>91.0</ele><time>2026-05-01T08:39:54Z</time></trkpt><trkpt lat="41.11921180871642" lon="9.484385181056394"><ele>91.0</ele><time>2026-05-01T08:39:56Z</time></trkpt><trkpt lat="41.119143386425186" lon="9.48432768071852"><ele>91.0</ele><time>2026-05-01T08:39:58Z</time></trkpt><trkpt lat="41.11908479946383" lon="9.484272711050457"><ele>91.0</ele><time>2026-05-01T08:40:00Z</time></trkpt><trkpt lat="41.11901180141257" lon="9.484206962185496"><ele>91.0</ele><time>2026-05-01T08:40:02Z</time></trkpt><trkpt lat="41.11892193504551" lon="9.484134006489906"><ele>91.0</ele><time>2026-05-01T08:40:04Z</time></trkpt><trkpt lat="41.11884888120622" lon="9.484057944074477"><ele>91.0</ele><time>2026-05-01T08:40:06Z</time></trkpt><trkpt lat="41.118747572420496" lon="9.484056232443105"><ele>91.66666666666666</ele><time>2026-05-01T08:40:08Z</time></trkpt><trkpt lat="41.11867461014648" lon="9.484020473332576"><ele>92.33333333333333</ele><time>2026-05-01T08:40:11Z</time></trkpt><trkpt lat="41.11857459006465" lon="9.483990917841567"><ele>93.0</ele><time>2026-05-01T08:40:13Z</time></trkpt><trkpt lat="41.1184748094615" lon="9.48398585386749"><ele>93.66666666666667</ele><time>2026-05-01T08:40:15Z</time></trkpt><trkpt lat="41.118400170005536" lon="9.483985191025655"><ele>94.33333333333334</ele><time>2026-05-01T08:40:18Z</time></trkpt><trkpt lat="41.118310036344965" lon="9.483986643868327"><ele>95.0</ele><time>2026-05-01T08:40:21Z</time></trkpt><trkpt lat="41.11823688103639" lon="9.483996737374495"><ele>94.57142857142857</ele><time>2026-05-01T08:40:23Z</time></trkpt><trkpt lat="41.11815897269296" lon="9.484008091132356"><ele>94.14285714285714</ele><time>2026-05-01T08:40:25Z</time></trkpt><trkpt lat="41.1180689036727" lon="9.483973142494719"><ele>93.71428571428572</ele><time>2026-05-01T08:40:27Z</time></trkpt><trkpt lat="41.118008513008434" lon="9.483922807464685"><ele>93.28571428571428</ele><time>2026-05-01T08:40:29Z</time></trkpt><trkpt lat="41.11795102651406" lon="9.483885643027872"><ele>92.85714285714285</ele><time>2026-05-01T08:40:31Z</time></trkpt><trkpt lat="41.11788644775647" lon="9.483882831348184"><ele>92.42857142857143</ele><time>2026-05-01T08:40:33Z</time></trkpt><trkpt lat="41.11782161649488" lon="9.483861057889717"><ele>92.0</ele><time>2026-05-01T08:40:35Z</time></trkpt><trkpt lat="41.11773627312368" lon="9.48383326917566"><ele>92.0</ele><time>2026-05-01T08:40:38Z</time></trkpt><trkpt lat="41.1176447553764" lon="9.483797536224"><ele>92.0</ele><time>2026-05-01T08:40:40Z</time></trkpt><trkpt lat="41.11755037862883" lon="9.483745982342453"><ele>92.0</ele><time>2026-05-01T08:40:42Z</time></trkpt><trkpt lat="41.11746423284593" lon="9.48369172586797"><ele>92.0</ele><time>2026-05-01T08:40:44Z</time></trkpt><trkpt lat="41.117385419450216" lon="9.48369362859073"><ele>92.0</ele><time>2026-05-01T08:40:46Z</time></trkpt><trkpt lat="41.11731498897273" lon="9.483684372099559"><ele>92.0</ele><time>2026-05-01T08:40:48Z</time></trkpt><trkpt lat="41.11723791867567" lon="9.483712958477556"><ele>91.0</ele><time>2026-05-01T08:41:00Z</time></trkpt><trkpt lat="41.11715359520157" lon="9.483732467037676"><ele>90.0</ele><time>2026-05-01T08:41:02Z</time></trkpt><trkpt lat="41.11706410453335" lon="9.483671403173117"><ele>89.0</ele><time>2026-05-01T08:41:04Z</time></trkpt><trkpt lat="41.11697707752546" lon="9.483581091505712"><ele>88.0</ele><time>2026-05-01T08:41:06Z</time></trkpt><trkpt lat="41.11691887404715" lon="9.483517235591162"><ele>87.0</ele><time>2026-05-01T08:41:08Z</time></trkpt><trkpt lat="41.11681856445976" lon="9.483473882408857"><ele>87.0</ele><time>2026-05-01T08:41:10Z</time></trkpt><trkpt lat="41.1167388877895" lon="9.483434228728909"><ele>87.0</ele><time>2026-05-01T08:41:12Z</time></trkpt><trkpt lat="41.116703210787016" lon="9.483356462705508"><ele>87.0</ele><time>2026-05-01T08:41:16Z</time></trkpt><trkpt lat="41.11672412426472" lon="9.483276127503764"><ele>87.0</ele><time>2026-05-01T08:41:34Z</time></trkpt><trkpt lat="41.1167589519057" lon="9.483156694174038"><ele>87.0</ele><time>2026-05-01T08:41:36Z</time></trkpt><trkpt lat="41.11680112676323" lon="9.483052610608812"><ele>87.0</ele><time>2026-05-01T08:41:37Z</time></trkpt><trkpt lat="41.11685343254044" lon="9.482975316653915"><ele>87.16666666666667</ele><time>2026-05-01T08:41:38Z</time></trkpt><trkpt lat="41.116916253786734" lon="9.48290456054132"><ele>87.33333333333333</ele><time>2026-05-01T08:41:39Z</time></trkpt><trkpt lat="41.116994199671865" lon="9.482840623768904"><ele>87.5</ele><time>2026-05-01T08:41:40Z</time></trkpt><trkpt lat="41.11706269466765" lon="9.48278712132329"><ele>87.66666666666666</ele><time>2026-05-01T08:41:41Z</time></trkpt><trkpt lat="41.117092092896925" lon="9.482671780287111"><ele>87.83333333333333</ele><time>2026-05-01T08:41:43Z</time></trkpt><trkpt lat="41.11707317892392" lon="9.482577780807834"><ele>88.0</ele><time>2026-05-01T08:41:44Z</time></trkpt><trkpt lat="41.117028911065596" lon="9.482494913922611"><ele>88.0</ele><time>2026-05-01T08:41:45Z</time></trkpt><trkpt lat="41.11692930112486" lon="9.48241679470436"><ele>88.0</ele><time>2026-05-01T08:41:46Z</time></trkpt><trkpt lat="41.11683445108193" lon="9.482321304153944"><ele>88.0</ele><time>2026-05-01T08:41:47Z</time></trkpt><trkpt lat="41.11683461529985" lon="9.482234348087832"><ele>88.0</ele><time>2026-05-01T08:41:48Z</time></trkpt><trkpt lat="41.11675921173932" lon="9.482089635156392"><ele>88.0</ele><time>2026-05-01T08:41:49Z</time></trkpt><trkpt lat="41.116684157758826" lon="9.481961180033952"><ele>90.0</ele><time>2026-05-01T08:41:50Z</time></trkpt><trkpt lat="41.116600494448086" lon="9.481827007255504"><ele>92.0</ele><time>2026-05-01T08:41:51Z</time></trkpt><trkpt lat="41.11649722789831" lon="9.481693085591631"><ele>94.0</ele><time>2026-05-01T08:41:52Z</time></trkpt><trkpt lat="41.116398945283706" lon="9.481602914464867"><ele>96.0</ele><time>2026-05-01T08:41:53Z</time></trkpt><trkpt lat="41.11629424683413" lon="9.481544426470775"><ele>96.8</ele><time>2026-05-01T08:41:54Z</time></trkpt><trkpt lat="41.116200888418064" lon="9.481513675470364"><ele>97.6</ele><time>2026-05-01T08:41:55Z</time></trkpt><trkpt lat="41.116136535631284" lon="9.48149912196683"><ele>98.4</ele><time>2026-05-01T08:41:56Z</time></trkpt><trkpt lat="41.1161086432344" lon="9.481339783859294"><ele>99.2</ele><time>2026-05-01T08:41:58Z</time></trkpt><trkpt lat="41.11611109019729" lon="9.481244056892242"><ele>100.0</ele><time>2026-05-01T08:41:59Z</time></trkpt><trkpt lat="41.11619151216056" lon="9.481180187037294"><ele>101.8</ele><time>2026-05-01T08:42:01Z</time></trkpt><trkpt lat="41.11626469396731" lon="9.48111059304728"><ele>103.6</ele><time>2026-05-01T08:42:02Z</time></trkpt><trkpt lat="41.11633919381691" lon="9.480989741269124"><ele>105.4</ele><time>2026-05-01T08:42:03Z</time></trkpt><trkpt lat="41.116399883322316" lon="9.480854866161446"><ele>107.2</ele><time>2026-05-01T08:42:04Z</time></trkpt><trkpt lat="41.11646567283865" lon="9.480722014375935"><ele>109.0</ele><time>2026-05-01T08:42:05Z</time></trkpt><trkpt lat="41.116539782277115" lon="9.480578254325634"><ele>108.71428571428572</ele><time>2026-05-01T08:42:06Z</time></trkpt><trkpt lat="41.1165918502525" lon="9.480505283180127"><ele>108.42857142857143</ele><time>2026-05-01T08:42:07Z</time></trkpt><trkpt lat="41.1166496407135" lon="9.48046715555928"><ele>108.14285714285714</ele><time>2026-05-01T08:42:08Z</time></trkpt><trkpt lat="41.11672372288452" lon="9.48046174730001"><ele>107.85714285714286</ele><time>2026-05-01T08:42:09Z</time></trkpt><trkpt lat="41.116803933525226" lon="9.480491537310801"><ele>107.57142857142857</ele><time>2026-05-01T08:42:10Z</time></trkpt><trkpt lat="41.116872263464366" lon="9.480524446205017"><ele>107.28571428571429</ele><time>2026-05-01T08:42:11Z</time></trkpt><trkpt lat="41.11693692139327" lon="9.480529835592028"><ele>107.0</ele><time>2026-05-01T08:42:12Z</time></trkpt><trkpt lat="41.11700894321149" lon="9.48050682939418"><ele>105.8</ele><time>2026-05-01T08:42:13Z</time></trkpt><trkpt lat="41.11712003216379" lon="9.480405239437927"><ele>104.6</ele><time>2026-05-01T08:42:15Z</time></trkpt><trkpt lat="41.11717742372171" lon="9.480250951540643"><ele>103.39999999999999</ele><time>2026-05-01T08:42:16.001Z</time></trkpt><trkpt lat="41.117221002948384" lon="9.48016618264179"><ele>102.19999999999999</ele><time>2026-05-01T08:42:17.001Z</time></trkpt><trkpt lat="41.117259397154086" lon="9.480089188110407"><ele>101.0</ele><time>2026-05-01T08:42:18.001Z</time></trkpt><trkpt lat="41.11730257815621" lon="9.480006718450365"><ele>101.0</ele><time>2026-05-01T08:42:19.001Z</time></trkpt><trkpt lat="41.11735034441629" lon="9.479899084936731"><ele>101.0</ele><time>2026-05-01T08:42:20.001Z</time></trkpt><trkpt lat="41.11743483996692" lon="9.479809705602598"><ele>101.0</ele><time>2026-05-01T08:42:21.001Z</time></trkpt><trkpt lat="41.11750328647675" lon="9.479723950095591"><ele>101.0</ele><time>2026-05-01T08:42:22.001Z</time></trkpt><trkpt lat="41.117548875301345" lon="9.47965345803466"><ele>101.0</ele><time>2026-05-01T08:42:23.001Z</time></trkpt><trkpt lat="41.11758306029287" lon="9.479499037838062"><ele>98.6</ele><time>2026-05-01T08:42:25.001Z</time></trkpt><trkpt lat="41.11757779344892" lon="9.47938867484296"><ele>96.19999999999999</ele><time>2026-05-01T08:42:26.001Z</time></trkpt><trkpt lat="41.117579908409134" lon="9.47925869609099"><ele>93.80000000000001</ele><time>2026-05-01T08:42:27.001Z</time></trkpt><trkpt lat="41.11760085323191" lon="9.479140010716842"><ele>91.4</ele><time>2026-05-01T08:42:28.001Z</time></trkpt><trkpt lat="41.11763282855093" lon="9.47902635381804"><ele>89.0</ele><time>2026-05-01T08:42:29.001Z</time></trkpt><trkpt lat="41.11766001440157" lon="9.478913761715758"><ele>89.0</ele><time>2026-05-01T08:42:30.001Z</time></trkpt><trkpt lat="41.11768781319547" lon="9.47879533833066"><ele>89.0</ele><time>2026-05-01T08:42:31.001Z</time></trkpt><trkpt lat="41.117720001579166" lon="9.478672832104529"><ele>89.0</ele><time>2026-05-01T08:42:32.001Z</time></trkpt><trkpt lat="41.11774338258934" lon="9.478551779779574"><ele>89.0</ele><time>2026-05-01T08:42:33.001Z</time></trkpt><trkpt lat="41.11776052720615" lon="9.478448491014495"><ele>89.0</ele><time>2026-05-01T08:42:34.001Z</time></trkpt><trkpt lat="41.11779198912958" lon="9.478353443296312"><ele>89.0</ele><time>2026-05-01T08:42:35.001Z</time></trkpt><trkpt lat="41.11789806758188" lon="9.478262877751183"><ele>87.33333333333334</ele><time>2026-05-01T08:42:37.001Z</time></trkpt><trkpt lat="41.11796925717585" lon="9.478253288322295"><ele>85.66666666666667</ele><time>2026-05-01T08:42:38.001Z</time></trkpt><trkpt lat="41.11804905801387" lon="9.478245662723557"><ele>84.0</ele><time>2026-05-01T08:42:39.001Z</time></trkpt><trkpt lat="41.118135864861" lon="9.478233450490217"><ele>82.33333333333333</ele><time>2026-05-01T08:42:40.001Z</time></trkpt><trkpt lat="41.118228264385735" lon="9.478220937134786"><ele>80.66666666666666</ele><time>2026-05-01T08:42:41.001Z</time></trkpt><trkpt lat="41.118325042251186" lon="9.478215554591982"><ele>79.0</ele><time>2026-05-01T08:42:42.001Z</time></trkpt><trkpt lat="41.11841601939367" lon="9.478219184599931"><ele>77.66666666666666</ele><time>2026-05-01T08:42:43.001Z</time></trkpt><trkpt lat="41.11849641699053" lon="9.478208827087553"><ele>76.33333333333333</ele><time>2026-05-01T08:42:44.001Z</time></trkpt><trkpt lat="41.11856032754866" lon="9.478176365181195"><ele>75.0</ele><time>2026-05-01T08:42:45.001Z</time></trkpt><trkpt lat="41.11861311648477" lon="9.478113174068977"><ele>73.66666666666667</ele><time>2026-05-01T08:42:46.001Z</time></trkpt><trkpt lat="41.11864353877861" lon="9.478011013162684"><ele>72.33333333333334</ele><time>2026-05-01T08:42:47.001Z</time></trkpt><trkpt lat="41.11867387614492" lon="9.47788552013853"><ele>71.0</ele><time>2026-05-01T08:42:48.001Z</time></trkpt><trkpt lat="41.118697075740684" lon="9.477757697511834"><ele>71.0</ele><time>2026-05-01T08:42:49.001Z</time></trkpt><trkpt lat="41.11872369840553" lon="9.477611026527049"><ele>71.0</ele><time>2026-05-01T08:42:50.001Z</time></trkpt><trkpt lat="41.118750698826155" lon="9.477465404081116"><ele>71.0</ele><time>2026-05-01T08:42:51.001Z</time></trkpt><trkpt lat="41.11877245023646" lon="9.477326005625255"><ele>71.0</ele><time>2026-05-01T08:42:52.001Z</time></trkpt><trkpt lat="41.11878960919357" lon="9.477188738243596"><ele>71.0</ele><time>2026-05-01T08:42:53.001Z</time></trkpt><trkpt lat="41.11880504592248" lon="9.477052262856457"><ele>69.2</ele><time>2026-05-01T08:42:54.001Z</time></trkpt><trkpt lat="41.1188259570939" lon="9.476922246079909"><ele>67.39999999999999</ele><time>2026-05-01T08:42:55.001Z</time></trkpt><trkpt lat="41.11887154039735" lon="9.476809409435429"><ele>65.6</ele><time>2026-05-01T08:42:56.001Z</time></trkpt><trkpt lat="41.11895037222676" lon="9.476708506857928"><ele>63.8</ele><time>2026-05-01T08:42:57.001Z</time></trkpt><trkpt lat="41.1190307423515" lon="9.47659909282665"><ele>62.0</ele><time>2026-05-01T08:42:58.001Z</time></trkpt><trkpt lat="41.11907090035836" lon="9.476469461886106"><ele>57.75</ele><time>2026-05-01T08:42:59.001Z</time></trkpt><trkpt lat="41.119089665494535" lon="9.476318305729242"><ele>53.5</ele><time>2026-05-01T08:43:00.001Z</time></trkpt><trkpt lat="41.11910263251367" lon="9.476160170274873"><ele>49.25</ele><time>2026-05-01T08:43:01.001Z</time></trkpt><trkpt lat="41.1191221962027" lon="9.476005844841545"><ele>45.0</ele><time>2026-05-01T08:43:02.001Z</time></trkpt><trkpt lat="41.119153847819454" lon="9.475864220773214"><ele>45.0</ele><time>2026-05-01T08:43:03.001Z</time></trkpt><trkpt lat="41.11919498999857" lon="9.475724573781768"><ele>45.0</ele><time>2026-05-01T08:43:04.001Z</time></trkpt><trkpt lat="41.11924633365067" lon="9.475600214704112"><ele>45.0</ele><time>2026-05-01T08:43:05.001Z</time></trkpt><trkpt lat="41.119303634365245" lon="9.475485747701553"><ele>45.0</ele><time>2026-05-01T08:43:06.001Z</time></trkpt><trkpt lat="41.1193538547947" lon="9.475367179494853"><ele>45.0</ele><time>2026-05-01T08:43:07.001Z</time></trkpt><trkpt lat="41.11939026006238" lon="9.47524340694016"><ele>44.2</ele><time>2026-05-01T08:43:08.001Z</time></trkpt><trkpt lat="41.11942082697415" lon="9.475100529540406"><ele>43.4</ele><time>2026-05-01T08:43:09.001Z</time></trkpt><trkpt lat="41.11943870645685" lon="9.474977785641748"><ele>42.599999999999994</ele><time>2026-05-01T08:43:10.001Z</time></trkpt><trkpt lat="41.11945567529402" lon="9.474845780305147"><ele>41.8</ele><time>2026-05-01T08:43:11.001Z</time></trkpt><trkpt lat="41.11946911584532" lon="9.474719007857594"><ele>41.0</ele><time>2026-05-01T08:43:12.001Z</time></trkpt><trkpt lat="41.11948675925015" lon="9.47459835753239"><ele>39.8</ele><time>2026-05-01T08:43:13.001Z</time></trkpt><trkpt lat="41.11952352038452" lon="9.474497536395614"><ele>38.599999999999994</ele><time>2026-05-01T08:43:14.001Z</time></trkpt><trkpt lat="41.119595256614026" lon="9.47442089899113"><ele>37.4</ele><time>2026-05-01T08:43:15.001Z</time></trkpt><trkpt lat="41.11969558930263" lon="9.474359404939852"><ele>36.2</ele><time>2026-05-01T08:43:16.001Z</time></trkpt><trkpt lat="41.11979884545944" lon="9.474308920593717"><ele>35.0</ele><time>2026-05-01T08:43:17.001Z</time></trkpt><trkpt lat="41.119892448493076" lon="9.47424521809527"><ele>33.8</ele><time>2026-05-01T08:43:18.001Z</time></trkpt><trkpt lat="41.11998412292734" lon="9.474172004475719"><ele>32.6</ele><time>2026-05-01T08:43:19.001Z</time></trkpt><trkpt lat="41.12006969097566" lon="9.474097966318327"><ele>31.4</ele><time>2026-05-01T08:43:20.001Z</time></trkpt><trkpt lat="41.120150354569944" lon="9.474014562445817"><ele>30.2</ele><time>2026-05-01T08:43:21.001Z</time></trkpt><trkpt lat="41.120219760515006" lon="9.473917489394987"><ele>29.0</ele><time>2026-05-01T08:43:22.001Z</time></trkpt><trkpt lat="41.12027737738772" lon="9.47381053505384"><ele>27.833333333333332</ele><time>2026-05-01T08:43:23.001Z</time></trkpt><trkpt lat="41.12030375406384" lon="9.473709534157978"><ele>26.666666666666664</ele><time>2026-05-01T08:43:24.001Z</time></trkpt><trkpt lat="41.1202987404538" lon="9.473600417787347"><ele>25.5</ele><time>2026-05-01T08:43:25.001Z</time></trkpt><trkpt lat="41.12027530481133" lon="9.473494304706504"><ele>24.333333333333332</ele><time>2026-05-01T08:43:26.001Z</time></trkpt><trkpt lat="41.120258244813606" lon="9.473399142471715"><ele>23.166666666666664</ele><time>2026-05-01T08:43:27.001Z</time></trkpt><trkpt lat="41.120262109462665" lon="9.473292795864142"><ele>22.0</ele><time>2026-05-01T08:43:29.001Z</time></trkpt><trkpt lat="41.12019960431519" lon="9.473181742582227"><ele>22.0</ele><time>2026-05-01T08:44:13Z</time></trkpt><trkpt lat="41.120126885764435" lon="9.473153187994667"><ele>22.0</ele><time>2026-05-01T08:44:14Z</time></trkpt><trkpt lat="41.12004507134535" lon="9.473121797177487"><ele>22.0</ele><time>2026-05-01T08:44:15Z</time></trkpt><trkpt lat="41.119953538773075" lon="9.473084607131272"><ele>22.0</ele><time>2026-05-01T08:44:16Z</time></trkpt><trkpt lat="41.11985738418995" lon="9.473048932387066"><ele>22.0</ele><time>2026-05-01T08:44:17Z</time></trkpt><trkpt lat="41.119763909178445" lon="9.473007331474212"><ele>22.0</ele><time>2026-05-01T08:44:18Z</time></trkpt><trkpt lat="41.11966443193788" lon="9.47297076181669"><ele>22.0</ele><time>2026-05-01T08:44:19Z</time></trkpt><trkpt lat="41.11956832905034" lon="9.472933564309564"><ele>22.0</ele><time>2026-05-01T08:44:20Z</time></trkpt><trkpt lat="41.11948356212702" lon="9.472895923058568"><ele>22.0</ele><time>2026-05-01T08:44:21Z</time></trkpt><trkpt lat="41.11940813635212" lon="9.472861553468976"><ele>22.0</ele><time>2026-05-01T08:44:22Z</time></trkpt><trkpt lat="41.11933632228353" lon="9.472824842504288"><ele>22.0</ele><time>2026-05-01T08:44:23.001Z</time></trkpt><trkpt lat="41.11925803887421" lon="9.472796250274195"><ele>22.0</ele><time>2026-05-01T08:44:24.001Z</time></trkpt><trkpt lat="41.11917327003566" lon="9.472758451830492"><ele>22.0</ele><time>2026-05-01T08:44:25.001Z</time></trkpt><trkpt lat="41.119094610129515" lon="9.472721441624568"><ele>22.0</ele><time>2026-05-01T08:44:26.001Z</time></trkpt><trkpt lat="41.11900378395063" lon="9.47267614798952"><ele>22.0</ele><time>2026-05-01T08:44:27.001Z</time></trkpt><trkpt lat="41.1189098139042" lon="9.47261987688073"><ele>22.0</ele><time>2026-05-01T08:44:28.001Z</time></trkpt><trkpt lat="41.118805108470276" lon="9.472544424337812"><ele>23.75</ele><time>2026-05-01T08:44:29.001Z</time></trkpt><trkpt lat="41.118699374790225" lon="9.472464692199704"><ele>25.5</ele><time>2026-05-01T08:44:30.001Z</time></trkpt><trkpt lat="41.118588389703774" lon="9.472375532684646"><ele>27.25</ele><time>2026-05-01T08:44:31.001Z</time></trkpt><trkpt lat="41.118478013237144" lon="9.472277042527917"><ele>29.0</ele><time>2026-05-01T08:44:32.001Z</time></trkpt><trkpt lat="41.11836747833751" lon="9.472178105677667"><ele>28.25</ele><time>2026-05-01T08:44:33.001Z</time></trkpt><trkpt lat="41.11826092588898" lon="9.472092375190797"><ele>27.5</ele><time>2026-05-01T08:44:34.001Z</time></trkpt><trkpt lat="41.1181583273855" lon="9.472005407227465"><ele>26.75</ele><time>2026-05-01T08:44:35.001Z</time></trkpt><trkpt lat="41.11805258215078" lon="9.471920977496014"><ele>26.0</ele><time>2026-05-01T08:44:36.001Z</time></trkpt><trkpt lat="41.11795194303164" lon="9.47183332841727"><ele>26.0</ele><time>2026-05-01T08:44:37.001Z</time></trkpt><trkpt lat="41.11785250775539" lon="9.471743977711192"><ele>26.0</ele><time>2026-05-01T08:44:38.001Z</time></trkpt><trkpt lat="41.11775481215376" lon="9.471653920042376"><ele>26.0</ele><time>2026-05-01T08:44:39.001Z</time></trkpt><trkpt lat="41.11765628791606" lon="9.471565588231146"><ele>26.0</ele><time>2026-05-01T08:44:40.001Z</time></trkpt><trkpt lat="41.11755932375619" lon="9.471485113865484"><ele>26.0</ele><time>2026-05-01T08:44:41.001Z</time></trkpt><trkpt lat="41.11746165161786" lon="9.47140452330541"><ele>26.0</ele><time>2026-05-01T08:44:42.001Z</time></trkpt><trkpt lat="41.117367949211726" lon="9.471326538592614"><ele>26.0</ele><time>2026-05-01T08:44:43.001Z</time></trkpt><trkpt lat="41.11727181543092" lon="9.47125676781627"><ele>26.0</ele><time>2026-05-01T08:44:44.001Z</time></trkpt><trkpt lat="41.11717234642482" lon="9.471193157876073"><ele>26.0</ele><time>2026-05-01T08:44:45.001Z</time></trkpt><trkpt lat="41.11706582857676" lon="9.471128584276258"><ele>24.5</ele><time>2026-05-01T08:44:46.001Z</time></trkpt><trkpt lat="41.11695661778654" lon="9.471066138975894"><ele>23.0</ele><time>2026-05-01T08:44:47.001Z</time></trkpt><trkpt lat="41.1168372395241" lon="9.470996790198061"><ele>21.5</ele><time>2026-05-01T08:44:48.001Z</time></trkpt><trkpt lat="41.11675150541038" lon="9.470948271108966"><ele>20.0</ele><time>2026-05-01T08:44:49.001Z</time></trkpt><trkpt lat="41.11664411202936" lon="9.47088169431031"><ele>19.75</ele><time>2026-05-01T08:44:50.001Z</time></trkpt><trkpt lat="41.116536685463295" lon="9.47081284837666"><ele>19.5</ele><time>2026-05-01T08:44:51.001Z</time></trkpt><trkpt lat="41.11643535998258" lon="9.47074862890867"><ele>19.25</ele><time>2026-05-01T08:44:52.001Z</time></trkpt><trkpt lat="41.116330472860255" lon="9.470681321306492"><ele>19.0</ele><time>2026-05-01T08:44:53.001Z</time></trkpt><trkpt lat="41.11622612989222" lon="9.470613431754735"><ele>19.0</ele><time>2026-05-01T08:44:54.001Z</time></trkpt><trkpt lat="41.116125868395784" lon="9.470540455064215"><ele>19.0</ele><time>2026-05-01T08:44:55.001Z</time></trkpt><trkpt lat="41.1160207100131" lon="9.470469377188099"><ele>19.0</ele><time>2026-05-01T08:44:56.001Z</time></trkpt><trkpt lat="41.115922165258155" lon="9.470398056592293"><ele>19.0</ele><time>2026-05-01T08:44:57.001Z</time></trkpt><trkpt lat="41.11582542908359" lon="9.470320372257307"><ele>18.833333333333332</ele><time>2026-05-01T08:44:58.001Z</time></trkpt><trkpt lat="41.115739076099096" lon="9.470225847839629"><ele>18.666666666666664</ele><time>2026-05-01T08:44:59.001Z</time></trkpt><trkpt lat="41.11566593620105" lon="9.470120094612938"><ele>18.5</ele><time>2026-05-01T08:45:00.001Z</time></trkpt><trkpt lat="41.115615091751344" lon="9.470028961116371"><ele>18.333333333333332</ele><time>2026-05-01T08:45:01.001Z</time></trkpt><trkpt lat="41.11556823823699" lon="9.469966666985464"><ele>18.166666666666668</ele><time>2026-05-01T08:45:02.001Z</time></trkpt><trkpt lat="41.115501618340986" lon="9.469918217407338"><ele>18.0</ele><time>2026-05-01T08:45:04.001Z</time></trkpt><trkpt lat="41.115407816882374" lon="9.469899941707684"><ele>18.0</ele><time>2026-05-01T08:45:15.001Z</time></trkpt><trkpt lat="41.11530378731143" lon="9.469889112829843"><ele>18.0</ele><time>2026-05-01T08:45:17.001Z</time></trkpt><trkpt lat="41.11523554517716" lon="9.469895196758515"><ele>18.0</ele><time>2026-05-01T08:45:18.001Z</time></trkpt><trkpt lat="41.11516450719845" lon="9.469906070095236"><ele>18.0</ele><time>2026-05-01T08:45:19.001Z</time></trkpt><trkpt lat="41.11505640250817" lon="9.46990061501447"><ele>18.0</ele><time>2026-05-01T08:45:21.001Z</time></trkpt><trkpt lat="41.11514804356922" lon="9.46991318426499"><ele>18.0</ele><time>2026-05-01T08:46:58Z</time></trkpt><trkpt lat="41.115212480303654" lon="9.46990853999243"><ele>18.0</ele><time>2026-05-01T08:46:59Z</time></trkpt><trkpt lat="41.11530516842174" lon="9.469899989941986"><ele>18.0</ele><time>2026-05-01T08:47:00Z</time></trkpt><trkpt lat="41.11540277980953" lon="9.469920290629359"><ele>18.0</ele><time>2026-05-01T08:47:01Z</time></trkpt><trkpt lat="41.115493781287164" lon="9.469965476503544"><ele>18.0</ele><time>2026-05-01T08:47:02Z</time></trkpt><trkpt lat="41.11557430262271" lon="9.470035526365859"><ele>18.0</ele><time>2026-05-01T08:47:03Z</time></trkpt><trkpt lat="41.11564350554309" lon="9.470135327118237"><ele>17.666666666666668</ele><time>2026-05-01T08:47:04Z</time></trkpt><trkpt lat="41.11575252859359" lon="9.470270775378781"><ele>17.333333333333336</ele><time>2026-05-01T08:47:05Z</time></trkpt><trkpt lat="41.11587756757506" lon="9.47040593139619"><ele>17.0</ele><time>2026-05-01T08:47:06Z</time></trkpt><trkpt lat="41.11602331802375" lon="9.47052819923033"><ele>17.666666666666668</ele><time>2026-05-01T08:47:07Z</time></trkpt><trkpt lat="41.11618304405079" lon="9.470635308284582"><ele>18.333333333333332</ele><time>2026-05-01T08:47:08Z</time></trkpt><trkpt lat="41.11634902244099" lon="9.470722988519197"><ele>19.0</ele><time>2026-05-01T08:47:09Z</time></trkpt><trkpt lat="41.116510675129746" lon="9.470807595048559"><ele>19.333333333333332</ele><time>2026-05-01T08:47:10Z</time></trkpt><trkpt lat="41.116655696792215" lon="9.470900880580517"><ele>19.666666666666668</ele><time>2026-05-01T08:47:11Z</time></trkpt><trkpt lat="41.116798479591964" lon="9.470996948843844"><ele>20.0</ele><time>2026-05-01T08:47:12Z</time></trkpt><trkpt lat="41.11693958061219" lon="9.471088374256997"><ele>20.0</ele><time>2026-05-01T08:47:13Z</time></trkpt><trkpt lat="41.11708478375799" lon="9.471181908764539"><ele>20.0</ele><time>2026-05-01T08:47:14Z</time></trkpt><trkpt lat="41.11724338257719" lon="9.47128850758102"><ele>20.0</ele><time>2026-05-01T08:47:15Z</time></trkpt><trkpt lat="41.11739783272064" lon="9.47140089698408"><ele>22.0</ele><time>2026-05-01T08:47:16Z</time></trkpt><trkpt lat="41.11754382664584" lon="9.471516722166616"><ele>24.0</ele><time>2026-05-01T08:47:17Z</time></trkpt><trkpt lat="41.11767952598331" lon="9.471631381461954"><ele>26.0</ele><time>2026-05-01T08:47:18Z</time></trkpt><trkpt lat="41.11780670211013" lon="9.471743875856301"><ele>26.0</ele><time>2026-05-01T08:47:19Z</time></trkpt><trkpt lat="41.11793068948955" lon="9.471855667644578"><ele>26.0</ele><time>2026-05-01T08:47:20Z</time></trkpt><trkpt lat="41.11805176895281" lon="9.47196299515699"><ele>26.0</ele><time>2026-05-01T08:47:21Z</time></trkpt><trkpt lat="41.118175624396024" lon="9.472068616617698"><ele>26.0</ele><time>2026-05-01T08:47:22Z</time></trkpt><trkpt lat="41.118298019548966" lon="9.472169329940117"><ele>26.75</ele><time>2026-05-01T08:47:23Z</time></trkpt><trkpt lat="41.11842073521234" lon="9.472272675205913"><ele>27.5</ele><time>2026-05-01T08:47:24Z</time></trkpt><trkpt lat="41.11854362656908" lon="9.472375270230877"><ele>28.25</ele><time>2026-05-01T08:47:25Z</time></trkpt><trkpt lat="41.118667244291146" lon="9.472477223597808"><ele>29.0</ele><time>2026-05-01T08:47:26Z</time></trkpt><trkpt lat="41.11879011822328" lon="9.472580872357483"><ele>29.0</ele><time>2026-05-01T08:47:27Z</time></trkpt><trkpt lat="41.11891851966358" lon="9.472669270932169"><ele>29.0</ele><time>2026-05-01T08:47:28Z</time></trkpt><trkpt lat="41.119051809841004" lon="9.472743869957217"><ele>29.0</ele><time>2026-05-01T08:47:29Z</time></trkpt><trkpt lat="41.119195673478046" lon="9.472804961406297"><ele>29.0</ele><time>2026-05-01T08:47:30Z</time></trkpt><trkpt lat="41.11934200997547" lon="9.472866010366188"><ele>28.666666666666664</ele><time>2026-05-01T08:47:31Z</time></trkpt><trkpt lat="41.11948496849268" lon="9.472927869493015"><ele>28.333333333333336</ele><time>2026-05-01T08:47:32Z</time></trkpt><trkpt lat="41.11963366158876" lon="9.472989791377826"><ele>28.0</ele><time>2026-05-01T08:47:33Z</time></trkpt><trkpt lat="41.11978439617618" lon="9.473054140907683"><ele>26.5</ele><time>2026-05-01T08:47:34Z</time></trkpt><trkpt lat="41.11992026037445" lon="9.47311094209404"><ele>25.0</ele><time>2026-05-01T08:47:35Z</time></trkpt><trkpt lat="41.120036606624055" lon="9.47315585270728"><ele>23.5</ele><time>2026-05-01T08:47:36Z</time></trkpt><trkpt lat="41.12012723968198" lon="9.473193027981235"><ele>22.0</ele><time>2026-05-01T08:47:37Z</time></trkpt><trkpt lat="41.12021982980563" lon="9.473281366897188"><ele>22.0</ele><time>2026-05-01T08:47:39Z</time></trkpt><trkpt lat="41.12024067040606" lon="9.473384698756224"><ele>22.0</ele><time>2026-05-01T08:47:40Z</time></trkpt><trkpt lat="41.12025725455521" lon="9.473511417493192"><ele>22.0</ele><time>2026-05-01T08:47:41Z</time></trkpt><trkpt lat="41.120273397764386" lon="9.473642948773282"><ele>22.0</ele><time>2026-05-01T08:47:42Z</time></trkpt><trkpt lat="41.12027235875506" lon="9.473755056442597"><ele>22.0</ele><time>2026-05-01T08:47:43Z</time></trkpt><trkpt lat="41.12024608881698" lon="9.473851249805625"><ele>22.0</ele><time>2026-05-01T08:47:44Z</time></trkpt><trkpt lat="41.12019601566887" lon="9.473945555119363"><ele>23.75</ele><time>2026-05-01T08:47:45Z</time></trkpt><trkpt lat="41.12012816158576" lon="9.474023981424342"><ele>25.5</ele><time>2026-05-01T08:47:46Z</time></trkpt><trkpt lat="41.12004082245635" lon="9.474106298812362"><ele>27.25</ele><time>2026-05-01T08:47:47Z</time></trkpt><trkpt lat="41.11993593872938" lon="9.474191692196923"><ele>29.0</ele><time>2026-05-01T08:47:48Z</time></trkpt><trkpt lat="41.11980375935963" lon="9.474282764105759"><ele>30.2</ele><time>2026-05-01T08:47:49Z</time></trkpt><trkpt lat="41.11966897187366" lon="9.47436633947208"><ele>31.4</ele><time>2026-05-01T08:47:50Z</time></trkpt><trkpt lat="41.11957232827968" lon="9.47443855284253"><ele>32.6</ele><time>2026-05-01T08:47:51Z</time></trkpt><trkpt lat="41.11949445214736" lon="9.474521687543243"><ele>33.8</ele><time>2026-05-01T08:47:52Z</time></trkpt><trkpt lat="41.11945257266109" lon="9.474623793681024"><ele>35.0</ele><time>2026-05-01T08:47:53Z</time></trkpt><trkpt lat="41.11943813850935" lon="9.474763202490989"><ele>36.5</ele><time>2026-05-01T08:47:54Z</time></trkpt><trkpt lat="41.11943594405661" lon="9.474927838141692"><ele>38.0</ele><time>2026-05-01T08:47:55Z</time></trkpt><trkpt lat="41.119401474384645" lon="9.475105414673736"><ele>39.5</ele><time>2026-05-01T08:47:56Z</time></trkpt><trkpt lat="41.11934165458757" lon="9.475289595436902"><ele>41.0</ele><time>2026-05-01T08:47:57Z</time></trkpt><trkpt lat="41.119278783556354" lon="9.475473013485859"><ele>42.0</ele><time>2026-05-01T08:47:58.001Z</time></trkpt><trkpt lat="41.11921426243497" lon="9.475638565224331"><ele>43.0</ele><time>2026-05-01T08:47:59Z</time></trkpt><trkpt lat="41.1191595227609" lon="9.475784761359312"><ele>44.0</ele><time>2026-05-01T08:48:00Z</time></trkpt><trkpt lat="41.119126110873914" lon="9.475928877527512"><ele>45.0</ele><time>2026-05-01T08:48:01Z</time></trkpt><trkpt lat="41.11909568108902" lon="9.476080003062131"><ele>45.0</ele><time>2026-05-01T08:48:02Z</time></trkpt><trkpt lat="41.11907181844407" lon="9.476228858832311"><ele>45.0</ele><time>2026-05-01T08:48:03Z</time></trkpt><trkpt lat="41.11905203434666" lon="9.476372220952976"><ele>45.0</ele><time>2026-05-01T08:48:04Z</time></trkpt><trkpt lat="41.11903278508502" lon="9.476514538582212"><ele>45.0</ele><time>2026-05-01T08:48:05Z</time></trkpt><trkpt lat="41.11899193002869" lon="9.476643827437613"><ele>45.0</ele><time>2026-05-01T08:48:06Z</time></trkpt><trkpt lat="41.11891753099966" lon="9.476756605497908"><ele>49.25</ele><time>2026-05-01T08:48:07Z</time></trkpt><trkpt lat="41.118835493494444" lon="9.476877716646245"><ele>53.5</ele><time>2026-05-01T08:48:08Z</time></trkpt><trkpt lat="41.118780209677745" lon="9.477032943035695"><ele>57.75</ele><time>2026-05-01T08:48:09Z</time></trkpt><trkpt lat="41.118759613471155" lon="9.477233205708716"><ele>62.0</ele><time>2026-05-01T08:48:10Z</time></trkpt><trkpt lat="41.11874363690575" lon="9.47745225934856"><ele>64.25</ele><time>2026-05-01T08:48:11Z</time></trkpt><trkpt lat="41.118707567882375" lon="9.477676396440431"><ele>66.5</ele><time>2026-05-01T08:48:12Z</time></trkpt><trkpt lat="41.11866800092994" lon="9.477868400593243"><ele>68.75</ele><time>2026-05-01T08:48:13Z</time></trkpt><trkpt lat="41.11863272144838" lon="9.47799467770503"><ele>71.0</ele><time>2026-05-01T08:48:14Z</time></trkpt><trkpt lat="41.11860061061648" lon="9.478069759542276"><ele>71.0</ele><time>2026-05-01T08:48:15Z</time></trkpt><trkpt lat="41.118497092338494" lon="9.478170978524359"><ele>71.0</ele><time>2026-05-01T08:48:17Z</time></trkpt><trkpt lat="41.1184119240304" lon="9.478203923892378"><ele>71.0</ele><time>2026-05-01T08:48:18Z</time></trkpt><trkpt lat="41.11831830825036" lon="9.478228301831926"><ele>71.0</ele><time>2026-05-01T08:48:19Z</time></trkpt><trkpt lat="41.11820212252431" lon="9.478260241099182"><ele>71.0</ele><time>2026-05-01T08:48:20Z</time></trkpt><trkpt lat="41.118125628005615" lon="9.478230501069682"><ele>72.6</ele><time>2026-05-01T08:48:21Z</time></trkpt><trkpt lat="41.11802428405734" lon="9.478241783997989"><ele>74.19999999999999</ele><time>2026-05-01T08:48:22Z</time></trkpt><trkpt lat="41.117921073577826" lon="9.478263883999798"><ele>75.80000000000001</ele><time>2026-05-01T08:48:23Z</time></trkpt><trkpt lat="41.117842088558355" lon="9.478290734601146"><ele>77.4</ele><time>2026-05-01T08:48:24Z</time></trkpt><trkpt lat="41.11776891632643" lon="9.478404542945166"><ele>79.0</ele><time>2026-05-01T08:48:26Z</time></trkpt><trkpt lat="41.11775087625813" lon="9.478500523930212"><ele>79.0</ele><time>2026-05-01T08:48:27Z</time></trkpt><trkpt lat="41.11772880703291" lon="9.478621148903327"><ele>79.0</ele><time>2026-05-01T08:48:28Z</time></trkpt><trkpt lat="41.11770754778795" lon="9.478753377831838"><ele>79.0</ele><time>2026-05-01T08:48:29Z</time></trkpt><trkpt lat="41.117681402801345" lon="9.478876874382701"><ele>79.0</ele><time>2026-05-01T08:48:30Z</time></trkpt><trkpt lat="41.117641205245086" lon="9.479027920819034"><ele>79.0</ele><time>2026-05-01T08:48:31Z</time></trkpt><trkpt lat="41.11760774308505" lon="9.479187057005982"><ele>81.0</ele><time>2026-05-01T08:48:32Z</time></trkpt><trkpt lat="41.11758541040703" lon="9.47933944118462"><ele>83.0</ele><time>2026-05-01T08:48:33Z</time></trkpt><trkpt lat="41.117565793089405" lon="9.479491850905534"><ele>85.0</ele><time>2026-05-01T08:48:34Z</time></trkpt><trkpt lat="41.11753272510769" lon="9.479629418871825"><ele>87.0</ele><time>2026-05-01T08:48:35Z</time></trkpt><trkpt lat="41.11753527148034" lon="9.479724002722957"><ele>89.0</ele><time>2026-05-01T08:48:36Z</time></trkpt><trkpt lat="41.117494062094515" lon="9.479787193423187"><ele>90.80000000000001</ele><time>2026-05-01T08:48:37Z</time></trkpt><trkpt lat="41.117422529429824" lon="9.479867304209634"><ele>92.60000000000001</ele><time>2026-05-01T08:48:38Z</time></trkpt><trkpt lat="41.11731929688722" lon="9.479936058328782"><ele>94.4</ele><time>2026-05-01T08:48:39Z</time></trkpt><trkpt lat="41.11726128524093" lon="9.480065007504733"><ele>96.2</ele><time>2026-05-01T08:48:40Z</time></trkpt><trkpt lat="41.117199753980834" lon="9.480172376393556"><ele>98.0</ele><time>2026-05-01T08:48:41Z</time></trkpt><trkpt lat="41.117135135564304" lon="9.48024415071875"><ele>98.49999999999999</ele><time>2026-05-01T08:48:42Z</time></trkpt><trkpt lat="41.11707347071277" lon="9.48033418301834"><ele>99.0</ele><time>2026-05-01T08:48:43Z</time></trkpt><trkpt lat="41.11700137397573" lon="9.480436633530466"><ele>99.5</ele><time>2026-05-01T08:48:44Z</time></trkpt><trkpt lat="41.1169296025206" lon="9.480505098748472"><ele>100.0</ele><time>2026-05-01T08:48:45Z</time></trkpt><trkpt lat="41.11685730438688" lon="9.480507058058091"><ele>100.49999999999999</ele><time>2026-05-01T08:48:46Z</time></trkpt><trkpt lat="41.11678230257883" lon="9.48048351627144"><ele>101.0</ele><time>2026-05-01T08:48:47Z</time></trkpt><trkpt lat="41.11668504988905" lon="9.480488887048098"><ele>102.19999999999999</ele><time>2026-05-01T08:48:48Z</time></trkpt><trkpt lat="41.11661131347622" lon="9.480499273205222"><ele>103.39999999999999</ele><time>2026-05-01T08:48:49Z</time></trkpt><trkpt lat="41.11655644333366" lon="9.480558291901813"><ele>104.6</ele><time>2026-05-01T08:48:50Z</time></trkpt><trkpt lat="41.116472901567505" lon="9.480662276736856"><ele>105.8</ele><time>2026-05-01T08:48:51Z</time></trkpt><trkpt lat="41.116397440435335" lon="9.480807799723937"><ele>107.0</ele><time>2026-05-01T08:48:52Z</time></trkpt><trkpt lat="41.11634044294643" lon="9.48092532693589"><ele>107.39999999999999</ele><time>2026-05-01T08:48:53Z</time></trkpt><trkpt lat="41.116292444319754" lon="9.481024148234667"><ele>107.79999999999998</ele><time>2026-05-01T08:48:54Z</time></trkpt><trkpt lat="41.11624128295874" lon="9.4811186431836"><ele>108.2</ele><time>2026-05-01T08:48:55Z</time></trkpt><trkpt lat="41.116145483350664" lon="9.481216910658697"><ele>108.6</ele><time>2026-05-01T08:48:57Z</time></trkpt><trkpt lat="41.1160504966007" lon="9.481271316568197"><ele>109.0</ele><time>2026-05-01T08:48:59Z</time></trkpt><trkpt lat="41.1159697263414" lon="9.481277155557814"><ele>109.0</ele><time>2026-05-01T08:49:00Z</time></trkpt><trkpt lat="41.11587860895193" lon="9.481272177302554"><ele>109.0</ele><time>2026-05-01T08:49:01Z</time></trkpt><trkpt lat="41.11578393994541" lon="9.481238781427175"><ele>109.0</ele><time>2026-05-01T08:49:02Z</time></trkpt><trkpt lat="41.115681070069705" lon="9.481199997798434"><ele>109.0</ele><time>2026-05-01T08:49:03Z</time></trkpt><trkpt lat="41.115556395105095" lon="9.481152319853807"><ele>109.0</ele><time>2026-05-01T08:49:04Z</time></trkpt><trkpt lat="41.11542308812722" lon="9.481094795729087"><ele>109.2</ele><time>2026-05-01T08:49:05.001Z</time></trkpt><trkpt lat="41.115321122293054" lon="9.48105889171483"><ele>109.4</ele><time>2026-05-01T08:49:06.001Z</time></trkpt><trkpt lat="41.11525369045285" lon="9.481045494072484"><ele>109.6</ele><time>2026-05-01T08:49:07.001Z</time></trkpt><trkpt lat="41.11517788673684" lon="9.481067584155108"><ele>109.8</ele><time>2026-05-01T08:49:08.001Z</time></trkpt><trkpt lat="41.11507658516098" lon="9.481128085132395"><ele>110.0</ele><time>2026-05-01T08:49:09.001Z</time></trkpt><trkpt lat="41.114974984703004" lon="9.481210161710685"><ele>109.6</ele><time>2026-05-01T08:49:10.001Z</time></trkpt><trkpt lat="41.11488431117816" lon="9.481285004501707"><ele>109.2</ele><time>2026-05-01T08:49:11.001Z</time></trkpt><trkpt lat="41.11478575650916" lon="9.481372019028237"><ele>108.80000000000001</ele><time>2026-05-01T08:49:12.001Z</time></trkpt><trkpt lat="41.114689693685165" lon="9.481474576475925"><ele>108.4</ele><time>2026-05-01T08:49:13.001Z</time></trkpt><trkpt lat="41.114606566484085" lon="9.48152855844884"><ele>108.0</ele><time>2026-05-01T08:49:14.001Z</time></trkpt><trkpt lat="41.114545090257124" lon="9.481580909958083"><ele>108.0</ele><time>2026-05-01T08:49:15.001Z</time></trkpt><trkpt lat="41.114489145376524" lon="9.48165466857138"><ele>108.0</ele><time>2026-05-01T08:49:17.001Z</time></trkpt><trkpt lat="41.114536080146024" lon="9.481594413389711"><ele>108.0</ele><time>2026-05-01T08:55:31.001Z</time></trkpt><trkpt lat="41.11461761001902" lon="9.481571289062101"><ele>108.0</ele><time>2026-05-01T08:55:32.001Z</time></trkpt><trkpt lat="41.1146997125787" lon="9.481488750071048"><ele>108.0</ele><time>2026-05-01T08:55:34.001Z</time></trkpt><trkpt lat="41.114771155644924" lon="9.481428258959314"><ele>108.0</ele><time>2026-05-01T08:55:36.001Z</time></trkpt><trkpt lat="41.114834635637926" lon="9.481369232721939"><ele>107.60000000000001</ele><time>2026-05-01T08:55:38.001Z</time></trkpt><trkpt lat="41.114939467745096" lon="9.481284974620142"><ele>107.20000000000002</ele><time>2026-05-01T08:55:40.001Z</time></trkpt><trkpt lat="41.11501283418013" lon="9.481227039208797"><ele>106.8</ele><time>2026-05-01T08:55:41.001Z</time></trkpt><trkpt lat="41.11509093552699" lon="9.48116521096384"><ele>106.4</ele><time>2026-05-01T08:55:42.001Z</time></trkpt><trkpt lat="41.11516715500422" lon="9.481106431121898"><ele>106.0</ele><time>2026-05-01T08:55:43.001Z</time></trkpt><trkpt lat="41.11522983163649" lon="9.481074226303107"><ele>106.66666666666667</ele><time>2026-05-01T08:55:44.001Z</time></trkpt><trkpt lat="41.11529930319499" lon="9.481065950744107"><ele>107.33333333333334</ele><time>2026-05-01T08:55:45.001Z</time></trkpt><trkpt lat="41.115373325884065" lon="9.481081191925947"><ele>108.0</ele><time>2026-05-01T08:55:46.001Z</time></trkpt><trkpt lat="41.115451713106765" lon="9.481114551048405"><ele>108.66666666666666</ele><time>2026-05-01T08:55:47.001Z</time></trkpt><trkpt lat="41.11553169948597" lon="9.481157836451015"><ele>109.33333333333333</ele><time>2026-05-01T08:55:48.001Z</time></trkpt><trkpt lat="41.11560672561811" lon="9.481191205222775"><ele>110.0</ele><time>2026-05-01T08:55:49.001Z</time></trkpt><trkpt lat="41.11569156207739" lon="9.481234315651843"><ele>109.83333333333333</ele><time>2026-05-01T08:55:50.001Z</time></trkpt><trkpt lat="41.11576063318208" lon="9.481263047529009"><ele>109.66666666666666</ele><time>2026-05-01T08:55:51.001Z</time></trkpt><trkpt lat="41.11586297037461" lon="9.48129248865498"><ele>109.5</ele><time>2026-05-01T08:55:53.001Z</time></trkpt><trkpt lat="41.115962349348415" lon="9.481316158784981"><ele>109.33333333333334</ele><time>2026-05-01T08:55:55.001Z</time></trkpt><trkpt lat="41.11604799902992" lon="9.481310232247111"><ele>109.16666666666667</ele><time>2026-05-01T08:55:57.001Z</time></trkpt><trkpt lat="41.11611679632376" lon="9.481350928958518"><ele>109.0</ele><time>2026-05-01T08:55:59.001Z</time></trkpt><trkpt lat="41.116155209166536" lon="9.481423210851242"><ele>107.50000000000001</ele><time>2026-05-01T08:56:01.001Z</time></trkpt><trkpt lat="41.116215739223385" lon="9.48153998470573"><ele>106.0</ele><time>2026-05-01T08:56:11.001Z</time></trkpt><trkpt lat="41.11628124854261" lon="9.481571501878157"><ele>104.5</ele><time>2026-05-01T08:56:12.001Z</time></trkpt><trkpt lat="41.116338000215094" lon="9.481636074572046"><ele>103.0</ele><time>2026-05-01T08:56:13.001Z</time></trkpt><trkpt lat="41.116426062072705" lon="9.481689231667913"><ele>101.50000000000001</ele><time>2026-05-01T08:56:14.001Z</time></trkpt><trkpt lat="41.11650512384802" lon="9.481756746157275"><ele>100.0</ele><time>2026-05-01T08:56:15.001Z</time></trkpt><trkpt lat="41.116570944050146" lon="9.481847861035044"><ele>99.2</ele><time>2026-05-01T08:56:16.001Z</time></trkpt><trkpt lat="41.11663778996618" lon="9.481953318163406"><ele>98.4</ele><time>2026-05-01T08:56:17.001Z</time></trkpt><trkpt lat="41.11670341350695" lon="9.482057424083708"><ele>97.6</ele><time>2026-05-01T08:56:18.001Z</time></trkpt><trkpt lat="41.11676316686751" lon="9.482148785867821"><ele>96.8</ele><time>2026-05-01T08:56:19.001Z</time></trkpt><trkpt lat="41.11681832827697" lon="9.482233126468078"><ele>96.0</ele><time>2026-05-01T08:56:20.001Z</time></trkpt><trkpt lat="41.11688350601541" lon="9.482324176847422"><ele>94.66666666666667</ele><time>2026-05-01T08:56:21.001Z</time></trkpt><trkpt lat="41.11694454614653" lon="9.482410075873755"><ele>93.33333333333333</ele><time>2026-05-01T08:56:22.001Z</time></trkpt><trkpt lat="41.11699509779848" lon="9.482487123474447"><ele>92.0</ele><time>2026-05-01T08:56:23.001Z</time></trkpt><trkpt lat="41.11703867655889" lon="9.482549741100057"><ele>90.66666666666666</ele><time>2026-05-01T08:56:24.001Z</time></trkpt><trkpt lat="41.117076858799734" lon="9.482694014307976"><ele>89.33333333333333</ele><time>2026-05-01T08:56:26.001Z</time></trkpt><trkpt lat="41.11702011344526" lon="9.482806057394157"><ele>88.0</ele><time>2026-05-01T08:56:28.001Z</time></trkpt><trkpt lat="41.116908375904806" lon="9.482893860418722"><ele>87.80000000000001</ele><time>2026-05-01T08:56:30.001Z</time></trkpt><trkpt lat="41.11685421221787" lon="9.482979080748258"><ele>87.6</ele><time>2026-05-01T08:56:31.001Z</time></trkpt><trkpt lat="41.11679513400862" lon="9.483025853487307"><ele>87.4</ele><time>2026-05-01T08:56:32.001Z</time></trkpt><trkpt lat="41.11674955871287" lon="9.483134761762189"><ele>87.19999999999999</ele><time>2026-05-01T08:56:33.001Z</time></trkpt><trkpt lat="41.11671708487615" lon="9.483257007290815"><ele>87.0</ele><time>2026-05-01T08:56:34.001Z</time></trkpt><trkpt lat="41.11667682451659" lon="9.483387264472976"><ele>87.0</ele><time>2026-05-01T08:56:35.001Z</time></trkpt><trkpt lat="41.11663222797662" lon="9.483489406266361"><ele>87.0</ele><time>2026-05-01T08:56:36.001Z</time></trkpt><trkpt lat="41.11657528886548" lon="9.483581474920008"><ele>87.0</ele><time>2026-05-01T08:56:38Z</time></trkpt><trkpt lat="41.116621625052865" lon="9.483507722620804"><ele>87.0</ele><time>2026-05-01T08:57:17Z</time></trkpt><trkpt lat="41.116677469122095" lon="9.483418765340915"><ele>87.0</ele><time>2026-05-01T08:57:20Z</time></trkpt><trkpt lat="41.11669945031843" lon="9.4833170504133"><ele>87.0</ele><time>2026-05-01T08:58:49.999Z</time></trkpt><trkpt lat="41.11674137853067" lon="9.483251352962457"><ele>87.0</ele><time>2026-05-01T08:58:50.999Z</time></trkpt><trkpt lat="41.11676784311182" lon="9.483167399377155"><ele>87.0</ele><time>2026-05-01T08:58:51.999Z</time></trkpt><trkpt lat="41.11680475027826" lon="9.483065103579385"><ele>87.0</ele><time>2026-05-01T08:58:52.999Z</time></trkpt><trkpt lat="41.116851917164" lon="9.482973169498786"><ele>87.0</ele><time>2026-05-01T08:58:53.999Z</time></trkpt><trkpt lat="41.116899145383314" lon="9.482914651413749"><ele>87.0</ele><time>2026-05-01T08:58:54.999Z</time></trkpt><trkpt lat="41.11697745912686" lon="9.482857343114803"><ele>87.0</ele><time>2026-05-01T08:58:57Z</time></trkpt><trkpt lat="41.11705476380601" lon="9.482798111067895"><ele>87.0</ele><time>2026-05-01T08:59:30Z</time></trkpt><trkpt lat="41.11687589669875" lon="9.482944412949811"><ele>87.0</ele><time>2026-05-01T08:59:55Z</time></trkpt><trkpt lat="41.11682648402336" lon="9.483015407928745"><ele>87.0</ele><time>2026-05-01T08:59:56Z</time></trkpt><trkpt lat="41.116785536857364" lon="9.4830960403769"><ele>87.0</ele><time>2026-05-01T08:59:57Z</time></trkpt><trkpt lat="41.11675565186243" lon="9.483175212641823"><ele>87.0</ele><time>2026-05-01T08:59:58Z</time></trkpt><trkpt lat="41.11672995828395" lon="9.483276222866584"><ele>87.0</ele><time>2026-05-01T09:00:00Z</time></trkpt><trkpt lat="41.116696959610856" lon="9.483365993773132"><ele>87.0</ele><time>2026-05-01T09:00:02Z</time></trkpt><trkpt lat="41.116742058086665" lon="9.483432392576367"><ele>87.0</ele><time>2026-05-01T09:00:05Z</time></trkpt><trkpt lat="41.11680434484839" lon="9.483481848308864"><ele>87.0</ele><time>2026-05-01T09:00:07Z</time></trkpt><trkpt lat="41.1169143993544" lon="9.48350837586918"><ele>87.0</ele><time>2026-05-01T09:00:09Z</time></trkpt><trkpt lat="41.116989126481364" lon="9.483558784501371"><ele>87.0</ele><time>2026-05-01T09:00:16Z</time></trkpt><trkpt lat="41.11707308179836" lon="9.483678722927639"><ele>87.0</ele><time>2026-05-01T09:00:18Z</time></trkpt><trkpt lat="41.11717426113514" lon="9.48372028515964"><ele>87.0</ele><time>2026-05-01T09:00:20Z</time></trkpt><trkpt lat="41.11725164849357" lon="9.483725012895476"><ele>87.0</ele><time>2026-05-01T09:00:22Z</time></trkpt><trkpt lat="41.117348172120145" lon="9.483676290315463"><ele>87.0</ele><time>2026-05-01T09:00:24Z</time></trkpt><trkpt lat="41.11745344299013" lon="9.483694786598777"><ele>87.0</ele><time>2026-05-01T09:00:26Z</time></trkpt><trkpt lat="41.11754068301474" lon="9.483733764554898"><ele>88.0</ele><time>2026-05-01T09:00:28Z</time></trkpt><trkpt lat="41.117620506789294" lon="9.483796643758868"><ele>89.0</ele><time>2026-05-01T09:00:30Z</time></trkpt><trkpt lat="41.1177187942168" lon="9.483831254615191"><ele>90.0</ele><time>2026-05-01T09:00:32Z</time></trkpt><trkpt lat="41.11778409947472" lon="9.48385533185266"><ele>91.0</ele><time>2026-05-01T09:00:33Z</time></trkpt><trkpt lat="41.11788121436138" lon="9.483881054500863"><ele>92.0</ele><time>2026-05-01T09:00:34.998Z</time></trkpt><trkpt lat="41.117978777594935" lon="9.483904452838818"><ele>92.0</ele><time>2026-05-01T09:00:36.998Z</time></trkpt><trkpt lat="41.11804076901428" lon="9.483950849376704"><ele>92.0</ele><time>2026-05-01T09:00:38.998Z</time></trkpt><trkpt lat="41.11811664324521" lon="9.4840079409844"><ele>92.0</ele><time>2026-05-01T09:00:40.998Z</time></trkpt><trkpt lat="41.118202289061635" lon="9.484014058516074"><ele>92.0</ele><time>2026-05-01T09:00:42.999Z</time></trkpt><trkpt lat="41.1183020156223" lon="9.48399384821081"><ele>92.0</ele><time>2026-05-01T09:00:44.999Z</time></trkpt><trkpt lat="41.11840492549192" lon="9.483981791092607"><ele>92.0</ele><time>2026-05-01T09:00:46.999Z</time></trkpt><trkpt lat="41.11848124143099" lon="9.483975534545175"><ele>92.5</ele><time>2026-05-01T09:00:48.999Z</time></trkpt><trkpt lat="41.11856724990289" lon="9.483985457622389"><ele>93.0</ele><time>2026-05-01T09:00:50.999Z</time></trkpt><trkpt lat="41.118665104743506" lon="9.48401094114511"><ele>93.5</ele><time>2026-05-01T09:00:52.999Z</time></trkpt><trkpt lat="41.11874638009062" lon="9.484051322929414"><ele>94.0</ele><time>2026-05-01T09:00:54.999Z</time></trkpt><trkpt lat="41.11883029603915" lon="9.48406507970191"><ele>94.5</ele><time>2026-05-01T09:00:56.999Z</time></trkpt><trkpt lat="41.1189091978985" lon="9.484119814908306"><ele>95.0</ele><time>2026-05-01T09:00:58.999Z</time></trkpt><trkpt lat="41.1189568393474" lon="9.484181936383562"><ele>95.0</ele><time>2026-05-01T09:00:59.999Z</time></trkpt><trkpt lat="41.119013148493345" lon="9.484234496177184"><ele>95.0</ele><time>2026-05-01T09:01:00.999Z</time></trkpt><trkpt lat="41.11907231923312" lon="9.484272957175293"><ele>95.0</ele><time>2026-05-01T09:01:01.999Z</time></trkpt><trkpt lat="41.119162985198905" lon="9.484353287103032"><ele>95.0</ele><time>2026-05-01T09:01:03.999Z</time></trkpt><trkpt lat="41.11923205603401" lon="9.484418886152143"><ele>95.0</ele><time>2026-05-01T09:01:05.999Z</time></trkpt><trkpt lat="41.119306596421396" lon="9.484498710569218"><ele>95.0</ele><time>2026-05-01T09:01:07.999Z</time></trkpt><trkpt lat="41.119372489756564" lon="9.484551294057063"><ele>94.33333333333334</ele><time>2026-05-01T09:01:09.999Z</time></trkpt><trkpt lat="41.11943823303755" lon="9.484578975974873"><ele>93.66666666666667</ele><time>2026-05-01T09:01:56Z</time></trkpt><trkpt lat="41.119519072812814" lon="9.484610433533938"><ele>93.0</ele><time>2026-05-01T09:01:58Z</time></trkpt><trkpt lat="41.119592730852354" lon="9.48467731887456"><ele>92.33333333333333</ele><time>2026-05-01T09:02:00Z</time></trkpt><trkpt lat="41.119639066007586" lon="9.484753745204944"><ele>91.66666666666666</ele><time>2026-05-01T09:02:02Z</time></trkpt><trkpt lat="41.11968387657281" lon="9.484848905571518"><ele>91.0</ele><time>2026-05-01T09:02:04Z</time></trkpt><trkpt lat="41.11977773271041" lon="9.484926197055135"><ele>89.66666666666666</ele><time>2026-05-01T09:02:06Z</time></trkpt><trkpt lat="41.11986577817153" lon="9.484958124645189"><ele>88.33333333333333</ele><time>2026-05-01T09:02:08Z</time></trkpt><trkpt lat="41.11993224191512" lon="9.484998399813362"><ele>87.0</ele><time>2026-05-01T09:02:09Z</time></trkpt><trkpt lat="41.11999852521578" lon="9.485079415296067"><ele>85.66666666666667</ele><time>2026-05-01T09:02:11Z</time></trkpt><trkpt lat="41.12005885777795" lon="9.485145584973827"><ele>84.33333333333334</ele><time>2026-05-01T09:02:15Z</time></trkpt><trkpt lat="41.12006669939687" lon="9.485233395462407"><ele>83.0</ele><time>2026-05-01T09:02:30Z</time></trkpt><trkpt lat="41.12008316012066" lon="9.48531839948083"><ele>83.0</ele><time>2026-05-01T09:02:34Z</time></trkpt><trkpt lat="41.12010361853547" lon="9.485397909135063"><ele>83.0</ele><time>2026-05-01T09:02:37Z</time></trkpt><trkpt lat="41.12014341952186" lon="9.48548066937826"><ele>83.0</ele><time>2026-05-01T09:02:41.998Z</time></trkpt><trkpt lat="41.12018713542434" lon="9.485544201553036"><ele>83.0</ele><time>2026-05-01T09:02:44.998Z</time></trkpt><trkpt lat="41.120236985944366" lon="9.485602902100535"><ele>83.0</ele><time>2026-05-01T09:02:48.998Z</time></trkpt><trkpt lat="41.12029359103931" lon="9.485663230598433"><ele>83.0</ele><time>2026-05-01T09:02:51.999Z</time></trkpt><trkpt lat="41.12033823509362" lon="9.485760004843607"><ele>83.0</ele><time>2026-05-01T09:02:54.999Z</time></trkpt><trkpt lat="41.12037936670277" lon="9.485869756002488"><ele>81.66666666666667</ele><time>2026-05-01T09:02:57.999Z</time></trkpt><trkpt lat="41.12045241230675" lon="9.485924886422051"><ele>80.33333333333334</ele><time>2026-05-01T09:03:00.999Z</time></trkpt><trkpt lat="41.1204975492883" lon="9.486009299244015"><ele>79.0</ele><time>2026-05-01T09:03:02.999Z</time></trkpt><trkpt lat="41.12055856255788" lon="9.486087043429698"><ele>77.66666666666667</ele><time>2026-05-01T09:03:05.999Z</time></trkpt><trkpt lat="41.12063175324605" lon="9.486129071660173"><ele>76.33333333333333</ele><time>2026-05-01T09:03:10.999Z</time></trkpt><trkpt lat="41.12069405332828" lon="9.48617377609026"><ele>75.0</ele><time>2026-05-01T09:03:12.999Z</time></trkpt><trkpt lat="41.12074849916313" lon="9.486230835752654"><ele>77.0</ele><time>2026-05-01T09:03:14.999Z</time></trkpt><trkpt lat="41.12081782662667" lon="9.486328934172487"><ele>79.0</ele><time>2026-05-01T09:03:16.999Z</time></trkpt><trkpt lat="41.120871181381816" lon="9.48641673075024"><ele>81.0</ele><time>2026-05-01T09:03:18.999Z</time></trkpt><trkpt lat="41.12091072782781" lon="9.486551359531113"><ele>83.0</ele><time>2026-05-01T09:03:20.999Z</time></trkpt><trkpt lat="41.12095221088711" lon="9.486662880366369"><ele>85.0</ele><time>2026-05-01T09:03:22.999Z</time></trkpt><trkpt lat="41.12099996108028" lon="9.486751416836029"><ele>85.0</ele><time>2026-05-01T09:03:26.999Z</time></trkpt><trkpt lat="41.12102019715485" lon="9.486856337457114"><ele>85.0</ele><time>2026-05-01T09:04:35Z</time></trkpt><trkpt lat="41.12102709782951" lon="9.48673059928199"><ele>85.0</ele><time>2026-05-01T09:04:39Z</time></trkpt><trkpt lat="41.12096126463995" lon="9.48665298089761"><ele>85.0</ele><time>2026-05-01T09:04:40Z</time></trkpt><trkpt lat="41.120909568397884" lon="9.486502517324775"><ele>85.0</ele><time>2026-05-01T09:04:42Z</time></trkpt><trkpt lat="41.12085870358054" lon="9.486390372458725"><ele>85.0</ele><time>2026-05-01T09:04:44Z</time></trkpt><trkpt lat="41.12081678903092" lon="9.486311952161406"><ele>85.0</ele><time>2026-05-01T09:04:45.998Z</time></trkpt><trkpt lat="41.12075945199816" lon="9.48624063880185"><ele>85.0</ele><time>2026-05-01T09:04:48.998Z</time></trkpt><trkpt lat="41.120710588364354" lon="9.486179050862079"><ele>85.0</ele><time>2026-05-01T09:04:50.998Z</time></trkpt><trkpt lat="41.12065057289826" lon="9.486145581483417"><ele>85.0</ele><time>2026-05-01T09:04:52.999Z</time></trkpt><trkpt lat="41.120587724248296" lon="9.48612561289691"><ele>85.0</ele><time>2026-05-01T09:04:55.999Z</time></trkpt><trkpt lat="41.120510948906734" lon="9.486062384867422"><ele>85.0</ele><time>2026-05-01T09:04:58.999Z</time></trkpt><trkpt lat="41.1204419735322" lon="9.485962636311115"><ele>86.16666666666666</ele><time>2026-05-01T09:05:01.999Z</time></trkpt><trkpt lat="41.12038530547606" lon="9.485917316284757"><ele>87.33333333333333</ele><time>2026-05-01T09:05:03.999Z</time></trkpt><trkpt lat="41.12033557619754" lon="9.485799057504922"><ele>88.5</ele><time>2026-05-01T09:05:06.999Z</time></trkpt><trkpt lat="41.120285965202626" lon="9.48570924082483"><ele>89.66666666666667</ele><time>2026-05-01T09:05:08.999Z</time></trkpt><trkpt lat="41.12024946329108" lon="9.485640534632996"><ele>90.83333333333334</ele><time>2026-05-01T09:05:10.999Z</time></trkpt><trkpt lat="41.12021080517495" lon="9.485573119659476"><ele>92.0</ele><time>2026-05-01T09:05:13.999Z</time></trkpt><trkpt lat="41.12015821933519" lon="9.48550200093512"><ele>90.5</ele><time>2026-05-01T09:05:15.999Z</time></trkpt><trkpt lat="41.12012042027005" lon="9.485420108705796"><ele>89.0</ele><time>2026-05-01T09:05:18.999Z</time></trkpt><trkpt lat="41.120095755884776" lon="9.485327911249765"><ele>87.5</ele><time>2026-05-01T09:05:22.999Z</time></trkpt><trkpt lat="41.12008164160484" lon="9.485234883699318"><ele>86.0</ele><time>2026-05-01T09:05:25.999Z</time></trkpt><trkpt lat="41.120057649169105" lon="9.485121179119982"><ele>84.5</ele><time>2026-05-01T09:05:30Z</time></trkpt><trkpt lat="41.11999228015999" lon="9.485065223952942"><ele>83.0</ele><time>2026-05-01T09:05:32Z</time></trkpt><trkpt lat="41.11989551464482" lon="9.48499131670314"><ele>87.0</ele><time>2026-05-01T09:05:34Z</time></trkpt><trkpt lat="41.11977432073955" lon="9.484925668669735"><ele>91.0</ele><time>2026-05-01T09:05:36Z</time></trkpt><trkpt lat="41.11967670891803" lon="9.484838018786062"><ele>95.0</ele><time>2026-05-01T09:05:38Z</time></trkpt><trkpt lat="41.11962945510188" lon="9.484766397209848"><ele>99.0</ele><time>2026-05-01T09:05:39Z</time></trkpt><trkpt lat="41.119589475622725" lon="9.484678159262678"><ele>103.0</ele><time>2026-05-01T09:05:41Z</time></trkpt><trkpt lat="41.11949744486303" lon="9.484599215770444"><ele>100.60000000000001</ele><time>2026-05-01T09:05:43Z</time></trkpt><trkpt lat="41.11939484613179" lon="9.484573707310936"><ele>98.2</ele><time>2026-05-01T09:05:45Z</time></trkpt><trkpt lat="41.11930795581738" lon="9.484500489793037"><ele>95.8</ele><time>2026-05-01T09:05:47Z</time></trkpt><trkpt lat="41.119251972615515" lon="9.484442401011263"><ele>93.4</ele><time>2026-05-01T09:05:48Z</time></trkpt><trkpt lat="41.11917296169655" lon="9.48435621926008"><ele>91.0</ele><time>2026-05-01T09:05:50Z</time></trkpt><trkpt lat="41.119078024332154" lon="9.484264393367397"><ele>91.8</ele><time>2026-05-01T09:05:52Z</time></trkpt><trkpt lat="41.11896651009487" lon="9.484173774089946"><ele>92.6</ele><time>2026-05-01T09:05:54Z</time></trkpt><trkpt lat="41.11890939294888" lon="9.484125720962457"><ele>93.4</ele><time>2026-05-01T09:05:55Z</time></trkpt><trkpt lat="41.1188322741797" lon="9.484052118420392"><ele>94.2</ele><time>2026-05-01T09:05:57Z</time></trkpt><trkpt lat="41.11871226207884" lon="9.484050470632152"><ele>95.0</ele><time>2026-05-01T09:05:59Z</time></trkpt><trkpt lat="41.118615922011735" lon="9.483996525478496"><ele>95.0</ele><time>2026-05-01T09:06:01Z</time></trkpt><trkpt lat="41.11853603766625" lon="9.483985339792232"><ele>95.0</ele><time>2026-05-01T09:06:02Z</time></trkpt><trkpt lat="41.11846485286475" lon="9.483984390580689"><ele>95.0</ele><time>2026-05-01T09:06:03Z</time></trkpt><trkpt lat="41.1183967335055" lon="9.48398874086909"><ele>95.0</ele><time>2026-05-01T09:06:05Z</time></trkpt><trkpt lat="41.1183165528093" lon="9.484004212682779"><ele>95.0</ele><time>2026-05-01T09:06:07Z</time></trkpt><trkpt lat="41.11819645654094" lon="9.484012477775016"><ele>95.0</ele><time>2026-05-01T09:06:09Z</time></trkpt><trkpt lat="41.118084078132746" lon="9.4840005226581"><ele>94.4</ele><time>2026-05-01T09:06:11Z</time></trkpt><trkpt lat="41.11798672576284" lon="9.483914696878475"><ele>93.8</ele><time>2026-05-01T09:06:13Z</time></trkpt><trkpt lat="41.11789509642808" lon="9.483888511324169"><ele>93.19999999999999</ele><time>2026-05-01T09:06:16Z</time></trkpt><trkpt lat="41.11780528335594" lon="9.483860217363057"><ele>92.6</ele><time>2026-05-01T09:06:18Z</time></trkpt><trkpt lat="41.11767556704842" lon="9.48381603092931"><ele>92.0</ele><time>2026-05-01T09:06:20Z</time></trkpt><trkpt lat="41.11760545772811" lon="9.48378655050263"><ele>91.16666666666667</ele><time>2026-05-01T09:06:21Z</time></trkpt><trkpt lat="41.11750988727595" lon="9.483721690118427"><ele>90.33333333333334</ele><time>2026-05-01T09:06:23Z</time></trkpt><trkpt lat="41.11745042301691" lon="9.48369341454689"><ele>89.5</ele><time>2026-05-01T09:06:24Z</time></trkpt><trkpt lat="41.117338736172336" lon="9.483688802526856"><ele>88.66666666666667</ele><time>2026-05-01T09:06:26Z</time></trkpt><trkpt lat="41.11726224909661" lon="9.483697610844196"><ele>87.83333333333333</ele><time>2026-05-01T09:06:27Z</time></trkpt><trkpt lat="41.11719414042145" lon="9.483713723920305"><ele>87.0</ele><time>2026-05-01T09:06:29Z</time></trkpt><trkpt lat="41.11708941236812" lon="9.483691860678375"><ele>87.0</ele><time>2026-05-01T09:06:31Z</time></trkpt><trkpt lat="41.11702069953191" lon="9.483643676972697"><ele>87.0</ele><time>2026-05-01T09:06:32Z</time></trkpt><trkpt lat="41.11694516139334" lon="9.483549432955561"><ele>87.0</ele><time>2026-05-01T09:06:34Z</time></trkpt><trkpt lat="41.11686133335404" lon="9.483481734212468"><ele>87.0</ele><time>2026-05-01T09:06:36Z</time></trkpt><trkpt lat="41.11676377604827" lon="9.483464446347176"><ele>87.0</ele><time>2026-05-01T09:06:38Z</time></trkpt><trkpt lat="41.11671619385149" lon="9.483406373954116"><ele>87.0</ele><time>2026-05-01T09:06:41Z</time></trkpt><trkpt lat="41.11670548387734" lon="9.483303997615325"><ele>87.0</ele><time>2026-05-01T09:09:48Z</time></trkpt><trkpt lat="41.11673001600617" lon="9.483213611007507"><ele>87.0</ele><time>2026-05-01T09:09:49Z</time></trkpt><trkpt lat="41.116771900674735" lon="9.483121694657484"><ele>87.0</ele><time>2026-05-01T09:09:50Z</time></trkpt><trkpt lat="41.116821060170174" lon="9.483028505000574"><ele>87.0</ele><time>2026-05-01T09:09:51Z</time></trkpt><trkpt lat="41.11688128668536" lon="9.482935989683497"><ele>87.0</ele><time>2026-05-01T09:09:52Z</time></trkpt><trkpt lat="41.11695324352165" lon="9.482861519051935"><ele>87.0</ele><time>2026-05-01T09:09:53Z</time></trkpt><trkpt lat="41.11703276951" lon="9.482795205769067"><ele>87.19999999999999</ele><time>2026-05-01T09:09:54Z</time></trkpt><trkpt lat="41.11709063460024" lon="9.482694194538984"><ele>87.4</ele><time>2026-05-01T09:09:56Z</time></trkpt><trkpt lat="41.11704608863026" lon="9.482530991068469"><ele>87.6</ele><time>2026-05-01T09:09:58Z</time></trkpt><trkpt lat="41.11699051457429" lon="9.482461769571643"><ele>87.80000000000001</ele><time>2026-05-01T09:09:59Z</time></trkpt><trkpt lat="41.116917131671805" lon="9.482394892346173"><ele>88.0</ele><time>2026-05-01T09:10:00Z</time></trkpt><trkpt lat="41.11687962627433" lon="9.482312390865546"><ele>88.0</ele><time>2026-05-01T09:10:01Z</time></trkpt><trkpt lat="41.116812152360225" lon="9.482209011594529"><ele>88.0</ele><time>2026-05-01T09:10:02Z</time></trkpt><trkpt lat="41.116745655344" lon="9.482093759244933"><ele>88.0</ele><time>2026-05-01T09:10:03Z</time></trkpt><trkpt lat="41.11667687988634" lon="9.481972855459114"><ele>88.0</ele><time>2026-05-01T09:10:04Z</time></trkpt><trkpt lat="41.116609356387535" lon="9.481857367202348"><ele>88.0</ele><time>2026-05-01T09:10:05Z</time></trkpt><trkpt lat="41.11653869697567" lon="9.481752642272165"><ele>90.0</ele><time>2026-05-01T09:10:07Z</time></trkpt><trkpt lat="41.11647008039889" lon="9.481681782748133"><ele>92.0</ele><time>2026-05-01T09:10:08Z</time></trkpt><trkpt lat="41.11640414091825" lon="9.48162470887973"><ele>94.0</ele><time>2026-05-01T09:10:09Z</time></trkpt><trkpt lat="41.11633466368986" lon="9.481574274588008"><ele>96.0</ele><time>2026-05-01T09:10:10Z</time></trkpt><trkpt lat="41.11626448731527" lon="9.481541871796287"><ele>98.00000000000001</ele><time>2026-05-01T09:10:11Z</time></trkpt><trkpt lat="41.116200131929766" lon="9.481513557065085"><ele>100.0</ele><time>2026-05-01T09:10:12Z</time></trkpt><trkpt lat="41.11612833687608" lon="9.48144190931327"><ele>100.0</ele><time>2026-05-01T09:10:14Z</time></trkpt><trkpt lat="41.11611716633561" lon="9.481350224134188"><ele>100.0</ele><time>2026-05-01T09:10:15Z</time></trkpt><trkpt lat="41.11613503271119" lon="9.481226582122794"><ele>100.0</ele><time>2026-05-01T09:10:17Z</time></trkpt><trkpt lat="41.11624083434054" lon="9.481149563024367"><ele>100.0</ele><time>2026-05-01T09:10:19Z</time></trkpt><trkpt lat="41.11629499631242" lon="9.481079656297874"><ele>100.0</ele><time>2026-05-01T09:10:20Z</time></trkpt><trkpt lat="41.116337564807324" lon="9.480975977405214"><ele>101.16666666666667</ele><time>2026-05-01T09:10:21Z</time></trkpt><trkpt lat="41.11638189937954" lon="9.480867255267452"><ele>102.33333333333334</ele><time>2026-05-01T09:10:22Z</time></trkpt><trkpt lat="41.11643467432601" lon="9.480788927324179"><ele>103.5</ele><time>2026-05-01T09:10:23Z</time></trkpt><trkpt lat="41.116480294536125" lon="9.480694472005702"><ele>104.66666666666666</ele><time>2026-05-01T09:10:24Z</time></trkpt><trkpt lat="41.11652613510752" lon="9.480610778176347"><ele>105.83333333333333</ele><time>2026-05-01T09:10:25Z</time></trkpt><trkpt lat="41.11657424376222" lon="9.480550427566612"><ele>107.0</ele><time>2026-05-01T09:10:26Z</time></trkpt><trkpt lat="41.116630157802604" lon="9.48049986064721"><ele>106.99999999999999</ele><time>2026-05-01T09:10:27Z</time></trkpt><trkpt lat="41.11670101543843" lon="9.480481756516717"><ele>107.0</ele><time>2026-05-01T09:10:28Z</time></trkpt><trkpt lat="41.11679038342785" lon="9.48049009531341"><ele>107.0</ele><time>2026-05-01T09:10:29.001Z</time></trkpt><trkpt lat="41.11688869193452" lon="9.480512445242999"><ele>107.0</ele><time>2026-05-01T09:10:30.001Z</time></trkpt><trkpt lat="41.116968641872866" lon="9.480518445337031"><ele>106.99999999999999</ele><time>2026-05-01T09:10:31.001Z</time></trkpt><trkpt lat="41.117044918759994" lon="9.480480685889692"><ele>107.0</ele><time>2026-05-01T09:10:32.001Z</time></trkpt><trkpt lat="41.11711059298594" lon="9.480390175114517"><ele>105.8</ele><time>2026-05-01T09:10:33.001Z</time></trkpt><trkpt lat="41.11718109085131" lon="9.480254140566377"><ele>104.6</ele><time>2026-05-01T09:10:34.001Z</time></trkpt><trkpt lat="41.11724901943235" lon="9.480119409071152"><ele>103.39999999999999</ele><time>2026-05-01T09:10:35.001Z</time></trkpt><trkpt lat="41.1173233778987" lon="9.480002002692979"><ele>102.19999999999999</ele><time>2026-05-01T09:10:37.001Z</time></trkpt><trkpt lat="41.11736532976769" lon="9.479906973270218"><ele>101.0</ele><time>2026-05-01T09:10:38.001Z</time></trkpt><trkpt lat="41.11741790327941" lon="9.47983489880045"><ele>100.4</ele><time>2026-05-01T09:10:39.001Z</time></trkpt><trkpt lat="41.11748127221851" lon="9.479754252980417"><ele>99.8</ele><time>2026-05-01T09:10:40.001Z</time></trkpt><trkpt lat="41.11752881812335" lon="9.47968693134706"><ele>99.2</ele><time>2026-05-01T09:10:41.001Z</time></trkpt><trkpt lat="41.117599315228375" lon="9.479567821271973"><ele>98.60000000000001</ele><time>2026-05-01T09:10:43.001Z</time></trkpt><trkpt lat="41.1175723219101" lon="9.479394605856678"><ele>98.0</ele><time>2026-05-01T09:10:45.001Z</time></trkpt><trkpt lat="41.117598361383656" lon="9.4793033718857"><ele>96.49999999999999</ele><time>2026-05-01T09:10:46.001Z</time></trkpt><trkpt lat="41.117620369224376" lon="9.479194820911715"><ele>95.0</ele><time>2026-05-01T09:10:47.001Z</time></trkpt><trkpt lat="41.11764058205868" lon="9.479095229229218"><ele>93.5</ele><time>2026-05-01T09:10:48.001Z</time></trkpt><trkpt lat="41.11766466357176" lon="9.478992854002145"><ele>92.0</ele><time>2026-05-01T09:10:49.001Z</time></trkpt><trkpt lat="41.11768485986564" lon="9.478906309491904"><ele>90.5</ele><time>2026-05-01T09:10:50.001Z</time></trkpt><trkpt lat="41.1177063950399" lon="9.478809317263345"><ele>89.0</ele><time>2026-05-01T09:10:51.001Z</time></trkpt><trkpt lat="41.117712472073954" lon="9.47870293252111"><ele>87.0</ele><time>2026-05-01T09:10:52.001Z</time></trkpt><trkpt lat="41.11775176422516" lon="9.47860035069094"><ele>85.0</ele><time>2026-05-01T09:10:53.001Z</time></trkpt><trkpt lat="41.117793207365885" lon="9.478429813568686"><ele>83.0</ele><time>2026-05-01T09:10:55.001Z</time></trkpt><trkpt lat="41.11782965686787" lon="9.478356659832928"><ele>81.0</ele><time>2026-05-01T09:10:56.001Z</time></trkpt><trkpt lat="41.117916157683254" lon="9.478270206859275"><ele>79.0</ele><time>2026-05-01T09:10:58.001Z</time></trkpt><trkpt lat="41.11805736167759" lon="9.478262300176716"><ele>79.0</ele><time>2026-05-01T09:11:00.001Z</time></trkpt><trkpt lat="41.11813919063703" lon="9.478251936220989"><ele>79.0</ele><time>2026-05-01T09:11:01.001Z</time></trkpt><trkpt lat="41.11821781606452" lon="9.478225755392506"><ele>79.0</ele><time>2026-05-01T09:11:02.001Z</time></trkpt><trkpt lat="41.11829019987383" lon="9.478221593201908"><ele>79.0</ele><time>2026-05-01T09:11:03.001Z</time></trkpt><trkpt lat="41.118377495263445" lon="9.478213659713317"><ele>79.0</ele><time>2026-05-01T09:11:03.999Z</time></trkpt><trkpt lat="41.11846379879387" lon="9.478192640134097"><ele>79.0</ele><time>2026-05-01T09:11:04.999Z</time></trkpt><trkpt lat="41.118539680691924" lon="9.478183483255908"><ele>77.4</ele><time>2026-05-01T09:11:05.999Z</time></trkpt><trkpt lat="41.11860325103189" lon="9.47812126206597"><ele>75.80000000000001</ele><time>2026-05-01T09:11:06.999Z</time></trkpt><trkpt lat="41.11863210569085" lon="9.477997523952086"><ele>74.19999999999999</ele><time>2026-05-01T09:11:07.999Z</time></trkpt><trkpt lat="41.11868075499041" lon="9.477883770384688"><ele>72.6</ele><time>2026-05-01T09:11:08.999Z</time></trkpt><trkpt lat="41.118711213740866" lon="9.477737478061746"><ele>71.0</ele><time>2026-05-01T09:11:09.999Z</time></trkpt><trkpt lat="41.118738632323556" lon="9.477567339546797"><ele>71.0</ele><time>2026-05-01T09:11:10.999Z</time></trkpt><trkpt lat="41.11874466979911" lon="9.47739298511694"><ele>71.0</ele><time>2026-05-01T09:11:11.999Z</time></trkpt><trkpt lat="41.118775130450686" lon="9.477243930073646"><ele>71.0</ele><time>2026-05-01T09:11:12.999Z</time></trkpt><trkpt lat="41.11879705409546" lon="9.477099985515025"><ele>71.0</ele><time>2026-05-01T09:11:13.999Z</time></trkpt><trkpt lat="41.11882617275443" lon="9.476962334540156"><ele>68.75</ele><time>2026-05-01T09:11:14.999Z</time></trkpt><trkpt lat="41.11887016863826" lon="9.476830921463899"><ele>66.5</ele><time>2026-05-01T09:11:15.999Z</time></trkpt><trkpt lat="41.11894854355842" lon="9.476714747840665"><ele>64.25</ele><time>2026-05-01T09:11:16.999Z</time></trkpt><trkpt lat="41.119024575695" lon="9.476599646800384"><ele>62.0</ele><time>2026-05-01T09:11:17.999Z</time></trkpt><trkpt lat="41.11906417727624" lon="9.476458050579588"><ele>57.75</ele><time>2026-05-01T09:11:18.999Z</time></trkpt><trkpt lat="41.11907916066894" lon="9.476299540485977"><ele>53.5</ele><time>2026-05-01T09:11:19.999Z</time></trkpt><trkpt lat="41.119092460890435" lon="9.476134123993958"><ele>49.25</ele><time>2026-05-01T09:11:20.999Z</time></trkpt><trkpt lat="41.119121431991694" lon="9.475964741776579"><ele>45.0</ele><time>2026-05-01T09:11:21.999Z</time></trkpt><trkpt lat="41.119165665484104" lon="9.475806179027993"><ele>45.0</ele><time>2026-05-01T09:11:22.999Z</time></trkpt><trkpt lat="41.11922294134109" lon="9.475647183489246"><ele>45.0</ele><time>2026-05-01T09:11:23.999Z</time></trkpt><trkpt lat="41.11928444180619" lon="9.475498605923843"><ele>45.0</ele><time>2026-05-01T09:11:24.999Z</time></trkpt><trkpt lat="41.1193424209562" lon="9.475349362626979"><ele>45.0</ele><time>2026-05-01T09:11:25.999Z</time></trkpt><trkpt lat="41.119384089245955" lon="9.475199572446815"><ele>44.2</ele><time>2026-05-01T09:11:26.999Z</time></trkpt><trkpt lat="41.11941750225905" lon="9.475047439932885"><ele>43.4</ele><time>2026-05-01T09:11:27.999Z</time></trkpt><trkpt lat="41.11944292207041" lon="9.47490002635851"><ele>42.599999999999994</ele><time>2026-05-01T09:11:29Z</time></trkpt><trkpt lat="41.11946202629355" lon="9.474762540855059"><ele>41.8</ele><time>2026-05-01T09:11:30Z</time></trkpt><trkpt lat="41.11948231017181" lon="9.474634274286164"><ele>41.0</ele><time>2026-05-01T09:11:31Z</time></trkpt><trkpt lat="41.119523100434186" lon="9.474516643059596"><ele>39.8</ele><time>2026-05-01T09:11:32Z</time></trkpt><trkpt lat="41.11958910433821" lon="9.474424056096202"><ele>38.599999999999994</ele><time>2026-05-01T09:11:33Z</time></trkpt><trkpt lat="41.11968804803963" lon="9.474388504937439"><ele>37.4</ele><time>2026-05-01T09:11:34Z</time></trkpt><trkpt lat="41.11977709004915" lon="9.474316367378236"><ele>36.2</ele><time>2026-05-01T09:11:35Z</time></trkpt><trkpt lat="41.11987204235172" lon="9.474257164848087"><ele>35.0</ele><time>2026-05-01T09:11:36Z</time></trkpt><trkpt lat="41.11996292756247" lon="9.474186482261766"><ele>33.8</ele><time>2026-05-01T09:11:37Z</time></trkpt><trkpt lat="41.12004973396879" lon="9.474104522881769"><ele>32.6</ele><time>2026-05-01T09:11:38Z</time></trkpt><trkpt lat="41.12013333471872" lon="9.474013934996536"><ele>31.4</ele><time>2026-05-01T09:11:39Z</time></trkpt><trkpt lat="41.1202098607863" lon="9.47392304051375"><ele>30.2</ele><time>2026-05-01T09:11:40Z</time></trkpt><trkpt lat="41.120264734842145" lon="9.473825975079162"><ele>29.0</ele><time>2026-05-01T09:11:41Z</time></trkpt><trkpt lat="41.120289457254835" lon="9.473709999556618"><ele>27.833333333333332</ele><time>2026-05-01T09:11:42Z</time></trkpt><trkpt lat="41.12032034314074" lon="9.473592254003334"><ele>26.666666666666664</ele><time>2026-05-01T09:11:43Z</time></trkpt><trkpt lat="41.12027124370416" lon="9.47348174741123"><ele>25.5</ele><time>2026-05-01T09:11:44Z</time></trkpt><trkpt lat="41.12024971766631" lon="9.473388673092357"><ele>24.333333333333332</ele><time>2026-05-01T09:11:46Z</time></trkpt><trkpt lat="41.120248864850936" lon="9.473292310189866"><ele>23.166666666666664</ele><time>2026-05-01T09:11:50Z</time></trkpt><trkpt lat="41.12022108103985" lon="9.473194373140819"><ele>22.0</ele><time>2026-05-01T09:11:54Z</time></trkpt><trkpt lat="41.120129560056434" lon="9.47315006501515"><ele>22.0</ele><time>2026-05-01T09:11:55Z</time></trkpt><trkpt lat="41.120010117530335" lon="9.473102044358788"><ele>22.0</ele><time>2026-05-01T09:11:56Z</time></trkpt><trkpt lat="41.11987922595402" lon="9.473060167479895"><ele>22.0</ele><time>2026-05-01T09:11:57Z</time></trkpt><trkpt lat="41.119735992055276" lon="9.472988186718908"><ele>22.0</ele><time>2026-05-01T09:11:58Z</time></trkpt><trkpt lat="41.11959507345963" lon="9.47293068565408"><ele>22.0</ele><time>2026-05-01T09:11:59Z</time></trkpt><trkpt lat="41.11945932180078" lon="9.472895741206782"><ele>22.0</ele><time>2026-05-01T09:12:00Z</time></trkpt><trkpt lat="41.11934810170237" lon="9.472845692204162"><ele>22.0</ele><time>2026-05-01T09:12:01Z</time></trkpt><trkpt lat="41.119246674529585" lon="9.472802677851224"><ele>22.0</ele><time>2026-05-01T09:12:02Z</time></trkpt><trkpt lat="41.11915329833751" lon="9.472743742189678"><ele>23.400000000000002</ele><time>2026-05-01T09:12:03Z</time></trkpt><trkpt lat="41.11905748392028" lon="9.472698150715654"><ele>24.8</ele><time>2026-05-01T09:12:04Z</time></trkpt><trkpt lat="41.118966054024426" lon="9.472646899866172"><ele>26.2</ele><time>2026-05-01T09:12:05Z</time></trkpt><trkpt lat="41.118870541163616" lon="9.47258911092898"><ele>27.6</ele><time>2026-05-01T09:12:06Z</time></trkpt><trkpt lat="41.118775941574846" lon="9.472517649379967"><ele>29.0</ele><time>2026-05-01T09:12:07Z</time></trkpt><trkpt lat="41.118678891722745" lon="9.472438076849942"><ele>29.0</ele><time>2026-05-01T09:12:08Z</time></trkpt><trkpt lat="41.11858241241389" lon="9.47235665792548"><ele>29.0</ele><time>2026-05-01T09:12:09Z</time></trkpt><trkpt lat="41.11847541673684" lon="9.472285481343897"><ele>29.0</ele><time>2026-05-01T09:12:10Z</time></trkpt><trkpt lat="41.11837197701005" lon="9.47219564075524"><ele>29.0</ele><time>2026-05-01T09:12:11Z</time></trkpt><trkpt lat="41.11826083719267" lon="9.472104298867352"><ele>28.25</ele><time>2026-05-01T09:12:12Z</time></trkpt><trkpt lat="41.11815207967449" lon="9.472011083782029"><ele>27.5</ele><time>2026-05-01T09:12:13Z</time></trkpt><trkpt lat="41.1180492831763" lon="9.471921260647948"><ele>26.75</ele><time>2026-05-01T09:12:14Z</time></trkpt><trkpt lat="41.11795359821924" lon="9.471837991638509"><ele>26.0</ele><time>2026-05-01T09:12:15Z</time></trkpt><trkpt lat="41.117856689511655" lon="9.47175311652088"><ele>26.0</ele><time>2026-05-01T09:12:16Z</time></trkpt><trkpt lat="41.11775853045796" lon="9.47166530637888"><ele>26.0</ele><time>2026-05-01T09:12:17Z</time></trkpt><trkpt lat="41.117656421531954" lon="9.471582086821408"><ele>26.0</ele><time>2026-05-01T09:12:18Z</time></trkpt><trkpt lat="41.117545294213805" lon="9.471492657120455"><ele>26.0</ele><time>2026-05-01T09:12:19Z</time></trkpt><trkpt lat="41.11742395041771" lon="9.471390041053231"><ele>25.0</ele><time>2026-05-01T09:12:20Z</time></trkpt><trkpt lat="41.11728195664569" lon="9.471277617619984"><ele>24.0</ele><time>2026-05-01T09:12:21Z</time></trkpt><trkpt lat="41.11711527549817" lon="9.471163352897513"><ele>23.0</ele><time>2026-05-01T09:12:22Z</time></trkpt><trkpt lat="41.116937338045666" lon="9.47106071484316"><ele>22.0</ele><time>2026-05-01T09:12:23Z</time></trkpt><trkpt lat="41.11677387602431" lon="9.47093149678449"><ele>21.0</ele><time>2026-05-01T09:12:24Z</time></trkpt><trkpt lat="41.116607329923184" lon="9.470826167451163"><ele>20.0</ele><time>2026-05-01T09:12:25Z</time></trkpt><trkpt lat="41.116446005973884" lon="9.470723998507848"><ele>19.666666666666668</ele><time>2026-05-01T09:12:26Z</time></trkpt><trkpt lat="41.116288361314396" lon="9.47062209019982"><ele>19.333333333333332</ele><time>2026-05-01T09:12:27Z</time></trkpt><trkpt lat="41.11612643450355" lon="9.470542189648443"><ele>19.0</ele><time>2026-05-01T09:12:28Z</time></trkpt><trkpt lat="41.11598525122409" lon="9.470440881059227"><ele>18.8</ele><time>2026-05-01T09:12:29Z</time></trkpt><trkpt lat="41.11586171889532" lon="9.470341488630705"><ele>18.599999999999998</ele><time>2026-05-01T09:12:30Z</time></trkpt><trkpt lat="41.11577867129437" lon="9.470226911218012"><ele>18.4</ele><time>2026-05-01T09:12:31Z</time></trkpt><trkpt lat="41.11570836647633" lon="9.470133913770777"><ele>18.2</ele><time>2026-05-01T09:12:32Z</time></trkpt><trkpt lat="41.115656071366914" lon="9.470050163976056"><ele>18.0</ele><time>2026-05-01T09:12:33Z</time></trkpt><trkpt lat="41.115618499773674" lon="9.469970591710897"><ele>18.0</ele><time>2026-05-01T09:12:34Z</time></trkpt><trkpt lat="41.11558397773772" lon="9.469892758679663"><ele>18.0</ele><time>2026-05-01T09:12:35Z</time></trkpt><trkpt lat="41.115401591073" lon="9.469885390016648"><ele>18.0</ele><time>2026-05-01T09:12:36Z</time></trkpt><trkpt lat="41.115291719973705" lon="9.469902182406962"><ele>18.0</ele><time>2026-05-01T09:12:37Z</time></trkpt><trkpt lat="41.115158064980314" lon="9.469876826656916"><ele>18.0</ele><time>2026-05-01T09:12:38Z</time></trkpt><trkpt lat="41.11499398922847" lon="9.469872032903654"><ele>18.0</ele><time>2026-05-01T09:12:39Z</time></trkpt><trkpt lat="41.11482527672928" lon="9.469870539316725"><ele>18.0</ele><time>2026-05-01T09:12:40Z</time></trkpt><trkpt lat="41.114661752029136" lon="9.46986759688249"><ele>18.75</ele><time>2026-05-01T09:12:41Z</time></trkpt><trkpt lat="41.11452971655882" lon="9.469864013322114"><ele>19.5</ele><time>2026-05-01T09:12:42Z</time></trkpt><trkpt lat="41.114408307864686" lon="9.469860718177964"><ele>20.25</ele><time>2026-05-01T09:12:43Z</time></trkpt><trkpt lat="41.1142957989049" lon="9.46985766458253"><ele>21.0</ele><time>2026-05-01T09:12:44Z</time></trkpt><trkpt lat="41.114175841326485" lon="9.469854408820966"><ele>21.4</ele><time>2026-05-01T09:12:45Z</time></trkpt><trkpt lat="41.11406061384705" lon="9.469849519991072"><ele>21.8</ele><time>2026-05-01T09:12:46Z</time></trkpt><trkpt lat="41.11396405854225" lon="9.46984480137037"><ele>22.2</ele><time>2026-05-01T09:12:47.001Z</time></trkpt><trkpt lat="41.11388113286197" lon="9.469840503755474"><ele>22.599999999999998</ele><time>2026-05-01T09:12:48.001Z</time></trkpt><trkpt lat="41.113792917880744" lon="9.469837373268017"><ele>23.0</ele><time>2026-05-01T09:12:49.001Z</time></trkpt><trkpt lat="41.113703485836446" lon="9.469838273740722"><ele>23.0</ele><time>2026-05-01T09:12:50.001Z</time></trkpt><trkpt lat="41.1136175120923" lon="9.469845435950045"><ele>23.0</ele><time>2026-05-01T09:12:51.001Z</time></trkpt><trkpt lat="41.11355116562407" lon="9.46985017008684"><ele>23.0</ele><time>2026-05-01T09:12:52.001Z</time></trkpt><trkpt lat="41.11347553540288" lon="9.469860204069194"><ele>23.0</ele><time>2026-05-01T09:12:53.001Z</time></trkpt><trkpt lat="41.113363872156306" lon="9.469888595803205"><ele>23.0</ele><time>2026-05-01T09:12:54.001Z</time></trkpt><trkpt lat="41.11324987450434" lon="9.46995286920241"><ele>25.599999999999998</ele><time>2026-05-01T09:12:55.001Z</time></trkpt><trkpt lat="41.11315517159984" lon="9.469979371294087"><ele>28.2</ele><time>2026-05-01T09:12:56.001Z</time></trkpt><trkpt lat="41.11306568572252" lon="9.470015322735915"><ele>30.8</ele><time>2026-05-01T09:12:57.001Z</time></trkpt><trkpt lat="41.11296557291155" lon="9.47004808526131"><ele>33.4</ele><time>2026-05-01T09:12:58.001Z</time></trkpt><trkpt lat="41.11286021355908" lon="9.470071127284362"><ele>36.0</ele><time>2026-05-01T09:12:59.001Z</time></trkpt><trkpt lat="41.11274772178259" lon="9.470071057345011"><ele>36.0</ele><time>2026-05-01T09:13:00.001Z</time></trkpt><trkpt lat="41.112635122544326" lon="9.470067922728656"><ele>36.0</ele><time>2026-05-01T09:13:01.001Z</time></trkpt><trkpt lat="41.11253266622471" lon="9.470047811092831"><ele>36.0</ele><time>2026-05-01T09:13:02.001Z</time></trkpt><trkpt lat="41.11244574608037" lon="9.470047704087094"><ele>36.0</ele><time>2026-05-01T09:13:03.001Z</time></trkpt><trkpt lat="41.112404022562714" lon="9.47015555127191"><ele>36.0</ele><time>2026-05-01T09:13:04.001Z</time></trkpt><trkpt lat="41.112401155912146" lon="9.470271705256813"><ele>36.0</ele><time>2026-05-01T09:13:05.001Z</time></trkpt><trkpt lat="41.11241790932634" lon="9.470387682251626"><ele>36.0</ele><time>2026-05-01T09:13:06.001Z</time></trkpt><trkpt lat="41.11240162438039" lon="9.470512153079893"><ele>36.0</ele><time>2026-05-01T09:13:08.001Z</time></trkpt><trkpt lat="41.112388229822635" lon="9.47059475980434"><ele>36.0</ele><time>2026-05-01T09:13:09.999Z</time></trkpt><trkpt lat="41.11233090263255" lon="9.470717847684437"><ele>36.0</ele><time>2026-05-01T09:13:11.999Z</time></trkpt><trkpt lat="41.112226885951436" lon="9.470758221062564"><ele>36.2</ele><time>2026-05-01T09:13:13.999Z</time></trkpt><trkpt lat="41.112150825458684" lon="9.470752898688835"><ele>36.400000000000006</ele><time>2026-05-01T09:13:15.999Z</time></trkpt><trkpt lat="41.11224042954119" lon="9.470748023849135"><ele>36.6</ele><time>2026-05-01T09:13:36Z</time></trkpt><trkpt lat="41.11236131806314" lon="9.470684128627267"><ele>36.800000000000004</ele><time>2026-05-01T09:13:38Z</time></trkpt><trkpt lat="41.11242684353902" lon="9.470707810525045"><ele>37.0</ele><time>2026-05-01T09:13:39Z</time></trkpt><trkpt lat="41.112428653125924" lon="9.470462962938287"><ele>36.833333333333336</ele><time>2026-05-01T09:13:40Z</time></trkpt><trkpt lat="41.11243019667977" lon="9.470352464354471"><ele>36.66666666666667</ele><time>2026-05-01T09:13:41Z</time></trkpt><trkpt lat="41.112435352789554" lon="9.470246346575093"><ele>36.5</ele><time>2026-05-01T09:13:42Z</time></trkpt><trkpt lat="41.112452643021236" lon="9.470146691409433"><ele>36.333333333333336</ele><time>2026-05-01T09:13:43Z</time></trkpt><trkpt lat="41.11250027248623" lon="9.47007596941942"><ele>36.166666666666664</ele><time>2026-05-01T09:13:44Z</time></trkpt><trkpt lat="41.112575624799206" lon="9.470058386599671"><ele>36.0</ele><time>2026-05-01T09:13:45Z</time></trkpt><trkpt lat="41.1126821071393" lon="9.47009224286434"><ele>36.0</ele><time>2026-05-01T09:13:46Z</time></trkpt><trkpt lat="41.11279555772905" lon="9.470121430344289"><ele>36.0</ele><time>2026-05-01T09:13:47Z</time></trkpt><trkpt lat="41.112892353100726" lon="9.470116181543522"><ele>36.0</ele><time>2026-05-01T09:13:48Z</time></trkpt><trkpt lat="41.112976047777316" lon="9.470098647095165"><ele>36.0</ele><time>2026-05-01T09:13:49Z</time></trkpt><trkpt lat="41.11305059324996" lon="9.470070901801835"><ele>36.0</ele><time>2026-05-01T09:13:50Z</time></trkpt><trkpt lat="41.11311835507921" lon="9.470042964686673"><ele>36.0</ele><time>2026-05-01T09:13:51Z</time></trkpt><trkpt lat="41.11318392747773" lon="9.470019233281109"><ele>36.0</ele><time>2026-05-01T09:13:52Z</time></trkpt><trkpt lat="41.1132478555446" lon="9.469993852261458"><ele>36.0</ele><time>2026-05-01T09:13:53Z</time></trkpt><trkpt lat="41.113309822083416" lon="9.46997091272158"><ele>36.0</ele><time>2026-05-01T09:13:54Z</time></trkpt><trkpt lat="41.113379974499935" lon="9.469942781693907"><ele>36.0</ele><time>2026-05-01T09:13:56Z</time></trkpt><trkpt lat="41.11330413409039" lon="9.469927334573677"><ele>36.0</ele><time>2026-05-01T09:14:20Z</time></trkpt><trkpt lat="41.113129236273366" lon="9.470025366054646"><ele>36.0</ele><time>2026-05-01T09:14:22Z</time></trkpt><trkpt lat="41.11300718497274" lon="9.470034016737728"><ele>36.0</ele><time>2026-05-01T09:14:23Z</time></trkpt><trkpt lat="41.112897562796356" lon="9.470065642662906"><ele>36.0</ele><time>2026-05-01T09:14:24Z</time></trkpt><trkpt lat="41.112784002500334" lon="9.470079992354082"><ele>36.0</ele><time>2026-05-01T09:14:25Z</time></trkpt><trkpt lat="41.11267018715438" lon="9.470058511175573"><ele>36.0</ele><time>2026-05-01T09:14:26Z</time></trkpt><trkpt lat="41.11256984294614" lon="9.470036225163872"><ele>36.0</ele><time>2026-05-01T09:14:27Z</time></trkpt><trkpt lat="41.11248039867557" lon="9.470037180970474"><ele>36.0</ele><time>2026-05-01T09:14:28Z</time></trkpt><trkpt lat="41.11240951663241" lon="9.47007420212509"><ele>36.0</ele><time>2026-05-01T09:14:29Z</time></trkpt><trkpt lat="41.11236096024384" lon="9.470179339969034"><ele>36.0</ele><time>2026-05-01T09:14:30Z</time></trkpt><trkpt lat="41.11240958718783" lon="9.470351919576162"><ele>36.2</ele><time>2026-05-01T09:14:31Z</time></trkpt><trkpt lat="41.11241877575835" lon="9.470485110782276"><ele>36.400000000000006</ele><time>2026-05-01T09:14:32Z</time></trkpt><trkpt lat="41.112386488966415" lon="9.470605721359684"><ele>36.6</ele><time>2026-05-01T09:14:33Z</time></trkpt><trkpt lat="41.112353425606415" lon="9.470693322915077"><ele>36.800000000000004</ele><time>2026-05-01T09:14:34Z</time></trkpt><trkpt lat="41.112239044690725" lon="9.470759534516326"><ele>37.0</ele><time>2026-05-01T09:14:36Z</time></trkpt><trkpt lat="41.11215850832475" lon="9.470752681825777"><ele>39.0</ele><time>2026-05-01T09:14:37Z</time></trkpt><trkpt lat="41.11207863139332" lon="9.470741778333702"><ele>41.0</ele><time>2026-05-01T09:14:38Z</time></trkpt><trkpt lat="41.11199528377357" lon="9.470731915860322"><ele>43.0</ele><time>2026-05-01T09:14:39Z</time></trkpt><trkpt lat="41.11190917619851" lon="9.470725383734516"><ele>45.0</ele><time>2026-05-01T09:14:40Z</time></trkpt><trkpt lat="41.1118173072719" lon="9.470763383201064"><ele>46.99999999999999</ele><time>2026-05-01T09:14:41Z</time></trkpt><trkpt lat="41.111727622717716" lon="9.470785547130307"><ele>49.0</ele><time>2026-05-01T09:14:42Z</time></trkpt><trkpt lat="41.11163089842535" lon="9.470788245580236"><ele>50.666666666666664</ele><time>2026-05-01T09:14:43Z</time></trkpt><trkpt lat="41.11154336869397" lon="9.470804114537742"><ele>52.33333333333333</ele><time>2026-05-01T09:14:44Z</time></trkpt><trkpt lat="41.11146577288715" lon="9.470792356352753"><ele>54.0</ele><time>2026-05-01T09:14:45Z</time></trkpt><trkpt lat="41.11139382088505" lon="9.470762159668723"><ele>55.66666666666667</ele><time>2026-05-01T09:14:46Z</time></trkpt><trkpt lat="41.11131864153095" lon="9.470750882919177"><ele>57.333333333333336</ele><time>2026-05-01T09:14:47Z</time></trkpt><trkpt lat="41.11124185089647" lon="9.470729548455841"><ele>59.0</ele><time>2026-05-01T09:14:48Z</time></trkpt><trkpt lat="41.11116180796579" lon="9.470699847866875"><ele>59.00000000000001</ele><time>2026-05-01T09:14:49Z</time></trkpt><trkpt lat="41.11107562546591" lon="9.470704575276638"><ele>59.0</ele><time>2026-05-01T09:14:50.001Z</time></trkpt><trkpt lat="41.11099959794137" lon="9.470717591773974"><ele>59.0</ele><time>2026-05-01T09:14:51.001Z</time></trkpt><trkpt lat="41.11092403665562" lon="9.470761288804956"><ele>59.0</ele><time>2026-05-01T09:14:52.002Z</time></trkpt><trkpt lat="41.11085047722985" lon="9.470799006482267"><ele>59.00000000000001</ele><time>2026-05-01T09:14:53.002Z</time></trkpt><trkpt lat="41.110778123220136" lon="9.470831202438582"><ele>59.0</ele><time>2026-05-01T09:14:54.002Z</time></trkpt><trkpt lat="41.110740353016006" lon="9.470931334098976"><ele>58.6</ele><time>2026-05-01T09:14:55.002Z</time></trkpt><trkpt lat="41.110715608052075" lon="9.47101328866217"><ele>58.2</ele><time>2026-05-01T09:14:56.002Z</time></trkpt><trkpt lat="41.110729738599204" lon="9.471158721585356"><ele>57.800000000000004</ele><time>2026-05-01T09:14:58.002Z</time></trkpt><trkpt lat="41.11077019947628" lon="9.47127600229802"><ele>57.400000000000006</ele><time>2026-05-01T09:15:00.002Z</time></trkpt><trkpt lat="41.11082926311219" lon="9.471396953802493"><ele>57.0</ele><time>2026-05-01T09:15:02.002Z</time></trkpt><trkpt lat="41.11084878430183" lon="9.471528993262675"><ele>57.400000000000006</ele><time>2026-05-01T09:15:04.002Z</time></trkpt><trkpt lat="41.11082018190598" lon="9.471409174295768"><ele>57.800000000000004</ele><time>2026-05-01T09:15:20.001Z</time></trkpt><trkpt lat="41.11077517955831" lon="9.471219483667655"><ele>58.2</ele><time>2026-05-01T09:15:21.001Z</time></trkpt><trkpt lat="41.11074762333472" lon="9.4711030524132"><ele>58.6</ele><time>2026-05-01T09:15:22.001Z</time></trkpt><trkpt lat="41.11074601585922" lon="9.47100413932376"><ele>59.0</ele><time>2026-05-01T09:15:23.001Z</time></trkpt><trkpt lat="41.11076709594785" lon="9.470906060725326"><ele>59.0</ele><time>2026-05-01T09:15:24.001Z</time></trkpt><trkpt lat="41.11082693455302" lon="9.470815495097515"><ele>59.0</ele><time>2026-05-01T09:15:25Z</time></trkpt><trkpt lat="41.11093224252504" lon="9.47075304336875"><ele>59.0</ele><time>2026-05-01T09:15:26Z</time></trkpt><trkpt lat="41.111057731033135" lon="9.470724668507204"><ele>59.0</ele><time>2026-05-01T09:15:27Z</time></trkpt><trkpt lat="41.11117641235549" lon="9.47072641569804"><ele>59.0</ele><time>2026-05-01T09:15:28Z</time></trkpt><trkpt lat="41.111296130182296" lon="9.47074205789268"><ele>59.00000000000001</ele><time>2026-05-01T09:15:29Z</time></trkpt><trkpt lat="41.11140646657533" lon="9.470782572469645"><ele>59.00000000000001</ele><time>2026-05-01T09:15:30Z</time></trkpt><trkpt lat="41.11151427426353" lon="9.470832538637653"><ele>59.0</ele><time>2026-05-01T09:15:31Z</time></trkpt><trkpt lat="41.11161245476618" lon="9.470847299959717"><ele>59.0</ele><time>2026-05-01T09:15:32Z</time></trkpt><trkpt lat="41.11169831703359" lon="9.470820449142574"><ele>57.0</ele><time>2026-05-01T09:15:34Z</time></trkpt><trkpt lat="41.11177401668768" lon="9.470799094470863"><ele>55.00000000000001</ele><time>2026-05-01T09:15:37Z</time></trkpt><trkpt lat="41.111883084819354" lon="9.470774633864055"><ele>53.0</ele><time>2026-05-01T09:15:39.001Z</time></trkpt><trkpt lat="41.111999611204" lon="9.470768690761044"><ele>51.0</ele><time>2026-05-01T09:15:41.001Z</time></trkpt><trkpt lat="41.11207317319663" lon="9.47078014541148"><ele>49.0</ele><time>2026-05-01T09:15:43.001Z</time></trkpt><trkpt lat="41.11215813502255" lon="9.470780935227042"><ele>48.99999999999999</ele><time>2026-05-01T09:15:45.001Z</time></trkpt><trkpt lat="41.11225182754817" lon="9.470790049153853"><ele>49.0</ele><time>2026-05-01T09:15:47.001Z</time></trkpt><trkpt lat="41.11235546176858" lon="9.470728508450083"><ele>49.0</ele><time>2026-05-01T09:15:49.001Z</time></trkpt><trkpt lat="41.112398039540025" lon="9.470666126606718"><ele>49.0</ele><time>2026-05-01T09:15:50.001Z</time></trkpt><trkpt lat="41.112419193370926" lon="9.470580767418562"><ele>48.99999999999999</ele><time>2026-05-01T09:15:51.001Z</time></trkpt><trkpt lat="41.11242185641648" lon="9.470474324714043"><ele>49.0</ele><time>2026-05-01T09:15:52.001Z</time></trkpt><trkpt lat="41.11242745517586" lon="9.47036907005787"><ele>47.142857142857146</ele><time>2026-05-01T09:15:53.001Z</time></trkpt><trkpt lat="41.112433033175726" lon="9.470277522982082"><ele>45.285714285714285</ele><time>2026-05-01T09:15:54.001Z</time></trkpt><trkpt lat="41.11243920035482" lon="9.470186446351944"><ele>43.42857142857143</ele><time>2026-05-01T09:15:55.001Z</time></trkpt><trkpt lat="41.11246699021633" lon="9.470101481110067"><ele>41.57142857142857</ele><time>2026-05-01T09:15:56.001Z</time></trkpt><trkpt lat="41.112534108810706" lon="9.470056845419384"><ele>39.714285714285715</ele><time>2026-05-01T09:15:57.001Z</time></trkpt><trkpt lat="41.11261381758118" lon="9.470072663930285"><ele>37.85714285714286</ele><time>2026-05-01T09:15:58.001Z</time></trkpt><trkpt lat="41.11269410312883" lon="9.470103902115223"><ele>36.0</ele><time>2026-05-01T09:15:59.001Z</time></trkpt><trkpt lat="41.1127728488021" lon="9.470117914756894"><ele>36.0</ele><time>2026-05-01T09:16:00.001Z</time></trkpt><trkpt lat="41.11285587557077" lon="9.470120358472716"><ele>36.0</ele><time>2026-05-01T09:16:01.001Z</time></trkpt><trkpt lat="41.11294500083486" lon="9.470106056329438"><ele>36.0</ele><time>2026-05-01T09:16:02.001Z</time></trkpt><trkpt lat="41.11303182382584" lon="9.470077148576133"><ele>36.0</ele><time>2026-05-01T09:16:03.001Z</time></trkpt><trkpt lat="41.11312000034754" lon="9.470035867147486"><ele>36.0</ele><time>2026-05-01T09:16:04.001Z</time></trkpt><trkpt lat="41.11321109262371" lon="9.469998412363116"><ele>33.833333333333336</ele><time>2026-05-01T09:16:05.001Z</time></trkpt><trkpt lat="41.113300019960995" lon="9.469964645020948"><ele>31.666666666666668</ele><time>2026-05-01T09:16:06.001Z</time></trkpt><trkpt lat="41.113373368004524" lon="9.469935265222022"><ele>29.5</ele><time>2026-05-01T09:16:07.001Z</time></trkpt><trkpt lat="41.11349135895103" lon="9.469906043578067"><ele>27.333333333333336</ele><time>2026-05-01T09:16:09.001Z</time></trkpt><trkpt lat="41.11355695980078" lon="9.469902102361987"><ele>25.166666666666668</ele><time>2026-05-01T09:16:10.001Z</time></trkpt><trkpt lat="41.11362718317819" lon="9.469897070117693"><ele>23.0</ele><time>2026-05-01T09:16:11.001Z</time></trkpt><trkpt lat="41.11369470147347" lon="9.469888987214166"><ele>23.0</ele><time>2026-05-01T09:16:12.001Z</time></trkpt><trkpt lat="41.11376232708586" lon="9.469877408870394"><ele>23.0</ele><time>2026-05-01T09:16:13.001Z</time></trkpt><trkpt lat="41.11383236224247" lon="9.469869137309397"><ele>23.0</ele><time>2026-05-01T09:16:14.001Z</time></trkpt><trkpt lat="41.113911332331796" lon="9.469872846294413"><ele>23.0</ele><time>2026-05-01T09:16:15.001Z</time></trkpt><trkpt lat="41.11400174472993" lon="9.469881553518986"><ele>23.0</ele><time>2026-05-01T09:16:16.001Z</time></trkpt><trkpt lat="41.11409508248064" lon="9.46988866018549"><ele>23.0</ele><time>2026-05-01T09:16:17.001Z</time></trkpt><trkpt lat="41.11419469076921" lon="9.46989285052032"><ele>22.599999999999998</ele><time>2026-05-01T09:16:18.001Z</time></trkpt><trkpt lat="41.11429494974503" lon="9.469891353173965"><ele>22.2</ele><time>2026-05-01T09:16:19.001Z</time></trkpt><trkpt lat="41.11440067213506" lon="9.4698874107044"><ele>21.8</ele><time>2026-05-01T09:16:20.001Z</time></trkpt><trkpt lat="41.11450525584526" lon="9.469890706473354"><ele>21.4</ele><time>2026-05-01T09:16:21.001Z</time></trkpt><trkpt lat="41.11460634160831" lon="9.469906638424524"><ele>21.0</ele><time>2026-05-01T09:16:22.001Z</time></trkpt><trkpt lat="41.11470783759451" lon="9.46990638055248"><ele>21.0</ele><time>2026-05-01T09:16:23.001Z</time></trkpt><trkpt lat="41.11480534879979" lon="9.469901272971956"><ele>21.0</ele><time>2026-05-01T09:16:24.001Z</time></trkpt><trkpt lat="41.11490368249237" lon="9.469900590410283"><ele>21.0</ele><time>2026-05-01T09:16:25.001Z</time></trkpt><trkpt lat="41.115001170652725" lon="9.469904156410497"><ele>21.0</ele><time>2026-05-01T09:16:26.001Z</time></trkpt><trkpt lat="41.115096408576186" lon="9.469909622074855"><ele>21.0</ele><time>2026-05-01T09:16:27.001Z</time></trkpt><trkpt lat="41.115191243364414" lon="9.469914202284004"><ele>20.5</ele><time>2026-05-01T09:16:28.001Z</time></trkpt><trkpt lat="41.11528284975834" lon="9.469924197144023"><ele>20.0</ele><time>2026-05-01T09:16:29.001Z</time></trkpt><trkpt lat="41.11536899420406" lon="9.469931090420381"><ele>19.5</ele><time>2026-05-01T09:16:30.001Z</time></trkpt><trkpt lat="41.11544437099137" lon="9.46995563721929"><ele>19.0</ele><time>2026-05-01T09:16:31.001Z</time></trkpt><trkpt lat="41.11550840230548" lon="9.469955761850503"><ele>18.5</ele><time>2026-05-01T09:16:32.001Z</time></trkpt><trkpt lat="41.115567693270606" lon="9.469920182638882"><ele>18.0</ele><time>2026-05-01T09:16:47.001Z</time></trkpt><trkpt lat="41.1155513901782" lon="9.469761190358989"><ele>18.0</ele><time>2026-05-01T09:16:48.001Z</time></trkpt><trkpt lat="41.115520881546914" lon="9.46965201481907"><ele>18.0</ele><time>2026-05-01T09:16:49.001Z</time></trkpt><trkpt lat="41.115496471664464" lon="9.469530226292697"><ele>18.0</ele><time>2026-05-01T09:16:50.001Z</time></trkpt><trkpt lat="41.11548239623002" lon="9.469392129004206"><ele>18.0</ele><time>2026-05-01T09:16:51.001Z</time></trkpt><trkpt lat="41.115482581438144" lon="9.469223866640007"><ele>18.0</ele><time>2026-05-01T09:16:52.002Z</time></trkpt><trkpt lat="41.11549396603917" lon="9.469044194498052"><ele>17.75</ele><time>2026-05-01T09:16:53.002Z</time></trkpt><trkpt lat="41.1155123988451" lon="9.468882391266968"><ele>17.5</ele><time>2026-05-01T09:16:54.002Z</time></trkpt><trkpt lat="41.11553233571741" lon="9.468715550527355"><ele>17.25</ele><time>2026-05-01T09:16:55.002Z</time></trkpt><trkpt lat="41.11555398594809" lon="9.468509382409483"><ele>17.0</ele><time>2026-05-01T09:16:56.002Z</time></trkpt><trkpt lat="41.11557663846206" lon="9.46827312800999"><ele>17.0</ele><time>2026-05-01T09:16:57.002Z</time></trkpt><trkpt lat="41.11560476629228" lon="9.468033019587407"><ele>17.0</ele><time>2026-05-01T09:16:58.002Z</time></trkpt><trkpt lat="41.115628126743" lon="9.467815725026087"><ele>17.0</ele><time>2026-05-01T09:16:59.002Z</time></trkpt><trkpt lat="41.11564916379223" lon="9.467611052427316"><ele>19.25</ele><time>2026-05-01T09:17:00.002Z</time></trkpt><trkpt lat="41.11567158327017" lon="9.467413539596487"><ele>21.5</ele><time>2026-05-01T09:17:01.002Z</time></trkpt><trkpt lat="41.11569489112933" lon="9.4672239166574"><ele>23.75</ele><time>2026-05-01T09:17:02.002Z</time></trkpt><trkpt lat="41.115713751201305" lon="9.467028718198204"><ele>26.0</ele><time>2026-05-01T09:17:03.002Z</time></trkpt><trkpt lat="41.11571305301005" lon="9.466826334991497"><ele>26.0</ele><time>2026-05-01T09:17:04.002Z</time></trkpt><trkpt lat="41.11569069003766" lon="9.466620116327942"><ele>26.0</ele><time>2026-05-01T09:17:05.002Z</time></trkpt><trkpt lat="41.11564557004247" lon="9.466410881454804"><ele>26.0</ele><time>2026-05-01T09:17:06.002Z</time></trkpt><trkpt lat="41.11558277467678" lon="9.466203572628013"><ele>21.333333333333332</ele><time>2026-05-01T09:17:07.002Z</time></trkpt><trkpt lat="41.11548891028614" lon="9.466009859687775"><ele>16.666666666666664</ele><time>2026-05-01T09:17:08.002Z</time></trkpt><trkpt lat="41.11537585450909" lon="9.465837167793474"><ele>12.0</ele><time>2026-05-01T09:17:09.002Z</time></trkpt><trkpt lat="41.11524812613785" lon="9.465698081702056"><ele>12.0</ele><time>2026-05-01T09:17:10.002Z</time></trkpt><trkpt lat="41.11509784972686" lon="9.465580079149007"><ele>12.0</ele><time>2026-05-01T09:17:11.002Z</time></trkpt><trkpt lat="41.11493341424755" lon="9.465482927659725"><ele>12.0</ele><time>2026-05-01T09:17:12.002Z</time></trkpt><trkpt lat="41.11478144297443" lon="9.465408642289734"><ele>10.0</ele><time>2026-05-01T09:17:13.002Z</time></trkpt><trkpt lat="41.114642052594135" lon="9.465335982500193"><ele>8.0</ele><time>2026-05-01T09:17:14.002Z</time></trkpt><trkpt lat="41.11450838558959" lon="9.465265356848242"><ele>6.0</ele><time>2026-05-01T09:17:15.002Z</time></trkpt><trkpt lat="41.11438440851273" lon="9.46518643443236"><ele>4.0</ele><time>2026-05-01T09:17:16.002Z</time></trkpt><trkpt lat="41.11427323153993" lon="9.465102926934085"><ele>4.0</ele><time>2026-05-01T09:17:17.002Z</time></trkpt><trkpt lat="41.114169888677836" lon="9.4650187493744"><ele>4.0</ele><time>2026-05-01T09:17:18.002Z</time></trkpt><trkpt lat="41.11406760817951" lon="9.464933429982555"><ele>4.0</ele><time>2026-05-01T09:17:19.002Z</time></trkpt><trkpt lat="41.113965596790926" lon="9.464843935176502"><ele>4.0</ele><time>2026-05-01T09:17:20.002Z</time></trkpt><trkpt lat="41.11386066774887" lon="9.464754099677947"><ele>4.5</ele><time>2026-05-01T09:17:21.002Z</time></trkpt><trkpt lat="41.113761592940335" lon="9.464670624867686"><ele>5.0</ele><time>2026-05-01T09:17:22.001Z</time></trkpt><trkpt lat="41.113668746001444" lon="9.464585665560918"><ele>5.5</ele><time>2026-05-01T09:17:23.001Z</time></trkpt><trkpt lat="41.113578180687256" lon="9.464506015215758"><ele>6.0</ele><time>2026-05-01T09:17:24.001Z</time></trkpt><trkpt lat="41.11348275446981" lon="9.464420790648871"><ele>6.0</ele><time>2026-05-01T09:17:25.001Z</time></trkpt><trkpt lat="41.113379156491156" lon="9.46432988646045"><ele>6.0</ele><time>2026-05-01T09:17:26.001Z</time></trkpt><trkpt lat="41.113271933579384" lon="9.46423964311335"><ele>6.0</ele><time>2026-05-01T09:17:27.001Z</time></trkpt><trkpt lat="41.113161469654344" lon="9.464146413398494"><ele>6.0</ele><time>2026-05-01T09:17:28.001Z</time></trkpt><trkpt lat="41.11304816399056" lon="9.464050185783725"><ele>6.25</ele><time>2026-05-01T09:17:29.001Z</time></trkpt><trkpt lat="41.112932089403884" lon="9.463950082936078"><ele>6.5</ele><time>2026-05-01T09:17:30.001Z</time></trkpt><trkpt lat="41.112812295462604" lon="9.463846767880762"><ele>6.75</ele><time>2026-05-01T09:17:31.001Z</time></trkpt><trkpt lat="41.11269120866087" lon="9.463740011079603"><ele>7.0</ele><time>2026-05-01T09:17:32.001Z</time></trkpt><trkpt lat="41.1125733638891" lon="9.463634925963028"><ele>7.0</ele><time>2026-05-01T09:17:33.001Z</time></trkpt><trkpt lat="41.11245305971358" lon="9.463534669063288"><ele>7.0</ele><time>2026-05-01T09:17:34.001Z</time></trkpt><trkpt lat="41.11232072235219" lon="9.46344847839861"><ele>7.0</ele><time>2026-05-01T09:17:35.001Z</time></trkpt><trkpt lat="41.112178942494104" lon="9.463386078681088"><ele>7.0</ele><time>2026-05-01T09:17:36.001Z</time></trkpt><trkpt lat="41.11202517229718" lon="9.46334623400759"><ele>7.0</ele><time>2026-05-01T09:17:37.001Z</time></trkpt><trkpt lat="41.1118776905127" lon="9.463332971647418"><ele>7.0</ele><time>2026-05-01T09:17:38.001Z</time></trkpt><trkpt lat="41.11174403901814" lon="9.463342362664942"><ele>7.0</ele><time>2026-05-01T09:17:39.001Z</time></trkpt><trkpt lat="41.111614910413905" lon="9.463369411186807"><ele>7.0</ele><time>2026-05-01T09:17:40.001Z</time></trkpt><trkpt lat="41.11147887377997" lon="9.46340911953309"><ele>7.5</ele><time>2026-05-01T09:17:41.001Z</time></trkpt><trkpt lat="41.111344676037625" lon="9.463469743194226"><ele>8.0</ele><time>2026-05-01T09:17:42.001Z</time></trkpt><trkpt lat="41.11122237834432" lon="9.46351167458622"><ele>8.5</ele><time>2026-05-01T09:17:43.001Z</time></trkpt><trkpt lat="41.11110790650516" lon="9.463560091502888"><ele>9.0</ele><time>2026-05-01T09:17:44.001Z</time></trkpt><trkpt lat="41.110992431350034" lon="9.463609029721201"><ele>9.0</ele><time>2026-05-01T09:17:45.001Z</time></trkpt><trkpt lat="41.11088281903275" lon="9.463655484775103"><ele>9.0</ele><time>2026-05-01T09:17:46.001Z</time></trkpt><trkpt lat="41.11078776975364" lon="9.463713946428523"><ele>9.0</ele><time>2026-05-01T09:17:47.001Z</time></trkpt><trkpt lat="41.11069576679099" lon="9.463752052199943"><ele>9.0</ele><time>2026-05-01T09:17:48.001Z</time></trkpt><trkpt lat="41.11060002147893" lon="9.463790000172786"><ele>9.0</ele><time>2026-05-01T09:17:49.001Z</time></trkpt><trkpt lat="41.11050151640488" lon="9.463832670167836"><ele>10.8</ele><time>2026-05-01T09:17:50.001Z</time></trkpt><trkpt lat="41.11040373278865" lon="9.463876930100872"><ele>12.600000000000001</ele><time>2026-05-01T09:17:51.001Z</time></trkpt><trkpt lat="41.1103048084529" lon="9.463921845682615"><ele>14.4</ele><time>2026-05-01T09:17:52.001Z</time></trkpt><trkpt lat="41.110209785015314" lon="9.463941007681113"><ele>16.2</ele><time>2026-05-01T09:17:53.001Z</time></trkpt><trkpt lat="41.11013887509579" lon="9.46397167304085"><ele>18.0</ele><time>2026-05-01T09:17:54.001Z</time></trkpt><trkpt lat="41.11005170890873" lon="9.4640093685292"><ele>18.0</ele><time>2026-05-01T09:17:56.001Z</time></trkpt><trkpt lat="41.11006911279489" lon="9.46427687094435"><ele>18.0</ele><time>2026-05-01T09:17:58.001Z</time></trkpt><trkpt lat="41.11010040179382" lon="9.464381633858507"><ele>18.0</ele><time>2026-05-01T09:17:59.001Z</time></trkpt><trkpt lat="41.11013085093977" lon="9.46448517621225"><ele>18.0</ele><time>2026-05-01T09:18:00.001Z</time></trkpt><trkpt lat="41.11016819589179" lon="9.464596053505927"><ele>17.0</ele><time>2026-05-01T09:18:02.001Z</time></trkpt><trkpt lat="41.11019083369183" lon="9.464687326371015"><ele>16.0</ele><time>2026-05-01T09:18:04.001Z</time></trkpt><trkpt lat="41.11010558968122" lon="9.46483241970067"><ele>15.0</ele><time>2026-05-01T09:18:06.001Z</time></trkpt><trkpt lat="41.11005648985227" lon="9.464927254808458"><ele>14.0</ele><time>2026-05-01T09:18:07.001Z</time></trkpt><trkpt lat="41.10999639560098" lon="9.46501564162334"><ele>13.0</ele><time>2026-05-01T09:18:08.001Z</time></trkpt><trkpt lat="41.10992545856659" lon="9.46508115189861"><ele>16.2</ele><time>2026-05-01T09:18:09.001Z</time></trkpt><trkpt lat="41.10983838640668" lon="9.465127959717492"><ele>19.4</ele><time>2026-05-01T09:18:10.001Z</time></trkpt><trkpt lat="41.1097570537303" lon="9.465171888623232"><ele>22.599999999999998</ele><time>2026-05-01T09:18:11.001Z</time></trkpt><trkpt lat="41.10967452244334" lon="9.465221678174213"><ele>25.8</ele><time>2026-05-01T09:18:12.001Z</time></trkpt><trkpt lat="41.10960420362663" lon="9.465292082668087"><ele>29.0</ele><time>2026-05-01T09:18:13.001Z</time></trkpt><trkpt lat="41.10952192701035" lon="9.465340749688504"><ele>29.0</ele><time>2026-05-01T09:18:14.001Z</time></trkpt><trkpt lat="41.10945102108394" lon="9.465399545744285"><ele>29.0</ele><time>2026-05-01T09:18:15.001Z</time></trkpt><trkpt lat="41.10937085878781" lon="9.465460370726044"><ele>29.0</ele><time>2026-05-01T09:18:16.001Z</time></trkpt><trkpt lat="41.10928677584202" lon="9.465514797161106"><ele>29.0</ele><time>2026-05-01T09:18:17.001Z</time></trkpt><trkpt lat="41.10919119027831" lon="9.465554189659619"><ele>29.0</ele><time>2026-05-01T09:18:18.001Z</time></trkpt><trkpt lat="41.10909677853093" lon="9.465606733626752"><ele>27.2</ele><time>2026-05-01T09:18:19.001Z</time></trkpt><trkpt lat="41.10900162251518" lon="9.46564046318303"><ele>25.4</ele><time>2026-05-01T09:18:20.001Z</time></trkpt><trkpt lat="41.108898755619094" lon="9.465684845335426"><ele>23.6</ele><time>2026-05-01T09:18:21.001Z</time></trkpt><trkpt lat="41.10879620989082" lon="9.465710794839765"><ele>21.8</ele><time>2026-05-01T09:18:22.001Z</time></trkpt><trkpt lat="41.1086887884268" lon="9.465691474802865"><ele>20.0</ele><time>2026-05-01T09:18:23.001Z</time></trkpt><trkpt lat="41.108597632790016" lon="9.465648957192775"><ele>20.0</ele><time>2026-05-01T09:18:24.001Z</time></trkpt><trkpt lat="41.10849342431731" lon="9.465606757311281"><ele>20.0</ele><time>2026-05-01T09:18:25.001Z</time></trkpt><trkpt lat="41.1083888386975" lon="9.465575846205127"><ele>20.0</ele><time>2026-05-01T09:18:26.001Z</time></trkpt><trkpt lat="41.10828989492691" lon="9.465576156414372"><ele>20.0</ele><time>2026-05-01T09:18:27.001Z</time></trkpt><trkpt lat="41.10821200519621" lon="9.465548856188697"><ele>20.0</ele><time>2026-05-01T09:18:28.001Z</time></trkpt><trkpt lat="41.10814276656116" lon="9.46553830650713"><ele>21.6</ele><time>2026-05-01T09:18:29.001Z</time></trkpt><trkpt lat="41.108060889000285" lon="9.465546998175773"><ele>23.2</ele><time>2026-05-01T09:18:31.001Z</time></trkpt><trkpt lat="41.10807848713601" lon="9.465443048091101"><ele>24.799999999999997</ele><time>2026-05-01T09:18:35.001Z</time></trkpt><trkpt lat="41.10822071228113" lon="9.465451442704563"><ele>26.4</ele><time>2026-05-01T09:18:37.001Z</time></trkpt><trkpt lat="41.10830477862098" lon="9.46538217961344"><ele>28.0</ele><time>2026-05-01T09:18:38.001Z</time></trkpt><trkpt lat="41.10838665867271" lon="9.465330008316354"><ele>30.166666666666668</ele><time>2026-05-01T09:18:39.001Z</time></trkpt><trkpt lat="41.10847779078242" lon="9.46529740365587"><ele>32.333333333333336</ele><time>2026-05-01T09:18:40.001Z</time></trkpt><trkpt lat="41.10857205579369" lon="9.465282910042117"><ele>34.5</ele><time>2026-05-01T09:18:41.001Z</time></trkpt><trkpt lat="41.10865408550076" lon="9.465276907115394"><ele>36.666666666666664</ele><time>2026-05-01T09:18:42.001Z</time></trkpt><trkpt lat="41.10875472523206" lon="9.465239539561539"><ele>38.83333333333333</ele><time>2026-05-01T09:18:44.001Z</time></trkpt><trkpt lat="41.10881249859007" lon="9.46520143625948"><ele>41.0</ele><time>2026-05-01T09:19:37.001Z</time></trkpt><trkpt lat="41.1088912112561" lon="9.465148045668816"><ele>41.0</ele><time>2026-05-01T09:19:39.001Z</time></trkpt><trkpt lat="41.108957828735385" lon="9.465077465490086"><ele>41.0</ele><time>2026-05-01T09:19:41.001Z</time></trkpt><trkpt lat="41.10904271583035" lon="9.465026904774687"><ele>41.0</ele><time>2026-05-01T09:19:43.001Z</time></trkpt><trkpt lat="41.10910378420561" lon="9.46496722162454"><ele>41.0</ele><time>2026-05-01T09:19:45.001Z</time></trkpt><trkpt lat="41.109149752968236" lon="9.464899410186474"><ele>41.0</ele><time>2026-05-01T09:19:47.001Z</time></trkpt><trkpt lat="41.10920933696717" lon="9.464854229339299"><ele>41.0</ele><time>2026-05-01T09:19:49.001Z</time></trkpt><trkpt lat="41.10923955816141" lon="9.46476559050182"><ele>41.0</ele><time>2026-05-01T09:19:51.001Z</time></trkpt><trkpt lat="41.10917605401162" lon="9.464664280159951"><ele>41.0</ele><time>2026-05-01T09:19:53.001Z</time></trkpt><trkpt lat="41.109092236076116" lon="9.46466744349455"><ele>41.0</ele><time>2026-05-01T09:19:55.001Z</time></trkpt><trkpt lat="41.109002206309405" lon="9.464692697572188"><ele>41.0</ele><time>2026-05-01T09:19:58.001Z</time></trkpt><trkpt lat="41.10892687167745" lon="9.46470847792158"><ele>41.0</ele><time>2026-05-01T09:20:00.001Z</time></trkpt><trkpt lat="41.10901283451913" lon="9.464689587896235"><ele>41.0</ele><time>2026-05-01T09:20:09.001Z</time></trkpt><trkpt lat="41.10910053882334" lon="9.464665772961128"><ele>41.0</ele><time>2026-05-01T09:20:12.001Z</time></trkpt><trkpt lat="41.1091745242742" lon="9.464665232936316"><ele>41.0</ele><time>2026-05-01T09:21:00.001Z</time></trkpt><trkpt lat="41.109245443234336" lon="9.46469337014525"><ele>41.0</ele><time>2026-05-01T09:21:02.001Z</time></trkpt><trkpt lat="41.10915522085632" lon="9.46465477043458"><ele>41.0</ele><time>2026-05-01T09:21:05.002Z</time></trkpt><trkpt lat="41.10907874442365" lon="9.464670304160897"><ele>41.0</ele><time>2026-05-01T09:21:06.002Z</time></trkpt><trkpt lat="41.1090149951198" lon="9.464688955728178"><ele>41.0</ele><time>2026-05-01T09:21:07.002Z</time></trkpt><trkpt lat="41.1089505937959" lon="9.464707798884172"><ele>41.0</ele><time>2026-05-01T09:21:08.002Z</time></trkpt><trkpt lat="41.10888555853506" lon="9.464726827596618"><ele>41.0</ele><time>2026-05-01T09:21:09.002Z</time></trkpt><trkpt lat="41.108822166573916" lon="9.464745375495683"><ele>41.0</ele><time>2026-05-01T09:21:10.002Z</time></trkpt><trkpt lat="41.108778236118155" lon="9.465217613173794"><ele>41.0</ele><time>2026-05-01T09:21:12.002Z</time></trkpt><trkpt lat="41.108662682587244" lon="9.465266551090204"><ele>41.0</ele><time>2026-05-01T09:21:14.002Z</time></trkpt><trkpt lat="41.10859676523303" lon="9.46524521695475"><ele>41.0</ele><time>2026-05-01T09:21:15.002Z</time></trkpt><trkpt lat="41.108532334257035" lon="9.465256888309609"><ele>41.0</ele><time>2026-05-01T09:21:16.002Z</time></trkpt><trkpt lat="41.10846353109101" lon="9.465269351752838"><ele>41.0</ele><time>2026-05-01T09:21:17.002Z</time></trkpt><trkpt lat="41.10839296149586" lon="9.465289904382708"><ele>41.0</ele><time>2026-05-01T09:21:18.002Z</time></trkpt><trkpt lat="41.10831868997287" lon="9.46532622615473"><ele>41.0</ele><time>2026-05-01T09:21:19.002Z</time></trkpt><trkpt lat="41.108255299212324" lon="9.465376202925263"><ele>41.0</ele><time>2026-05-01T09:21:20.002Z</time></trkpt><trkpt lat="41.10818482497342" lon="9.465415543987703"><ele>41.0</ele><time>2026-05-01T09:21:21.002Z</time></trkpt><trkpt lat="41.10811676016576" lon="9.465422176419398"><ele>41.0</ele><time>2026-05-01T09:21:22.002Z</time></trkpt><trkpt lat="41.10805163832069" lon="9.46545506573598"><ele>41.0</ele><time>2026-05-01T09:21:23.002Z</time></trkpt><trkpt lat="41.108001304721896" lon="9.465520574129505"><ele>41.0</ele><time>2026-05-01T09:21:25.002Z</time></trkpt><trkpt lat="41.10808419096529" lon="9.465580010522809"><ele>38.83333333333333</ele><time>2026-05-01T09:21:26.002Z</time></trkpt><trkpt lat="41.10815220446875" lon="9.465587419124772"><ele>36.666666666666664</ele><time>2026-05-01T09:21:27.002Z</time></trkpt><trkpt lat="41.10822717373203" lon="9.465585151057892"><ele>34.5</ele><time>2026-05-01T09:21:28.002Z</time></trkpt><trkpt lat="41.10831172791789" lon="9.465595444674799"><ele>32.333333333333336</ele><time>2026-05-01T09:21:29.002Z</time></trkpt><trkpt lat="41.108405714627146" lon="9.465616765243574"><ele>30.166666666666668</ele><time>2026-05-01T09:21:30.002Z</time></trkpt><trkpt lat="41.10850898379343" lon="9.46565270843047"><ele>28.0</ele><time>2026-05-01T09:21:31.002Z</time></trkpt><trkpt lat="41.10861721189326" lon="9.465700171019696"><ele>26.4</ele><time>2026-05-01T09:21:32.002Z</time></trkpt><trkpt lat="41.10872432898007" lon="9.465739829253865"><ele>24.799999999999997</ele><time>2026-05-01T09:21:33.002Z</time></trkpt><trkpt lat="41.108834798413014" lon="9.465737428188433"><ele>23.2</ele><time>2026-05-01T09:21:34.001Z</time></trkpt><trkpt lat="41.108943368500334" lon="9.465707948290918"><ele>21.6</ele><time>2026-05-01T09:21:35.001Z</time></trkpt><trkpt lat="41.10903522153255" lon="9.465650964262938"><ele>20.0</ele><time>2026-05-01T09:21:36.001Z</time></trkpt><trkpt lat="41.10913041020926" lon="9.465606791719935"><ele>19.2</ele><time>2026-05-01T09:21:37.001Z</time></trkpt><trkpt lat="41.109229776763506" lon="9.465572989206908"><ele>18.4</ele><time>2026-05-01T09:21:38.001Z</time></trkpt><trkpt lat="41.10932673828531" lon="9.465543881312367"><ele>17.6</ele><time>2026-05-01T09:21:39.001Z</time></trkpt><trkpt lat="41.1094190439186" lon="9.46549606248811"><ele>16.8</ele><time>2026-05-01T09:21:40.001Z</time></trkpt><trkpt lat="41.10950174971273" lon="9.46542597131177"><ele>16.0</ele><time>2026-05-01T09:21:41.001Z</time></trkpt><trkpt lat="41.109573331111385" lon="9.465338445002473"><ele>15.4</ele><time>2026-05-01T09:21:42.001Z</time></trkpt><trkpt lat="41.10966232068686" lon="9.465280518713366"><ele>14.8</ele><time>2026-05-01T09:21:43.001Z</time></trkpt><trkpt lat="41.10975498652644" lon="9.465220869932443"><ele>14.200000000000001</ele><time>2026-05-01T09:21:44.001Z</time></trkpt><trkpt lat="41.10984715048238" lon="9.465147874294246"><ele>13.600000000000001</ele><time>2026-05-01T09:21:45.001Z</time></trkpt><trkpt lat="41.10994071643761" lon="9.465103526161013"><ele>13.0</ele><time>2026-05-01T09:21:46.001Z</time></trkpt><trkpt lat="41.11002684102917" lon="9.465033852997994"><ele>12.999999999999998</ele><time>2026-05-01T09:21:47.001Z</time></trkpt><trkpt lat="41.11009515100403" lon="9.464924722779346"><ele>13.0</ele><time>2026-05-01T09:21:48.001Z</time></trkpt><trkpt lat="41.110141597894405" lon="9.464819715448504"><ele>13.0</ele><time>2026-05-01T09:21:49.001Z</time></trkpt><trkpt lat="41.11017659108869" lon="9.464722146456442"><ele>13.0</ele><time>2026-05-01T09:21:51.001Z</time></trkpt><trkpt lat="41.11022428216134" lon="9.464642216577602"><ele>12.999999999999998</ele><time>2026-05-01T09:22:09.001Z</time></trkpt><trkpt lat="41.110177911137065" lon="9.464553143269347"><ele>13.0</ele><time>2026-05-01T09:22:10.001Z</time></trkpt><trkpt lat="41.11015524659015" lon="9.46444657854225"><ele>14.0</ele><time>2026-05-01T09:22:11.001Z</time></trkpt><trkpt lat="41.11011881408251" lon="9.46432268959777"><ele>15.0</ele><time>2026-05-01T09:22:12.001Z</time></trkpt><trkpt lat="41.110082722300966" lon="9.464235835446573"><ele>16.0</ele><time>2026-05-01T09:22:13.001Z</time></trkpt><trkpt lat="41.11004711021321" lon="9.464101887519709"><ele>17.0</ele><time>2026-05-01T09:22:15.001Z</time></trkpt><trkpt lat="41.10989710145486" lon="9.464087360100581"><ele>18.0</ele><time>2026-05-01T09:22:18.001Z</time></trkpt><trkpt lat="41.10981332765356" lon="9.464111713480216"><ele>20.2</ele><time>2026-05-01T09:22:20.001Z</time></trkpt><trkpt lat="41.10968873682485" lon="9.464165177394788"><ele>22.4</ele><time>2026-05-01T09:22:22.001Z</time></trkpt><trkpt lat="41.10961510251922" lon="9.46421942756787"><ele>24.599999999999998</ele><time>2026-05-01T09:22:23.001Z</time></trkpt><trkpt lat="41.10952237655497" lon="9.46425113499428"><ele>26.8</ele><time>2026-05-01T09:22:24.001Z</time></trkpt><trkpt lat="41.10942107949428" lon="9.464288636077944"><ele>29.0</ele><time>2026-05-01T09:22:25.001Z</time></trkpt><trkpt lat="41.10931834969225" lon="9.464322265575559"><ele>29.0</ele><time>2026-05-01T09:22:26.001Z</time></trkpt><trkpt lat="41.10920364731483" lon="9.464349395843508"><ele>29.0</ele><time>2026-05-01T09:22:27.001Z</time></trkpt><trkpt lat="41.109078184796246" lon="9.464360535432453"><ele>29.0</ele><time>2026-05-01T09:22:28.001Z</time></trkpt><trkpt lat="41.10894283109816" lon="9.464352522451186"><ele>29.0</ele><time>2026-05-01T09:22:29.001Z</time></trkpt><trkpt lat="41.108815736929735" lon="9.464327416581755"><ele>31.0</ele><time>2026-05-01T09:22:30.001Z</time></trkpt><trkpt lat="41.10872277783262" lon="9.464267638589055"><ele>33.0</ele><time>2026-05-01T09:22:31.001Z</time></trkpt><trkpt lat="41.10864256214848" lon="9.464180337867539"><ele>35.0</ele><time>2026-05-01T09:22:32.001Z</time></trkpt><trkpt lat="41.10854975701603" lon="9.464106044038912"><ele>37.0</ele><time>2026-05-01T09:22:33.001Z</time></trkpt><trkpt lat="41.1084945102612" lon="9.463988438191944"><ele>39.0</ele><time>2026-05-01T09:22:34.001Z</time></trkpt><trkpt lat="41.10845765108924" lon="9.463859590345859"><ele>40.0</ele><time>2026-05-01T09:22:35.001Z</time></trkpt><trkpt lat="41.10845596836089" lon="9.463715687575831"><ele>41.0</ele><time>2026-05-01T09:22:36.001Z</time></trkpt><trkpt lat="41.10849517054131" lon="9.463568195580388"><ele>42.0</ele><time>2026-05-01T09:22:37.001Z</time></trkpt><trkpt lat="41.10856500692278" lon="9.46342902648929"><ele>43.0</ele><time>2026-05-01T09:22:38.001Z</time></trkpt><trkpt lat="41.10866055702572" lon="9.463312048533624"><ele>43.0</ele><time>2026-05-01T09:22:39.001Z</time></trkpt><trkpt lat="41.10877279845078" lon="9.463206235455132"><ele>43.0</ele><time>2026-05-01T09:22:40.001Z</time></trkpt><trkpt lat="41.108878403703805" lon="9.463099824508697"><ele>43.0</ele><time>2026-05-01T09:22:41.001Z</time></trkpt><trkpt lat="41.10898022426096" lon="9.46299249586579"><ele>43.0</ele><time>2026-05-01T09:22:42.001Z</time></trkpt><trkpt lat="41.109076547413686" lon="9.462880704436616"><ele>42.75</ele><time>2026-05-01T09:22:43.001Z</time></trkpt><trkpt lat="41.10916280744822" lon="9.462763904163296"><ele>42.5</ele><time>2026-05-01T09:22:44.001Z</time></trkpt><trkpt lat="41.10922247181308" lon="9.462629890462873"><ele>42.25</ele><time>2026-05-01T09:22:45.001Z</time></trkpt><trkpt lat="41.109266931893536" lon="9.462479451631973"><ele>42.0</ele><time>2026-05-01T09:22:46.001Z</time></trkpt><trkpt lat="41.10929199821122" lon="9.462319659076702"><ele>42.0</ele><time>2026-05-01T09:22:47.001Z</time></trkpt><trkpt lat="41.10928898918243" lon="9.462166845847667"><ele>42.0</ele><time>2026-05-01T09:22:48.001Z</time></trkpt><trkpt lat="41.10926032969139" lon="9.46201551318699"><ele>42.0</ele><time>2026-05-01T09:22:49.001Z</time></trkpt><trkpt lat="41.10919745469171" lon="9.461873279103779"><ele>42.0</ele><time>2026-05-01T09:22:50.001Z</time></trkpt><trkpt lat="41.10912333811164" lon="9.461731200950261"><ele>44.0</ele><time>2026-05-01T09:22:51.001Z</time></trkpt><trkpt lat="41.10903924135741" lon="9.461588933000952"><ele>46.0</ele><time>2026-05-01T09:22:52.001Z</time></trkpt><trkpt lat="41.10894980374308" lon="9.461434922103575"><ele>48.0</ele><time>2026-05-01T09:22:53.001Z</time></trkpt><trkpt lat="41.108856886464785" lon="9.461270372508382"><ele>50.0</ele><time>2026-05-01T09:22:54.001Z</time></trkpt><trkpt lat="41.10875994832989" lon="9.461094886277085"><ele>50.0</ele><time>2026-05-01T09:22:55.001Z</time></trkpt><trkpt lat="41.1086586313879" lon="9.460918351463128"><ele>50.0</ele><time>2026-05-01T09:22:56.001Z</time></trkpt><trkpt lat="41.108559396085305" lon="9.460738070693495"><ele>50.0</ele><time>2026-05-01T09:22:57.001Z</time></trkpt><trkpt lat="41.108462978001036" lon="9.460563580044848"><ele>50.0</ele><time>2026-05-01T09:22:58.001Z</time></trkpt><trkpt lat="41.10836922257119" lon="9.460399397127802"><ele>50.0</ele><time>2026-05-01T09:22:59.001Z</time></trkpt><trkpt lat="41.108272675347905" lon="9.460232108645888"><ele>50.0</ele><time>2026-05-01T09:23:00.001Z</time></trkpt><trkpt lat="41.10817559560067" lon="9.460063542865804"><ele>50.75</ele><time>2026-05-01T09:23:01.001Z</time></trkpt><trkpt lat="41.108081535830294" lon="9.459900144029437"><ele>51.5</ele><time>2026-05-01T09:23:02.001Z</time></trkpt><trkpt lat="41.107994125613835" lon="9.459745306071966"><ele>52.25</ele><time>2026-05-01T09:23:03.001Z</time></trkpt><trkpt lat="41.10790563726908" lon="9.459591444372517"><ele>53.0</ele><time>2026-05-01T09:23:04.001Z</time></trkpt><trkpt lat="41.10781815535647" lon="9.459433998473834"><ele>51.0</ele><time>2026-05-01T09:23:05.001Z</time></trkpt><trkpt lat="41.10772984487139" lon="9.459276033393328"><ele>49.0</ele><time>2026-05-01T09:23:06.001Z</time></trkpt><trkpt lat="41.10764165740412" lon="9.459114126861492"><ele>47.0</ele><time>2026-05-01T09:23:07.001Z</time></trkpt><trkpt lat="41.10755023383101" lon="9.458955579539555"><ele>45.0</ele><time>2026-05-01T09:23:08.001Z</time></trkpt><trkpt lat="41.10744667795093" lon="9.458807626024955"><ele>44.0</ele><time>2026-05-01T09:23:09.001Z</time></trkpt><trkpt lat="41.107329634487506" lon="9.45867496627554"><ele>43.0</ele><time>2026-05-01T09:23:10.001Z</time></trkpt><trkpt lat="41.10722015709217" lon="9.458528588813476"><ele>42.0</ele><time>2026-05-01T09:23:11.001Z</time></trkpt><trkpt lat="41.1070984027789" lon="9.458399215411902"><ele>42.0</ele><time>2026-05-01T09:23:12.001Z</time></trkpt><trkpt lat="41.106967087441895" lon="9.458287031449279"><ele>42.0</ele><time>2026-05-01T09:23:13.001Z</time></trkpt><trkpt lat="41.10685074594443" lon="9.458151406371144"><ele>42.0</ele><time>2026-05-01T09:23:14.001Z</time></trkpt><trkpt lat="41.10674067360387" lon="9.458014362459213"><ele>42.333333333333336</ele><time>2026-05-01T09:23:15.001Z</time></trkpt><trkpt lat="41.10663781268587" lon="9.457871936926493"><ele>42.66666666666667</ele><time>2026-05-01T09:23:16.001Z</time></trkpt><trkpt lat="41.106539835040905" lon="9.457715954082817"><ele>43.0</ele><time>2026-05-01T09:23:17.001Z</time></trkpt><trkpt lat="41.10644175680277" lon="9.457544858803786"><ele>43.0</ele><time>2026-05-01T09:23:18.001Z</time></trkpt><trkpt lat="41.10634675601781" lon="9.457372050560746"><ele>43.0</ele><time>2026-05-01T09:23:19.001Z</time></trkpt><trkpt lat="41.106247850292604" lon="9.457201987566407"><ele>43.0</ele><time>2026-05-01T09:23:20.001Z</time></trkpt><trkpt lat="41.106138048268235" lon="9.45705163751314"><ele>41.0</ele><time>2026-05-01T09:23:21.001Z</time></trkpt><trkpt lat="41.106037130162015" lon="9.45690321578521"><ele>39.0</ele><time>2026-05-01T09:23:22.001Z</time></trkpt><trkpt lat="41.105907929853366" lon="9.456795238267272"><ele>37.0</ele><time>2026-05-01T09:23:23.001Z</time></trkpt><trkpt lat="41.105776572608484" lon="9.45671429813817"><ele>35.0</ele><time>2026-05-01T09:23:24.001Z</time></trkpt><trkpt lat="41.10564024736138" lon="9.456683283007694"><ele>34.25</ele><time>2026-05-01T09:23:25.001Z</time></trkpt><trkpt lat="41.10551792074086" lon="9.456626749763968"><ele>33.5</ele><time>2026-05-01T09:23:26.001Z</time></trkpt><trkpt lat="41.10537278075467" lon="9.456632604954546"><ele>32.75</ele><time>2026-05-01T09:23:27.001Z</time></trkpt><trkpt lat="41.10523210510273" lon="9.456649843186801"><ele>32.0</ele><time>2026-05-01T09:23:28.001Z</time></trkpt><trkpt lat="41.10509879756884" lon="9.456672037658162"><ele>32.0</ele><time>2026-05-01T09:23:29.001Z</time></trkpt><trkpt lat="41.10496140172763" lon="9.456694912783098"><ele>32.0</ele><time>2026-05-01T09:23:30.001Z</time></trkpt><trkpt lat="41.10483481265876" lon="9.456716039084567"><ele>32.0</ele><time>2026-05-01T09:23:31.001Z</time></trkpt><trkpt lat="41.10459581369669" lon="9.456776476669399"><ele>30.666666666666664</ele><time>2026-05-01T09:23:32.002Z</time></trkpt><trkpt lat="41.10443879850415" lon="9.456793934756233"><ele>29.333333333333336</ele><time>2026-05-01T09:23:33.002Z</time></trkpt><trkpt lat="41.10428751521566" lon="9.456821017404982"><ele>28.0</ele><time>2026-05-01T09:23:34.002Z</time></trkpt><trkpt lat="41.104146452908196" lon="9.456845876750819"><ele>26.5</ele><time>2026-05-01T09:23:35.002Z</time></trkpt><trkpt lat="41.10400894302651" lon="9.456852409245746"><ele>25.0</ele><time>2026-05-01T09:23:36.002Z</time></trkpt><trkpt lat="41.10387451651666" lon="9.456873479054998"><ele>23.5</ele><time>2026-05-01T09:23:37.002Z</time></trkpt><trkpt lat="41.10374518875209" lon="9.456891922355343"><ele>22.0</ele><time>2026-05-01T09:23:38.002Z</time></trkpt><trkpt lat="41.10361959253721" lon="9.456903240555834"><ele>22.0</ele><time>2026-05-01T09:23:39.002Z</time></trkpt><trkpt lat="41.10349768780646" lon="9.456895217403318"><ele>22.0</ele><time>2026-05-01T09:23:40Z</time></trkpt><trkpt lat="41.103381267646945" lon="9.4568676007112"><ele>22.0</ele><time>2026-05-01T09:23:41Z</time></trkpt><trkpt lat="41.10326995366612" lon="9.456820761697346"><ele>22.0</ele><time>2026-05-01T09:23:42Z</time></trkpt><trkpt lat="41.103148534943145" lon="9.456747713995494"><ele>21.0</ele><time>2026-05-01T09:23:43Z</time></trkpt><trkpt lat="41.10302799052691" lon="9.456654201740893"><ele>20.0</ele><time>2026-05-01T09:23:44Z</time></trkpt><trkpt lat="41.1028859889049" lon="9.456533993965616"><ele>19.0</ele><time>2026-05-01T09:23:45Z</time></trkpt><trkpt lat="41.102729792679966" lon="9.456414967954563"><ele>19.0</ele><time>2026-05-01T09:23:46Z</time></trkpt><trkpt lat="41.10258811178637" lon="9.456293018502612"><ele>19.0</ele><time>2026-05-01T09:23:47Z</time></trkpt><trkpt lat="41.10245681768283" lon="9.456180241187788"><ele>19.0</ele><time>2026-05-01T09:23:48Z</time></trkpt><trkpt lat="41.102328423751324" lon="9.456084215002365"><ele>17.5</ele><time>2026-05-01T09:23:49Z</time></trkpt><trkpt lat="41.10221592560105" lon="9.45596547869258"><ele>16.0</ele><time>2026-05-01T09:23:50Z</time></trkpt><trkpt lat="41.10208828522117" lon="9.455891125991823"><ele>14.5</ele><time>2026-05-01T09:23:51Z</time></trkpt><trkpt lat="41.10194472287511" lon="9.455809413376604"><ele>13.0</ele><time>2026-05-01T09:23:52Z</time></trkpt><trkpt lat="41.10177328440896" lon="9.455759726622208"><ele>13.5</ele><time>2026-05-01T09:23:53Z</time></trkpt><trkpt lat="41.101527922986214" lon="9.455746903105942"><ele>14.0</ele><time>2026-05-01T09:23:54Z</time></trkpt><trkpt lat="41.101271244898776" lon="9.455714255926736"><ele>14.0</ele><time>2026-05-01T09:23:55Z</time></trkpt><trkpt lat="41.10099745569634" lon="9.455682547092255"><ele>14.0</ele><time>2026-05-01T09:23:56Z</time></trkpt><trkpt lat="41.100762384930825" lon="9.455655377718275"><ele>14.0</ele><time>2026-05-01T09:23:57Z</time></trkpt><trkpt lat="41.10054687981629" lon="9.455643450536504"><ele>14.0</ele><time>2026-05-01T09:23:58Z</time></trkpt><trkpt lat="41.100350165546594" lon="9.45562019666177"><ele>14.0</ele><time>2026-05-01T09:23:59Z</time></trkpt><trkpt lat="41.1001798548515" lon="9.455607171217"><ele>14.0</ele><time>2026-05-01T09:24:00Z</time></trkpt><trkpt lat="41.10002572129192" lon="9.45555164540431"><ele>14.0</ele><time>2026-05-01T09:24:01Z</time></trkpt><trkpt lat="41.0998796676125" lon="9.455480250706433"><ele>14.0</ele><time>2026-05-01T09:24:02Z</time></trkpt><trkpt lat="41.09975000115322" lon="9.455374272650502"><ele>15.333333333333334</ele><time>2026-05-01T09:24:03Z</time></trkpt><trkpt lat="41.09962408332133" lon="9.4552330920387"><ele>16.666666666666668</ele><time>2026-05-01T09:24:04Z</time></trkpt><trkpt lat="41.099516067747" lon="9.455091651307807"><ele>18.0</ele><time>2026-05-01T09:24:05Z</time></trkpt><trkpt lat="41.09940749349185" lon="9.454919583596606"><ele>18.0</ele><time>2026-05-01T09:24:06Z</time></trkpt><trkpt lat="41.09929627523815" lon="9.454741586583513"><ele>18.0</ele><time>2026-05-01T09:24:07Z</time></trkpt><trkpt lat="41.099185758951705" lon="9.45456373231123"><ele>18.0</ele><time>2026-05-01T09:24:08Z</time></trkpt><trkpt lat="41.09907851395076" lon="9.454403873971383"><ele>17.666666666666668</ele><time>2026-05-01T09:24:09Z</time></trkpt><trkpt lat="41.098975403765465" lon="9.454252904242777"><ele>17.333333333333336</ele><time>2026-05-01T09:24:10Z</time></trkpt><trkpt lat="41.098860503693246" lon="9.454101280632699"><ele>17.0</ele><time>2026-05-01T09:24:11Z</time></trkpt><trkpt lat="41.09872227039686" lon="9.45396807083359"><ele>17.0</ele><time>2026-05-01T09:24:12Z</time></trkpt><trkpt lat="41.09856777728884" lon="9.453873144702472"><ele>17.0</ele><time>2026-05-01T09:24:13Z</time></trkpt><trkpt lat="41.09841120273546" lon="9.453808483701076"><ele>17.0</ele><time>2026-05-01T09:24:14Z</time></trkpt><trkpt lat="41.09824875987735" lon="9.453755071461273"><ele>16.333333333333336</ele><time>2026-05-01T09:24:15Z</time></trkpt><trkpt lat="41.09808688831183" lon="9.453705579075695"><ele>15.666666666666668</ele><time>2026-05-01T09:24:16Z</time></trkpt><trkpt lat="41.09792234815095" lon="9.453661773877988"><ele>15.0</ele><time>2026-05-01T09:24:17Z</time></trkpt><trkpt lat="41.09776503396287" lon="9.45358608733136"><ele>15.0</ele><time>2026-05-01T09:24:18.001Z</time></trkpt><trkpt lat="41.09759886243998" lon="9.453545850270034"><ele>15.0</ele><time>2026-05-01T09:24:19.001Z</time></trkpt><trkpt lat="41.09743788709153" lon="9.453478577110694"><ele>15.0</ele><time>2026-05-01T09:24:20.001Z</time></trkpt><trkpt lat="41.09727800550985" lon="9.453415659947618"><ele>15.666666666666668</ele><time>2026-05-01T09:24:21.001Z</time></trkpt><trkpt lat="41.09711944148496" lon="9.453364127306628"><ele>16.333333333333336</ele><time>2026-05-01T09:24:22.001Z</time></trkpt><trkpt lat="41.096960811254625" lon="9.453313351074954"><ele>17.0</ele><time>2026-05-01T09:24:23.001Z</time></trkpt><trkpt lat="41.09679959282071" lon="9.453260858971733"><ele>17.0</ele><time>2026-05-01T09:24:24.001Z</time></trkpt><trkpt lat="41.09663563130326" lon="9.453205930014331"><ele>17.0</ele><time>2026-05-01T09:24:25.001Z</time></trkpt><trkpt lat="41.096474851186166" lon="9.453150400295272"><ele>17.0</ele><time>2026-05-01T09:24:26.001Z</time></trkpt><trkpt lat="41.096320045089485" lon="9.453097030811582"><ele>17.333333333333336</ele><time>2026-05-01T09:24:27.001Z</time></trkpt><trkpt lat="41.09616648072513" lon="9.45304188553329"><ele>17.666666666666668</ele><time>2026-05-01T09:24:28.001Z</time></trkpt><trkpt lat="41.09601313143323" lon="9.452984519866439"><ele>18.0</ele><time>2026-05-01T09:24:29.001Z</time></trkpt><trkpt lat="41.095859198365545" lon="9.452922294870994"><ele>17.333333333333332</ele><time>2026-05-01T09:24:30.001Z</time></trkpt><trkpt lat="41.095703965924145" lon="9.452859073239743"><ele>16.666666666666664</ele><time>2026-05-01T09:24:31.001Z</time></trkpt><trkpt lat="41.095544944603304" lon="9.452794106715485"><ele>16.0</ele><time>2026-05-01T09:24:32.001Z</time></trkpt><trkpt lat="41.09538133860616" lon="9.452720964280624"><ele>16.0</ele><time>2026-05-01T09:24:33.001Z</time></trkpt><trkpt lat="41.09522281080206" lon="9.452643686444636"><ele>16.0</ele><time>2026-05-01T09:24:34.001Z</time></trkpt><trkpt lat="41.09505738627404" lon="9.45256827964535"><ele>16.0</ele><time>2026-05-01T09:24:35.001Z</time></trkpt><trkpt lat="41.09489036462974" lon="9.452495617913081"><ele>17.333333333333332</ele><time>2026-05-01T09:24:36.001Z</time></trkpt><trkpt lat="41.094718399213114" lon="9.452423396056858"><ele>18.666666666666668</ele><time>2026-05-01T09:24:37.001Z</time></trkpt><trkpt lat="41.09454895031898" lon="9.452353718930823"><ele>20.0</ele><time>2026-05-01T09:24:38.001Z</time></trkpt><trkpt lat="41.09438296621075" lon="9.452278785543864"><ele>20.0</ele><time>2026-05-01T09:24:39.001Z</time></trkpt><trkpt lat="41.09422191149526" lon="9.452204518747472"><ele>20.0</ele><time>2026-05-01T09:24:40.001Z</time></trkpt><trkpt lat="41.0940664000511" lon="9.452133011523308"><ele>20.0</ele><time>2026-05-01T09:24:41.001Z</time></trkpt><trkpt lat="41.09391437965673" lon="9.452061537040521"><ele>18.666666666666668</ele><time>2026-05-01T09:24:42.001Z</time></trkpt><trkpt lat="41.09376656433216" lon="9.45199490210117"><ele>17.333333333333332</ele><time>2026-05-01T09:24:43.001Z</time></trkpt><trkpt lat="41.09361685882336" lon="9.451925223535248"><ele>16.0</ele><time>2026-05-01T09:24:44.001Z</time></trkpt><trkpt lat="41.093463260067324" lon="9.451866424047033"><ele>16.0</ele><time>2026-05-01T09:24:45.001Z</time></trkpt><trkpt lat="41.09331178369424" lon="9.451833420749557"><ele>16.0</ele><time>2026-05-01T09:24:46.001Z</time></trkpt><trkpt lat="41.093154297276946" lon="9.451818931701403"><ele>16.0</ele><time>2026-05-01T09:24:47.001Z</time></trkpt><trkpt lat="41.093004640111594" lon="9.45183575062672"><ele>16.333333333333332</ele><time>2026-05-01T09:24:48.001Z</time></trkpt><trkpt lat="41.09285157855951" lon="9.45188573163474"><ele>16.666666666666668</ele><time>2026-05-01T09:24:49.001Z</time></trkpt><trkpt lat="41.09269688303613" lon="9.451958959853267"><ele>17.0</ele><time>2026-05-01T09:24:50.001Z</time></trkpt><trkpt lat="41.09254391593095" lon="9.45204900961518"><ele>18.666666666666668</ele><time>2026-05-01T09:24:51.001Z</time></trkpt><trkpt lat="41.092393742940644" lon="9.452141365878992"><ele>20.333333333333332</ele><time>2026-05-01T09:24:52.001Z</time></trkpt><trkpt lat="41.09224051431379" lon="9.452239048338974"><ele>22.0</ele><time>2026-05-01T09:24:53.001Z</time></trkpt><trkpt lat="41.092093093390105" lon="9.452348613550194"><ele>22.0</ele><time>2026-05-01T09:24:54.001Z</time></trkpt><trkpt lat="41.09195008356792" lon="9.452477869891869"><ele>22.0</ele><time>2026-05-01T09:24:55.001Z</time></trkpt><trkpt lat="41.09181302659088" lon="9.452620631383422"><ele>22.0</ele><time>2026-05-01T09:24:56.001Z</time></trkpt><trkpt lat="41.091676805038006" lon="9.452765600181865"><ele>21.666666666666664</ele><time>2026-05-01T09:24:57.001Z</time></trkpt><trkpt lat="41.091530169087214" lon="9.452878330772988"><ele>21.333333333333332</ele><time>2026-05-01T09:24:58.001Z</time></trkpt><trkpt lat="41.09140589461489" lon="9.453000620373231"><ele>21.0</ele><time>2026-05-01T09:24:59.001Z</time></trkpt><trkpt lat="41.091260783417184" lon="9.453054208524257"><ele>22.0</ele><time>2026-05-01T09:25:00.001Z</time></trkpt><trkpt lat="41.0911161860014" lon="9.453092158577826"><ele>23.0</ele><time>2026-05-01T09:25:01.001Z</time></trkpt><trkpt lat="41.0909697876811" lon="9.45311172084387"><ele>24.0</ele><time>2026-05-01T09:25:02.001Z</time></trkpt><trkpt lat="41.09081797172818" lon="9.45314387916318"><ele>25.0</ele><time>2026-05-01T09:25:03.001Z</time></trkpt><trkpt lat="41.09066223170412" lon="9.453150154274548"><ele>25.0</ele><time>2026-05-01T09:25:04.001Z</time></trkpt><trkpt lat="41.09050049139136" lon="9.453163684643723"><ele>25.0</ele><time>2026-05-01T09:25:05.001Z</time></trkpt><trkpt lat="41.090335416137826" lon="9.45318007181392"><ele>25.0</ele><time>2026-05-01T09:25:06.001Z</time></trkpt><trkpt lat="41.09016123093711" lon="9.453197107356802"><ele>25.0</ele><time>2026-05-01T09:25:07.001Z</time></trkpt><trkpt lat="41.08999006337301" lon="9.453214008902554"><ele>25.0</ele><time>2026-05-01T09:25:08.001Z</time></trkpt><trkpt lat="41.08983098022336" lon="9.453228021578347"><ele>25.0</ele><time>2026-05-01T09:25:09.001Z</time></trkpt><trkpt lat="41.089677527443456" lon="9.453250105944049"><ele>23.333333333333336</ele><time>2026-05-01T09:25:10.001Z</time></trkpt><trkpt lat="41.08952723730145" lon="9.453298352579788"><ele>21.666666666666668</ele><time>2026-05-01T09:25:11.001Z</time></trkpt><trkpt lat="41.08938081937694" lon="9.453375111666402"><ele>20.0</ele><time>2026-05-01T09:25:12.001Z</time></trkpt><trkpt lat="41.089237277426385" lon="9.453474062895483"><ele>18.333333333333336</ele><time>2026-05-01T09:25:13.001Z</time></trkpt><trkpt lat="41.08908433239426" lon="9.453554018649086"><ele>16.666666666666668</ele><time>2026-05-01T09:25:14.001Z</time></trkpt><trkpt lat="41.08893493245175" lon="9.45364307106806"><ele>15.0</ele><time>2026-05-01T09:25:15.001Z</time></trkpt><trkpt lat="41.088781731049224" lon="9.453737513961862"><ele>16.333333333333332</ele><time>2026-05-01T09:25:16.001Z</time></trkpt><trkpt lat="41.08863926579941" lon="9.453846580413135"><ele>17.666666666666664</ele><time>2026-05-01T09:25:17.001Z</time></trkpt><trkpt lat="41.088495160303204" lon="9.453925513863961"><ele>19.0</ele><time>2026-05-01T09:25:18.001Z</time></trkpt><trkpt lat="41.08834067532729" lon="9.453961137097703"><ele>19.666666666666664</ele><time>2026-05-01T09:25:19.001Z</time></trkpt><trkpt lat="41.08818411971448" lon="9.45397611731006"><ele>20.333333333333332</ele><time>2026-05-01T09:25:20.001Z</time></trkpt><trkpt lat="41.088028159660354" lon="9.453962105668491"><ele>21.0</ele><time>2026-05-01T09:25:21.001Z</time></trkpt><trkpt lat="41.08787771286133" lon="9.453914119551268"><ele>21.0</ele><time>2026-05-01T09:25:22.001Z</time></trkpt><trkpt lat="41.08773167374598" lon="9.453837009188765"><ele>21.0</ele><time>2026-05-01T09:25:23.001Z</time></trkpt><trkpt lat="41.087583200081674" lon="9.453769791834445"><ele>21.0</ele><time>2026-05-01T09:25:24.001Z</time></trkpt><trkpt lat="41.08744249481661" lon="9.453669103161722"><ele>21.0</ele><time>2026-05-01T09:25:25.001Z</time></trkpt><trkpt lat="41.087300223453234" lon="9.453572125951219"><ele>21.0</ele><time>2026-05-01T09:25:26.001Z</time></trkpt><trkpt lat="41.087153395279046" lon="9.453479309160954"><ele>21.0</ele><time>2026-05-01T09:25:27.001Z</time></trkpt><trkpt lat="41.08701165355466" lon="9.45339871239029"><ele>21.0</ele><time>2026-05-01T09:25:28.001Z</time></trkpt><trkpt lat="41.0868721277384" lon="9.453318719135567"><ele>21.0</ele><time>2026-05-01T09:25:29.001Z</time></trkpt><trkpt lat="41.08673628914441" lon="9.453250954247336"><ele>21.0</ele><time>2026-05-01T09:25:30.001Z</time></trkpt><trkpt lat="41.086594895252766" lon="9.453215378474448"><ele>21.0</ele><time>2026-05-01T09:25:31.001Z</time></trkpt><trkpt lat="41.086446874230816" lon="9.453217961298563"><ele>21.0</ele><time>2026-05-01T09:25:32.001Z</time></trkpt><trkpt lat="41.08629639823795" lon="9.453249481829738"><ele>21.0</ele><time>2026-05-01T09:25:33.001Z</time></trkpt><trkpt lat="41.08615363819487" lon="9.453313830188392"><ele>21.0</ele><time>2026-05-01T09:25:34.001Z</time></trkpt><trkpt lat="41.086016615497485" lon="9.453399929632589"><ele>21.0</ele><time>2026-05-01T09:25:35.001Z</time></trkpt><trkpt lat="41.0858917705789" lon="9.45349864865717"><ele>21.0</ele><time>2026-05-01T09:25:36.001Z</time></trkpt><trkpt lat="41.08576818412555" lon="9.453593202278649"><ele>21.0</ele><time>2026-05-01T09:25:37.001Z</time></trkpt><trkpt lat="41.085679060106706" lon="9.453744398102573"><ele>21.0</ele><time>2026-05-01T09:25:38.001Z</time></trkpt><trkpt lat="41.08560460633356" lon="9.45388297956162"><ele>20.5</ele><time>2026-05-01T09:25:39.001Z</time></trkpt><trkpt lat="41.085556485562286" lon="9.454007645252604"><ele>20.0</ele><time>2026-05-01T09:25:40.001Z</time></trkpt><trkpt lat="41.08552089635781" lon="9.454119261513275"><ele>19.5</ele><time>2026-05-01T09:25:41.001Z</time></trkpt><trkpt lat="41.08548370531321" lon="9.454215777107187"><ele>19.0</ele><time>2026-05-01T09:25:42.001Z</time></trkpt><trkpt lat="41.08543076121044" lon="9.454299106272035"><ele>18.5</ele><time>2026-05-01T09:25:43.001Z</time></trkpt><trkpt lat="41.08536215220877" lon="9.454332757425727"><ele>18.0</ele><time>2026-05-01T09:25:44.001Z</time></trkpt><trkpt lat="41.08527830092564" lon="9.45431330623343"><ele>18.0</ele><time>2026-05-01T09:25:45.001Z</time></trkpt><trkpt lat="41.08518887445533" lon="9.454247154529588"><ele>18.0</ele><time>2026-05-01T09:25:46.001Z</time></trkpt><trkpt lat="41.085106333331765" lon="9.45416342105645"><ele>18.0</ele><time>2026-05-01T09:25:47.001Z</time></trkpt><trkpt lat="41.08501367847854" lon="9.454086442528252"><ele>18.0</ele><time>2026-05-01T09:25:48.001Z</time></trkpt><trkpt lat="41.08492777891538" lon="9.454018374916695"><ele>18.0</ele><time>2026-05-01T09:25:49.001Z</time></trkpt><trkpt lat="41.08483965560713" lon="9.453952993805517"><ele>17.0</ele><time>2026-05-01T09:25:50.001Z</time></trkpt><trkpt lat="41.08475249660168" lon="9.45388656460211"><ele>16.0</ele><time>2026-05-01T09:25:51.001Z</time></trkpt><trkpt lat="41.084662040192384" lon="9.45381965716873"><ele>15.0</ele><time>2026-05-01T09:25:52.001Z</time></trkpt><trkpt lat="41.08457150709789" lon="9.453752774303059"><ele>14.0</ele><time>2026-05-01T09:25:53.001Z</time></trkpt><trkpt lat="41.08448278250408" lon="9.453682295862922"><ele>13.0</ele><time>2026-05-01T09:25:54.001Z</time></trkpt><trkpt lat="41.084393678153006" lon="9.453609651669298"><ele>13.0</ele><time>2026-05-01T09:25:55.001Z</time></trkpt><trkpt lat="41.0843040269209" lon="9.453533525103184"><ele>13.0</ele><time>2026-05-01T09:25:56.001Z</time></trkpt><trkpt lat="41.084214592546964" lon="9.453457637150736"><ele>13.0</ele><time>2026-05-01T09:25:57.001Z</time></trkpt><trkpt lat="41.08412130898446" lon="9.453378718449038"><ele>13.0</ele><time>2026-05-01T09:25:58.001Z</time></trkpt><trkpt lat="41.08402308316054" lon="9.453295648579335"><ele>13.0</ele><time>2026-05-01T09:25:59.001Z</time></trkpt><trkpt lat="41.083948095231335" lon="9.453182916862444"><ele>12.0</ele><time>2026-05-01T09:26:00.001Z</time></trkpt><trkpt lat="41.083872828227925" lon="9.453072726764502"><ele>11.0</ele><time>2026-05-01T09:26:01.001Z</time></trkpt><trkpt lat="41.08380160131811" lon="9.452953343421504"><ele>10.0</ele><time>2026-05-01T09:26:02.001Z</time></trkpt><trkpt lat="41.08371978609815" lon="9.45282866862193"><ele>9.0</ele><time>2026-05-01T09:26:03.001Z</time></trkpt><trkpt lat="41.08365333424176" lon="9.452681956235617"><ele>9.0</ele><time>2026-05-01T09:26:04.001Z</time></trkpt><trkpt lat="41.08359006808369" lon="9.452522465679769"><ele>9.0</ele><time>2026-05-01T09:26:05.001Z</time></trkpt><trkpt lat="41.08352555688148" lon="9.452337855344666"><ele>9.0</ele><time>2026-05-01T09:26:06.001Z</time></trkpt><trkpt lat="41.08345593492561" lon="9.452133010328309"><ele>8.0</ele><time>2026-05-01T09:26:07.001Z</time></trkpt><trkpt lat="41.08338263677368" lon="9.451919133707623"><ele>7.0</ele><time>2026-05-01T09:26:08.001Z</time></trkpt><trkpt lat="41.083311713168555" lon="9.451712843806959"><ele>6.0</ele><time>2026-05-01T09:26:09.001Z</time></trkpt><trkpt lat="41.08323775628172" lon="9.451493211428412"><ele>5.0</ele><time>2026-05-01T09:26:10.001Z</time></trkpt><trkpt lat="41.08316428085883" lon="9.451271017419858"><ele>4.0</ele><time>2026-05-01T09:26:11.001Z</time></trkpt><trkpt lat="41.08308708337656" lon="9.45104772142553"><ele>3.0</ele><time>2026-05-01T09:26:12.001Z</time></trkpt><trkpt lat="41.08300851215905" lon="9.45081800760444"><ele>3.0</ele><time>2026-05-01T09:26:13.001Z</time></trkpt><trkpt lat="41.08294028564481" lon="9.450602105089748"><ele>3.0</ele><time>2026-05-01T09:26:14.001Z</time></trkpt><trkpt lat="41.082875598719546" lon="9.450401180723091"><ele>3.0</ele><time>2026-05-01T09:26:15.001Z</time></trkpt><trkpt lat="41.082815453802375" lon="9.450209067728009"><ele>3.0</ele><time>2026-05-01T09:26:16.001Z</time></trkpt><trkpt lat="41.0827503635534" lon="9.450013222119996"><ele>3.0</ele><time>2026-05-01T09:26:17.001Z</time></trkpt><trkpt lat="41.082690719277124" lon="9.449803947859936"><ele>3.0</ele><time>2026-05-01T09:26:18.001Z</time></trkpt><trkpt lat="41.082652304406956" lon="9.449582763530907"><ele>2.6666666666666665</ele><time>2026-05-01T09:26:19.001Z</time></trkpt><trkpt lat="41.08263799559914" lon="9.449351424610596"><ele>2.333333333333333</ele><time>2026-05-01T09:26:20.001Z</time></trkpt><trkpt lat="41.08262995845724" lon="9.449124024452589"><ele>2.0</ele><time>2026-05-01T09:26:21.001Z</time></trkpt><trkpt lat="41.082620066780805" lon="9.448899159766032"><ele>2.0</ele><time>2026-05-01T09:26:22.001Z</time></trkpt><trkpt lat="41.08260937887591" lon="9.4486752637727"><ele>2.0</ele><time>2026-05-01T09:26:23.001Z</time></trkpt><trkpt lat="41.08260119046627" lon="9.448456846976232"><ele>2.0</ele><time>2026-05-01T09:26:24.001Z</time></trkpt><trkpt lat="41.082609998036126" lon="9.448246054287706"><ele>2.0</ele><time>2026-05-01T09:26:25.001Z</time></trkpt><trkpt lat="41.082652706947826" lon="9.448040724803354"><ele>2.0</ele><time>2026-05-01T09:26:26.001Z</time></trkpt><trkpt lat="41.082727098832486" lon="9.447834560318952"><ele>2.0</ele><time>2026-05-01T09:26:27.001Z</time></trkpt><trkpt lat="41.08282147135364" lon="9.447634458220064"><ele>2.0</ele><time>2026-05-01T09:26:28.001Z</time></trkpt><trkpt lat="41.082923148420996" lon="9.447431302219657"><ele>2.0</ele><time>2026-05-01T09:26:29.001Z</time></trkpt><trkpt lat="41.08301948034265" lon="9.447216006655045"><ele>2.0</ele><time>2026-05-01T09:26:30.001Z</time></trkpt><trkpt lat="41.08309304819066" lon="9.447015689666893"><ele>2.0</ele><time>2026-05-01T09:26:31.001Z</time></trkpt><trkpt lat="41.08314051921697" lon="9.446812455473408"><ele>2.0</ele><time>2026-05-01T09:26:32.001Z</time></trkpt><trkpt lat="41.08315923646555" lon="9.446607490652521"><ele>2.0</ele><time>2026-05-01T09:26:33.001Z</time></trkpt><trkpt lat="41.08315519338097" lon="9.446396929368184"><ele>2.6666666666666665</ele><time>2026-05-01T09:26:34.001Z</time></trkpt><trkpt lat="41.08314365905456" lon="9.446189190733799"><ele>3.333333333333333</ele><time>2026-05-01T09:26:35.001Z</time></trkpt><trkpt lat="41.083134594524985" lon="9.445980845630018"><ele>4.0</ele><time>2026-05-01T09:26:36.001Z</time></trkpt><trkpt lat="41.08312195699491" lon="9.44577402963257"><ele>4.0</ele><time>2026-05-01T09:26:37.001Z</time></trkpt><trkpt lat="41.0831067557673" lon="9.445570470137733"><ele>4.0</ele><time>2026-05-01T09:26:38.001Z</time></trkpt><trkpt lat="41.08309542074162" lon="9.445363394731098"><ele>4.0</ele><time>2026-05-01T09:26:39.001Z</time></trkpt><trkpt lat="41.08308681837081" lon="9.445162561699505"><ele>4.0</ele><time>2026-05-01T09:26:40.001Z</time></trkpt><trkpt lat="41.083079696280656" lon="9.444961787426458"><ele>4.0</ele><time>2026-05-01T09:26:41.001Z</time></trkpt><trkpt lat="41.083072098150645" lon="9.444761413227997"><ele>4.0</ele><time>2026-05-01T09:26:42.001Z</time></trkpt><trkpt lat="41.083065187618686" lon="9.44456447565129"><ele>3.333333333333333</ele><time>2026-05-01T09:26:43.001Z</time></trkpt><trkpt lat="41.08305872424645" lon="9.444366856247454"><ele>2.6666666666666665</ele><time>2026-05-01T09:26:44.001Z</time></trkpt><trkpt lat="41.08305459015811" lon="9.444167128786"><ele>2.0</ele><time>2026-05-01T09:26:45.001Z</time></trkpt><trkpt lat="41.08306305268928" lon="9.443956215234538"><ele>2.0</ele><time>2026-05-01T09:26:46.001Z</time></trkpt><trkpt lat="41.08309261723808" lon="9.443747061815285"><ele>2.0</ele><time>2026-05-01T09:26:47.001Z</time></trkpt><trkpt lat="41.08315249258005" lon="9.443535021240281"><ele>2.0</ele><time>2026-05-01T09:26:48.001Z</time></trkpt><trkpt lat="41.083239396094605" lon="9.443329059454776"><ele>2.0</ele><time>2026-05-01T09:26:49.001Z</time></trkpt><trkpt lat="41.083368510088036" lon="9.443162347806936"><ele>2.0</ele><time>2026-05-01T09:26:50.001Z</time></trkpt><trkpt lat="41.08349240476332" lon="9.442983339200289"><ele>2.0</ele><time>2026-05-01T09:26:51.001Z</time></trkpt><trkpt lat="41.083640524873154" lon="9.442828788457687"><ele>2.0</ele><time>2026-05-01T09:26:52.001Z</time></trkpt><trkpt lat="41.08378424194685" lon="9.442668246190854"><ele>2.0</ele><time>2026-05-01T09:26:53.001Z</time></trkpt><trkpt lat="41.083911753286976" lon="9.442518182205497"><ele>2.0</ele><time>2026-05-01T09:26:54.001Z</time></trkpt><trkpt lat="41.08402764762621" lon="9.442377392849988"><ele>2.6666666666666665</ele><time>2026-05-01T09:26:55.001Z</time></trkpt><trkpt lat="41.08413116714124" lon="9.442223182495846"><ele>3.333333333333333</ele><time>2026-05-01T09:26:56.001Z</time></trkpt><trkpt lat="41.084214664688744" lon="9.442038375316175"><ele>4.0</ele><time>2026-05-01T09:26:57.001Z</time></trkpt><trkpt lat="41.08426566001704" lon="9.441839383044158"><ele>4.0</ele><time>2026-05-01T09:26:58.001Z</time></trkpt><trkpt lat="41.08429157463945" lon="9.441638793055125"><ele>4.0</ele><time>2026-05-01T09:26:59.001Z</time></trkpt><trkpt lat="41.084304152570894" lon="9.441434342761852"><ele>4.0</ele><time>2026-05-01T09:27:00.001Z</time></trkpt><trkpt lat="41.08430128703378" lon="9.441236856970983"><ele>4.0</ele><time>2026-05-01T09:27:01.001Z</time></trkpt><trkpt lat="41.0842967815495" lon="9.441039168460769"><ele>4.0</ele><time>2026-05-01T09:27:02.001Z</time></trkpt><trkpt lat="41.084301019516055" lon="9.440846194449756"><ele>4.0</ele><time>2026-05-01T09:27:03.001Z</time></trkpt><trkpt lat="41.08431147429476" lon="9.440655611162786"><ele>4.0</ele><time>2026-05-01T09:27:04.001Z</time></trkpt><trkpt lat="41.08432096792849" lon="9.440466386538684"><ele>4.5</ele><time>2026-05-01T09:27:05.001Z</time></trkpt><trkpt lat="41.0843308898536" lon="9.440276786141846"><ele>5.0</ele><time>2026-05-01T09:27:06.001Z</time></trkpt><trkpt lat="41.084345241515564" lon="9.440082158984696"><ele>5.5</ele><time>2026-05-01T09:27:07.001Z</time></trkpt><trkpt lat="41.0843584963223" lon="9.439890178988195"><ele>6.0</ele><time>2026-05-01T09:27:08.001Z</time></trkpt><trkpt lat="41.084377020527725" lon="9.439700359565412"><ele>6.0</ele><time>2026-05-01T09:27:09.001Z</time></trkpt><trkpt lat="41.084396836638916" lon="9.439513096672757"><ele>6.0</ele><time>2026-05-01T09:27:10.001Z</time></trkpt><trkpt lat="41.08441626375265" lon="9.439318719359052"><ele>6.0</ele><time>2026-05-01T09:27:11.001Z</time></trkpt><trkpt lat="41.0844329943999" lon="9.439120861990855"><ele>6.0</ele><time>2026-05-01T09:27:12.001Z</time></trkpt><trkpt lat="41.084449127073775" lon="9.438919041582619"><ele>6.25</ele><time>2026-05-01T09:27:13.001Z</time></trkpt><trkpt lat="41.08446504079107" lon="9.438721595038201"><ele>6.5</ele><time>2026-05-01T09:27:14.001Z</time></trkpt><trkpt lat="41.08448258408657" lon="9.438527277607655"><ele>6.75</ele><time>2026-05-01T09:27:15.001Z</time></trkpt><trkpt lat="41.08450104026435" lon="9.438331073883903"><ele>7.0</ele><time>2026-05-01T09:27:16.001Z</time></trkpt><trkpt lat="41.08452087067212" lon="9.438137664589275"><ele>7.5</ele><time>2026-05-01T09:27:17.001Z</time></trkpt><trkpt lat="41.084540196817436" lon="9.43794300425513"><ele>8.0</ele><time>2026-05-01T09:27:18.001Z</time></trkpt><trkpt lat="41.08455985888235" lon="9.437750284304213"><ele>8.5</ele><time>2026-05-01T09:27:19.001Z</time></trkpt><trkpt lat="41.08457777242685" lon="9.437555536646425"><ele>9.0</ele><time>2026-05-01T09:27:20.001Z</time></trkpt><trkpt lat="41.08459732038603" lon="9.437359766140327"><ele>9.0</ele><time>2026-05-01T09:27:21.001Z</time></trkpt><trkpt lat="41.08461496896467" lon="9.437160940341277"><ele>9.0</ele><time>2026-05-01T09:27:22.001Z</time></trkpt><trkpt lat="41.08463251915093" lon="9.436959038433136"><ele>9.0</ele><time>2026-05-01T09:27:23.001Z</time></trkpt><trkpt lat="41.084647154245125" lon="9.436755530613366"><ele>9.0</ele><time>2026-05-01T09:27:24.001Z</time></trkpt><trkpt lat="41.08466258716298" lon="9.43655193060578"><ele>9.0</ele><time>2026-05-01T09:27:25.001Z</time></trkpt><trkpt lat="41.08467834305471" lon="9.436346424267056"><ele>9.0</ele><time>2026-05-01T09:27:26.001Z</time></trkpt><trkpt lat="41.08469567795264" lon="9.436138526567914"><ele>9.0</ele><time>2026-05-01T09:27:27.001Z</time></trkpt><trkpt lat="41.08471222322517" lon="9.43593140520358"><ele>9.0</ele><time>2026-05-01T09:27:28.001Z</time></trkpt><trkpt lat="41.084731502925166" lon="9.435729501744975"><ele>9.0</ele><time>2026-05-01T09:27:29.001Z</time></trkpt><trkpt lat="41.0847535947303" lon="9.435525258563315"><ele>9.5</ele><time>2026-05-01T09:27:30.001Z</time></trkpt><trkpt lat="41.084772712035765" lon="9.435334284937527"><ele>10.0</ele><time>2026-05-01T09:27:31.001Z</time></trkpt><trkpt lat="41.0847913915525" lon="9.43516126663421"><ele>10.5</ele><time>2026-05-01T09:27:32.001Z</time></trkpt><trkpt lat="41.084807980827854" lon="9.434995026379397"><ele>11.0</ele><time>2026-05-01T09:27:33.001Z</time></trkpt><trkpt lat="41.08482085557438" lon="9.434849575151375"><ele>11.0</ele><time>2026-05-01T09:27:34.001Z</time></trkpt><trkpt lat="41.08483479285432" lon="9.434723052323923"><ele>11.0</ele><time>2026-05-01T09:27:35.001Z</time></trkpt><trkpt lat="41.08484600007475" lon="9.434626029794316"><ele>11.0</ele><time>2026-05-01T09:27:36.001Z</time></trkpt><trkpt lat="41.08485955609964" lon="9.434512133483503"><ele>11.0</ele><time>2026-05-01T09:27:38.001Z</time></trkpt><trkpt lat="41.08487048563554" lon="9.43441733867875"><ele>11.0</ele><time>2026-05-01T09:27:41.001Z</time></trkpt><trkpt lat="41.08489823314357" lon="9.434319706544319"><ele>11.0</ele><time>2026-05-01T09:27:52.001Z</time></trkpt><trkpt lat="41.08488189682409" lon="9.434209538144398"><ele>11.5</ele><time>2026-05-01T09:27:54.001Z</time></trkpt><trkpt lat="41.08471674206089" lon="9.434142731781096"><ele>12.0</ele><time>2026-05-01T09:27:56.001Z</time></trkpt><trkpt lat="41.084591829301715" lon="9.434124909359978"><ele>12.5</ele><time>2026-05-01T09:27:57.001Z</time></trkpt><trkpt lat="41.08445539371486" lon="9.434098053091951"><ele>13.0</ele><time>2026-05-01T09:27:58.001Z</time></trkpt><trkpt lat="41.084310445896705" lon="9.43404942160219"><ele>13.0</ele><time>2026-05-01T09:27:59.001Z</time></trkpt><trkpt lat="41.084159236639785" lon="9.433967842307231"><ele>13.0</ele><time>2026-05-01T09:28:00.001Z</time></trkpt><trkpt lat="41.08400790251854" lon="9.433835713797746"><ele>13.0</ele><time>2026-05-01T09:28:01.001Z</time></trkpt><trkpt lat="41.083860379276196" lon="9.43371555627912"><ele>13.0</ele><time>2026-05-01T09:28:02.001Z</time></trkpt><trkpt lat="41.083697910637575" lon="9.433602090438267"><ele>13.0</ele><time>2026-05-01T09:28:03.001Z</time></trkpt><trkpt lat="41.08353723570428" lon="9.43346558110595"><ele>13.0</ele><time>2026-05-01T09:28:04.001Z</time></trkpt><trkpt lat="41.08337352243487" lon="9.433330008392614"><ele>13.333333333333332</ele><time>2026-05-01T09:28:05.001Z</time></trkpt><trkpt lat="41.08322542227238" lon="9.433213501675606"><ele>13.666666666666668</ele><time>2026-05-01T09:28:06.001Z</time></trkpt><trkpt lat="41.08310074310551" lon="9.43308472616776"><ele>14.0</ele><time>2026-05-01T09:28:07.001Z</time></trkpt><trkpt lat="41.08296846162888" lon="9.432999543791254"><ele>15.0</ele><time>2026-05-01T09:28:08.001Z</time></trkpt><trkpt lat="41.08284772723547" lon="9.432895878592328"><ele>16.0</ele><time>2026-05-01T09:28:09.001Z</time></trkpt><trkpt lat="41.08273370844549" lon="9.432799465631843"><ele>17.0</ele><time>2026-05-01T09:28:10.001Z</time></trkpt><trkpt lat="41.082624028396644" lon="9.43270779037494"><ele>18.0</ele><time>2026-05-01T09:28:11.001Z</time></trkpt><trkpt lat="41.08251194157038" lon="9.432613658359074"><ele>17.0</ele><time>2026-05-01T09:28:12.001Z</time></trkpt><trkpt lat="41.08239269859594" lon="9.432521267953964"><ele>16.0</ele><time>2026-05-01T09:28:13.001Z</time></trkpt><trkpt lat="41.082268373660355" lon="9.432432369736075"><ele>15.0</ele><time>2026-05-01T09:28:14.001Z</time></trkpt><trkpt lat="41.082138945555734" lon="9.432345113758329"><ele>14.0</ele><time>2026-05-01T09:28:15.001Z</time></trkpt><trkpt lat="41.082008658500534" lon="9.432258180383462"><ele>14.0</ele><time>2026-05-01T09:28:16.001Z</time></trkpt><trkpt lat="41.081876356984274" lon="9.43217227198717"><ele>14.0</ele><time>2026-05-01T09:28:17.001Z</time></trkpt><trkpt lat="41.081740350681336" lon="9.432086051437674"><ele>14.0</ele><time>2026-05-01T09:28:18.001Z</time></trkpt><trkpt lat="41.08160144157778" lon="9.43200462112325"><ele>15.333333333333334</ele><time>2026-05-01T09:28:19.001Z</time></trkpt><trkpt lat="41.08145791878286" lon="9.431927129108619"><ele>16.666666666666668</ele><time>2026-05-01T09:28:20.001Z</time></trkpt><trkpt lat="41.0813141587358" lon="9.431854809561473"><ele>18.0</ele><time>2026-05-01T09:28:21.001Z</time></trkpt><trkpt lat="41.081177455494306" lon="9.431786341648406"><ele>18.0</ele><time>2026-05-01T09:28:22.001Z</time></trkpt><trkpt lat="41.081030861884265" lon="9.431713007874102"><ele>18.0</ele><time>2026-05-01T09:28:23.001Z</time></trkpt><trkpt lat="41.08088194879447" lon="9.431639762846832"><ele>18.0</ele><time>2026-05-01T09:28:24.001Z</time></trkpt><trkpt lat="41.08074135989293" lon="9.43154583796233"><ele>17.0</ele><time>2026-05-01T09:28:25.001Z</time></trkpt><trkpt lat="41.08059380973237" lon="9.431468238251739"><ele>16.0</ele><time>2026-05-01T09:28:26.001Z</time></trkpt><trkpt lat="41.080438298461296" lon="9.431410140969598"><ele>15.0</ele><time>2026-05-01T09:28:27.001Z</time></trkpt><trkpt lat="41.08028739798013" lon="9.431333705581627"><ele>16.0</ele><time>2026-05-01T09:28:28.001Z</time></trkpt><trkpt lat="41.08013604041939" lon="9.43126838339526"><ele>17.0</ele><time>2026-05-01T09:28:29.001Z</time></trkpt><trkpt lat="41.07997981133756" lon="9.431211446218207"><ele>18.0</ele><time>2026-05-01T09:28:30.001Z</time></trkpt><trkpt lat="41.07982530776137" lon="9.431167126822501"><ele>18.0</ele><time>2026-05-01T09:28:31.001Z</time></trkpt><trkpt lat="41.079671107647926" lon="9.43112837915615"><ele>18.0</ele><time>2026-05-01T09:28:32.001Z</time></trkpt><trkpt lat="41.07952606511475" lon="9.43109742567305"><ele>18.0</ele><time>2026-05-01T09:28:33.001Z</time></trkpt><trkpt lat="41.079379781860226" lon="9.431066509655293"><ele>18.0</ele><time>2026-05-01T09:28:34.001Z</time></trkpt><trkpt lat="41.079235851397655" lon="9.431041008075335"><ele>18.0</ele><time>2026-05-01T09:28:35.001Z</time></trkpt><trkpt lat="41.07909028060195" lon="9.431012997747981"><ele>18.0</ele><time>2026-05-01T09:28:36.001Z</time></trkpt><trkpt lat="41.07894831911248" lon="9.430962497395331"><ele>18.0</ele><time>2026-05-01T09:28:37.001Z</time></trkpt><trkpt lat="41.07880419935861" lon="9.430952972182794"><ele>17.25</ele><time>2026-05-01T09:28:38.001Z</time></trkpt><trkpt lat="41.07866753449665" lon="9.430919924013661"><ele>16.5</ele><time>2026-05-01T09:28:39.001Z</time></trkpt><trkpt lat="41.078533589908766" lon="9.430885185204623"><ele>15.75</ele><time>2026-05-01T09:28:40.001Z</time></trkpt><trkpt lat="41.07841486709736" lon="9.430848722930106"><ele>15.0</ele><time>2026-05-01T09:28:41.001Z</time></trkpt><trkpt lat="41.07831807600469" lon="9.430809911406678"><ele>14.2</ele><time>2026-05-01T09:28:42.001Z</time></trkpt><trkpt lat="41.07822240026406" lon="9.430761025318533"><ele>13.4</ele><time>2026-05-01T09:28:43.001Z</time></trkpt><trkpt lat="41.07812624316775" lon="9.43070506669521"><ele>12.600000000000001</ele><time>2026-05-01T09:28:44.001Z</time></trkpt><trkpt lat="41.07802618576261" lon="9.430642546334258"><ele>11.8</ele><time>2026-05-01T09:28:45.001Z</time></trkpt><trkpt lat="41.07792954460722" lon="9.430576126240293"><ele>11.0</ele><time>2026-05-01T09:28:46.001Z</time></trkpt><trkpt lat="41.07783283601122" lon="9.4305114116869"><ele>11.4</ele><time>2026-05-01T09:28:47.001Z</time></trkpt><trkpt lat="41.077735741723295" lon="9.430446850563278"><ele>11.8</ele><time>2026-05-01T09:28:48.001Z</time></trkpt><trkpt lat="41.077635056046944" lon="9.430393467142542"><ele>12.200000000000001</ele><time>2026-05-01T09:28:49.001Z</time></trkpt><trkpt lat="41.07753372475866" lon="9.430332021746894"><ele>12.600000000000001</ele><time>2026-05-01T09:28:50.001Z</time></trkpt><trkpt lat="41.0774343097727" lon="9.430272132967168"><ele>13.0</ele><time>2026-05-01T09:28:51.001Z</time></trkpt><trkpt lat="41.07732922909987" lon="9.43020182142047"><ele>13.0</ele><time>2026-05-01T09:28:52.001Z</time></trkpt><trkpt lat="41.07721881316923" lon="9.430127411352839"><ele>13.0</ele><time>2026-05-01T09:28:53.001Z</time></trkpt><trkpt lat="41.077102925787756" lon="9.43004981082018"><ele>13.0</ele><time>2026-05-01T09:28:54.001Z</time></trkpt><trkpt lat="41.076984766903614" lon="9.429972679125308"><ele>13.0</ele><time>2026-05-01T09:28:55.001Z</time></trkpt><trkpt lat="41.07685916736635" lon="9.42989678663778"><ele>13.0</ele><time>2026-05-01T09:28:56.001Z</time></trkpt><trkpt lat="41.076728506903784" lon="9.42981595206263"><ele>13.0</ele><time>2026-05-01T09:28:57.001Z</time></trkpt><trkpt lat="41.076591654019474" lon="9.429720209023454"><ele>13.0</ele><time>2026-05-01T09:28:58.001Z</time></trkpt><trkpt lat="41.07646300487829" lon="9.429590880767451"><ele>13.0</ele><time>2026-05-01T09:28:59.001Z</time></trkpt><trkpt lat="41.076314968980164" lon="9.4294766505042"><ele>13.0</ele><time>2026-05-01T09:29:00.001Z</time></trkpt><trkpt lat="41.07617865465052" lon="9.429315126895139"><ele>13.0</ele><time>2026-05-01T09:29:01.001Z</time></trkpt><trkpt lat="41.07604295929938" lon="9.429150050569518"><ele>13.0</ele><time>2026-05-01T09:29:02.001Z</time></trkpt><trkpt lat="41.075906790947066" lon="9.4289863929182"><ele>13.0</ele><time>2026-05-01T09:29:03.001Z</time></trkpt><trkpt lat="41.07576909528049" lon="9.42883043617064"><ele>13.0</ele><time>2026-05-01T09:29:04.001Z</time></trkpt><trkpt lat="41.0756377656461" lon="9.428679093690754"><ele>13.333333333333332</ele><time>2026-05-01T09:29:05.001Z</time></trkpt><trkpt lat="41.07550963160779" lon="9.428532144800927"><ele>13.666666666666668</ele><time>2026-05-01T09:29:06.001Z</time></trkpt><trkpt lat="41.07538494280302" lon="9.428385995762802"><ele>14.0</ele><time>2026-05-01T09:29:07.001Z</time></trkpt><trkpt lat="41.0752635308385" lon="9.428239511557535"><ele>14.0</ele><time>2026-05-01T09:29:08.001Z</time></trkpt><trkpt lat="41.075141594009644" lon="9.428094943189665"><ele>14.0</ele><time>2026-05-01T09:29:09.001Z</time></trkpt><trkpt lat="41.07501771470697" lon="9.427953833637845"><ele>14.0</ele><time>2026-05-01T09:29:10.001Z</time></trkpt><trkpt lat="41.0748990523532" lon="9.427823236924251"><ele>13.333333333333334</ele><time>2026-05-01T09:29:11.001Z</time></trkpt><trkpt lat="41.07477120093721" lon="9.427694662069511"><ele>12.666666666666668</ele><time>2026-05-01T09:29:12.001Z</time></trkpt><trkpt lat="41.07464834411415" lon="9.427572879344737"><ele>12.0</ele><time>2026-05-01T09:29:13.001Z</time></trkpt><trkpt lat="41.07452261795587" lon="9.427449234466689"><ele>12.0</ele><time>2026-05-01T09:29:14.001Z</time></trkpt><trkpt lat="41.07439579888738" lon="9.427330682870934"><ele>12.0</ele><time>2026-05-01T09:29:15.001Z</time></trkpt><trkpt lat="41.074272238776615" lon="9.427206901303716"><ele>12.0</ele><time>2026-05-01T09:29:16.001Z</time></trkpt><trkpt lat="41.07415304790153" lon="9.427078119025836"><ele>11.0</ele><time>2026-05-01T09:29:17.001Z</time></trkpt><trkpt lat="41.07403193910352" lon="9.42696249561389"><ele>10.0</ele><time>2026-05-01T09:29:18.001Z</time></trkpt><trkpt lat="41.07390403229819" lon="9.426850696180274"><ele>9.0</ele><time>2026-05-01T09:29:19.001Z</time></trkpt><trkpt lat="41.07379418979552" lon="9.426718092355102"><ele>9.0</ele><time>2026-05-01T09:29:20.001Z</time></trkpt><trkpt lat="41.07366528682645" lon="9.426611196677978"><ele>9.0</ele><time>2026-05-01T09:29:21.001Z</time></trkpt><trkpt lat="41.073549208015436" lon="9.426482175457364"><ele>9.0</ele><time>2026-05-01T09:29:22.001Z</time></trkpt><trkpt lat="41.07343945046419" lon="9.426347045284569"><ele>8.666666666666666</ele><time>2026-05-01T09:29:23.001Z</time></trkpt><trkpt lat="41.07333349038441" lon="9.42620682041383"><ele>8.333333333333332</ele><time>2026-05-01T09:29:24.001Z</time></trkpt><trkpt lat="41.07323172497376" lon="9.426063995654303"><ele>8.0</ele><time>2026-05-01T09:29:25.001Z</time></trkpt><trkpt lat="41.07312513119282" lon="9.425913730743277"><ele>8.0</ele><time>2026-05-01T09:29:26.001Z</time></trkpt><trkpt lat="41.073016717406745" lon="9.42573642784465"><ele>8.0</ele><time>2026-05-01T09:29:27.001Z</time></trkpt><trkpt lat="41.0729067431525" lon="9.425555326731883"><ele>8.0</ele><time>2026-05-01T09:29:28.001Z</time></trkpt><trkpt lat="41.07280455952877" lon="9.425372393510969"><ele>9.333333333333332</ele><time>2026-05-01T09:29:29.001Z</time></trkpt><trkpt lat="41.07271606630616" lon="9.425195936035388"><ele>10.666666666666666</ele><time>2026-05-01T09:29:30.001Z</time></trkpt><trkpt lat="41.0726349877804" lon="9.425024158666469"><ele>12.0</ele><time>2026-05-01T09:29:31.001Z</time></trkpt><trkpt lat="41.0725590773779" lon="9.424850989488217"><ele>12.0</ele><time>2026-05-01T09:29:32.001Z</time></trkpt><trkpt lat="41.07248667257125" lon="9.424678603259776"><ele>12.0</ele><time>2026-05-01T09:29:33.001Z</time></trkpt><trkpt lat="41.0724127167446" lon="9.424506458158636"><ele>12.0</ele><time>2026-05-01T09:29:34.001Z</time></trkpt><trkpt lat="41.07233676203246" lon="9.424334508773693"><ele>12.0</ele><time>2026-05-01T09:29:35.001Z</time></trkpt><trkpt lat="41.07225793013868" lon="9.424163015505542"><ele>11.333333333333334</ele><time>2026-05-01T09:29:36.001Z</time></trkpt><trkpt lat="41.07217886675636" lon="9.423990040213802"><ele>10.666666666666668</ele><time>2026-05-01T09:29:37.001Z</time></trkpt><trkpt lat="41.07210304081028" lon="9.423813391399026"><ele>10.0</ele><time>2026-05-01T09:29:38.001Z</time></trkpt><trkpt lat="41.07202593355396" lon="9.423639753544693"><ele>11.666666666666668</ele><time>2026-05-01T09:29:39.001Z</time></trkpt><trkpt lat="41.07194915277858" lon="9.423463919997157"><ele>13.333333333333334</ele><time>2026-05-01T09:29:40.001Z</time></trkpt><trkpt lat="41.071870699334355" lon="9.423287889192043"><ele>15.0</ele><time>2026-05-01T09:29:41.001Z</time></trkpt><trkpt lat="41.0717905651585" lon="9.423115526352555"><ele>15.0</ele><time>2026-05-01T09:29:42.001Z</time></trkpt><trkpt lat="41.07171348547505" lon="9.422942481206386"><ele>15.0</ele><time>2026-05-01T09:29:43.001Z</time></trkpt><trkpt lat="41.0716367607201" lon="9.422766626217333"><ele>15.0</ele><time>2026-05-01T09:29:44.001Z</time></trkpt><trkpt lat="41.07155825648205" lon="9.42258314159758"><ele>15.0</ele><time>2026-05-01T09:29:45.001Z</time></trkpt><trkpt lat="41.07147556337231" lon="9.42239688548827"><ele>15.0</ele><time>2026-05-01T09:29:46.001Z</time></trkpt><trkpt lat="41.071389090436334" lon="9.422206131523398"><ele>15.0</ele><time>2026-05-01T09:29:47.001Z</time></trkpt><trkpt lat="41.071300207425516" lon="9.42200974462043"><ele>16.0</ele><time>2026-05-01T09:29:48.001Z</time></trkpt><trkpt lat="41.0712122966452" lon="9.42179982241751"><ele>17.0</ele><time>2026-05-01T09:29:49.001Z</time></trkpt><trkpt lat="41.071123658580525" lon="9.421586273168986"><ele>18.0</ele><time>2026-05-01T09:29:50.001Z</time></trkpt><trkpt lat="41.07103625139878" lon="9.421366029389947"><ele>19.0</ele><time>2026-05-01T09:29:51.001Z</time></trkpt><trkpt lat="41.07096142057995" lon="9.421163753589045"><ele>20.0</ele><time>2026-05-01T09:29:52.001Z</time></trkpt><trkpt lat="41.07089292999131" lon="9.420970749967404"><ele>21.0</ele><time>2026-05-01T09:29:53.001Z</time></trkpt><trkpt lat="41.07082542912667" lon="9.420783634484447"><ele>19.666666666666668</ele><time>2026-05-01T09:29:54.001Z</time></trkpt><trkpt lat="41.07075889069654" lon="9.42060419558363"><ele>18.333333333333336</ele><time>2026-05-01T09:29:55.001Z</time></trkpt><trkpt lat="41.070693491987534" lon="9.420424742255143"><ele>17.0</ele><time>2026-05-01T09:29:56.001Z</time></trkpt><trkpt lat="41.07062893103664" lon="9.420246663413845"><ele>17.0</ele><time>2026-05-01T09:29:57.001Z</time></trkpt><trkpt lat="41.07056043954032" lon="9.420065098744539"><ele>17.0</ele><time>2026-05-01T09:29:58Z</time></trkpt><trkpt lat="41.07050221403223" lon="9.41987439519068"><ele>17.0</ele><time>2026-05-01T09:29:59Z</time></trkpt><trkpt lat="41.07042730286559" lon="9.41969533310277"><ele>17.666666666666668</ele><time>2026-05-01T09:30:00Z</time></trkpt><trkpt lat="41.07034424392749" lon="9.419514162152831"><ele>18.333333333333332</ele><time>2026-05-01T09:30:01Z</time></trkpt><trkpt lat="41.07024138412552" lon="9.419351433276345"><ele>19.0</ele><time>2026-05-01T09:30:02Z</time></trkpt><trkpt lat="41.0701500767206" lon="9.419178971344452"><ele>19.0</ele><time>2026-05-01T09:30:03Z</time></trkpt><trkpt lat="41.07005410775297" lon="9.41901974986892"><ele>19.0</ele><time>2026-05-01T09:30:04Z</time></trkpt><trkpt lat="41.06996044373572" lon="9.418873959473254"><ele>19.0</ele><time>2026-05-01T09:30:05Z</time></trkpt><trkpt lat="41.06986881285085" lon="9.418731373201085"><ele>19.0</ele><time>2026-05-01T09:30:06Z</time></trkpt><trkpt lat="41.069779666386225" lon="9.418596741104153"><ele>17.75</ele><time>2026-05-01T09:30:07Z</time></trkpt><trkpt lat="41.069695425721584" lon="9.418472084598898"><ele>16.5</ele><time>2026-05-01T09:30:08Z</time></trkpt><trkpt lat="41.06961243425458" lon="9.41835941716188"><ele>15.25</ele><time>2026-05-01T09:30:09Z</time></trkpt><trkpt lat="41.06953143597033" lon="9.418254818664433"><ele>14.0</ele><time>2026-05-01T09:30:10Z</time></trkpt><trkpt lat="41.06945379336791" lon="9.4181510928111"><ele>14.000000000000002</ele><time>2026-05-01T09:30:11Z</time></trkpt><trkpt lat="41.06938071148877" lon="9.418058374260722"><ele>14.0</ele><time>2026-05-01T09:30:12Z</time></trkpt><trkpt lat="41.069301917468664" lon="9.41798209273351"><ele>14.0</ele><time>2026-05-01T09:30:13Z</time></trkpt><trkpt lat="41.06921202999899" lon="9.417950921179996"><ele>14.0</ele><time>2026-05-01T09:30:14Z</time></trkpt><trkpt lat="41.06912418629683" lon="9.417957655002398"><ele>14.000000000000002</ele><time>2026-05-01T09:30:15Z</time></trkpt><trkpt lat="41.06906330758483" lon="9.417984607604561"><ele>14.0</ele><time>2026-05-01T09:30:16Z</time></trkpt><trkpt lat="41.06900263434434" lon="9.418046070930853"><ele>13.2</ele><time>2026-05-01T09:30:19Z</time></trkpt><trkpt lat="41.0689276335958" lon="9.418074632733394"><ele>12.399999999999999</ele><time>2026-05-01T09:30:38Z</time></trkpt><trkpt lat="41.06891262162755" lon="9.418333552506116"><ele>11.6</ele><time>2026-05-01T09:30:40Z</time></trkpt><trkpt lat="41.06892808788377" lon="9.418441878626481"><ele>10.8</ele><time>2026-05-01T09:30:41Z</time></trkpt><trkpt lat="41.068933054568674" lon="9.418546200382814"><ele>10.0</ele><time>2026-05-01T09:30:42Z</time></trkpt><trkpt lat="41.068939462072336" lon="9.418668821827719"><ele>10.0</ele><time>2026-05-01T09:30:43Z</time></trkpt><trkpt lat="41.06893939237664" lon="9.41881246446554"><ele>10.0</ele><time>2026-05-01T09:30:44Z</time></trkpt><trkpt lat="41.06892684642699" lon="9.418979520183923"><ele>10.0</ele><time>2026-05-01T09:30:45Z</time></trkpt><trkpt lat="41.06890919097162" lon="9.419162372759269"><ele>10.0</ele><time>2026-05-01T09:30:46Z</time></trkpt><trkpt lat="41.06888807859833" lon="9.419370782765045"><ele>10.0</ele><time>2026-05-01T09:30:47Z</time></trkpt><trkpt lat="41.06886263782388" lon="9.419594479124399"><ele>10.0</ele><time>2026-05-01T09:30:48Z</time></trkpt><trkpt lat="41.068831820246075" lon="9.419833099662972"><ele>10.0</ele><time>2026-05-01T09:30:49Z</time></trkpt><trkpt lat="41.0688042445158" lon="9.420076690664311"><ele>10.333333333333334</ele><time>2026-05-01T09:30:50Z</time></trkpt><trkpt lat="41.068781285986375" lon="9.420309123597434"><ele>10.666666666666666</ele><time>2026-05-01T09:30:51Z</time></trkpt><trkpt lat="41.068757472324215" lon="9.420534075332679"><ele>11.0</ele><time>2026-05-01T09:30:52Z</time></trkpt><trkpt lat="41.06872764679666" lon="9.4207687601764"><ele>10.0</ele><time>2026-05-01T09:30:53Z</time></trkpt><trkpt lat="41.06870165145682" lon="9.42099363984355"><ele>9.0</ele><time>2026-05-01T09:30:54Z</time></trkpt><trkpt lat="41.068680593799975" lon="9.421209305311201"><ele>8.0</ele><time>2026-05-01T09:30:55Z</time></trkpt><trkpt lat="41.06865442442908" lon="9.421423496776415"><ele>7.666666666666666</ele><time>2026-05-01T09:30:56Z</time></trkpt><trkpt lat="41.06862454215098" lon="9.421635134012677"><ele>7.333333333333334</ele><time>2026-05-01T09:30:57Z</time></trkpt><trkpt lat="41.068596916756285" lon="9.421842269322932"><ele>7.0</ele><time>2026-05-01T09:30:58Z</time></trkpt><trkpt lat="41.068572824932204" lon="9.422038456387709"><ele>6.75</ele><time>2026-05-01T09:30:59.001Z</time></trkpt><trkpt lat="41.068551200407406" lon="9.422232012139613"><ele>6.5</ele><time>2026-05-01T09:31:00.001Z</time></trkpt><trkpt lat="41.06852638238739" lon="9.422424184922672"><ele>6.25</ele><time>2026-05-01T09:31:01.001Z</time></trkpt><trkpt lat="41.06850611504512" lon="9.422611988370619"><ele>6.0</ele><time>2026-05-01T09:31:02.001Z</time></trkpt><trkpt lat="41.0684871093331" lon="9.42279619081824"><ele>6.333333333333334</ele><time>2026-05-01T09:31:03.001Z</time></trkpt><trkpt lat="41.06845724944956" lon="9.423007645369408"><ele>6.666666666666667</ele><time>2026-05-01T09:31:04.001Z</time></trkpt><trkpt lat="41.068435740776145" lon="9.423206347104474"><ele>7.0</ele><time>2026-05-01T09:31:05.001Z</time></trkpt><trkpt lat="41.06841812398234" lon="9.423403730948099"><ele>7.0</ele><time>2026-05-01T09:31:06.001Z</time></trkpt><trkpt lat="41.06839272041976" lon="9.423598607281617"><ele>7.0</ele><time>2026-05-01T09:31:07.001Z</time></trkpt><trkpt lat="41.06836753964208" lon="9.423792494716748"><ele>7.0</ele><time>2026-05-01T09:31:08.001Z</time></trkpt><trkpt lat="41.0683456935472" lon="9.423987805356226"><ele>7.0</ele><time>2026-05-01T09:31:09.001Z</time></trkpt><trkpt lat="41.06832157937618" lon="9.424177179101314"><ele>7.25</ele><time>2026-05-01T09:31:10.001Z</time></trkpt><trkpt lat="41.06829913316279" lon="9.424365359960813"><ele>7.5</ele><time>2026-05-01T09:31:11.001Z</time></trkpt><trkpt lat="41.0682781587717" lon="9.424545752453383"><ele>7.75</ele><time>2026-05-01T09:31:12.001Z</time></trkpt><trkpt lat="41.068256316816196" lon="9.424707841244773"><ele>8.0</ele><time>2026-05-01T09:31:13.001Z</time></trkpt><trkpt lat="41.068239435498995" lon="9.42484390545856"><ele>7.999999999999999</ele><time>2026-05-01T09:31:14.001Z</time></trkpt><trkpt lat="41.0682281675519" lon="9.424957145811339"><ele>8.0</ele><time>2026-05-01T09:31:15.001Z</time></trkpt><trkpt lat="41.068218601955955" lon="9.425044424052693"><ele>8.0</ele><time>2026-05-01T09:31:16.001Z</time></trkpt><trkpt lat="41.068193229654035" lon="9.425164940991099"><ele>8.0</ele><time>2026-05-01T09:31:18.001Z</time></trkpt><trkpt lat="41.06815862203842" lon="9.425239026378348"><ele>7.999999999999999</ele><time>2026-05-01T09:31:23.001Z</time></trkpt><trkpt lat="41.06818878131904" lon="9.425372370480067"><ele>8.0</ele><time>2026-05-01T09:31:49.001Z</time></trkpt><trkpt lat="41.06822687443393" lon="9.425480704076987"><ele>8.166666666666666</ele><time>2026-05-01T09:31:50.001Z</time></trkpt><trkpt lat="41.06827868688843" lon="9.425583295577265"><ele>8.333333333333332</ele><time>2026-05-01T09:31:51.001Z</time></trkpt><trkpt lat="41.068334397171895" lon="9.425673236536126"><ele>8.5</ele><time>2026-05-01T09:31:52.001Z</time></trkpt><trkpt lat="41.06838066950768" lon="9.425755528715126"><ele>8.666666666666666</ele><time>2026-05-01T09:31:53.001Z</time></trkpt><trkpt lat="41.06842589859925" lon="9.425835376740542"><ele>8.833333333333334</ele><time>2026-05-01T09:31:54.001Z</time></trkpt><trkpt lat="41.06844796756437" lon="9.42594516745371"><ele>9.0</ele><time>2026-05-01T09:31:56.001Z</time></trkpt><trkpt lat="41.06839544044123" lon="9.426052325023054"><ele>8.75</ele><time>2026-05-01T09:31:58.001Z</time></trkpt><trkpt lat="41.06827102368376" lon="9.426036750977167"><ele>8.5</ele><time>2026-05-01T09:31:59.001Z</time></trkpt><trkpt lat="41.06815956926979" lon="9.4260886053961"><ele>8.25</ele><time>2026-05-01T09:32:00.001Z</time></trkpt><trkpt lat="41.068037867017175" lon="9.426167263413797"><ele>8.0</ele><time>2026-05-01T09:32:01.001Z</time></trkpt><trkpt lat="41.067929322005256" lon="9.426194553702143"><ele>7.999999999999999</ele><time>2026-05-01T09:32:02.001Z</time></trkpt><trkpt lat="41.067854243138214" lon="9.426229101127172"><ele>8.0</ele><time>2026-05-01T09:32:03.001Z</time></trkpt><trkpt lat="41.06779676348641" lon="9.426279877653256"><ele>8.0</ele><time>2026-05-01T09:32:04Z</time></trkpt><trkpt lat="41.06772787558136" lon="9.426310641369994"><ele>8.0</ele><time>2026-05-01T09:32:05Z</time></trkpt><trkpt lat="41.06764777887533" lon="9.426347360036875"><ele>7.999999999999999</ele><time>2026-05-01T09:32:06Z</time></trkpt><trkpt lat="41.06756672421174" lon="9.426385215480478"><ele>8.0</ele><time>2026-05-01T09:32:07Z</time></trkpt><trkpt lat="41.067501422989814" lon="9.426420278958489"><ele>8.4</ele><time>2026-05-01T09:32:08Z</time></trkpt><trkpt lat="41.06742457585185" lon="9.426465479850005"><ele>8.8</ele><time>2026-05-01T09:32:09Z</time></trkpt><trkpt lat="41.06733870768206" lon="9.426509466708028"><ele>9.2</ele><time>2026-05-01T09:32:10Z</time></trkpt><trkpt lat="41.06723754656867" lon="9.426517231974554"><ele>9.6</ele><time>2026-05-01T09:32:11Z</time></trkpt><trkpt lat="41.067140263770504" lon="9.426531792710106"><ele>10.0</ele><time>2026-05-01T09:32:12Z</time></trkpt><trkpt lat="41.06703981186046" lon="9.426564901599791"><ele>10.0</ele><time>2026-05-01T09:32:13Z</time></trkpt><trkpt lat="41.06693206969741" lon="9.426580291504381"><ele>10.0</ele><time>2026-05-01T09:32:14Z</time></trkpt><trkpt lat="41.066821707565715" lon="9.426595270442958"><ele>10.0</ele><time>2026-05-01T09:32:15Z</time></trkpt><trkpt lat="41.06670728237437" lon="9.426609937335813"><ele>10.0</ele><time>2026-05-01T09:32:16Z</time></trkpt><trkpt lat="41.06659149145698" lon="9.42662563705034"><ele>10.25</ele><time>2026-05-01T09:32:17Z</time></trkpt><trkpt lat="41.06647107608503" lon="9.426645860354023"><ele>10.5</ele><time>2026-05-01T09:32:18Z</time></trkpt><trkpt lat="41.06635064240256" lon="9.426667656655445"><ele>10.75</ele><time>2026-05-01T09:32:19Z</time></trkpt><trkpt lat="41.06623028809227" lon="9.426684642056435"><ele>11.0</ele><time>2026-05-01T09:32:20Z</time></trkpt><trkpt lat="41.06610713529933" lon="9.426705153497402"><ele>11.0</ele><time>2026-05-01T09:32:21Z</time></trkpt><trkpt lat="41.065981961981734" lon="9.426707937203902"><ele>11.0</ele><time>2026-05-01T09:32:22Z</time></trkpt><trkpt lat="41.06585943240279" lon="9.426746866591444"><ele>11.0</ele><time>2026-05-01T09:32:23Z</time></trkpt><trkpt lat="41.06573845890225" lon="9.4267697262371"><ele>11.0</ele><time>2026-05-01T09:32:24Z</time></trkpt><trkpt lat="41.06562028433242" lon="9.426791255183055"><ele>10.5</ele><time>2026-05-01T09:32:25Z</time></trkpt><trkpt lat="41.06549389130404" lon="9.426816354839291"><ele>10.0</ele><time>2026-05-01T09:32:26Z</time></trkpt><trkpt lat="41.06535513450896" lon="9.426845670106427"><ele>9.5</ele><time>2026-05-01T09:32:27Z</time></trkpt><trkpt lat="41.06520450920542" lon="9.426869593307071"><ele>9.0</ele><time>2026-05-01T09:32:28Z</time></trkpt><trkpt lat="41.06505826727295" lon="9.426868079126137"><ele>9.0</ele><time>2026-05-01T09:32:29Z</time></trkpt><trkpt lat="41.06492577832539" lon="9.426907837233754"><ele>9.0</ele><time>2026-05-01T09:32:30Z</time></trkpt><trkpt lat="41.064804294512236" lon="9.426922925660547"><ele>9.0</ele><time>2026-05-01T09:32:31Z</time></trkpt><trkpt lat="41.06470364262055" lon="9.426939672889398"><ele>9.0</ele><time>2026-05-01T09:32:32Z</time></trkpt><trkpt lat="41.06461307899796" lon="9.426953460705306"><ele>9.0</ele><time>2026-05-01T09:32:33Z</time></trkpt><trkpt lat="41.06454462563329" lon="9.426994599577856"><ele>9.0</ele><time>2026-05-01T09:32:34Z</time></trkpt><trkpt lat="41.06447510780431" lon="9.427036994569344"><ele>9.0</ele><time>2026-05-01T09:32:36Z</time></trkpt><trkpt lat="41.06438808573118" lon="9.427095917345513"><ele>9.0</ele><time>2026-05-01T09:32:44Z</time></trkpt><trkpt lat="41.06429922957064" lon="9.427135381233914"><ele>9.0</ele><time>2026-05-01T09:32:45Z</time></trkpt><trkpt lat="41.06419137184789" lon="9.427208492811483"><ele>9.25</ele><time>2026-05-01T09:32:46Z</time></trkpt><trkpt lat="41.0640822273221" lon="9.427278978786847"><ele>9.5</ele><time>2026-05-01T09:32:47Z</time></trkpt><trkpt lat="41.063985783930505" lon="9.427340382144317"><ele>9.75</ele><time>2026-05-01T09:32:48Z</time></trkpt><trkpt lat="41.06387355797538" lon="9.427414203471168"><ele>10.0</ele><time>2026-05-01T09:32:49Z</time></trkpt><trkpt lat="41.06374633611934" lon="9.427503988578026"><ele>10.0</ele><time>2026-05-01T09:32:50Z</time></trkpt><trkpt lat="41.06359640788987" lon="9.427611202852113"><ele>10.0</ele><time>2026-05-01T09:32:51Z</time></trkpt><trkpt lat="41.06346110789936" lon="9.427707956527895"><ele>10.0</ele><time>2026-05-01T09:32:52Z</time></trkpt><trkpt lat="41.06333899088453" lon="9.427790863226916"><ele>10.333333333333334</ele><time>2026-05-01T09:32:53Z</time></trkpt><trkpt lat="41.063207863882376" lon="9.427863253838984"><ele>10.666666666666666</ele><time>2026-05-01T09:32:54Z</time></trkpt><trkpt lat="41.06305976344908" lon="9.427937086581588"><ele>11.0</ele><time>2026-05-01T09:32:55Z</time></trkpt><trkpt lat="41.06291977331967" lon="9.428008015012482"><ele>11.0</ele><time>2026-05-01T09:32:56Z</time></trkpt><trkpt lat="41.06279508148" lon="9.428072160867949"><ele>11.0</ele><time>2026-05-01T09:32:57Z</time></trkpt><trkpt lat="41.06268060125102" lon="9.428111174202767"><ele>11.0</ele><time>2026-05-01T09:32:58Z</time></trkpt><trkpt lat="41.06253936209455" lon="9.428113190732043"><ele>11.0</ele><time>2026-05-01T09:32:59Z</time></trkpt><trkpt lat="41.06235170143309" lon="9.428091523360257"><ele>11.333333333333332</ele><time>2026-05-01T09:33:00Z</time></trkpt><trkpt lat="41.0621590885288" lon="9.428089242596883"><ele>11.666666666666666</ele><time>2026-05-01T09:33:01.001Z</time></trkpt><trkpt lat="41.06198786220168" lon="9.4281144183275"><ele>12.0</ele><time>2026-05-01T09:33:02.001Z</time></trkpt><trkpt lat="41.06180690294632" lon="9.428143432246046"><ele>12.0</ele><time>2026-05-01T09:33:03.001Z</time></trkpt><trkpt lat="41.06164691290261" lon="9.428165125029528"><ele>12.0</ele><time>2026-05-01T09:33:04.001Z</time></trkpt><trkpt lat="41.061494058421395" lon="9.428185850315508"><ele>12.0</ele><time>2026-05-01T09:33:05.001Z</time></trkpt><trkpt lat="41.06133564921914" lon="9.42821087630776"><ele>12.25</ele><time>2026-05-01T09:33:06.001Z</time></trkpt><trkpt lat="41.061175887674786" lon="9.428236341854786"><ele>12.5</ele><time>2026-05-01T09:33:07.001Z</time></trkpt><trkpt lat="41.06103744502689" lon="9.428258073868696"><ele>12.75</ele><time>2026-05-01T09:33:08.001Z</time></trkpt><trkpt lat="41.06091677807971" lon="9.42827026503488"><ele>13.0</ele><time>2026-05-01T09:33:09.001Z</time></trkpt><trkpt lat="41.060784815800254" lon="9.428259649372418"><ele>13.0</ele><time>2026-05-01T09:33:10.001Z</time></trkpt><trkpt lat="41.06061532252115" lon="9.42823745550575"><ele>13.0</ele><time>2026-05-01T09:33:11.001Z</time></trkpt><trkpt lat="41.06042452231039" lon="9.428218810462281"><ele>13.0</ele><time>2026-05-01T09:33:12.001Z</time></trkpt><trkpt lat="41.060257129030724" lon="9.428202834637782"><ele>13.0</ele><time>2026-05-01T09:33:13.001Z</time></trkpt><trkpt lat="41.06013158503968" lon="9.42819526554086"><ele>13.0</ele><time>2026-05-01T09:33:14.001Z</time></trkpt><trkpt lat="41.06004469091588" lon="9.428204000319148"><ele>13.0</ele><time>2026-05-01T09:33:15.001Z</time></trkpt><trkpt lat="41.059967970361626" lon="9.428243961754992"><ele>13.0</ele><time>2026-05-01T09:33:16.001Z</time></trkpt><trkpt lat="41.05986941137766" lon="9.42833685194416"><ele>13.0</ele><time>2026-05-01T09:33:17.001Z</time></trkpt><trkpt lat="41.059751598173825" lon="9.428439394547802"><ele>13.2</ele><time>2026-05-01T09:33:18.001Z</time></trkpt><trkpt lat="41.0596754531951" lon="9.428533090126624"><ele>13.4</ele><time>2026-05-01T09:33:19.001Z</time></trkpt><trkpt lat="41.05963333669213" lon="9.428642277732624"><ele>13.599999999999998</ele><time>2026-05-01T09:33:20.001Z</time></trkpt><trkpt lat="41.05959859917286" lon="9.428740948020817"><ele>13.799999999999999</ele><time>2026-05-01T09:33:21.001Z</time></trkpt><trkpt lat="41.059565716906356" lon="9.428814149149122"><ele>14.0</ele><time>2026-05-01T09:33:22.001Z</time></trkpt><trkpt lat="41.059452295291855" lon="9.428774742279325"><ele>14.0</ele><time>2026-05-01T09:33:26.001Z</time></trkpt><trkpt lat="41.059382831633776" lon="9.42867824470462"><ele>14.0</ele><time>2026-05-01T09:33:27.001Z</time></trkpt><trkpt lat="41.059267112547644" lon="9.428592937441945"><ele>14.0</ele><time>2026-05-01T09:33:28.001Z</time></trkpt><trkpt lat="41.05914826417666" lon="9.428519674084711"><ele>14.0</ele><time>2026-05-01T09:33:29.001Z</time></trkpt><trkpt lat="41.059055950965075" lon="9.428469809012805"><ele>14.5</ele><time>2026-05-01T09:33:30.001Z</time></trkpt><trkpt lat="41.05894883023658" lon="9.428427716203409"><ele>15.0</ele><time>2026-05-01T09:33:31.001Z</time></trkpt><trkpt lat="41.058833084614584" lon="9.4284014304021"><ele>15.5</ele><time>2026-05-01T09:33:32.001Z</time></trkpt><trkpt lat="41.05871398416401" lon="9.428366430975416"><ele>16.0</ele><time>2026-05-01T09:33:33.001Z</time></trkpt><trkpt lat="41.05860922229632" lon="9.428278997424542"><ele>16.0</ele><time>2026-05-01T09:33:34.001Z</time></trkpt><trkpt lat="41.05848518828987" lon="9.428190048833052"><ele>16.0</ele><time>2026-05-01T09:33:35.001Z</time></trkpt><trkpt lat="41.058383082518915" lon="9.42810871319551"><ele>16.0</ele><time>2026-05-01T09:33:36.001Z</time></trkpt><trkpt lat="41.0583034918017" lon="9.428061810337617"><ele>16.0</ele><time>2026-05-01T09:33:37.001Z</time></trkpt><trkpt lat="41.05823650432686" lon="9.427994269629389"><ele>16.0</ele><time>2026-05-01T09:33:38.001Z</time></trkpt><trkpt lat="41.05812762466329" lon="9.427962599867877"><ele>16.0</ele><time>2026-05-01T09:33:39.001Z</time></trkpt><trkpt lat="41.05800211418328" lon="9.427908357640938"><ele>16.0</ele><time>2026-05-01T09:33:40.001Z</time></trkpt><trkpt lat="41.05789634002296" lon="9.427843990373985"><ele>16.0</ele><time>2026-05-01T09:33:41.001Z</time></trkpt><trkpt lat="41.057788152156604" lon="9.427827304171077"><ele>16.0</ele><time>2026-05-01T09:33:42.001Z</time></trkpt><trkpt lat="41.05766844104511" lon="9.427842337873463"><ele>16.0</ele><time>2026-05-01T09:33:43.001Z</time></trkpt><trkpt lat="41.05755863645378" lon="9.42779643071803"><ele>16.0</ele><time>2026-05-01T09:33:44.001Z</time></trkpt><trkpt lat="41.05746845061183" lon="9.427721266158537"><ele>16.0</ele><time>2026-05-01T09:33:45.001Z</time></trkpt><trkpt lat="41.05735702784761" lon="9.42762795803257"><ele>16.0</ele><time>2026-05-01T09:33:46.001Z</time></trkpt><trkpt lat="41.05727279558111" lon="9.427547539891984"><ele>16.400000000000002</ele><time>2026-05-01T09:33:47.001Z</time></trkpt><trkpt lat="41.057196960530376" lon="9.42750607716876"><ele>16.8</ele><time>2026-05-01T09:33:48.001Z</time></trkpt><trkpt lat="41.05711734347298" lon="9.427464753465266"><ele>17.200000000000003</ele><time>2026-05-01T09:33:49.001Z</time></trkpt><trkpt lat="41.05701608269148" lon="9.42740757465069"><ele>17.6</ele><time>2026-05-01T09:33:50.001Z</time></trkpt><trkpt lat="41.056889373534894" lon="9.427393590655537"><ele>18.0</ele><time>2026-05-01T09:33:51.001Z</time></trkpt><trkpt lat="41.056768507252954" lon="9.427362869781676"><ele>18.0</ele><time>2026-05-01T09:33:52.001Z</time></trkpt><trkpt lat="41.05667354172403" lon="9.427305239841763"><ele>18.0</ele><time>2026-05-01T09:33:53.001Z</time></trkpt><trkpt lat="41.05659511841123" lon="9.4272230807305"><ele>18.0</ele><time>2026-05-01T09:33:54.001Z</time></trkpt><trkpt lat="41.056507950087436" lon="9.427115286036157"><ele>18.0</ele><time>2026-05-01T09:33:55.001Z</time></trkpt><trkpt lat="41.056419376094546" lon="9.426989866323403"><ele>18.5</ele><time>2026-05-01T09:33:56.001Z</time></trkpt><trkpt lat="41.05635836382569" lon="9.426873875083372"><ele>19.0</ele><time>2026-05-01T09:33:57.001Z</time></trkpt><trkpt lat="41.056282412770834" lon="9.42678100128283"><ele>19.5</ele><time>2026-05-01T09:33:58.001Z</time></trkpt><trkpt lat="41.05619647004978" lon="9.42669272183239"><ele>20.0</ele><time>2026-05-01T09:33:59.001Z</time></trkpt><trkpt lat="41.056079471048044" lon="9.426587775864196"><ele>20.0</ele><time>2026-05-01T09:34:00.001Z</time></trkpt><trkpt lat="41.0559584793939" lon="9.42650019507557"><ele>20.0</ele><time>2026-05-01T09:34:01.001Z</time></trkpt><trkpt lat="41.055873781659436" lon="9.426419139637053"><ele>20.0</ele><time>2026-05-01T09:34:02.001Z</time></trkpt><trkpt lat="41.05580926865487" lon="9.426347645996225"><ele>20.0</ele><time>2026-05-01T09:34:03.001Z</time></trkpt><trkpt lat="41.05575892792325" lon="9.426266745504094"><ele>20.0</ele><time>2026-05-01T09:34:04.001Z</time></trkpt><trkpt lat="41.05570440337134" lon="9.426181272532597"><ele>20.166666666666668</ele><time>2026-05-01T09:34:05.001Z</time></trkpt><trkpt lat="41.05568994568583" lon="9.426093226626556"><ele>20.333333333333336</ele><time>2026-05-01T09:34:06.001Z</time></trkpt><trkpt lat="41.05566728649321" lon="9.425992053216273"><ele>20.5</ele><time>2026-05-01T09:34:07.001Z</time></trkpt><trkpt lat="41.05562507341635" lon="9.425886903044852"><ele>20.666666666666668</ele><time>2026-05-01T09:34:08.001Z</time></trkpt><trkpt lat="41.05560425617696" lon="9.425793290394028"><ele>20.833333333333332</ele><time>2026-05-01T09:34:09.001Z</time></trkpt><trkpt lat="41.055558918872" lon="9.425670425689573"><ele>21.0</ele><time>2026-05-01T09:34:11.001Z</time></trkpt><trkpt lat="41.05555220933383" lon="9.425571767534455"><ele>20.400000000000002</ele><time>2026-05-01T09:34:22.001Z</time></trkpt><trkpt lat="41.05555897432074" lon="9.425442394981538"><ele>19.8</ele><time>2026-05-01T09:34:24.001Z</time></trkpt><trkpt lat="41.0555401990916" lon="9.425349707410605"><ele>19.200000000000003</ele><time>2026-05-01T09:34:25.001Z</time></trkpt><trkpt lat="41.0554992305945" lon="9.4252559739829"><ele>18.6</ele><time>2026-05-01T09:34:26.001Z</time></trkpt><trkpt lat="41.05542786372321" lon="9.425164073368524"><ele>18.0</ele><time>2026-05-01T09:34:27.001Z</time></trkpt><trkpt lat="41.05536857282299" lon="9.425046526688554"><ele>18.0</ele><time>2026-05-01T09:34:28.001Z</time></trkpt><trkpt lat="41.05532962905483" lon="9.424932887618901"><ele>18.0</ele><time>2026-05-01T09:34:29.001Z</time></trkpt><trkpt lat="41.0552531298668" lon="9.424857433109922"><ele>18.0</ele><time>2026-05-01T09:34:30.001Z</time></trkpt><trkpt lat="41.055202240815106" lon="9.424770343729945"><ele>18.0</ele><time>2026-05-01T09:34:31.001Z</time></trkpt><trkpt lat="41.05515298299316" lon="9.424712650534765"><ele>18.0</ele><time>2026-05-01T09:34:32.001Z</time></trkpt><trkpt lat="41.05507279088107" lon="9.42461872567073"><ele>18.0</ele><time>2026-05-01T09:34:34.001Z</time></trkpt><trkpt lat="41.055016495998686" lon="9.424552963116572"><ele>18.0</ele><time>2026-05-01T09:34:35.001Z</time></trkpt><trkpt lat="41.054966035027896" lon="9.424495488162139"><ele>18.0</ele><time>2026-05-01T09:34:36.001Z</time></trkpt><trkpt lat="41.05486517002283" lon="9.42439654330886"><ele>18.0</ele><time>2026-05-01T09:34:38.001Z</time></trkpt><trkpt lat="41.05478223013406" lon="9.424324832821885"><ele>18.0</ele><time>2026-05-01T09:34:40.001Z</time></trkpt><trkpt lat="41.0547162712419" lon="9.42427029676112"><ele>18.0</ele><time>2026-05-01T09:34:42.001Z</time></trkpt><trkpt lat="41.05464034833505" lon="9.424239133736295"><ele>18.0</ele><time>2026-05-01T09:34:45.001Z</time></trkpt><trkpt lat="41.05457883736905" lon="9.424185120280788"><ele>18.0</ele><time>2026-05-01T09:37:00.001Z</time></trkpt><trkpt lat="41.05447503718607" lon="9.42412436161818"><ele>18.0</ele><time>2026-05-01T09:37:02.001Z</time></trkpt><trkpt lat="41.05442222116679" lon="9.424069171500767"><ele>18.0</ele><time>2026-05-01T09:37:03.001Z</time></trkpt><trkpt lat="41.05434829352832" lon="9.424043712313642"><ele>18.0</ele><time>2026-05-01T09:37:04.001Z</time></trkpt><trkpt lat="41.054293464294034" lon="9.42399047020272"><ele>18.0</ele><time>2026-05-01T09:37:05.001Z</time></trkpt><trkpt lat="41.05423403735165" lon="9.423954396834024"><ele>18.0</ele><time>2026-05-01T09:37:06.001Z</time></trkpt><trkpt lat="41.05411265715295" lon="9.423880716467218"><ele>18.0</ele><time>2026-05-01T09:37:08.001Z</time></trkpt><trkpt lat="41.05404264538415" lon="9.423838685770859"><ele>18.0</ele><time>2026-05-01T09:37:09.001Z</time></trkpt><trkpt lat="41.05394757656317" lon="9.423782553377553"><ele>18.0</ele><time>2026-05-01T09:37:11.001Z</time></trkpt><trkpt lat="41.05383637289157" lon="9.423717541904148"><ele>18.0</ele><time>2026-05-01T09:37:13.001Z</time></trkpt><trkpt lat="41.053742770998944" lon="9.423663479175891"><ele>18.0</ele><time>2026-05-01T09:37:15.001Z</time></trkpt><trkpt lat="41.05368210870036" lon="9.423628441657277"><ele>18.0</ele><time>2026-05-01T09:37:16.001Z</time></trkpt><trkpt lat="41.05362190102119" lon="9.423594242731442"><ele>18.0</ele><time>2026-05-01T09:37:17.001Z</time></trkpt><trkpt lat="41.05352077302292" lon="9.423537403481623"><ele>18.0</ele><time>2026-05-01T09:37:19.001Z</time></trkpt><trkpt lat="41.05343482254483" lon="9.4235118697628"><ele>18.0</ele><time>2026-05-01T09:37:21.001Z</time></trkpt><trkpt lat="41.05332203705929" lon="9.423455970149618"><ele>18.0</ele><time>2026-05-01T09:37:30.001Z</time></trkpt><trkpt lat="41.05325243630058" lon="9.42341930788353"><ele>18.8</ele><time>2026-05-01T09:37:31.001Z</time></trkpt><trkpt lat="41.05314363362374" lon="9.423356912778145"><ele>19.6</ele><time>2026-05-01T09:37:33.001Z</time></trkpt><trkpt lat="41.053067677457484" lon="9.423321313766497"><ele>20.400000000000002</ele><time>2026-05-01T09:37:34.001Z</time></trkpt><trkpt lat="41.0530112587826" lon="9.423276891917682"><ele>21.200000000000003</ele><time>2026-05-01T09:37:35.001Z</time></trkpt><trkpt lat="41.05291084295591" lon="9.423208853038075"><ele>22.0</ele><time>2026-05-01T09:37:37.001Z</time></trkpt><trkpt lat="41.052830359228615" lon="9.423147282543532"><ele>22.0</ele><time>2026-05-01T09:37:38.001Z</time></trkpt><trkpt lat="41.052741204777256" lon="9.423080319385436"><ele>22.0</ele><time>2026-05-01T09:37:39.001Z</time></trkpt><trkpt lat="41.05265010227117" lon="9.423014244710746"><ele>22.0</ele><time>2026-05-01T09:37:40.001Z</time></trkpt><trkpt lat="41.05256571033486" lon="9.422962851665742"><ele>22.0</ele><time>2026-05-01T09:37:41.001Z</time></trkpt><trkpt lat="41.052487819391445" lon="9.42296072436572"><ele>22.0</ele><time>2026-05-01T09:37:42.001Z</time></trkpt><trkpt lat="41.05243437806537" lon="9.422908506778837"><ele>22.0</ele><time>2026-05-01T09:37:43.001Z</time></trkpt><trkpt lat="41.05238030866687" lon="9.42285212481803"><ele>22.0</ele><time>2026-05-01T09:37:44.001Z</time></trkpt><trkpt lat="41.052290084181166" lon="9.42276199841973"><ele>22.0</ele><time>2026-05-01T09:37:45.001Z</time></trkpt><trkpt lat="41.05220405565429" lon="9.42267957129881"><ele>22.0</ele><time>2026-05-01T09:37:46.001Z</time></trkpt><trkpt lat="41.05212282764037" lon="9.422617725845479"><ele>22.0</ele><time>2026-05-01T09:37:47.001Z</time></trkpt><trkpt lat="41.05203709957385" lon="9.422589261655208"><ele>22.0</ele><time>2026-05-01T09:37:48.001Z</time></trkpt><trkpt lat="41.05195461243271" lon="9.422558615307345"><ele>22.0</ele><time>2026-05-01T09:37:49.001Z</time></trkpt><trkpt lat="41.05187330222518" lon="9.422503914848955"><ele>22.0</ele><time>2026-05-01T09:37:50.001Z</time></trkpt><trkpt lat="41.05180477260909" lon="9.422408882988368"><ele>22.0</ele><time>2026-05-01T09:37:51.001Z</time></trkpt><trkpt lat="41.05171442603984" lon="9.422291809086309"><ele>22.0</ele><time>2026-05-01T09:37:52.001Z</time></trkpt><trkpt lat="41.0516420598678" lon="9.422202403728049"><ele>22.0</ele><time>2026-05-01T09:37:53.001Z</time></trkpt><trkpt lat="41.051583227412024" lon="9.422140512944225"><ele>21.666666666666664</ele><time>2026-05-01T09:37:54.001Z</time></trkpt><trkpt lat="41.05151765124362" lon="9.422085901640079"><ele>21.333333333333332</ele><time>2026-05-01T09:37:55.001Z</time></trkpt><trkpt lat="41.05144385314027" lon="9.422032060400255"><ele>21.0</ele><time>2026-05-01T09:37:56.001Z</time></trkpt><trkpt lat="41.051361121652164" lon="9.42197258076789"><ele>20.666666666666668</ele><time>2026-05-01T09:37:57.001Z</time></trkpt><trkpt lat="41.0512806833673" lon="9.421916231511808"><ele>20.333333333333336</ele><time>2026-05-01T09:37:58.001Z</time></trkpt><trkpt lat="41.05120848002352" lon="9.421869035548717"><ele>20.0</ele><time>2026-05-01T09:37:59.001Z</time></trkpt><trkpt lat="41.051118356474745" lon="9.421819204906779"><ele>20.0</ele><time>2026-05-01T09:38:00.001Z</time></trkpt><trkpt lat="41.05103510535064" lon="9.421764975560622"><ele>20.0</ele><time>2026-05-01T09:38:01.001Z</time></trkpt><trkpt lat="41.05095629904568" lon="9.421710025448734"><ele>20.0</ele><time>2026-05-01T09:38:02.001Z</time></trkpt><trkpt lat="41.05087405018781" lon="9.421641310727484"><ele>20.0</ele><time>2026-05-01T09:38:03.001Z</time></trkpt><trkpt lat="41.05079778927485" lon="9.42155862369834"><ele>20.0</ele><time>2026-05-01T09:38:04.001Z</time></trkpt><trkpt lat="41.05070725547578" lon="9.421452454608108"><ele>20.0</ele><time>2026-05-01T09:38:05.001Z</time></trkpt><trkpt lat="41.05062314024543" lon="9.42134711795967"><ele>20.0</ele><time>2026-05-01T09:38:06.001Z</time></trkpt><trkpt lat="41.050547611657656" lon="9.421283814972746"><ele>20.0</ele><time>2026-05-01T09:38:07.001Z</time></trkpt><trkpt lat="41.050442227968084" lon="9.421209085078512"><ele>20.0</ele><time>2026-05-01T09:38:09.001Z</time></trkpt><trkpt lat="41.05035990246854" lon="9.421158357690476"><ele>20.0</ele><time>2026-05-01T09:38:10.001Z</time></trkpt><trkpt lat="41.05024131603468" lon="9.421146844217647"><ele>20.0</ele><time>2026-05-01T09:38:11.001Z</time></trkpt><trkpt lat="41.050122357502005" lon="9.421166590635217"><ele>20.0</ele><time>2026-05-01T09:38:12.001Z</time></trkpt><trkpt lat="41.05004577691466" lon="9.421172675667883"><ele>20.0</ele><time>2026-05-01T09:38:13.001Z</time></trkpt><trkpt lat="41.04997227601484" lon="9.421179877998162"><ele>20.0</ele><time>2026-05-01T09:38:14.001Z</time></trkpt><trkpt lat="41.04988604395648" lon="9.421197869496254"><ele>20.0</ele><time>2026-05-01T09:38:15.001Z</time></trkpt><trkpt lat="41.04980982719869" lon="9.421233511954057"><ele>20.0</ele><time>2026-05-01T09:38:16.001Z</time></trkpt><trkpt lat="41.049741293542" lon="9.42124328958475"><ele>20.6</ele><time>2026-05-01T09:38:17.001Z</time></trkpt><trkpt lat="41.04961131367201" lon="9.421163103144163"><ele>21.2</ele><time>2026-05-01T09:38:19.001Z</time></trkpt><trkpt lat="41.04954187182584" lon="9.421155613436019"><ele>21.799999999999997</ele><time>2026-05-01T09:38:20.001Z</time></trkpt><trkpt lat="41.04945740466857" lon="9.421169493916164"><ele>22.4</ele><time>2026-05-01T09:38:21.001Z</time></trkpt><trkpt lat="41.04938192494663" lon="9.421157261773201"><ele>23.0</ele><time>2026-05-01T09:38:22.001Z</time></trkpt><trkpt lat="41.04928885605918" lon="9.421120036149869"><ele>23.0</ele><time>2026-05-01T09:38:23.001Z</time></trkpt><trkpt lat="41.04920747436259" lon="9.421104288433328"><ele>23.0</ele><time>2026-05-01T09:38:24.001Z</time></trkpt><trkpt lat="41.04913548361061" lon="9.421114377804951"><ele>23.0</ele><time>2026-05-01T09:38:25.001Z</time></trkpt><trkpt lat="41.04906746387907" lon="9.421163331885053"><ele>23.0</ele><time>2026-05-01T09:38:26.001Z</time></trkpt><trkpt lat="41.04898001689747" lon="9.421220048344583"><ele>23.0</ele><time>2026-05-01T09:38:27.001Z</time></trkpt><trkpt lat="41.048873847574306" lon="9.421282954414636"><ele>23.0</ele><time>2026-05-01T09:38:28.001Z</time></trkpt><trkpt lat="41.04876906302828" lon="9.4213358513401"><ele>22.75</ele><time>2026-05-01T09:38:29.001Z</time></trkpt><trkpt lat="41.04867354548834" lon="9.421351088141385"><ele>22.5</ele><time>2026-05-01T09:38:30.001Z</time></trkpt><trkpt lat="41.04857847991982" lon="9.421354919528087"><ele>22.25</ele><time>2026-05-01T09:38:31.001Z</time></trkpt><trkpt lat="41.048458972883516" lon="9.421350852214957"><ele>22.0</ele><time>2026-05-01T09:38:32Z</time></trkpt><trkpt lat="41.048316059924275" lon="9.421324890112512"><ele>23.25</ele><time>2026-05-01T09:38:33Z</time></trkpt><trkpt lat="41.04817857534009" lon="9.421275422625895"><ele>24.5</ele><time>2026-05-01T09:38:34Z</time></trkpt><trkpt lat="41.04804741048979" lon="9.421224381408793"><ele>25.75</ele><time>2026-05-01T09:38:35Z</time></trkpt><trkpt lat="41.047921114338905" lon="9.421156933274037"><ele>27.0</ele><time>2026-05-01T09:38:36Z</time></trkpt><trkpt lat="41.04778100232103" lon="9.42106206842019"><ele>27.0</ele><time>2026-05-01T09:38:37Z</time></trkpt><trkpt lat="41.0476327885949" lon="9.420956896290223"><ele>27.0</ele><time>2026-05-01T09:38:38Z</time></trkpt><trkpt lat="41.04752626933888" lon="9.42088131033818"><ele>27.0</ele><time>2026-05-01T09:38:39Z</time></trkpt><trkpt lat="41.04743640977464" lon="9.420817546300482"><ele>27.0</ele><time>2026-05-01T09:38:40Z</time></trkpt><trkpt lat="41.04729746643632" lon="9.42072009804416"><ele>27.0</ele><time>2026-05-01T09:38:41Z</time></trkpt><trkpt lat="41.04713576071842" lon="9.420609302068433"><ele>27.0</ele><time>2026-05-01T09:38:42Z</time></trkpt><trkpt lat="41.04698972558841" lon="9.420495983869948"><ele>27.0</ele><time>2026-05-01T09:38:43Z</time></trkpt><trkpt lat="41.04683397046689" lon="9.420360430810975"><ele>28.0</ele><time>2026-05-01T09:38:44Z</time></trkpt><trkpt lat="41.046684602744186" lon="9.420233664136285"><ele>29.0</ele><time>2026-05-01T09:38:45Z</time></trkpt><trkpt lat="41.046574102240356" lon="9.420134728149472"><ele>30.0</ele><time>2026-05-01T09:38:46Z</time></trkpt><trkpt lat="41.0465075455423" lon="9.420072429205522"><ele>31.0</ele><time>2026-05-01T09:38:47Z</time></trkpt><trkpt lat="41.046467329662796" lon="9.41998045617857"><ele>32.333333333333336</ele><time>2026-05-01T09:38:48Z</time></trkpt><trkpt lat="41.04630723448282" lon="9.41994608143822"><ele>33.666666666666664</ele><time>2026-05-01T09:38:49Z</time></trkpt><trkpt lat="41.046165627708426" lon="9.419832071982562"><ele>35.0</ele><time>2026-05-01T09:38:50Z</time></trkpt><trkpt lat="41.0459920218669" lon="9.419698602808396"><ele>35.0</ele><time>2026-05-01T09:38:51Z</time></trkpt><trkpt lat="41.045840633674246" lon="9.41957714127163"><ele>35.0</ele><time>2026-05-01T09:38:52Z</time></trkpt><trkpt lat="41.045730433495585" lon="9.419453050467665"><ele>35.0</ele><time>2026-05-01T09:38:53Z</time></trkpt><trkpt lat="41.045633572569194" lon="9.419377906138052"><ele>35.0</ele><time>2026-05-01T09:38:54Z</time></trkpt><trkpt lat="41.04556176873204" lon="9.419323108041695"><ele>35.6</ele><time>2026-05-01T09:38:55Z</time></trkpt><trkpt lat="41.045467410075474" lon="9.419252075209396"><ele>36.2</ele><time>2026-05-01T09:38:57Z</time></trkpt><trkpt lat="41.04537133727187" lon="9.419168693102165"><ele>36.8</ele><time>2026-05-01T09:38:59Z</time></trkpt><trkpt lat="41.045300370387686" lon="9.419095759173556"><ele>37.4</ele><time>2026-05-01T09:44:31Z</time></trkpt><trkpt lat="41.04523949744166" lon="9.419043306738532"><ele>38.0</ele><time>2026-05-01T09:44:32Z</time></trkpt><trkpt lat="41.04517761208321" lon="9.419016234790716"><ele>38.0</ele><time>2026-05-01T09:44:33Z</time></trkpt><trkpt lat="41.04508256756558" lon="9.418917527955085"><ele>38.0</ele><time>2026-05-01T09:44:35Z</time></trkpt><trkpt lat="41.04502813496368" lon="9.418874898353181"><ele>38.0</ele><time>2026-05-01T09:44:36Z</time></trkpt><trkpt lat="41.04498264193502" lon="9.418803573388347"><ele>38.0</ele><time>2026-05-01T09:44:37Z</time></trkpt><trkpt lat="41.044930503517975" lon="9.418752322287474"><ele>38.0</ele><time>2026-05-01T09:44:38Z</time></trkpt><trkpt lat="41.04487873827765" lon="9.41870115903847"><ele>38.0</ele><time>2026-05-01T09:44:39.001Z</time></trkpt><trkpt lat="41.0448184520207" lon="9.418644551698783"><ele>38.166666666666664</ele><time>2026-05-01T09:44:40.001Z</time></trkpt><trkpt lat="41.04476031699798" lon="9.418590982765439"><ele>38.33333333333333</ele><time>2026-05-01T09:44:41.001Z</time></trkpt><trkpt lat="41.04470047351183" lon="9.418561687991149"><ele>38.5</ele><time>2026-05-01T09:44:42.001Z</time></trkpt><trkpt lat="41.04464130194362" lon="9.418475248325384"><ele>38.666666666666664</ele><time>2026-05-01T09:44:44.001Z</time></trkpt><trkpt lat="41.044581557102724" lon="9.418415612959372"><ele>38.833333333333336</ele><time>2026-05-01T09:44:59Z</time></trkpt><trkpt lat="41.04451355573504" lon="9.41835102738073"><ele>39.0</ele><time>2026-05-01T09:45:00Z</time></trkpt><trkpt lat="41.04442951591333" lon="9.418273781368658"><ele>39.0</ele><time>2026-05-01T09:45:01Z</time></trkpt><trkpt lat="41.04433838841552" lon="9.418183882571292"><ele>39.0</ele><time>2026-05-01T09:45:02Z</time></trkpt><trkpt lat="41.04422674917399" lon="9.418070041781036"><ele>39.0</ele><time>2026-05-01T09:45:03Z</time></trkpt><trkpt lat="41.044103399091284" lon="9.417949358712463"><ele>39.0</ele><time>2026-05-01T09:45:04Z</time></trkpt><trkpt lat="41.04397671633103" lon="9.417832495532702"><ele>39.5</ele><time>2026-05-01T09:45:05Z</time></trkpt><trkpt lat="41.043859709515" lon="9.417746174944112"><ele>40.0</ele><time>2026-05-01T09:45:06Z</time></trkpt><trkpt lat="41.04374480766313" lon="9.41768865099193"><ele>40.5</ele><time>2026-05-01T09:45:07Z</time></trkpt><trkpt lat="41.04363860822757" lon="9.417659186109187"><ele>41.0</ele><time>2026-05-01T09:45:08Z</time></trkpt><trkpt lat="41.04353881923318" lon="9.417643910985323"><ele>41.0</ele><time>2026-05-01T09:45:09Z</time></trkpt><trkpt lat="41.04342331553868" lon="9.417632767244179"><ele>41.0</ele><time>2026-05-01T09:45:10Z</time></trkpt><trkpt lat="41.04329638534572" lon="9.417631555291102"><ele>41.0</ele><time>2026-05-01T09:45:11Z</time></trkpt><trkpt lat="41.04315589218895" lon="9.417626262593812"><ele>41.0</ele><time>2026-05-01T09:45:12Z</time></trkpt><trkpt lat="41.04301197943885" lon="9.41761274549296"><ele>42.5</ele><time>2026-05-01T09:45:13Z</time></trkpt><trkpt lat="41.042909387578746" lon="9.41759662556108"><ele>44.0</ele><time>2026-05-01T09:45:14Z</time></trkpt><trkpt lat="41.04283386964833" lon="9.417554330535673"><ele>45.5</ele><time>2026-05-01T09:45:15Z</time></trkpt><trkpt lat="41.042736968977536" lon="9.417472727898812"><ele>47.0</ele><time>2026-05-01T09:45:16Z</time></trkpt><trkpt lat="41.04260345689007" lon="9.417365754429046"><ele>47.0</ele><time>2026-05-01T09:45:17Z</time></trkpt><trkpt lat="41.042467475419926" lon="9.41725827917864"><ele>47.0</ele><time>2026-05-01T09:45:18Z</time></trkpt><trkpt lat="41.042365708862306" lon="9.417197275070153"><ele>47.0</ele><time>2026-05-01T09:45:19Z</time></trkpt><trkpt lat="41.04226726995889" lon="9.417180826161104"><ele>47.0</ele><time>2026-05-01T09:45:20Z</time></trkpt><trkpt lat="41.04214086162545" lon="9.417164159217107"><ele>45.666666666666664</ele><time>2026-05-01T09:45:21Z</time></trkpt><trkpt lat="41.041964219933476" lon="9.417131958297857"><ele>44.333333333333336</ele><time>2026-05-01T09:45:22Z</time></trkpt><trkpt lat="41.04177783950898" lon="9.417099681171376"><ele>43.0</ele><time>2026-05-01T09:45:23Z</time></trkpt><trkpt lat="41.04158361461019" lon="9.417051840382493"><ele>43.0</ele><time>2026-05-01T09:45:24Z</time></trkpt><trkpt lat="41.041447989226626" lon="9.417006899315858"><ele>43.0</ele><time>2026-05-01T09:45:25Z</time></trkpt><trkpt lat="41.0413549332934" lon="9.416963500168896"><ele>43.0</ele><time>2026-05-01T09:45:26Z</time></trkpt><trkpt lat="41.04128500166192" lon="9.416920868318417"><ele>43.0</ele><time>2026-05-01T09:45:27Z</time></trkpt><trkpt lat="41.041194125242136" lon="9.416823426345847"><ele>43.0</ele><time>2026-05-01T09:45:29Z</time></trkpt><trkpt lat="41.04115131860431" lon="9.416700444956902"><ele>43.0</ele><time>2026-05-01T09:45:30Z</time></trkpt><trkpt lat="41.041075137182204" lon="9.416535997404846"><ele>43.0</ele><time>2026-05-01T09:45:31Z</time></trkpt><trkpt lat="41.04099174617773" lon="9.416366389563388"><ele>43.0</ele><time>2026-05-01T09:45:32Z</time></trkpt><trkpt lat="41.04092351554963" lon="9.416226995369533"><ele>43.0</ele><time>2026-05-01T09:45:33Z</time></trkpt><trkpt lat="41.040865031535255" lon="9.416103987019072"><ele>43.0</ele><time>2026-05-01T09:45:34Z</time></trkpt><trkpt lat="41.040801935215406" lon="9.415972012162474"><ele>43.0</ele><time>2026-05-01T09:45:35Z</time></trkpt><trkpt lat="41.04073906675454" lon="9.41583832883925"><ele>43.0</ele><time>2026-05-01T09:45:36Z</time></trkpt><trkpt lat="41.04067287038217" lon="9.415687994445245"><ele>43.0</ele><time>2026-05-01T09:45:37Z</time></trkpt><trkpt lat="41.04060198899755" lon="9.415535955001747"><ele>43.0</ele><time>2026-05-01T09:45:38Z</time></trkpt><trkpt lat="41.040535207054425" lon="9.415406518672384"><ele>43.0</ele><time>2026-05-01T09:45:39Z</time></trkpt><trkpt lat="41.040460012067456" lon="9.41528399720798"><ele>43.0</ele><time>2026-05-01T09:45:40Z</time></trkpt><trkpt lat="41.040363327880684" lon="9.41515806626999"><ele>43.0</ele><time>2026-05-01T09:45:41Z</time></trkpt><trkpt lat="41.040239312056876" lon="9.415014164771005"><ele>43.0</ele><time>2026-05-01T09:45:42Z</time></trkpt><trkpt lat="41.040110861331065" lon="9.414883247403314"><ele>43.0</ele><time>2026-05-01T09:45:43Z</time></trkpt><trkpt lat="41.04001543977108" lon="9.4147684868136"><ele>43.0</ele><time>2026-05-01T09:45:44Z</time></trkpt><trkpt lat="41.03991840586766" lon="9.414653568937958"><ele>43.0</ele><time>2026-05-01T09:45:45Z</time></trkpt><trkpt lat="41.03981915832362" lon="9.414534952705585"><ele>43.0</ele><time>2026-05-01T09:45:46Z</time></trkpt><trkpt lat="41.03969378801194" lon="9.414426103174963"><ele>43.0</ele><time>2026-05-01T09:45:47Z</time></trkpt><trkpt lat="41.03954635598676" lon="9.414322473772343"><ele>43.0</ele><time>2026-05-01T09:45:48Z</time></trkpt><trkpt lat="41.0394118851098" lon="9.414232953207344"><ele>43.0</ele><time>2026-05-01T09:45:49Z</time></trkpt><trkpt lat="41.039281115735" lon="9.414151488672188"><ele>43.0</ele><time>2026-05-01T09:45:50Z</time></trkpt><trkpt lat="41.03917024186809" lon="9.414077702863317"><ele>43.0</ele><time>2026-05-01T09:45:51Z</time></trkpt><trkpt lat="41.03906976315231" lon="9.413982787072047"><ele>43.0</ele><time>2026-05-01T09:45:52Z</time></trkpt><trkpt lat="41.03896744814425" lon="9.413876729054591"><ele>44.0</ele><time>2026-05-01T09:45:53Z</time></trkpt><trkpt lat="41.038867002213536" lon="9.413772607568488"><ele>45.0</ele><time>2026-05-01T09:45:54Z</time></trkpt><trkpt lat="41.03876905562928" lon="9.413667760827066"><ele>46.0</ele><time>2026-05-01T09:45:55Z</time></trkpt><trkpt lat="41.038666370608134" lon="9.413555365943253"><ele>47.0</ele><time>2026-05-01T09:45:56Z</time></trkpt><trkpt lat="41.038572845619385" lon="9.413452997927026"><ele>47.0</ele><time>2026-05-01T09:45:57Z</time></trkpt><trkpt lat="41.038480512095134" lon="9.413352079645986"><ele>47.0</ele><time>2026-05-01T09:45:58Z</time></trkpt><trkpt lat="41.03838192473328" lon="9.413243671497284"><ele>47.0</ele><time>2026-05-01T09:45:59Z</time></trkpt><trkpt lat="41.03827497688825" lon="9.413135574615858"><ele>47.0</ele><time>2026-05-01T09:46:00Z</time></trkpt><trkpt lat="41.03817545935302" lon="9.413029065801625"><ele>50.0</ele><time>2026-05-01T09:46:01Z</time></trkpt><trkpt lat="41.038071861826666" lon="9.412913953356174"><ele>53.0</ele><time>2026-05-01T09:46:02Z</time></trkpt><trkpt lat="41.037969012857594" lon="9.412796485966707"><ele>56.0</ele><time>2026-05-01T09:46:03Z</time></trkpt><trkpt lat="41.03786888089203" lon="9.41268257272216"><ele>59.0</ele><time>2026-05-01T09:46:04Z</time></trkpt><trkpt lat="41.037773648046176" lon="9.412594743218628"><ele>59.0</ele><time>2026-05-01T09:46:05Z</time></trkpt><trkpt lat="41.03772766425351" lon="9.412471627032973"><ele>59.00000000000001</ele><time>2026-05-01T09:46:06Z</time></trkpt><trkpt lat="41.037681512643566" lon="9.412372636959683"><ele>59.00000000000001</ele><time>2026-05-01T09:46:07Z</time></trkpt><trkpt lat="41.0376302256529" lon="9.412271031750342"><ele>59.0</ele><time>2026-05-01T09:46:08Z</time></trkpt><trkpt lat="41.03755933875416" lon="9.412167065889529"><ele>59.0</ele><time>2026-05-01T09:46:09Z</time></trkpt><trkpt lat="41.03750316749646" lon="9.41204166740535"><ele>59.0</ele><time>2026-05-01T09:46:10Z</time></trkpt><trkpt lat="41.03744430157747" lon="9.411905642597748"><ele>59.0</ele><time>2026-05-01T09:46:11Z</time></trkpt><trkpt lat="41.03737202061229" lon="9.411780128307791"><ele>59.0</ele><time>2026-05-01T09:46:12Z</time></trkpt><trkpt lat="41.03730836189931" lon="9.41164785422416"><ele>59.0</ele><time>2026-05-01T09:46:13Z</time></trkpt><trkpt lat="41.03724383978207" lon="9.411511381019285"><ele>59.0</ele><time>2026-05-01T09:46:14Z</time></trkpt><trkpt lat="41.03717690833021" lon="9.411382779703024"><ele>59.00000000000001</ele><time>2026-05-01T09:46:15Z</time></trkpt><trkpt lat="41.03712085014916" lon="9.411272435959347"><ele>59.00000000000001</ele><time>2026-05-01T09:46:16Z</time></trkpt><trkpt lat="41.03707608021988" lon="9.411173452870445"><ele>59.0</ele><time>2026-05-01T09:46:17Z</time></trkpt><trkpt lat="41.03700528836418" lon="9.411100689116132"><ele>59.0</ele><time>2026-05-01T09:46:18Z</time></trkpt><trkpt lat="41.03688523392546" lon="9.411043374790875"><ele>57.0</ele><time>2026-05-01T09:46:19Z</time></trkpt><trkpt lat="41.03674976724475" lon="9.410990184824369"><ele>55.0</ele><time>2026-05-01T09:46:20Z</time></trkpt><trkpt lat="41.03662145617873" lon="9.410892365848666"><ele>53.0</ele><time>2026-05-01T09:46:21Z</time></trkpt><trkpt lat="41.03648771919739" lon="9.410765295218782"><ele>53.0</ele><time>2026-05-01T09:46:22Z</time></trkpt><trkpt lat="41.03634685948849" lon="9.410622480184667"><ele>53.0</ele><time>2026-05-01T09:46:23Z</time></trkpt><trkpt lat="41.036201386936085" lon="9.410480846118405"><ele>53.0</ele><time>2026-05-01T09:46:24Z</time></trkpt><trkpt lat="41.036075099915166" lon="9.410360588976122"><ele>53.0</ele><time>2026-05-01T09:46:25Z</time></trkpt><trkpt lat="41.035963150346895" lon="9.410245308682706"><ele>53.0</ele><time>2026-05-01T09:46:26Z</time></trkpt><trkpt lat="41.03586197624005" lon="9.410109041385379"><ele>53.0</ele><time>2026-05-01T09:46:27Z</time></trkpt><trkpt lat="41.03577864588843" lon="9.409980887222861"><ele>53.0</ele><time>2026-05-01T09:46:28Z</time></trkpt><trkpt lat="41.035708034185156" lon="9.409868414046366"><ele>53.2</ele><time>2026-05-01T09:46:29Z</time></trkpt><trkpt lat="41.035626180762954" lon="9.40976349226112"><ele>53.4</ele><time>2026-05-01T09:46:30Z</time></trkpt><trkpt lat="41.035574948406165" lon="9.409614163150577"><ele>53.60000000000001</ele><time>2026-05-01T09:46:31Z</time></trkpt><trkpt lat="41.03557013012862" lon="9.4094970934978"><ele>53.800000000000004</ele><time>2026-05-01T09:46:32Z</time></trkpt><trkpt lat="41.035540234188986" lon="9.409410542490857"><ele>54.0</ele><time>2026-05-01T09:46:33Z</time></trkpt><trkpt lat="41.035527115710316" lon="9.409310937700251"><ele>54.25</ele><time>2026-05-01T09:46:35Z</time></trkpt><trkpt lat="41.0353851771789" lon="9.409258576914295"><ele>54.5</ele><time>2026-05-01T09:46:37Z</time></trkpt><trkpt lat="41.03530350954531" lon="9.409267176469726"><ele>54.75</ele><time>2026-05-01T09:46:38Z</time></trkpt><trkpt lat="41.03519719291681" lon="9.40926746262172"><ele>55.0</ele><time>2026-05-01T09:46:39Z</time></trkpt><trkpt lat="41.03505399904989" lon="9.4092634837776"><ele>55.2</ele><time>2026-05-01T09:46:40Z</time></trkpt><trkpt lat="41.03493579055945" lon="9.409259556426312"><ele>55.4</ele><time>2026-05-01T09:46:41Z</time></trkpt><trkpt lat="41.0348394101739" lon="9.40925386811265"><ele>55.599999999999994</ele><time>2026-05-01T09:46:42Z</time></trkpt><trkpt lat="41.03473556854444" lon="9.40924401537932"><ele>55.8</ele><time>2026-05-01T09:46:43Z</time></trkpt><trkpt lat="41.03462243165906" lon="9.409231275123222"><ele>56.0</ele><time>2026-05-01T09:46:44Z</time></trkpt><trkpt lat="41.034517762141505" lon="9.409219065727031"><ele>56.0</ele><time>2026-05-01T09:46:45Z</time></trkpt><trkpt lat="41.03439656352649" lon="9.409206509975713"><ele>56.0</ele><time>2026-05-01T09:46:46Z</time></trkpt><trkpt lat="41.03427863287948" lon="9.409198810349995"><ele>56.0</ele><time>2026-05-01T09:46:47Z</time></trkpt><trkpt lat="41.03415219292011" lon="9.409190392635601"><ele>56.0</ele><time>2026-05-01T09:46:48Z</time></trkpt><trkpt lat="41.03403279724097" lon="9.4091794145106"><ele>56.199999999999996</ele><time>2026-05-01T09:46:49Z</time></trkpt><trkpt lat="41.03393272021583" lon="9.409168603951775"><ele>56.39999999999999</ele><time>2026-05-01T09:46:50Z</time></trkpt><trkpt lat="41.03383314455073" lon="9.40915688918265"><ele>56.6</ele><time>2026-05-01T09:46:51Z</time></trkpt><trkpt lat="41.03371948216332" lon="9.40915905888736"><ele>56.8</ele><time>2026-05-01T09:46:52Z</time></trkpt><trkpt lat="41.03359719403171" lon="9.409204386054515"><ele>57.0</ele><time>2026-05-01T09:46:53Z</time></trkpt><trkpt lat="41.03348200340497" lon="9.409268872890909"><ele>57.0</ele><time>2026-05-01T09:46:54Z</time></trkpt><trkpt lat="41.03335088725754" lon="9.409338414360988"><ele>57.0</ele><time>2026-05-01T09:46:55Z</time></trkpt><trkpt lat="41.03321076908006" lon="9.409418327681308"><ele>57.0</ele><time>2026-05-01T09:46:56Z</time></trkpt><trkpt lat="41.033093933814285" lon="9.409474772567481"><ele>57.0</ele><time>2026-05-01T09:46:57Z</time></trkpt><trkpt lat="41.032983352972025" lon="9.409541821881882"><ele>58.5</ele><time>2026-05-01T09:46:58Z</time></trkpt><trkpt lat="41.03287451647066" lon="9.409640213640722"><ele>60.0</ele><time>2026-05-01T09:46:59Z</time></trkpt><trkpt lat="41.03278179797882" lon="9.4097857812004"><ele>61.5</ele><time>2026-05-01T09:47:00Z</time></trkpt><trkpt lat="41.032694826893305" lon="9.40993698444557"><ele>63.0</ele><time>2026-05-01T09:47:01Z</time></trkpt><trkpt lat="41.03260009424039" lon="9.410087624452812"><ele>63.0</ele><time>2026-05-01T09:47:02Z</time></trkpt><trkpt lat="41.032506095870055" lon="9.410243071147644"><ele>63.0</ele><time>2026-05-01T09:47:03Z</time></trkpt><trkpt lat="41.032412480287576" lon="9.410386632113847"><ele>63.0</ele><time>2026-05-01T09:47:04Z</time></trkpt><trkpt lat="41.03230391968997" lon="9.410496242886728"><ele>63.0</ele><time>2026-05-01T09:47:05Z</time></trkpt><trkpt lat="41.03217522899643" lon="9.410624611723284"><ele>64.0</ele><time>2026-05-01T09:47:06Z</time></trkpt><trkpt lat="41.03203320803063" lon="9.410768883399143"><ele>65.0</ele><time>2026-05-01T09:47:07Z</time></trkpt><trkpt lat="41.03188594806558" lon="9.410923855915035"><ele>66.0</ele><time>2026-05-01T09:47:08Z</time></trkpt><trkpt lat="41.03174314457707" lon="9.411074138645741"><ele>67.33333333333333</ele><time>2026-05-01T09:47:09Z</time></trkpt><trkpt lat="41.031606045157965" lon="9.411218418556361"><ele>68.66666666666666</ele><time>2026-05-01T09:47:10Z</time></trkpt><trkpt lat="41.031478271682076" lon="9.411353260242185"><ele>70.0</ele><time>2026-05-01T09:47:11Z</time></trkpt><trkpt lat="41.0313605457339" lon="9.411480969609352"><ele>70.0</ele><time>2026-05-01T09:47:12Z</time></trkpt><trkpt lat="41.03124819051701" lon="9.411613864996118"><ele>70.0</ele><time>2026-05-01T09:47:13Z</time></trkpt><trkpt lat="41.031140346058386" lon="9.411743901656303"><ele>70.0</ele><time>2026-05-01T09:47:14Z</time></trkpt><trkpt lat="41.031033942254574" lon="9.411872201236783"><ele>70.0</ele><time>2026-05-01T09:47:15Z</time></trkpt><trkpt lat="41.03093104935268" lon="9.412006499269243"><ele>70.0</ele><time>2026-05-01T09:47:16Z</time></trkpt><trkpt lat="41.03083466763811" lon="9.412135829020272"><ele>70.0</ele><time>2026-05-01T09:47:17Z</time></trkpt><trkpt lat="41.03072973354008" lon="9.412231708331067"><ele>70.0</ele><time>2026-05-01T09:47:18Z</time></trkpt><trkpt lat="41.03060154651869" lon="9.412289824220366"><ele>70.0</ele><time>2026-05-01T09:47:19Z</time></trkpt><trkpt lat="41.03044996698998" lon="9.412354257465422"><ele>69.0</ele><time>2026-05-01T09:47:20Z</time></trkpt><trkpt lat="41.03028897760146" lon="9.412416003535961"><ele>68.0</ele><time>2026-05-01T09:47:21Z</time></trkpt><trkpt lat="41.03012857477483" lon="9.41247319288003"><ele>67.0</ele><time>2026-05-01T09:47:22Z</time></trkpt><trkpt lat="41.029988894963836" lon="9.41251040761964"><ele>67.33333333333333</ele><time>2026-05-01T09:47:23Z</time></trkpt><trkpt lat="41.02984128889548" lon="9.412536620925794"><ele>67.66666666666667</ele><time>2026-05-01T09:47:24Z</time></trkpt><trkpt lat="41.02969213868196" lon="9.412573899130644"><ele>68.0</ele><time>2026-05-01T09:47:25Z</time></trkpt><trkpt lat="41.0295450266286" lon="9.412654045648956"><ele>68.0</ele><time>2026-05-01T09:47:26Z</time></trkpt><trkpt lat="41.02941123522658" lon="9.412772614592345"><ele>68.0</ele><time>2026-05-01T09:47:27Z</time></trkpt><trkpt lat="41.029278380625705" lon="9.41289296097565"><ele>68.0</ele><time>2026-05-01T09:47:28Z</time></trkpt><trkpt lat="41.02915481750698" lon="9.413009959445919"><ele>67.75</ele><time>2026-05-01T09:47:29Z</time></trkpt><trkpt lat="41.02904388872229" lon="9.413118148417126"><ele>67.5</ele><time>2026-05-01T09:47:30Z</time></trkpt><trkpt lat="41.02893963136559" lon="9.41322488720486"><ele>67.25</ele><time>2026-05-01T09:47:31Z</time></trkpt><trkpt lat="41.02883751111308" lon="9.413338337049169"><ele>67.0</ele><time>2026-05-01T09:47:32Z</time></trkpt><trkpt lat="41.028735308661105" lon="9.41343428001696"><ele>67.0</ele><time>2026-05-01T09:47:33Z</time></trkpt><trkpt lat="41.02861932879402" lon="9.413508150497824"><ele>67.0</ele><time>2026-05-01T09:47:34Z</time></trkpt><trkpt lat="41.028482960602474" lon="9.413582745700415"><ele>67.0</ele><time>2026-05-01T09:47:35Z</time></trkpt><trkpt lat="41.02833478776984" lon="9.413615087800112"><ele>67.0</ele><time>2026-05-01T09:47:36Z</time></trkpt><trkpt lat="41.02817914041138" lon="9.413651450300497"><ele>67.25</ele><time>2026-05-01T09:47:37Z</time></trkpt><trkpt lat="41.02802731406693" lon="9.413681867039548"><ele>67.5</ele><time>2026-05-01T09:47:38Z</time></trkpt><trkpt lat="41.02787818394416" lon="9.413718622352262"><ele>67.75</ele><time>2026-05-01T09:47:39Z</time></trkpt><trkpt lat="41.0277411203791" lon="9.41375131289528"><ele>68.0</ele><time>2026-05-01T09:47:40Z</time></trkpt><trkpt lat="41.02760663841599" lon="9.413788083588639"><ele>68.5</ele><time>2026-05-01T09:47:41Z</time></trkpt><trkpt lat="41.02748557595358" lon="9.413878618722759"><ele>69.0</ele><time>2026-05-01T09:47:42Z</time></trkpt><trkpt lat="41.0273620799419" lon="9.413965830846726"><ele>69.5</ele><time>2026-05-01T09:47:43Z</time></trkpt><trkpt lat="41.02723183082217" lon="9.41404715138231"><ele>70.0</ele><time>2026-05-01T09:47:44Z</time></trkpt><trkpt lat="41.02710356098008" lon="9.414141735320415"><ele>70.0</ele><time>2026-05-01T09:47:45Z</time></trkpt><trkpt lat="41.026974189108294" lon="9.414234638604974"><ele>70.0</ele><time>2026-05-01T09:47:46Z</time></trkpt><trkpt lat="41.02685704420579" lon="9.414315452832273"><ele>70.0</ele><time>2026-05-01T09:47:47Z</time></trkpt><trkpt lat="41.02675318849053" lon="9.414377694995245"><ele>70.0</ele><time>2026-05-01T09:47:48Z</time></trkpt><trkpt lat="41.02667022479808" lon="9.414430299418319"><ele>71.16666666666666</ele><time>2026-05-01T09:47:49Z</time></trkpt><trkpt lat="41.02660878721439" lon="9.414473668301758"><ele>72.33333333333333</ele><time>2026-05-01T09:47:50Z</time></trkpt><trkpt lat="41.026541787642245" lon="9.414559918462754"><ele>73.5</ele><time>2026-05-01T09:47:52Z</time></trkpt><trkpt lat="41.026450592957495" lon="9.414501805081084"><ele>74.66666666666667</ele><time>2026-05-01T09:47:54Z</time></trkpt><trkpt lat="41.02637667186097" lon="9.414452811223805"><ele>75.83333333333334</ele><time>2026-05-01T09:47:55Z</time></trkpt><trkpt lat="41.026299241477155" lon="9.4143987559111"><ele>77.0</ele><time>2026-05-01T09:47:56Z</time></trkpt><trkpt lat="41.02621132970411" lon="9.414332752229237"><ele>77.0</ele><time>2026-05-01T09:47:57Z</time></trkpt><trkpt lat="41.02612769473582" lon="9.414257429917754"><ele>77.0</ele><time>2026-05-01T09:47:58Z</time></trkpt><trkpt lat="41.02606103154009" lon="9.414150740052662"><ele>77.0</ele><time>2026-05-01T09:47:59Z</time></trkpt><trkpt lat="41.02601710023075" lon="9.413987797239388"><ele>77.0</ele><time>2026-05-01T09:48:00Z</time></trkpt><trkpt lat="41.02595970482819" lon="9.413799291987106"><ele>77.2</ele><time>2026-05-01T09:48:01.001Z</time></trkpt><trkpt lat="41.02592582876274" lon="9.413653212780513"><ele>77.4</ele><time>2026-05-01T09:48:02.001Z</time></trkpt><trkpt lat="41.02587615008147" lon="9.413561452759545"><ele>77.6</ele><time>2026-05-01T09:48:03.001Z</time></trkpt><trkpt lat="41.02580535721983" lon="9.413500536181262"><ele>77.8</ele><time>2026-05-01T09:48:04.001Z</time></trkpt><trkpt lat="41.025729359177646" lon="9.413455649301683"><ele>78.0</ele><time>2026-05-01T09:48:05.001Z</time></trkpt><trkpt lat="41.02563372756309" lon="9.413389284869417"><ele>79.6</ele><time>2026-05-01T09:48:06.001Z</time></trkpt><trkpt lat="41.02555706120383" lon="9.413303754271501"><ele>81.19999999999999</ele><time>2026-05-01T09:48:07.001Z</time></trkpt><trkpt lat="41.025492299025565" lon="9.413240566180063"><ele>82.8</ele><time>2026-05-01T09:48:08.001Z</time></trkpt><trkpt lat="41.02542500114609" lon="9.413175006452965"><ele>84.39999999999999</ele><time>2026-05-01T09:48:09.001Z</time></trkpt><trkpt lat="41.025348108299006" lon="9.413107558052772"><ele>86.0</ele><time>2026-05-01T09:48:10.001Z</time></trkpt><trkpt lat="41.025265507265836" lon="9.413034085111738"><ele>86.0</ele><time>2026-05-01T09:48:11.001Z</time></trkpt><trkpt lat="41.02518558000439" lon="9.412952823340326"><ele>86.0</ele><time>2026-05-01T09:48:12.001Z</time></trkpt><trkpt lat="41.02510447393833" lon="9.412856140632368"><ele>86.0</ele><time>2026-05-01T09:48:13.001Z</time></trkpt><trkpt lat="41.02506284018912" lon="9.412703784370878"><ele>86.0</ele><time>2026-05-01T09:48:14.001Z</time></trkpt><trkpt lat="41.02499298290753" lon="9.41258218791434"><ele>86.0</ele><time>2026-05-01T09:48:15.001Z</time></trkpt><trkpt lat="41.024941993650295" lon="9.412503275732139"><ele>86.0</ele><time>2026-05-01T09:48:16.001Z</time></trkpt><trkpt lat="41.02483449641693" lon="9.41245005986739"><ele>86.0</ele><time>2026-05-01T09:48:18.001Z</time></trkpt><trkpt lat="41.02473951152817" lon="9.412466269635166"><ele>86.0</ele><time>2026-05-01T09:48:19.001Z</time></trkpt><trkpt lat="41.02465177508083" lon="9.412543161885141"><ele>86.0</ele><time>2026-05-01T09:48:20.001Z</time></trkpt><trkpt lat="41.02454880945801" lon="9.412628293371817"><ele>86.0</ele><time>2026-05-01T09:48:21.001Z</time></trkpt><trkpt lat="41.02445643924503" lon="9.412655150771256"><ele>86.0</ele><time>2026-05-01T09:48:22.001Z</time></trkpt><trkpt lat="41.02437445259933" lon="9.412627487193724"><ele>86.0</ele><time>2026-05-01T09:48:23.001Z</time></trkpt><trkpt lat="41.02424868177569" lon="9.41262278637576"><ele>86.0</ele><time>2026-05-01T09:48:24.001Z</time></trkpt><trkpt lat="41.02411896722723" lon="9.412654668463025"><ele>86.0</ele><time>2026-05-01T09:48:25.001Z</time></trkpt><trkpt lat="41.02401625478946" lon="9.412646180714756"><ele>86.0</ele><time>2026-05-01T09:48:26.001Z</time></trkpt><trkpt lat="41.02392029472966" lon="9.412667195737262"><ele>85.0</ele><time>2026-05-01T09:48:27.001Z</time></trkpt><trkpt lat="41.02383433157694" lon="9.412770251578033"><ele>84.0</ele><time>2026-05-01T09:48:28.001Z</time></trkpt><trkpt lat="41.0237576420291" lon="9.412880795681962"><ele>83.0</ele><time>2026-05-01T09:48:29.001Z</time></trkpt><trkpt lat="41.02366580850585" lon="9.413018311511498"><ele>82.0</ele><time>2026-05-01T09:48:30.001Z</time></trkpt><trkpt lat="41.02357341084101" lon="9.413132383480265"><ele>84.25</ele><time>2026-05-01T09:48:31.001Z</time></trkpt><trkpt lat="41.0234773424857" lon="9.41321775405983"><ele>86.5</ele><time>2026-05-01T09:48:32.001Z</time></trkpt><trkpt lat="41.023356901938804" lon="9.413286018004404"><ele>88.75</ele><time>2026-05-01T09:48:33.001Z</time></trkpt><trkpt lat="41.023242734086985" lon="9.413356891962032"><ele>91.0</ele><time>2026-05-01T09:48:34.001Z</time></trkpt><trkpt lat="41.02314479829569" lon="9.41341643894235"><ele>91.19999999999999</ele><time>2026-05-01T09:48:35.001Z</time></trkpt><trkpt lat="41.02305040598807" lon="9.413462959942562"><ele>91.39999999999999</ele><time>2026-05-01T09:48:36.001Z</time></trkpt><trkpt lat="41.02293796688986" lon="9.413503522776278"><ele>91.6</ele><time>2026-05-01T09:48:37.001Z</time></trkpt><trkpt lat="41.02282396275376" lon="9.413548202112448"><ele>91.8</ele><time>2026-05-01T09:48:38.001Z</time></trkpt><trkpt lat="41.0227178339529" lon="9.413593478927663"><ele>92.0</ele><time>2026-05-01T09:48:39.001Z</time></trkpt><trkpt lat="41.02262161197786" lon="9.413635906587793"><ele>92.0</ele><time>2026-05-01T09:48:40.001Z</time></trkpt><trkpt lat="41.02253128190801" lon="9.413689775322775"><ele>92.0</ele><time>2026-05-01T09:48:41.001Z</time></trkpt><trkpt lat="41.02244618683716" lon="9.41378085978695"><ele>92.0</ele><time>2026-05-01T09:48:42.001Z</time></trkpt><trkpt lat="41.022364672749354" lon="9.413898951350388"><ele>92.0</ele><time>2026-05-01T09:48:43.001Z</time></trkpt><trkpt lat="41.02227279250255" lon="9.414004396264758"><ele>93.0</ele><time>2026-05-01T09:48:44.001Z</time></trkpt><trkpt lat="41.02218321760205" lon="9.414082625861619"><ele>94.0</ele><time>2026-05-01T09:48:45.001Z</time></trkpt><trkpt lat="41.02208204566792" lon="9.414131473578566"><ele>95.0</ele><time>2026-05-01T09:48:46.001Z</time></trkpt><trkpt lat="41.02195092346297" lon="9.414172722111683"><ele>96.0</ele><time>2026-05-01T09:48:47.001Z</time></trkpt><trkpt lat="41.02180906042486" lon="9.414222506127306"><ele>96.0</ele><time>2026-05-01T09:48:48.001Z</time></trkpt><trkpt lat="41.02169641789283" lon="9.414271257109348"><ele>96.0</ele><time>2026-05-01T09:48:49.001Z</time></trkpt><trkpt lat="41.02158175657972" lon="9.414300683217444"><ele>96.0</ele><time>2026-05-01T09:48:50.001Z</time></trkpt><trkpt lat="41.02147300105389" lon="9.414302203833511"><ele>96.0</ele><time>2026-05-01T09:48:51.001Z</time></trkpt><trkpt lat="41.02135663935134" lon="9.41429416159038"><ele>96.0</ele><time>2026-05-01T09:48:52.001Z</time></trkpt><trkpt lat="41.021244028776955" lon="9.41428894742201"><ele>96.0</ele><time>2026-05-01T09:48:53.001Z</time></trkpt><trkpt lat="41.02114665767435" lon="9.414290090103309"><ele>96.0</ele><time>2026-05-01T09:48:54.001Z</time></trkpt><trkpt lat="41.02103354327209" lon="9.414305533592016"><ele>96.0</ele><time>2026-05-01T09:48:55.001Z</time></trkpt><trkpt lat="41.02092041269698" lon="9.414326198551462"><ele>96.0</ele><time>2026-05-01T09:48:56.001Z</time></trkpt><trkpt lat="41.020796928235605" lon="9.414345082078905"><ele>95.25</ele><time>2026-05-01T09:48:57.001Z</time></trkpt><trkpt lat="41.02067049413988" lon="9.414363777255117"><ele>94.5</ele><time>2026-05-01T09:48:58.001Z</time></trkpt><trkpt lat="41.020538614385586" lon="9.414381425362587"><ele>93.75</ele><time>2026-05-01T09:48:59.001Z</time></trkpt><trkpt lat="41.020409185356954" lon="9.414394685473582"><ele>93.0</ele><time>2026-05-01T09:49:00.001Z</time></trkpt><trkpt lat="41.0202865508559" lon="9.414407852584157"><ele>93.0</ele><time>2026-05-01T09:49:01.001Z</time></trkpt><trkpt lat="41.020190614447756" lon="9.414419482878825"><ele>93.0</ele><time>2026-05-01T09:49:02.001Z</time></trkpt><trkpt lat="41.020109269925115" lon="9.414426903841786"><ele>93.0</ele><time>2026-05-01T09:49:03.001Z</time></trkpt><trkpt lat="41.02002591620703" lon="9.414422745172192"><ele>93.0</ele><time>2026-05-01T09:49:04.001Z</time></trkpt><trkpt lat="41.019937350739305" lon="9.414396576197872"><ele>93.0</ele><time>2026-05-01T09:49:05.001Z</time></trkpt><trkpt lat="41.019859426818584" lon="9.414359818525682"><ele>93.0</ele><time>2026-05-01T09:49:06.001Z</time></trkpt><trkpt lat="41.01979033926438" lon="9.41432659565575"><ele>92.80000000000001</ele><time>2026-05-01T09:49:07.001Z</time></trkpt><trkpt lat="41.019716881609355" lon="9.414291271299518"><ele>92.6</ele><time>2026-05-01T09:49:08.001Z</time></trkpt><trkpt lat="41.019648238648244" lon="9.414258262156833"><ele>92.4</ele><time>2026-05-01T09:49:09.001Z</time></trkpt><trkpt lat="41.0195646715793" lon="9.414218302200734"><ele>92.19999999999999</ele><time>2026-05-01T09:49:10.001Z</time></trkpt><trkpt lat="41.01946726748309" lon="9.414171822624803"><ele>92.0</ele><time>2026-05-01T09:49:11.001Z</time></trkpt><trkpt lat="41.01936096679757" lon="9.414121097745141"><ele>92.0</ele><time>2026-05-01T09:49:12.001Z</time></trkpt><trkpt lat="41.019245994372476" lon="9.414078230253518"><ele>92.0</ele><time>2026-05-01T09:49:13.001Z</time></trkpt><trkpt lat="41.01914220794091" lon="9.414020973094278"><ele>92.0</ele><time>2026-05-01T09:49:14.001Z</time></trkpt><trkpt lat="41.01904661429175" lon="9.41393526539437"><ele>92.0</ele><time>2026-05-01T09:49:15.001Z</time></trkpt><trkpt lat="41.01895129470079" lon="9.413843106907564"><ele>91.5</ele><time>2026-05-01T09:49:16.001Z</time></trkpt><trkpt lat="41.01885059088263" lon="9.413751154016131"><ele>91.0</ele><time>2026-05-01T09:49:17.001Z</time></trkpt><trkpt lat="41.01873973371103" lon="9.413652157117673"><ele>90.5</ele><time>2026-05-01T09:49:18.001Z</time></trkpt><trkpt lat="41.01862117314047" lon="9.413546163725677"><ele>90.0</ele><time>2026-05-01T09:49:19.001Z</time></trkpt><trkpt lat="41.01849447166867" lon="9.413432893121307"><ele>90.0</ele><time>2026-05-01T09:49:20.001Z</time></trkpt><trkpt lat="41.01837148514329" lon="9.413323817175982"><ele>90.0</ele><time>2026-05-01T09:49:21.001Z</time></trkpt><trkpt lat="41.01824269766895" lon="9.413240189031995"><ele>90.0</ele><time>2026-05-01T09:49:22.001Z</time></trkpt><trkpt lat="41.018124159742555" lon="9.413113145504694"><ele>90.0</ele><time>2026-05-01T09:49:23.001Z</time></trkpt><trkpt lat="41.01799851296128" lon="9.412992397299153"><ele>89.25</ele><time>2026-05-01T09:49:24.001Z</time></trkpt><trkpt lat="41.017879607093285" lon="9.412906372629562"><ele>88.5</ele><time>2026-05-01T09:49:25.001Z</time></trkpt><trkpt lat="41.01778099862754" lon="9.412815841936206"><ele>87.75</ele><time>2026-05-01T09:49:26.001Z</time></trkpt><trkpt lat="41.01766628738798" lon="9.4127528599312"><ele>87.0</ele><time>2026-05-01T09:49:27.001Z</time></trkpt><trkpt lat="41.01753684605814" lon="9.412709289140471"><ele>87.16666666666667</ele><time>2026-05-01T09:49:28.001Z</time></trkpt><trkpt lat="41.01742511741932" lon="9.412657585037348"><ele>87.33333333333333</ele><time>2026-05-01T09:49:29.001Z</time></trkpt><trkpt lat="41.017322671692234" lon="9.412670423876826"><ele>87.5</ele><time>2026-05-01T09:49:30.001Z</time></trkpt><trkpt lat="41.01725551053804" lon="9.412668462329458"><ele>87.66666666666666</ele><time>2026-05-01T09:49:31.001Z</time></trkpt><trkpt lat="41.017186846245814" lon="9.412644034693848"><ele>87.83333333333333</ele><time>2026-05-01T09:49:33.001Z</time></trkpt><trkpt lat="41.01720815922485" lon="9.412539175263465"><ele>88.0</ele><time>2026-05-01T09:49:34.001Z</time></trkpt><trkpt lat="41.017219632507405" lon="9.412374392150099"><ele>88.0</ele><time>2026-05-01T09:49:36.001Z</time></trkpt><trkpt lat="41.0172321971633" lon="9.412289058922582"><ele>88.0</ele><time>2026-05-01T09:49:37.001Z</time></trkpt><trkpt lat="41.01723918884998" lon="9.412205665761801"><ele>88.0</ele><time>2026-05-01T09:49:38.001Z</time></trkpt><trkpt lat="41.01726330063447" lon="9.41212233291934"><ele>88.0</ele><time>2026-05-01T09:49:39.001Z</time></trkpt><trkpt lat="41.01727429346811" lon="9.412035725760365"><ele>88.0</ele><time>2026-05-01T09:49:40.001Z</time></trkpt><trkpt lat="41.01728289001269" lon="9.411946370250401"><ele>88.0</ele><time>2026-05-01T09:49:41.001Z</time></trkpt><trkpt lat="41.01727492823975" lon="9.411857477237813"><ele>88.0</ele><time>2026-05-01T09:49:42.001Z</time></trkpt><trkpt lat="41.01727230166565" lon="9.4117649317415"><ele>87.5</ele><time>2026-05-01T09:49:43.001Z</time></trkpt><trkpt lat="41.01726188779539" lon="9.411659607738068"><ele>87.0</ele><time>2026-05-01T09:49:44.001Z</time></trkpt><trkpt lat="41.01725713367311" lon="9.411547382654092"><ele>86.5</ele><time>2026-05-01T09:49:45.001Z</time></trkpt><trkpt lat="41.01723260563282" lon="9.411437869834645"><ele>86.0</ele><time>2026-05-01T09:49:46.001Z</time></trkpt><trkpt lat="41.017235892606806" lon="9.411321473173148"><ele>85.5</ele><time>2026-05-01T09:49:47.001Z</time></trkpt><trkpt lat="41.01723275830284" lon="9.411188533317011"><ele>85.0</ele><time>2026-05-01T09:49:48Z</time></trkpt><trkpt lat="41.01722249936022" lon="9.411059115203212"><ele>84.75</ele><time>2026-05-01T09:49:49Z</time></trkpt><trkpt lat="41.01722058519789" lon="9.410917754665437"><ele>84.5</ele><time>2026-05-01T09:49:50Z</time></trkpt><trkpt lat="41.017209068077484" lon="9.410727617816383"><ele>84.25</ele><time>2026-05-01T09:49:51Z</time></trkpt><trkpt lat="41.01718484837763" lon="9.410514759775076"><ele>84.0</ele><time>2026-05-01T09:49:52Z</time></trkpt><trkpt lat="41.017150301920395" lon="9.410310086308652"><ele>84.4</ele><time>2026-05-01T09:49:53Z</time></trkpt><trkpt lat="41.017110461867816" lon="9.410142406046784"><ele>84.80000000000001</ele><time>2026-05-01T09:49:54Z</time></trkpt><trkpt lat="41.01706746674544" lon="9.410017248977933"><ele>85.19999999999999</ele><time>2026-05-01T09:49:55Z</time></trkpt><trkpt lat="41.017010276772744" lon="9.409902339237389"><ele>85.6</ele><time>2026-05-01T09:49:56Z</time></trkpt><trkpt lat="41.01694989371935" lon="9.40978263288565"><ele>86.0</ele><time>2026-05-01T09:49:57Z</time></trkpt><trkpt lat="41.01687535967263" lon="9.409681393333425"><ele>86.0</ele><time>2026-05-01T09:49:58Z</time></trkpt><trkpt lat="41.016797701800016" lon="9.40957962726762"><ele>86.0</ele><time>2026-05-01T09:49:59Z</time></trkpt><trkpt lat="41.01671809925881" lon="9.40947079236953"><ele>86.0</ele><time>2026-05-01T09:50:00Z</time></trkpt><trkpt lat="41.01664883465925" lon="9.409347343010172"><ele>86.0</ele><time>2026-05-01T09:50:01Z</time></trkpt><trkpt lat="41.016590533085264" lon="9.409201869474812"><ele>86.0</ele><time>2026-05-01T09:50:02Z</time></trkpt><trkpt lat="41.0165257969753" lon="9.409031031325101"><ele>86.0</ele><time>2026-05-01T09:50:03Z</time></trkpt><trkpt lat="41.016486946767095" lon="9.40885693852582"><ele>86.0</ele><time>2026-05-01T09:50:04Z</time></trkpt><trkpt lat="41.01644237590117" lon="9.408708747677267"><ele>86.0</ele><time>2026-05-01T09:50:05Z</time></trkpt><trkpt lat="41.0163793278205" lon="9.408574819183418"><ele>86.75</ele><time>2026-05-01T09:50:06Z</time></trkpt><trkpt lat="41.016306769135724" lon="9.408424033445323"><ele>87.5</ele><time>2026-05-01T09:50:07Z</time></trkpt><trkpt lat="41.01621576701251" lon="9.408276880330096"><ele>88.25</ele><time>2026-05-01T09:50:08Z</time></trkpt><trkpt lat="41.01613825786543" lon="9.408110512951023"><ele>89.0</ele><time>2026-05-01T09:50:09Z</time></trkpt><trkpt lat="41.01606210968687" lon="9.407950097443242"><ele>89.75</ele><time>2026-05-01T09:50:10Z</time></trkpt><trkpt lat="41.01599057642726" lon="9.407810547734753"><ele>90.5</ele><time>2026-05-01T09:50:11Z</time></trkpt><trkpt lat="41.0159220460241" lon="9.407689361578381"><ele>91.25</ele><time>2026-05-01T09:50:12Z</time></trkpt><trkpt lat="41.015848694358255" lon="9.407572846365634"><ele>92.0</ele><time>2026-05-01T09:50:13Z</time></trkpt><trkpt lat="41.0157738951437" lon="9.407465927013474"><ele>92.0</ele><time>2026-05-01T09:50:14Z</time></trkpt><trkpt lat="41.015700043176366" lon="9.40736342560896"><ele>92.0</ele><time>2026-05-01T09:50:15Z</time></trkpt><trkpt lat="41.01562799242829" lon="9.407256249431002"><ele>92.0</ele><time>2026-05-01T09:50:16Z</time></trkpt><trkpt lat="41.01555259509772" lon="9.407142452552334"><ele>92.0</ele><time>2026-05-01T09:50:17Z</time></trkpt><trkpt lat="41.01548070897862" lon="9.407034045421717"><ele>92.0</ele><time>2026-05-01T09:50:18Z</time></trkpt><trkpt lat="41.01541000812409" lon="9.406930301090375"><ele>92.0</ele><time>2026-05-01T09:50:19Z</time></trkpt><trkpt lat="41.015333941495115" lon="9.406822403827162"><ele>92.0</ele><time>2026-05-01T09:50:20Z</time></trkpt><trkpt lat="41.01525492349028" lon="9.406716332472739"><ele>92.0</ele><time>2026-05-01T09:50:21Z</time></trkpt><trkpt lat="41.01516869883958" lon="9.406610783967047"><ele>92.0</ele><time>2026-05-01T09:50:22Z</time></trkpt><trkpt lat="41.01507244095749" lon="9.406518203658926"><ele>92.0</ele><time>2026-05-01T09:50:23Z</time></trkpt><trkpt lat="41.01499088906909" lon="9.406456193377542"><ele>92.0</ele><time>2026-05-01T09:50:24Z</time></trkpt><trkpt lat="41.01491402624926" lon="9.406432326082856"><ele>92.0</ele><time>2026-05-01T09:50:25Z</time></trkpt><trkpt lat="41.01481597396342" lon="9.4064395588904"><ele>92.0</ele><time>2026-05-01T09:50:26Z</time></trkpt><trkpt lat="41.01470769764192" lon="9.406497903274655"><ele>92.0</ele><time>2026-05-01T09:50:27Z</time></trkpt><trkpt lat="41.0145941740263" lon="9.406598057819185"><ele>92.6</ele><time>2026-05-01T09:50:28Z</time></trkpt><trkpt lat="41.014468402437615" lon="9.406683847715753"><ele>93.19999999999999</ele><time>2026-05-01T09:50:29Z</time></trkpt><trkpt lat="41.01435938775403" lon="9.406721482419037"><ele>93.8</ele><time>2026-05-01T09:50:30Z</time></trkpt><trkpt lat="41.01427134668247" lon="9.406713587013519"><ele>94.4</ele><time>2026-05-01T09:50:31Z</time></trkpt><trkpt lat="41.014186873073974" lon="9.406678615007134"><ele>95.0</ele><time>2026-05-01T09:50:32Z</time></trkpt><trkpt lat="41.01410789199221" lon="9.406590838532923"><ele>95.2</ele><time>2026-05-01T09:50:33Z</time></trkpt><trkpt lat="41.014031923163806" lon="9.406512969144856"><ele>95.4</ele><time>2026-05-01T09:50:34Z</time></trkpt><trkpt lat="41.01396296473321" lon="9.406438900482945"><ele>95.6</ele><time>2026-05-01T09:50:35Z</time></trkpt><trkpt lat="41.01388065270959" lon="9.406354136546623"><ele>95.8</ele><time>2026-05-01T09:50:36Z</time></trkpt><trkpt lat="41.01377304817572" lon="9.40629165544905"><ele>96.0</ele><time>2026-05-01T09:50:37Z</time></trkpt><trkpt lat="41.01366080628082" lon="9.406202687585951"><ele>97.0</ele><time>2026-05-01T09:50:38Z</time></trkpt><trkpt lat="41.013563575803" lon="9.406150293302101"><ele>98.0</ele><time>2026-05-01T09:50:39Z</time></trkpt><trkpt lat="41.01347428676738" lon="9.406102178390592"><ele>99.0</ele><time>2026-05-01T09:50:40Z</time></trkpt><trkpt lat="41.01339188139774" lon="9.406057772857753"><ele>100.0</ele><time>2026-05-01T09:50:41Z</time></trkpt><trkpt lat="41.01332015440749" lon="9.406019121550276"><ele>101.0</ele><time>2026-05-01T09:50:42Z</time></trkpt><trkpt lat="41.01325571803741" lon="9.405984398924486"><ele>102.0</ele><time>2026-05-01T09:50:43Z</time></trkpt><trkpt lat="41.01319236720457" lon="9.405948485892962"><ele>102.6</ele><time>2026-05-01T09:50:44Z</time></trkpt><trkpt lat="41.01310815723785" lon="9.405914652260304"><ele>103.19999999999999</ele><time>2026-05-01T09:50:46Z</time></trkpt><trkpt lat="41.01309319535547" lon="9.405763225717426"><ele>103.8</ele><time>2026-05-01T09:51:01.001Z</time></trkpt><trkpt lat="41.013109554502755" lon="9.40567030047603"><ele>104.4</ele><time>2026-05-01T09:51:02.001Z</time></trkpt><trkpt lat="41.01314213511326" lon="9.405553991325837"><ele>105.0</ele><time>2026-05-01T09:51:03.001Z</time></trkpt><trkpt lat="41.013168420432976" lon="9.405428044859102"><ele>105.6</ele><time>2026-05-01T09:51:04.001Z</time></trkpt><trkpt lat="41.01319660881018" lon="9.405264285783936"><ele>106.2</ele><time>2026-05-01T09:51:05.001Z</time></trkpt><trkpt lat="41.013220957286414" lon="9.405115564204582"><ele>106.80000000000001</ele><time>2026-05-01T09:51:06.001Z</time></trkpt><trkpt lat="41.01324841184466" lon="9.405002373721993"><ele>107.4</ele><time>2026-05-01T09:51:07.001Z</time></trkpt><trkpt lat="41.01327865694961" lon="9.40489025269537"><ele>108.0</ele><time>2026-05-01T09:51:08.001Z</time></trkpt><trkpt lat="41.013305736298605" lon="9.404796140642425"><ele>108.0</ele><time>2026-05-01T09:51:09.001Z</time></trkpt><trkpt lat="41.01334140488459" lon="9.404720795944723"><ele>108.00000000000001</ele><time>2026-05-01T09:51:10.001Z</time></trkpt><trkpt lat="41.01329606585971" lon="9.404611941485143"><ele>108.00000000000001</ele><time>2026-05-01T09:51:11.001Z</time></trkpt><trkpt lat="41.01324972538702" lon="9.404478048325586"><ele>108.0</ele><time>2026-05-01T09:51:12.001Z</time></trkpt><trkpt lat="41.01323556126305" lon="9.404300313919533"><ele>108.0</ele><time>2026-05-01T09:51:13.001Z</time></trkpt><trkpt lat="41.013209124258644" lon="9.404131738728687"><ele>108.0</ele><time>2026-05-01T09:51:14Z</time></trkpt><trkpt lat="41.013203081345374" lon="9.404009158330561"><ele>108.00000000000001</ele><time>2026-05-01T09:51:15Z</time></trkpt><trkpt lat="41.01320859673024" lon="9.403890938229887"><ele>108.00000000000001</ele><time>2026-05-01T09:51:16Z</time></trkpt><trkpt lat="41.01323069827146" lon="9.403731128166536"><ele>108.0</ele><time>2026-05-01T09:51:17Z</time></trkpt><trkpt lat="41.013263938879724" lon="9.403573399163268"><ele>108.0</ele><time>2026-05-01T09:51:18Z</time></trkpt><trkpt lat="41.013300389487604" lon="9.403436255414613"><ele>107.80000000000001</ele><time>2026-05-01T09:51:19Z</time></trkpt><trkpt lat="41.01336205124936" lon="9.403276010992002"><ele>107.60000000000001</ele><time>2026-05-01T09:51:20Z</time></trkpt><trkpt lat="41.0134116902006" lon="9.403114153380645"><ele>107.39999999999999</ele><time>2026-05-01T09:51:21Z</time></trkpt><trkpt lat="41.0134564581952" lon="9.403002196963964"><ele>107.19999999999999</ele><time>2026-05-01T09:51:22Z</time></trkpt><trkpt lat="41.013511052334074" lon="9.402914489016446"><ele>107.0</ele><time>2026-05-01T09:51:23Z</time></trkpt><trkpt lat="41.01355988742527" lon="9.402824581651313"><ele>107.0</ele><time>2026-05-01T09:51:24Z</time></trkpt><trkpt lat="41.013605524638045" lon="9.402756950411213"><ele>106.99999999999999</ele><time>2026-05-01T09:51:25Z</time></trkpt><trkpt lat="41.013665668313806" lon="9.40267613671128"><ele>106.99999999999999</ele><time>2026-05-01T09:51:26Z</time></trkpt><trkpt lat="41.01374008862653" lon="9.402579538172157"><ele>107.0</ele><time>2026-05-01T09:51:27Z</time></trkpt><trkpt lat="41.013812944481856" lon="9.4024874248719"><ele>107.0</ele><time>2026-05-01T09:51:28Z</time></trkpt><trkpt lat="41.013897286148335" lon="9.402392832801741"><ele>107.0</ele><time>2026-05-01T09:51:29Z</time></trkpt><trkpt lat="41.013992026117215" lon="9.402295654378756"><ele>106.99999999999999</ele><time>2026-05-01T09:51:30Z</time></trkpt><trkpt lat="41.0140837460165" lon="9.40222113239606"><ele>106.99999999999999</ele><time>2026-05-01T09:51:31Z</time></trkpt><trkpt lat="41.01417511950157" lon="9.402142382984135"><ele>107.0</ele><time>2026-05-01T09:51:32Z</time></trkpt><trkpt lat="41.01427066882583" lon="9.402064655876337"><ele>107.0</ele><time>2026-05-01T09:51:33Z</time></trkpt><trkpt lat="41.014351281404466" lon="9.401956101178559"><ele>106.5</ele><time>2026-05-01T09:51:34Z</time></trkpt><trkpt lat="41.01445702283116" lon="9.401872409273526"><ele>106.0</ele><time>2026-05-01T09:51:35Z</time></trkpt><trkpt lat="41.014563058780936" lon="9.40179248691449"><ele>105.5</ele><time>2026-05-01T09:51:36Z</time></trkpt><trkpt lat="41.01467768848415" lon="9.401717710189418"><ele>105.0</ele><time>2026-05-01T09:51:37Z</time></trkpt><trkpt lat="41.01478514145343" lon="9.401652056122083"><ele>105.0</ele><time>2026-05-01T09:51:38Z</time></trkpt><trkpt lat="41.01488565567857" lon="9.401589848786593"><ele>105.0</ele><time>2026-05-01T09:51:39Z</time></trkpt><trkpt lat="41.014971732752755" lon="9.401516764955845"><ele>105.0</ele><time>2026-05-01T09:51:40Z</time></trkpt><trkpt lat="41.015053091886735" lon="9.401443945435394"><ele>105.0</ele><time>2026-05-01T09:51:41Z</time></trkpt><trkpt lat="41.01515281236508" lon="9.401391535222523"><ele>105.0</ele><time>2026-05-01T09:51:42Z</time></trkpt><trkpt lat="41.015233764873734" lon="9.401303122006787"><ele>104.8</ele><time>2026-05-01T09:51:43Z</time></trkpt><trkpt lat="41.015329520695786" lon="9.40123782851383"><ele>104.6</ele><time>2026-05-01T09:51:44Z</time></trkpt><trkpt lat="41.015421444671624" lon="9.40117049138691"><ele>104.4</ele><time>2026-05-01T09:51:45Z</time></trkpt><trkpt lat="41.01550734890627" lon="9.401096688909861"><ele>104.2</ele><time>2026-05-01T09:51:46Z</time></trkpt><trkpt lat="41.015593993210956" lon="9.40101037962312"><ele>104.0</ele><time>2026-05-01T09:51:47Z</time></trkpt><trkpt lat="41.015689979231425" lon="9.400952135290158"><ele>103.99999999999999</ele><time>2026-05-01T09:51:48Z</time></trkpt><trkpt lat="41.01576654394874" lon="9.400878456998301"><ele>104.0</ele><time>2026-05-01T09:51:49Z</time></trkpt><trkpt lat="41.015811270838554" lon="9.400782784227763"><ele>104.0</ele><time>2026-05-01T09:51:50Z</time></trkpt><trkpt lat="41.015854134693164" lon="9.40072082271576"><ele>104.0</ele><time>2026-05-01T09:51:51Z</time></trkpt><trkpt lat="41.01584135823606" lon="9.40061628612143"><ele>103.99999999999999</ele><time>2026-05-01T09:51:52Z</time></trkpt><trkpt lat="41.01589151828761" lon="9.40051709811095"><ele>104.0</ele><time>2026-05-01T09:51:53Z</time></trkpt><trkpt lat="41.01594867489273" lon="9.400417486408056"><ele>103.80000000000001</ele><time>2026-05-01T09:51:54Z</time></trkpt><trkpt lat="41.01605551059556" lon="9.40039083532232"><ele>103.60000000000001</ele><time>2026-05-01T09:51:55Z</time></trkpt><trkpt lat="41.01612214140602" lon="9.40031765393587"><ele>103.4</ele><time>2026-05-01T09:51:56Z</time></trkpt><trkpt lat="41.0161746214355" lon="9.400246323748528"><ele>103.2</ele><time>2026-05-01T09:51:57Z</time></trkpt><trkpt lat="41.016177173022434" lon="9.400104694497248"><ele>103.0</ele><time>2026-05-01T09:51:58Z</time></trkpt><trkpt lat="41.01621548384851" lon="9.39998872004317"><ele>103.00000000000001</ele><time>2026-05-01T09:51:59Z</time></trkpt><trkpt lat="41.016246076063126" lon="9.399878442666301"><ele>103.0</ele><time>2026-05-01T09:52:00Z</time></trkpt><trkpt lat="41.016282483019694" lon="9.399776763088434"><ele>103.0</ele><time>2026-05-01T09:52:01Z</time></trkpt><trkpt lat="41.016321074263935" lon="9.399661692040615"><ele>103.0</ele><time>2026-05-01T09:52:03Z</time></trkpt><trkpt lat="41.016360832898584" lon="9.399591865861852"><ele>103.00000000000001</ele><time>2026-05-01T09:52:04Z</time></trkpt><trkpt lat="41.016391543726584" lon="9.399515983317633"><ele>103.0</ele><time>2026-05-01T09:52:05Z</time></trkpt><trkpt lat="41.01644314113817" lon="9.399389854821411"><ele>103.4</ele><time>2026-05-01T09:52:07Z</time></trkpt><trkpt lat="41.01647699253623" lon="9.399305207548975"><ele>103.80000000000001</ele><time>2026-05-01T09:52:08Z</time></trkpt><trkpt lat="41.016521323884525" lon="9.399206821671445"><ele>104.2</ele><time>2026-05-01T09:52:09Z</time></trkpt><trkpt lat="41.01657644355306" lon="9.399103318393907"><ele>104.6</ele><time>2026-05-01T09:52:10Z</time></trkpt><trkpt lat="41.016638953096326" lon="9.398999939493109"><ele>105.0</ele><time>2026-05-01T09:52:11Z</time></trkpt><trkpt lat="41.016695889107474" lon="9.39888254058553"><ele>106.6</ele><time>2026-05-01T09:52:12Z</time></trkpt><trkpt lat="41.01674482239967" lon="9.398751413557088"><ele>108.2</ele><time>2026-05-01T09:52:13Z</time></trkpt><trkpt lat="41.01680692448418" lon="9.398641776773168"><ele>109.80000000000001</ele><time>2026-05-01T09:52:14Z</time></trkpt><trkpt lat="41.016856753025415" lon="9.398541051890634"><ele>111.4</ele><time>2026-05-01T09:52:15Z</time></trkpt><trkpt lat="41.01690340865732" lon="9.39843943211773"><ele>113.0</ele><time>2026-05-01T09:52:16Z</time></trkpt><trkpt lat="41.01695012669628" lon="9.398337061717852"><ele>113.0</ele><time>2026-05-01T09:52:17Z</time></trkpt><trkpt lat="41.0169971595711" lon="9.398234361489756"><ele>113.00000000000001</ele><time>2026-05-01T09:52:18Z</time></trkpt><trkpt lat="41.017050002159955" lon="9.398128550644993"><ele>113.00000000000001</ele><time>2026-05-01T09:52:19Z</time></trkpt><trkpt lat="41.01710624552341" lon="9.398030606852585"><ele>113.0</ele><time>2026-05-01T09:52:20Z</time></trkpt><trkpt lat="41.01715068363781" lon="9.397923287207798"><ele>113.0</ele><time>2026-05-01T09:52:21Z</time></trkpt><trkpt lat="41.01719265184043" lon="9.397810836438738"><ele>114.0</ele><time>2026-05-01T09:52:22Z</time></trkpt><trkpt lat="41.01723251144544" lon="9.39769324048854"><ele>115.00000000000001</ele><time>2026-05-01T09:52:23Z</time></trkpt><trkpt lat="41.017261572318866" lon="9.397578439508512"><ele>116.00000000000001</ele><time>2026-05-01T09:52:24Z</time></trkpt><trkpt lat="41.017275408676625" lon="9.397463582794094"><ele>117.0</ele><time>2026-05-01T09:52:25Z</time></trkpt><trkpt lat="41.0173000997489" lon="9.397356826463756"><ele>118.0</ele><time>2026-05-01T09:52:26Z</time></trkpt><trkpt lat="41.01730575079404" lon="9.397223460482394"><ele>118.2</ele><time>2026-05-01T09:52:27Z</time></trkpt><trkpt lat="41.01730753112105" lon="9.397101491183122"><ele>118.4</ele><time>2026-05-01T09:52:28Z</time></trkpt><trkpt lat="41.017308748020135" lon="9.396975699155307"><ele>118.60000000000001</ele><time>2026-05-01T09:52:29Z</time></trkpt><trkpt lat="41.017312018311735" lon="9.396845849199439"><ele>118.80000000000001</ele><time>2026-05-01T09:52:30Z</time></trkpt><trkpt lat="41.01731444041898" lon="9.396712058217252"><ele>119.0</ele><time>2026-05-01T09:52:31Z</time></trkpt><trkpt lat="41.01731593811608" lon="9.396570470718618"><ele>119.0</ele><time>2026-05-01T09:52:32Z</time></trkpt><trkpt lat="41.01731750395153" lon="9.396422441570401"><ele>119.0</ele><time>2026-05-01T09:52:33Z</time></trkpt><trkpt lat="41.01732294852826" lon="9.39627107343165"><ele>119.0</ele><time>2026-05-01T09:52:34Z</time></trkpt><trkpt lat="41.01733498631858" lon="9.3961308585622"><ele>119.0</ele><time>2026-05-01T09:52:35Z</time></trkpt><trkpt lat="41.01736104456769" lon="9.396012027407583"><ele>119.0</ele><time>2026-05-01T09:52:36Z</time></trkpt><trkpt lat="41.01740601063009" lon="9.395926928935156"><ele>118.80000000000001</ele><time>2026-05-01T09:52:37Z</time></trkpt><trkpt lat="41.017448810767405" lon="9.395829695692754"><ele>118.60000000000001</ele><time>2026-05-01T09:52:38Z</time></trkpt><trkpt lat="41.017498740175604" lon="9.39573640975183"><ele>118.4</ele><time>2026-05-01T09:52:39Z</time></trkpt><trkpt lat="41.01754972526027" lon="9.39561234396839"><ele>118.2</ele><time>2026-05-01T09:52:40Z</time></trkpt><trkpt lat="41.01760528800316" lon="9.395472704854416"><ele>118.0</ele><time>2026-05-01T09:52:41Z</time></trkpt><trkpt lat="41.01765030859286" lon="9.395307259796327"><ele>124.25</ele><time>2026-05-01T09:52:42Z</time></trkpt><trkpt lat="41.01768963327934" lon="9.395138792197166"><ele>130.5</ele><time>2026-05-01T09:52:43Z</time></trkpt><trkpt lat="41.01772626218974" lon="9.394980677448928"><ele>136.75</ele><time>2026-05-01T09:52:44Z</time></trkpt><trkpt lat="41.017759206643646" lon="9.394831286073762"><ele>143.0</ele><time>2026-05-01T09:52:45Z</time></trkpt><trkpt lat="41.017785728897714" lon="9.394696321799069"><ele>144.5</ele><time>2026-05-01T09:52:46Z</time></trkpt><trkpt lat="41.017804794258886" lon="9.394552898620978"><ele>146.0</ele><time>2026-05-01T09:52:47Z</time></trkpt><trkpt lat="41.017817516195386" lon="9.394411511359467"><ele>147.5</ele><time>2026-05-01T09:52:48Z</time></trkpt><trkpt lat="41.01784195258495" lon="9.394259835004135"><ele>149.0</ele><time>2026-05-01T09:52:49Z</time></trkpt><trkpt lat="41.017879860597134" lon="9.394102072005701"><ele>149.0</ele><time>2026-05-01T09:52:50Z</time></trkpt><trkpt lat="41.017925138537265" lon="9.393938705128031"><ele>149.0</ele><time>2026-05-01T09:52:51Z</time></trkpt><trkpt lat="41.017975110738284" lon="9.393776685836402"><ele>149.0</ele><time>2026-05-01T09:52:52Z</time></trkpt><trkpt lat="41.01801931096493" lon="9.39363731976614"><ele>149.0</ele><time>2026-05-01T09:52:53Z</time></trkpt><trkpt lat="41.01806127499086" lon="9.39352388758984"><ele>149.8</ele><time>2026-05-01T09:52:54Z</time></trkpt><trkpt lat="41.01811755158043" lon="9.393411844662177"><ele>150.60000000000002</ele><time>2026-05-01T09:52:55Z</time></trkpt><trkpt lat="41.01819535394209" lon="9.393311961082732"><ele>151.4</ele><time>2026-05-01T09:52:56Z</time></trkpt><trkpt lat="41.01828274601314" lon="9.393204013731198"><ele>152.20000000000002</ele><time>2026-05-01T09:52:57Z</time></trkpt><trkpt lat="41.0183335201936" lon="9.393104187021873"><ele>153.0</ele><time>2026-05-01T09:52:58Z</time></trkpt><trkpt lat="41.018383273439895" lon="9.393008906777869"><ele>154.5</ele><time>2026-05-01T09:52:59Z</time></trkpt><trkpt lat="41.018447635703694" lon="9.392899606240071"><ele>156.0</ele><time>2026-05-01T09:53:00Z</time></trkpt><trkpt lat="41.01851287726829" lon="9.392762530050222"><ele>157.5</ele><time>2026-05-01T09:53:01Z</time></trkpt><trkpt lat="41.0185842602505" lon="9.39261642896975"><ele>159.0</ele><time>2026-05-01T09:53:02Z</time></trkpt><trkpt lat="41.01865372602774" lon="9.392468348883709"><ele>159.0</ele><time>2026-05-01T09:53:03Z</time></trkpt><trkpt lat="41.01869742653302" lon="9.392360781038889"><ele>159.0</ele><time>2026-05-01T09:53:04Z</time></trkpt><trkpt lat="41.01872797716625" lon="9.392260938035246"><ele>159.0</ele><time>2026-05-01T09:53:05Z</time></trkpt><trkpt lat="41.018755587403376" lon="9.392165271387542"><ele>159.0</ele><time>2026-05-01T09:53:06Z</time></trkpt><trkpt lat="41.01877670588873" lon="9.392066464675466"><ele>159.0</ele><time>2026-05-01T09:53:07Z</time></trkpt><trkpt lat="41.01876815600072" lon="9.39195537728613"><ele>159.0</ele><time>2026-05-01T09:53:08Z</time></trkpt><trkpt lat="41.01872249012139" lon="9.39183990313508"><ele>159.0</ele><time>2026-05-01T09:53:09Z</time></trkpt><trkpt lat="41.01864294729205" lon="9.391726419336502"><ele>159.0</ele><time>2026-05-01T09:53:10Z</time></trkpt><trkpt lat="41.01855584042324" lon="9.391601782099873"><ele>159.0</ele><time>2026-05-01T09:53:11Z</time></trkpt><trkpt lat="41.01846360002487" lon="9.391470127588587"><ele>159.0</ele><time>2026-05-01T09:53:12Z</time></trkpt><trkpt lat="41.018361200421815" lon="9.391330378846375"><ele>156.25</ele><time>2026-05-01T09:53:13Z</time></trkpt><trkpt lat="41.01827183086458" lon="9.391214196635714"><ele>153.5</ele><time>2026-05-01T09:53:14Z</time></trkpt><trkpt lat="41.018184365946276" lon="9.391111516816316"><ele>150.75</ele><time>2026-05-01T09:53:15Z</time></trkpt><trkpt lat="41.018094321754035" lon="9.391018471545875"><ele>148.0</ele><time>2026-05-01T09:53:16Z</time></trkpt><trkpt lat="41.01799157753884" lon="9.390927451032288"><ele>148.0</ele><time>2026-05-01T09:53:17Z</time></trkpt><trkpt lat="41.01788613104237" lon="9.39083769950629"><ele>148.0</ele><time>2026-05-01T09:53:18Z</time></trkpt><trkpt lat="41.01779104062003" lon="9.3907572496403"><ele>148.0</ele><time>2026-05-01T09:53:19Z</time></trkpt><trkpt lat="41.01771027097946" lon="9.390673176441407"><ele>148.0</ele><time>2026-05-01T09:53:20Z</time></trkpt><trkpt lat="41.017635589481884" lon="9.390570633940264"><ele>148.0</ele><time>2026-05-01T09:53:21Z</time></trkpt><trkpt lat="41.0175681110129" lon="9.390456833611868"><ele>148.6</ele><time>2026-05-01T09:53:22Z</time></trkpt><trkpt lat="41.017515057654684" lon="9.390348685917768"><ele>149.20000000000002</ele><time>2026-05-01T09:53:23Z</time></trkpt><trkpt lat="41.017476398512265" lon="9.39023707396266"><ele>149.8</ele><time>2026-05-01T09:53:24Z</time></trkpt><trkpt lat="41.017443739262234" lon="9.390106323478028"><ele>150.4</ele><time>2026-05-01T09:53:25Z</time></trkpt><trkpt lat="41.01740346099473" lon="9.38997216894523"><ele>151.0</ele><time>2026-05-01T09:53:26Z</time></trkpt><trkpt lat="41.017348543285564" lon="9.389855087333896"><ele>149.16666666666669</ele><time>2026-05-01T09:53:27Z</time></trkpt><trkpt lat="41.01731869622786" lon="9.38973082063043"><ele>147.33333333333334</ele><time>2026-05-01T09:53:28Z</time></trkpt><trkpt lat="41.01729605016326" lon="9.389619682531839"><ele>145.5</ele><time>2026-05-01T09:53:29Z</time></trkpt><trkpt lat="41.017318000022314" lon="9.389520060746023"><ele>143.66666666666666</ele><time>2026-05-01T09:53:30Z</time></trkpt><trkpt lat="41.01732977245209" lon="9.389422087672"><ele>141.83333333333331</ele><time>2026-05-01T09:53:31Z</time></trkpt><trkpt lat="41.01738208475158" lon="9.389312286624575"><ele>140.0</ele><time>2026-05-01T09:53:32Z</time></trkpt><trkpt lat="41.01741715112182" lon="9.389198630683353"><ele>140.0</ele><time>2026-05-01T09:53:33Z</time></trkpt><trkpt lat="41.01741680373369" lon="9.389056508415344"><ele>140.0</ele><time>2026-05-01T09:53:35Z</time></trkpt><trkpt lat="41.01735875942665" lon="9.388985922490225"><ele>140.0</ele><time>2026-05-01T09:53:36Z</time></trkpt><trkpt lat="41.01729730732864" lon="9.388903880630476"><ele>140.0</ele><time>2026-05-01T09:53:37Z</time></trkpt><trkpt lat="41.017219553798796" lon="9.388818253412161"><ele>140.0</ele><time>2026-05-01T09:53:38Z</time></trkpt><trkpt lat="41.01714784502515" lon="9.388746472358653"><ele>139.83333333333331</ele><time>2026-05-01T09:53:39Z</time></trkpt><trkpt lat="41.01708175363833" lon="9.38867853852525"><ele>139.66666666666666</ele><time>2026-05-01T09:53:40Z</time></trkpt><trkpt lat="41.01702283867329" lon="9.388616181316003"><ele>139.5</ele><time>2026-05-01T09:53:41Z</time></trkpt><trkpt lat="41.01697249129063" lon="9.388554313494234"><ele>139.33333333333334</ele><time>2026-05-01T09:53:42Z</time></trkpt><trkpt lat="41.01692595478505" lon="9.38848489230006"><ele>139.16666666666669</ele><time>2026-05-01T09:53:43Z</time></trkpt><trkpt lat="41.01689369735894" lon="9.388392312196258"><ele>139.0</ele><time>2026-05-01T09:53:44Z</time></trkpt><trkpt lat="41.016872544943" lon="9.388281627411358"><ele>139.0</ele><time>2026-05-01T09:53:45Z</time></trkpt><trkpt lat="41.016843680823804" lon="9.38820251549677"><ele>139.0</ele><time>2026-05-01T09:53:46Z</time></trkpt><trkpt lat="41.016839514861225" lon="9.388084861812409"><ele>139.0</ele><time>2026-05-01T09:53:48Z</time></trkpt><trkpt lat="41.01669905682027" lon="9.388006228683013"><ele>139.0</ele><time>2026-05-01T09:53:51Z</time></trkpt><trkpt lat="41.01658411431523" lon="9.388117345947247"><ele>140.71428571428572</ele><time>2026-05-01T09:53:53Z</time></trkpt><trkpt lat="41.01653875766003" lon="9.38818204460134"><ele>142.42857142857144</ele><time>2026-05-01T09:53:54Z</time></trkpt><trkpt lat="41.0164866468262" lon="9.388265889875683"><ele>144.14285714285717</ele><time>2026-05-01T09:53:56Z</time></trkpt><trkpt lat="41.01643604705266" lon="9.388347635030362"><ele>145.85714285714286</ele><time>2026-05-01T09:53:58Z</time></trkpt><trkpt lat="41.01639867691373" lon="9.38841721450328"><ele>147.57142857142858</ele><time>2026-05-01T09:53:59Z</time></trkpt><trkpt lat="41.01636213931097" lon="9.388494349091587"><ele>149.2857142857143</ele><time>2026-05-01T09:54:00Z</time></trkpt><trkpt lat="41.016333794931086" lon="9.388573701052044"><ele>151.0</ele><time>2026-05-01T09:54:01Z</time></trkpt><trkpt lat="41.01631566561043" lon="9.388665042459918"><ele>151.0</ele><time>2026-05-01T09:54:02Z</time></trkpt><trkpt lat="41.01628632645677" lon="9.3887560945419"><ele>151.0</ele><time>2026-05-01T09:54:03Z</time></trkpt><trkpt lat="41.01625637687718" lon="9.388834826015422"><ele>151.0</ele><time>2026-05-01T09:54:04Z</time></trkpt><trkpt lat="41.01619965655298" lon="9.388954540649024"><ele>151.0</ele><time>2026-05-01T09:54:06Z</time></trkpt><trkpt lat="41.016151961622334" lon="9.389020273583698"><ele>151.0</ele><time>2026-05-01T09:55:06Z</time></trkpt><trkpt lat="41.01607682923777" lon="9.389088902514393"><ele>151.0</ele><time>2026-05-01T09:55:09Z</time></trkpt><trkpt lat="41.0160134749764" lon="9.389109143696185"><ele>151.16666666666669</ele><time>2026-05-01T09:55:11Z</time></trkpt><trkpt lat="41.01595396085213" lon="9.389137872284378"><ele>151.33333333333334</ele><time>2026-05-01T09:55:13Z</time></trkpt><trkpt lat="41.01587629980237" lon="9.389161122050798"><ele>151.5</ele><time>2026-05-01T09:55:15Z</time></trkpt><trkpt lat="41.01581557549437" lon="9.389200063829987"><ele>151.66666666666666</ele><time>2026-05-01T09:55:16Z</time></trkpt><trkpt lat="41.0157242513311" lon="9.389278781639815"><ele>151.83333333333331</ele><time>2026-05-01T09:55:18Z</time></trkpt><trkpt lat="41.01568353157395" lon="9.389390578311414"><ele>152.0</ele><time>2026-05-01T09:55:20Z</time></trkpt><trkpt lat="41.01565437066448" lon="9.38954508645701"><ele>153.33333333333331</ele><time>2026-05-01T09:55:22Z</time></trkpt><trkpt lat="41.015597422066904" lon="9.389628617069599"><ele>154.66666666666666</ele><time>2026-05-01T09:55:24Z</time></trkpt><trkpt lat="41.01552691102446" lon="9.389684936741046"><ele>156.0</ele><time>2026-05-01T09:55:27Z</time></trkpt><trkpt lat="41.0154560276359" lon="9.389720973233361"><ele>157.33333333333334</ele><time>2026-05-01T09:55:29Z</time></trkpt><trkpt lat="41.015382072280346" lon="9.38973589975804"><ele>158.66666666666669</ele><time>2026-05-01T09:55:31Z</time></trkpt><trkpt lat="41.01529138587518" lon="9.389764176572257"><ele>160.0</ele><time>2026-05-01T09:55:33Z</time></trkpt><trkpt lat="41.01520737410263" lon="9.38981255852577"><ele>160.5</ele><time>2026-05-01T09:55:35Z</time></trkpt><trkpt lat="41.01513833623447" lon="9.389826799553727"><ele>161.0</ele><time>2026-05-01T09:55:37Z</time></trkpt><trkpt lat="41.015045712711014" lon="9.38982674851191"><ele>161.5</ele><time>2026-05-01T09:55:40Z</time></trkpt><trkpt lat="41.01495666480536" lon="9.389826668132212"><ele>162.0</ele><time>2026-05-01T09:55:42Z</time></trkpt><trkpt lat="41.01487648088737" lon="9.389833428892373"><ele>162.5</ele><time>2026-05-01T09:55:44Z</time></trkpt><trkpt lat="41.01481019472574" lon="9.389806042848544"><ele>163.0</ele><time>2026-05-01T09:55:46Z</time></trkpt><trkpt lat="41.01473192596629" lon="9.38977551571682"><ele>164.33333333333334</ele><time>2026-05-01T09:55:48Z</time></trkpt><trkpt lat="41.014654874084336" lon="9.38974445549338"><ele>165.66666666666669</ele><time>2026-05-01T09:55:50Z</time></trkpt><trkpt lat="41.01459442325908" lon="9.38970734542368"><ele>167.0</ele><time>2026-05-01T09:55:52Z</time></trkpt><trkpt lat="41.014500627321645" lon="9.389678349287701"><ele>168.33333333333334</ele><time>2026-05-01T09:55:54Z</time></trkpt><trkpt lat="41.014416744701194" lon="9.389661354514809"><ele>169.66666666666666</ele><time>2026-05-01T09:55:56Z</time></trkpt><trkpt lat="41.014303818052205" lon="9.389644743210738"><ele>171.0</ele><time>2026-05-01T09:55:58Z</time></trkpt><trkpt lat="41.01423314837152" lon="9.38963409935937"><ele>171.0</ele><time>2026-05-01T09:55:59Z</time></trkpt><trkpt lat="41.01416077209727" lon="9.389621555240897"><ele>171.0</ele><time>2026-05-01T09:56:00Z</time></trkpt><trkpt lat="41.01409242571702" lon="9.389609709576847"><ele>171.0</ele><time>2026-05-01T09:56:01Z</time></trkpt><trkpt lat="41.01397871930941" lon="9.389589923544465"><ele>171.0</ele><time>2026-05-01T09:56:03Z</time></trkpt><trkpt lat="41.01391149734451" lon="9.38957726384212"><ele>171.0</ele><time>2026-05-01T09:56:05Z</time></trkpt><trkpt lat="41.013823597411424" lon="9.38955799013549"><ele>171.0</ele><time>2026-05-01T09:56:07Z</time></trkpt><trkpt lat="41.013731266572876" lon="9.389517629558513"><ele>172.0</ele><time>2026-05-01T09:56:09Z</time></trkpt><trkpt lat="41.01362464480317" lon="9.389481291004431"><ele>173.0</ele><time>2026-05-01T09:56:11Z</time></trkpt><trkpt lat="41.01352643258594" lon="9.389449479068595"><ele>174.0</ele><time>2026-05-01T09:56:13Z</time></trkpt><trkpt lat="41.01345115614919" lon="9.389434891239295"><ele>175.0</ele><time>2026-05-01T09:56:15Z</time></trkpt><trkpt lat="41.01333050114334" lon="9.389415378687994"><ele>176.0</ele><time>2026-05-01T09:56:17Z</time></trkpt><trkpt lat="41.013265356085164" lon="9.389391939427794"><ele>177.33333333333331</ele><time>2026-05-01T09:56:18Z</time></trkpt><trkpt lat="41.01318052907333" lon="9.389374942406878"><ele>178.66666666666666</ele><time>2026-05-01T09:56:19Z</time></trkpt><trkpt lat="41.01310616716031" lon="9.389352694977381"><ele>180.0</ele><time>2026-05-01T09:56:20Z</time></trkpt><trkpt lat="41.01304199275582" lon="9.389332476853884"><ele>181.33333333333334</ele><time>2026-05-01T09:56:21Z</time></trkpt><trkpt lat="41.01297240117823" lon="9.389309018348266"><ele>182.66666666666669</ele><time>2026-05-01T09:56:22Z</time></trkpt><trkpt lat="41.012850422080135" lon="9.389289562656797"><ele>184.0</ele><time>2026-05-01T09:56:24Z</time></trkpt><trkpt lat="41.0127708240132" lon="9.389304919498011"><ele>184.0</ele><time>2026-05-01T09:56:25Z</time></trkpt><trkpt lat="41.0126984088038" lon="9.389311233997793"><ele>184.0</ele><time>2026-05-01T09:56:26Z</time></trkpt><trkpt lat="41.01260201328236" lon="9.389319151624099"><ele>184.0</ele><time>2026-05-01T09:56:28Z</time></trkpt><trkpt lat="41.012517817567016" lon="9.38932505675397"><ele>184.0</ele><time>2026-05-01T09:56:29Z</time></trkpt><trkpt lat="41.01244162977952" lon="9.38932824741323"><ele>184.0</ele><time>2026-05-01T09:56:30Z</time></trkpt><trkpt lat="41.012342789414255" lon="9.389318737832598"><ele>184.0</ele><time>2026-05-01T09:56:32Z</time></trkpt><trkpt lat="41.01225519222536" lon="9.389298724427263"><ele>186.66666666666669</ele><time>2026-05-01T09:56:34Z</time></trkpt><trkpt lat="41.01216317499118" lon="9.389276903625536"><ele>189.33333333333334</ele><time>2026-05-01T09:56:36Z</time></trkpt><trkpt lat="41.012085191508376" lon="9.389265562722082"><ele>192.0</ele><time>2026-05-01T09:56:37Z</time></trkpt><trkpt lat="41.01201089370537" lon="9.389268438945297"><ele>194.66666666666669</ele><time>2026-05-01T09:56:38Z</time></trkpt><trkpt lat="41.011921156417024" lon="9.389271481038428"><ele>197.33333333333334</ele><time>2026-05-01T09:56:40Z</time></trkpt><trkpt lat="41.01181022649889" lon="9.389297947068883"><ele>200.0</ele><time>2026-05-01T09:56:42Z</time></trkpt><trkpt lat="41.01174324894425" lon="9.38932996279511"><ele>200.00000000000003</ele><time>2026-05-01T09:56:43Z</time></trkpt><trkpt lat="41.01166780399016" lon="9.38937858541745"><ele>200.0</ele><time>2026-05-01T09:56:44Z</time></trkpt><trkpt lat="41.0116239151845" lon="9.389438635368977"><ele>200.0</ele><time>2026-05-01T09:56:45Z</time></trkpt><trkpt lat="41.01159996550022" lon="9.389531285223791"><ele>200.0</ele><time>2026-05-01T09:57:28Z</time></trkpt><trkpt lat="41.011569490055" lon="9.389604538580885"><ele>200.00000000000003</ele><time>2026-05-01T09:57:29Z</time></trkpt><trkpt lat="41.01149952731702" lon="9.389698624795493"><ele>200.0</ele><time>2026-05-01T09:57:31Z</time></trkpt><trkpt lat="41.01144552087897" lon="9.389755068785247"><ele>200.83333333333334</ele><time>2026-05-01T09:57:32Z</time></trkpt><trkpt lat="41.0113765304975" lon="9.389826949564346"><ele>201.66666666666669</ele><time>2026-05-01T09:57:33Z</time></trkpt><trkpt lat="41.011320090408006" lon="9.389895719518396"><ele>202.5</ele><time>2026-05-01T09:57:34Z</time></trkpt><trkpt lat="41.0112593487951" lon="9.389970120149217"><ele>203.33333333333331</ele><time>2026-05-01T09:57:35Z</time></trkpt><trkpt lat="41.01120863497652" lon="9.390030063695463"><ele>204.16666666666666</ele><time>2026-05-01T09:57:36Z</time></trkpt><trkpt lat="41.0111313275273" lon="9.390127944579989"><ele>205.0</ele><time>2026-05-01T09:57:38Z</time></trkpt><trkpt lat="41.01104094539681" lon="9.390202123093655"><ele>205.0</ele><time>2026-05-01T09:57:40Z</time></trkpt><trkpt lat="41.010971549601365" lon="9.390220094895714"><ele>205.0</ele><time>2026-05-01T09:57:41Z</time></trkpt><trkpt lat="41.01088635602475" lon="9.390261161137477"><ele>205.0</ele><time>2026-05-01T09:57:42Z</time></trkpt><trkpt lat="41.01078197479203" lon="9.39031251425826"><ele>205.0</ele><time>2026-05-01T09:57:43Z</time></trkpt><trkpt lat="41.01069794045282" lon="9.39035662789003"><ele>205.0</ele><time>2026-05-01T09:57:44Z</time></trkpt><trkpt lat="41.0106002721706" lon="9.390413241767877"><ele>205.0</ele><time>2026-05-01T09:57:45Z</time></trkpt><trkpt lat="41.01050256752717" lon="9.390470835561269"><ele>205.0</ele><time>2026-05-01T09:57:46Z</time></trkpt><trkpt lat="41.01043312848609" lon="9.390506916303487"><ele>205.0</ele><time>2026-05-01T09:57:47Z</time></trkpt><trkpt lat="41.01033203323133" lon="9.390551032453995"><ele>205.0</ele><time>2026-05-01T09:57:49Z</time></trkpt><trkpt lat="41.0102319363582" lon="9.390558844893846"><ele>205.0</ele><time>2026-05-01T10:04:58Z</time></trkpt><trkpt lat="41.01010510215452" lon="9.390543647367222"><ele>204.99999999999997</ele><time>2026-05-01T10:05:00Z</time></trkpt><trkpt lat="41.01001631159619" lon="9.390526320445476"><ele>205.0</ele><time>2026-05-01T10:05:01Z</time></trkpt><trkpt lat="41.0099457313914" lon="9.390510367074672"><ele>205.0</ele><time>2026-05-01T10:05:02Z</time></trkpt><trkpt lat="41.00986427557404" lon="9.390491955517875"><ele>205.0</ele><time>2026-05-01T10:05:03Z</time></trkpt><trkpt lat="41.00978100466129" lon="9.390471739005598"><ele>204.99999999999997</ele><time>2026-05-01T10:05:04Z</time></trkpt><trkpt lat="41.00970214890352" lon="9.390449125415037"><ele>205.0</ele><time>2026-05-01T10:05:05Z</time></trkpt><trkpt lat="41.009637778628694" lon="9.390428037152182"><ele>205.4</ele><time>2026-05-01T10:05:06Z</time></trkpt><trkpt lat="41.00956089382832" lon="9.390394089991087"><ele>205.8</ele><time>2026-05-01T10:05:07Z</time></trkpt><trkpt lat="41.00948157934958" lon="9.390329012961125"><ele>206.2</ele><time>2026-05-01T10:05:08Z</time></trkpt><trkpt lat="41.009383863596014" lon="9.390287375484748"><ele>206.6</ele><time>2026-05-01T10:05:09Z</time></trkpt><trkpt lat="41.009299365069836" lon="9.390282744783777"><ele>207.0</ele><time>2026-05-01T10:05:10Z</time></trkpt><trkpt lat="41.00921419596995" lon="9.39023409743574"><ele>207.39999999999998</ele><time>2026-05-01T10:05:11Z</time></trkpt><trkpt lat="41.00912082009371" lon="9.390206048295662"><ele>207.79999999999998</ele><time>2026-05-01T10:05:12Z</time></trkpt><trkpt lat="41.00902448326923" lon="9.390176852771372"><ele>208.2</ele><time>2026-05-01T10:05:13Z</time></trkpt><trkpt lat="41.008906669648894" lon="9.390134040896116"><ele>208.6</ele><time>2026-05-01T10:05:14Z</time></trkpt><trkpt lat="41.00878443509864" lon="9.390086480144204"><ele>209.0</ele><time>2026-05-01T10:05:15Z</time></trkpt><trkpt lat="41.008690058492625" lon="9.390077405906343"><ele>209.0</ele><time>2026-05-01T10:05:16Z</time></trkpt><trkpt lat="41.008615827143444" lon="9.390050047811226"><ele>209.0</ele><time>2026-05-01T10:05:17Z</time></trkpt><trkpt lat="41.008502689324715" lon="9.390035857442317"><ele>209.0</ele><time>2026-05-01T10:05:19Z</time></trkpt><trkpt lat="41.00841842158726" lon="9.390013699825161"><ele>209.0</ele><time>2026-05-01T10:05:21Z</time></trkpt><trkpt lat="41.0083544056363" lon="9.39002614157176"><ele>209.0</ele><time>2026-05-01T10:05:24Z</time></trkpt><trkpt lat="41.00823868072716" lon="9.390076152845197"><ele>210.16666666666669</ele><time>2026-05-01T10:05:34Z</time></trkpt><trkpt lat="41.00817693647003" lon="9.390101682731212"><ele>211.33333333333334</ele><time>2026-05-01T10:05:35Z</time></trkpt><trkpt lat="41.008098423231424" lon="9.390134146239971"><ele>212.5</ele><time>2026-05-01T10:05:36Z</time></trkpt><trkpt lat="41.00800228388667" lon="9.390172590871462"><ele>213.66666666666669</ele><time>2026-05-01T10:05:37Z</time></trkpt><trkpt lat="41.00790058343407" lon="9.390210032358182"><ele>214.83333333333334</ele><time>2026-05-01T10:05:38.001Z</time></trkpt><trkpt lat="41.00782783014257" lon="9.390234478711832"><ele>216.0</ele><time>2026-05-01T10:05:39.001Z</time></trkpt><trkpt lat="41.007758235364946" lon="9.390252990343136"><ele>216.0</ele><time>2026-05-01T10:05:40.001Z</time></trkpt><trkpt lat="41.007666433148756" lon="9.390226945558886"><ele>216.00000000000003</ele><time>2026-05-01T10:05:42.001Z</time></trkpt><trkpt lat="41.00762767327574" lon="9.390157002027097"><ele>216.00000000000003</ele><time>2026-05-01T10:05:43.001Z</time></trkpt><trkpt lat="41.00755321697246" lon="9.390083192484031"><ele>216.0</ele><time>2026-05-01T10:05:44.001Z</time></trkpt><trkpt lat="41.00747990680084" lon="9.390003645435774"><ele>216.0</ele><time>2026-05-01T10:05:45.001Z</time></trkpt><trkpt lat="41.007364914165166" lon="9.389944179398789"><ele>217.75</ele><time>2026-05-01T10:05:46.001Z</time></trkpt><trkpt lat="41.00723575297003" lon="9.389906573243522"><ele>219.5</ele><time>2026-05-01T10:05:47.001Z</time></trkpt><trkpt lat="41.00712279318677" lon="9.389853317601407"><ele>221.25</ele><time>2026-05-01T10:05:48.001Z</time></trkpt><trkpt lat="41.00702541263366" lon="9.389795175656271"><ele>223.0</ele><time>2026-05-01T10:05:49.001Z</time></trkpt><trkpt lat="41.006920263354445" lon="9.38972383933416"><ele>225.75</ele><time>2026-05-01T10:05:50.001Z</time></trkpt><trkpt lat="41.006810138051385" lon="9.389645841174067"><ele>228.5</ele><time>2026-05-01T10:05:51.001Z</time></trkpt><trkpt lat="41.00667902208352" lon="9.389592284588613"><ele>231.25</ele><time>2026-05-01T10:05:52.001Z</time></trkpt><trkpt lat="41.00657400309678" lon="9.389515354386933"><ele>234.0</ele><time>2026-05-01T10:05:53.001Z</time></trkpt><trkpt lat="41.00650927283003" lon="9.389476230142963"><ele>234.0</ele><time>2026-05-01T10:05:54Z</time></trkpt><trkpt lat="41.00642041741262" lon="9.389422524212124"><ele>233.99999999999997</ele><time>2026-05-01T10:05:56Z</time></trkpt><trkpt lat="41.00633898988398" lon="9.389373308017662"><ele>233.99999999999997</ele><time>2026-05-01T10:05:57Z</time></trkpt><trkpt lat="41.006208889272045" lon="9.389379697618322"><ele>234.0</ele><time>2026-05-01T10:05:58Z</time></trkpt><trkpt lat="41.00608151531739" lon="9.389351600012064"><ele>234.0</ele><time>2026-05-01T10:05:59Z</time></trkpt><trkpt lat="41.005942648742064" lon="9.389333702528635"><ele>234.0</ele><time>2026-05-01T10:06:00Z</time></trkpt><trkpt lat="41.005818405629526" lon="9.389287302326641"><ele>233.99999999999997</ele><time>2026-05-01T10:06:01Z</time></trkpt><trkpt lat="41.00571400245405" lon="9.389265649944912"><ele>233.99999999999997</ele><time>2026-05-01T10:06:02Z</time></trkpt><trkpt lat="41.005624386558104" lon="9.389244479024775"><ele>234.0</ele><time>2026-05-01T10:06:03Z</time></trkpt><trkpt lat="41.00554831370577" lon="9.389221028706743"><ele>234.0</ele><time>2026-05-01T10:06:04Z</time></trkpt><trkpt lat="41.00548078626907" lon="9.389195100734742"><ele>234.0</ele><time>2026-05-01T10:06:05Z</time></trkpt><trkpt lat="41.00541291800547" lon="9.389188523695626"><ele>234.0</ele><time>2026-05-01T10:06:05.999Z</time></trkpt><trkpt lat="41.005359334680286" lon="9.389140920165149"><ele>234.0</ele><time>2026-05-01T10:06:06.999Z</time></trkpt><trkpt lat="41.00528174462528" lon="9.389102892532595"><ele>234.0</ele><time>2026-05-01T10:06:07.999Z</time></trkpt><trkpt lat="41.00519502239635" lon="9.389076596647502"><ele>234.0</ele><time>2026-05-01T10:06:08.999Z</time></trkpt><trkpt lat="41.00510251224338" lon="9.389028086541524"><ele>234.0</ele><time>2026-05-01T10:06:09.999Z</time></trkpt><trkpt lat="41.005007967491935" lon="9.38898127792916"><ele>235.39999999999998</ele><time>2026-05-01T10:06:10.999Z</time></trkpt><trkpt lat="41.0049108563198" lon="9.388932996607666"><ele>236.79999999999998</ele><time>2026-05-01T10:06:11.999Z</time></trkpt><trkpt lat="41.00481239806588" lon="9.388880426145608"><ele>238.20000000000002</ele><time>2026-05-01T10:06:12.999Z</time></trkpt><trkpt lat="41.004708604640854" lon="9.388826269813162"><ele>239.60000000000002</ele><time>2026-05-01T10:06:13.999Z</time></trkpt><trkpt lat="41.0045913911907" lon="9.388772453769828"><ele>241.0</ele><time>2026-05-01T10:06:14.999Z</time></trkpt><trkpt lat="41.00446322216857" lon="9.388726391494744"><ele>241.0</ele><time>2026-05-01T10:06:15.999Z</time></trkpt><trkpt lat="41.00431578561739" lon="9.388699334162087"><ele>241.0</ele><time>2026-05-01T10:06:16.999Z</time></trkpt><trkpt lat="41.00415057205369" lon="9.388690000799148"><ele>241.0</ele><time>2026-05-01T10:06:17.999Z</time></trkpt><trkpt lat="41.0040074632482" lon="9.388706784344743"><ele>240.8</ele><time>2026-05-01T10:06:18.999Z</time></trkpt><trkpt lat="41.00388933837422" lon="9.388710615226508"><ele>240.60000000000002</ele><time>2026-05-01T10:06:19.999Z</time></trkpt><trkpt lat="41.00379042208853" lon="9.388741557155512"><ele>240.4</ele><time>2026-05-01T10:06:20.999Z</time></trkpt><trkpt lat="41.00372342508365" lon="9.388787252421848"><ele>240.2</ele><time>2026-05-01T10:06:21.999Z</time></trkpt><trkpt lat="41.00369346536292" lon="9.388902617096523"><ele>240.0</ele><time>2026-05-01T10:06:22.999Z</time></trkpt><trkpt lat="41.00370359605412" lon="9.389025710784747"><ele>241.75</ele><time>2026-05-01T10:06:23.999Z</time></trkpt><trkpt lat="41.00380136911957" lon="9.389143867191413"><ele>243.5</ele><time>2026-05-01T10:06:24.999Z</time></trkpt><trkpt lat="41.00388660013891" lon="9.389250464140392"><ele>245.25</ele><time>2026-05-01T10:06:25.999Z</time></trkpt><trkpt lat="41.003981883025304" lon="9.389377640018063"><ele>247.0</ele><time>2026-05-01T10:06:26.999Z</time></trkpt><trkpt lat="41.004074089229746" lon="9.389515300834033"><ele>246.0</ele><time>2026-05-01T10:06:27.999Z</time></trkpt><trkpt lat="41.00416615677073" lon="9.389648800451257"><ele>245.0</ele><time>2026-05-01T10:06:28.999Z</time></trkpt><trkpt lat="41.00422682961846" lon="9.389761257238806"><ele>244.0</ele><time>2026-05-01T10:06:29.999Z</time></trkpt><trkpt lat="41.00425033705487" lon="9.389870324568081"><ele>243.0</ele><time>2026-05-01T10:06:30.999Z</time></trkpt><trkpt lat="41.004226353892875" lon="9.389979799457654"><ele>242.0</ele><time>2026-05-01T10:06:31.999Z</time></trkpt><trkpt lat="41.00413787256458" lon="9.390033563157925"><ele>247.0</ele><time>2026-05-01T10:06:32.999Z</time></trkpt><trkpt lat="41.00403956359726" lon="9.390039548764696"><ele>252.0</ele><time>2026-05-01T10:06:33.999Z</time></trkpt><trkpt lat="41.00391391368618" lon="9.390032646132555"><ele>257.0</ele><time>2026-05-01T10:06:34.999Z</time></trkpt><trkpt lat="41.00378270164559" lon="9.390046950776556"><ele>262.0</ele><time>2026-05-01T10:06:35.999Z</time></trkpt><trkpt lat="41.003653389862585" lon="9.390049367989029"><ele>262.0</ele><time>2026-05-01T10:06:36.999Z</time></trkpt><trkpt lat="41.003529274344565" lon="9.39003681599248"><ele>262.0</ele><time>2026-05-01T10:06:37.999Z</time></trkpt><trkpt lat="41.00343434558511" lon="9.390046608825385"><ele>262.0</ele><time>2026-05-01T10:06:38.999Z</time></trkpt><trkpt lat="41.003369412811494" lon="9.39006508883009"><ele>262.0</ele><time>2026-05-01T10:06:39.999Z</time></trkpt><trkpt lat="41.003306365613305" lon="9.390096393571614"><ele>262.0</ele><time>2026-05-01T10:06:40.999Z</time></trkpt><trkpt lat="41.00323450539517" lon="9.390149721679167"><ele>262.0</ele><time>2026-05-01T10:06:41.999Z</time></trkpt><trkpt lat="41.00316663959926" lon="9.390238126518232"><ele>262.6</ele><time>2026-05-01T10:06:42.999Z</time></trkpt><trkpt lat="41.00312164696669" lon="9.390361107438988"><ele>263.2</ele><time>2026-05-01T10:06:43.999Z</time></trkpt><trkpt lat="41.00308413695758" lon="9.390480260277284"><ele>263.8</ele><time>2026-05-01T10:06:44.999Z</time></trkpt><trkpt lat="41.00305495396816" lon="9.390597498373234"><ele>264.4</ele><time>2026-05-01T10:06:45.999Z</time></trkpt><trkpt lat="41.003005641845846" lon="9.390696289611068"><ele>265.0</ele><time>2026-05-01T10:06:46.998Z</time></trkpt><trkpt lat="41.002958511381166" lon="9.390798052924323"><ele>267.4</ele><time>2026-05-01T10:06:47.998Z</time></trkpt><trkpt lat="41.00290266434571" lon="9.390896427295226"><ele>269.8</ele><time>2026-05-01T10:06:48.998Z</time></trkpt><trkpt lat="41.00283442672731" lon="9.390979887347646"><ele>272.2</ele><time>2026-05-01T10:06:49.998Z</time></trkpt><trkpt lat="41.00275333116501" lon="9.391042021542932"><ele>274.6</ele><time>2026-05-01T10:06:50.998Z</time></trkpt><trkpt lat="41.00266465752629" lon="9.391108607392994"><ele>277.0</ele><time>2026-05-01T10:06:51.998Z</time></trkpt><trkpt lat="41.00258049436614" lon="9.39119898711858"><ele>277.4</ele><time>2026-05-01T10:06:52.998Z</time></trkpt><trkpt lat="41.002484621242004" lon="9.391272892125864"><ele>277.79999999999995</ele><time>2026-05-01T10:06:53.998Z</time></trkpt><trkpt lat="41.00243595822224" lon="9.391417706193304"><ele>278.2</ele><time>2026-05-01T10:06:54.998Z</time></trkpt><trkpt lat="41.00240514449635" lon="9.39153659643384"><ele>278.59999999999997</ele><time>2026-05-01T10:06:55.998Z</time></trkpt><trkpt lat="41.002390883777664" lon="9.391629185242216"><ele>279.0</ele><time>2026-05-01T10:06:56.998Z</time></trkpt><trkpt lat="41.00236292528625" lon="9.39171391934015"><ele>282.0</ele><time>2026-05-01T10:06:57.998Z</time></trkpt><trkpt lat="41.00235287860858" lon="9.391814831056534"><ele>285.0</ele><time>2026-05-01T10:06:58.998Z</time></trkpt><trkpt lat="41.00235040622552" lon="9.391930809229319"><ele>288.0</ele><time>2026-05-01T10:06:59.998Z</time></trkpt><trkpt lat="41.00235491198757" lon="9.392054840709843"><ele>291.0</ele><time>2026-05-01T10:07:00.998Z</time></trkpt><trkpt lat="41.00238448076572" lon="9.392181192154197"><ele>294.0</ele><time>2026-05-01T10:07:01.998Z</time></trkpt><trkpt lat="41.002407450138506" lon="9.392297273186196"><ele>297.0</ele><time>2026-05-01T10:07:02.998Z</time></trkpt><trkpt lat="41.00242367845865" lon="9.392409030081936"><ele>297.6666666666667</ele><time>2026-05-01T10:07:03.998Z</time></trkpt><trkpt lat="41.00243623063417" lon="9.392515449809618"><ele>298.3333333333333</ele><time>2026-05-01T10:07:04.998Z</time></trkpt><trkpt lat="41.00242978685574" lon="9.392617407331146"><ele>299.0</ele><time>2026-05-01T10:07:05.998Z</time></trkpt><trkpt lat="41.002388762922486" lon="9.392704186454138"><ele>299.66666666666663</ele><time>2026-05-01T10:07:06.998Z</time></trkpt><trkpt lat="41.00232286558682" lon="9.392777825343199"><ele>300.3333333333333</ele><time>2026-05-01T10:07:07.998Z</time></trkpt><trkpt lat="41.00223710899997" lon="9.392822391875463"><ele>301.0</ele><time>2026-05-01T10:07:08.998Z</time></trkpt><trkpt lat="41.002137534189025" lon="9.392859017483675"><ele>301.0</ele><time>2026-05-01T10:07:09.998Z</time></trkpt><trkpt lat="41.002030988659605" lon="9.392901186458431"><ele>301.0</ele><time>2026-05-01T10:07:10.998Z</time></trkpt><trkpt lat="41.00192443948555" lon="9.392941669269902"><ele>301.0</ele><time>2026-05-01T10:07:11.998Z</time></trkpt><trkpt lat="41.00182009568621" lon="9.392983642815615"><ele>301.0</ele><time>2026-05-01T10:07:12.998Z</time></trkpt><trkpt lat="41.00173012153242" lon="9.393018618800678"><ele>301.0</ele><time>2026-05-01T10:07:13.998Z</time></trkpt><trkpt lat="41.001646758766086" lon="9.393049768461662"><ele>301.2</ele><time>2026-05-01T10:07:14.998Z</time></trkpt><trkpt lat="41.00156563246033" lon="9.393017597548482"><ele>301.40000000000003</ele><time>2026-05-01T10:07:15.998Z</time></trkpt><trkpt lat="41.00148884695576" lon="9.392945436939408"><ele>301.6</ele><time>2026-05-01T10:07:16.998Z</time></trkpt><trkpt lat="41.00142562733783" lon="9.392828543638904"><ele>301.8</ele><time>2026-05-01T10:07:17.998Z</time></trkpt><trkpt lat="41.00134017789413" lon="9.392749434122948"><ele>302.0</ele><time>2026-05-01T10:07:18.998Z</time></trkpt><trkpt lat="41.001269011930056" lon="9.39264712868638"><ele>303.5</ele><time>2026-05-01T10:07:19.998Z</time></trkpt><trkpt lat="41.00119801263279" lon="9.39254403439727"><ele>305.0</ele><time>2026-05-01T10:07:20.998Z</time></trkpt><trkpt lat="41.00112079653757" lon="9.39243544269853"><ele>306.5</ele><time>2026-05-01T10:07:21.998Z</time></trkpt><trkpt lat="41.001030753416075" lon="9.392324613119696"><ele>308.0</ele><time>2026-05-01T10:07:22.998Z</time></trkpt><trkpt lat="41.00093796405907" lon="9.392224043161946"><ele>307.8</ele><time>2026-05-01T10:07:23.998Z</time></trkpt><trkpt lat="41.00085917881863" lon="9.39215807329443"><ele>307.6</ele><time>2026-05-01T10:07:24.998Z</time></trkpt><trkpt lat="41.00079278143229" lon="9.392116759086193"><ele>307.4</ele><time>2026-05-01T10:07:25.998Z</time></trkpt><trkpt lat="41.0007341505927" lon="9.392081699485237"><ele>307.2</ele><time>2026-05-01T10:07:26.998Z</time></trkpt><trkpt lat="41.000642174643644" lon="9.392002698562631"><ele>307.0</ele><time>2026-05-01T10:07:28.998Z</time></trkpt><trkpt lat="41.00054363208243" lon="9.391862138914574"><ele>307.0</ele><time>2026-05-01T10:07:30.998Z</time></trkpt><trkpt lat="41.00048494947389" lon="9.39174674950798"><ele>307.0</ele><time>2026-05-01T10:07:31.998Z</time></trkpt><trkpt lat="41.000405983167596" lon="9.39164107676312"><ele>307.0</ele><time>2026-05-01T10:07:32.998Z</time></trkpt><trkpt lat="41.00031525225631" lon="9.391571035029374"><ele>307.0</ele><time>2026-05-01T10:07:33.998Z</time></trkpt><trkpt lat="41.00021300810066" lon="9.39151657956016"><ele>307.0</ele><time>2026-05-01T10:07:34.998Z</time></trkpt><trkpt lat="41.000108950191866" lon="9.391452171136587"><ele>307.0</ele><time>2026-05-01T10:07:35.998Z</time></trkpt><trkpt lat="41.000009103572054" lon="9.3913660950239"><ele>307.0</ele><time>2026-05-01T10:07:36.998Z</time></trkpt><trkpt lat="40.999905267756844" lon="9.39129728639493"><ele>307.0</ele><time>2026-05-01T10:07:37.998Z</time></trkpt><trkpt lat="40.99980436583428" lon="9.391231192707297"><ele>307.0</ele><time>2026-05-01T10:07:38.998Z</time></trkpt><trkpt lat="40.999700917669344" lon="9.39117166301548"><ele>305.75</ele><time>2026-05-01T10:07:39.998Z</time></trkpt><trkpt lat="40.99959057981655" lon="9.391138274738065"><ele>304.5</ele><time>2026-05-01T10:07:40.998Z</time></trkpt><trkpt lat="40.99947329093337" lon="9.39117277935964"><ele>303.25</ele><time>2026-05-01T10:07:41.998Z</time></trkpt><trkpt lat="40.99935977502741" lon="9.391162669053589"><ele>302.0</ele><time>2026-05-01T10:07:42.998Z</time></trkpt><trkpt lat="40.99924966017626" lon="9.391164012842829"><ele>305.0</ele><time>2026-05-01T10:07:43.999Z</time></trkpt><trkpt lat="40.99914025221084" lon="9.39115480870482"><ele>308.0</ele><time>2026-05-01T10:07:44.999Z</time></trkpt><trkpt lat="40.99903690209189" lon="9.391121692188792"><ele>311.0</ele><time>2026-05-01T10:07:45.999Z</time></trkpt><trkpt lat="40.99894194875099" lon="9.391046748452133"><ele>314.0</ele><time>2026-05-01T10:07:46.999Z</time></trkpt><trkpt lat="40.99883818174299" lon="9.390947188025065"><ele>314.0</ele><time>2026-05-01T10:07:47.999Z</time></trkpt><trkpt lat="40.998743507538045" lon="9.390846460086157"><ele>314.0</ele><time>2026-05-01T10:07:48.999Z</time></trkpt><trkpt lat="40.998658534559766" lon="9.390747137379096"><ele>314.0</ele><time>2026-05-01T10:07:49.999Z</time></trkpt><trkpt lat="40.99857811993037" lon="9.390618852346979"><ele>314.0</ele><time>2026-05-01T10:07:50.999Z</time></trkpt><trkpt lat="40.99851152666616" lon="9.39045874951492"><ele>315.25</ele><time>2026-05-01T10:07:51.999Z</time></trkpt><trkpt lat="40.998475983847484" lon="9.390279348376842"><ele>316.5</ele><time>2026-05-01T10:07:52.999Z</time></trkpt><trkpt lat="40.9984464222454" lon="9.390091259518389"><ele>317.75</ele><time>2026-05-01T10:07:53.999Z</time></trkpt><trkpt lat="40.99840388410743" lon="9.389903093182392"><ele>319.0</ele><time>2026-05-01T10:07:54.999Z</time></trkpt><trkpt lat="40.998383983942325" lon="9.389706006074157"><ele>319.3333333333333</ele><time>2026-05-01T10:07:55.999Z</time></trkpt><trkpt lat="40.998326532969756" lon="9.389510410361888"><ele>319.6666666666667</ele><time>2026-05-01T10:07:57Z</time></trkpt><trkpt lat="40.998285545524226" lon="9.389311736266256"><ele>320.0</ele><time>2026-05-01T10:07:58Z</time></trkpt><trkpt lat="40.99824708018521" lon="9.389126196069029"><ele>320.0</ele><time>2026-05-01T10:07:59Z</time></trkpt><trkpt lat="40.9982227575274" lon="9.388939795114574"><ele>320.0</ele><time>2026-05-01T10:08:00Z</time></trkpt><trkpt lat="40.99821641588905" lon="9.388742109793027"><ele>320.0</ele><time>2026-05-01T10:08:01Z</time></trkpt><trkpt lat="40.998208236010164" lon="9.388536773061771"><ele>320.0</ele><time>2026-05-01T10:08:02Z</time></trkpt><trkpt lat="40.998197911003615" lon="9.388348655163231"><ele>319.25</ele><time>2026-05-01T10:08:03Z</time></trkpt><trkpt lat="40.99819514396125" lon="9.388172562518905"><ele>318.5</ele><time>2026-05-01T10:08:04Z</time></trkpt><trkpt lat="40.9981824325128" lon="9.388026123149839"><ele>317.75</ele><time>2026-05-01T10:08:05Z</time></trkpt><trkpt lat="40.998135800770726" lon="9.387901583869695"><ele>317.0</ele><time>2026-05-01T10:08:06Z</time></trkpt><trkpt lat="40.998035237541885" lon="9.387769777295293"><ele>319.33333333333337</ele><time>2026-05-01T10:08:07Z</time></trkpt><trkpt lat="40.99791329641761" lon="9.387619020036972"><ele>321.6666666666667</ele><time>2026-05-01T10:08:08Z</time></trkpt><trkpt lat="40.9977814724559" lon="9.387471526377292"><ele>324.0</ele><time>2026-05-01T10:08:09Z</time></trkpt><trkpt lat="40.99765585811622" lon="9.387351417794852"><ele>324.0</ele><time>2026-05-01T10:08:10Z</time></trkpt><trkpt lat="40.99753585130192" lon="9.387241415893293"><ele>324.0</ele><time>2026-05-01T10:08:11Z</time></trkpt><trkpt lat="40.99741898252031" lon="9.387136652327184"><ele>324.0</ele><time>2026-05-01T10:08:12Z</time></trkpt><trkpt lat="40.9973093705748" lon="9.387035086197873"><ele>324.0</ele><time>2026-05-01T10:08:13Z</time></trkpt><trkpt lat="40.99720029273166" lon="9.386935115340405"><ele>321.4</ele><time>2026-05-01T10:08:14Z</time></trkpt><trkpt lat="40.99709934337093" lon="9.386841182598175"><ele>318.79999999999995</ele><time>2026-05-01T10:08:15Z</time></trkpt><trkpt lat="40.997024959414716" lon="9.386755571694342"><ele>316.20000000000005</ele><time>2026-05-01T10:08:16Z</time></trkpt><trkpt lat="40.99699157995516" lon="9.386674402288083"><ele>313.6</ele><time>2026-05-01T10:08:17Z</time></trkpt><trkpt lat="40.996974950955064" lon="9.386584304728252"><ele>311.0</ele><time>2026-05-01T10:08:18Z</time></trkpt><trkpt lat="40.997047740335944" lon="9.386456564477097"><ele>311.75</ele><time>2026-05-01T10:08:19Z</time></trkpt><trkpt lat="40.997055700909634" lon="9.386296395438018"><ele>312.5</ele><time>2026-05-01T10:08:20Z</time></trkpt><trkpt lat="40.99703092205839" lon="9.386138589459428"><ele>313.25</ele><time>2026-05-01T10:08:21Z</time></trkpt><trkpt lat="40.99696091091826" lon="9.385977339261327"><ele>314.0</ele><time>2026-05-01T10:08:22Z</time></trkpt><trkpt lat="40.996889823721965" lon="9.385841788348701"><ele>314.0</ele><time>2026-05-01T10:08:23Z</time></trkpt><trkpt lat="40.99686444337732" lon="9.385696730335775"><ele>314.0</ele><time>2026-05-01T10:08:24Z</time></trkpt><trkpt lat="40.99678857059995" lon="9.385603557493607"><ele>314.0</ele><time>2026-05-01T10:08:25Z</time></trkpt><trkpt lat="40.99671750949718" lon="9.385546812887606"><ele>314.0</ele><time>2026-05-01T10:08:26Z</time></trkpt><trkpt lat="40.9966607049617" lon="9.385484223661518"><ele>314.0</ele><time>2026-05-01T10:08:27Z</time></trkpt><trkpt lat="40.996605816791615" lon="9.385418998185688"><ele>314.0</ele><time>2026-05-01T10:08:28Z</time></trkpt><trkpt lat="40.99654224567841" lon="9.385272034768875"><ele>310.1666666666667</ele><time>2026-05-01T10:08:30Z</time></trkpt><trkpt lat="40.99650894247189" lon="9.385116897383202"><ele>306.33333333333337</ele><time>2026-05-01T10:08:32Z</time></trkpt><trkpt lat="40.99648166944723" lon="9.385032877109456"><ele>302.5</ele><time>2026-05-01T10:08:33Z</time></trkpt><trkpt lat="40.996441519498475" lon="9.384967918760678"><ele>298.6666666666667</ele><time>2026-05-01T10:08:34Z</time></trkpt><trkpt lat="40.99637588220416" lon="9.384923521213459"><ele>294.8333333333333</ele><time>2026-05-01T10:08:35Z</time></trkpt><trkpt lat="40.996315773845346" lon="9.384883330647886"><ele>291.0</ele><time>2026-05-01T10:08:36Z</time></trkpt><trkpt lat="40.996256934024416" lon="9.38485172387735"><ele>291.0</ele><time>2026-05-01T10:08:37Z</time></trkpt><trkpt lat="40.996203732321185" lon="9.384805833162307"><ele>291.0</ele><time>2026-05-01T10:08:38Z</time></trkpt><trkpt lat="40.996130217048396" lon="9.384686249340122"><ele>291.0</ele><time>2026-05-01T10:08:40Z</time></trkpt><trkpt lat="40.996097847697705" lon="9.384586176044028"><ele>291.0</ele><time>2026-05-01T10:08:42Z</time></trkpt><trkpt lat="40.996034460164886" lon="9.384522220524548"><ele>291.0</ele><time>2026-05-01T10:08:44Z</time></trkpt><trkpt lat="40.99591659888381" lon="9.384509166016723"><ele>289.40000000000003</ele><time>2026-05-01T10:08:46Z</time></trkpt><trkpt lat="40.995790371267276" lon="9.384498028072084"><ele>287.8</ele><time>2026-05-01T10:08:48Z</time></trkpt><trkpt lat="40.99572733529647" lon="9.384484955376363"><ele>286.20000000000005</ele><time>2026-05-01T10:08:49Z</time></trkpt><trkpt lat="40.99563823782058" lon="9.38437151851446"><ele>284.6</ele><time>2026-05-01T10:08:51Z</time></trkpt><trkpt lat="40.99562458853089" lon="9.384268026683461"><ele>283.0</ele><time>2026-05-01T10:08:52Z</time></trkpt><trkpt lat="40.99561504782404" lon="9.384154959454534"><ele>283.0</ele><time>2026-05-01T10:08:53Z</time></trkpt><trkpt lat="40.99561189008784" lon="9.384021966566959"><ele>283.0</ele><time>2026-05-01T10:08:54Z</time></trkpt><trkpt lat="40.995604826338564" lon="9.383908355401203"><ele>283.0</ele><time>2026-05-01T10:08:55Z</time></trkpt><trkpt lat="40.9956134990758" lon="9.38379734325849"><ele>283.0</ele><time>2026-05-01T10:08:56Z</time></trkpt><trkpt lat="40.9956175704797" lon="9.3836798002064"><ele>283.0</ele><time>2026-05-01T10:08:57Z</time></trkpt><trkpt lat="40.995603728241946" lon="9.383551196812542"><ele>284.4</ele><time>2026-05-01T10:08:58Z</time></trkpt><trkpt lat="40.995574026100385" lon="9.383416141165076"><ele>285.8</ele><time>2026-05-01T10:08:59Z</time></trkpt><trkpt lat="40.995537239133725" lon="9.383292547235559"><ele>287.2</ele><time>2026-05-01T10:09:00Z</time></trkpt><trkpt lat="40.99549720612666" lon="9.383175218750624"><ele>288.6</ele><time>2026-05-01T10:09:01Z</time></trkpt><trkpt lat="40.99545649911163" lon="9.38304825366393"><ele>290.0</ele><time>2026-05-01T10:09:02Z</time></trkpt><trkpt lat="40.99539785386799" lon="9.382932677891034"><ele>291.0</ele><time>2026-05-01T10:09:03Z</time></trkpt><trkpt lat="40.99532990072255" lon="9.382837398654683"><ele>292.0</ele><time>2026-05-01T10:09:04Z</time></trkpt><trkpt lat="40.995242267701116" lon="9.382767421615297"><ele>293.0</ele><time>2026-05-01T10:09:05Z</time></trkpt><trkpt lat="40.99516225844878" lon="9.38271782215881"><ele>294.0</ele><time>2026-05-01T10:09:06Z</time></trkpt><trkpt lat="40.99506830805148" lon="9.382696937849028"><ele>295.0</ele><time>2026-05-01T10:09:07Z</time></trkpt><trkpt lat="40.99497504616826" lon="9.382671197966982"><ele>291.8333333333333</ele><time>2026-05-01T10:09:08Z</time></trkpt><trkpt lat="40.994912069802496" lon="9.38262272295318"><ele>288.66666666666663</ele><time>2026-05-01T10:09:09Z</time></trkpt><trkpt lat="40.99484531511912" lon="9.382556689344332"><ele>285.5</ele><time>2026-05-01T10:09:10Z</time></trkpt><trkpt lat="40.99477265535043" lon="9.382474030235912"><ele>282.3333333333333</ele><time>2026-05-01T10:09:11Z</time></trkpt><trkpt lat="40.99468977149828" lon="9.382405880983221"><ele>279.1666666666667</ele><time>2026-05-01T10:09:12Z</time></trkpt><trkpt lat="40.99460189003781" lon="9.382368315014002"><ele>276.0</ele><time>2026-05-01T10:09:13Z</time></trkpt><trkpt lat="40.99452828155935" lon="9.38232490045591"><ele>276.0</ele><time>2026-05-01T10:09:14Z</time></trkpt><trkpt lat="40.994449714669805" lon="9.382294906613833"><ele>276.0</ele><time>2026-05-01T10:09:15Z</time></trkpt><trkpt lat="40.99436343567424" lon="9.38226196586609"><ele>276.0</ele><time>2026-05-01T10:09:16Z</time></trkpt><trkpt lat="40.994276256945724" lon="9.382228681606787"><ele>276.0</ele><time>2026-05-01T10:09:17Z</time></trkpt><trkpt lat="40.994141770987156" lon="9.382394277904224"><ele>276.0</ele><time>2026-05-01T10:09:18Z</time></trkpt><trkpt lat="40.99404378567386" lon="9.382407362619723"><ele>275.8</ele><time>2026-05-01T10:09:19Z</time></trkpt><trkpt lat="40.99393716592599" lon="9.382395807675035"><ele>275.6</ele><time>2026-05-01T10:09:20Z</time></trkpt><trkpt lat="40.993838397138234" lon="9.382352666094793"><ele>275.4</ele><time>2026-05-01T10:09:21Z</time></trkpt><trkpt lat="40.99375035735882" lon="9.382307395128027"><ele>275.2</ele><time>2026-05-01T10:09:22Z</time></trkpt><trkpt lat="40.99366307376453" lon="9.382271207184743"><ele>275.0</ele><time>2026-05-01T10:09:23Z</time></trkpt><trkpt lat="40.993591248709166" lon="9.382235182228703"><ele>275.0</ele><time>2026-05-01T10:09:24Z</time></trkpt><trkpt lat="40.99352304672597" lon="9.382208477583337"><ele>275.0</ele><time>2026-05-01T10:09:25Z</time></trkpt><trkpt lat="40.993440672719224" lon="9.38212392119314"><ele>275.0</ele><time>2026-05-01T10:09:27Z</time></trkpt><trkpt lat="40.99338492322926" lon="9.381950250813208"><ele>275.0</ele><time>2026-05-01T10:09:29Z</time></trkpt><trkpt lat="40.99337124171136" lon="9.381832057940999"><ele>275.0</ele><time>2026-05-01T10:09:30Z</time></trkpt><trkpt lat="40.99335612108821" lon="9.381679350981056"><ele>275.8</ele><time>2026-05-01T10:09:31Z</time></trkpt><trkpt lat="40.99333045583306" lon="9.381521350773255"><ele>276.6</ele><time>2026-05-01T10:09:32Z</time></trkpt><trkpt lat="40.993289418111466" lon="9.381399511942309"><ele>277.4</ele><time>2026-05-01T10:09:33Z</time></trkpt><trkpt lat="40.99322655566693" lon="9.381290886816052"><ele>278.2</ele><time>2026-05-01T10:09:34Z</time></trkpt><trkpt lat="40.993170433297685" lon="9.381181645476172"><ele>279.0</ele><time>2026-05-01T10:09:35Z</time></trkpt><trkpt lat="40.993139758534085" lon="9.381049971974887"><ele>279.0</ele><time>2026-05-01T10:09:35.999Z</time></trkpt><trkpt lat="40.99313350019152" lon="9.380909945664731"><ele>279.0</ele><time>2026-05-01T10:09:36.999Z</time></trkpt><trkpt lat="40.99314960242835" lon="9.380764494693636"><ele>279.0</ele><time>2026-05-01T10:09:37.999Z</time></trkpt><trkpt lat="40.99316062146113" lon="9.380602404421072"><ele>279.0</ele><time>2026-05-01T10:09:38.999Z</time></trkpt><trkpt lat="40.99318280652615" lon="9.380421685994401"><ele>279.5</ele><time>2026-05-01T10:09:39.999Z</time></trkpt><trkpt lat="40.993210657881214" lon="9.380226643601764"><ele>280.0</ele><time>2026-05-01T10:09:40.999Z</time></trkpt><trkpt lat="40.99323562829778" lon="9.380033210074005"><ele>280.5</ele><time>2026-05-01T10:09:41.999Z</time></trkpt><trkpt lat="40.99325618316685" lon="9.379881054449656"><ele>281.0</ele><time>2026-05-01T10:09:42.999Z</time></trkpt><trkpt lat="40.99327829216363" lon="9.379764309513044"><ele>281.83333333333337</ele><time>2026-05-01T10:09:43.999Z</time></trkpt><trkpt lat="40.99330800060714" lon="9.379642846259259"><ele>282.6666666666667</ele><time>2026-05-01T10:09:44.999Z</time></trkpt><trkpt lat="40.993356523235796" lon="9.379534615486259"><ele>283.5</ele><time>2026-05-01T10:09:45.999Z</time></trkpt><trkpt lat="40.9934079312669" lon="9.379452393839305"><ele>284.3333333333333</ele><time>2026-05-01T10:09:46.999Z</time></trkpt><trkpt lat="40.99345373106981" lon="9.379353365696627"><ele>285.16666666666663</ele><time>2026-05-01T10:09:47.999Z</time></trkpt><trkpt lat="40.99348939607603" lon="9.37924465692711"><ele>286.0</ele><time>2026-05-01T10:09:48.999Z</time></trkpt><trkpt lat="40.9935106507878" lon="9.37913591853338"><ele>287.2</ele><time>2026-05-01T10:09:50Z</time></trkpt><trkpt lat="40.993533347052576" lon="9.379008669427463"><ele>288.40000000000003</ele><time>2026-05-01T10:09:51Z</time></trkpt><trkpt lat="40.9935510104112" lon="9.37886991789968"><ele>289.6</ele><time>2026-05-01T10:09:52Z</time></trkpt><trkpt lat="40.993562087827456" lon="9.378724403833548"><ele>290.8</ele><time>2026-05-01T10:09:53Z</time></trkpt><trkpt lat="40.993569181611285" lon="9.378577445595539"><ele>292.0</ele><time>2026-05-01T10:09:54Z</time></trkpt><trkpt lat="40.99357498036363" lon="9.37843413191711"><ele>294.4</ele><time>2026-05-01T10:09:55Z</time></trkpt><trkpt lat="40.99356932500752" lon="9.378286501213218"><ele>296.79999999999995</ele><time>2026-05-01T10:09:56Z</time></trkpt><trkpt lat="40.99355657036355" lon="9.378157477796655"><ele>299.2</ele><time>2026-05-01T10:09:57Z</time></trkpt><trkpt lat="40.99353579574658" lon="9.378046388204051"><ele>301.59999999999997</ele><time>2026-05-01T10:09:58Z</time></trkpt><trkpt lat="40.993493543433104" lon="9.377936203657793"><ele>304.0</ele><time>2026-05-01T10:09:59Z</time></trkpt><trkpt lat="40.9934380629992" lon="9.377825488036814"><ele>303.4</ele><time>2026-05-01T10:10:00Z</time></trkpt><trkpt lat="40.99337475939568" lon="9.377710897160863"><ele>302.79999999999995</ele><time>2026-05-01T10:10:01Z</time></trkpt><trkpt lat="40.99330964000579" lon="9.377614280626203"><ele>302.20000000000005</ele><time>2026-05-01T10:10:02Z</time></trkpt><trkpt lat="40.99325064205009" lon="9.377516445094926"><ele>301.6</ele><time>2026-05-01T10:10:03Z</time></trkpt><trkpt lat="40.993205952388884" lon="9.377400155069344"><ele>301.0</ele><time>2026-05-01T10:10:03.999Z</time></trkpt><trkpt lat="40.993182450949554" lon="9.377275143098256"><ele>303.40000000000003</ele><time>2026-05-01T10:10:04.999Z</time></trkpt><trkpt lat="40.993173174461425" lon="9.377159816592307"><ele>305.8</ele><time>2026-05-01T10:10:05.999Z</time></trkpt><trkpt lat="40.99314817238226" lon="9.377080638903983"><ele>308.20000000000005</ele><time>2026-05-01T10:10:06.999Z</time></trkpt><trkpt lat="40.99302686734513" lon="9.377019764096529"><ele>310.6</ele><time>2026-05-01T10:10:08.999Z</time></trkpt><trkpt lat="40.99295283636927" lon="9.377032315356635"><ele>313.0</ele><time>2026-05-01T10:10:09.999Z</time></trkpt><trkpt lat="40.992850192522155" lon="9.377057474163953"><ele>313.0</ele><time>2026-05-01T10:10:10.999Z</time></trkpt><trkpt lat="40.992745786163574" lon="9.377074163459577"><ele>313.0</ele><time>2026-05-01T10:10:11.999Z</time></trkpt><trkpt lat="40.992652296185405" lon="9.377078879717326"><ele>313.0</ele><time>2026-05-01T10:10:13Z</time></trkpt><trkpt lat="40.992587096441774" lon="9.377071988579793"><ele>313.0</ele><time>2026-05-01T10:10:14Z</time></trkpt><trkpt lat="40.99253665156148" lon="9.376924328242444"><ele>313.0</ele><time>2026-05-01T10:10:16Z</time></trkpt><trkpt lat="40.99255938661688" lon="9.376825022174417"><ele>313.0</ele><time>2026-05-01T10:10:17Z</time></trkpt><trkpt lat="40.99260887931138" lon="9.376708036279775"><ele>313.0</ele><time>2026-05-01T10:10:18Z</time></trkpt><trkpt lat="40.99267195991727" lon="9.376606086376782"><ele>313.0</ele><time>2026-05-01T10:10:19Z</time></trkpt><trkpt lat="40.992735322618486" lon="9.376513931813621"><ele>313.0</ele><time>2026-05-01T10:10:20Z</time></trkpt><trkpt lat="40.992787947655216" lon="9.376430149094992"><ele>313.0</ele><time>2026-05-01T10:10:21Z</time></trkpt><trkpt lat="40.992830249945065" lon="9.376352157251535"><ele>315.8333333333333</ele><time>2026-05-01T10:10:22Z</time></trkpt><trkpt lat="40.99287438379647" lon="9.376254370513283"><ele>318.66666666666663</ele><time>2026-05-01T10:10:23Z</time></trkpt><trkpt lat="40.992916626950375" lon="9.37615044363248"><ele>321.5</ele><time>2026-05-01T10:10:24Z</time></trkpt><trkpt lat="40.9929639664517" lon="9.376050120366434"><ele>324.3333333333333</ele><time>2026-05-01T10:10:25Z</time></trkpt><trkpt lat="40.993023838334075" lon="9.375958042816546"><ele>327.1666666666667</ele><time>2026-05-01T10:10:26Z</time></trkpt><trkpt lat="40.99307581488118" lon="9.375876275429977"><ele>330.0</ele><time>2026-05-01T10:10:27Z</time></trkpt><trkpt lat="40.993104656777916" lon="9.375785376106323"><ele>330.0</ele><time>2026-05-01T10:10:28Z</time></trkpt><trkpt lat="40.99313158004896" lon="9.375672747700394"><ele>330.0</ele><time>2026-05-01T10:10:29Z</time></trkpt><trkpt lat="40.99316262816957" lon="9.375555135479472"><ele>330.0</ele><time>2026-05-01T10:10:30Z</time></trkpt><trkpt lat="40.99321434752723" lon="9.375402277245206"><ele>330.0</ele><time>2026-05-01T10:10:31Z</time></trkpt><trkpt lat="40.993270603524635" lon="9.375265467238187"><ele>330.0</ele><time>2026-05-01T10:10:32Z</time></trkpt><trkpt lat="40.99331691123608" lon="9.375160395622386"><ele>333.0</ele><time>2026-05-01T10:10:33Z</time></trkpt><trkpt lat="40.99335870767895" lon="9.375089341344308"><ele>336.0</ele><time>2026-05-01T10:10:34Z</time></trkpt><trkpt lat="40.99338508849385" lon="9.374982473465593"><ele>339.0</ele><time>2026-05-01T10:10:36Z</time></trkpt><trkpt lat="40.99325684376434" lon="9.37490654650701"><ele>342.0</ele><time>2026-05-01T10:10:39Z</time></trkpt><trkpt lat="40.993166732870534" lon="9.374972298493075"><ele>345.0</ele><time>2026-05-01T10:10:40Z</time></trkpt><trkpt lat="40.993073866436305" lon="9.37504546834246"><ele>345.0</ele><time>2026-05-01T10:10:41Z</time></trkpt><trkpt lat="40.99297922084247" lon="9.375081744108348"><ele>345.0</ele><time>2026-05-01T10:10:42Z</time></trkpt><trkpt lat="40.992862719287785" lon="9.37510861990918"><ele>345.0</ele><time>2026-05-01T10:10:43Z</time></trkpt><trkpt lat="40.9927411313909" lon="9.3751339257406"><ele>345.0</ele><time>2026-05-01T10:10:44Z</time></trkpt><trkpt lat="40.9926280168799" lon="9.375152241367715"><ele>345.0</ele><time>2026-05-01T10:10:45Z</time></trkpt><trkpt lat="40.99251856234817" lon="9.375166356070503"><ele>345.0</ele><time>2026-05-01T10:10:46Z</time></trkpt><trkpt lat="40.992406225648566" lon="9.375180043733433"><ele>345.0</ele><time>2026-05-01T10:10:47Z</time></trkpt><trkpt lat="40.992302075644055" lon="9.37519116321361"><ele>345.0</ele><time>2026-05-01T10:10:48Z</time></trkpt><trkpt lat="40.99219972295033" lon="9.375196214649904"><ele>345.0</ele><time>2026-05-01T10:10:49Z</time></trkpt><trkpt lat="40.99210391803618" lon="9.375183243981084"><ele>347.6666666666667</ele><time>2026-05-01T10:10:50Z</time></trkpt><trkpt lat="40.992004319019514" lon="9.37516983325928"><ele>350.3333333333333</ele><time>2026-05-01T10:10:51Z</time></trkpt><trkpt lat="40.991912570431374" lon="9.375168014663775"><ele>353.0</ele><time>2026-05-01T10:10:52Z</time></trkpt><trkpt lat="40.991837657994985" lon="9.375172333393884"><ele>355.66666666666663</ele><time>2026-05-01T10:10:53Z</time></trkpt><trkpt lat="40.99175963324587" lon="9.375181378015919"><ele>358.3333333333333</ele><time>2026-05-01T10:10:54Z</time></trkpt><trkpt lat="40.99167542469811" lon="9.375206294999634"><ele>361.0</ele><time>2026-05-01T10:10:55Z</time></trkpt><trkpt lat="40.99160001881852" lon="9.375302389817831"><ele>363.20000000000005</ele><time>2026-05-01T10:10:56Z</time></trkpt><trkpt lat="40.99153429633171" lon="9.375346205481282"><ele>365.40000000000003</ele><time>2026-05-01T10:10:57Z</time></trkpt><trkpt lat="40.99146865727393" lon="9.37533389957171"><ele>367.6</ele><time>2026-05-01T10:10:59Z</time></trkpt><trkpt lat="40.99149419299906" lon="9.375137089953848"><ele>369.8</ele><time>2026-05-01T10:11:01Z</time></trkpt><trkpt lat="40.991558390877366" lon="9.375031355604849"><ele>372.0</ele><time>2026-05-01T10:11:02Z</time></trkpt><trkpt lat="40.991642104764644" lon="9.374936512107674"><ele>374.0</ele><time>2026-05-01T10:11:03Z</time></trkpt><trkpt lat="40.9917650001477" lon="9.37484497568166"><ele>376.0</ele><time>2026-05-01T10:11:04Z</time></trkpt><trkpt lat="40.99190647821686" lon="9.374740141708836"><ele>378.0</ele><time>2026-05-01T10:11:05Z</time></trkpt><trkpt lat="40.99201763025742" lon="9.374636524483247"><ele>380.0</ele><time>2026-05-01T10:11:06Z</time></trkpt><trkpt lat="40.992091667938936" lon="9.374586556849566"><ele>380.0</ele><time>2026-05-01T10:11:06.999Z</time></trkpt><trkpt lat="40.992175402743044" lon="9.374446340880676"><ele>380.0</ele><time>2026-05-01T10:11:08.999Z</time></trkpt><trkpt lat="40.99220674353941" lon="9.37433643096264"><ele>380.0</ele><time>2026-05-01T10:11:09.999Z</time></trkpt><trkpt lat="40.99227156366304" lon="9.374189793241355"><ele>380.0</ele><time>2026-05-01T10:11:10.999Z</time></trkpt><trkpt lat="40.99233972128836" lon="9.374045766913081"><ele>380.0</ele><time>2026-05-01T10:11:11.999Z</time></trkpt><trkpt lat="40.99237984131905" lon="9.373934668392343"><ele>380.0</ele><time>2026-05-01T10:11:12.999Z</time></trkpt><trkpt lat="40.992440395536455" lon="9.373868457550522"><ele>380.0</ele><time>2026-05-01T10:11:13.999Z</time></trkpt><trkpt lat="40.99241971527559" lon="9.3737633295426"><ele>380.0</ele><time>2026-05-01T10:11:15.999Z</time></trkpt><trkpt lat="40.99232167566845" lon="9.373597064337135"><ele>380.0</ele><time>2026-05-01T10:11:17.999Z</time></trkpt><trkpt lat="40.99224867532191" lon="9.373483976239966"><ele>383.25</ele><time>2026-05-01T10:11:18.999Z</time></trkpt><trkpt lat="40.9921565617932" lon="9.373368847186729"><ele>386.5</ele><time>2026-05-01T10:11:19.999Z</time></trkpt><trkpt lat="40.99204972611893" lon="9.373257812920022"><ele>389.75</ele><time>2026-05-01T10:11:20.999Z</time></trkpt><trkpt lat="40.99193852587153" lon="9.373158954322575"><ele>393.0</ele><time>2026-05-01T10:11:21.999Z</time></trkpt><trkpt lat="40.991827454729126" lon="9.37306313160869"><ele>396.0</ele><time>2026-05-01T10:11:22.999Z</time></trkpt><trkpt lat="40.99172199274612" lon="9.372961843769728"><ele>399.0</ele><time>2026-05-01T10:11:23.999Z</time></trkpt><trkpt lat="40.99164561883506" lon="9.372851953215578"><ele>402.0</ele><time>2026-05-01T10:11:24.999Z</time></trkpt><trkpt lat="40.99156482350846" lon="9.37271887776923"><ele>405.0</ele><time>2026-05-01T10:11:25.999Z</time></trkpt><trkpt lat="40.99147468516794" lon="9.372566241416838"><ele>405.6</ele><time>2026-05-01T10:11:26.999Z</time></trkpt><trkpt lat="40.99145924071824" lon="9.372399191743996"><ele>406.2</ele><time>2026-05-01T10:11:27.999Z</time></trkpt><trkpt lat="40.99141339837503" lon="9.37227812752263"><ele>406.79999999999995</ele><time>2026-05-01T10:11:28.999Z</time></trkpt><trkpt lat="40.99132919525507" lon="9.372195656136581"><ele>407.4</ele><time>2026-05-01T10:11:29.999Z</time></trkpt><trkpt lat="40.991252674815655" lon="9.372093558773386"><ele>408.0</ele><time>2026-05-01T10:11:30.999Z</time></trkpt><trkpt lat="40.99114291480435" lon="9.371996796199008"><ele>411.59999999999997</ele><time>2026-05-01T10:11:31.999Z</time></trkpt><trkpt lat="40.991089028444954" lon="9.371918738047462"><ele>415.2</ele><time>2026-05-01T10:11:32.999Z</time></trkpt><trkpt lat="40.99106587033211" lon="9.371838518485266"><ele>418.8</ele><time>2026-05-01T10:11:33.999Z</time></trkpt><trkpt lat="40.99106720938876" lon="9.371742130496106"><ele>422.4</ele><time>2026-05-01T10:11:34.999Z</time></trkpt><trkpt lat="40.9911254703081" lon="9.37159232141345"><ele>426.0</ele><time>2026-05-01T10:11:35.999Z</time></trkpt><trkpt lat="40.99113881280397" lon="9.371450684305348"><ele>429.0</ele><time>2026-05-01T10:11:36.999Z</time></trkpt><trkpt lat="40.99114414450251" lon="9.371287910330702"><ele>432.0</ele><time>2026-05-01T10:11:37.999Z</time></trkpt><trkpt lat="40.991124267516895" lon="9.371144210509081"><ele>435.0</ele><time>2026-05-01T10:11:38.999Z</time></trkpt><trkpt lat="40.99107867716461" lon="9.371003688334039"><ele>438.0</ele><time>2026-05-01T10:11:39.999Z</time></trkpt><trkpt lat="40.99103291555291" lon="9.370847799896882"><ele>438.0</ele><time>2026-05-01T10:11:40.999Z</time></trkpt><trkpt lat="40.99100773946035" lon="9.370715814748621"><ele>438.0</ele><time>2026-05-01T10:11:41.999Z</time></trkpt><trkpt lat="40.9909679987999" lon="9.370604441282344"><ele>438.0</ele><time>2026-05-01T10:11:42.999Z</time></trkpt><trkpt lat="40.990904434357034" lon="9.3705070820389"><ele>438.0</ele><time>2026-05-01T10:11:43.999Z</time></trkpt><trkpt lat="40.990865643900094" lon="9.370421780432048"><ele>438.0</ele><time>2026-05-01T10:11:44.999Z</time></trkpt><trkpt lat="40.990873928433054" lon="9.370327139582027"><ele>438.0</ele><time>2026-05-01T10:11:45.999Z</time></trkpt><trkpt lat="40.99091864579303" lon="9.370236463590057"><ele>439.0</ele><time>2026-05-01T10:11:46.999Z</time></trkpt><trkpt lat="40.991013080581254" lon="9.370194332565394"><ele>440.0</ele><time>2026-05-01T10:11:47.999Z</time></trkpt><trkpt lat="40.9910892453846" lon="9.370138491778972"><ele>441.0</ele><time>2026-05-01T10:11:48.999Z</time></trkpt><trkpt lat="40.99116112162038" lon="9.370071307806386"><ele>442.0</ele><time>2026-05-01T10:11:49.999Z</time></trkpt><trkpt lat="40.99116286531302" lon="9.369954999170718"><ele>443.0</ele><time>2026-05-01T10:11:51.999Z</time></trkpt><trkpt lat="40.991122981506884" lon="9.36988355179657"><ele>444.0</ele><time>2026-05-01T10:11:52.999Z</time></trkpt><trkpt lat="40.99105959433176" lon="9.369796979427875"><ele>444.0</ele><time>2026-05-01T10:11:53.999Z</time></trkpt><trkpt lat="40.99095290606287" lon="9.369796473489135"><ele>444.0</ele><time>2026-05-01T10:11:54.999Z</time></trkpt><trkpt lat="40.990844157219954" lon="9.369779203933273"><ele>444.0</ele><time>2026-05-01T10:11:56Z</time></trkpt><trkpt lat="40.990725355431564" lon="9.36976526278776"><ele>444.0</ele><time>2026-05-01T10:11:57Z</time></trkpt><trkpt lat="40.99062690894592" lon="9.369748476988276"><ele>444.0</ele><time>2026-05-01T10:11:58Z</time></trkpt><trkpt lat="40.99057931739658" lon="9.369685821814715"><ele>446.6</ele><time>2026-05-01T10:11:59Z</time></trkpt><trkpt lat="40.99053071465652" lon="9.36961010911418"><ele>449.2</ele><time>2026-05-01T10:12:00Z</time></trkpt><trkpt lat="40.99044001210183" lon="9.369507678135657"><ele>451.80000000000007</ele><time>2026-05-01T10:12:01Z</time></trkpt><trkpt lat="40.990408905511565" lon="9.369379009989089"><ele>454.40000000000003</ele><time>2026-05-01T10:12:02Z</time></trkpt><trkpt lat="40.99036512884935" lon="9.369272589266979"><ele>457.0</ele><time>2026-05-01T10:12:03Z</time></trkpt><trkpt lat="40.9903466061979" lon="9.369127710353187"><ele>457.0</ele><time>2026-05-01T10:12:04Z</time></trkpt><trkpt lat="40.99037995159006" lon="9.369000349847738"><ele>457.00000000000006</ele><time>2026-05-01T10:12:05Z</time></trkpt><trkpt lat="40.99041072092367" lon="9.368870877689275"><ele>457.00000000000006</ele><time>2026-05-01T10:12:06Z</time></trkpt><trkpt lat="40.99044419136762" lon="9.368732131065808"><ele>457.0</ele><time>2026-05-01T10:12:07Z</time></trkpt><trkpt lat="40.990436557371915" lon="9.36864828796919"><ele>457.0</ele><time>2026-05-01T10:12:08Z</time></trkpt><trkpt lat="40.99037458625133" lon="9.368569744968328"><ele>459.0</ele><time>2026-05-01T10:12:09Z</time></trkpt><trkpt lat="40.99028966631513" lon="9.368496270614827"><ele>461.0</ele><time>2026-05-01T10:12:10Z</time></trkpt><trkpt lat="40.99018346353431" lon="9.368452622657784"><ele>463.0</ele><time>2026-05-01T10:12:11Z</time></trkpt><trkpt lat="40.99006211116322" lon="9.368362105039733"><ele>465.0</ele><time>2026-05-01T10:12:12Z</time></trkpt><trkpt lat="40.9899530771055" lon="9.36826470391064"><ele>466.0</ele><time>2026-05-01T10:12:13Z</time></trkpt><trkpt lat="40.989864044546856" lon="9.36813160220497"><ele>467.0</ele><time>2026-05-01T10:12:14Z</time></trkpt><trkpt lat="40.989750658799714" lon="9.36795158011635"><ele>468.0</ele><time>2026-05-01T10:12:15Z</time></trkpt><trkpt lat="40.98964795955872" lon="9.3677881309478"><ele>468.0</ele><time>2026-05-01T10:12:16Z</time></trkpt><trkpt lat="40.989571760125834" lon="9.367694008134468"><ele>467.99999999999994</ele><time>2026-05-01T10:12:17Z</time></trkpt><trkpt lat="40.989521400876946" lon="9.367583680631272"><ele>467.99999999999994</ele><time>2026-05-01T10:12:18Z</time></trkpt><trkpt lat="40.98944895935896" lon="9.367472303873203"><ele>468.0</ele><time>2026-05-01T10:12:19Z</time></trkpt><trkpt lat="40.98937332440827" lon="9.367371788461408"><ele>468.0</ele><time>2026-05-01T10:12:20Z</time></trkpt><trkpt lat="40.9893016286198" lon="9.367298273257664"><ele>468.0</ele><time>2026-05-01T10:12:21Z</time></trkpt><trkpt lat="40.989236301073724" lon="9.36725239986832"><ele>468.0</ele><time>2026-05-01T10:12:22Z</time></trkpt><trkpt lat="40.989172140625" lon="9.367225216925993"><ele>468.0</ele><time>2026-05-01T10:12:23Z</time></trkpt><trkpt lat="40.989102737514486" lon="9.367200758157756"><ele>468.0</ele><time>2026-05-01T10:12:24Z</time></trkpt><trkpt lat="40.98903884872991" lon="9.367171101330026"><ele>468.0</ele><time>2026-05-01T10:12:25Z</time></trkpt><trkpt lat="40.988947249160475" lon="9.36707762740305"><ele>468.0</ele><time>2026-05-01T10:12:27Z</time></trkpt><trkpt lat="40.988971666270636" lon="9.366983914502908"><ele>469.0</ele><time>2026-05-01T10:12:28Z</time></trkpt><trkpt lat="40.98901198696722" lon="9.366899960000723"><ele>469.99999999999994</ele><time>2026-05-01T10:12:29Z</time></trkpt><trkpt lat="40.989077261745095" lon="9.366801750733995"><ele>470.99999999999994</ele><time>2026-05-01T10:12:29.999Z</time></trkpt><trkpt lat="40.98914002892352" lon="9.366694064176459"><ele>472.0</ele><time>2026-05-01T10:12:30.999Z</time></trkpt><trkpt lat="40.9892031582205" lon="9.366600085212193"><ele>473.0</ele><time>2026-05-01T10:12:31.999Z</time></trkpt><trkpt lat="40.989255310358615" lon="9.366497965287575"><ele>464.5</ele><time>2026-05-01T10:12:32.999Z</time></trkpt><trkpt lat="40.989276725680405" lon="9.366358570864634"><ele>456.0</ele><time>2026-05-01T10:12:33.999Z</time></trkpt><trkpt lat="40.98931620347798" lon="9.366198834870017"><ele>447.5</ele><time>2026-05-01T10:12:34.999Z</time></trkpt><trkpt lat="40.98930329393363" lon="9.366012448921433"><ele>439.0</ele><time>2026-05-01T10:12:35.999Z</time></trkpt><trkpt lat="40.98930873575799" lon="9.365829064441217"><ele>439.0</ele><time>2026-05-01T10:12:36.999Z</time></trkpt><trkpt lat="40.98930109414651" lon="9.365622220466168"><ele>439.0</ele><time>2026-05-01T10:12:37.999Z</time></trkpt><trkpt lat="40.989299276025456" lon="9.3654453738638"><ele>439.0</ele><time>2026-05-01T10:12:38.999Z</time></trkpt><trkpt lat="40.98929173748832" lon="9.36529780526471"><ele>439.0</ele><time>2026-05-01T10:12:39.999Z</time></trkpt><trkpt lat="40.989265061645824" lon="9.365128984303862"><ele>436.75</ele><time>2026-05-01T10:12:40.999Z</time></trkpt><trkpt lat="40.989214005126826" lon="9.365003197334136"><ele>434.5</ele><time>2026-05-01T10:12:41.999Z</time></trkpt><trkpt lat="40.98915451155326" lon="9.364873725984229"><ele>432.25</ele><time>2026-05-01T10:12:42.999Z</time></trkpt><trkpt lat="40.98908970902033" lon="9.364701407484265"><ele>430.0</ele><time>2026-05-01T10:12:43.999Z</time></trkpt><trkpt lat="40.98899021963806" lon="9.364534362595938"><ele>440.6666666666667</ele><time>2026-05-01T10:12:44.999Z</time></trkpt><trkpt lat="40.98888273945474" lon="9.364367832227572"><ele>451.33333333333337</ele><time>2026-05-01T10:12:45.999Z</time></trkpt><trkpt lat="40.98877339472252" lon="9.364195612895449"><ele>462.0</ele><time>2026-05-01T10:12:46.999Z</time></trkpt><trkpt lat="40.988720815333096" lon="9.364047109183566"><ele>462.0</ele><time>2026-05-01T10:12:47.999Z</time></trkpt><trkpt lat="40.98868807335363" lon="9.363897108392127"><ele>462.0</ele><time>2026-05-01T10:12:48.999Z</time></trkpt><trkpt lat="40.98865047940225" lon="9.363715131700738"><ele>462.0</ele><time>2026-05-01T10:12:49.999Z</time></trkpt><trkpt lat="40.98860887893854" lon="9.363517916653826"><ele>462.0</ele><time>2026-05-01T10:12:50.999Z</time></trkpt><trkpt lat="40.98854579156453" lon="9.363357561847614"><ele>460.25</ele><time>2026-05-01T10:12:51.999Z</time></trkpt><trkpt lat="40.98849817211296" lon="9.363196809793859"><ele>458.5</ele><time>2026-05-01T10:12:52.999Z</time></trkpt><trkpt lat="40.988416322978324" lon="9.363056966474058"><ele>456.75</ele><time>2026-05-01T10:12:53.999Z</time></trkpt><trkpt lat="40.988317322757304" lon="9.362941135594985"><ele>455.0</ele><time>2026-05-01T10:12:54.999Z</time></trkpt><trkpt lat="40.98821587184531" lon="9.36287152360499"><ele>464.0</ele><time>2026-05-01T10:12:55.999Z</time></trkpt><trkpt lat="40.98810699160949" lon="9.36277527998607"><ele>473.0</ele><time>2026-05-01T10:12:56.999Z</time></trkpt><trkpt lat="40.98797708674325" lon="9.362674989048067"><ele>482.0</ele><time>2026-05-01T10:12:57.999Z</time></trkpt><trkpt lat="40.987887558261484" lon="9.362514751458491"><ele>491.0</ele><time>2026-05-01T10:12:58.999Z</time></trkpt><trkpt lat="40.98779511244196" lon="9.362317008056355"><ele>493.25</ele><time>2026-05-01T10:12:59.999Z</time></trkpt><trkpt lat="40.98768483729886" lon="9.362108918958032"><ele>495.5</ele><time>2026-05-01T10:13:00.999Z</time></trkpt><trkpt lat="40.98759522894175" lon="9.362006579293837"><ele>497.75</ele><time>2026-05-01T10:13:01.999Z</time></trkpt><trkpt lat="40.987492188397205" lon="9.3619355187269"><ele>500.0</ele><time>2026-05-01T10:13:02.999Z</time></trkpt><trkpt lat="40.98737906868253" lon="9.361849179857337"><ele>502.0</ele><time>2026-05-01T10:13:03.999Z</time></trkpt><trkpt lat="40.987262092110996" lon="9.361774827046716"><ele>504.0</ele><time>2026-05-01T10:13:04.999Z</time></trkpt><trkpt lat="40.98713790790893" lon="9.361659406937237"><ele>506.0</ele><time>2026-05-01T10:13:05.999Z</time></trkpt><trkpt lat="40.98700972625758" lon="9.361545262106695"><ele>508.0</ele><time>2026-05-01T10:13:06.999Z</time></trkpt><trkpt lat="40.986889176807104" lon="9.36147342044494"><ele>508.0</ele><time>2026-05-01T10:13:07.999Z</time></trkpt><trkpt lat="40.986783136253315" lon="9.361375131126998"><ele>508.0</ele><time>2026-05-01T10:13:08.999Z</time></trkpt><trkpt lat="40.986657097525374" lon="9.361298630997627"><ele>508.0</ele><time>2026-05-01T10:13:09.999Z</time></trkpt><trkpt lat="40.986543417821224" lon="9.361236209167119"><ele>508.0</ele><time>2026-05-01T10:13:10.999Z</time></trkpt><trkpt lat="40.98644528745555" lon="9.36118089828418"><ele>506.0</ele><time>2026-05-01T10:13:11.999Z</time></trkpt><trkpt lat="40.98634259329958" lon="9.361112582751208"><ele>504.0</ele><time>2026-05-01T10:13:12.999Z</time></trkpt><trkpt lat="40.98623871671254" lon="9.361043173676034"><ele>502.0</ele><time>2026-05-01T10:13:13.999Z</time></trkpt><trkpt lat="40.9861281143213" lon="9.360994023193676"><ele>500.0</ele><time>2026-05-01T10:13:14.999Z</time></trkpt><trkpt lat="40.9859944447095" lon="9.36097856698235"><ele>500.0</ele><time>2026-05-01T10:13:15.999Z</time></trkpt><trkpt lat="40.985852128232644" lon="9.360931357499146"><ele>500.0</ele><time>2026-05-01T10:13:16.999Z</time></trkpt><trkpt lat="40.98568832781827" lon="9.360941597623345"><ele>500.0</ele><time>2026-05-01T10:13:17.999Z</time></trkpt><trkpt lat="40.985524752734705" lon="9.36089596532376"><ele>493.0</ele><time>2026-05-01T10:13:18.999Z</time></trkpt><trkpt lat="40.985368530547795" lon="9.360848863864359"><ele>486.0</ele><time>2026-05-01T10:13:19.999Z</time></trkpt><trkpt lat="40.98520274278003" lon="9.360854032828458"><ele>479.0</ele><time>2026-05-01T10:13:20.999Z</time></trkpt><trkpt lat="40.98503985679121" lon="9.3608228310654"><ele>477.79999999999995</ele><time>2026-05-01T10:13:21.999Z</time></trkpt><trkpt lat="40.98490029785571" lon="9.360836553981416"><ele>476.59999999999997</ele><time>2026-05-01T10:13:22.999Z</time></trkpt><trkpt lat="40.984797270431415" lon="9.36085684873672"><ele>475.4</ele><time>2026-05-01T10:13:23.999Z</time></trkpt><trkpt lat="40.9847066992397" lon="9.360852354637746"><ele>474.2</ele><time>2026-05-01T10:13:24.999Z</time></trkpt><trkpt lat="40.98460928818919" lon="9.360784590236658"><ele>473.0</ele><time>2026-05-01T10:13:25.999Z</time></trkpt><trkpt lat="40.984467662166175" lon="9.360686920783765"><ele>473.0</ele><time>2026-05-01T10:13:26.999Z</time></trkpt><trkpt lat="40.984299370231206" lon="9.360582059106568"><ele>473.0</ele><time>2026-05-01T10:13:27.999Z</time></trkpt><trkpt lat="40.98412900525162" lon="9.360486345703837"><ele>473.0</ele><time>2026-05-01T10:13:28.999Z</time></trkpt><trkpt lat="40.98400935510395" lon="9.360417994606784"><ele>469.0</ele><time>2026-05-01T10:13:29.999Z</time></trkpt><trkpt lat="40.983895985585306" lon="9.360358670155154"><ele>465.0</ele><time>2026-05-01T10:13:30.999Z</time></trkpt><trkpt lat="40.9837393045153" lon="9.36033716541564"><ele>461.0</ele><time>2026-05-01T10:13:31.999Z</time></trkpt><trkpt lat="40.983559390930516" lon="9.36032929575046"><ele>461.0</ele><time>2026-05-01T10:13:32.999Z</time></trkpt><trkpt lat="40.98339491037806" lon="9.360327958506781"><ele>461.0</ele><time>2026-05-01T10:13:33.999Z</time></trkpt><trkpt lat="40.983255194045114" lon="9.360343604707982"><ele>461.0</ele><time>2026-05-01T10:13:34.999Z</time></trkpt><trkpt lat="40.983139285877805" lon="9.360348695817958"><ele>461.0</ele><time>2026-05-01T10:13:35.999Z</time></trkpt><trkpt lat="40.98302489925404" lon="9.360382015447245"><ele>460.4</ele><time>2026-05-01T10:13:36.999Z</time></trkpt><trkpt lat="40.98293829421999" lon="9.360366839089986"><ele>459.8</ele><time>2026-05-01T10:13:37.999Z</time></trkpt><trkpt lat="40.9828640500752" lon="9.360343456687149"><ele>459.19999999999993</ele><time>2026-05-01T10:13:38.999Z</time></trkpt><trkpt lat="40.98276738361735" lon="9.360278428697082"><ele>458.59999999999997</ele><time>2026-05-01T10:13:39.999Z</time></trkpt><trkpt lat="40.98262376580956" lon="9.360176308123656"><ele>458.0</ele><time>2026-05-01T10:13:40.999Z</time></trkpt><trkpt lat="40.98250606523741" lon="9.360109791841646"><ele>458.0</ele><time>2026-05-01T10:13:41.999Z</time></trkpt><trkpt lat="40.98241698266419" lon="9.360038803119249"><ele>458.0</ele><time>2026-05-01T10:13:42.999Z</time></trkpt><trkpt lat="40.98235902552388" lon="9.359919838232965"><ele>458.0</ele><time>2026-05-01T10:13:43.999Z</time></trkpt><trkpt lat="40.98227113760614" lon="9.359797246090185"><ele>458.0</ele><time>2026-05-01T10:13:44.999Z</time></trkpt><trkpt lat="40.982185527968454" lon="9.359692476796697"><ele>458.79999999999995</ele><time>2026-05-01T10:13:45.999Z</time></trkpt><trkpt lat="40.98212079316624" lon="9.359612805667885"><ele>459.59999999999997</ele><time>2026-05-01T10:13:46.999Z</time></trkpt><trkpt lat="40.9820620530296" lon="9.35953858578364"><ele>460.40000000000003</ele><time>2026-05-01T10:13:47.999Z</time></trkpt><trkpt lat="40.98201255893463" lon="9.359450806230901"><ele>461.20000000000005</ele><time>2026-05-01T10:13:48.999Z</time></trkpt><trkpt lat="40.98198095840965" lon="9.359333068539494"><ele>462.0</ele><time>2026-05-01T10:13:49.999Z</time></trkpt><trkpt lat="40.98193016091687" lon="9.35921081991397"><ele>462.0</ele><time>2026-05-01T10:13:50.999Z</time></trkpt><trkpt lat="40.98190008069805" lon="9.359073439920119"><ele>462.00000000000006</ele><time>2026-05-01T10:13:51.999Z</time></trkpt><trkpt lat="40.98186777356647" lon="9.358946582631505"><ele>462.00000000000006</ele><time>2026-05-01T10:13:52.999Z</time></trkpt><trkpt lat="40.98185007359674" lon="9.358812310779614"><ele>462.0</ele><time>2026-05-01T10:13:53.999Z</time></trkpt><trkpt lat="40.9818392407417" lon="9.35866670456933"><ele>462.0</ele><time>2026-05-01T10:13:54.999Z</time></trkpt><trkpt lat="40.98183283942579" lon="9.35855000369238"><ele>459.8333333333333</ele><time>2026-05-01T10:13:55.999Z</time></trkpt><trkpt lat="40.98184265749778" lon="9.35845033980687"><ele>457.66666666666663</ele><time>2026-05-01T10:13:56.999Z</time></trkpt><trkpt lat="40.98186108312765" lon="9.358365076334925"><ele>455.5</ele><time>2026-05-01T10:13:57.999Z</time></trkpt><trkpt lat="40.98191743524554" lon="9.35828458531778"><ele>453.3333333333333</ele><time>2026-05-01T10:13:58.999Z</time></trkpt><trkpt lat="40.98198325663226" lon="9.358195303395325"><ele>451.16666666666663</ele><time>2026-05-01T10:13:59.999Z</time></trkpt><trkpt lat="40.98204454871455" lon="9.358082620362442"><ele>449.0</ele><time>2026-05-01T10:14:00.999Z</time></trkpt><trkpt lat="40.982110318397346" lon="9.357979440241108"><ele>445.6</ele><time>2026-05-01T10:14:01.999Z</time></trkpt><trkpt lat="40.982184094600214" lon="9.3578653413491"><ele>442.2</ele><time>2026-05-01T10:14:02.999Z</time></trkpt><trkpt lat="40.982234436664285" lon="9.35777128423104"><ele>438.80000000000007</ele><time>2026-05-01T10:14:03.999Z</time></trkpt><trkpt lat="40.982254555344" lon="9.357667390133757"><ele>435.40000000000003</ele><time>2026-05-01T10:14:04.999Z</time></trkpt><trkpt lat="40.98225518224969" lon="9.357539417237506"><ele>432.0</ele><time>2026-05-01T10:14:05.999Z</time></trkpt><trkpt lat="40.98223318637889" lon="9.357387196257482"><ele>429.75</ele><time>2026-05-01T10:14:06.999Z</time></trkpt><trkpt lat="40.982192158164644" lon="9.357198508999655"><ele>427.5</ele><time>2026-05-01T10:14:07.999Z</time></trkpt><trkpt lat="40.98213886390996" lon="9.357002742129906"><ele>425.25</ele><time>2026-05-01T10:14:08.999Z</time></trkpt><trkpt lat="40.982091232710424" lon="9.356832255988738"><ele>423.0</ele><time>2026-05-01T10:14:09.999Z</time></trkpt><trkpt lat="40.98206749626452" lon="9.356671044762978"><ele>423.0</ele><time>2026-05-01T10:14:10.999Z</time></trkpt><trkpt lat="40.982088317483075" lon="9.356525638102204"><ele>423.0</ele><time>2026-05-01T10:14:11.999Z</time></trkpt><trkpt lat="40.98208446215273" lon="9.356398993511554"><ele>423.0</ele><time>2026-05-01T10:14:12.999Z</time></trkpt><trkpt lat="40.982070345516696" lon="9.356282997166016"><ele>423.0</ele><time>2026-05-01T10:14:13.999Z</time></trkpt><trkpt lat="40.98202183357786" lon="9.356169237095965"><ele>423.0</ele><time>2026-05-01T10:14:14.999Z</time></trkpt><trkpt lat="40.98198415036812" lon="9.356048287787972"><ele>420.33333333333337</ele><time>2026-05-01T10:14:15.999Z</time></trkpt><trkpt lat="40.98188042505817" lon="9.355938164417902"><ele>417.6666666666667</ele><time>2026-05-01T10:14:16.999Z</time></trkpt><trkpt lat="40.98175226430542" lon="9.355815064643627"><ele>415.0</ele><time>2026-05-01T10:14:17.999Z</time></trkpt><trkpt lat="40.98160084834742" lon="9.355674981327827"><ele>413.0</ele><time>2026-05-01T10:14:18.999Z</time></trkpt><trkpt lat="40.981451468011365" lon="9.355556339768546"><ele>411.0</ele><time>2026-05-01T10:14:19.999Z</time></trkpt><trkpt lat="40.9813190641339" lon="9.35541834789035"><ele>409.0</ele><time>2026-05-01T10:14:20.999Z</time></trkpt><trkpt lat="40.981206016046215" lon="9.355283252238175"><ele>408.5</ele><time>2026-05-01T10:14:21.999Z</time></trkpt><trkpt lat="40.9811056550623" lon="9.355145832373399"><ele>408.0</ele><time>2026-05-01T10:14:22.999Z</time></trkpt><trkpt lat="40.98102492214811" lon="9.354994929455481"><ele>407.5</ele><time>2026-05-01T10:14:23.999Z</time></trkpt><trkpt lat="40.98096041787355" lon="9.354833440186166"><ele>407.0</ele><time>2026-05-01T10:14:24.999Z</time></trkpt><trkpt lat="40.98089370269528" lon="9.354682819630195"><ele>406.40000000000003</ele><time>2026-05-01T10:14:25.999Z</time></trkpt><trkpt lat="40.98085552445612" lon="9.354533687186905"><ele>405.8</ele><time>2026-05-01T10:14:26.999Z</time></trkpt><trkpt lat="40.980817146586915" lon="9.354394214776256"><ele>405.2</ele><time>2026-05-01T10:14:27.999Z</time></trkpt><trkpt lat="40.98078180945501" lon="9.35426369681636"><ele>404.6</ele><time>2026-05-01T10:14:28.999Z</time></trkpt><trkpt lat="40.9807477445734" lon="9.354141178908513"><ele>404.0</ele><time>2026-05-01T10:14:29.999Z</time></trkpt><trkpt lat="40.98070644357691" lon="9.354025806663135"><ele>402.99999999999994</ele><time>2026-05-01T10:14:30.999Z</time></trkpt><trkpt lat="40.980656544826985" lon="9.353924730451647"><ele>402.0</ele><time>2026-05-01T10:14:31.999Z</time></trkpt><trkpt lat="40.98059673851011" lon="9.353842817037815"><ele>401.0</ele><time>2026-05-01T10:14:32.999Z</time></trkpt><trkpt lat="40.98052654803713" lon="9.353771469883036"><ele>400.0</ele><time>2026-05-01T10:14:33.999Z</time></trkpt><trkpt lat="40.98046964637563" lon="9.35368565338456"><ele>398.99999999999994</ele><time>2026-05-01T10:14:34.999Z</time></trkpt><trkpt lat="40.980405479142654" lon="9.353619063758314"><ele>398.0</ele><time>2026-05-01T10:14:35.999Z</time></trkpt><trkpt lat="40.980346633809326" lon="9.353558780295193"><ele>397.66666666666663</ele><time>2026-05-01T10:14:36.999Z</time></trkpt><trkpt lat="40.98029888156664" lon="9.353497627764453"><ele>397.3333333333333</ele><time>2026-05-01T10:14:37.999Z</time></trkpt><trkpt lat="40.98025629861139" lon="9.353432383096564"><ele>397.0</ele><time>2026-05-01T10:14:38.999Z</time></trkpt><trkpt lat="40.98021543497934" lon="9.353364345013809"><ele>396.66666666666663</ele><time>2026-05-01T10:14:39.999Z</time></trkpt><trkpt lat="40.98017551446825" lon="9.353297205958006"><ele>396.3333333333333</ele><time>2026-05-01T10:14:40.999Z</time></trkpt><trkpt lat="40.980106753615345" lon="9.353166004345553"><ele>396.0</ele><time>2026-05-01T10:14:42.999Z</time></trkpt><trkpt lat="40.98003304394419" lon="9.353036768851645"><ele>392.25</ele><time>2026-05-01T10:14:44.999Z</time></trkpt><trkpt lat="40.979989814958124" lon="9.352889394172252"><ele>388.5</ele><time>2026-05-01T10:14:46.999Z</time></trkpt><trkpt lat="40.979985706226806" lon="9.352730182253707"><ele>384.75</ele><time>2026-05-01T10:14:48.999Z</time></trkpt><trkpt lat="40.97996009708126" lon="9.352597186319173"><ele>381.0</ele><time>2026-05-01T10:14:50.999Z</time></trkpt><trkpt lat="40.9799530343524" lon="9.352453391986732"><ele>381.0</ele><time>2026-05-01T10:14:52.999Z</time></trkpt><trkpt lat="40.979950864112446" lon="9.352333004068525"><ele>381.0</ele><time>2026-05-01T10:15:10.999Z</time></trkpt><trkpt lat="40.97994255690389" lon="9.352232197213844"><ele>381.0</ele><time>2026-05-01T10:15:11.999Z</time></trkpt><trkpt lat="40.97992021953525" lon="9.352055258855112"><ele>381.0</ele><time>2026-05-01T10:15:13.999Z</time></trkpt><trkpt lat="40.97991952601257" lon="9.351951847390062"><ele>381.0</ele><time>2026-05-01T10:15:14.999Z</time></trkpt><trkpt lat="40.97991369756387" lon="9.351848842146156"><ele>380.0</ele><time>2026-05-01T10:15:15.999Z</time></trkpt><trkpt lat="40.979904935996466" lon="9.351745239781364"><ele>379.0</ele><time>2026-05-01T10:15:16.999Z</time></trkpt><trkpt lat="40.97989520182883" lon="9.351634461935637"><ele>378.0</ele><time>2026-05-01T10:15:17.999Z</time></trkpt><trkpt lat="40.979889667683906" lon="9.351511043226758"><ele>377.0</ele><time>2026-05-01T10:15:18.999Z</time></trkpt><trkpt lat="40.97988327795652" lon="9.351362264686122"><ele>376.0</ele><time>2026-05-01T10:15:19.999Z</time></trkpt><trkpt lat="40.97988027238182" lon="9.351200209459627"><ele>375.75</ele><time>2026-05-01T10:15:20.999Z</time></trkpt><trkpt lat="40.979879411887566" lon="9.351025855237928"><ele>375.5</ele><time>2026-05-01T10:15:21.999Z</time></trkpt><trkpt lat="40.97986786901849" lon="9.35084135943481"><ele>375.25</ele><time>2026-05-01T10:15:22.999Z</time></trkpt><trkpt lat="40.97985473250376" lon="9.350660223502205"><ele>375.0</ele><time>2026-05-01T10:15:23.999Z</time></trkpt><trkpt lat="40.97984314775792" lon="9.35047616697494"><ele>375.0</ele><time>2026-05-01T10:15:24.999Z</time></trkpt><trkpt lat="40.97983019814909" lon="9.350265296205635"><ele>375.0</ele><time>2026-05-01T10:15:25.999Z</time></trkpt><trkpt lat="40.979822985553405" lon="9.350034392982792"><ele>375.0</ele><time>2026-05-01T10:15:26.999Z</time></trkpt><trkpt lat="40.97984130666124" lon="9.34977954901784"><ele>376.25</ele><time>2026-05-01T10:15:27.999Z</time></trkpt><trkpt lat="40.97986988971331" lon="9.34958908068753"><ele>377.5</ele><time>2026-05-01T10:15:28.999Z</time></trkpt><trkpt lat="40.979899558482884" lon="9.349440387629626"><ele>378.75</ele><time>2026-05-01T10:15:29.999Z</time></trkpt><trkpt lat="40.9799263534181" lon="9.349338324925979"><ele>380.0</ele><time>2026-05-01T10:15:30.999Z</time></trkpt><trkpt lat="40.97998226869101" lon="9.349145532475948"><ele>380.0</ele><time>2026-05-01T10:15:33.999Z</time></trkpt><trkpt lat="40.98001506260222" lon="9.349032461182535"><ele>380.0</ele><time>2026-05-01T10:15:36.999Z</time></trkpt><trkpt lat="40.97992747759263" lon="9.348929618657282"><ele>380.0</ele><time>2026-05-01T10:15:37.999Z</time></trkpt><trkpt lat="40.97984456419046" lon="9.348826240261198"><ele>380.0</ele><time>2026-05-01T10:15:38.999Z</time></trkpt><trkpt lat="40.979781429971425" lon="9.34871920837233"><ele>380.0</ele><time>2026-05-01T10:15:39.999Z</time></trkpt><trkpt lat="40.97973089816119" lon="9.34864740238223"><ele>379.14285714285717</ele><time>2026-05-01T10:15:40.999Z</time></trkpt><trkpt lat="40.979682347358136" lon="9.348578411468441"><ele>378.28571428571433</ele><time>2026-05-01T10:15:41.999Z</time></trkpt><trkpt lat="40.979621961356756" lon="9.348513577615282"><ele>377.42857142857144</ele><time>2026-05-01T10:15:42.999Z</time></trkpt><trkpt lat="40.97957968957816" lon="9.34843017435618"><ele>376.57142857142856</ele><time>2026-05-01T10:15:43.999Z</time></trkpt><trkpt lat="40.97956177860671" lon="9.348342751508634"><ele>375.7142857142857</ele><time>2026-05-01T10:15:44.999Z</time></trkpt><trkpt lat="40.97953735769272" lon="9.348258564692093"><ele>374.85714285714283</ele><time>2026-05-01T10:15:45.999Z</time></trkpt><trkpt lat="40.97952954261423" lon="9.348162864841488"><ele>374.0</ele><time>2026-05-01T10:15:46.999Z</time></trkpt><trkpt lat="40.97952907392832" lon="9.3480502545916"><ele>373.4</ele><time>2026-05-01T10:15:47.999Z</time></trkpt><trkpt lat="40.97954862137813" lon="9.34793322178388"><ele>372.79999999999995</ele><time>2026-05-01T10:15:48.999Z</time></trkpt><trkpt lat="40.97957176922709" lon="9.34782339576511"><ele>372.20000000000005</ele><time>2026-05-01T10:15:49.999Z</time></trkpt><trkpt lat="40.97959309308644" lon="9.347722951939748"><ele>371.6</ele><time>2026-05-01T10:15:50.999Z</time></trkpt><trkpt lat="40.979626568258844" lon="9.347622738299233"><ele>371.0</ele><time>2026-05-01T10:15:52.999Z</time></trkpt><trkpt lat="40.97946576942885" lon="9.347579876652656"><ele>371.0</ele><time>2026-05-01T10:15:54.999Z</time></trkpt><trkpt lat="40.97936172235186" lon="9.347621452975433"><ele>371.0</ele><time>2026-05-01T10:15:55.999Z</time></trkpt><trkpt lat="40.97923901185681" lon="9.347636099774048"><ele>371.0</ele><time>2026-05-01T10:15:56.999Z</time></trkpt><trkpt lat="40.97911101409082" lon="9.347753042321777"><ele>371.0</ele><time>2026-05-01T10:15:57.999Z</time></trkpt><trkpt lat="40.97897066420293" lon="9.34787967366692"><ele>370.25</ele><time>2026-05-01T10:15:58.999Z</time></trkpt><trkpt lat="40.97885222033148" lon="9.348006049134504"><ele>369.5</ele><time>2026-05-01T10:15:59.999Z</time></trkpt><trkpt lat="40.97876580348756" lon="9.348127886225408"><ele>368.75</ele><time>2026-05-01T10:16:00.999Z</time></trkpt><trkpt lat="40.97868864665597" lon="9.348204662191678"><ele>368.0</ele><time>2026-05-01T10:16:01.999Z</time></trkpt><trkpt lat="40.97859105796595" lon="9.348275350170114"><ele>368.25</ele><time>2026-05-01T10:16:02.999Z</time></trkpt><trkpt lat="40.97847571069511" lon="9.348366524601339"><ele>368.5</ele><time>2026-05-01T10:16:03.999Z</time></trkpt><trkpt lat="40.97835690276808" lon="9.348470310813367"><ele>368.75</ele><time>2026-05-01T10:16:04.999Z</time></trkpt><trkpt lat="40.97824974518078" lon="9.348560186130552"><ele>369.0</ele><time>2026-05-01T10:16:05.999Z</time></trkpt><trkpt lat="40.97816389377762" lon="9.34861972007026"><ele>369.0</ele><time>2026-05-01T10:16:06.999Z</time></trkpt><trkpt lat="40.978099189842666" lon="9.34863580125662"><ele>369.0</ele><time>2026-05-01T10:16:07.999Z</time></trkpt><trkpt lat="40.978031793707224" lon="9.348580618288333"><ele>369.0</ele><time>2026-05-01T10:16:08.999Z</time></trkpt><trkpt lat="40.97791211209077" lon="9.348554241100324"><ele>369.0</ele><time>2026-05-01T10:16:09.999Z</time></trkpt><trkpt lat="40.977780812999086" lon="9.34856373224852"><ele>369.0</ele><time>2026-05-01T10:16:10.999Z</time></trkpt><trkpt lat="40.9776493314333" lon="9.34859684446626"><ele>369.0</ele><time>2026-05-01T10:16:11.999Z</time></trkpt><trkpt lat="40.97752985623338" lon="9.348649044799572"><ele>369.0</ele><time>2026-05-01T10:16:12.999Z</time></trkpt><trkpt lat="40.97741424243916" lon="9.348694485904364"><ele>369.0</ele><time>2026-05-01T10:16:13.999Z</time></trkpt><trkpt lat="40.9773021843574" lon="9.348740009966948"><ele>369.0</ele><time>2026-05-01T10:16:14.999Z</time></trkpt><trkpt lat="40.97720169909135" lon="9.348824474946074"><ele>370.0</ele><time>2026-05-01T10:16:15.999Z</time></trkpt><trkpt lat="40.97710712001691" lon="9.348906495331356"><ele>371.0</ele><time>2026-05-01T10:16:16.999Z</time></trkpt><trkpt lat="40.97702391785665" lon="9.349003762533691"><ele>372.0</ele><time>2026-05-01T10:16:17.999Z</time></trkpt><trkpt lat="40.97691601817641" lon="9.348993940488011"><ele>373.0</ele><time>2026-05-01T10:16:18.999Z</time></trkpt><trkpt lat="40.97681869425649" lon="9.348992106196134"><ele>374.0</ele><time>2026-05-01T10:16:19.999Z</time></trkpt><trkpt lat="40.976717401198464" lon="9.348957491942443"><ele>376.25</ele><time>2026-05-01T10:16:20.999Z</time></trkpt><trkpt lat="40.976629660173444" lon="9.348882779746377"><ele>378.5</ele><time>2026-05-01T10:16:21.999Z</time></trkpt><trkpt lat="40.9765225356318" lon="9.348785530305115"><ele>380.75</ele><time>2026-05-01T10:16:22.999Z</time></trkpt><trkpt lat="40.976427830454654" lon="9.348673779633561"><ele>383.0</ele><time>2026-05-01T10:16:23.999Z</time></trkpt><trkpt lat="40.976345704333994" lon="9.348549748240716"><ele>383.0</ele><time>2026-05-01T10:16:24.999Z</time></trkpt><trkpt lat="40.976297738783984" lon="9.348404251558838"><ele>383.0</ele><time>2026-05-01T10:16:25.999Z</time></trkpt><trkpt lat="40.97626119658743" lon="9.348226142940154"><ele>383.0</ele><time>2026-05-01T10:16:26.999Z</time></trkpt><trkpt lat="40.97622627917265" lon="9.348036681594172"><ele>383.0</ele><time>2026-05-01T10:16:27.999Z</time></trkpt><trkpt lat="40.97619670763503" lon="9.347875891936896"><ele>383.79999999999995</ele><time>2026-05-01T10:16:28.999Z</time></trkpt><trkpt lat="40.97617066125957" lon="9.347763146379846"><ele>384.6</ele><time>2026-05-01T10:16:29.999Z</time></trkpt><trkpt lat="40.976131680697435" lon="9.347672439596638"><ele>385.4</ele><time>2026-05-01T10:16:30.999Z</time></trkpt><trkpt lat="40.97610069421666" lon="9.347537636615202"><ele>386.20000000000005</ele><time>2026-05-01T10:16:31.999Z</time></trkpt><trkpt lat="40.976074504926196" lon="9.347377723878337"><ele>387.0</ele><time>2026-05-01T10:16:32.999Z</time></trkpt><trkpt lat="40.976066598745945" lon="9.34720493912008"><ele>387.75</ele><time>2026-05-01T10:16:33.999Z</time></trkpt><trkpt lat="40.97606021506384" lon="9.347019792278354"><ele>388.5</ele><time>2026-05-01T10:16:34.999Z</time></trkpt><trkpt lat="40.976054119936926" lon="9.34683849479413"><ele>389.25</ele><time>2026-05-01T10:16:35.999Z</time></trkpt><trkpt lat="40.97605198414185" lon="9.346665106220845"><ele>390.0</ele><time>2026-05-01T10:16:36.999Z</time></trkpt><trkpt lat="40.97604851476242" lon="9.346511475342167"><ele>391.75</ele><time>2026-05-01T10:16:37.999Z</time></trkpt><trkpt lat="40.976028991008114" lon="9.346332252554026"><ele>393.5</ele><time>2026-05-01T10:16:38.999Z</time></trkpt><trkpt lat="40.97601419118349" lon="9.346137822550299"><ele>395.25</ele><time>2026-05-01T10:16:39.999Z</time></trkpt><trkpt lat="40.97598806712205" lon="9.345976650578407"><ele>397.0</ele><time>2026-05-01T10:16:40.999Z</time></trkpt><trkpt lat="40.97598214950807" lon="9.345835291841727"><ele>397.0</ele><time>2026-05-01T10:16:41.999Z</time></trkpt><trkpt lat="40.975972007909384" lon="9.345692036956379"><ele>397.0</ele><time>2026-05-01T10:16:42.999Z</time></trkpt><trkpt lat="40.975960866305506" lon="9.345517328251185"><ele>397.0</ele><time>2026-05-01T10:16:43.999Z</time></trkpt><trkpt lat="40.97594816952577" lon="9.345334645564101"><ele>397.0</ele><time>2026-05-01T10:16:44.999Z</time></trkpt><trkpt lat="40.975932859896915" lon="9.345135523280751"><ele>399.33333333333337</ele><time>2026-05-01T10:16:45.999Z</time></trkpt><trkpt lat="40.97589847031414" lon="9.344924530112644"><ele>401.66666666666663</ele><time>2026-05-01T10:16:46.999Z</time></trkpt><trkpt lat="40.97587954916268" lon="9.344714018985275"><ele>404.0</ele><time>2026-05-01T10:16:47.999Z</time></trkpt><trkpt lat="40.97587213423973" lon="9.344518572416076"><ele>404.4</ele><time>2026-05-01T10:16:48.999Z</time></trkpt><trkpt lat="40.97587433083681" lon="9.344366706571709"><ele>404.79999999999995</ele><time>2026-05-01T10:16:49.999Z</time></trkpt><trkpt lat="40.97587131770747" lon="9.344243050315752"><ele>405.20000000000005</ele><time>2026-05-01T10:16:50.999Z</time></trkpt><trkpt lat="40.975846769917275" lon="9.344116626598225"><ele>405.6</ele><time>2026-05-01T10:16:51.999Z</time></trkpt><trkpt lat="40.97582216586608" lon="9.343969900352004"><ele>406.0</ele><time>2026-05-01T10:16:52.999Z</time></trkpt><trkpt lat="40.975775733118304" lon="9.343813806748095"><ele>407.75</ele><time>2026-05-01T10:16:53.999Z</time></trkpt><trkpt lat="40.97572023673268" lon="9.343655694870117"><ele>409.5</ele><time>2026-05-01T10:16:54.999Z</time></trkpt><trkpt lat="40.97567995682035" lon="9.343498224522131"><ele>411.25</ele><time>2026-05-01T10:16:55.999Z</time></trkpt><trkpt lat="40.975623962758576" lon="9.343357301732256"><ele>413.0</ele><time>2026-05-01T10:16:56.999Z</time></trkpt><trkpt lat="40.97557618335836" lon="9.343255053844162"><ele>413.0</ele><time>2026-05-01T10:16:57.999Z</time></trkpt><trkpt lat="40.97552558271962" lon="9.34318371893207"><ele>413.0</ele><time>2026-05-01T10:16:58.999Z</time></trkpt><trkpt lat="40.975435344254805" lon="9.343127932930159"><ele>413.0</ele><time>2026-05-01T10:16:59.999Z</time></trkpt><trkpt lat="40.975385496177815" lon="9.343044431880518"><ele>413.0</ele><time>2026-05-01T10:17:00.999Z</time></trkpt><trkpt lat="40.975328420024155" lon="9.342917612580067"><ele>413.0</ele><time>2026-05-01T10:17:02.999Z</time></trkpt><trkpt lat="40.975338757534885" lon="9.342746365786276"><ele>413.59999999999997</ele><time>2026-05-01T10:17:04.999Z</time></trkpt><trkpt lat="40.97533144632524" lon="9.342644636078846"><ele>414.2</ele><time>2026-05-01T10:17:05.999Z</time></trkpt><trkpt lat="40.97529056767279" lon="9.34255619090734"><ele>414.8</ele><time>2026-05-01T10:17:06.999Z</time></trkpt><trkpt lat="40.975222775495475" lon="9.342484697454106"><ele>415.4</ele><time>2026-05-01T10:17:07.999Z</time></trkpt><trkpt lat="40.975120881812245" lon="9.342384906053908"><ele>416.0</ele><time>2026-05-01T10:17:08.999Z</time></trkpt><trkpt lat="40.97501269519207" lon="9.34226171380918"><ele>416.5</ele><time>2026-05-01T10:17:09.999Z</time></trkpt><trkpt lat="40.97489108592174" lon="9.342136976651306"><ele>417.0</ele><time>2026-05-01T10:17:10.999Z</time></trkpt><trkpt lat="40.97478896022556" lon="9.342036402224698"><ele>417.5</ele><time>2026-05-01T10:17:11.999Z</time></trkpt><trkpt lat="40.9747059960939" lon="9.341947460417892"><ele>418.0</ele><time>2026-05-01T10:17:12.999Z</time></trkpt><trkpt lat="40.97465602185611" lon="9.341851879093623"><ele>418.0</ele><time>2026-05-01T10:17:13.999Z</time></trkpt><trkpt lat="40.97464161791643" lon="9.341736407319877"><ele>418.0</ele><time>2026-05-01T10:17:14.999Z</time></trkpt><trkpt lat="40.97460101699144" lon="9.341588480539743"><ele>418.0</ele><time>2026-05-01T10:17:15.999Z</time></trkpt><trkpt lat="40.9745401488709" lon="9.341456335153511"><ele>418.0</ele><time>2026-05-01T10:17:16.999Z</time></trkpt><trkpt lat="40.974428615374215" lon="9.341351638121235"><ele>418.0</ele><time>2026-05-01T10:17:17.999Z</time></trkpt><trkpt lat="40.974346566936724" lon="9.341197255212279"><ele>418.0</ele><time>2026-05-01T10:17:18.999Z</time></trkpt><trkpt lat="40.974262342314894" lon="9.34105186485115"><ele>418.0</ele><time>2026-05-01T10:17:19.999Z</time></trkpt><trkpt lat="40.974182186432884" lon="9.340911153059382"><ele>418.0</ele><time>2026-05-01T10:17:20.999Z</time></trkpt><trkpt lat="40.97410069561088" lon="9.34078932979662"><ele>419.4</ele><time>2026-05-01T10:17:21.999Z</time></trkpt><trkpt lat="40.97402875486211" lon="9.340686713465262"><ele>420.79999999999995</ele><time>2026-05-01T10:17:22.999Z</time></trkpt><trkpt lat="40.97396975318803" lon="9.340605675280695"><ele>422.2</ele><time>2026-05-01T10:17:23.999Z</time></trkpt><trkpt lat="40.9739181533897" lon="9.34054810291993"><ele>423.6</ele><time>2026-05-01T10:17:24.999Z</time></trkpt><trkpt lat="40.973796036967556" lon="9.340531199456997"><ele>425.0</ele><time>2026-05-01T10:17:26.999Z</time></trkpt><trkpt lat="40.97370724058492" lon="9.340503110919295"><ele>425.0</ele><time>2026-05-01T10:17:27.999Z</time></trkpt><trkpt lat="40.97359602623952" lon="9.340467423304352"><ele>425.0</ele><time>2026-05-01T10:17:28.999Z</time></trkpt><trkpt lat="40.97348718097949" lon="9.340382019824425"><ele>425.0</ele><time>2026-05-01T10:17:29.999Z</time></trkpt><trkpt lat="40.97338418680727" lon="9.340307660570646"><ele>425.0</ele><time>2026-05-01T10:17:30.999Z</time></trkpt><trkpt lat="40.973286852317095" lon="9.340245589092362"><ele>426.25</ele><time>2026-05-01T10:17:31.999Z</time></trkpt><trkpt lat="40.97317855668337" lon="9.340209820568523"><ele>427.5</ele><time>2026-05-01T10:17:32.999Z</time></trkpt><trkpt lat="40.973043742151354" lon="9.340209096268481"><ele>428.75</ele><time>2026-05-01T10:17:33.999Z</time></trkpt><trkpt lat="40.97287604165563" lon="9.340218622054934"><ele>430.0</ele><time>2026-05-01T10:17:34.999Z</time></trkpt><trkpt lat="40.97268821877836" lon="9.340207508910224"><ele>430.0</ele><time>2026-05-01T10:17:35.999Z</time></trkpt><trkpt lat="40.97253142106808" lon="9.340170046867346"><ele>430.0</ele><time>2026-05-01T10:17:36.999Z</time></trkpt><trkpt lat="40.97237494442452" lon="9.34009124520289"><ele>430.0</ele><time>2026-05-01T10:17:37.999Z</time></trkpt><trkpt lat="40.97219058226163" lon="9.339992100081949"><ele>430.0</ele><time>2026-05-01T10:17:38.999Z</time></trkpt><trkpt lat="40.97203201952648" lon="9.339923293597456"><ele>430.0</ele><time>2026-05-01T10:17:39.999Z</time></trkpt><trkpt lat="40.97189429457768" lon="9.33983459531067"><ele>430.0</ele><time>2026-05-01T10:17:40.999Z</time></trkpt><trkpt lat="40.97178185598842" lon="9.339752690520859"><ele>430.0</ele><time>2026-05-01T10:17:41.999Z</time></trkpt><trkpt lat="40.97169105445147" lon="9.3397133737417"><ele>428.75</ele><time>2026-05-01T10:17:42.999Z</time></trkpt><trkpt lat="40.97159031446543" lon="9.339693635653411"><ele>427.5</ele><time>2026-05-01T10:17:43.999Z</time></trkpt><trkpt lat="40.97147405727948" lon="9.339697018186293"><ele>426.25</ele><time>2026-05-01T10:17:44.999Z</time></trkpt><trkpt lat="40.971338657526545" lon="9.339691585474199"><ele>425.0</ele><time>2026-05-01T10:17:45.999Z</time></trkpt><trkpt lat="40.971181238463075" lon="9.339685269268115"><ele>425.0</ele><time>2026-05-01T10:17:46.999Z</time></trkpt><trkpt lat="40.97099057587866" lon="9.339696956585698"><ele>425.0</ele><time>2026-05-01T10:17:47.999Z</time></trkpt><trkpt lat="40.97080202169601" lon="9.339684331133778"><ele>425.0</ele><time>2026-05-01T10:17:48.999Z</time></trkpt><trkpt lat="40.97064756345864" lon="9.33968269441476"><ele>425.25</ele><time>2026-05-01T10:17:49.999Z</time></trkpt><trkpt lat="40.97048552660493" lon="9.339697468176988"><ele>425.5</ele><time>2026-05-01T10:17:50.999Z</time></trkpt><trkpt lat="40.97035712028918" lon="9.339722565858022"><ele>425.75</ele><time>2026-05-01T10:17:51.999Z</time></trkpt><trkpt lat="40.97027003170787" lon="9.33976269977885"><ele>426.0</ele><time>2026-05-01T10:17:52.999Z</time></trkpt><trkpt lat="40.97016897254722" lon="9.339843462902603"><ele>426.5</ele><time>2026-05-01T10:17:53.999Z</time></trkpt><trkpt lat="40.9700531879433" lon="9.33991552460228"><ele>427.0</ele><time>2026-05-01T10:17:54.999Z</time></trkpt><trkpt lat="40.9699302451417" lon="9.339940086798082"><ele>427.5</ele><time>2026-05-01T10:17:55.999Z</time></trkpt><trkpt lat="40.96979840603194" lon="9.339939062205234"><ele>428.0</ele><time>2026-05-01T10:17:56.999Z</time></trkpt><trkpt lat="40.96966063977514" lon="9.339945572805606"><ele>429.66666666666663</ele><time>2026-05-01T10:17:57.999Z</time></trkpt><trkpt lat="40.96948699257217" lon="9.339966737444254"><ele>431.33333333333337</ele><time>2026-05-01T10:17:58.999Z</time></trkpt><trkpt lat="40.96930209731052" lon="9.339993442698555"><ele>433.0</ele><time>2026-05-01T10:17:59.999Z</time></trkpt><trkpt lat="40.96913170995793" lon="9.340027952217937"><ele>433.33333333333337</ele><time>2026-05-01T10:18:00.999Z</time></trkpt><trkpt lat="40.9690103472423" lon="9.340076407793989"><ele>433.6666666666667</ele><time>2026-05-01T10:18:01.999Z</time></trkpt><trkpt lat="40.96892711191763" lon="9.340110698524473"><ele>434.0</ele><time>2026-05-01T10:18:02.999Z</time></trkpt><trkpt lat="40.96884510919462" lon="9.340125735581173"><ele>434.33333333333337</ele><time>2026-05-01T10:18:03.999Z</time></trkpt><trkpt lat="40.96876616206776" lon="9.34011168706396"><ele>434.6666666666667</ele><time>2026-05-01T10:18:04.999Z</time></trkpt><trkpt lat="40.96871311820387" lon="9.340053281579861"><ele>435.0</ele><time>2026-05-01T10:18:05.999Z</time></trkpt><trkpt lat="40.96868202041651" lon="9.33997574036707"><ele>435.0</ele><time>2026-05-01T10:18:06.999Z</time></trkpt><trkpt lat="40.968654036196924" lon="9.339873361386243"><ele>435.0</ele><time>2026-05-01T10:18:07.999Z</time></trkpt><trkpt lat="40.96862207561306" lon="9.339745416642263"><ele>435.0</ele><time>2026-05-01T10:18:08.999Z</time></trkpt><trkpt lat="40.96857348624665" lon="9.339621395212902"><ele>435.0</ele><time>2026-05-01T10:18:09.999Z</time></trkpt><trkpt lat="40.9684898619886" lon="9.339494101147109"><ele>435.0</ele><time>2026-05-01T10:18:10.999Z</time></trkpt><trkpt lat="40.96837502617354" lon="9.339344956145712"><ele>434.33333333333337</ele><time>2026-05-01T10:18:11.999Z</time></trkpt><trkpt lat="40.96826001086306" lon="9.339193730914776"><ele>433.6666666666667</ele><time>2026-05-01T10:18:12.999Z</time></trkpt><trkpt lat="40.96814235757708" lon="9.339050180357663"><ele>433.0</ele><time>2026-05-01T10:18:13.999Z</time></trkpt><trkpt lat="40.96804124202288" lon="9.338933788864324"><ele>433.0</ele><time>2026-05-01T10:18:14.999Z</time></trkpt><trkpt lat="40.967950682378344" lon="9.33882046676125"><ele>433.0</ele><time>2026-05-01T10:18:15.999Z</time></trkpt><trkpt lat="40.96786540970964" lon="9.338721610915197"><ele>433.0</ele><time>2026-05-01T10:18:16.999Z</time></trkpt><trkpt lat="40.96776759725383" lon="9.33864923174813"><ele>433.0</ele><time>2026-05-01T10:18:17.999Z</time></trkpt><trkpt lat="40.96763899079285" lon="9.338589467800208"><ele>433.0</ele><time>2026-05-01T10:18:18.999Z</time></trkpt><trkpt lat="40.96754005417285" lon="9.338549340221848"><ele>432.99999999999994</ele><time>2026-05-01T10:18:19.999Z</time></trkpt><trkpt lat="40.9674548639464" lon="9.338543090385757"><ele>432.99999999999994</ele><time>2026-05-01T10:18:20.999Z</time></trkpt><trkpt lat="40.96736267249317" lon="9.338547831402064"><ele>433.0</ele><time>2026-05-01T10:18:21.999Z</time></trkpt><trkpt lat="40.9672355227685" lon="9.338560382641226"><ele>433.0</ele><time>2026-05-01T10:18:22.999Z</time></trkpt><trkpt lat="40.96710945767831" lon="9.338550634206094"><ele>435.33333333333337</ele><time>2026-05-01T10:18:23.999Z</time></trkpt><trkpt lat="40.966997816141586" lon="9.338483319274316"><ele>437.66666666666663</ele><time>2026-05-01T10:18:24.999Z</time></trkpt><trkpt lat="40.966866239908796" lon="9.338383130245173"><ele>440.0</ele><time>2026-05-01T10:18:25.999Z</time></trkpt><trkpt lat="40.966704297638266" lon="9.338271901585546"><ele>439.0</ele><time>2026-05-01T10:18:26.999Z</time></trkpt><trkpt lat="40.966557596710366" lon="9.338145524632452"><ele>438.0</ele><time>2026-05-01T10:18:27.999Z</time></trkpt><trkpt lat="40.96643474999976" lon="9.338063222211762"><ele>437.0</ele><time>2026-05-01T10:18:28.999Z</time></trkpt><trkpt lat="40.96632734625338" lon="9.337978959730709"><ele>436.0</ele><time>2026-05-01T10:18:29.999Z</time></trkpt><trkpt lat="40.966230089433374" lon="9.337925036820899"><ele>435.75</ele><time>2026-05-01T10:18:30.999Z</time></trkpt><trkpt lat="40.96613121282432" lon="9.337865244259621"><ele>435.5</ele><time>2026-05-01T10:18:31.999Z</time></trkpt><trkpt lat="40.96603781067669" lon="9.337768744215253"><ele>435.25</ele><time>2026-05-01T10:18:32.999Z</time></trkpt><trkpt lat="40.96595610346747" lon="9.337643280620288"><ele>435.0</ele><time>2026-05-01T10:18:33.999Z</time></trkpt><trkpt lat="40.96584618349087" lon="9.337495487862556"><ele>435.0</ele><time>2026-05-01T10:18:34.999Z</time></trkpt><trkpt lat="40.9657326869503" lon="9.337336006051755"><ele>435.0</ele><time>2026-05-01T10:18:35.999Z</time></trkpt><trkpt lat="40.965620029055174" lon="9.337168675075409"><ele>435.0</ele><time>2026-05-01T10:18:36.999Z</time></trkpt><trkpt lat="40.96550317772757" lon="9.33702194123563"><ele>436.33333333333337</ele><time>2026-05-01T10:18:37.999Z</time></trkpt><trkpt lat="40.96536894582832" lon="9.336871258878922"><ele>437.6666666666667</ele><time>2026-05-01T10:18:38.999Z</time></trkpt><trkpt lat="40.96522077513479" lon="9.336725935001109"><ele>439.0</ele><time>2026-05-01T10:18:39.999Z</time></trkpt><trkpt lat="40.9651004495877" lon="9.336602197427798"><ele>438.4</ele><time>2026-05-01T10:18:40.999Z</time></trkpt><trkpt lat="40.96501726898328" lon="9.336502608384428"><ele>437.79999999999995</ele><time>2026-05-01T10:18:41.999Z</time></trkpt><trkpt lat="40.96496430535447" lon="9.336402671619707"><ele>437.20000000000005</ele><time>2026-05-01T10:18:42.999Z</time></trkpt><trkpt lat="40.964932915437196" lon="9.336294972583918"><ele>436.6</ele><time>2026-05-01T10:18:43.999Z</time></trkpt><trkpt lat="40.96491907326379" lon="9.336171270642422"><ele>436.0</ele><time>2026-05-01T10:18:44.999Z</time></trkpt><trkpt lat="40.9649340863798" lon="9.33604913652875"><ele>436.0</ele><time>2026-05-01T10:18:45.999Z</time></trkpt><trkpt lat="40.96494833560317" lon="9.33586691908719"><ele>436.0</ele><time>2026-05-01T10:18:46.999Z</time></trkpt><trkpt lat="40.964945516253806" lon="9.335674276503283"><ele>436.0</ele><time>2026-05-01T10:18:47.999Z</time></trkpt><trkpt lat="40.96493926841879" lon="9.335529819091004"><ele>436.0</ele><time>2026-05-01T10:18:48.999Z</time></trkpt><trkpt lat="40.96493190245719" lon="9.335442323126045"><ele>436.0</ele><time>2026-05-01T10:18:49.999Z</time></trkpt><trkpt lat="40.964853228803726" lon="9.33535838935473"><ele>436.0</ele><time>2026-05-01T10:18:51.999Z</time></trkpt><trkpt lat="40.96474276591691" lon="9.335296478797302"><ele>436.0</ele><time>2026-05-01T10:18:52.999Z</time></trkpt><trkpt lat="40.96461072702009" lon="9.335220346711074"><ele>436.0</ele><time>2026-05-01T10:18:53.999Z</time></trkpt><trkpt lat="40.96446851482354" lon="9.33512808624376"><ele>436.0</ele><time>2026-05-01T10:18:54.999Z</time></trkpt><trkpt lat="40.964329258231984" lon="9.335031524711063"><ele>436.0</ele><time>2026-05-01T10:18:55.999Z</time></trkpt><trkpt lat="40.964210325223746" lon="9.33494843852352"><ele>436.0</ele><time>2026-05-01T10:18:56.999Z</time></trkpt><trkpt lat="40.96410810396744" lon="9.334865379169045"><ele>436.0</ele><time>2026-05-01T10:18:57.999Z</time></trkpt><trkpt lat="40.964033212765926" lon="9.334772025987414"><ele>434.8</ele><time>2026-05-01T10:18:58.999Z</time></trkpt><trkpt lat="40.96396956171173" lon="9.334679488562585"><ele>433.6</ele><time>2026-05-01T10:18:59.999Z</time></trkpt><trkpt lat="40.963912742508114" lon="9.33462536537466"><ele>432.4</ele><time>2026-05-01T10:19:00.999Z</time></trkpt><trkpt lat="40.963779458250876" lon="9.334630419367777"><ele>431.2</ele><time>2026-05-01T10:19:02.999Z</time></trkpt><trkpt lat="40.9636742073479" lon="9.334675614183405"><ele>430.0</ele><time>2026-05-01T10:19:03.999Z</time></trkpt><trkpt lat="40.96357124578839" lon="9.334717374470031"><ele>430.0</ele><time>2026-05-01T10:19:04.999Z</time></trkpt><trkpt lat="40.96347431221935" lon="9.334719562696174"><ele>430.0</ele><time>2026-05-01T10:19:05.999Z</time></trkpt><trkpt lat="40.96340022776386" lon="9.334719656255508"><ele>430.0</ele><time>2026-05-01T10:19:06.999Z</time></trkpt><trkpt lat="40.96333191548756" lon="9.33468809272423"><ele>430.0</ele><time>2026-05-01T10:19:07.999Z</time></trkpt><trkpt lat="40.963206098742305" lon="9.334621370325328"><ele>430.0</ele><time>2026-05-01T10:19:08.999Z</time></trkpt><trkpt lat="40.963066190704396" lon="9.334537529911087"><ele>430.0</ele><time>2026-05-01T10:19:09.999Z</time></trkpt><trkpt lat="40.96294290453897" lon="9.334468592560114"><ele>430.0</ele><time>2026-05-01T10:19:10.999Z</time></trkpt><trkpt lat="40.962867407443646" lon="9.334418641592544"><ele>430.0</ele><time>2026-05-01T10:19:11.999Z</time></trkpt><trkpt lat="40.96280731392147" lon="9.334351525766092"><ele>430.0</ele><time>2026-05-01T10:19:12.999Z</time></trkpt><trkpt lat="40.9627475762327" lon="9.334232562509108"><ele>430.0</ele><time>2026-05-01T10:19:13.999Z</time></trkpt><trkpt lat="40.96264761315061" lon="9.334093946895033"><ele>430.5</ele><time>2026-05-01T10:19:14.999Z</time></trkpt><trkpt lat="40.96251963966963" lon="9.333945835361982"><ele>431.0</ele><time>2026-05-01T10:19:15.999Z</time></trkpt><trkpt lat="40.96241950451869" lon="9.333817095362818"><ele>431.5</ele><time>2026-05-01T10:19:16.999Z</time></trkpt><trkpt lat="40.9623275979495" lon="9.333693590507513"><ele>432.0</ele><time>2026-05-01T10:19:17.999Z</time></trkpt><trkpt lat="40.96227286573712" lon="9.333590266067757"><ele>432.0</ele><time>2026-05-01T10:19:18.999Z</time></trkpt><trkpt lat="40.962234080943574" lon="9.33349714805163"><ele>432.00000000000006</ele><time>2026-05-01T10:19:19.999Z</time></trkpt><trkpt lat="40.96220985775524" lon="9.333400975740904"><ele>432.00000000000006</ele><time>2026-05-01T10:19:20.999Z</time></trkpt><trkpt lat="40.962161471200915" lon="9.333252950304615"><ele>432.0</ele><time>2026-05-01T10:19:21.999Z</time></trkpt><trkpt lat="40.962103739937554" lon="9.333139465540281"><ele>432.0</ele><time>2026-05-01T10:19:22.999Z</time></trkpt><trkpt lat="40.962022957625486" lon="9.333065848202144"><ele>433.0</ele><time>2026-05-01T10:19:23.999Z</time></trkpt><trkpt lat="40.961899776007364" lon="9.332958909162679"><ele>434.0</ele><time>2026-05-01T10:19:24.999Z</time></trkpt><trkpt lat="40.9617721348862" lon="9.332799531418786"><ele>435.0</ele><time>2026-05-01T10:19:25.999Z</time></trkpt><trkpt lat="40.96166436522915" lon="9.332619301114136"><ele>432.2</ele><time>2026-05-01T10:19:26.999Z</time></trkpt><trkpt lat="40.96157508107094" lon="9.332466651847533"><ele>429.4</ele><time>2026-05-01T10:19:27.999Z</time></trkpt><trkpt lat="40.9614975346162" lon="9.332349710762042"><ele>426.6</ele><time>2026-05-01T10:19:28.999Z</time></trkpt><trkpt lat="40.96143405611058" lon="9.332254653814207"><ele>423.8</ele><time>2026-05-01T10:19:29.999Z</time></trkpt><trkpt lat="40.9613776158577" lon="9.332176535803946"><ele>421.0</ele><time>2026-05-01T10:19:30.999Z</time></trkpt><trkpt lat="40.961302328626175" lon="9.332078205579442"><ele>421.0</ele><time>2026-05-01T10:19:31.999Z</time></trkpt><trkpt lat="40.96122935597494" lon="9.331981617268625"><ele>421.0</ele><time>2026-05-01T10:19:32.999Z</time></trkpt><trkpt lat="40.96116764576676" lon="9.331903576526361"><ele>421.0</ele><time>2026-05-01T10:19:33.999Z</time></trkpt><trkpt lat="40.961097827021554" lon="9.331819662209456"><ele>421.0</ele><time>2026-05-01T10:19:34.999Z</time></trkpt><trkpt lat="40.9610230098551" lon="9.331704482973851"><ele>421.0</ele><time>2026-05-01T10:19:35.999Z</time></trkpt><trkpt lat="40.9609657496922" lon="9.331597883975398"><ele>421.0</ele><time>2026-05-01T10:19:36.999Z</time></trkpt><trkpt lat="40.96092371844528" lon="9.33150457364809"><ele>421.0</ele><time>2026-05-01T10:19:37.999Z</time></trkpt><trkpt lat="40.96088121827303" lon="9.331411631463999"><ele>421.0</ele><time>2026-05-01T10:19:38.999Z</time></trkpt><trkpt lat="40.96082278032142" lon="9.331294154693612"><ele>421.0</ele><time>2026-05-01T10:19:39.999Z</time></trkpt><trkpt lat="40.960755942351646" lon="9.33118071824614"><ele>421.0</ele><time>2026-05-01T10:19:40.999Z</time></trkpt><trkpt lat="40.96066229259906" lon="9.331075785719387"><ele>415.75</ele><time>2026-05-01T10:19:41.999Z</time></trkpt><trkpt lat="40.96055167793774" lon="9.330987041525772"><ele>410.5</ele><time>2026-05-01T10:19:42.999Z</time></trkpt><trkpt lat="40.960477826419066" lon="9.330902573571583"><ele>405.25</ele><time>2026-05-01T10:19:43.999Z</time></trkpt><trkpt lat="40.96043781844854" lon="9.330771675631171"><ele>400.0</ele><time>2026-05-01T10:19:44.999Z</time></trkpt><trkpt lat="40.96041340130319" lon="9.330618753743195"><ele>398.8</ele><time>2026-05-01T10:19:45.999Z</time></trkpt><trkpt lat="40.96038210705949" lon="9.330536794738006"><ele>397.6</ele><time>2026-05-01T10:19:46.999Z</time></trkpt><trkpt lat="40.960317020964844" lon="9.330485396436542"><ele>396.4</ele><time>2026-05-01T10:19:47.999Z</time></trkpt><trkpt lat="40.960215384366684" lon="9.330445746223377"><ele>395.2</ele><time>2026-05-01T10:19:48.999Z</time></trkpt><trkpt lat="40.96009402621981" lon="9.33041368010991"><ele>394.0</ele><time>2026-05-01T10:19:49.999Z</time></trkpt><trkpt lat="40.959964897533375" lon="9.330396794166203"><ele>397.25</ele><time>2026-05-01T10:19:50.999Z</time></trkpt><trkpt lat="40.95983869422407" lon="9.330402952196186"><ele>400.5</ele><time>2026-05-01T10:19:51.999Z</time></trkpt><trkpt lat="40.95970944114904" lon="9.330414461348912"><ele>403.75</ele><time>2026-05-01T10:19:52.999Z</time></trkpt><trkpt lat="40.959598178903704" lon="9.33044907946729"><ele>407.0</ele><time>2026-05-01T10:19:53.999Z</time></trkpt><trkpt lat="40.95948918073954" lon="9.330504241628338"><ele>407.0</ele><time>2026-05-01T10:19:54.999Z</time></trkpt><trkpt lat="40.95938286344727" lon="9.33055552950335"><ele>407.0</ele><time>2026-05-01T10:19:55.999Z</time></trkpt><trkpt lat="40.95929183334075" lon="9.330590956430038"><ele>407.0</ele><time>2026-05-01T10:19:56.999Z</time></trkpt><trkpt lat="40.95919922609268" lon="9.330563291433924"><ele>407.0</ele><time>2026-05-01T10:19:57.999Z</time></trkpt><trkpt lat="40.95913486314223" lon="9.330579279939505"><ele>407.0</ele><time>2026-05-01T10:19:58.999Z</time></trkpt><trkpt lat="40.958977756553146" lon="9.33050442037263"><ele>405.75</ele><time>2026-05-01T10:20:00.999Z</time></trkpt><trkpt lat="40.95886745560185" lon="9.330452520552141"><ele>404.5</ele><time>2026-05-01T10:20:01.999Z</time></trkpt><trkpt lat="40.958784411060925" lon="9.330356867396"><ele>403.25</ele><time>2026-05-01T10:20:02.999Z</time></trkpt><trkpt lat="40.95869570855969" lon="9.330202211123575"><ele>402.0</ele><time>2026-05-01T10:20:03.999Z</time></trkpt><trkpt lat="40.95859236726811" lon="9.330026218266099"><ele>402.0</ele><time>2026-05-01T10:20:04.999Z</time></trkpt><trkpt lat="40.95848212643731" lon="9.329882416540201"><ele>402.0</ele><time>2026-05-01T10:20:05.999Z</time></trkpt><trkpt lat="40.9584095742403" lon="9.329708842201784"><ele>402.0</ele><time>2026-05-01T10:20:06.999Z</time></trkpt><trkpt lat="40.95832903665773" lon="9.329531910106185"><ele>400.25</ele><time>2026-05-01T10:20:07.999Z</time></trkpt><trkpt lat="40.958259326005425" lon="9.329367529034837"><ele>398.5</ele><time>2026-05-01T10:20:08.999Z</time></trkpt><trkpt lat="40.95819551741602" lon="9.329224779083727"><ele>396.75</ele><time>2026-05-01T10:20:09.999Z</time></trkpt><trkpt lat="40.95812437786041" lon="9.329080998546567"><ele>395.0</ele><time>2026-05-01T10:20:10.999Z</time></trkpt><trkpt lat="40.95804252302001" lon="9.328938769165717"><ele>396.0</ele><time>2026-05-01T10:20:11.999Z</time></trkpt><trkpt lat="40.95795900159546" lon="9.328801580306134"><ele>397.0</ele><time>2026-05-01T10:20:12.999Z</time></trkpt><trkpt lat="40.957886409024326" lon="9.328643185452071"><ele>398.0</ele><time>2026-05-01T10:20:13.999Z</time></trkpt><trkpt lat="40.95783056627304" lon="9.328500234478563"><ele>399.0</ele><time>2026-05-01T10:20:14.999Z</time></trkpt><trkpt lat="40.95778768912821" lon="9.328375812521127"><ele>399.0</ele><time>2026-05-01T10:20:15.999Z</time></trkpt><trkpt lat="40.95772889170282" lon="9.32824805944929"><ele>399.0</ele><time>2026-05-01T10:20:16.999Z</time></trkpt><trkpt lat="40.95772589962688" lon="9.328100874690525"><ele>399.0</ele><time>2026-05-01T10:20:17.999Z</time></trkpt><trkpt lat="40.95771712640935" lon="9.327976506058233"><ele>399.0</ele><time>2026-05-01T10:20:18.999Z</time></trkpt><trkpt lat="40.957710823282035" lon="9.32783631651321"><ele>399.0</ele><time>2026-05-01T10:20:19.999Z</time></trkpt><trkpt lat="40.95769688484187" lon="9.32771397994876"><ele>399.25</ele><time>2026-05-01T10:20:20.999Z</time></trkpt><trkpt lat="40.95767253972094" lon="9.327615628509669"><ele>399.5</ele><time>2026-05-01T10:20:21.999Z</time></trkpt><trkpt lat="40.95763103864638" lon="9.327531439427808"><ele>399.75</ele><time>2026-05-01T10:20:22.999Z</time></trkpt><trkpt lat="40.95753297190885" lon="9.327417233442121"><ele>400.0</ele><time>2026-05-01T10:20:23.999Z</time></trkpt><trkpt lat="40.95741109654706" lon="9.32726828717314"><ele>395.0</ele><time>2026-05-01T10:20:24.999Z</time></trkpt><trkpt lat="40.95730123527535" lon="9.327122575383092"><ele>390.0</ele><time>2026-05-01T10:20:25.999Z</time></trkpt><trkpt lat="40.95724985262054" lon="9.326944940139557"><ele>385.0</ele><time>2026-05-01T10:20:27Z</time></trkpt><trkpt lat="40.95721169797197" lon="9.326774062297021"><ele>380.0</ele><time>2026-05-01T10:20:28Z</time></trkpt><trkpt lat="40.957178663570566" lon="9.32656769467042"><ele>379.33333333333337</ele><time>2026-05-01T10:20:29Z</time></trkpt><trkpt lat="40.957118384643394" lon="9.326357084246663"><ele>378.6666666666667</ele><time>2026-05-01T10:20:30Z</time></trkpt><trkpt lat="40.95702865087633" lon="9.326175789390446"><ele>378.0</ele><time>2026-05-01T10:20:31Z</time></trkpt><trkpt lat="40.95696042680727" lon="9.326041690029825"><ele>378.0</ele><time>2026-05-01T10:20:32Z</time></trkpt><trkpt lat="40.95689579182012" lon="9.325924873872838"><ele>378.0</ele><time>2026-05-01T10:20:33Z</time></trkpt><trkpt lat="40.95683379740193" lon="9.325747979641651"><ele>378.0</ele><time>2026-05-01T10:20:34Z</time></trkpt><trkpt lat="40.95672743697399" lon="9.325579192613064"><ele>378.0</ele><time>2026-05-01T10:20:35Z</time></trkpt><trkpt lat="40.95661633777323" lon="9.325408879287574"><ele>377.6666666666667</ele><time>2026-05-01T10:20:36Z</time></trkpt><trkpt lat="40.956492029251464" lon="9.32524675156398"><ele>377.33333333333337</ele><time>2026-05-01T10:20:37Z</time></trkpt><trkpt lat="40.95641194145549" lon="9.325092956081594"><ele>377.0</ele><time>2026-05-01T10:20:38Z</time></trkpt><trkpt lat="40.95634701881559" lon="9.324927019259531"><ele>377.0</ele><time>2026-05-01T10:20:39Z</time></trkpt><trkpt lat="40.956294213126256" lon="9.324792236054282"><ele>377.0</ele><time>2026-05-01T10:20:39.999Z</time></trkpt><trkpt lat="40.95629050354707" lon="9.32466680368566"><ele>377.0</ele><time>2026-05-01T10:20:40.999Z</time></trkpt><trkpt lat="40.956258628824806" lon="9.324556215240442"><ele>377.0</ele><time>2026-05-01T10:20:41.999Z</time></trkpt><trkpt lat="40.95617598702873" lon="9.32445964991368"><ele>377.0</ele><time>2026-05-01T10:20:42.999Z</time></trkpt><trkpt lat="40.95607573477125" lon="9.324337838583995"><ele>376.25</ele><time>2026-05-01T10:20:43.999Z</time></trkpt><trkpt lat="40.955969462581756" lon="9.324178499135444"><ele>375.5</ele><time>2026-05-01T10:20:44.999Z</time></trkpt><trkpt lat="40.95585907723843" lon="9.324038525833739"><ele>374.75</ele><time>2026-05-01T10:20:45.999Z</time></trkpt><trkpt lat="40.95576031606827" lon="9.323935617853202"><ele>374.0</ele><time>2026-05-01T10:20:46.999Z</time></trkpt><trkpt lat="40.95565043371533" lon="9.3238757004895"><ele>374.0</ele><time>2026-05-01T10:20:47.999Z</time></trkpt><trkpt lat="40.95555688845291" lon="9.32375275700793"><ele>374.0</ele><time>2026-05-01T10:20:48.999Z</time></trkpt><trkpt lat="40.95546953142008" lon="9.323572898621846"><ele>374.0</ele><time>2026-05-01T10:20:49.999Z</time></trkpt><trkpt lat="40.95534621269569" lon="9.323388214621323"><ele>374.0</ele><time>2026-05-01T10:20:50.999Z</time></trkpt><trkpt lat="40.9552641124804" lon="9.323253972453688"><ele>374.0</ele><time>2026-05-01T10:20:51.999Z</time></trkpt><trkpt lat="40.955214359781735" lon="9.323108770306964"><ele>374.0</ele><time>2026-05-01T10:20:52.999Z</time></trkpt><trkpt lat="40.95511914403867" lon="9.322970416558265"><ele>374.0</ele><time>2026-05-01T10:20:53.999Z</time></trkpt><trkpt lat="40.95499651928437" lon="9.322843484623053"><ele>372.25</ele><time>2026-05-01T10:20:54.999Z</time></trkpt><trkpt lat="40.95487939090081" lon="9.32271951994822"><ele>370.5</ele><time>2026-05-01T10:20:55.999Z</time></trkpt><trkpt lat="40.95480100891522" lon="9.322636563138344"><ele>368.75</ele><time>2026-05-01T10:20:56.999Z</time></trkpt><trkpt lat="40.954718529897406" lon="9.322549270161725"><ele>367.0</ele><time>2026-05-01T10:20:57.999Z</time></trkpt><trkpt lat="40.95459293831745" lon="9.32248436693053"><ele>367.0</ele><time>2026-05-01T10:20:58.999Z</time></trkpt><trkpt lat="40.95452959452456" lon="9.322323574582423"><ele>367.0</ele><time>2026-05-01T10:20:59.999Z</time></trkpt><trkpt lat="40.954466705134756" lon="9.322202657828612"><ele>367.0</ele><time>2026-05-01T10:21:00.999Z</time></trkpt><trkpt lat="40.95438163635009" lon="9.322140111188085"><ele>367.0</ele><time>2026-05-01T10:21:01.999Z</time></trkpt><trkpt lat="40.954278320305" lon="9.32210853317048"><ele>366.0</ele><time>2026-05-01T10:21:02.999Z</time></trkpt><trkpt lat="40.954159231844955" lon="9.322107121516211"><ele>365.0</ele><time>2026-05-01T10:21:03.999Z</time></trkpt><trkpt lat="40.95402800329646" lon="9.322091270147956"><ele>364.0</ele><time>2026-05-01T10:21:04.999Z</time></trkpt><trkpt lat="40.953906249077455" lon="9.32206382596735"><ele>363.0</ele><time>2026-05-01T10:21:05.999Z</time></trkpt><trkpt lat="40.95378075933353" lon="9.322027645648218"><ele>363.0</ele><time>2026-05-01T10:21:06.999Z</time></trkpt><trkpt lat="40.95365955559589" lon="9.321975159708941"><ele>363.0</ele><time>2026-05-01T10:21:07.999Z</time></trkpt><trkpt lat="40.95356684492199" lon="9.321918490589871"><ele>363.0</ele><time>2026-05-01T10:21:08.999Z</time></trkpt><trkpt lat="40.953502970537414" lon="9.32182295321617"><ele>363.0</ele><time>2026-05-01T10:21:09.999Z</time></trkpt><trkpt lat="40.95342740547344" lon="9.321677052983963"><ele>359.3333333333333</ele><time>2026-05-01T10:21:10.999Z</time></trkpt><trkpt lat="40.953347638157155" lon="9.321525929372585"><ele>355.66666666666663</ele><time>2026-05-01T10:21:11.999Z</time></trkpt><trkpt lat="40.95326019472332" lon="9.321361972926182"><ele>352.0</ele><time>2026-05-01T10:21:12.999Z</time></trkpt><trkpt lat="40.95317608828776" lon="9.321173201914323"><ele>352.0</ele><time>2026-05-01T10:21:13.999Z</time></trkpt><trkpt lat="40.95310806296311" lon="9.320972714937286"><ele>352.0</ele><time>2026-05-01T10:21:14.999Z</time></trkpt><trkpt lat="40.953043663951334" lon="9.320770999455865"><ele>352.0</ele><time>2026-05-01T10:21:15.999Z</time></trkpt><trkpt lat="40.9529781513472" lon="9.320574599243312"><ele>352.25</ele><time>2026-05-01T10:21:16.999Z</time></trkpt><trkpt lat="40.95291070044334" lon="9.32039207700778"><ele>352.5</ele><time>2026-05-01T10:21:17.999Z</time></trkpt><trkpt lat="40.9528724556556" lon="9.320239505609221"><ele>352.75</ele><time>2026-05-01T10:21:18.999Z</time></trkpt><trkpt lat="40.952822284350916" lon="9.320096414327137"><ele>353.0</ele><time>2026-05-01T10:21:19.999Z</time></trkpt><trkpt lat="40.95280022272175" lon="9.31989230604655"><ele>353.0</ele><time>2026-05-01T10:21:20.999Z</time></trkpt><trkpt lat="40.95280978554545" lon="9.319690885303752"><ele>353.0</ele><time>2026-05-01T10:21:21.999Z</time></trkpt><trkpt lat="40.952825648276246" lon="9.319492579774444"><ele>353.0</ele><time>2026-05-01T10:21:22.999Z</time></trkpt><trkpt lat="40.952847512328596" lon="9.319303010107323"><ele>353.0</ele><time>2026-05-01T10:21:23.999Z</time></trkpt><trkpt lat="40.952849578606966" lon="9.319142102977732"><ele>353.0</ele><time>2026-05-01T10:21:24.999Z</time></trkpt><trkpt lat="40.952853106145184" lon="9.319012097572244"><ele>353.0</ele><time>2026-05-01T10:21:25.999Z</time></trkpt><trkpt lat="40.952888713376716" lon="9.318861272968908"><ele>353.0</ele><time>2026-05-01T10:21:26.999Z</time></trkpt><trkpt lat="40.952954797528996" lon="9.31869390008388"><ele>353.0</ele><time>2026-05-01T10:21:27.999Z</time></trkpt><trkpt lat="40.95301059166951" lon="9.318565892689367"><ele>352.4</ele><time>2026-05-01T10:21:28.999Z</time></trkpt><trkpt lat="40.95303322154277" lon="9.318462123317705"><ele>351.79999999999995</ele><time>2026-05-01T10:21:29.999Z</time></trkpt><trkpt lat="40.953002349176785" lon="9.318317791481354"><ele>351.2</ele><time>2026-05-01T10:21:31.999Z</time></trkpt><trkpt lat="40.952959609662095" lon="9.318217485385878"><ele>350.6</ele><time>2026-05-01T10:21:32.999Z</time></trkpt><trkpt lat="40.952909802820756" lon="9.318102044908505"><ele>350.0</ele><time>2026-05-01T10:21:33.999Z</time></trkpt><trkpt lat="40.95285668146669" lon="9.318011840655307"><ele>349.0</ele><time>2026-05-01T10:21:34.999Z</time></trkpt><trkpt lat="40.95280272022851" lon="9.317945287871103"><ele>348.0</ele><time>2026-05-01T10:21:35.999Z</time></trkpt><trkpt lat="40.95273419617145" lon="9.317865443076908"><ele>347.0</ele><time>2026-05-01T10:21:36.999Z</time></trkpt><trkpt lat="40.95264409460151" lon="9.317772022358975"><ele>346.0</ele><time>2026-05-01T10:21:37.999Z</time></trkpt><trkpt lat="40.952532069998874" lon="9.317666006684478"><ele>345.0</ele><time>2026-05-01T10:21:38.999Z</time></trkpt><trkpt lat="40.95240773795927" lon="9.317538276970142"><ele>344.25</ele><time>2026-05-01T10:21:39.999Z</time></trkpt><trkpt lat="40.952279120658496" lon="9.317413372419288"><ele>343.5</ele><time>2026-05-01T10:21:40.999Z</time></trkpt><trkpt lat="40.952171712236336" lon="9.317300549993535"><ele>342.75</ele><time>2026-05-01T10:21:41.999Z</time></trkpt><trkpt lat="40.95208792317466" lon="9.317185243638527"><ele>342.0</ele><time>2026-05-01T10:21:42.999Z</time></trkpt><trkpt lat="40.95204157041872" lon="9.3170734979808"><ele>341.75</ele><time>2026-05-01T10:21:43.999Z</time></trkpt><trkpt lat="40.95200922462704" lon="9.31692876705493"><ele>341.5</ele><time>2026-05-01T10:21:44.999Z</time></trkpt><trkpt lat="40.951978302577125" lon="9.316748048465282"><ele>341.25</ele><time>2026-05-01T10:21:45.999Z</time></trkpt><trkpt lat="40.95192780192887" lon="9.316553927157258"><ele>341.0</ele><time>2026-05-01T10:21:46.999Z</time></trkpt><trkpt lat="40.95187198544341" lon="9.31635431664653"><ele>340.6666666666667</ele><time>2026-05-01T10:21:47.999Z</time></trkpt><trkpt lat="40.95181545363504" lon="9.316156621134093"><ele>340.3333333333333</ele><time>2026-05-01T10:21:48.999Z</time></trkpt><trkpt lat="40.95176490590118" lon="9.315954488983621"><ele>340.0</ele><time>2026-05-01T10:21:49.999Z</time></trkpt><trkpt lat="40.95171529622106" lon="9.31575831095779"><ele>340.25</ele><time>2026-05-01T10:21:50.999Z</time></trkpt><trkpt lat="40.95166631928774" lon="9.315568780030175"><ele>340.5</ele><time>2026-05-01T10:21:51.999Z</time></trkpt><trkpt lat="40.95161615776761" lon="9.315385366708766"><ele>340.75</ele><time>2026-05-01T10:21:52.999Z</time></trkpt><trkpt lat="40.951566325086745" lon="9.315205923705765"><ele>341.0</ele><time>2026-05-01T10:21:53.999Z</time></trkpt><trkpt lat="40.95151893088068" lon="9.315029361969165"><ele>341.0</ele><time>2026-05-01T10:21:54.999Z</time></trkpt><trkpt lat="40.95147491981043" lon="9.314854204022073"><ele>341.0</ele><time>2026-05-01T10:21:55.999Z</time></trkpt><trkpt lat="40.95143382707441" lon="9.314675928086665"><ele>341.0</ele><time>2026-05-01T10:21:56.999Z</time></trkpt><trkpt lat="40.95139819541925" lon="9.314502220037737"><ele>341.0</ele><time>2026-05-01T10:21:58Z</time></trkpt><trkpt lat="40.95136325936965" lon="9.314326793749343"><ele>340.4</ele><time>2026-05-01T10:21:59Z</time></trkpt><trkpt lat="40.95132705222768" lon="9.314157549056718"><ele>339.8</ele><time>2026-05-01T10:22:00Z</time></trkpt><trkpt lat="40.95129620183476" lon="9.314010851912725"><ele>339.2</ele><time>2026-05-01T10:22:01Z</time></trkpt><trkpt lat="40.95127267615738" lon="9.31389270823522"><ele>338.59999999999997</ele><time>2026-05-01T10:22:02Z</time></trkpt><trkpt lat="40.951252690881184" lon="9.313776926753043"><ele>338.0</ele><time>2026-05-01T10:22:03Z</time></trkpt><trkpt lat="40.95123499909339" lon="9.313660018501409"><ele>338.0</ele><time>2026-05-01T10:22:04Z</time></trkpt><trkpt lat="40.951226541053174" lon="9.313545376433337"><ele>338.0</ele><time>2026-05-01T10:22:05Z</time></trkpt><trkpt lat="40.95122706659772" lon="9.313449233878773"><ele>338.0</ele><time>2026-05-01T10:22:06Z</time></trkpt><trkpt lat="40.95123008064204" lon="9.313352901749422"><ele>338.0</ele><time>2026-05-01T10:22:07Z</time></trkpt><trkpt lat="40.951235286369716" lon="9.313244782200831"><ele>338.0</ele><time>2026-05-01T10:22:08Z</time></trkpt><trkpt lat="40.9512389915554" lon="9.313127981304937"><ele>338.0</ele><time>2026-05-01T10:22:09Z</time></trkpt><trkpt lat="40.951239384113904" lon="9.313010685564189"><ele>338.0</ele><time>2026-05-01T10:22:10Z</time></trkpt><trkpt lat="40.95123779966918" lon="9.312897411806233"><ele>338.0</ele><time>2026-05-01T10:22:11Z</time></trkpt><trkpt lat="40.951236387186015" lon="9.312789303480722"><ele>338.0</ele><time>2026-05-01T10:22:12Z</time></trkpt><trkpt lat="40.95123438108196" lon="9.312687249966261"><ele>338.0</ele><time>2026-05-01T10:22:13Z</time></trkpt><trkpt lat="40.95123276284162" lon="9.312582260252517"><ele>338.0</ele><time>2026-05-01T10:22:14Z</time></trkpt><trkpt lat="40.95123332736783" lon="9.312482560386092"><ele>338.0</ele><time>2026-05-01T10:22:15Z</time></trkpt><trkpt lat="40.95123178660967" lon="9.312383890860445"><ele>338.0</ele><time>2026-05-01T10:22:16Z</time></trkpt><trkpt lat="40.951226156845465" lon="9.31229032269856"><ele>338.0</ele><time>2026-05-01T10:22:17Z</time></trkpt><trkpt lat="40.95122355686234" lon="9.312195582690553"><ele>338.0</ele><time>2026-05-01T10:22:18Z</time></trkpt><trkpt lat="40.95122800752232" lon="9.312103165840547"><ele>338.0</ele><time>2026-05-01T10:22:19Z</time></trkpt><trkpt lat="40.951224443521085" lon="9.312015765181657"><ele>338.0</ele><time>2026-05-01T10:22:20Z</time></trkpt><trkpt lat="40.9512126298639" lon="9.31187354714555"><ele>338.0</ele><time>2026-05-01T10:22:22Z</time></trkpt><trkpt lat="40.9512602176224" lon="9.311779552886867"><ele>338.33333333333337</ele><time>2026-05-01T10:23:07.001Z</time></trkpt><trkpt lat="40.95129411913981" lon="9.311655200139251"><ele>338.6666666666667</ele><time>2026-05-01T10:23:09.001Z</time></trkpt><trkpt lat="40.95131655127791" lon="9.311569854318504"><ele>339.0</ele><time>2026-05-01T10:23:10.001Z</time></trkpt><trkpt lat="40.95134397308589" lon="9.31147784284121"><ele>339.3333333333333</ele><time>2026-05-01T10:23:11.001Z</time></trkpt><trkpt lat="40.9513780702436" lon="9.311389514915053"><ele>339.66666666666663</ele><time>2026-05-01T10:23:12.001Z</time></trkpt><trkpt lat="40.95140517299631" lon="9.311287212546903"><ele>340.0</ele><time>2026-05-01T10:23:13.001Z</time></trkpt><trkpt lat="40.951450482901116" lon="9.311195560399064"><ele>340.4</ele><time>2026-05-01T10:23:14.001Z</time></trkpt><trkpt lat="40.95148594282457" lon="9.31109674944766"><ele>340.8</ele><time>2026-05-01T10:23:15.001Z</time></trkpt><trkpt lat="40.95151870087979" lon="9.310977527101171"><ele>341.20000000000005</ele><time>2026-05-01T10:23:16.001Z</time></trkpt><trkpt lat="40.951549217421096" lon="9.310854712643291"><ele>341.6</ele><time>2026-05-01T10:23:17.001Z</time></trkpt><trkpt lat="40.951581421687614" lon="9.31072798815585"><ele>342.0</ele><time>2026-05-01T10:23:18.001Z</time></trkpt><trkpt lat="40.95161519553925" lon="9.310594203816194"><ele>342.0</ele><time>2026-05-01T10:23:19.001Z</time></trkpt><trkpt lat="40.951650288363886" lon="9.310453507035504"><ele>342.0</ele><time>2026-05-01T10:23:20Z</time></trkpt><trkpt lat="40.95168687769593" lon="9.310308060526497"><ele>342.0</ele><time>2026-05-01T10:23:21Z</time></trkpt><trkpt lat="40.95171881669481" lon="9.31016894141283"><ele>342.0</ele><time>2026-05-01T10:23:22Z</time></trkpt><trkpt lat="40.95174768333151" lon="9.310028038108674"><ele>342.0</ele><time>2026-05-01T10:23:23Z</time></trkpt><trkpt lat="40.951787057546916" lon="9.309884651370922"><ele>343.25</ele><time>2026-05-01T10:23:24Z</time></trkpt><trkpt lat="40.95182720618163" lon="9.309735188488972"><ele>344.5</ele><time>2026-05-01T10:23:25Z</time></trkpt><trkpt lat="40.95188323380818" lon="9.309595379232617"><ele>345.75</ele><time>2026-05-01T10:23:26Z</time></trkpt><trkpt lat="40.951923785509145" lon="9.309445225833313"><ele>347.0</ele><time>2026-05-01T10:23:27Z</time></trkpt><trkpt lat="40.95196199740301" lon="9.309298846521505"><ele>347.0</ele><time>2026-05-01T10:23:28Z</time></trkpt><trkpt lat="40.9519963325019" lon="9.309159461281524"><ele>347.0</ele><time>2026-05-01T10:23:29Z</time></trkpt><trkpt lat="40.952027211008236" lon="9.309035042797921"><ele>347.0</ele><time>2026-05-01T10:23:30Z</time></trkpt><trkpt lat="40.95206131338287" lon="9.30891542120756"><ele>347.0</ele><time>2026-05-01T10:23:31Z</time></trkpt><trkpt lat="40.95209188207071" lon="9.308788095171098"><ele>347.0</ele><time>2026-05-01T10:23:32Z</time></trkpt><trkpt lat="40.95214760791481" lon="9.30867238256339"><ele>346.8</ele><time>2026-05-01T10:23:33Z</time></trkpt><trkpt lat="40.9522060775182" lon="9.308551114872403"><ele>346.6</ele><time>2026-05-01T10:23:34Z</time></trkpt><trkpt lat="40.95225553629334" lon="9.308427310338754"><ele>346.40000000000003</ele><time>2026-05-01T10:23:35Z</time></trkpt><trkpt lat="40.95228923507944" lon="9.308291576515597"><ele>346.20000000000005</ele><time>2026-05-01T10:23:36Z</time></trkpt><trkpt lat="40.95230223185708" lon="9.308143059923427"><ele>346.0</ele><time>2026-05-01T10:23:37Z</time></trkpt><trkpt lat="40.95231438682653" lon="9.307992612037163"><ele>345.25</ele><time>2026-05-01T10:23:38Z</time></trkpt><trkpt lat="40.952361736077286" lon="9.307851167362736"><ele>344.5</ele><time>2026-05-01T10:23:39Z</time></trkpt><trkpt lat="40.952388704990106" lon="9.307699813657457"><ele>343.75</ele><time>2026-05-01T10:23:40Z</time></trkpt><trkpt lat="40.95244146517446" lon="9.307549777170028"><ele>343.0</ele><time>2026-05-01T10:23:41Z</time></trkpt><trkpt lat="40.95249452998219" lon="9.307389113279703"><ele>341.75</ele><time>2026-05-01T10:23:42Z</time></trkpt><trkpt lat="40.95256488498942" lon="9.307228467997312"><ele>340.5</ele><time>2026-05-01T10:23:43Z</time></trkpt><trkpt lat="40.952630068363504" lon="9.307053046374557"><ele>339.25</ele><time>2026-05-01T10:23:44Z</time></trkpt><trkpt lat="40.95269975340638" lon="9.306885172818609"><ele>338.0</ele><time>2026-05-01T10:23:45Z</time></trkpt><trkpt lat="40.95277679176279" lon="9.30672473507941"><ele>338.0</ele><time>2026-05-01T10:23:46Z</time></trkpt><trkpt lat="40.952843513507005" lon="9.306558050421181"><ele>338.0</ele><time>2026-05-01T10:23:47Z</time></trkpt><trkpt lat="40.95292250051167" lon="9.306400339491267"><ele>338.0</ele><time>2026-05-01T10:23:48Z</time></trkpt><trkpt lat="40.953002965901426" lon="9.306232495376955"><ele>338.0</ele><time>2026-05-01T10:23:49Z</time></trkpt><trkpt lat="40.95308480951068" lon="9.306065633441778"><ele>337.75</ele><time>2026-05-01T10:23:50Z</time></trkpt><trkpt lat="40.953168103474916" lon="9.305899868857832"><ele>337.5</ele><time>2026-05-01T10:23:51Z</time></trkpt><trkpt lat="40.95325072532425" lon="9.305737232317902"><ele>337.25</ele><time>2026-05-01T10:23:52Z</time></trkpt><trkpt lat="40.95334179042411" lon="9.305591836034127"><ele>337.0</ele><time>2026-05-01T10:23:53Z</time></trkpt><trkpt lat="40.953457600895085" lon="9.30546174111168"><ele>332.66666666666663</ele><time>2026-05-01T10:23:54Z</time></trkpt><trkpt lat="40.95355016547943" lon="9.305301267391272"><ele>328.3333333333333</ele><time>2026-05-01T10:23:55Z</time></trkpt><trkpt lat="40.95365623566887" lon="9.305150301613631"><ele>324.0</ele><time>2026-05-01T10:23:56Z</time></trkpt><trkpt lat="40.9537737803212" lon="9.305009703375834"><ele>324.0</ele><time>2026-05-01T10:23:57Z</time></trkpt><trkpt lat="40.95386650170443" lon="9.304835489446143"><ele>324.0</ele><time>2026-05-01T10:23:58Z</time></trkpt><trkpt lat="40.95397650774805" lon="9.304673562526084"><ele>324.0</ele><time>2026-05-01T10:23:59Z</time></trkpt><trkpt lat="40.95408798151831" lon="9.304517774341319"><ele>323.6666666666667</ele><time>2026-05-01T10:24:00Z</time></trkpt><trkpt lat="40.95420619776724" lon="9.304361467015061"><ele>323.33333333333337</ele><time>2026-05-01T10:24:01Z</time></trkpt><trkpt lat="40.95432521455553" lon="9.304217406360111"><ele>323.0</ele><time>2026-05-01T10:24:02Z</time></trkpt><trkpt lat="40.954450318989636" lon="9.30407615124454"><ele>323.0</ele><time>2026-05-01T10:24:03Z</time></trkpt><trkpt lat="40.95457571834083" lon="9.303943443179115"><ele>323.0</ele><time>2026-05-01T10:24:04Z</time></trkpt><trkpt lat="40.95469805319856" lon="9.303810239275158"><ele>323.0</ele><time>2026-05-01T10:24:05Z</time></trkpt><trkpt lat="40.954817016457476" lon="9.303680174028964"><ele>323.0</ele><time>2026-05-01T10:24:06Z</time></trkpt><trkpt lat="40.95493088253337" lon="9.303550409465753"><ele>323.0</ele><time>2026-05-01T10:24:07Z</time></trkpt><trkpt lat="40.955048920491826" lon="9.303423957238286"><ele>323.0</ele><time>2026-05-01T10:24:08Z</time></trkpt><trkpt lat="40.95516667980829" lon="9.30329746935327"><ele>323.0</ele><time>2026-05-01T10:24:09Z</time></trkpt><trkpt lat="40.95527806646042" lon="9.303175683368822"><ele>323.0</ele><time>2026-05-01T10:24:10Z</time></trkpt><trkpt lat="40.955365064989934" lon="9.303085016089128"><ele>323.0</ele><time>2026-05-01T10:24:11Z</time></trkpt><trkpt lat="40.95542543373608" lon="9.303008412496062"><ele>323.0</ele><time>2026-05-01T10:24:12Z</time></trkpt><trkpt lat="40.955479199092885" lon="9.30292180469997"><ele>323.0</ele><time>2026-05-01T10:24:13Z</time></trkpt><trkpt lat="40.95552115976957" lon="9.302798898464436"><ele>322.5</ele><time>2026-05-01T10:24:14Z</time></trkpt><trkpt lat="40.9555416897319" lon="9.302643168698097"><ele>322.0</ele><time>2026-05-01T10:24:15Z</time></trkpt><trkpt lat="40.95555746640376" lon="9.302473560750254"><ele>321.5</ele><time>2026-05-01T10:24:16Z</time></trkpt><trkpt lat="40.955597962829586" lon="9.302302436809706"><ele>321.0</ele><time>2026-05-01T10:24:17Z</time></trkpt><trkpt lat="40.955606328960755" lon="9.302114481322953"><ele>319.75</ele><time>2026-05-01T10:24:18Z</time></trkpt><trkpt lat="40.9556471567019" lon="9.301936194443625"><ele>318.5</ele><time>2026-05-01T10:24:19Z</time></trkpt><trkpt lat="40.955661491283216" lon="9.301759289114562"><ele>317.25</ele><time>2026-05-01T10:24:20Z</time></trkpt><trkpt lat="40.955708490736264" lon="9.301586297663404"><ele>316.0</ele><time>2026-05-01T10:24:21Z</time></trkpt><trkpt lat="40.95577323726288" lon="9.3014193156211"><ele>314.3333333333333</ele><time>2026-05-01T10:24:22Z</time></trkpt><trkpt lat="40.95584710348401" lon="9.301254346173822"><ele>312.6666666666667</ele><time>2026-05-01T10:24:23Z</time></trkpt><trkpt lat="40.955923805470675" lon="9.301083560747541"><ele>311.0</ele><time>2026-05-01T10:24:24Z</time></trkpt><trkpt lat="40.95600224288195" lon="9.300906448218894"><ele>310.0</ele><time>2026-05-01T10:24:25Z</time></trkpt><trkpt lat="40.95608213987862" lon="9.300725174253088"><ele>309.0</ele><time>2026-05-01T10:24:26Z</time></trkpt><trkpt lat="40.95616227899876" lon="9.300539851177323"><ele>308.0</ele><time>2026-05-01T10:24:27Z</time></trkpt><trkpt lat="40.95623980434586" lon="9.300341342031272"><ele>306.33333333333337</ele><time>2026-05-01T10:24:28Z</time></trkpt><trkpt lat="40.95631581135668" lon="9.300138439837173"><ele>304.6666666666667</ele><time>2026-05-01T10:24:29Z</time></trkpt><trkpt lat="40.95639360107636" lon="9.299939193866445"><ele>303.0</ele><time>2026-05-01T10:24:30Z</time></trkpt><trkpt lat="40.95647006525905" lon="9.29974751737478"><ele>302.5</ele><time>2026-05-01T10:24:31Z</time></trkpt><trkpt lat="40.95653956735321" lon="9.299569170134532"><ele>302.0</ele><time>2026-05-01T10:24:32.001Z</time></trkpt><trkpt lat="40.956605370925914" lon="9.299401008665791"><ele>301.5</ele><time>2026-05-01T10:24:33.001Z</time></trkpt><trkpt lat="40.95667532139862" lon="9.299241182425568"><ele>301.0</ele><time>2026-05-01T10:24:34.001Z</time></trkpt><trkpt lat="40.95674815453439" lon="9.299086946594333"><ele>300.6</ele><time>2026-05-01T10:24:35.001Z</time></trkpt><trkpt lat="40.95680535175387" lon="9.29894738543396"><ele>300.20000000000005</ele><time>2026-05-01T10:24:36.001Z</time></trkpt><trkpt lat="40.95683443218277" lon="9.298851873433533"><ele>299.79999999999995</ele><time>2026-05-01T10:24:37.001Z</time></trkpt><trkpt lat="40.956820951900944" lon="9.298719044995936"><ele>299.4</ele><time>2026-05-01T10:24:39.001Z</time></trkpt><trkpt lat="40.95676576884889" lon="9.298564743005542"><ele>299.0</ele><time>2026-05-01T10:24:41.001Z</time></trkpt><trkpt lat="40.95674752417582" lon="9.298449046470823"><ele>298.0</ele><time>2026-05-01T10:24:42.001Z</time></trkpt><trkpt lat="40.956716949535306" lon="9.298318603993902"><ele>297.0</ele><time>2026-05-01T10:24:43.001Z</time></trkpt><trkpt lat="40.95670585222634" lon="9.298164459512568"><ele>296.0</ele><time>2026-05-01T10:24:44.001Z</time></trkpt><trkpt lat="40.95673666401661" lon="9.298017493636037"><ele>295.0</ele><time>2026-05-01T10:24:45.001Z</time></trkpt><trkpt lat="40.956777234003596" lon="9.29786408821257"><ele>293.0</ele><time>2026-05-01T10:24:46.001Z</time></trkpt><trkpt lat="40.95681118099092" lon="9.297696619898117"><ele>291.0</ele><time>2026-05-01T10:24:47.001Z</time></trkpt><trkpt lat="40.95684954885334" lon="9.297525489754323"><ele>289.0</ele><time>2026-05-01T10:24:48.001Z</time></trkpt><trkpt lat="40.95689409239568" lon="9.297350877189086"><ele>287.0</ele><time>2026-05-01T10:24:49.001Z</time></trkpt><trkpt lat="40.95694075758403" lon="9.297169106455868"><ele>287.0</ele><time>2026-05-01T10:24:50.001Z</time></trkpt><trkpt lat="40.95699208495536" lon="9.296973968976644"><ele>287.0</ele><time>2026-05-01T10:24:51.001Z</time></trkpt><trkpt lat="40.95703892027361" lon="9.296776914773936"><ele>287.0</ele><time>2026-05-01T10:24:52.001Z</time></trkpt><trkpt lat="40.95709072722463" lon="9.29659140344084"><ele>287.0</ele><time>2026-05-01T10:24:53.001Z</time></trkpt><trkpt lat="40.95713129416804" lon="9.296427186153279"><ele>287.0</ele><time>2026-05-01T10:24:54.001Z</time></trkpt><trkpt lat="40.95716530498362" lon="9.2962802265774"><ele>287.0</ele><time>2026-05-01T10:24:55.001Z</time></trkpt><trkpt lat="40.957178941456334" lon="9.29612430469961"><ele>287.0</ele><time>2026-05-01T10:24:56.001Z</time></trkpt><trkpt lat="40.95715959540629" lon="9.295940373098718"><ele>287.6666666666667</ele><time>2026-05-01T10:24:57.001Z</time></trkpt><trkpt lat="40.95711886226962" lon="9.295724484077954"><ele>288.3333333333333</ele><time>2026-05-01T10:24:58.001Z</time></trkpt><trkpt lat="40.95709470904843" lon="9.295482060381243"><ele>289.0</ele><time>2026-05-01T10:24:59.001Z</time></trkpt><trkpt lat="40.957072377990286" lon="9.29525147366663"><ele>289.0</ele><time>2026-05-01T10:25:00Z</time></trkpt><trkpt lat="40.957059384357166" lon="9.295062602088914"><ele>289.0</ele><time>2026-05-01T10:25:01Z</time></trkpt><trkpt lat="40.957032398916965" lon="9.294913137583453"><ele>289.0</ele><time>2026-05-01T10:25:02Z</time></trkpt><trkpt lat="40.95702299173417" lon="9.29478770603537"><ele>289.0</ele><time>2026-05-01T10:25:03Z</time></trkpt><trkpt lat="40.95700752297773" lon="9.294688350778014"><ele>289.0</ele><time>2026-05-01T10:25:04Z</time></trkpt><trkpt lat="40.95698809699467" lon="9.294574965193672"><ele>289.59999999999997</ele><time>2026-05-01T10:25:06Z</time></trkpt><trkpt lat="40.95684635822439" lon="9.29449021086692"><ele>290.2</ele><time>2026-05-01T10:25:15Z</time></trkpt><trkpt lat="40.95671026138625" lon="9.294479114790986"><ele>290.79999999999995</ele><time>2026-05-01T10:25:17Z</time></trkpt><trkpt lat="40.95663740804034" lon="9.294473763303566"><ele>291.4</ele><time>2026-05-01T10:25:18Z</time></trkpt><trkpt lat="40.95655445181655" lon="9.294467711594947"><ele>292.0</ele><time>2026-05-01T10:25:19Z</time></trkpt><trkpt lat="40.956470478715" lon="9.294461585708243"><ele>292.8</ele><time>2026-05-01T10:25:20Z</time></trkpt><trkpt lat="40.95637142131409" lon="9.29445435940943"><ele>293.6</ele><time>2026-05-01T10:25:21Z</time></trkpt><trkpt lat="40.956269684121565" lon="9.294446937620464"><ele>294.40000000000003</ele><time>2026-05-01T10:25:22Z</time></trkpt><trkpt lat="40.95616065591407" lon="9.294438983943754"><ele>295.2</ele><time>2026-05-01T10:25:23Z</time></trkpt><trkpt lat="40.95603500925811" lon="9.294429817945147"><ele>296.0</ele><time>2026-05-01T10:25:24Z</time></trkpt><trkpt lat="40.95590055953736" lon="9.294420009755305"><ele>297.5</ele><time>2026-05-01T10:25:25Z</time></trkpt><trkpt lat="40.955755439322196" lon="9.294409480861116"><ele>299.0</ele><time>2026-05-01T10:25:26Z</time></trkpt><trkpt lat="40.95560769786367" lon="9.29439898108374"><ele>300.5</ele><time>2026-05-01T10:25:27Z</time></trkpt><trkpt lat="40.95546133610823" lon="9.294388579354779"><ele>302.0</ele><time>2026-05-01T10:25:28Z</time></trkpt><trkpt lat="40.95530410144583" lon="9.294377404902836"><ele>302.0</ele><time>2026-05-01T10:25:29Z</time></trkpt><trkpt lat="40.95515263162505" lon="9.294366640154179"><ele>302.0</ele><time>2026-05-01T10:25:30Z</time></trkpt><trkpt lat="40.95499970194875" lon="9.294355710158591"><ele>302.0</ele><time>2026-05-01T10:25:31Z</time></trkpt><trkpt lat="40.95484375076537" lon="9.29434386129265"><ele>301.6666666666667</ele><time>2026-05-01T10:25:32Z</time></trkpt><trkpt lat="40.954668158606225" lon="9.294330520138448"><ele>301.3333333333333</ele><time>2026-05-01T10:25:33Z</time></trkpt><trkpt lat="40.954514989384876" lon="9.294318882632844"><ele>301.0</ele><time>2026-05-01T10:25:34Z</time></trkpt><trkpt lat="40.9543927393131" lon="9.29430959431031"><ele>301.0</ele><time>2026-05-01T10:25:35Z</time></trkpt><trkpt lat="40.954284289852765" lon="9.294301354530342"><ele>301.0</ele><time>2026-05-01T10:25:36Z</time></trkpt><trkpt lat="40.95417379115851" lon="9.294292959049839"><ele>301.0</ele><time>2026-05-01T10:25:37Z</time></trkpt><trkpt lat="40.954043705018144" lon="9.29428307536297"><ele>301.0</ele><time>2026-05-01T10:25:38Z</time></trkpt><trkpt lat="40.95392554320558" lon="9.294274097655023"><ele>299.75</ele><time>2026-05-01T10:25:39Z</time></trkpt><trkpt lat="40.95379508152971" lon="9.294264526757223"><ele>298.5</ele><time>2026-05-01T10:25:40Z</time></trkpt><trkpt lat="40.95365698498147" lon="9.294254713184248"><ele>297.25</ele><time>2026-05-01T10:25:41Z</time></trkpt><trkpt lat="40.95351983065907" lon="9.294244966571945"><ele>296.0</ele><time>2026-05-01T10:25:42Z</time></trkpt><trkpt lat="40.95337816456943" lon="9.294234899338116"><ele>294.6666666666667</ele><time>2026-05-01T10:25:43Z</time></trkpt><trkpt lat="40.953245288779584" lon="9.294224838713248"><ele>293.3333333333333</ele><time>2026-05-01T10:25:44Z</time></trkpt><trkpt lat="40.95311653780214" lon="9.294214820061194"><ele>292.0</ele><time>2026-05-01T10:25:45Z</time></trkpt><trkpt lat="40.95286196702846" lon="9.294194553578414"><ele>292.0</ele><time>2026-05-01T10:25:47Z</time></trkpt><trkpt lat="40.95271840858761" lon="9.294182539469352"><ele>292.0</ele><time>2026-05-01T10:25:48Z</time></trkpt><trkpt lat="40.95256702942352" lon="9.294170724867397"><ele>292.0</ele><time>2026-05-01T10:25:49Z</time></trkpt><trkpt lat="40.952437429423064" lon="9.294166734604337"><ele>292.0</ele><time>2026-05-01T10:25:50Z</time></trkpt><trkpt lat="40.952313625336195" lon="9.29416781110558"><ele>291.25</ele><time>2026-05-01T10:25:51Z</time></trkpt><trkpt lat="40.95217842206921" lon="9.294187347786917"><ele>290.5</ele><time>2026-05-01T10:25:52Z</time></trkpt><trkpt lat="40.95204874944568" lon="9.294224998332824"><ele>289.75</ele><time>2026-05-01T10:25:53Z</time></trkpt><trkpt lat="40.95191467700273" lon="9.294282900163507"><ele>289.0</ele><time>2026-05-01T10:25:54Z</time></trkpt><trkpt lat="40.95178106773555" lon="9.29435678222716"><ele>287.66666666666663</ele><time>2026-05-01T10:25:55Z</time></trkpt><trkpt lat="40.951639200276134" lon="9.294447650526301"><ele>286.3333333333333</ele><time>2026-05-01T10:25:56Z</time></trkpt><trkpt lat="40.95149895393801" lon="9.294558661314934"><ele>285.0</ele><time>2026-05-01T10:25:57Z</time></trkpt><trkpt lat="40.951378914296534" lon="9.29466676789611"><ele>285.5</ele><time>2026-05-01T10:25:58Z</time></trkpt><trkpt lat="40.9512647183781" lon="9.294772137242298"><ele>286.0</ele><time>2026-05-01T10:25:59Z</time></trkpt><trkpt lat="40.95114288666511" lon="9.294885252269793"><ele>286.5</ele><time>2026-05-01T10:26:00Z</time></trkpt><trkpt lat="40.95101438976013" lon="9.295004791833039"><ele>287.0</ele><time>2026-05-01T10:26:01Z</time></trkpt><trkpt lat="40.95088637772135" lon="9.295124447088854"><ele>286.75</ele><time>2026-05-01T10:26:02Z</time></trkpt><trkpt lat="40.9507558732552" lon="9.295246432039466"><ele>286.5</ele><time>2026-05-01T10:26:03Z</time></trkpt><trkpt lat="40.95063610186152" lon="9.295358384618808"><ele>286.25</ele><time>2026-05-01T10:26:04Z</time></trkpt><trkpt lat="40.95052996869606" lon="9.295457589293902"><ele>286.0</ele><time>2026-05-01T10:26:05Z</time></trkpt><trkpt lat="40.95042549025613" lon="9.295555247279804"><ele>286.25</ele><time>2026-05-01T10:26:06Z</time></trkpt><trkpt lat="40.95031643203184" lon="9.29565718595119"><ele>286.5</ele><time>2026-05-01T10:26:07Z</time></trkpt><trkpt lat="40.95020228597298" lon="9.295763880609258"><ele>286.75</ele><time>2026-05-01T10:26:08Z</time></trkpt><trkpt lat="40.950101002139455" lon="9.295858556743552"><ele>287.0</ele><time>2026-05-01T10:26:09Z</time></trkpt><trkpt lat="40.95001953884692" lon="9.295935337773019"><ele>287.0</ele><time>2026-05-01T10:26:10Z</time></trkpt><trkpt lat="40.94991987042752" lon="9.296028934947984"><ele>287.0</ele><time>2026-05-01T10:26:12Z</time></trkpt><trkpt lat="40.949919728148245" lon="9.296143716415012"><ele>287.0</ele><time>2026-05-01T10:26:15Z</time></trkpt><trkpt lat="40.949815246102226" lon="9.296105693321982"><ele>287.0</ele><time>2026-05-01T10:26:23Z</time></trkpt><trkpt lat="40.949738467044284" lon="9.296210210770854"><ele>287.0</ele><time>2026-05-01T10:26:24Z</time></trkpt><trkpt lat="40.94960707437421" lon="9.296322672700759"><ele>287.0</ele><time>2026-05-01T10:26:25Z</time></trkpt><trkpt lat="40.94950422127727" lon="9.296419259087614"><ele>287.0</ele><time>2026-05-01T10:26:26Z</time></trkpt><trkpt lat="40.949407185515284" lon="9.29651085122228"><ele>287.0</ele><time>2026-05-01T10:26:27Z</time></trkpt><trkpt lat="40.949302897997235" lon="9.296609668062342"><ele>287.0</ele><time>2026-05-01T10:26:28Z</time></trkpt><trkpt lat="40.949186835934036" lon="9.296719038241417"><ele>288.33333333333337</ele><time>2026-05-01T10:26:29Z</time></trkpt><trkpt lat="40.94906141371534" lon="9.29683562856287"><ele>289.6666666666667</ele><time>2026-05-01T10:26:30Z</time></trkpt><trkpt lat="40.948936183078885" lon="9.296951352804856"><ele>291.0</ele><time>2026-05-01T10:26:31Z</time></trkpt><trkpt lat="40.94879884951563" lon="9.2970697889205"><ele>291.0</ele><time>2026-05-01T10:26:32Z</time></trkpt><trkpt lat="40.948651546124076" lon="9.297178621046518"><ele>291.0</ele><time>2026-05-01T10:26:33Z</time></trkpt><trkpt lat="40.9484977839539" lon="9.29726109928139"><ele>291.0</ele><time>2026-05-01T10:26:34Z</time></trkpt><trkpt lat="40.94835028233806" lon="9.297331136602892"><ele>291.3333333333333</ele><time>2026-05-01T10:26:35Z</time></trkpt><trkpt lat="40.948201280442255" lon="9.2974009952668"><ele>291.66666666666663</ele><time>2026-05-01T10:26:36Z</time></trkpt><trkpt lat="40.94805649498876" lon="9.297468877075005"><ele>292.0</ele><time>2026-05-01T10:26:37Z</time></trkpt><trkpt lat="40.94790679679132" lon="9.297539062203624"><ele>292.0</ele><time>2026-05-01T10:26:38Z</time></trkpt><trkpt lat="40.947758110162845" lon="9.297608773047276"><ele>292.0</ele><time>2026-05-01T10:26:39Z</time></trkpt><trkpt lat="40.94761458067915" lon="9.297675943022968"><ele>292.0</ele><time>2026-05-01T10:26:40Z</time></trkpt><trkpt lat="40.94746424073737" lon="9.297745609732605"><ele>290.0</ele><time>2026-05-01T10:26:41Z</time></trkpt><trkpt lat="40.94731671229193" lon="9.297813973609538"><ele>288.0</ele><time>2026-05-01T10:26:42Z</time></trkpt><trkpt lat="40.94717266015749" lon="9.297881205205396"><ele>286.0</ele><time>2026-05-01T10:26:43Z</time></trkpt><trkpt lat="40.94703392803195" lon="9.29796901110416"><ele>286.0</ele><time>2026-05-01T10:26:44Z</time></trkpt><trkpt lat="40.94689132033475" lon="9.298032630558865"><ele>286.0</ele><time>2026-05-01T10:26:45Z</time></trkpt><trkpt lat="40.946748979790044" lon="9.298100478483086"><ele>286.0</ele><time>2026-05-01T10:26:46Z</time></trkpt><trkpt lat="40.94660626803881" lon="9.298170272698824"><ele>286.66666666666663</ele><time>2026-05-01T10:26:47Z</time></trkpt><trkpt lat="40.94645976572237" lon="9.29821902889363"><ele>287.3333333333333</ele><time>2026-05-01T10:26:48Z</time></trkpt><trkpt lat="40.946318601052674" lon="9.298291306534347"><ele>288.0</ele><time>2026-05-01T10:26:49Z</time></trkpt><trkpt lat="40.946184353140545" lon="9.298375506776207"><ele>288.0</ele><time>2026-05-01T10:26:50Z</time></trkpt><trkpt lat="40.946069298631" lon="9.298461709493296"><ele>288.0</ele><time>2026-05-01T10:26:51Z</time></trkpt><trkpt lat="40.9459655274652" lon="9.29855027764602"><ele>288.0</ele><time>2026-05-01T10:26:52Z</time></trkpt><trkpt lat="40.94587557608537" lon="9.298635362499116"><ele>288.0</ele><time>2026-05-01T10:26:53Z</time></trkpt><trkpt lat="40.945795195205285" lon="9.298713307613667"><ele>288.3333333333333</ele><time>2026-05-01T10:26:54Z</time></trkpt><trkpt lat="40.945722979570725" lon="9.298786206676507"><ele>288.6666666666667</ele><time>2026-05-01T10:26:55Z</time></trkpt><trkpt lat="40.945670554936505" lon="9.298860539439987"><ele>289.0</ele><time>2026-05-01T10:26:56Z</time></trkpt><trkpt lat="40.94560701121332" lon="9.298887694484703"><ele>289.33333333333337</ele><time>2026-05-01T10:26:57Z</time></trkpt><trkpt lat="40.94552673555879" lon="9.298793704882128"><ele>289.6666666666667</ele><time>2026-05-01T10:26:59Z</time></trkpt><trkpt lat="40.945478609040904" lon="9.29873630367657"><ele>290.0</ele><time>2026-05-01T10:27:00Z</time></trkpt><trkpt lat="40.94542792951152" lon="9.298675857507316"><ele>290.0</ele><time>2026-05-01T10:27:01Z</time></trkpt><trkpt lat="40.9453626956788" lon="9.298625968445867"><ele>290.0</ele><time>2026-05-01T10:27:02Z</time></trkpt><trkpt lat="40.945309527769226" lon="9.298533564662106"><ele>290.0</ele><time>2026-05-01T10:27:03Z</time></trkpt><trkpt lat="40.945250220096945" lon="9.298461744874826"><ele>290.0</ele><time>2026-05-01T10:27:04Z</time></trkpt><trkpt lat="40.9451820618295" lon="9.298374439214884"><ele>290.0</ele><time>2026-05-01T10:27:05Z</time></trkpt><trkpt lat="40.94511494901731" lon="9.29828211505123"><ele>290.0</ele><time>2026-05-01T10:27:06Z</time></trkpt><trkpt lat="40.945052105317096" lon="9.29818478459669"><ele>290.0</ele><time>2026-05-01T10:27:07Z</time></trkpt><trkpt lat="40.94497559780772" lon="9.298091817847812"><ele>290.0</ele><time>2026-05-01T10:27:08Z</time></trkpt><trkpt lat="40.9449126268026" lon="9.297982559332294"><ele>290.0</ele><time>2026-05-01T10:27:09Z</time></trkpt><trkpt lat="40.94483955335145" lon="9.29788166523067"><ele>290.0</ele><time>2026-05-01T10:27:10Z</time></trkpt><trkpt lat="40.94472910009042" lon="9.297838054833175"><ele>290.0</ele><time>2026-05-01T10:27:11Z</time></trkpt><trkpt lat="40.9445951481892" lon="9.297877769059914"><ele>290.25</ele><time>2026-05-01T10:27:12Z</time></trkpt><trkpt lat="40.944460179323144" lon="9.29793113699448"><ele>290.5</ele><time>2026-05-01T10:27:13Z</time></trkpt><trkpt lat="40.94431675907007" lon="9.297975472816168"><ele>290.75</ele><time>2026-05-01T10:27:14Z</time></trkpt><trkpt lat="40.94419043421483" lon="9.29803699609338"><ele>291.0</ele><time>2026-05-01T10:27:15Z</time></trkpt><trkpt lat="40.94406405972016" lon="9.298098577057608"><ele>289.5</ele><time>2026-05-01T10:27:16Z</time></trkpt><trkpt lat="40.94393760959639" lon="9.298160194879085"><ele>288.0</ele><time>2026-05-01T10:27:17Z</time></trkpt><trkpt lat="40.94380559436466" lon="9.298221219861102"><ele>286.5</ele><time>2026-05-01T10:27:18Z</time></trkpt><trkpt lat="40.94366834817206" lon="9.298272875013948"><ele>285.0</ele><time>2026-05-01T10:27:19Z</time></trkpt><trkpt lat="40.943528729357126" lon="9.298321052291982"><ele>285.0</ele><time>2026-05-01T10:27:20Z</time></trkpt><trkpt lat="40.94339785006547" lon="9.298360094655749"><ele>285.0</ele><time>2026-05-01T10:27:21Z</time></trkpt><trkpt lat="40.94327696704029" lon="9.298396825116896"><ele>285.0</ele><time>2026-05-01T10:27:22Z</time></trkpt><trkpt lat="40.94316743869084" lon="9.29843145146172"><ele>285.0</ele><time>2026-05-01T10:27:23Z</time></trkpt><trkpt lat="40.943068141293715" lon="9.298462843370139"><ele>284.25</ele><time>2026-05-01T10:27:24Z</time></trkpt><trkpt lat="40.942898365744504" lon="9.298479572099591"><ele>283.5</ele><time>2026-05-01T10:27:26Z</time></trkpt><trkpt lat="40.94282495710951" lon="9.298462379951804"><ele>282.75</ele><time>2026-05-01T10:27:27Z</time></trkpt><trkpt lat="40.94273814661134" lon="9.29838225371824"><ele>282.0</ele><time>2026-05-01T10:27:29Z</time></trkpt><trkpt lat="40.94270648016023" lon="9.298133046753001"><ele>282.25</ele><time>2026-05-01T10:27:31Z</time></trkpt><trkpt lat="40.94266434978992" lon="9.298002358806588"><ele>282.5</ele><time>2026-05-01T10:27:32Z</time></trkpt><trkpt lat="40.942616512518896" lon="9.29786768239475"><ele>282.75</ele><time>2026-05-01T10:27:33Z</time></trkpt><trkpt lat="40.94259486480732" lon="9.297708022531744"><ele>283.0</ele><time>2026-05-01T10:27:34Z</time></trkpt><trkpt lat="40.942554036506266" lon="9.297534921639718"><ele>283.0</ele><time>2026-05-01T10:27:35Z</time></trkpt><trkpt lat="40.9425319609445" lon="9.297337446781116"><ele>283.0</ele><time>2026-05-01T10:27:36Z</time></trkpt><trkpt lat="40.94250163046161" lon="9.297114064225417"><ele>283.0</ele><time>2026-05-01T10:27:37Z</time></trkpt><trkpt lat="40.94247047384088" lon="9.29690909250244"><ele>283.0</ele><time>2026-05-01T10:27:38Z</time></trkpt><trkpt lat="40.94244580109993" lon="9.296735556991845"><ele>283.0</ele><time>2026-05-01T10:27:39Z</time></trkpt><trkpt lat="40.94242372281167" lon="9.296561783857209"><ele>283.0</ele><time>2026-05-01T10:27:40Z</time></trkpt><trkpt lat="40.94239666447276" lon="9.296380355623153"><ele>283.0</ele><time>2026-05-01T10:27:41Z</time></trkpt><trkpt lat="40.94237067368399" lon="9.2962065075615"><ele>282.75</ele><time>2026-05-01T10:27:42Z</time></trkpt><trkpt lat="40.94234368136156" lon="9.29602833322676"><ele>282.5</ele><time>2026-05-01T10:27:43Z</time></trkpt><trkpt lat="40.94231800229551" lon="9.295856358721585"><ele>282.25</ele><time>2026-05-01T10:27:44Z</time></trkpt><trkpt lat="40.942291516446645" lon="9.295684311988701"><ele>282.0</ele><time>2026-05-01T10:27:45Z</time></trkpt><trkpt lat="40.94227192513208" lon="9.295513068825732"><ele>282.0</ele><time>2026-05-01T10:27:46Z</time></trkpt><trkpt lat="40.94224471901453" lon="9.295342429404913"><ele>282.0</ele><time>2026-05-01T10:27:47Z</time></trkpt><trkpt lat="40.94222249913371" lon="9.29517571966294"><ele>282.0</ele><time>2026-05-01T10:27:48Z</time></trkpt><trkpt lat="40.94219776369622" lon="9.295005413781796"><ele>282.0</ele><time>2026-05-01T10:27:49Z</time></trkpt><trkpt lat="40.942170491506815" lon="9.294837320335418"><ele>282.75</ele><time>2026-05-01T10:27:50Z</time></trkpt><trkpt lat="40.94214262450558" lon="9.294661333335522"><ele>283.5</ele><time>2026-05-01T10:27:51Z</time></trkpt><trkpt lat="40.94211456550726" lon="9.294480350471774"><ele>284.25</ele><time>2026-05-01T10:27:52Z</time></trkpt><trkpt lat="40.94208470901363" lon="9.294291475649498"><ele>285.0</ele><time>2026-05-01T10:27:53Z</time></trkpt><trkpt lat="40.94205783586737" lon="9.294106678001429"><ele>285.0</ele><time>2026-05-01T10:27:54Z</time></trkpt><trkpt lat="40.94203157461949" lon="9.293924131895091"><ele>285.0</ele><time>2026-05-01T10:27:55Z</time></trkpt><trkpt lat="40.94200587522551" lon="9.293747889250547"><ele>285.0</ele><time>2026-05-01T10:27:56Z</time></trkpt><trkpt lat="40.94197936102498" lon="9.293573289595097"><ele>285.0</ele><time>2026-05-01T10:27:57Z</time></trkpt><trkpt lat="40.94195330042264" lon="9.293403635507735"><ele>285.75</ele><time>2026-05-01T10:27:58Z</time></trkpt><trkpt lat="40.9419316953626" lon="9.293233243147574"><ele>286.5</ele><time>2026-05-01T10:27:59Z</time></trkpt><trkpt lat="40.94191873932618" lon="9.293062618497679"><ele>287.25</ele><time>2026-05-01T10:28:00Z</time></trkpt><trkpt lat="40.94191808740088" lon="9.29289052961992"><ele>288.0</ele><time>2026-05-01T10:28:01Z</time></trkpt><trkpt lat="40.94192216501696" lon="9.292709175601148"><ele>288.75</ele><time>2026-05-01T10:28:02Z</time></trkpt><trkpt lat="40.94192541050712" lon="9.292523415676575"><ele>289.5</ele><time>2026-05-01T10:28:03Z</time></trkpt><trkpt lat="40.94192631054067" lon="9.292344909474782"><ele>290.25</ele><time>2026-05-01T10:28:04Z</time></trkpt><trkpt lat="40.94192517322481" lon="9.29216737477668"><ele>291.0</ele><time>2026-05-01T10:28:05Z</time></trkpt><trkpt lat="40.94192253824363" lon="9.291999611357978"><ele>291.6</ele><time>2026-05-01T10:28:06Z</time></trkpt><trkpt lat="40.941906819219845" lon="9.2918387255616"><ele>292.20000000000005</ele><time>2026-05-01T10:28:07Z</time></trkpt><trkpt lat="40.94188055074776" lon="9.291689671385155"><ele>292.79999999999995</ele><time>2026-05-01T10:28:08Z</time></trkpt><trkpt lat="40.94185736923014" lon="9.291574637414389"><ele>293.4</ele><time>2026-05-01T10:28:09Z</time></trkpt><trkpt lat="40.94179746466678" lon="9.291452270843415"><ele>294.0</ele><time>2026-05-01T10:28:11Z</time></trkpt><trkpt lat="40.941677586138525" lon="9.291382290001442"><ele>295.0</ele><time>2026-05-01T10:28:13Z</time></trkpt><trkpt lat="40.941602729187345" lon="9.291317951624237"><ele>296.0</ele><time>2026-05-01T10:28:14Z</time></trkpt><trkpt lat="40.941492791343556" lon="9.291209989573229"><ele>297.0</ele><time>2026-05-01T10:28:15Z</time></trkpt><trkpt lat="40.94136953194204" lon="9.291075150843797"><ele>298.0</ele><time>2026-05-01T10:28:16Z</time></trkpt><trkpt lat="40.941242645989014" lon="9.290945786088871"><ele>298.0</ele><time>2026-05-01T10:28:17Z</time></trkpt><trkpt lat="40.94112852358107" lon="9.290825165065359"><ele>298.0</ele><time>2026-05-01T10:28:18Z</time></trkpt><trkpt lat="40.941008733781075" lon="9.290685597610127"><ele>298.0</ele><time>2026-05-01T10:28:19Z</time></trkpt><trkpt lat="40.940902732589585" lon="9.290557915454722"><ele>298.0</ele><time>2026-05-01T10:28:20Z</time></trkpt><trkpt lat="40.94079625402716" lon="9.290429658244685"><ele>298.5</ele><time>2026-05-01T10:28:21Z</time></trkpt><trkpt lat="40.94068949615576" lon="9.290308074765461"><ele>299.0</ele><time>2026-05-01T10:28:22Z</time></trkpt><trkpt lat="40.94057645275338" lon="9.290187164671048"><ele>299.5</ele><time>2026-05-01T10:28:23Z</time></trkpt><trkpt lat="40.94045113732957" lon="9.290086921218691"><ele>300.0</ele><time>2026-05-01T10:28:24Z</time></trkpt><trkpt lat="40.94033425215844" lon="9.290006754608676"><ele>300.0</ele><time>2026-05-01T10:28:25Z</time></trkpt><trkpt lat="40.94021756554452" lon="9.289937380524812"><ele>300.0</ele><time>2026-05-01T10:28:26Z</time></trkpt><trkpt lat="40.94011853529376" lon="9.289882027425769"><ele>300.0</ele><time>2026-05-01T10:28:27Z</time></trkpt><trkpt lat="40.940019653646395" lon="9.289825859757704"><ele>300.0</ele><time>2026-05-01T10:28:28Z</time></trkpt><trkpt lat="40.93993431589644" lon="9.28977544762865"><ele>300.0</ele><time>2026-05-01T10:28:29Z</time></trkpt><trkpt lat="40.93982907306306" lon="9.289723434717912"><ele>299.0</ele><time>2026-05-01T10:28:30Z</time></trkpt><trkpt lat="40.93971125461736" lon="9.28968961219632"><ele>298.0</ele><time>2026-05-01T10:28:31Z</time></trkpt><trkpt lat="40.93958805155256" lon="9.289650075719859"><ele>297.0</ele><time>2026-05-01T10:28:32Z</time></trkpt><trkpt lat="40.939446603734176" lon="9.289602560488262"><ele>296.0</ele><time>2026-05-01T10:28:33Z</time></trkpt><trkpt lat="40.93930890411858" lon="9.289558812864621"><ele>295.25</ele><time>2026-05-01T10:28:34Z</time></trkpt><trkpt lat="40.939192648949195" lon="9.289506056986578"><ele>294.5</ele><time>2026-05-01T10:28:35Z</time></trkpt><trkpt lat="40.93905154865987" lon="9.289451218970894"><ele>293.75</ele><time>2026-05-01T10:28:36Z</time></trkpt><trkpt lat="40.93891751841909" lon="9.28940782523646"><ele>293.0</ele><time>2026-05-01T10:28:37Z</time></trkpt><trkpt lat="40.93878778439198" lon="9.289355393078528"><ele>293.0</ele><time>2026-05-01T10:28:38Z</time></trkpt><trkpt lat="40.93867127116626" lon="9.289306633806982"><ele>293.0</ele><time>2026-05-01T10:28:39Z</time></trkpt><trkpt lat="40.9385485187774" lon="9.289261830177617"><ele>293.0</ele><time>2026-05-01T10:28:40Z</time></trkpt><trkpt lat="40.93842457067103" lon="9.289223420215007"><ele>293.0</ele><time>2026-05-01T10:28:41Z</time></trkpt><trkpt lat="40.93830940431392" lon="9.289173264497348"><ele>293.0</ele><time>2026-05-01T10:28:42Z</time></trkpt><trkpt lat="40.9382059114467" lon="9.289102817678701"><ele>293.0</ele><time>2026-05-01T10:28:43Z</time></trkpt><trkpt lat="40.938115327119064" lon="9.289018762385622"><ele>293.0</ele><time>2026-05-01T10:28:44Z</time></trkpt><trkpt lat="40.93802861968009" lon="9.288926554388619"><ele>293.0</ele><time>2026-05-01T10:28:45Z</time></trkpt><trkpt lat="40.937949001026105" lon="9.288835715156075"><ele>293.0</ele><time>2026-05-01T10:28:46Z</time></trkpt><trkpt lat="40.93786664397786" lon="9.288726346011401"><ele>293.0</ele><time>2026-05-01T10:28:47Z</time></trkpt><trkpt lat="40.9377774809443" lon="9.288626882499532"><ele>293.0</ele><time>2026-05-01T10:28:48Z</time></trkpt><trkpt lat="40.93767886917853" lon="9.288530127580417"><ele>293.0</ele><time>2026-05-01T10:28:49Z</time></trkpt><trkpt lat="40.937575919730044" lon="9.288439799996201"><ele>293.0</ele><time>2026-05-01T10:28:50Z</time></trkpt><trkpt lat="40.937450897938106" lon="9.288357420105548"><ele>293.4</ele><time>2026-05-01T10:28:51Z</time></trkpt><trkpt lat="40.93734073461258" lon="9.288266284646598"><ele>293.8</ele><time>2026-05-01T10:28:52Z</time></trkpt><trkpt lat="40.93722311503541" lon="9.288201493141056"><ele>294.2</ele><time>2026-05-01T10:28:53Z</time></trkpt><trkpt lat="40.93713866800477" lon="9.28815209585602"><ele>294.6</ele><time>2026-05-01T10:28:54Z</time></trkpt><trkpt lat="40.93705895001602" lon="9.288095511702597"><ele>295.0</ele><time>2026-05-01T10:28:55Z</time></trkpt><trkpt lat="40.93697380161894" lon="9.288062071402523"><ele>295.2</ele><time>2026-05-01T10:28:56Z</time></trkpt><trkpt lat="40.93689512838841" lon="9.288007958161053"><ele>295.4</ele><time>2026-05-01T10:28:57Z</time></trkpt><trkpt lat="40.936786071231865" lon="9.287999522979796"><ele>295.6</ele><time>2026-05-01T10:28:58Z</time></trkpt><trkpt lat="40.936680878445394" lon="9.287983773633162"><ele>295.8</ele><time>2026-05-01T10:28:59Z</time></trkpt><trkpt lat="40.9366139857077" lon="9.287909258677626"><ele>296.0</ele><time>2026-05-01T10:29:01Z</time></trkpt><trkpt lat="40.936570203819834" lon="9.287839816806388"><ele>296.2</ele><time>2026-05-01T10:29:02Z</time></trkpt><trkpt lat="40.93650628907377" lon="9.287741827952324"><ele>296.40000000000003</ele><time>2026-05-01T10:29:03Z</time></trkpt><trkpt lat="40.936432103293555" lon="9.287659565452156"><ele>296.6</ele><time>2026-05-01T10:29:04Z</time></trkpt><trkpt lat="40.9363743434283" lon="9.28753870064079"><ele>296.8</ele><time>2026-05-01T10:29:05Z</time></trkpt><trkpt lat="40.936295850852645" lon="9.287416251069107"><ele>297.0</ele><time>2026-05-01T10:29:06Z</time></trkpt><trkpt lat="40.93621536872629" lon="9.287288452894279"><ele>297.6</ele><time>2026-05-01T10:29:07Z</time></trkpt><trkpt lat="40.936134707737594" lon="9.287160370124294"><ele>298.2</ele><time>2026-05-01T10:29:08Z</time></trkpt><trkpt lat="40.936060535992056" lon="9.287044910104596"><ele>298.8</ele><time>2026-05-01T10:29:09Z</time></trkpt><trkpt lat="40.935988370344944" lon="9.286962849451415"><ele>299.4</ele><time>2026-05-01T10:29:10Z</time></trkpt><trkpt lat="40.935936668777714" lon="9.286880182964351"><ele>300.0</ele><time>2026-05-01T10:29:11Z</time></trkpt><trkpt lat="40.93587241441712" lon="9.286836629860641"><ele>301.4</ele><time>2026-05-01T10:29:12Z</time></trkpt><trkpt lat="40.935761228608825" lon="9.286822733865028"><ele>302.8</ele><time>2026-05-01T10:29:14Z</time></trkpt><trkpt lat="40.93568383945629" lon="9.286822733869249"><ele>304.2</ele><time>2026-05-01T10:29:15Z</time></trkpt><trkpt lat="40.93554324536645" lon="9.286743629832163"><ele>305.6</ele><time>2026-05-01T10:29:17Z</time></trkpt><trkpt lat="40.93546213918338" lon="9.286669339456532"><ele>307.0</ele><time>2026-05-01T10:29:18Z</time></trkpt><trkpt lat="40.935374170208064" lon="9.286616138750098"><ele>307.0</ele><time>2026-05-01T10:29:19Z</time></trkpt><trkpt lat="40.935277238437784" lon="9.286530988273366"><ele>307.0</ele><time>2026-05-01T10:29:20Z</time></trkpt><trkpt lat="40.93515353423558" lon="9.286486381598145"><ele>307.0</ele><time>2026-05-01T10:29:21Z</time></trkpt><trkpt lat="40.93506224747351" lon="9.286439611414929"><ele>307.0</ele><time>2026-05-01T10:29:22Z</time></trkpt><trkpt lat="40.93497076763108" lon="9.28641570943622"><ele>307.0</ele><time>2026-05-01T10:29:23Z</time></trkpt><trkpt lat="40.93487579262379" lon="9.286391948001878"><ele>308.2</ele><time>2026-05-01T10:29:24Z</time></trkpt><trkpt lat="40.934800166186164" lon="9.286431345049357"><ele>309.4</ele><time>2026-05-01T10:29:25Z</time></trkpt><trkpt lat="40.93478361098843" lon="9.286243036757206"><ele>310.6</ele><time>2026-05-01T10:29:26Z</time></trkpt><trkpt lat="40.93472972875149" lon="9.286161708146881"><ele>311.8</ele><time>2026-05-01T10:29:27Z</time></trkpt><trkpt lat="40.93465988619547" lon="9.286080050471039"><ele>313.0</ele><time>2026-05-01T10:29:28Z</time></trkpt><trkpt lat="40.93460112249077" lon="9.285978525394697"><ele>313.6</ele><time>2026-05-01T10:29:29Z</time></trkpt><trkpt lat="40.93452520764373" lon="9.285897658183563"><ele>314.20000000000005</ele><time>2026-05-01T10:29:30Z</time></trkpt><trkpt lat="40.93446283950549" lon="9.285792276504859"><ele>314.8</ele><time>2026-05-01T10:29:31Z</time></trkpt><trkpt lat="40.9343899134714" lon="9.285708888739782"><ele>315.40000000000003</ele><time>2026-05-01T10:29:32Z</time></trkpt><trkpt lat="40.934300916536884" lon="9.285630463643898"><ele>316.0</ele><time>2026-05-01T10:29:33Z</time></trkpt><trkpt lat="40.93421360684796" lon="9.285560930948542"><ele>318.75</ele><time>2026-05-01T10:29:34Z</time></trkpt><trkpt lat="40.934119506541194" lon="9.285483417908432"><ele>321.5</ele><time>2026-05-01T10:29:35Z</time></trkpt><trkpt lat="40.93401696255899" lon="9.285394098355859"><ele>324.25</ele><time>2026-05-01T10:29:36Z</time></trkpt><trkpt lat="40.93391122905172" lon="9.285309212212804"><ele>327.0</ele><time>2026-05-01T10:29:37Z</time></trkpt><trkpt lat="40.93381124697672" lon="9.285196100933987"><ele>327.0</ele><time>2026-05-01T10:29:38Z</time></trkpt><trkpt lat="40.93371001050698" lon="9.285100237653308"><ele>327.0</ele><time>2026-05-01T10:29:39Z</time></trkpt><trkpt lat="40.93362797666544" lon="9.28501653790864"><ele>327.0</ele><time>2026-05-01T10:29:40Z</time></trkpt><trkpt lat="40.93353729753426" lon="9.284948313944147"><ele>327.0</ele><time>2026-05-01T10:29:41Z</time></trkpt><trkpt lat="40.9334606480399" lon="9.284856693856609"><ele>327.0</ele><time>2026-05-01T10:29:42Z</time></trkpt><trkpt lat="40.93338015777204" lon="9.284779522825346"><ele>328.25</ele><time>2026-05-01T10:29:43Z</time></trkpt><trkpt lat="40.933297534913706" lon="9.284679446196893"><ele>329.5</ele><time>2026-05-01T10:29:44Z</time></trkpt><trkpt lat="40.93319289497474" lon="9.284594055282692"><ele>330.75</ele><time>2026-05-01T10:29:45Z</time></trkpt><trkpt lat="40.93309077824666" lon="9.284527977064458"><ele>332.0</ele><time>2026-05-01T10:29:46Z</time></trkpt><trkpt lat="40.932984484798766" lon="9.284467679093638"><ele>332.0</ele><time>2026-05-01T10:29:47Z</time></trkpt><trkpt lat="40.93287771372466" lon="9.284403781109331"><ele>332.0</ele><time>2026-05-01T10:29:48Z</time></trkpt><trkpt lat="40.932802977968976" lon="9.284347742002398"><ele>332.0</ele><time>2026-05-01T10:29:49Z</time></trkpt><trkpt lat="40.9327421340652" lon="9.284290396242977"><ele>332.0</ele><time>2026-05-01T10:29:50Z</time></trkpt><trkpt lat="40.93264448304979" lon="9.284193560874028"><ele>332.0</ele><time>2026-05-01T10:29:51Z</time></trkpt><trkpt lat="40.93254439085552" lon="9.284093169161299"><ele>332.0</ele><time>2026-05-01T10:29:52Z</time></trkpt><trkpt lat="40.932450433673665" lon="9.284018442680932"><ele>332.0</ele><time>2026-05-01T10:29:53Z</time></trkpt><trkpt lat="40.932365287761925" lon="9.283944174554911"><ele>332.0</ele><time>2026-05-01T10:29:54Z</time></trkpt><trkpt lat="40.93228070110262" lon="9.283865288583726"><ele>332.0</ele><time>2026-05-01T10:29:55Z</time></trkpt><trkpt lat="40.932174234757206" lon="9.283793466819006"><ele>332.0</ele><time>2026-05-01T10:29:56Z</time></trkpt><trkpt lat="40.93207304644334" lon="9.28372105630239"><ele>332.0</ele><time>2026-05-01T10:29:57Z</time></trkpt><trkpt lat="40.93199523952055" lon="9.283648650990575"><ele>332.0</ele><time>2026-05-01T10:29:58Z</time></trkpt><trkpt lat="40.931924838974204" lon="9.28358273774015"><ele>332.0</ele><time>2026-05-01T10:29:59Z</time></trkpt><trkpt lat="40.93184713135184" lon="9.283530276305141"><ele>332.0</ele><time>2026-05-01T10:30:00Z</time></trkpt><trkpt lat="40.93176338066107" lon="9.283432328606283"><ele>332.0</ele><time>2026-05-01T10:30:01Z</time></trkpt><trkpt lat="40.93166334610122" lon="9.28332859291452"><ele>331.5</ele><time>2026-05-01T10:30:02Z</time></trkpt><trkpt lat="40.931563608668775" lon="9.283216286638483"><ele>331.0</ele><time>2026-05-01T10:30:03Z</time></trkpt><trkpt lat="40.93146977369397" lon="9.283101103458648"><ele>330.5</ele><time>2026-05-01T10:30:04Z</time></trkpt><trkpt lat="40.931390854276444" lon="9.282993281697081"><ele>330.0</ele><time>2026-05-01T10:30:05Z</time></trkpt><trkpt lat="40.93132161895707" lon="9.282901211621722"><ele>330.0</ele><time>2026-05-01T10:30:06Z</time></trkpt><trkpt lat="40.93127571804513" lon="9.282808069390473"><ele>330.0</ele><time>2026-05-01T10:30:07Z</time></trkpt><trkpt lat="40.93122037042571" lon="9.282731182266142"><ele>330.0</ele><time>2026-05-01T10:30:08Z</time></trkpt><trkpt lat="40.931159344281035" lon="9.282622523906197"><ele>330.0</ele><time>2026-05-01T10:30:09Z</time></trkpt><trkpt lat="40.931083536523936" lon="9.282552381445285"><ele>330.0</ele><time>2026-05-01T10:30:10Z</time></trkpt><trkpt lat="40.9310097098495" lon="9.282453810944594"><ele>330.0</ele><time>2026-05-01T10:30:11Z</time></trkpt><trkpt lat="40.93094402079723" lon="9.282359532951098"><ele>330.0</ele><time>2026-05-01T10:30:12Z</time></trkpt><trkpt lat="40.93089035312784" lon="9.282295273845007"><ele>330.0</ele><time>2026-05-01T10:30:13Z</time></trkpt><trkpt lat="40.93083464494858" lon="9.28222857196173"><ele>330.0</ele><time>2026-05-01T10:30:17Z</time></trkpt><trkpt lat="40.930736706471365" lon="9.282251735568728"><ele>330.0</ele><time>2026-05-01T10:30:18Z</time></trkpt><trkpt lat="40.93064370331431" lon="9.282245434327525"><ele>330.0</ele><time>2026-05-01T10:30:19Z</time></trkpt><trkpt lat="40.93055018193505" lon="9.282225952845614"><ele>330.4</ele><time>2026-05-01T10:30:20Z</time></trkpt><trkpt lat="40.93048151719434" lon="9.282190206090597"><ele>330.8</ele><time>2026-05-01T10:30:21Z</time></trkpt><trkpt lat="40.93041670214305" lon="9.28213045150679"><ele>331.20000000000005</ele><time>2026-05-01T10:30:22Z</time></trkpt><trkpt lat="40.93040099785523" lon="9.28200710597746"><ele>331.6</ele><time>2026-05-01T10:30:23Z</time></trkpt><trkpt lat="40.93034907612727" lon="9.281862601126079"><ele>332.0</ele><time>2026-05-01T10:30:24Z</time></trkpt><trkpt lat="40.93029889078722" lon="9.281719408839642"><ele>332.0</ele><time>2026-05-01T10:30:25Z</time></trkpt><trkpt lat="40.930261445528274" lon="9.281588642192917"><ele>332.0</ele><time>2026-05-01T10:30:26Z</time></trkpt><trkpt lat="40.93023092797936" lon="9.28148795304351"><ele>332.0</ele><time>2026-05-01T10:30:27Z</time></trkpt><trkpt lat="40.930200933491015" lon="9.28134378469432"><ele>332.0</ele><time>2026-05-01T10:30:29Z</time></trkpt><trkpt lat="40.930142517192515" lon="9.281281832212601"><ele>332.0</ele><time>2026-05-01T10:30:30Z</time></trkpt><trkpt lat="40.930074632914646" lon="9.281287335539965"><ele>332.0</ele><time>2026-05-01T10:30:31Z</time></trkpt><trkpt lat="40.93001503094734" lon="9.281400174353198"><ele>330.83333333333337</ele><time>2026-05-01T10:30:32Z</time></trkpt><trkpt lat="40.929972876853746" lon="9.281476087462133"><ele>329.6666666666667</ele><time>2026-05-01T10:30:33Z</time></trkpt><trkpt lat="40.929935254086786" lon="9.281549144173422"><ele>328.5</ele><time>2026-05-01T10:30:34Z</time></trkpt><trkpt lat="40.92988183844467" lon="9.281654146665028"><ele>327.3333333333333</ele><time>2026-05-01T10:30:35Z</time></trkpt><trkpt lat="40.92981190542499" lon="9.2817584081748"><ele>326.16666666666663</ele><time>2026-05-01T10:30:36Z</time></trkpt><trkpt lat="40.92975495238396" lon="9.281844285408894"><ele>325.0</ele><time>2026-05-01T10:30:37Z</time></trkpt><trkpt lat="40.92969487072177" lon="9.281945458632922"><ele>325.0</ele><time>2026-05-01T10:30:38Z</time></trkpt><trkpt lat="40.9296334929408" lon="9.282037791530444"><ele>325.0</ele><time>2026-05-01T10:30:39Z</time></trkpt><trkpt lat="40.92957654806152" lon="9.282122235095214"><ele>325.0</ele><time>2026-05-01T10:30:40Z</time></trkpt><trkpt lat="40.92951362274163" lon="9.28220980514492"><ele>325.0</ele><time>2026-05-01T10:30:41Z</time></trkpt><trkpt lat="40.92944230067136" lon="9.282285860761997"><ele>325.0</ele><time>2026-05-01T10:30:42Z</time></trkpt><trkpt lat="40.92935017999303" lon="9.282351186681359"><ele>324.5</ele><time>2026-05-01T10:30:43Z</time></trkpt><trkpt lat="40.92922957411293" lon="9.282421366802307"><ele>324.0</ele><time>2026-05-01T10:30:44Z</time></trkpt><trkpt lat="40.92913229504095" lon="9.282469405485646"><ele>323.5</ele><time>2026-05-01T10:30:45Z</time></trkpt><trkpt lat="40.92902692196627" lon="9.28251423734439"><ele>323.0</ele><time>2026-05-01T10:30:46Z</time></trkpt><trkpt lat="40.92890784152797" lon="9.282548682136328"><ele>324.5</ele><time>2026-05-01T10:30:47Z</time></trkpt><trkpt lat="40.928781699996875" lon="9.282587062102927"><ele>326.0</ele><time>2026-05-01T10:30:48Z</time></trkpt><trkpt lat="40.92866203964203" lon="9.282622417920058"><ele>327.5</ele><time>2026-05-01T10:30:49Z</time></trkpt><trkpt lat="40.92855754260663" lon="9.282648982729881"><ele>329.0</ele><time>2026-05-01T10:30:50Z</time></trkpt><trkpt lat="40.928458535021825" lon="9.282656735560156"><ele>329.2</ele><time>2026-05-01T10:30:51Z</time></trkpt><trkpt lat="40.92836601384031" lon="9.282645015243856"><ele>329.4</ele><time>2026-05-01T10:30:52Z</time></trkpt><trkpt lat="40.92827992044556" lon="9.282613046350367"><ele>329.6</ele><time>2026-05-01T10:30:53Z</time></trkpt><trkpt lat="40.92820393071104" lon="9.282541351832869"><ele>329.8</ele><time>2026-05-01T10:30:54Z</time></trkpt><trkpt lat="40.92812465845369" lon="9.282467461513946"><ele>330.0</ele><time>2026-05-01T10:30:55Z</time></trkpt><trkpt lat="40.92804004985151" lon="9.28240222514077"><ele>330.0</ele><time>2026-05-01T10:30:56Z</time></trkpt><trkpt lat="40.927972294458364" lon="9.282356346682771"><ele>330.0</ele><time>2026-05-01T10:30:57Z</time></trkpt><trkpt lat="40.92790649250092" lon="9.282333483454615"><ele>330.0</ele><time>2026-05-01T10:30:58Z</time></trkpt><trkpt lat="40.927843233732744" lon="9.282320454927195"><ele>330.0</ele><time>2026-05-01T10:30:59Z</time></trkpt><trkpt lat="40.92775154875155" lon="9.282322640257735"><ele>330.0</ele><time>2026-05-01T10:31:00Z</time></trkpt><trkpt lat="40.92764784412278" lon="9.28232091256758"><ele>330.0</ele><time>2026-05-01T10:31:01Z</time></trkpt><trkpt lat="40.9275345899224" lon="9.28231634663516"><ele>330.25</ele><time>2026-05-01T10:31:02Z</time></trkpt><trkpt lat="40.92742410992687" lon="9.28229401724679"><ele>330.5</ele><time>2026-05-01T10:31:03Z</time></trkpt><trkpt lat="40.927314593544516" lon="9.282243816858733"><ele>330.75</ele><time>2026-05-01T10:31:04Z</time></trkpt><trkpt lat="40.92719389646688" lon="9.28222774485245"><ele>331.0</ele><time>2026-05-01T10:31:05Z</time></trkpt><trkpt lat="40.92706857334003" lon="9.282241189190929"><ele>331.0</ele><time>2026-05-01T10:31:06Z</time></trkpt><trkpt lat="40.92695041658732" lon="9.282267932788884"><ele>331.0</ele><time>2026-05-01T10:31:07Z</time></trkpt><trkpt lat="40.92684555981207" lon="9.28228946366274"><ele>331.0</ele><time>2026-05-01T10:31:08Z</time></trkpt><trkpt lat="40.92676631395277" lon="9.2823279063159"><ele>331.0</ele><time>2026-05-01T10:31:09Z</time></trkpt><trkpt lat="40.926665958299914" lon="9.28239504783281"><ele>331.0</ele><time>2026-05-01T10:31:11Z</time></trkpt><trkpt lat="40.926596247359925" lon="9.282442538141181"><ele>331.0</ele><time>2026-05-01T10:31:12Z</time></trkpt><trkpt lat="40.926528000834935" lon="9.282480699542244"><ele>331.0</ele><time>2026-05-01T10:31:13Z</time></trkpt><trkpt lat="40.926446464497346" lon="9.282490425472025"><ele>331.0</ele><time>2026-05-01T10:31:14Z</time></trkpt><trkpt lat="40.926349960396536" lon="9.282468762419168"><ele>331.0</ele><time>2026-05-01T10:31:15Z</time></trkpt><trkpt lat="40.92623739157861" lon="9.28243658629726"><ele>331.0</ele><time>2026-05-01T10:31:16Z</time></trkpt><trkpt lat="40.92611746151173" lon="9.282386149996983"><ele>331.0</ele><time>2026-05-01T10:31:17Z</time></trkpt><trkpt lat="40.925997082709834" lon="9.282358543038464"><ele>331.0</ele><time>2026-05-01T10:31:18Z</time></trkpt><trkpt lat="40.925900550831635" lon="9.282324368645853"><ele>331.0</ele><time>2026-05-01T10:31:19Z</time></trkpt><trkpt lat="40.925805538745564" lon="9.282288923340218"><ele>331.0</ele><time>2026-05-01T10:31:20Z</time></trkpt><trkpt lat="40.92570881692242" lon="9.28223028258184"><ele>331.0</ele><time>2026-05-01T10:31:21Z</time></trkpt><trkpt lat="40.92561829638948" lon="9.282142086654721"><ele>330.5</ele><time>2026-05-01T10:31:22Z</time></trkpt><trkpt lat="40.925529790468886" lon="9.282032147495027"><ele>330.0</ele><time>2026-05-01T10:31:23Z</time></trkpt><trkpt lat="40.925452453018366" lon="9.28191051462042"><ele>329.5</ele><time>2026-05-01T10:31:24Z</time></trkpt><trkpt lat="40.925389231568516" lon="9.281821470252597"><ele>329.0</ele><time>2026-05-01T10:31:25Z</time></trkpt><trkpt lat="40.92529496609551" lon="9.281709648560524"><ele>329.0</ele><time>2026-05-01T10:31:27Z</time></trkpt><trkpt lat="40.925177082220074" lon="9.281701151655067"><ele>329.0</ele><time>2026-05-01T10:31:29Z</time></trkpt><trkpt lat="40.92506072159483" lon="9.281743955245734"><ele>329.0</ele><time>2026-05-01T10:31:31Z</time></trkpt><trkpt lat="40.924938647132315" lon="9.281794643350043"><ele>329.0</ele><time>2026-05-01T10:31:33Z</time></trkpt><trkpt lat="40.924865852930004" lon="9.281824529336252"><ele>329.0</ele><time>2026-05-01T10:31:34Z</time></trkpt><trkpt lat="40.92478960310258" lon="9.281854828840396"><ele>328.6666666666667</ele><time>2026-05-01T10:31:35Z</time></trkpt><trkpt lat="40.92471813048913" lon="9.281872828029154"><ele>328.33333333333337</ele><time>2026-05-01T10:31:36Z</time></trkpt><trkpt lat="40.92463238412839" lon="9.281880672464997"><ele>328.0</ele><time>2026-05-01T10:31:37Z</time></trkpt><trkpt lat="40.92454864707544" lon="9.281890469620112"><ele>327.6666666666667</ele><time>2026-05-01T10:31:38Z</time></trkpt><trkpt lat="40.92447053497854" lon="9.281910521310355"><ele>327.3333333333333</ele><time>2026-05-01T10:31:39Z</time></trkpt><trkpt lat="40.92440913836729" lon="9.281945556960082"><ele>327.0</ele><time>2026-05-01T10:31:40Z</time></trkpt><trkpt lat="40.924293955037534" lon="9.28195740799018"><ele>327.6</ele><time>2026-05-01T10:31:42Z</time></trkpt><trkpt lat="40.924229251917005" lon="9.281974886519265"><ele>328.20000000000005</ele><time>2026-05-01T10:31:43Z</time></trkpt><trkpt lat="40.92414262934914" lon="9.28199299736156"><ele>328.8</ele><time>2026-05-01T10:31:44Z</time></trkpt><trkpt lat="40.924042239377584" lon="9.282011347364522"><ele>329.4</ele><time>2026-05-01T10:31:45Z</time></trkpt><trkpt lat="40.92393294893851" lon="9.282051249754014"><ele>330.0</ele><time>2026-05-01T10:31:46Z</time></trkpt><trkpt lat="40.92382484940291" lon="9.282083141511553"><ele>330.0</ele><time>2026-05-01T10:31:47Z</time></trkpt><trkpt lat="40.9237114698414" lon="9.282136702504873"><ele>330.0</ele><time>2026-05-01T10:31:48Z</time></trkpt><trkpt lat="40.92362635827565" lon="9.282159703104856"><ele>330.0</ele><time>2026-05-01T10:31:49Z</time></trkpt><trkpt lat="40.92352784335848" lon="9.282165951563249"><ele>330.0</ele><time>2026-05-01T10:31:50Z</time></trkpt><trkpt lat="40.923406795862626" lon="9.282172762562913"><ele>330.0</ele><time>2026-05-01T10:31:51Z</time></trkpt><trkpt lat="40.92328019999294" lon="9.282175064755847"><ele>329.2</ele><time>2026-05-01T10:31:52Z</time></trkpt><trkpt lat="40.92317611416352" lon="9.28217127045954"><ele>328.4</ele><time>2026-05-01T10:31:53Z</time></trkpt><trkpt lat="40.92307811214432" lon="9.282151426008692"><ele>327.6</ele><time>2026-05-01T10:31:55Z</time></trkpt><trkpt lat="40.923008391679915" lon="9.282082077632078"><ele>326.8</ele><time>2026-05-01T10:31:56Z</time></trkpt><trkpt lat="40.92288869753894" lon="9.282009189754886"><ele>326.0</ele><time>2026-05-01T10:31:57Z</time></trkpt><trkpt lat="40.92277491190395" lon="9.281948228621696"><ele>326.0</ele><time>2026-05-01T10:31:58Z</time></trkpt><trkpt lat="40.922683893526006" lon="9.28188631679288"><ele>326.0</ele><time>2026-05-01T10:31:59Z</time></trkpt><trkpt lat="40.922591548179206" lon="9.281851399774068"><ele>326.0</ele><time>2026-05-01T10:32:00Z</time></trkpt><trkpt lat="40.922473504711036" lon="9.281806993189289"><ele>326.0</ele><time>2026-05-01T10:32:01Z</time></trkpt><trkpt lat="40.922357529909895" lon="9.281762880276416"><ele>326.0</ele><time>2026-05-01T10:32:02Z</time></trkpt><trkpt lat="40.92224116847042" lon="9.281730346193475"><ele>326.25</ele><time>2026-05-01T10:32:03Z</time></trkpt><trkpt lat="40.922107634319836" lon="9.281717592158067"><ele>326.5</ele><time>2026-05-01T10:32:04Z</time></trkpt><trkpt lat="40.92197293011625" lon="9.28170649465175"><ele>326.75</ele><time>2026-05-01T10:32:05Z</time></trkpt><trkpt lat="40.92184915784972" lon="9.281648748991524"><ele>327.0</ele><time>2026-05-01T10:32:06Z</time></trkpt><trkpt lat="40.92173074826734" lon="9.281607665017129"><ele>328.20000000000005</ele><time>2026-05-01T10:32:07Z</time></trkpt><trkpt lat="40.92162077639558" lon="9.281569508407099"><ele>329.4</ele><time>2026-05-01T10:32:08Z</time></trkpt><trkpt lat="40.921511050542364" lon="9.28153143715515"><ele>330.6</ele><time>2026-05-01T10:32:09Z</time></trkpt><trkpt lat="40.92140480098062" lon="9.281519729930745"><ele>331.79999999999995</ele><time>2026-05-01T10:32:10Z</time></trkpt><trkpt lat="40.921300121199316" lon="9.281480615410054"><ele>333.0</ele><time>2026-05-01T10:32:11Z</time></trkpt><trkpt lat="40.921198614569654" lon="9.281444446367995"><ele>333.75</ele><time>2026-05-01T10:32:12Z</time></trkpt><trkpt lat="40.921092902141204" lon="9.28142261798944"><ele>334.5</ele><time>2026-05-01T10:32:13Z</time></trkpt><trkpt lat="40.92097592301493" lon="9.281419097670845"><ele>335.25</ele><time>2026-05-01T10:32:14Z</time></trkpt><trkpt lat="40.92086399976045" lon="9.28138247478731"><ele>336.0</ele><time>2026-05-01T10:32:15Z</time></trkpt><trkpt lat="40.920752911857726" lon="9.281313743924391"><ele>336.0</ele><time>2026-05-01T10:32:16Z</time></trkpt><trkpt lat="40.92065075150968" lon="9.281216818065387"><ele>336.0</ele><time>2026-05-01T10:32:17Z</time></trkpt><trkpt lat="40.920543267523385" lon="9.281098348703123"><ele>336.0</ele><time>2026-05-01T10:32:18Z</time></trkpt><trkpt lat="40.920433019233826" lon="9.280980939724456"><ele>336.0</ele><time>2026-05-01T10:32:19Z</time></trkpt><trkpt lat="40.92035011661577" lon="9.280907041597656"><ele>336.0</ele><time>2026-05-01T10:32:20Z</time></trkpt><trkpt lat="40.920280220726376" lon="9.280880041587006"><ele>336.0</ele><time>2026-05-01T10:32:21Z</time></trkpt><trkpt lat="40.920164042503345" lon="9.280938226501695"><ele>336.0</ele><time>2026-05-01T10:32:23Z</time></trkpt><trkpt lat="40.92007602341205" lon="9.280987822502697"><ele>336.0</ele><time>2026-05-01T10:32:24Z</time></trkpt><trkpt lat="40.91999278639833" lon="9.281016998277508"><ele>336.0</ele><time>2026-05-01T10:32:25Z</time></trkpt><trkpt lat="40.91990587349743" lon="9.281009095841268"><ele>339.0</ele><time>2026-05-01T10:32:26Z</time></trkpt><trkpt lat="40.91981236905565" lon="9.280998846190716"><ele>342.0</ele><time>2026-05-01T10:32:27Z</time></trkpt><trkpt lat="40.91968504279019" lon="9.280992220164888"><ele>345.0</ele><time>2026-05-01T10:32:28Z</time></trkpt><trkpt lat="40.91955107631048" lon="9.281004979852199"><ele>348.0</ele><time>2026-05-01T10:32:29Z</time></trkpt><trkpt lat="40.91947014378974" lon="9.281032091228868"><ele>351.0</ele><time>2026-05-01T10:32:30Z</time></trkpt><trkpt lat="40.919377537889375" lon="9.281030340759848"><ele>351.0</ele><time>2026-05-01T10:32:32Z</time></trkpt><trkpt lat="40.91931723625932" lon="9.281079222630696"><ele>351.0</ele><time>2026-05-01T10:32:36Z</time></trkpt><trkpt lat="40.91922535131355" lon="9.281108842188083"><ele>351.0</ele><time>2026-05-01T10:32:38Z</time></trkpt><trkpt lat="40.919184247903075" lon="9.280936644320084"><ele>351.0</ele><time>2026-05-01T10:32:39Z</time></trkpt><trkpt lat="40.919122484304076" lon="9.28086839044277"><ele>351.0</ele><time>2026-05-01T10:32:41Z</time></trkpt><trkpt lat="40.919053876617134" lon="9.28079460609321"><ele>351.6</ele><time>2026-05-01T10:32:44Z</time></trkpt><trkpt lat="40.91899473140184" lon="9.280731516649865"><ele>352.20000000000005</ele><time>2026-05-01T10:32:47Z</time></trkpt><trkpt lat="40.918901881739004" lon="9.28066198871366"><ele>352.79999999999995</ele><time>2026-05-01T10:32:49Z</time></trkpt><trkpt lat="40.91884048486564" lon="9.280623887551897"><ele>353.4</ele><time>2026-05-01T10:32:50Z</time></trkpt><trkpt lat="40.91875428775297" lon="9.280598894650428"><ele>354.0</ele><time>2026-05-01T10:32:52Z</time></trkpt><trkpt lat="40.91887806215048" lon="9.28064653217219"><ele>355.25</ele><time>2026-05-01T10:33:02Z</time></trkpt><trkpt lat="40.91897779463996" lon="9.28079107032608"><ele>356.5</ele><time>2026-05-01T10:33:03Z</time></trkpt><trkpt lat="40.91907280548371" lon="9.280876301179068"><ele>357.75</ele><time>2026-05-01T10:33:04Z</time></trkpt><trkpt lat="40.91914843478946" lon="9.280965030876681"><ele>359.0</ele><time>2026-05-01T10:33:05Z</time></trkpt><trkpt lat="40.91921890730475" lon="9.281044099183497"><ele>359.0</ele><time>2026-05-01T10:33:06Z</time></trkpt><trkpt lat="40.91930053748445" lon="9.281128209333453"><ele>359.0</ele><time>2026-05-01T10:33:08Z</time></trkpt><trkpt lat="40.91922233711708" lon="9.281038796861726"><ele>359.0</ele><time>2026-05-01T10:33:41Z</time></trkpt><trkpt lat="40.91913373880199" lon="9.280880826435505"><ele>359.0</ele><time>2026-05-01T10:33:42Z</time></trkpt><trkpt lat="40.919049496240746" lon="9.280789933660452"><ele>359.0</ele><time>2026-05-01T10:33:43Z</time></trkpt><trkpt lat="40.91893523946651" lon="9.280710266678648"><ele>359.0</ele><time>2026-05-01T10:33:44Z</time></trkpt><trkpt lat="40.91881985180415" lon="9.280627407871332"><ele>359.0</ele><time>2026-05-01T10:33:45Z</time></trkpt><trkpt lat="40.91871498223948" lon="9.28056212380652"><ele>359.0</ele><time>2026-05-01T10:33:46Z</time></trkpt><trkpt lat="40.91861033810037" lon="9.280515264107166"><ele>357.75</ele><time>2026-05-01T10:33:47Z</time></trkpt><trkpt lat="40.91850458204781" lon="9.280470100386655"><ele>356.5</ele><time>2026-05-01T10:33:48Z</time></trkpt><trkpt lat="40.91839798757963" lon="9.280423163601931"><ele>355.25</ele><time>2026-05-01T10:33:49Z</time></trkpt><trkpt lat="40.91828911333962" lon="9.28037193527278"><ele>354.0</ele><time>2026-05-01T10:33:50Z</time></trkpt><trkpt lat="40.91818011214594" lon="9.28032193423309"><ele>353.75</ele><time>2026-05-01T10:33:51Z</time></trkpt><trkpt lat="40.91807230740843" lon="9.280272070301432"><ele>353.5</ele><time>2026-05-01T10:33:52Z</time></trkpt><trkpt lat="40.917963379436465" lon="9.280220069995599"><ele>353.25</ele><time>2026-05-01T10:33:53Z</time></trkpt><trkpt lat="40.91785034292778" lon="9.280164076233385"><ele>353.0</ele><time>2026-05-01T10:33:54Z</time></trkpt><trkpt lat="40.91774044292604" lon="9.28010394863826"><ele>353.0</ele><time>2026-05-01T10:33:55Z</time></trkpt><trkpt lat="40.917633087900825" lon="9.280041725931257"><ele>353.0</ele><time>2026-05-01T10:33:56Z</time></trkpt><trkpt lat="40.917535283942264" lon="9.279967463408253"><ele>353.0</ele><time>2026-05-01T10:33:57Z</time></trkpt><trkpt lat="40.91745906806903" lon="9.279863388695365"><ele>353.0</ele><time>2026-05-01T10:33:58Z</time></trkpt><trkpt lat="40.917388559537386" lon="9.27974349989944"><ele>353.75</ele><time>2026-05-01T10:33:59Z</time></trkpt><trkpt lat="40.91731348651393" lon="9.27962319247413"><ele>354.5</ele><time>2026-05-01T10:34:00Z</time></trkpt><trkpt lat="40.91720874305843" lon="9.279530907320856"><ele>355.25</ele><time>2026-05-01T10:34:01Z</time></trkpt><trkpt lat="40.91707380626265" lon="9.27951283048835"><ele>356.0</ele><time>2026-05-01T10:34:02Z</time></trkpt><trkpt lat="40.91693710564461" lon="9.279470731381457"><ele>356.0</ele><time>2026-05-01T10:34:03Z</time></trkpt><trkpt lat="40.91678728435104" lon="9.279459138972985"><ele>356.0</ele><time>2026-05-01T10:34:04Z</time></trkpt><trkpt lat="40.916640795479864" lon="9.279528833384978"><ele>356.0</ele><time>2026-05-01T10:34:05Z</time></trkpt><trkpt lat="40.91650689008248" lon="9.279527439051925"><ele>356.0</ele><time>2026-05-01T10:34:06Z</time></trkpt><trkpt lat="40.916408205284306" lon="9.279483404369268"><ele>358.75</ele><time>2026-05-01T10:34:07Z</time></trkpt><trkpt lat="40.916319819836914" lon="9.279389978691158"><ele>361.5</ele><time>2026-05-01T10:34:08Z</time></trkpt><trkpt lat="40.916249303401" lon="9.279232661114216"><ele>364.25</ele><time>2026-05-01T10:34:09Z</time></trkpt><trkpt lat="40.91615019975286" lon="9.27911576121709"><ele>367.0</ele><time>2026-05-01T10:34:10Z</time></trkpt><trkpt lat="40.916026059879194" lon="9.279063243936402"><ele>367.0</ele><time>2026-05-01T10:34:11Z</time></trkpt><trkpt lat="40.91590624445457" lon="9.279046393477815"><ele>367.0</ele><time>2026-05-01T10:34:12Z</time></trkpt><trkpt lat="40.915772987034565" lon="9.279076710734444"><ele>367.0</ele><time>2026-05-01T10:34:13Z</time></trkpt><trkpt lat="40.91563321255553" lon="9.279078430760109"><ele>367.0</ele><time>2026-05-01T10:34:14Z</time></trkpt><trkpt lat="40.91551918267686" lon="9.279073236854192"><ele>369.25</ele><time>2026-05-01T10:34:15Z</time></trkpt><trkpt lat="40.91542191988575" lon="9.279009541271481"><ele>371.5</ele><time>2026-05-01T10:34:16Z</time></trkpt><trkpt lat="40.915336268111204" lon="9.278914221135144"><ele>373.75</ele><time>2026-05-01T10:34:17Z</time></trkpt><trkpt lat="40.91523758277493" lon="9.278802690836875"><ele>376.0</ele><time>2026-05-01T10:34:18Z</time></trkpt><trkpt lat="40.91512452768096" lon="9.278676026978822"><ele>376.25</ele><time>2026-05-01T10:34:19Z</time></trkpt><trkpt lat="40.91501491924785" lon="9.278541076944068"><ele>376.5</ele><time>2026-05-01T10:34:20Z</time></trkpt><trkpt lat="40.914911821149744" lon="9.278395435505516"><ele>376.75</ele><time>2026-05-01T10:34:21Z</time></trkpt><trkpt lat="40.91482149408473" lon="9.278258491788838"><ele>377.0</ele><time>2026-05-01T10:34:22Z</time></trkpt><trkpt lat="40.91474902415804" lon="9.278134756240828"><ele>376.20000000000005</ele><time>2026-05-01T10:34:23Z</time></trkpt><trkpt lat="40.914691255683834" lon="9.27802308195746"><ele>375.4</ele><time>2026-05-01T10:34:24Z</time></trkpt><trkpt lat="40.914631609511964" lon="9.277922980471493"><ele>374.6</ele><time>2026-05-01T10:34:25Z</time></trkpt><trkpt lat="40.91457881077579" lon="9.27784118517515"><ele>373.79999999999995</ele><time>2026-05-01T10:34:26Z</time></trkpt><trkpt lat="40.91452937374247" lon="9.277771405735836"><ele>373.0</ele><time>2026-05-01T10:34:27Z</time></trkpt><trkpt lat="40.914446410378424" lon="9.27765897275752"><ele>373.0</ele><time>2026-05-01T10:34:29Z</time></trkpt><trkpt lat="40.91436273998748" lon="9.277548823753492"><ele>373.0</ele><time>2026-05-01T10:34:31Z</time></trkpt><trkpt lat="40.91444234940234" lon="9.277480134104838"><ele>373.0</ele><time>2026-05-01T10:34:34Z</time></trkpt><trkpt lat="40.91454440226263" lon="9.277496681095593"><ele>373.0</ele><time>2026-05-01T10:34:36Z</time></trkpt><trkpt lat="40.91461182498517" lon="9.277518059558737"><ele>373.0</ele><time>2026-05-01T10:34:37Z</time></trkpt><trkpt lat="40.91468369939308" lon="9.27751905126011"><ele>373.0</ele><time>2026-05-01T10:34:38Z</time></trkpt><trkpt lat="40.91475946243787" lon="9.277492341905017"><ele>373.0</ele><time>2026-05-01T10:34:39Z</time></trkpt><trkpt lat="40.91483992335262" lon="9.277428551272855"><ele>373.0</ele><time>2026-05-01T10:34:40Z</time></trkpt><trkpt lat="40.91494147424044" lon="9.277359631911892"><ele>373.0</ele><time>2026-05-01T10:34:41Z</time></trkpt><trkpt lat="40.91503366050573" lon="9.277307137013691"><ele>373.0</ele><time>2026-05-01T10:34:42Z</time></trkpt><trkpt lat="40.91513205932734" lon="9.277273740390854"><ele>371.8333333333333</ele><time>2026-05-01T10:34:43Z</time></trkpt><trkpt lat="40.91520328108066" lon="9.277261925347343"><ele>370.66666666666663</ele><time>2026-05-01T10:34:44Z</time></trkpt><trkpt lat="40.91528129197749" lon="9.27723874898135"><ele>369.5</ele><time>2026-05-01T10:34:46Z</time></trkpt><trkpt lat="40.91534320785894" lon="9.277149514163018"><ele>368.3333333333333</ele><time>2026-05-01T10:34:56Z</time></trkpt><trkpt lat="40.91526867215648" lon="9.277041331704234"><ele>367.1666666666667</ele><time>2026-05-01T10:34:57Z</time></trkpt><trkpt lat="40.91521802912007" lon="9.276979133205685"><ele>366.0</ele><time>2026-05-01T10:34:59Z</time></trkpt><trkpt lat="40.9151382791213" lon="9.276880304875354"><ele>366.0</ele><time>2026-05-01T10:35:18Z</time></trkpt><trkpt lat="40.91507392623798" lon="9.276803313215805"><ele>366.0</ele><time>2026-05-01T10:35:19Z</time></trkpt><trkpt lat="40.91500346852114" lon="9.276719807394493"><ele>366.0</ele><time>2026-05-01T10:35:20Z</time></trkpt><trkpt lat="40.91493004063991" lon="9.2766338620481"><ele>366.0</ele><time>2026-05-01T10:35:21Z</time></trkpt><trkpt lat="40.9148631684519" lon="9.276559507232585"><ele>366.0</ele><time>2026-05-01T10:35:22Z</time></trkpt><trkpt lat="40.91480228778487" lon="9.276492196135013"><ele>366.0</ele><time>2026-05-01T10:35:23Z</time></trkpt><trkpt lat="40.914743277769304" lon="9.276425816283286"><ele>366.3333333333333</ele><time>2026-05-01T10:35:24Z</time></trkpt><trkpt lat="40.914685463607725" lon="9.276357870991507"><ele>366.6666666666667</ele><time>2026-05-01T10:35:25Z</time></trkpt><trkpt lat="40.914638542197544" lon="9.276294841698498"><ele>367.0</ele><time>2026-05-01T10:35:26Z</time></trkpt><trkpt lat="40.91459446406809" lon="9.27622689197704"><ele>367.33333333333337</ele><time>2026-05-01T10:35:27Z</time></trkpt><trkpt lat="40.91462877266712" lon="9.276097889038114"><ele>367.6666666666667</ele><time>2026-05-01T10:35:28Z</time></trkpt><trkpt lat="40.91461674947899" lon="9.27600891698223"><ele>368.0</ele><time>2026-05-01T10:35:29Z</time></trkpt><trkpt lat="40.914514251005556" lon="9.27593720616514"><ele>368.0</ele><time>2026-05-01T10:35:31Z</time></trkpt><trkpt lat="40.91445617735851" lon="9.275889123468088"><ele>368.0</ele><time>2026-05-01T10:35:32Z</time></trkpt><trkpt lat="40.91438936078005" lon="9.275819770720856"><ele>368.0</ele><time>2026-05-01T10:35:33Z</time></trkpt><trkpt lat="40.914303034120756" lon="9.275694881681117"><ele>368.0</ele><time>2026-05-01T10:35:34Z</time></trkpt><trkpt lat="40.91425430030148" lon="9.275596648643265"><ele>368.0</ele><time>2026-05-01T10:35:35Z</time></trkpt><trkpt lat="40.91419557629086" lon="9.275482790045857"><ele>369.2</ele><time>2026-05-01T10:35:36Z</time></trkpt><trkpt lat="40.91412344154248" lon="9.275382481323506"><ele>370.4</ele><time>2026-05-01T10:35:37Z</time></trkpt><trkpt lat="40.914050004069814" lon="9.275284618718866"><ele>371.59999999999997</ele><time>2026-05-01T10:35:38Z</time></trkpt><trkpt lat="40.913976354606255" lon="9.27518208204963"><ele>372.79999999999995</ele><time>2026-05-01T10:35:39Z</time></trkpt><trkpt lat="40.9139104768775" lon="9.275081770359414"><ele>374.0</ele><time>2026-05-01T10:35:40Z</time></trkpt><trkpt lat="40.913849047599" lon="9.274986228641321"><ele>374.0</ele><time>2026-05-01T10:35:41Z</time></trkpt><trkpt lat="40.91377707691755" lon="9.27487453192602"><ele>374.0</ele><time>2026-05-01T10:35:42Z</time></trkpt><trkpt lat="40.913708885731594" lon="9.274763262414407"><ele>374.0</ele><time>2026-05-01T10:35:43Z</time></trkpt><trkpt lat="40.9136686215927" lon="9.274666441495802"><ele>374.0</ele><time>2026-05-01T10:35:44Z</time></trkpt><trkpt lat="40.913648917914365" lon="9.274549916725917"><ele>374.0</ele><time>2026-05-01T10:35:45Z</time></trkpt><trkpt lat="40.91359320349084" lon="9.274411084205175"><ele>374.6</ele><time>2026-05-01T10:35:46Z</time></trkpt><trkpt lat="40.91350778840563" lon="9.274298877537513"><ele>375.2</ele><time>2026-05-01T10:35:47Z</time></trkpt><trkpt lat="40.91342606624918" lon="9.274201966427073"><ele>375.8</ele><time>2026-05-01T10:35:48Z</time></trkpt><trkpt lat="40.91334985405254" lon="9.274104369170365"><ele>376.40000000000003</ele><time>2026-05-01T10:35:49Z</time></trkpt><trkpt lat="40.913282146403006" lon="9.274011804991785"><ele>377.0</ele><time>2026-05-01T10:35:50Z</time></trkpt><trkpt lat="40.91322677151632" lon="9.273924241812264"><ele>380.75</ele><time>2026-05-01T10:35:51Z</time></trkpt><trkpt lat="40.91315741897925" lon="9.27381566495316"><ele>384.5</ele><time>2026-05-01T10:35:52Z</time></trkpt><trkpt lat="40.9130758724227" lon="9.273705318400644"><ele>388.25</ele><time>2026-05-01T10:35:53Z</time></trkpt><trkpt lat="40.912989004928434" lon="9.273580977064093"><ele>392.0</ele><time>2026-05-01T10:35:54Z</time></trkpt><trkpt lat="40.9129063573431" lon="9.273447173218738"><ele>392.0</ele><time>2026-05-01T10:35:55Z</time></trkpt><trkpt lat="40.912822424512456" lon="9.27330884192849"><ele>392.0</ele><time>2026-05-01T10:35:56Z</time></trkpt><trkpt lat="40.91274069067484" lon="9.273169467287218"><ele>392.0</ele><time>2026-05-01T10:35:57Z</time></trkpt><trkpt lat="40.91265996999553" lon="9.273038081543337"><ele>392.0</ele><time>2026-05-01T10:35:58Z</time></trkpt><trkpt lat="40.91257193500763" lon="9.272903730350373"><ele>398.5</ele><time>2026-05-01T10:35:59Z</time></trkpt><trkpt lat="40.91247845975729" lon="9.272753414683933"><ele>405.0</ele><time>2026-05-01T10:36:00Z</time></trkpt><trkpt lat="40.91239376516205" lon="9.272611978274368"><ele>411.5</ele><time>2026-05-01T10:36:01Z</time></trkpt><trkpt lat="40.91231715750362" lon="9.272494211759787"><ele>418.0</ele><time>2026-05-01T10:36:02Z</time></trkpt><trkpt lat="40.912221016607205" lon="9.272347655197681"><ele>419.5</ele><time>2026-05-01T10:36:03Z</time></trkpt><trkpt lat="40.912124781400536" lon="9.272202555490505"><ele>421.0</ele><time>2026-05-01T10:36:04Z</time></trkpt><trkpt lat="40.912039436495995" lon="9.272071147416806"><ele>422.5</ele><time>2026-05-01T10:36:05Z</time></trkpt><trkpt lat="40.911972385141596" lon="9.271962472373176"><ele>424.0</ele><time>2026-05-01T10:36:06Z</time></trkpt><trkpt lat="40.911897289676155" lon="9.271862980071827"><ele>424.00000000000006</ele><time>2026-05-01T10:36:07Z</time></trkpt><trkpt lat="40.91183919984456" lon="9.27173076178325"><ele>424.0</ele><time>2026-05-01T10:36:08Z</time></trkpt><trkpt lat="40.91176050740057" lon="9.271642663875113"><ele>424.0</ele><time>2026-05-01T10:36:09Z</time></trkpt><trkpt lat="40.91172985372591" lon="9.271552167595395"><ele>424.0</ele><time>2026-05-01T10:36:10Z</time></trkpt><trkpt lat="40.91171726237264" lon="9.27145276021776"><ele>424.00000000000006</ele><time>2026-05-01T10:36:11Z</time></trkpt><trkpt lat="40.911730239607365" lon="9.271348836392015"><ele>424.0</ele><time>2026-05-01T10:36:12Z</time></trkpt><trkpt lat="40.91174963232754" lon="9.27121808635403"><ele>425.0</ele><time>2026-05-01T10:36:13Z</time></trkpt><trkpt lat="40.911742307163934" lon="9.271075668872776"><ele>426.0</ele><time>2026-05-01T10:36:14Z</time></trkpt><trkpt lat="40.91176067747557" lon="9.270936510713385"><ele>427.0</ele><time>2026-05-01T10:36:15Z</time></trkpt><trkpt lat="40.91174434824867" lon="9.270784290730802"><ele>428.0</ele><time>2026-05-01T10:36:16Z</time></trkpt><trkpt lat="40.91174113754667" lon="9.270613864960026"><ele>430.75</ele><time>2026-05-01T10:36:17Z</time></trkpt><trkpt lat="40.91174711429121" lon="9.270456415173017"><ele>433.5</ele><time>2026-05-01T10:36:18Z</time></trkpt><trkpt lat="40.91179788035911" lon="9.270304599789808"><ele>436.25</ele><time>2026-05-01T10:36:19Z</time></trkpt><trkpt lat="40.91183540784255" lon="9.270131132775697"><ele>439.0</ele><time>2026-05-01T10:36:20Z</time></trkpt><trkpt lat="40.911838356097334" lon="9.269961810458204"><ele>439.0</ele><time>2026-05-01T10:36:21Z</time></trkpt><trkpt lat="40.91184454845661" lon="9.269813664650695"><ele>439.0</ele><time>2026-05-01T10:36:22Z</time></trkpt><trkpt lat="40.91188832097642" lon="9.269676472114513"><ele>439.0</ele><time>2026-05-01T10:36:23Z</time></trkpt><trkpt lat="40.911904491942494" lon="9.269517237265426"><ele>439.0</ele><time>2026-05-01T10:36:24Z</time></trkpt><trkpt lat="40.91193258780936" lon="9.269347354128461"><ele>441.5</ele><time>2026-05-01T10:36:25Z</time></trkpt><trkpt lat="40.91194676616607" lon="9.269188325174165"><ele>444.0</ele><time>2026-05-01T10:36:26Z</time></trkpt><trkpt lat="40.9119943090294" lon="9.269036510360392"><ele>446.5</ele><time>2026-05-01T10:36:27Z</time></trkpt><trkpt lat="40.912038453386316" lon="9.268870802950577"><ele>449.0</ele><time>2026-05-01T10:36:28Z</time></trkpt><trkpt lat="40.91206580089322" lon="9.268696767109859"><ele>453.75</ele><time>2026-05-01T10:36:29Z</time></trkpt><trkpt lat="40.912120595678765" lon="9.2685137245847"><ele>458.5</ele><time>2026-05-01T10:36:30Z</time></trkpt><trkpt lat="40.91214694126126" lon="9.268319597194612"><ele>463.25</ele><time>2026-05-01T10:36:31Z</time></trkpt><trkpt lat="40.9121494281788" lon="9.268154126709323"><ele>468.0</ele><time>2026-05-01T10:36:32Z</time></trkpt><trkpt lat="40.91218069138671" lon="9.2680178388194"><ele>472.4</ele><time>2026-05-01T10:36:33Z</time></trkpt><trkpt lat="40.912243901212946" lon="9.267904052188157"><ele>476.79999999999995</ele><time>2026-05-01T10:36:34Z</time></trkpt><trkpt lat="40.912296585831776" lon="9.26779853931264"><ele>481.2</ele><time>2026-05-01T10:36:35Z</time></trkpt><trkpt lat="40.91234757259547" lon="9.267672116053163"><ele>485.6</ele><time>2026-05-01T10:36:36Z</time></trkpt><trkpt lat="40.91241349714418" lon="9.267551323103028"><ele>490.0</ele><time>2026-05-01T10:36:37Z</time></trkpt><trkpt lat="40.91248846805134" lon="9.267420690616897"><ele>490.0</ele><time>2026-05-01T10:36:38Z</time></trkpt><trkpt lat="40.91255398007098" lon="9.267264503697865"><ele>490.0</ele><time>2026-05-01T10:36:39Z</time></trkpt><trkpt lat="40.91262421322479" lon="9.267124098613428"><ele>490.0</ele><time>2026-05-01T10:36:40Z</time></trkpt><trkpt lat="40.91269240914934" lon="9.267001611196118"><ele>490.0</ele><time>2026-05-01T10:36:41Z</time></trkpt><trkpt lat="40.912773129742114" lon="9.266933573016317"><ele>490.00000000000006</ele><time>2026-05-01T10:36:42Z</time></trkpt><trkpt lat="40.91282688135314" lon="9.26684699602969"><ele>490.0</ele><time>2026-05-01T10:36:43Z</time></trkpt><trkpt lat="40.912872129738396" lon="9.26677366928461"><ele>490.0</ele><time>2026-05-01T10:36:44Z</time></trkpt><trkpt lat="40.91289665426902" lon="9.26668244793675"><ele>490.0</ele><time>2026-05-01T10:36:45Z</time></trkpt><trkpt lat="40.91290447787567" lon="9.266582113176868"><ele>490.00000000000006</ele><time>2026-05-01T10:36:46Z</time></trkpt><trkpt lat="40.912921705104246" lon="9.266480879689095"><ele>490.0</ele><time>2026-05-01T10:36:47Z</time></trkpt><trkpt lat="40.91291401433812" lon="9.266385270536553"><ele>490.8</ele><time>2026-05-01T10:36:48Z</time></trkpt><trkpt lat="40.912867477851435" lon="9.266247325908335"><ele>491.6</ele><time>2026-05-01T10:36:49Z</time></trkpt><trkpt lat="40.91280102562756" lon="9.266102614386597"><ele>492.4</ele><time>2026-05-01T10:36:50Z</time></trkpt><trkpt lat="40.91276145133827" lon="9.265982736318177"><ele>493.2</ele><time>2026-05-01T10:36:51Z</time></trkpt><trkpt lat="40.912753775091375" lon="9.26587151263783"><ele>494.0</ele><time>2026-05-01T10:36:52Z</time></trkpt><trkpt lat="40.91273322762922" lon="9.265741488679376"><ele>495.0</ele><time>2026-05-01T10:36:53Z</time></trkpt><trkpt lat="40.91270573030282" lon="9.265606840903988"><ele>496.0</ele><time>2026-05-01T10:36:54Z</time></trkpt><trkpt lat="40.912671827000764" lon="9.265520589051503"><ele>497.0</ele><time>2026-05-01T10:36:55Z</time></trkpt><trkpt lat="40.9126191895592" lon="9.265456001138666"><ele>498.0</ele><time>2026-05-01T10:36:56Z</time></trkpt><trkpt lat="40.9125345289608" lon="9.265377649961158"><ele>499.0</ele><time>2026-05-01T10:36:57Z</time></trkpt><trkpt lat="40.91243223829369" lon="9.265267423701648"><ele>501.5</ele><time>2026-05-01T10:36:58Z</time></trkpt><trkpt lat="40.912337773403536" lon="9.265137210364037"><ele>504.0</ele><time>2026-05-01T10:36:59Z</time></trkpt><trkpt lat="40.9122462535434" lon="9.265012496969147"><ele>506.5</ele><time>2026-05-01T10:37:00Z</time></trkpt><trkpt lat="40.91214185091998" lon="9.26490738292259"><ele>509.0</ele><time>2026-05-01T10:37:01Z</time></trkpt><trkpt lat="40.9120237704005" lon="9.264845733515736"><ele>508.79999999999995</ele><time>2026-05-01T10:37:02Z</time></trkpt><trkpt lat="40.911958119863684" lon="9.264731769161594"><ele>508.59999999999997</ele><time>2026-05-01T10:37:03Z</time></trkpt><trkpt lat="40.91190867853933" lon="9.264603560580102"><ele>508.4</ele><time>2026-05-01T10:37:04Z</time></trkpt><trkpt lat="40.9118489516773" lon="9.264536595617459"><ele>508.2</ele><time>2026-05-01T10:37:05Z</time></trkpt><trkpt lat="40.91176736553249" lon="9.264483479437425"><ele>508.0</ele><time>2026-05-01T10:37:06Z</time></trkpt><trkpt lat="40.9116647194778" lon="9.26440249011982"><ele>510.25</ele><time>2026-05-01T10:37:07Z</time></trkpt><trkpt lat="40.91159495113338" lon="9.264329144847329"><ele>512.5</ele><time>2026-05-01T10:37:08Z</time></trkpt><trkpt lat="40.91149988567027" lon="9.264226738399021"><ele>514.75</ele><time>2026-05-01T10:37:09Z</time></trkpt><trkpt lat="40.91138492580304" lon="9.26411113880788"><ele>517.0</ele><time>2026-05-01T10:37:10Z</time></trkpt><trkpt lat="40.91129869300078" lon="9.2640293828323"><ele>517.0</ele><time>2026-05-01T10:37:11Z</time></trkpt><trkpt lat="40.91121975009222" lon="9.263980851772777"><ele>517.0</ele><time>2026-05-01T10:37:12Z</time></trkpt><trkpt lat="40.91115679643128" lon="9.26392196318227"><ele>517.0</ele><time>2026-05-01T10:37:13Z</time></trkpt><trkpt lat="40.91106610685863" lon="9.263905913076005"><ele>517.0</ele><time>2026-05-01T10:37:14Z</time></trkpt><trkpt lat="40.910974610979444" lon="9.263898062721257"><ele>517.0</ele><time>2026-05-01T10:37:15Z</time></trkpt><trkpt lat="40.91088371957529" lon="9.263883263431017"><ele>517.0</ele><time>2026-05-01T10:37:16Z</time></trkpt><trkpt lat="40.91076624518808" lon="9.26383105434046"><ele>520.2</ele><time>2026-05-01T10:37:17Z</time></trkpt><trkpt lat="40.91065742072776" lon="9.263795695219635"><ele>523.4000000000001</ele><time>2026-05-01T10:37:18Z</time></trkpt><trkpt lat="40.91059311173301" lon="9.263730871925643"><ele>526.5999999999999</ele><time>2026-05-01T10:37:19Z</time></trkpt><trkpt lat="40.91055157732925" lon="9.263603183134807"><ele>529.8</ele><time>2026-05-01T10:37:20Z</time></trkpt><trkpt lat="40.91045848924183" lon="9.263479727730765"><ele>533.0</ele><time>2026-05-01T10:37:21Z</time></trkpt><trkpt lat="40.91035152517148" lon="9.263354584153875"><ele>533.0</ele><time>2026-05-01T10:37:22Z</time></trkpt><trkpt lat="40.91026504666991" lon="9.263227231511074"><ele>533.0</ele><time>2026-05-01T10:37:23Z</time></trkpt><trkpt lat="40.91019666751094" lon="9.263141855168634"><ele>533.0</ele><time>2026-05-01T10:37:24Z</time></trkpt><trkpt lat="40.91011135077554" lon="9.263105240065656"><ele>533.0</ele><time>2026-05-01T10:37:25Z</time></trkpt><trkpt lat="40.910000508731834" lon="9.263093883267697"><ele>533.0</ele><time>2026-05-01T10:37:26Z</time></trkpt><trkpt lat="40.90988560043151" lon="9.2631594635142"><ele>535.8</ele><time>2026-05-01T10:37:27Z</time></trkpt><trkpt lat="40.90979535620641" lon="9.263211838107123"><ele>538.5999999999999</ele><time>2026-05-01T10:37:28Z</time></trkpt><trkpt lat="40.909732099091904" lon="9.263219971485158"><ele>541.4000000000001</ele><time>2026-05-01T10:37:29Z</time></trkpt><trkpt lat="40.90969606667047" lon="9.263080687460995"><ele>544.2</ele><time>2026-05-01T10:37:32Z</time></trkpt><trkpt lat="40.909711967836365" lon="9.262957470848592"><ele>547.0</ele><time>2026-05-01T10:37:33Z</time></trkpt><trkpt lat="40.90972265224862" lon="9.262820757913612"><ele>550.4</ele><time>2026-05-01T10:37:34Z</time></trkpt><trkpt lat="40.909688703989794" lon="9.262734972501026"><ele>553.8000000000001</ele><time>2026-05-01T10:37:35Z</time></trkpt><trkpt lat="40.90956858464621" lon="9.26272414314419"><ele>557.2</ele><time>2026-05-01T10:37:37Z</time></trkpt><trkpt lat="40.90948546633361" lon="9.26278194358535"><ele>560.6</ele><time>2026-05-01T10:37:38Z</time></trkpt><trkpt lat="40.909387551464334" lon="9.262838932633997"><ele>564.0</ele><time>2026-05-01T10:37:39Z</time></trkpt><trkpt lat="40.90930901820905" lon="9.26283554315563"><ele>564.0</ele><time>2026-05-01T10:37:41Z</time></trkpt><trkpt lat="40.90933509008109" lon="9.262719482896637"><ele>564.0</ele><time>2026-05-01T10:37:43Z</time></trkpt><trkpt lat="40.90938909604422" lon="9.262598252994552"><ele>564.0</ele><time>2026-05-01T10:37:44Z</time></trkpt><trkpt lat="40.90945367851501" lon="9.262465195448387"><ele>564.0</ele><time>2026-05-01T10:37:45Z</time></trkpt><trkpt lat="40.90952771702804" lon="9.262328377449366"><ele>564.0</ele><time>2026-05-01T10:37:46Z</time></trkpt><trkpt lat="40.909615128967765" lon="9.262174848116212"><ele>567.8</ele><time>2026-05-01T10:37:47Z</time></trkpt><trkpt lat="40.90970544482749" lon="9.262031430624033"><ele>571.5999999999999</ele><time>2026-05-01T10:37:48Z</time></trkpt><trkpt lat="40.90976646724625" lon="9.261947597152178"><ele>575.4</ele><time>2026-05-01T10:37:49Z</time></trkpt><trkpt lat="40.90982049151265" lon="9.2618739707215"><ele>579.1999999999999</ele><time>2026-05-01T10:37:51Z</time></trkpt><trkpt lat="40.90976495433003" lon="9.261810565529192"><ele>583.0</ele><time>2026-05-01T10:37:54Z</time></trkpt><trkpt lat="40.909611158031716" lon="9.261858345078059"><ele>583.0</ele><time>2026-05-01T10:37:56Z</time></trkpt><trkpt lat="40.90950714683662" lon="9.261900676333116"><ele>583.0</ele><time>2026-05-01T10:37:57Z</time></trkpt><trkpt lat="40.9093860345361" lon="9.261924570737202"><ele>583.0</ele><time>2026-05-01T10:37:58Z</time></trkpt><trkpt lat="40.90923510449192" lon="9.261954235735859"><ele>583.0</ele><time>2026-05-01T10:37:59Z</time></trkpt><trkpt lat="40.909069318146315" lon="9.261980852615235"><ele>588.4</ele><time>2026-05-01T10:38:00Z</time></trkpt><trkpt lat="40.90893938538953" lon="9.26199587510861"><ele>593.8</ele><time>2026-05-01T10:38:01Z</time></trkpt><trkpt lat="40.90882696798236" lon="9.262029798763834"><ele>599.2</ele><time>2026-05-01T10:38:02Z</time></trkpt><trkpt lat="40.90876135237007" lon="9.262062824395983"><ele>604.6</ele><time>2026-05-01T10:38:03Z</time></trkpt><trkpt lat="40.90870450729384" lon="9.262025510071425"><ele>610.0</ele><time>2026-05-01T10:38:06Z</time></trkpt><trkpt lat="40.90873944030752" lon="9.26194202429727"><ele>610.0</ele><time>2026-05-01T10:38:07Z</time></trkpt><trkpt lat="40.90883649311877" lon="9.261890916719034"><ele>610.0</ele><time>2026-05-01T10:38:08Z</time></trkpt><trkpt lat="40.90892601007073" lon="9.261767735355917"><ele>610.0</ele><time>2026-05-01T10:38:09Z</time></trkpt><trkpt lat="40.90902130631214" lon="9.261642275332306"><ele>610.0</ele><time>2026-05-01T10:38:10Z</time></trkpt><trkpt lat="40.90909575272807" lon="9.261530532340682"><ele>610.0</ele><time>2026-05-01T10:38:11Z</time></trkpt><trkpt lat="40.909140865948906" lon="9.261465376311419"><ele>610.0</ele><time>2026-05-01T10:38:12Z</time></trkpt><trkpt lat="40.90906412078928" lon="9.2613720949231"><ele>610.0</ele><time>2026-05-01T10:38:15Z</time></trkpt><trkpt lat="40.908944411981174" lon="9.261432005137623"><ele>610.0</ele><time>2026-05-01T10:38:17Z</time></trkpt><trkpt lat="40.908853710363545" lon="9.26144947581937"><ele>610.0</ele><time>2026-05-01T10:38:18Z</time></trkpt><trkpt lat="40.90877707332865" lon="9.261417333214048"><ele>615.4</ele><time>2026-05-01T10:38:20Z</time></trkpt><trkpt lat="40.90882097140596" lon="9.261350031373043"><ele>620.8</ele><time>2026-05-01T10:38:22Z</time></trkpt><trkpt lat="40.90891393153054" lon="9.261330967877774"><ele>626.2</ele><time>2026-05-01T10:38:23Z</time></trkpt><trkpt lat="40.909003025429435" lon="9.261246477655952"><ele>631.6</ele><time>2026-05-01T10:38:24Z</time></trkpt><trkpt lat="40.90909516344349" lon="9.261144272534088"><ele>637.0</ele><time>2026-05-01T10:38:25Z</time></trkpt><trkpt lat="40.909136783689625" lon="9.261061850952691"><ele>637.0</ele><time>2026-05-01T10:38:26Z</time></trkpt><trkpt lat="40.90911692572211" lon="9.260964601138086"><ele>637.0</ele><time>2026-05-01T10:38:28Z</time></trkpt><trkpt lat="40.90898446572974" lon="9.260919570855586"><ele>637.0</ele><time>2026-05-01T10:38:30Z</time></trkpt><trkpt lat="40.90888491637077" lon="9.260880666695304"><ele>637.0</ele><time>2026-05-01T10:38:31Z</time></trkpt><trkpt lat="40.90877284624603" lon="9.260848662235661"><ele>637.0</ele><time>2026-05-01T10:38:32Z</time></trkpt><trkpt lat="40.9086813661509" lon="9.260805529210575"><ele>637.0</ele><time>2026-05-01T10:38:34Z</time></trkpt><trkpt lat="40.90874656885937" lon="9.260681532267794"><ele>637.0</ele><time>2026-05-01T10:38:37Z</time></trkpt><trkpt lat="40.90880693600295" lon="9.260581192428607"><ele>637.0</ele><time>2026-05-01T10:38:38Z</time></trkpt><trkpt lat="40.90885151695169" lon="9.260443965133197"><ele>637.0</ele><time>2026-05-01T10:38:39Z</time></trkpt><trkpt lat="40.90885412234081" lon="9.260307583164018"><ele>637.0</ele><time>2026-05-01T10:38:40Z</time></trkpt><trkpt lat="40.90883003696057" lon="9.260164177389104"><ele>640.4000000000001</ele><time>2026-05-01T10:38:41Z</time></trkpt><trkpt lat="40.90879779108168" lon="9.259982613134587"><ele>643.8000000000001</ele><time>2026-05-01T10:38:42Z</time></trkpt><trkpt lat="40.90877341104679" lon="9.259820575130963"><ele>647.2</ele><time>2026-05-01T10:38:43Z</time></trkpt><trkpt lat="40.90878785017" lon="9.25970930919279"><ele>650.6</ele><time>2026-05-01T10:38:44Z</time></trkpt><trkpt lat="40.90879976159888" lon="9.259600054707736"><ele>654.0</ele><time>2026-05-01T10:38:45Z</time></trkpt><trkpt lat="40.90889760834349" lon="9.259511397918194"><ele>660.0</ele><time>2026-05-01T10:38:46Z</time></trkpt><trkpt lat="40.90898781815785" lon="9.259353753335118"><ele>666.0</ele><time>2026-05-01T10:38:47Z</time></trkpt><trkpt lat="40.909086153229495" lon="9.259157830374225"><ele>672.0</ele><time>2026-05-01T10:38:48Z</time></trkpt><trkpt lat="40.90917465218724" lon="9.258981753925429"><ele>671.5</ele><time>2026-05-01T10:38:49Z</time></trkpt><trkpt lat="40.90927375316942" lon="9.258864790169802"><ele>671.0</ele><time>2026-05-01T10:38:50Z</time></trkpt><trkpt lat="40.90936038551889" lon="9.258758786075134"><ele>670.5</ele><time>2026-05-01T10:38:51Z</time></trkpt><trkpt lat="40.909421372471584" lon="9.258630547320358"><ele>670.0</ele><time>2026-05-01T10:38:52Z</time></trkpt><trkpt lat="40.909444998832335" lon="9.258485638202638"><ele>670.0</ele><time>2026-05-01T10:38:53Z</time></trkpt><trkpt lat="40.90946347757434" lon="9.258328416573146"><ele>670.0</ele><time>2026-05-01T10:38:54Z</time></trkpt><trkpt lat="40.909486100563456" lon="9.258167234604715"><ele>670.0</ele><time>2026-05-01T10:38:55Z</time></trkpt><trkpt lat="40.909482052791354" lon="9.258038525080774"><ele>670.0</ele><time>2026-05-01T10:38:56Z</time></trkpt><trkpt lat="40.90946531927799" lon="9.25793870148467"><ele>670.0</ele><time>2026-05-01T10:38:57Z</time></trkpt><trkpt lat="40.909378128816655" lon="9.25782770795787"><ele>672.0</ele><time>2026-05-01T10:38:58Z</time></trkpt><trkpt lat="40.90931294740036" lon="9.257729358682202"><ele>674.0</ele><time>2026-05-01T10:38:59Z</time></trkpt><trkpt lat="40.909261812436824" lon="9.257642771247788"><ele>676.0</ele><time>2026-05-01T10:39:00Z</time></trkpt><trkpt lat="40.909284143910156" lon="9.257547646457988"><ele>678.0</ele><time>2026-05-01T10:39:02Z</time></trkpt><trkpt lat="40.90932170409242" lon="9.257446228612446"><ele>680.0</ele><time>2026-05-01T10:39:04Z</time></trkpt><trkpt lat="40.90937527233806" lon="9.257362282461663"><ele>682.0</ele><time>2026-05-01T10:39:07Z</time></trkpt><trkpt lat="40.90942130223336" lon="9.25726763533651"><ele>683.0</ele><time>2026-05-01T10:39:21Z</time></trkpt><trkpt lat="40.90949480323516" lon="9.25713081544459"><ele>684.0</ele><time>2026-05-01T10:39:23Z</time></trkpt><trkpt lat="40.90954498598046" lon="9.257021103544515"><ele>685.0</ele><time>2026-05-01T10:39:24Z</time></trkpt><trkpt lat="40.909594413424294" lon="9.256911441505725"><ele>686.0</ele><time>2026-05-01T10:39:25Z</time></trkpt><trkpt lat="40.90962521056226" lon="9.25677160996935"><ele>687.0</ele><time>2026-05-01T10:39:26Z</time></trkpt><trkpt lat="40.90963810997055" lon="9.256624057785801"><ele>687.0</ele><time>2026-05-01T10:39:27Z</time></trkpt><trkpt lat="40.909633283664014" lon="9.256473782299679"><ele>687.0</ele><time>2026-05-01T10:39:28Z</time></trkpt><trkpt lat="40.90960527254344" lon="9.256326454474944"><ele>687.0</ele><time>2026-05-01T10:39:29Z</time></trkpt><trkpt lat="40.90960059510332" lon="9.256171259039865"><ele>687.0</ele><time>2026-05-01T10:39:30Z</time></trkpt><trkpt lat="40.90959735698988" lon="9.256023230920329"><ele>689.0</ele><time>2026-05-01T10:39:31Z</time></trkpt><trkpt lat="40.90958672358584" lon="9.255872618589388"><ele>691.0</ele><time>2026-05-01T10:39:32Z</time></trkpt><trkpt lat="40.90960008617705" lon="9.255724192767326"><ele>693.0</ele><time>2026-05-01T10:39:33Z</time></trkpt><trkpt lat="40.90963046347954" lon="9.255577321921558"><ele>695.0</ele><time>2026-05-01T10:39:34Z</time></trkpt><trkpt lat="40.90964265269847" lon="9.255432019685411"><ele>698.2</ele><time>2026-05-01T10:39:35Z</time></trkpt><trkpt lat="40.909636726126095" lon="9.255293234113797"><ele>701.4</ele><time>2026-05-01T10:39:36Z</time></trkpt><trkpt lat="40.90964996805692" lon="9.255168256083874"><ele>704.5999999999999</ele><time>2026-05-01T10:39:37Z</time></trkpt><trkpt lat="40.909673581909765" lon="9.255045072857277"><ele>707.8</ele><time>2026-05-01T10:39:38Z</time></trkpt><trkpt lat="40.90968457792728" lon="9.2549136514252"><ele>711.0</ele><time>2026-05-01T10:39:39Z</time></trkpt><trkpt lat="40.909677686438435" lon="9.254772866794994"><ele>712.75</ele><time>2026-05-01T10:39:40Z</time></trkpt><trkpt lat="40.909680788643975" lon="9.25463606873018"><ele>714.5</ele><time>2026-05-01T10:39:41Z</time></trkpt><trkpt lat="40.909655922152716" lon="9.25448825399945"><ele>716.25</ele><time>2026-05-01T10:39:42Z</time></trkpt><trkpt lat="40.9096109712639" lon="9.254331996279221"><ele>718.0</ele><time>2026-05-01T10:39:43Z</time></trkpt><trkpt lat="40.909554033992805" lon="9.254170923953968"><ele>718.0</ele><time>2026-05-01T10:39:44Z</time></trkpt><trkpt lat="40.90951771545705" lon="9.253991408273047"><ele>718.0</ele><time>2026-05-01T10:39:45Z</time></trkpt><trkpt lat="40.909466877217895" lon="9.25381772913903"><ele>718.0</ele><time>2026-05-01T10:39:46Z</time></trkpt><trkpt lat="40.90941516605535" lon="9.2536476204662"><ele>718.0</ele><time>2026-05-01T10:39:47Z</time></trkpt><trkpt lat="40.909361799767424" lon="9.253469033337005"><ele>719.0</ele><time>2026-05-01T10:39:48Z</time></trkpt><trkpt lat="40.909299648281134" lon="9.253289147947235"><ele>720.0</ele><time>2026-05-01T10:39:49Z</time></trkpt><trkpt lat="40.909256887279696" lon="9.253099773757889"><ele>721.0</ele><time>2026-05-01T10:39:50Z</time></trkpt><trkpt lat="40.90920061144266" lon="9.252907209765796"><ele>721.3333333333334</ele><time>2026-05-01T10:39:51Z</time></trkpt><trkpt lat="40.90914654290821" lon="9.252717177876844"><ele>721.6666666666666</ele><time>2026-05-01T10:39:52Z</time></trkpt><trkpt lat="40.90909493176285" lon="9.252524365438099"><ele>722.0</ele><time>2026-05-01T10:39:53Z</time></trkpt><trkpt lat="40.90904242726821" lon="9.252330947150995"><ele>721.0</ele><time>2026-05-01T10:39:54Z</time></trkpt><trkpt lat="40.908989600787095" lon="9.252139909055444"><ele>720.0</ele><time>2026-05-01T10:39:55Z</time></trkpt><trkpt lat="40.90893601647429" lon="9.251946130340192"><ele>719.0</ele><time>2026-05-01T10:39:56Z</time></trkpt><trkpt lat="40.90888699508605" lon="9.251760316794122"><ele>719.0</ele><time>2026-05-01T10:39:57Z</time></trkpt><trkpt lat="40.90884320692755" lon="9.25157191856535"><ele>719.0</ele><time>2026-05-01T10:39:58Z</time></trkpt><trkpt lat="40.90879539451347" lon="9.251380201896835"><ele>719.0</ele><time>2026-05-01T10:39:59Z</time></trkpt><trkpt lat="40.90877595405275" lon="9.25118085869475"><ele>718.0</ele><time>2026-05-01T10:40:00Z</time></trkpt><trkpt lat="40.908754484848416" lon="9.250968940274124"><ele>717.0</ele><time>2026-05-01T10:40:01Z</time></trkpt><trkpt lat="40.908728567981136" lon="9.25074283332126"><ele>716.0</ele><time>2026-05-01T10:40:02Z</time></trkpt><trkpt lat="40.9086920865628" lon="9.250513320784739"><ele>715.6666666666666</ele><time>2026-05-01T10:40:03Z</time></trkpt><trkpt lat="40.908646454089656" lon="9.25027319370224"><ele>715.3333333333334</ele><time>2026-05-01T10:40:04Z</time></trkpt><trkpt lat="40.908595387260625" lon="9.250033214790923"><ele>715.0</ele><time>2026-05-01T10:40:05Z</time></trkpt><trkpt lat="40.90854518601935" lon="9.249793050435688"><ele>713.6666666666667</ele><time>2026-05-01T10:40:06Z</time></trkpt><trkpt lat="40.90849724522952" lon="9.249561596783545"><ele>712.3333333333334</ele><time>2026-05-01T10:40:07Z</time></trkpt><trkpt lat="40.90845076578646" lon="9.249330374124995"><ele>711.0</ele><time>2026-05-01T10:40:08Z</time></trkpt><trkpt lat="40.90840943807909" lon="9.249105310877205"><ele>711.6666666666666</ele><time>2026-05-01T10:40:09Z</time></trkpt><trkpt lat="40.90837010572895" lon="9.248880511001747"><ele>712.3333333333333</ele><time>2026-05-01T10:40:10Z</time></trkpt><trkpt lat="40.90831668628039" lon="9.248677135212963"><ele>713.0</ele><time>2026-05-01T10:40:11Z</time></trkpt><trkpt lat="40.908260382788484" lon="9.248482149702177"><ele>713.0</ele><time>2026-05-01T10:40:12Z</time></trkpt><trkpt lat="40.90820364872167" lon="9.248305796831284"><ele>713.0</ele><time>2026-05-01T10:40:13Z</time></trkpt><trkpt lat="40.9081765554969" lon="9.248134568191848"><ele>713.0</ele><time>2026-05-01T10:40:14Z</time></trkpt><trkpt lat="40.9081422211778" lon="9.247967811335238"><ele>713.0</ele><time>2026-05-01T10:40:15Z</time></trkpt><trkpt lat="40.90812336040197" lon="9.247783116657287"><ele>713.0</ele><time>2026-05-01T10:40:16Z</time></trkpt><trkpt lat="40.90812262470435" lon="9.24758416731228"><ele>713.0</ele><time>2026-05-01T10:40:17Z</time></trkpt><trkpt lat="40.908131282474145" lon="9.247391853936834"><ele>713.0</ele><time>2026-05-01T10:40:18Z</time></trkpt><trkpt lat="40.90814255127117" lon="9.247206799927664"><ele>713.0</ele><time>2026-05-01T10:40:19Z</time></trkpt><trkpt lat="40.90812487530659" lon="9.247034961100377"><ele>713.0</ele><time>2026-05-01T10:40:20Z</time></trkpt><trkpt lat="40.908138005860415" lon="9.246875746480557"><ele>713.0</ele><time>2026-05-01T10:40:21Z</time></trkpt><trkpt lat="40.908156397212394" lon="9.246735585922616"><ele>713.0</ele><time>2026-05-01T10:40:22Z</time></trkpt><trkpt lat="40.908221915325754" lon="9.246597760997364"><ele>713.0</ele><time>2026-05-01T10:40:23Z</time></trkpt><trkpt lat="40.90827294282508" lon="9.246451254944741"><ele>713.25</ele><time>2026-05-01T10:40:24Z</time></trkpt><trkpt lat="40.90831276417334" lon="9.24629337669342"><ele>713.5</ele><time>2026-05-01T10:40:25Z</time></trkpt><trkpt lat="40.908363931413795" lon="9.24613825135734"><ele>713.75</ele><time>2026-05-01T10:40:26Z</time></trkpt><trkpt lat="40.90840528833027" lon="9.245987797413322"><ele>714.0</ele><time>2026-05-01T10:40:27Z</time></trkpt><trkpt lat="40.908434752481085" lon="9.245835830898596"><ele>712.25</ele><time>2026-05-01T10:40:28Z</time></trkpt><trkpt lat="40.90845172694342" lon="9.245676895770318"><ele>710.5</ele><time>2026-05-01T10:40:29Z</time></trkpt><trkpt lat="40.908468933479526" lon="9.24550605487726"><ele>708.75</ele><time>2026-05-01T10:40:30Z</time></trkpt><trkpt lat="40.90848586024125" lon="9.245322962093294"><ele>707.0</ele><time>2026-05-01T10:40:31Z</time></trkpt><trkpt lat="40.9085029102068" lon="9.2451254950112"><ele>707.0</ele><time>2026-05-01T10:40:32Z</time></trkpt><trkpt lat="40.90854199983099" lon="9.244932035779897"><ele>707.0</ele><time>2026-05-01T10:40:33Z</time></trkpt><trkpt lat="40.908570367789046" lon="9.244734233600298"><ele>707.0</ele><time>2026-05-01T10:40:34Z</time></trkpt><trkpt lat="40.90857483522972" lon="9.244541063351937"><ele>707.25</ele><time>2026-05-01T10:40:35Z</time></trkpt><trkpt lat="40.90859441540059" lon="9.244366393705192"><ele>707.5</ele><time>2026-05-01T10:40:36Z</time></trkpt><trkpt lat="40.908593284778185" lon="9.244186055420348"><ele>707.75</ele><time>2026-05-01T10:40:37Z</time></trkpt><trkpt lat="40.908591103784694" lon="9.24401088198854"><ele>708.0</ele><time>2026-05-01T10:40:38Z</time></trkpt><trkpt lat="40.90862562341122" lon="9.243839164446106"><ele>708.75</ele><time>2026-05-01T10:40:39Z</time></trkpt><trkpt lat="40.90864931970652" lon="9.243664741025265"><ele>709.5</ele><time>2026-05-01T10:40:40Z</time></trkpt><trkpt lat="40.908674871437086" lon="9.243487666044102"><ele>710.25</ele><time>2026-05-01T10:40:41Z</time></trkpt><trkpt lat="40.90869719514101" lon="9.243317319487389"><ele>711.0</ele><time>2026-05-01T10:40:42Z</time></trkpt><trkpt lat="40.90871799075203" lon="9.243158633799947"><ele>711.75</ele><time>2026-05-01T10:40:43Z</time></trkpt><trkpt lat="40.908741790944426" lon="9.242994312559462"><ele>712.5</ele><time>2026-05-01T10:40:44Z</time></trkpt><trkpt lat="40.90876864721953" lon="9.242819348904487"><ele>713.25</ele><time>2026-05-01T10:40:45Z</time></trkpt><trkpt lat="40.90879882225043" lon="9.242642180187714"><ele>714.0</ele><time>2026-05-01T10:40:46Z</time></trkpt><trkpt lat="40.90883361332128" lon="9.242458372750653"><ele>714.75</ele><time>2026-05-01T10:40:47Z</time></trkpt><trkpt lat="40.908869801703986" lon="9.242267183045161"><ele>715.5</ele><time>2026-05-01T10:40:48Z</time></trkpt><trkpt lat="40.90889193553882" lon="9.242072119168357"><ele>716.25</ele><time>2026-05-01T10:40:49Z</time></trkpt><trkpt lat="40.90893140733627" lon="9.241886347247272"><ele>717.0</ele><time>2026-05-01T10:40:50Z</time></trkpt><trkpt lat="40.90896888774559" lon="9.241700004104928"><ele>717.0</ele><time>2026-05-01T10:40:51Z</time></trkpt><trkpt lat="40.909000455357194" lon="9.241519544917768"><ele>717.0</ele><time>2026-05-01T10:40:52Z</time></trkpt><trkpt lat="40.90902745276514" lon="9.241353406846976"><ele>717.0</ele><time>2026-05-01T10:40:53Z</time></trkpt><trkpt lat="40.90905435359854" lon="9.241188804555007"><ele>717.0</ele><time>2026-05-01T10:40:54Z</time></trkpt><trkpt lat="40.90906399685988" lon="9.24104308376741"><ele>717.5</ele><time>2026-05-01T10:40:55Z</time></trkpt><trkpt lat="40.909082567675405" lon="9.24085645828541"><ele>718.0</ele><time>2026-05-01T10:40:56Z</time></trkpt><trkpt lat="40.90909623240577" lon="9.240681608367362"><ele>718.5</ele><time>2026-05-01T10:40:57Z</time></trkpt><trkpt lat="40.909112579355124" lon="9.240507655649756"><ele>719.0</ele><time>2026-05-01T10:40:58Z</time></trkpt><trkpt lat="40.9091340246799" lon="9.240326286521444"><ele>719.0</ele><time>2026-05-01T10:40:59Z</time></trkpt><trkpt lat="40.909162192146354" lon="9.240134069712493"><ele>719.0</ele><time>2026-05-01T10:41:00Z</time></trkpt><trkpt lat="40.909197066060116" lon="9.239941556200597"><ele>719.0</ele><time>2026-05-01T10:41:01Z</time></trkpt><trkpt lat="40.909236798559625" lon="9.239749484331458"><ele>719.0</ele><time>2026-05-01T10:41:02Z</time></trkpt><trkpt lat="40.90927467301543" lon="9.239556935227188"><ele>718.75</ele><time>2026-05-01T10:41:03Z</time></trkpt><trkpt lat="40.90930630011233" lon="9.23936192746965"><ele>718.5</ele><time>2026-05-01T10:41:04Z</time></trkpt><trkpt lat="40.90933801262115" lon="9.23916823631265"><ele>718.25</ele><time>2026-05-01T10:41:05Z</time></trkpt><trkpt lat="40.909372859371075" lon="9.238980822845956"><ele>718.0</ele><time>2026-05-01T10:41:06Z</time></trkpt><trkpt lat="40.90940979587685" lon="9.238791515307392"><ele>718.25</ele><time>2026-05-01T10:41:07Z</time></trkpt><trkpt lat="40.90944268542506" lon="9.238602784692503"><ele>718.5</ele><time>2026-05-01T10:41:08Z</time></trkpt><trkpt lat="40.90947586425279" lon="9.238414040099066"><ele>718.75</ele><time>2026-05-01T10:41:09Z</time></trkpt><trkpt lat="40.90951270926964" lon="9.238240138994925"><ele>719.0</ele><time>2026-05-01T10:41:10Z</time></trkpt><trkpt lat="40.909546866962366" lon="9.23806554925862"><ele>719.0</ele><time>2026-05-01T10:41:11Z</time></trkpt><trkpt lat="40.90957726895668" lon="9.237883680389668"><ele>719.0</ele><time>2026-05-01T10:41:12Z</time></trkpt><trkpt lat="40.909603762303874" lon="9.237701805356453"><ele>719.0</ele><time>2026-05-01T10:41:13Z</time></trkpt><trkpt lat="40.90963387850877" lon="9.237528004188968"><ele>719.0</ele><time>2026-05-01T10:41:14Z</time></trkpt><trkpt lat="40.90967128853015" lon="9.237364858382586"><ele>719.25</ele><time>2026-05-01T10:41:15Z</time></trkpt><trkpt lat="40.90972512830677" lon="9.237218010769269"><ele>719.5</ele><time>2026-05-01T10:41:16Z</time></trkpt><trkpt lat="40.909793206906215" lon="9.237093195781803"><ele>719.75</ele><time>2026-05-01T10:41:17Z</time></trkpt><trkpt lat="40.90989192260349" lon="9.237013796732658"><ele>720.0</ele><time>2026-05-01T10:41:18Z</time></trkpt><trkpt lat="40.909986015364225" lon="9.236915120238065"><ele>721.0</ele><time>2026-05-01T10:41:19Z</time></trkpt><trkpt lat="40.910083745354875" lon="9.236809478741607"><ele>722.0</ele><time>2026-05-01T10:41:20Z</time></trkpt><trkpt lat="40.91018548803254" lon="9.236709523990989"><ele>723.0</ele><time>2026-05-01T10:41:21Z</time></trkpt><trkpt lat="40.91027714491166" lon="9.236603662679984"><ele>724.0</ele><time>2026-05-01T10:41:22Z</time></trkpt><trkpt lat="40.91037121621757" lon="9.236501425434735"><ele>722.5</ele><time>2026-05-01T10:41:23Z</time></trkpt><trkpt lat="40.91047027418571" lon="9.236401449098489"><ele>721.0</ele><time>2026-05-01T10:41:24Z</time></trkpt><trkpt lat="40.91057096801751" lon="9.236293460280452"><ele>719.5</ele><time>2026-05-01T10:41:25Z</time></trkpt><trkpt lat="40.9106698287763" lon="9.236182804310614"><ele>718.0</ele><time>2026-05-01T10:41:26Z</time></trkpt><trkpt lat="40.910772189751924" lon="9.23607383402232"><ele>718.0</ele><time>2026-05-01T10:41:27Z</time></trkpt><trkpt lat="40.91088100521732" lon="9.235966463511373"><ele>718.0</ele><time>2026-05-01T10:41:28Z</time></trkpt><trkpt lat="40.910989668356876" lon="9.235857000218878"><ele>718.0</ele><time>2026-05-01T10:41:29Z</time></trkpt><trkpt lat="40.911088894622424" lon="9.235741428881965"><ele>718.0</ele><time>2026-05-01T10:41:30Z</time></trkpt><trkpt lat="40.911188448024355" lon="9.235622681309293"><ele>718.0</ele><time>2026-05-01T10:41:31Z</time></trkpt><trkpt lat="40.9112977429373" lon="9.235510309542354"><ele>718.0</ele><time>2026-05-01T10:41:32Z</time></trkpt><trkpt lat="40.9114078403402" lon="9.23539914649589"><ele>718.0</ele><time>2026-05-01T10:41:33Z</time></trkpt><trkpt lat="40.91151512159196" lon="9.235288871780092"><ele>718.0</ele><time>2026-05-01T10:41:34Z</time></trkpt><trkpt lat="40.911617844850504" lon="9.23517973963561"><ele>718.0</ele><time>2026-05-01T10:41:35Z</time></trkpt><trkpt lat="40.91172500401977" lon="9.235074780406206"><ele>718.0</ele><time>2026-05-01T10:41:36Z</time></trkpt><trkpt lat="40.9118352506417" lon="9.234971585804026"><ele>718.0</ele><time>2026-05-01T10:41:37Z</time></trkpt><trkpt lat="40.91194948696579" lon="9.234865740038176"><ele>718.0</ele><time>2026-05-01T10:41:38Z</time></trkpt><trkpt lat="40.91206386647202" lon="9.234758554046651"><ele>717.0</ele><time>2026-05-01T10:41:39Z</time></trkpt><trkpt lat="40.91218030858776" lon="9.234643040938526"><ele>716.0</ele><time>2026-05-01T10:41:40Z</time></trkpt><trkpt lat="40.91229616263296" lon="9.234517272990255"><ele>715.0</ele><time>2026-05-01T10:41:41Z</time></trkpt><trkpt lat="40.912411971173434" lon="9.2343910517979"><ele>714.0</ele><time>2026-05-01T10:41:42Z</time></trkpt><trkpt lat="40.91253265349886" lon="9.234270895641794"><ele>714.75</ele><time>2026-05-01T10:41:43Z</time></trkpt><trkpt lat="40.91264482227696" lon="9.234166820327568"><ele>715.5</ele><time>2026-05-01T10:41:44Z</time></trkpt><trkpt lat="40.912746872231885" lon="9.23406975660619"><ele>716.25</ele><time>2026-05-01T10:41:45Z</time></trkpt><trkpt lat="40.91283411732732" lon="9.233983587163683"><ele>717.0</ele><time>2026-05-01T10:41:46Z</time></trkpt><trkpt lat="40.91291473574472" lon="9.233905868936327"><ele>717.0</ele><time>2026-05-01T10:41:47Z</time></trkpt><trkpt lat="40.91299451511745" lon="9.233831380072568"><ele>717.0</ele><time>2026-05-01T10:41:48Z</time></trkpt><trkpt lat="40.91307371119692" lon="9.233754516681795"><ele>717.0</ele><time>2026-05-01T10:41:49Z</time></trkpt><trkpt lat="40.913156977844984" lon="9.233676617072819"><ele>717.0</ele><time>2026-05-01T10:41:50Z</time></trkpt><trkpt lat="40.91324038810963" lon="9.233597854630583"><ele>717.0</ele><time>2026-05-01T10:41:51Z</time></trkpt><trkpt lat="40.91332609677766" lon="9.233517392866526"><ele>717.5</ele><time>2026-05-01T10:41:52Z</time></trkpt><trkpt lat="40.913408507165535" lon="9.233429110455562"><ele>718.0</ele><time>2026-05-01T10:41:53Z</time></trkpt><trkpt lat="40.913477596152774" lon="9.233314444471622"><ele>718.5</ele><time>2026-05-01T10:41:54Z</time></trkpt><trkpt lat="40.913535549372526" lon="9.233172364447098"><ele>719.0</ele><time>2026-05-01T10:41:55Z</time></trkpt><trkpt lat="40.913598111178054" lon="9.233032839259156"><ele>719.0</ele><time>2026-05-01T10:41:56Z</time></trkpt><trkpt lat="40.91366648783244" lon="9.232888695293092"><ele>719.0</ele><time>2026-05-01T10:41:57Z</time></trkpt><trkpt lat="40.913733668393114" lon="9.23273710840635"><ele>719.0</ele><time>2026-05-01T10:41:58Z</time></trkpt><trkpt lat="40.913802252515076" lon="9.23258201361278"><ele>719.0</ele><time>2026-05-01T10:41:59Z</time></trkpt><trkpt lat="40.91386678752226" lon="9.232443235912848"><ele>719.0</ele><time>2026-05-01T10:42:00Z</time></trkpt><trkpt lat="40.913926207815074" lon="9.23231965066899"><ele>719.0</ele><time>2026-05-01T10:42:01Z</time></trkpt><trkpt lat="40.91398304799522" lon="9.232197263163854"><ele>719.0</ele><time>2026-05-01T10:42:02Z</time></trkpt><trkpt lat="40.914045623712255" lon="9.2320665495503"><ele>719.0</ele><time>2026-05-01T10:42:03Z</time></trkpt><trkpt lat="40.914110059545116" lon="9.231933661936324"><ele>718.0</ele><time>2026-05-01T10:42:04Z</time></trkpt><trkpt lat="40.91417305457421" lon="9.23180021181418"><ele>717.0</ele><time>2026-05-01T10:42:05Z</time></trkpt><trkpt lat="40.91423041775029" lon="9.231663859715203"><ele>716.0</ele><time>2026-05-01T10:42:06Z</time></trkpt><trkpt lat="40.914282746785645" lon="9.231527099944055"><ele>715.0</ele><time>2026-05-01T10:42:07Z</time></trkpt><trkpt lat="40.91433737502606" lon="9.231390654278574"><ele>714.0</ele><time>2026-05-01T10:42:08Z</time></trkpt><trkpt lat="40.91439439438779" lon="9.231257020165101"><ele>713.0</ele><time>2026-05-01T10:42:09Z</time></trkpt><trkpt lat="40.91444895898304" lon="9.231122554550241"><ele>712.0</ele><time>2026-05-01T10:42:10Z</time></trkpt><trkpt lat="40.91450077499271" lon="9.230987709471693"><ele>711.0</ele><time>2026-05-01T10:42:11Z</time></trkpt><trkpt lat="40.914545612073354" lon="9.23085078902805"><ele>711.0</ele><time>2026-05-01T10:42:12Z</time></trkpt><trkpt lat="40.914585390162436" lon="9.230708296620495"><ele>711.0</ele><time>2026-05-01T10:42:13Z</time></trkpt><trkpt lat="40.91461871640938" lon="9.23057115261839"><ele>711.0</ele><time>2026-05-01T10:42:14Z</time></trkpt><trkpt lat="40.91464676051444" lon="9.230439200683819"><ele>711.0</ele><time>2026-05-01T10:42:15Z</time></trkpt><trkpt lat="40.91467594799616" lon="9.230310578446248"><ele>711.0</ele><time>2026-05-01T10:42:16Z</time></trkpt><trkpt lat="40.91470643361046" lon="9.230181066957169"><ele>710.1999999999999</ele><time>2026-05-01T10:42:17Z</time></trkpt><trkpt lat="40.91473590086203" lon="9.230054093181339"><ele>709.4</ele><time>2026-05-01T10:42:18Z</time></trkpt><trkpt lat="40.914773126954515" lon="9.229928012013"><ele>708.6</ele><time>2026-05-01T10:42:19Z</time></trkpt><trkpt lat="40.914807557959485" lon="9.229803422336557"><ele>707.8</ele><time>2026-05-01T10:42:20Z</time></trkpt><trkpt lat="40.91483956204405" lon="9.229670861062699"><ele>707.0</ele><time>2026-05-01T10:42:21Z</time></trkpt><trkpt lat="40.91487456084056" lon="9.229515106831007"><ele>703.3333333333333</ele><time>2026-05-01T10:42:22Z</time></trkpt><trkpt lat="40.914917354119744" lon="9.229335267529656"><ele>699.6666666666666</ele><time>2026-05-01T10:42:23Z</time></trkpt><trkpt lat="40.91496740182601" lon="9.229136251080838"><ele>696.0</ele><time>2026-05-01T10:42:24Z</time></trkpt><trkpt lat="40.915022323593874" lon="9.228930478224823"><ele>694.5</ele><time>2026-05-01T10:42:25Z</time></trkpt><trkpt lat="40.9150670046838" lon="9.228728650375873"><ele>693.0</ele><time>2026-05-01T10:42:26Z</time></trkpt><trkpt lat="40.91508789550357" lon="9.228540085698807"><ele>691.5</ele><time>2026-05-01T10:42:27Z</time></trkpt><trkpt lat="40.91509411135453" lon="9.228347026113862"><ele>690.0</ele><time>2026-05-01T10:42:28Z</time></trkpt><trkpt lat="40.915103245385254" lon="9.22815301987269"><ele>685.3333333333334</ele><time>2026-05-01T10:42:29Z</time></trkpt><trkpt lat="40.91512382823825" lon="9.227957422791315"><ele>680.6666666666667</ele><time>2026-05-01T10:42:30Z</time></trkpt><trkpt lat="40.91515266594453" lon="9.227757739805519"><ele>676.0</ele><time>2026-05-01T10:42:31Z</time></trkpt><trkpt lat="40.91518388944745" lon="9.227547229747733"><ele>676.0</ele><time>2026-05-01T10:42:32Z</time></trkpt><trkpt lat="40.91520951574854" lon="9.227333026264995"><ele>676.0</ele><time>2026-05-01T10:42:33Z</time></trkpt><trkpt lat="40.91523118915824" lon="9.227120698436165"><ele>676.0</ele><time>2026-05-01T10:42:34Z</time></trkpt><trkpt lat="40.915246586125654" lon="9.226912273666239"><ele>674.0</ele><time>2026-05-01T10:42:35Z</time></trkpt><trkpt lat="40.915251341647604" lon="9.226697757729847"><ele>672.0</ele><time>2026-05-01T10:42:36Z</time></trkpt><trkpt lat="40.91524206238253" lon="9.226485128931866"><ele>670.0</ele><time>2026-05-01T10:42:37Z</time></trkpt><trkpt lat="40.915223837909686" lon="9.226288777978878"><ele>669.0</ele><time>2026-05-01T10:42:38Z</time></trkpt><trkpt lat="40.91520278593704" lon="9.226108473234433"><ele>668.0</ele><time>2026-05-01T10:42:39Z</time></trkpt><trkpt lat="40.91519072160945" lon="9.225957156983787"><ele>667.0</ele><time>2026-05-01T10:42:40Z</time></trkpt><trkpt lat="40.91518562314401" lon="9.225834059851318"><ele>666.0</ele><time>2026-05-01T10:42:41Z</time></trkpt><trkpt lat="40.91520234142944" lon="9.225723677462835"><ele>665.0</ele><time>2026-05-01T10:42:42Z</time></trkpt><trkpt lat="40.91526095120418" lon="9.225617353590938"><ele>663.6666666666666</ele><time>2026-05-01T10:42:43Z</time></trkpt><trkpt lat="40.9153665734817" lon="9.225506895032222"><ele>662.3333333333334</ele><time>2026-05-01T10:42:44Z</time></trkpt><trkpt lat="40.91549839703366" lon="9.225402671381362"><ele>661.0</ele><time>2026-05-01T10:42:45Z</time></trkpt><trkpt lat="40.915643690177916" lon="9.225279253751891"><ele>661.0</ele><time>2026-05-01T10:42:46Z</time></trkpt><trkpt lat="40.915779377803844" lon="9.225145696520654"><ele>661.0</ele><time>2026-05-01T10:42:47Z</time></trkpt><trkpt lat="40.91589887279882" lon="9.225018783614896"><ele>661.0</ele><time>2026-05-01T10:42:48Z</time></trkpt><trkpt lat="40.916003682501355" lon="9.22490595395282"><ele>661.1999999999999</ele><time>2026-05-01T10:42:49Z</time></trkpt><trkpt lat="40.91607136142915" lon="9.22480991105392"><ele>661.4</ele><time>2026-05-01T10:42:50Z</time></trkpt><trkpt lat="40.91610123521372" lon="9.224727461809232"><ele>661.6</ele><time>2026-05-01T10:42:51Z</time></trkpt><trkpt lat="40.916099053609834" lon="9.224631384404294"><ele>661.8</ele><time>2026-05-01T10:42:52Z</time></trkpt><trkpt lat="40.91608015522175" lon="9.224495976514174"><ele>662.0</ele><time>2026-05-01T10:42:53Z</time></trkpt><trkpt lat="40.916072742231485" lon="9.224332294696449"><ele>662.0</ele><time>2026-05-01T10:42:54Z</time></trkpt><trkpt lat="40.91608352966561" lon="9.224143919063309"><ele>662.0</ele><time>2026-05-01T10:42:55Z</time></trkpt><trkpt lat="40.91610083477994" lon="9.223925210445405"><ele>662.0</ele><time>2026-05-01T10:42:56Z</time></trkpt><trkpt lat="40.916104995195425" lon="9.223696327989762"><ele>663.5</ele><time>2026-05-01T10:42:57Z</time></trkpt><trkpt lat="40.91611464367493" lon="9.223512414731989"><ele>665.0</ele><time>2026-05-01T10:42:58Z</time></trkpt><trkpt lat="40.91613037196713" lon="9.223349275589845"><ele>666.5</ele><time>2026-05-01T10:42:59Z</time></trkpt><trkpt lat="40.91613971618407" lon="9.223179111281208"><ele>668.0</ele><time>2026-05-01T10:43:00Z</time></trkpt><trkpt lat="40.91612041995191" lon="9.222992950148276"><ele>668.3333333333333</ele><time>2026-05-01T10:43:01Z</time></trkpt><trkpt lat="40.91606189629564" lon="9.222772243910232"><ele>668.6666666666666</ele><time>2026-05-01T10:43:02Z</time></trkpt><trkpt lat="40.915991297233106" lon="9.222537504538066"><ele>669.0</ele><time>2026-05-01T10:43:03Z</time></trkpt><trkpt lat="40.91592896297951" lon="9.222310581921132"><ele>666.3333333333334</ele><time>2026-05-01T10:43:04Z</time></trkpt><trkpt lat="40.91587108159067" lon="9.222110743478712"><ele>663.6666666666667</ele><time>2026-05-01T10:43:05Z</time></trkpt><trkpt lat="40.915797403972505" lon="9.22193348251315"><ele>661.0</ele><time>2026-05-01T10:43:06Z</time></trkpt><trkpt lat="40.915741771249444" lon="9.221747442851617"><ele>661.0</ele><time>2026-05-01T10:43:07Z</time></trkpt><trkpt lat="40.91568941448124" lon="9.221567280117334"><ele>661.0</ele><time>2026-05-01T10:43:08Z</time></trkpt><trkpt lat="40.91564094263959" lon="9.221397002925045"><ele>661.0</ele><time>2026-05-01T10:43:09Z</time></trkpt><trkpt lat="40.91558031322095" lon="9.221236268948532"><ele>661.0</ele><time>2026-05-01T10:43:10Z</time></trkpt><trkpt lat="40.91553143380246" lon="9.22107328788955"><ele>660.75</ele><time>2026-05-01T10:43:11Z</time></trkpt><trkpt lat="40.91549887684118" lon="9.220897951620913"><ele>660.5</ele><time>2026-05-01T10:43:12Z</time></trkpt><trkpt lat="40.915449077238584" lon="9.220730126990036"><ele>660.25</ele><time>2026-05-01T10:43:13Z</time></trkpt><trkpt lat="40.91539806537251" lon="9.220564201653799"><ele>660.0</ele><time>2026-05-01T10:43:14Z</time></trkpt><trkpt lat="40.91533662599773" lon="9.22040792342535"><ele>660.0</ele><time>2026-05-01T10:43:15Z</time></trkpt><trkpt lat="40.915291809386154" lon="9.220248071003839"><ele>660.0</ele><time>2026-05-01T10:43:16Z</time></trkpt><trkpt lat="40.91524890532465" lon="9.220094167634304"><ele>660.0</ele><time>2026-05-01T10:43:17Z</time></trkpt><trkpt lat="40.91520803548678" lon="9.21994362641995"><ele>660.0</ele><time>2026-05-01T10:43:18Z</time></trkpt><trkpt lat="40.91518452495574" lon="9.219788021588839"><ele>659.0</ele><time>2026-05-01T10:43:19Z</time></trkpt><trkpt lat="40.9151379003728" lon="9.21964259433521"><ele>658.0</ele><time>2026-05-01T10:43:20Z</time></trkpt><trkpt lat="40.91513450565875" lon="9.219486050623535"><ele>657.0</ele><time>2026-05-01T10:43:21Z</time></trkpt><trkpt lat="40.9151321398894" lon="9.219329636583963"><ele>656.0</ele><time>2026-05-01T10:43:22Z</time></trkpt><trkpt lat="40.91512802228808" lon="9.219165779717624"><ele>656.0</ele><time>2026-05-01T10:43:23Z</time></trkpt><trkpt lat="40.91510800573783" lon="9.218996367993327"><ele>656.0</ele><time>2026-05-01T10:43:24Z</time></trkpt><trkpt lat="40.91510671286601" lon="9.218828227689956"><ele>656.0</ele><time>2026-05-01T10:43:25Z</time></trkpt><trkpt lat="40.915098063410454" lon="9.218659463576717"><ele>656.0</ele><time>2026-05-01T10:43:26Z</time></trkpt><trkpt lat="40.91508653356462" lon="9.218497879895041"><ele>654.5</ele><time>2026-05-01T10:43:27Z</time></trkpt><trkpt lat="40.91507292709823" lon="9.218334163765999"><ele>653.0</ele><time>2026-05-01T10:43:28Z</time></trkpt><trkpt lat="40.91509225830269" lon="9.218173229257841"><ele>651.5</ele><time>2026-05-01T10:43:29Z</time></trkpt><trkpt lat="40.91509246708083" lon="9.218011878317103"><ele>650.0</ele><time>2026-05-01T10:43:30Z</time></trkpt><trkpt lat="40.915076274785584" lon="9.217853531767819"><ele>650.0</ele><time>2026-05-01T10:43:31Z</time></trkpt><trkpt lat="40.91507728642189" lon="9.217696653911526"><ele>650.0</ele><time>2026-05-01T10:43:32Z</time></trkpt><trkpt lat="40.91507401598176" lon="9.217538610005837"><ele>650.0</ele><time>2026-05-01T10:43:33Z</time></trkpt><trkpt lat="40.915069918723354" lon="9.217382700463165"><ele>650.0</ele><time>2026-05-01T10:43:34Z</time></trkpt><trkpt lat="40.91506149485976" lon="9.217228128853733"><ele>648.0</ele><time>2026-05-01T10:43:35Z</time></trkpt><trkpt lat="40.91503649930485" lon="9.217081442616006"><ele>646.0</ele><time>2026-05-01T10:43:36Z</time></trkpt><trkpt lat="40.915014850528095" lon="9.216928534669384"><ele>644.0</ele><time>2026-05-01T10:43:37Z</time></trkpt><trkpt lat="40.91497617282368" lon="9.216785005809474"><ele>642.0</ele><time>2026-05-01T10:43:38Z</time></trkpt><trkpt lat="40.91493682318506" lon="9.216634867663736"><ele>640.75</ele><time>2026-05-01T10:43:39Z</time></trkpt><trkpt lat="40.914900699934435" lon="9.21647837435406"><ele>639.5</ele><time>2026-05-01T10:43:40Z</time></trkpt><trkpt lat="40.914866329007474" lon="9.216304261825766"><ele>638.25</ele><time>2026-05-01T10:43:41Z</time></trkpt><trkpt lat="40.9148101493745" lon="9.216116304714818"><ele>637.0</ele><time>2026-05-01T10:43:42Z</time></trkpt><trkpt lat="40.914782094481666" lon="9.215907775246858"><ele>637.0</ele><time>2026-05-01T10:43:43Z</time></trkpt><trkpt lat="40.914789119252646" lon="9.215703463526497"><ele>637.0</ele><time>2026-05-01T10:43:44Z</time></trkpt><trkpt lat="40.91481829687856" lon="9.215469155848428"><ele>637.0</ele><time>2026-05-01T10:43:45Z</time></trkpt><trkpt lat="40.91486431774172" lon="9.215250423853497"><ele>637.0</ele><time>2026-05-01T10:43:46Z</time></trkpt><trkpt lat="40.91492374574007" lon="9.215077227522066"><ele>637.0</ele><time>2026-05-01T10:43:47Z</time></trkpt><trkpt lat="40.914993805564905" lon="9.214919789347292"><ele>637.0</ele><time>2026-05-01T10:43:48Z</time></trkpt><trkpt lat="40.91509960335667" lon="9.214772348981445"><ele>637.0</ele><time>2026-05-01T10:43:49Z</time></trkpt><trkpt lat="40.9152327685799" lon="9.21462139003921"><ele>635.0</ele><time>2026-05-01T10:43:50Z</time></trkpt><trkpt lat="40.91534603621616" lon="9.214489612601303"><ele>633.0</ele><time>2026-05-01T10:43:51Z</time></trkpt><trkpt lat="40.915441515529366" lon="9.214385709552735"><ele>631.0</ele><time>2026-05-01T10:43:52Z</time></trkpt><trkpt lat="40.915545203650545" lon="9.214330353044046"><ele>629.0</ele><time>2026-05-01T10:43:53Z</time></trkpt><trkpt lat="40.91564553729326" lon="9.214262197184674"><ele>629.0</ele><time>2026-05-01T10:43:54Z</time></trkpt><trkpt lat="40.91577547130726" lon="9.214205495536065"><ele>629.0</ele><time>2026-05-01T10:43:55Z</time></trkpt><trkpt lat="40.915918252697324" lon="9.214127383930602"><ele>629.0</ele><time>2026-05-01T10:43:56Z</time></trkpt><trkpt lat="40.916071720731324" lon="9.21402060624641"><ele>626.0</ele><time>2026-05-01T10:43:57Z</time></trkpt><trkpt lat="40.916214905227456" lon="9.213900635611976"><ele>623.0</ele><time>2026-05-01T10:43:58Z</time></trkpt><trkpt lat="40.9163481769423" lon="9.213785687448475"><ele>620.0</ele><time>2026-05-01T10:43:59Z</time></trkpt><trkpt lat="40.91645846249319" lon="9.213653268713168"><ele>620.0</ele><time>2026-05-01T10:44:00Z</time></trkpt><trkpt lat="40.91655141190574" lon="9.213495154357844"><ele>620.0</ele><time>2026-05-01T10:44:01Z</time></trkpt><trkpt lat="40.91665346022551" lon="9.213322801064134"><ele>620.0</ele><time>2026-05-01T10:44:02Z</time></trkpt><trkpt lat="40.91676421927203" lon="9.21319102273796"><ele>617.25</ele><time>2026-05-01T10:44:03Z</time></trkpt><trkpt lat="40.91685653131749" lon="9.213055849516849"><ele>614.5</ele><time>2026-05-01T10:44:04Z</time></trkpt><trkpt lat="40.9169502413323" lon="9.21291603811209"><ele>611.75</ele><time>2026-05-01T10:44:05Z</time></trkpt><trkpt lat="40.917046660425136" lon="9.212763896622942"><ele>609.0</ele><time>2026-05-01T10:44:06Z</time></trkpt><trkpt lat="40.91713136033709" lon="9.212603477478932"><ele>609.0</ele><time>2026-05-01T10:44:07Z</time></trkpt><trkpt lat="40.917220194432524" lon="9.212442271842649"><ele>609.0</ele><time>2026-05-01T10:44:08Z</time></trkpt><trkpt lat="40.917313278681156" lon="9.212277651928723"><ele>609.0</ele><time>2026-05-01T10:44:09Z</time></trkpt><trkpt lat="40.91739215489324" lon="9.212104081298238"><ele>609.0</ele><time>2026-05-01T10:44:10Z</time></trkpt><trkpt lat="40.9174703092455" lon="9.211932577619162"><ele>609.0</ele><time>2026-05-01T10:44:11Z</time></trkpt><trkpt lat="40.91754833541576" lon="9.211761355004041"><ele>609.0</ele><time>2026-05-01T10:44:12Z</time></trkpt><trkpt lat="40.91762612541545" lon="9.211592796697861"><ele>605.5</ele><time>2026-05-01T10:44:13Z</time></trkpt><trkpt lat="40.91770326483417" lon="9.211427274298396"><ele>602.0</ele><time>2026-05-01T10:44:14Z</time></trkpt><trkpt lat="40.91778125239078" lon="9.211258261594908"><ele>598.5</ele><time>2026-05-01T10:44:15Z</time></trkpt><trkpt lat="40.91785393660969" lon="9.211089991524693"><ele>595.0</ele><time>2026-05-01T10:44:16Z</time></trkpt><trkpt lat="40.91792048247739" lon="9.210930234757637"><ele>595.0</ele><time>2026-05-01T10:44:17Z</time></trkpt><trkpt lat="40.917959360006" lon="9.21075550051049"><ele>595.0</ele><time>2026-05-01T10:44:18Z</time></trkpt><trkpt lat="40.91800428168199" lon="9.21058820560182"><ele>595.0</ele><time>2026-05-01T10:44:19Z</time></trkpt><trkpt lat="40.91807065975664" lon="9.210439449779965"><ele>595.0</ele><time>2026-05-01T10:44:20Z</time></trkpt><trkpt lat="40.91813487874739" lon="9.21029086633458"><ele>594.5</ele><time>2026-05-01T10:44:21Z</time></trkpt><trkpt lat="40.91820614511966" lon="9.210146508712382"><ele>594.0</ele><time>2026-05-01T10:44:22Z</time></trkpt><trkpt lat="40.91830534567628" lon="9.21000623999466"><ele>593.5</ele><time>2026-05-01T10:44:23Z</time></trkpt><trkpt lat="40.91838785854111" lon="9.209869094673504"><ele>593.0</ele><time>2026-05-01T10:44:24Z</time></trkpt><trkpt lat="40.91845907321565" lon="9.209718987007243"><ele>592.25</ele><time>2026-05-01T10:44:25Z</time></trkpt><trkpt lat="40.91854419679188" lon="9.209592989253771"><ele>591.5</ele><time>2026-05-01T10:44:26Z</time></trkpt><trkpt lat="40.9186386648278" lon="9.209468320479793"><ele>590.75</ele><time>2026-05-01T10:44:27Z</time></trkpt><trkpt lat="40.918718374365156" lon="9.209329459162266"><ele>590.0</ele><time>2026-05-01T10:44:28Z</time></trkpt><trkpt lat="40.91880317628043" lon="9.209209740647951"><ele>590.0</ele><time>2026-05-01T10:44:29Z</time></trkpt><trkpt lat="40.918893873782025" lon="9.209099940243856"><ele>590.0</ele><time>2026-05-01T10:44:30Z</time></trkpt><trkpt lat="40.91899376150411" lon="9.208995551074741"><ele>590.0</ele><time>2026-05-01T10:44:31Z</time></trkpt><trkpt lat="40.91910167326077" lon="9.208891285007466"><ele>590.0</ele><time>2026-05-01T10:44:32Z</time></trkpt><trkpt lat="40.91922839999523" lon="9.208834598642898"><ele>590.25</ele><time>2026-05-01T10:44:33Z</time></trkpt><trkpt lat="40.919354309409215" lon="9.208767946132815"><ele>590.5</ele><time>2026-05-01T10:44:34Z</time></trkpt><trkpt lat="40.91948759387083" lon="9.208701040658282"><ele>590.75</ele><time>2026-05-01T10:44:35Z</time></trkpt><trkpt lat="40.91962526117778" lon="9.208631183995953"><ele>591.0</ele><time>2026-05-01T10:44:36Z</time></trkpt><trkpt lat="40.91976214510446" lon="9.20855792522264"><ele>591.0</ele><time>2026-05-01T10:44:37Z</time></trkpt><trkpt lat="40.91989469514957" lon="9.208464334180606"><ele>591.0</ele><time>2026-05-01T10:44:38Z</time></trkpt><trkpt lat="40.92002774536442" lon="9.208389561655196"><ele>591.0</ele><time>2026-05-01T10:44:39Z</time></trkpt><trkpt lat="40.92016497258637" lon="9.20831548958875"><ele>591.0</ele><time>2026-05-01T10:44:40Z</time></trkpt><trkpt lat="40.92029325935952" lon="9.208234603835063"><ele>592.75</ele><time>2026-05-01T10:44:41Z</time></trkpt><trkpt lat="40.92041037212199" lon="9.208135775619033"><ele>594.5</ele><time>2026-05-01T10:44:42Z</time></trkpt><trkpt lat="40.92050144339303" lon="9.20802367799033"><ele>596.25</ele><time>2026-05-01T10:44:43Z</time></trkpt><trkpt lat="40.92060121261801" lon="9.207946067843519"><ele>598.0</ele><time>2026-05-01T10:44:44Z</time></trkpt><trkpt lat="40.92071227653006" lon="9.207890375436913"><ele>598.0</ele><time>2026-05-01T10:44:44.999Z</time></trkpt><trkpt lat="40.92083465681803" lon="9.207823141307205"><ele>598.0</ele><time>2026-05-01T10:44:45.999Z</time></trkpt><trkpt lat="40.92095570111603" lon="9.207741162501028"><ele>598.0</ele><time>2026-05-01T10:44:46.999Z</time></trkpt><trkpt lat="40.92109423975135" lon="9.207684618970038"><ele>598.0</ele><time>2026-05-01T10:44:48Z</time></trkpt><trkpt lat="40.921235811040866" lon="9.207643922334995"><ele>595.25</ele><time>2026-05-01T10:44:48.999Z</time></trkpt><trkpt lat="40.92136570865382" lon="9.207605845101499"><ele>592.5</ele><time>2026-05-01T10:44:49.999Z</time></trkpt><trkpt lat="40.92147576369609" lon="9.207574809433558"><ele>589.75</ele><time>2026-05-01T10:44:50.999Z</time></trkpt><trkpt lat="40.92157996429744" lon="9.207538010851493"><ele>587.0</ele><time>2026-05-01T10:44:51.999Z</time></trkpt><trkpt lat="40.92167747873592" lon="9.207489083618658"><ele>583.6</ele><time>2026-05-01T10:44:52.999Z</time></trkpt><trkpt lat="40.92177838745402" lon="9.207431914331956"><ele>580.2</ele><time>2026-05-01T10:44:53.999Z</time></trkpt><trkpt lat="40.92187935879377" lon="9.20736923835989"><ele>576.8</ele><time>2026-05-01T10:44:54.999Z</time></trkpt><trkpt lat="40.921977485585884" lon="9.207297852218812"><ele>573.4</ele><time>2026-05-01T10:44:55.999Z</time></trkpt><trkpt lat="40.92206513210834" lon="9.20720710626565"><ele>570.0</ele><time>2026-05-01T10:44:56.999Z</time></trkpt><trkpt lat="40.922139237891614" lon="9.207114188430127"><ele>570.0</ele><time>2026-05-01T10:44:57.999Z</time></trkpt><trkpt lat="40.9222085786967" lon="9.207029844900694"><ele>570.0</ele><time>2026-05-01T10:44:58.999Z</time></trkpt><trkpt lat="40.922273374695635" lon="9.206946994701704"><ele>570.0</ele><time>2026-05-01T10:44:59.999Z</time></trkpt><trkpt lat="40.92233200845437" lon="9.206846935157348"><ele>570.0</ele><time>2026-05-01T10:45:00.999Z</time></trkpt><trkpt lat="40.92237594895833" lon="9.20672641946926"><ele>570.0</ele><time>2026-05-01T10:45:01.999Z</time></trkpt><trkpt lat="40.922406244257736" lon="9.206585758873413"><ele>570.0</ele><time>2026-05-01T10:45:02.999Z</time></trkpt><trkpt lat="40.922433055819695" lon="9.206433495582624"><ele>570.0</ele><time>2026-05-01T10:45:03.999Z</time></trkpt><trkpt lat="40.922461015881" lon="9.206268658544468"><ele>570.0</ele><time>2026-05-01T10:45:04.999Z</time></trkpt><trkpt lat="40.92248695771873" lon="9.206089558342219"><ele>570.0</ele><time>2026-05-01T10:45:05.999Z</time></trkpt><trkpt lat="40.92250828098893" lon="9.205909049937347"><ele>570.0</ele><time>2026-05-01T10:45:06.999Z</time></trkpt><trkpt lat="40.9225284892755" lon="9.205730847651035"><ele>570.0</ele><time>2026-05-01T10:45:07.999Z</time></trkpt><trkpt lat="40.922549651330115" lon="9.205552691094049"><ele>570.0</ele><time>2026-05-01T10:45:08.999Z</time></trkpt><trkpt lat="40.92257319795938" lon="9.20537448730706"><ele>570.0</ele><time>2026-05-01T10:45:09.999Z</time></trkpt><trkpt lat="40.922597840264764" lon="9.20519289788996"><ele>563.0</ele><time>2026-05-01T10:45:10.999Z</time></trkpt><trkpt lat="40.92262457533043" lon="9.205013559048037"><ele>556.0</ele><time>2026-05-01T10:45:12Z</time></trkpt><trkpt lat="40.92264942466438" lon="9.204830882054695"><ele>549.0</ele><time>2026-05-01T10:45:12.999Z</time></trkpt><trkpt lat="40.922671883239154" lon="9.204648276554945"><ele>542.0</ele><time>2026-05-01T10:45:13.999Z</time></trkpt><trkpt lat="40.92269427970817" lon="9.204462623567618"><ele>541.75</ele><time>2026-05-01T10:45:14.999Z</time></trkpt><trkpt lat="40.92271846088352" lon="9.204277433890713"><ele>541.5</ele><time>2026-05-01T10:45:16Z</time></trkpt><trkpt lat="40.92274499359734" lon="9.204095040623816"><ele>541.25</ele><time>2026-05-01T10:45:17Z</time></trkpt><trkpt lat="40.92277104385543" lon="9.203910164005222"><ele>541.0</ele><time>2026-05-01T10:45:18Z</time></trkpt><trkpt lat="40.922800504614706" lon="9.203730431152085"><ele>540.75</ele><time>2026-05-01T10:45:19Z</time></trkpt><trkpt lat="40.9228306322506" lon="9.203551007049956"><ele>540.5</ele><time>2026-05-01T10:45:20Z</time></trkpt><trkpt lat="40.92285436616906" lon="9.203365482108085"><ele>540.25</ele><time>2026-05-01T10:45:21Z</time></trkpt><trkpt lat="40.92286706423808" lon="9.20317096442952"><ele>540.0</ele><time>2026-05-01T10:45:22Z</time></trkpt><trkpt lat="40.922869774252874" lon="9.202980117970535"><ele>539.75</ele><time>2026-05-01T10:45:23Z</time></trkpt><trkpt lat="40.92287206693973" lon="9.202795063695703"><ele>539.5</ele><time>2026-05-01T10:45:24Z</time></trkpt><trkpt lat="40.92287858465227" lon="9.202613143110337"><ele>539.25</ele><time>2026-05-01T10:45:25Z</time></trkpt><trkpt lat="40.922889088893555" lon="9.202438058716961"><ele>539.0</ele><time>2026-05-01T10:45:26Z</time></trkpt><trkpt lat="40.92289176255321" lon="9.20226678364475"><ele>538.25</ele><time>2026-05-01T10:45:27Z</time></trkpt><trkpt lat="40.92287466980776" lon="9.202104263956102"><ele>537.5</ele><time>2026-05-01T10:45:28Z</time></trkpt><trkpt lat="40.922847336145956" lon="9.201940556099327"><ele>536.75</ele><time>2026-05-01T10:45:29Z</time></trkpt><trkpt lat="40.92286100717935" lon="9.201776603849142"><ele>536.0</ele><time>2026-05-01T10:45:30Z</time></trkpt><trkpt lat="40.92287353109913" lon="9.20161092114931"><ele>536.0</ele><time>2026-05-01T10:45:31Z</time></trkpt><trkpt lat="40.92287701284402" lon="9.201429149970537"><ele>536.0</ele><time>2026-05-01T10:45:32Z</time></trkpt><trkpt lat="40.92290000867191" lon="9.201251757268547"><ele>536.0</ele><time>2026-05-01T10:45:33Z</time></trkpt><trkpt lat="40.922919999299715" lon="9.201072808380534"><ele>536.0</ele><time>2026-05-01T10:45:34Z</time></trkpt><trkpt lat="40.92293919236171" lon="9.200897303148848"><ele>536.0</ele><time>2026-05-01T10:45:35Z</time></trkpt><trkpt lat="40.92295842250792" lon="9.200733757099735"><ele>536.0</ele><time>2026-05-01T10:45:36Z</time></trkpt><trkpt lat="40.92298469536428" lon="9.200582911566054"><ele>536.0</ele><time>2026-05-01T10:45:37Z</time></trkpt><trkpt lat="40.92303746208309" lon="9.200450657426256"><ele>536.0</ele><time>2026-05-01T10:45:38Z</time></trkpt><trkpt lat="40.923089767931955" lon="9.200325676736597"><ele>536.0</ele><time>2026-05-01T10:45:39Z</time></trkpt><trkpt lat="40.92313213771415" lon="9.200195275161136"><ele>536.0</ele><time>2026-05-01T10:45:40Z</time></trkpt><trkpt lat="40.92317501282688" lon="9.200079096620172"><ele>536.0</ele><time>2026-05-01T10:45:41Z</time></trkpt><trkpt lat="40.92318046877538" lon="9.199986846645404"><ele>536.0</ele><time>2026-05-01T10:45:42Z</time></trkpt><trkpt lat="40.923142897883295" lon="9.199914165779049"><ele>536.0</ele><time>2026-05-01T10:45:43Z</time></trkpt><trkpt lat="40.923074716762024" lon="9.199853330649752"><ele>536.0</ele><time>2026-05-01T10:45:44Z</time></trkpt><trkpt lat="40.92300048089648" lon="9.199787112195725"><ele>534.6666666666666</ele><time>2026-05-01T10:45:45Z</time></trkpt><trkpt lat="40.92292084639009" lon="9.199720844673474"><ele>533.3333333333333</ele><time>2026-05-01T10:45:46Z</time></trkpt><trkpt lat="40.92284595802375" lon="9.199654823767423"><ele>532.0</ele><time>2026-05-01T10:45:47Z</time></trkpt><trkpt lat="40.922771788576604" lon="9.19958485959658"><ele>530.6666666666666</ele><time>2026-05-01T10:45:48Z</time></trkpt><trkpt lat="40.922717143635055" lon="9.199501326098392"><ele>529.3333333333334</ele><time>2026-05-01T10:45:49Z</time></trkpt><trkpt lat="40.92268162963549" lon="9.199400004553764"><ele>528.0</ele><time>2026-05-01T10:45:50Z</time></trkpt><trkpt lat="40.922666655026624" lon="9.199288537400708"><ele>528.0</ele><time>2026-05-01T10:45:51Z</time></trkpt><trkpt lat="40.92264474319508" lon="9.199167238608197"><ele>528.0</ele><time>2026-05-01T10:45:52Z</time></trkpt><trkpt lat="40.92262225915931" lon="9.199049716119708"><ele>528.0</ele><time>2026-05-01T10:45:53Z</time></trkpt><trkpt lat="40.92259894766455" lon="9.198927868836098"><ele>528.0</ele><time>2026-05-01T10:45:54Z</time></trkpt><trkpt lat="40.9225774604384" lon="9.198815556701648"><ele>528.0</ele><time>2026-05-01T10:45:55Z</time></trkpt><trkpt lat="40.92255847977046" lon="9.198706447393029"><ele>528.6666666666666</ele><time>2026-05-01T10:45:56Z</time></trkpt><trkpt lat="40.92253999311508" lon="9.198593290493251"><ele>529.3333333333334</ele><time>2026-05-01T10:45:57Z</time></trkpt><trkpt lat="40.922507594814086" lon="9.198473557556925"><ele>530.0</ele><time>2026-05-01T10:45:58Z</time></trkpt><trkpt lat="40.922521495772905" lon="9.198356561147337"><ele>530.6666666666667</ele><time>2026-05-01T10:45:59Z</time></trkpt><trkpt lat="40.92254714564735" lon="9.198246483873524"><ele>531.3333333333334</ele><time>2026-05-01T10:46:00Z</time></trkpt><trkpt lat="40.92258617566137" lon="9.198140962642988"><ele>532.0</ele><time>2026-05-01T10:46:01Z</time></trkpt><trkpt lat="40.92261783329819" lon="9.198046241630667"><ele>532.0</ele><time>2026-05-01T10:46:02Z</time></trkpt><trkpt lat="40.922650240085744" lon="9.197937300464147"><ele>532.0</ele><time>2026-05-01T10:46:04Z</time></trkpt><trkpt lat="40.92267434376216" lon="9.197856271642166"><ele>532.0</ele><time>2026-05-01T10:46:07Z</time></trkpt><trkpt lat="40.922730120652176" lon="9.197971606659785"><ele>532.0</ele><time>2026-05-01T10:46:11Z</time></trkpt><trkpt lat="40.92275548786377" lon="9.198060730789434"><ele>532.0</ele><time>2026-05-01T10:46:12Z</time></trkpt><trkpt lat="40.92275972445375" lon="9.198161457996308"><ele>532.0</ele><time>2026-05-01T10:46:13Z</time></trkpt><trkpt lat="40.92277387026123" lon="9.198274379031323"><ele>532.0</ele><time>2026-05-01T10:46:14Z</time></trkpt><trkpt lat="40.92279038399586" lon="9.19839259915217"><ele>532.0</ele><time>2026-05-01T10:46:15Z</time></trkpt><trkpt lat="40.92280807929012" lon="9.198501377486886"><ele>532.0</ele><time>2026-05-01T10:46:16Z</time></trkpt><trkpt lat="40.922835889380664" lon="9.198582813722787"><ele>532.0</ele><time>2026-05-01T10:46:17Z</time></trkpt><trkpt lat="40.922900451364285" lon="9.198626999239588"><ele>532.0</ele><time>2026-05-01T10:46:18Z</time></trkpt><trkpt lat="40.92296232891533" lon="9.19867254816041"><ele>532.0</ele><time>2026-05-01T10:46:19Z</time></trkpt><trkpt lat="40.92306804482578" lon="9.198630922252029"><ele>532.0</ele><time>2026-05-01T10:46:20Z</time></trkpt><trkpt lat="40.923130029038866" lon="9.198531094834838"><ele>532.0</ele><time>2026-05-01T10:46:21Z</time></trkpt><trkpt lat="40.92315617948279" lon="9.198388166763623"><ele>532.0</ele><time>2026-05-01T10:46:22Z</time></trkpt><trkpt lat="40.92318443916964" lon="9.198286988023229"><ele>532.0</ele><time>2026-05-01T10:46:23Z</time></trkpt><trkpt lat="40.92323402610538" lon="9.198178737834908"><ele>532.0</ele><time>2026-05-01T10:46:24Z</time></trkpt><trkpt lat="40.92324888968789" lon="9.198056351471571"><ele>532.0</ele><time>2026-05-01T10:46:25Z</time></trkpt><trkpt lat="40.923238684142454" lon="9.197937621841653"><ele>532.0</ele><time>2026-05-01T10:46:26Z</time></trkpt><trkpt lat="40.92323640511443" lon="9.197824830721776"><ele>532.0</ele><time>2026-05-01T10:46:27Z</time></trkpt><trkpt lat="40.92324817107694" lon="9.197718207282223"><ele>532.0</ele><time>2026-05-01T10:46:28Z</time></trkpt><trkpt lat="40.92324588232562" lon="9.197612264249468"><ele>532.0</ele><time>2026-05-01T10:46:29Z</time></trkpt><trkpt lat="40.92321728280361" lon="9.197503210098052"><ele>532.0</ele><time>2026-05-01T10:46:30Z</time></trkpt><trkpt lat="40.92321370461587" lon="9.197393096598688"><ele>531.5</ele><time>2026-05-01T10:46:31Z</time></trkpt><trkpt lat="40.92320558586722" lon="9.19729610123643"><ele>531.0</ele><time>2026-05-01T10:46:32Z</time></trkpt><trkpt lat="40.92319508773195" lon="9.197207205694605"><ele>530.5</ele><time>2026-05-01T10:46:33Z</time></trkpt><trkpt lat="40.92320998387315" lon="9.19711970064219"><ele>530.0</ele><time>2026-05-01T10:46:34Z</time></trkpt><trkpt lat="40.92320434527801" lon="9.197036419591628"><ele>529.5</ele><time>2026-05-01T10:46:35Z</time></trkpt><trkpt lat="40.92317973445966" lon="9.196865014493186"><ele>529.0</ele><time>2026-05-01T10:46:37Z</time></trkpt><trkpt lat="40.92317363995388" lon="9.196772273130584"><ele>529.0</ele><time>2026-05-01T10:46:38Z</time></trkpt><trkpt lat="40.9231727720654" lon="9.196670408657177"><ele>529.0</ele><time>2026-05-01T10:46:39Z</time></trkpt><trkpt lat="40.923162040123835" lon="9.196569484460682"><ele>529.0</ele><time>2026-05-01T10:46:40Z</time></trkpt><trkpt lat="40.923158245966" lon="9.196471707504553"><ele>529.0</ele><time>2026-05-01T10:46:41Z</time></trkpt><trkpt lat="40.92314800343775" lon="9.19633349535224"><ele>529.0</ele><time>2026-05-01T10:46:43Z</time></trkpt><trkpt lat="40.92309256903474" lon="9.196263052321441"><ele>529.0</ele><time>2026-05-01T10:46:48Z</time></trkpt><trkpt lat="40.92300512007456" lon="9.19627324383683"><ele>529.0</ele><time>2026-05-01T10:46:52Z</time></trkpt><trkpt lat="40.92293998804189" lon="9.196268339759143"><ele>529.0</ele><time>2026-05-01T10:46:54Z</time></trkpt><trkpt lat="40.92285979602309" lon="9.196199595057964"><ele>529.0</ele><time>2026-05-01T10:46:56Z</time></trkpt><trkpt lat="40.922765368120224" lon="9.196110388153873"><ele>529.0</ele><time>2026-05-01T10:46:58Z</time></trkpt><trkpt lat="40.922724825699405" lon="9.196022609806354"><ele>529.0</ele><time>2026-05-01T10:46:59Z</time></trkpt><trkpt lat="40.92266253271246" lon="9.19597936656513"><ele>529.0</ele><time>2026-05-01T10:47:00Z</time></trkpt><trkpt lat="40.922598768602846" lon="9.195936782882754"><ele>529.0</ele><time>2026-05-01T10:47:01Z</time></trkpt><trkpt lat="40.92249395023414" lon="9.195872160348245"><ele>529.0</ele><time>2026-05-01T10:47:03Z</time></trkpt><trkpt lat="40.92238608379322" lon="9.195849345879829"><ele>529.0</ele><time>2026-05-01T10:47:05Z</time></trkpt><trkpt lat="40.922406652075075" lon="9.195732429363101"><ele>529.0</ele><time>2026-05-01T10:47:09Z</time></trkpt><trkpt lat="40.9223973783371" lon="9.195643930826721"><ele>529.0</ele><time>2026-05-01T10:47:12Z</time></trkpt><trkpt lat="40.92243001218676" lon="9.195551075495759"><ele>528.4</ele><time>2026-05-01T10:47:15Z</time></trkpt><trkpt lat="40.922508499881026" lon="9.195555360174206"><ele>527.8</ele><time>2026-05-01T10:47:17Z</time></trkpt><trkpt lat="40.92258283790776" lon="9.195566546736696"><ele>527.2</ele><time>2026-05-01T10:47:20Z</time></trkpt><trkpt lat="40.9225947483597" lon="9.195470318742371"><ele>526.6</ele><time>2026-05-01T10:47:30Z</time></trkpt><trkpt lat="40.922648660601595" lon="9.195341435741007"><ele>526.0</ele><time>2026-05-01T10:47:33Z</time></trkpt><trkpt lat="40.92269310331613" lon="9.19520061239012"><ele>525.6666666666667</ele><time>2026-05-01T10:47:35Z</time></trkpt><trkpt lat="40.922736364904196" lon="9.195124590567731"><ele>525.3333333333334</ele><time>2026-05-01T10:47:36Z</time></trkpt><trkpt lat="40.9227719755989" lon="9.195036929765802"><ele>525.0</ele><time>2026-05-01T10:47:37Z</time></trkpt><trkpt lat="40.922811258611624" lon="9.194898986451907"><ele>524.6666666666666</ele><time>2026-05-01T10:47:39Z</time></trkpt><trkpt lat="40.92284497607774" lon="9.194758392233014"><ele>524.3333333333333</ele><time>2026-05-01T10:47:42Z</time></trkpt><trkpt lat="40.922847669028485" lon="9.194666661287139"><ele>524.0</ele><time>2026-05-01T10:47:43Z</time></trkpt><trkpt lat="40.92285173859307" lon="9.194566874611468"><ele>523.5</ele><time>2026-05-01T10:47:44Z</time></trkpt><trkpt lat="40.92284774641458" lon="9.19446517816483"><ele>523.0</ele><time>2026-05-01T10:47:45Z</time></trkpt><trkpt lat="40.92285501220721" lon="9.19436575647264"><ele>522.5</ele><time>2026-05-01T10:47:46Z</time></trkpt><trkpt lat="40.92286562326392" lon="9.194281344061517"><ele>522.0</ele><time>2026-05-01T10:47:47Z</time></trkpt><trkpt lat="40.922916752068005" lon="9.194127043742169"><ele>521.5</ele><time>2026-05-01T10:47:49Z</time></trkpt><trkpt lat="40.92293028767337" lon="9.19404115334318"><ele>521.0</ele><time>2026-05-01T10:47:50Z</time></trkpt><trkpt lat="40.922954936237296" lon="9.19390751104402"><ele>521.0</ele><time>2026-05-01T10:47:52Z</time></trkpt><trkpt lat="40.9228936349313" lon="9.193850518403172"><ele>521.0</ele><time>2026-05-01T10:47:57Z</time></trkpt><trkpt lat="40.92283578380199" lon="9.193795765386392"><ele>521.0</ele><time>2026-05-01T10:47:59Z</time></trkpt><trkpt lat="40.92278079283664" lon="9.19400146098076"><ele>521.0</ele><time>2026-05-01T10:48:02Z</time></trkpt><trkpt lat="40.92275003857937" lon="9.194082454425466"><ele>521.0</ele><time>2026-05-01T10:48:19Z</time></trkpt><trkpt lat="40.92269593276681" lon="9.19416382113146"><ele>521.0</ele><time>2026-05-01T10:48:23Z</time></trkpt><trkpt lat="40.92265938887418" lon="9.194269882620825"><ele>521.0</ele><time>2026-05-01T10:48:25Z</time></trkpt><trkpt lat="40.92259608721431" lon="9.194347317832074"><ele>521.0</ele><time>2026-05-01T10:48:27Z</time></trkpt><trkpt lat="40.922649623756975" lon="9.194260353769948"><ele>521.0</ele><time>2026-05-01T10:48:39Z</time></trkpt><trkpt lat="40.92276201841338" lon="9.193812956605344"><ele>521.0</ele><time>2026-05-01T10:48:40Z</time></trkpt><trkpt lat="40.92270104262428" lon="9.193739463453323"><ele>521.0</ele><time>2026-05-01T10:48:42Z</time></trkpt><trkpt lat="40.922663174473854" lon="9.194171404285102"><ele>521.0</ele><time>2026-05-01T10:48:43Z</time></trkpt><trkpt lat="40.92258627144555" lon="9.19396047551092"><ele>520.8333333333333</ele><time>2026-05-01T10:48:45Z</time></trkpt><trkpt lat="40.92260218752473" lon="9.193864726478187"><ele>520.6666666666666</ele><time>2026-05-01T10:48:46Z</time></trkpt><trkpt lat="40.92262094925684" lon="9.193748521455367"><ele>520.5</ele><time>2026-05-01T10:48:47Z</time></trkpt><trkpt lat="40.92263776705039" lon="9.193667572255515"><ele>520.3333333333334</ele><time>2026-05-01T10:48:48Z</time></trkpt><trkpt lat="40.922582479256526" lon="9.193721235372937"><ele>520.1666666666667</ele><time>2026-05-01T10:49:28.999Z</time></trkpt><trkpt lat="40.92251517845117" lon="9.193715661842393"><ele>520.0</ele><time>2026-05-01T10:49:31.999Z</time></trkpt><trkpt lat="40.92229144214607" lon="9.193562468882847"><ele>519.3333333333334</ele><time>2026-05-01T10:49:36.999Z</time></trkpt><trkpt lat="40.92229492783931" lon="9.193457324858858"><ele>518.6666666666667</ele><time>2026-05-01T10:49:38.999Z</time></trkpt><trkpt lat="40.92229432848225" lon="9.193344825280423"><ele>518.0</ele><time>2026-05-01T10:49:40.999Z</time></trkpt><trkpt lat="40.922294903914356" lon="9.1932228823721"><ele>517.3333333333334</ele><time>2026-05-01T10:49:43Z</time></trkpt><trkpt lat="40.92230109881933" lon="9.193134587196724"><ele>516.6666666666666</ele><time>2026-05-01T10:49:47Z</time></trkpt><trkpt lat="40.922315565155095" lon="9.193007764567643"><ele>516.0</ele><time>2026-05-01T10:49:51Z</time></trkpt><trkpt lat="40.92230706276165" lon="9.192891293129778"><ele>511.0</ele><time>2026-05-01T10:49:54Z</time></trkpt><trkpt lat="40.922295350014295" lon="9.192805471789015"><ele>511.0</ele><time>2026-05-01T10:49:56Z</time></trkpt><trkpt lat="40.92227590185226" lon="9.192712406073237"><ele>511.0</ele><time>2026-05-01T10:49:58Z</time></trkpt><trkpt lat="40.92226257774542" lon="9.192620568010176"><ele>511.0</ele><time>2026-05-01T10:50:00Z</time></trkpt><trkpt lat="40.92224163868801" lon="9.1925412635459"><ele>511.0</ele><time>2026-05-01T10:50:02Z</time></trkpt><trkpt lat="40.92224163868801" lon="9.1925412635459"><ele>511.0</ele><time>2026-05-01T10:50:02Z</time></trkpt><trkpt lat="40.92224163868801" lon="9.1925412635459"><ele>511.0</ele><time>2026-05-01T10:50:02Z</time></trkpt><trkpt lat="40.92224163868801" lon="9.1925412635459"><ele>511.0</ele><time>2026-05-01T10:50:02Z</time></trkpt><trkpt lat="40.92224163868801" lon="9.1925412635459"><ele>511.0</ele><time>2026-05-01T10:50:02Z</time></trkpt><trkpt lat="40.92224163868801" lon="9.1925412635459"><ele>511.0</ele><time>2026-05-01T10:50:02Z</time></trkpt><trkpt lat="40.92224163868801" lon="9.1925412635459"><ele>511.0</ele><time>2026-05-01T10:50:02Z</time></trkpt><trkpt lat="40.92224163868801" lon="9.1925412635459"><ele>511.0</ele><time>2026-05-01T10:50:02Z</time></trkpt><trkpt lat="40.92224163868801" lon="9.1925412635459"><ele>511.0</ele><time>2026-05-01T10:50:02Z</time></trkpt></trkseg><trkseg><trkpt lat="40.92220022677508" lon="9.192633097485048"><ele>511.00000000000006</ele><time>2026-05-01T11:13:17.021Z</time></trkpt><trkpt lat="40.922230548146146" lon="9.19255803593441"><ele>511.0</ele><time>2026-05-01T11:13:32.003Z</time></trkpt><trkpt lat="40.922264128448155" lon="9.19248069303647"><ele>511.0</ele><time>2026-05-01T11:13:40.001Z</time></trkpt><trkpt lat="40.92218810379384" lon="9.192555741941646"><ele>511.0</ele><time>2026-05-01T11:16:01.999Z</time></trkpt><trkpt lat="40.92224123344301" lon="9.19262491632587"><ele>511.00000000000006</ele><time>2026-05-01T11:17:54.999Z</time></trkpt><trkpt lat="40.92231226651513" lon="9.192774505049226"><ele>511.0</ele><time>2026-05-01T11:17:56.999Z</time></trkpt><trkpt lat="40.9223264285871" lon="9.19286984990249"><ele>511.0</ele><time>2026-05-01T11:17:58Z</time></trkpt><trkpt lat="40.92229344322424" lon="9.193017212571373"><ele>511.0</ele><time>2026-05-01T11:18:00Z</time></trkpt><trkpt lat="40.92233559444118" lon="9.193104491395916"><ele>511.0</ele><time>2026-05-01T11:18:02Z</time></trkpt><trkpt lat="40.9222785837619" lon="9.19317108645368"><ele>511.0</ele><time>2026-05-01T11:18:06Z</time></trkpt><trkpt lat="40.92217450455425" lon="9.193164746542429"><ele>511.0</ele><time>2026-05-01T11:18:09Z</time></trkpt><trkpt lat="40.922094590343846" lon="9.193192734622073"><ele>511.0</ele><time>2026-05-01T11:18:11Z</time></trkpt><trkpt lat="40.922002800893516" lon="9.193171437877634"><ele>511.0</ele><time>2026-05-01T11:18:13Z</time></trkpt><trkpt lat="40.92189465354853" lon="9.193174984826685"><ele>511.0</ele><time>2026-05-01T11:18:15Z</time></trkpt><trkpt lat="40.92178136854533" lon="9.19319289925068"><ele>511.0</ele><time>2026-05-01T11:18:17Z</time></trkpt><trkpt lat="40.921714832106545" lon="9.193203996879854"><ele>511.0</ele><time>2026-05-01T11:18:18Z</time></trkpt><trkpt lat="40.92160840296625" lon="9.193226649245455"><ele>510.83333333333337</ele><time>2026-05-01T11:18:20Z</time></trkpt><trkpt lat="40.921544722053525" lon="9.193248523999923"><ele>510.6666666666667</ele><time>2026-05-01T11:18:21Z</time></trkpt><trkpt lat="40.92143713694407" lon="9.19326664561494"><ele>510.5</ele><time>2026-05-01T11:18:23Z</time></trkpt><trkpt lat="40.92132361140976" lon="9.193233418515641"><ele>510.33333333333337</ele><time>2026-05-01T11:18:25Z</time></trkpt><trkpt lat="40.92123795299843" lon="9.193220336608496"><ele>510.1666666666667</ele><time>2026-05-01T11:18:27Z</time></trkpt><trkpt lat="40.92117465081816" lon="9.193196038713491"><ele>510.0</ele><time>2026-05-01T11:18:32Z</time></trkpt><trkpt lat="40.92111276745275" lon="9.193180045760322"><ele>510.0</ele><time>2026-05-01T11:18:35Z</time></trkpt><trkpt lat="40.921067600325095" lon="9.193370312966795"><ele>510.0</ele><time>2026-05-01T11:18:36Z</time></trkpt><trkpt lat="40.92104355589385" lon="9.19346624861529"><ele>510.0</ele><time>2026-05-01T11:18:37.999Z</time></trkpt><trkpt lat="40.92099815045865" lon="9.193567736279537"><ele>510.0</ele><time>2026-05-01T11:18:39.999Z</time></trkpt><trkpt lat="40.92092132376181" lon="9.193686379287932"><ele>510.0</ele><time>2026-05-01T11:18:41.999Z</time></trkpt><trkpt lat="40.920875512771744" lon="9.193771181481305"><ele>510.5</ele><time>2026-05-01T11:18:42.999Z</time></trkpt><trkpt lat="40.92083598676143" lon="9.193851499993235"><ele>511.0</ele><time>2026-05-01T11:18:43.999Z</time></trkpt><trkpt lat="40.92079458864307" lon="9.193933701443898"><ele>511.5</ele><time>2026-05-01T11:18:44.999Z</time></trkpt><trkpt lat="40.92075321622139" lon="9.194019059564724"><ele>512.0</ele><time>2026-05-01T11:18:45.999Z</time></trkpt><trkpt lat="40.920694679084974" lon="9.194097782055666"><ele>512.5</ele><time>2026-05-01T11:18:46.999Z</time></trkpt><trkpt lat="40.92065236979772" lon="9.194189958639233"><ele>513.0</ele><time>2026-05-01T11:18:47.999Z</time></trkpt><trkpt lat="40.92061572484787" lon="9.194286783956578"><ele>513.0</ele><time>2026-05-01T11:18:48.999Z</time></trkpt><trkpt lat="40.92058425161389" lon="9.194385871763853"><ele>513.0</ele><time>2026-05-01T11:18:49.999Z</time></trkpt><trkpt lat="40.920556599018575" lon="9.194482958840107"><ele>513.0</ele><time>2026-05-01T11:18:50.999Z</time></trkpt><trkpt lat="40.92053161946008" lon="9.194575225708602"><ele>513.0</ele><time>2026-05-01T11:18:51.999Z</time></trkpt><trkpt lat="40.92051361886852" lon="9.194696406224818"><ele>513.0</ele><time>2026-05-01T11:18:53.999Z</time></trkpt><trkpt lat="40.92044953292094" lon="9.194693096782348"><ele>513.0</ele><time>2026-05-01T11:18:55.999Z</time></trkpt><trkpt lat="40.92037524973177" lon="9.19458901732475"><ele>513.0</ele><time>2026-05-01T11:18:57.999Z</time></trkpt><trkpt lat="40.92027818397171" lon="9.194484472880076"><ele>513.0</ele><time>2026-05-01T11:18:59.999Z</time></trkpt><trkpt lat="40.92024055221545" lon="9.194404605144062"><ele>513.0</ele><time>2026-05-01T11:19:00.999Z</time></trkpt><trkpt lat="40.920192247267906" lon="9.194334004781597"><ele>513.0</ele><time>2026-05-01T11:19:01.999Z</time></trkpt><trkpt lat="40.920148671095454" lon="9.194262227913356"><ele>513.0</ele><time>2026-05-01T11:19:02.999Z</time></trkpt><trkpt lat="40.92012475917913" lon="9.194171881332057"><ele>513.0</ele><time>2026-05-01T11:19:03.999Z</time></trkpt><trkpt lat="40.920123515978254" lon="9.194075587992776"><ele>511.5</ele><time>2026-05-01T11:19:04.999Z</time></trkpt><trkpt lat="40.92010570575354" lon="9.193988737466851"><ele>510.0</ele><time>2026-05-01T11:19:05.999Z</time></trkpt><trkpt lat="40.92005702441419" lon="9.193917817233642"><ele>508.5</ele><time>2026-05-01T11:19:06.999Z</time></trkpt><trkpt lat="40.92000078388046" lon="9.19387213518633"><ele>507.0</ele><time>2026-05-01T11:19:07.999Z</time></trkpt><trkpt lat="40.919907387666136" lon="9.193775041863134"><ele>505.5</ele><time>2026-05-01T11:19:09.999Z</time></trkpt><trkpt lat="40.919807707909015" lon="9.1936809039287"><ele>504.0</ele><time>2026-05-01T11:19:11.999Z</time></trkpt><trkpt lat="40.9197736335322" lon="9.193602560071785"><ele>503.2857142857143</ele><time>2026-05-01T11:19:12.999Z</time></trkpt><trkpt lat="40.91971901269609" lon="9.193550781616498"><ele>502.57142857142856</ele><time>2026-05-01T11:19:13.999Z</time></trkpt><trkpt lat="40.91966109944376" lon="9.193502277442164"><ele>501.8571428571429</ele><time>2026-05-01T11:19:14.999Z</time></trkpt><trkpt lat="40.91960409780675" lon="9.193457128659283"><ele>501.14285714285717</ele><time>2026-05-01T11:19:15.999Z</time></trkpt><trkpt lat="40.91953961301409" lon="9.193433284696424"><ele>500.42857142857144</ele><time>2026-05-01T11:19:16.999Z</time></trkpt><trkpt lat="40.91947709388641" lon="9.193391022776208"><ele>499.7142857142858</ele><time>2026-05-01T11:19:17.999Z</time></trkpt><trkpt lat="40.91939488958504" lon="9.19333752840496"><ele>499.00000000000006</ele><time>2026-05-01T11:19:18.999Z</time></trkpt><trkpt lat="40.91931080254659" lon="9.19329418559207"><ele>500.00000000000006</ele><time>2026-05-01T11:19:19.999Z</time></trkpt><trkpt lat="40.919233671456944" lon="9.193231819737065"><ele>501.0</ele><time>2026-05-01T11:19:20.999Z</time></trkpt><trkpt lat="40.919152379767304" lon="9.193187490158202"><ele>502.0</ele><time>2026-05-01T11:19:21.999Z</time></trkpt><trkpt lat="40.91907497693465" lon="9.19314664786392"><ele>503.0</ele><time>2026-05-01T11:19:22.999Z</time></trkpt><trkpt lat="40.91899974711803" lon="9.193104955752565"><ele>504.00000000000006</ele><time>2026-05-01T11:19:23.999Z</time></trkpt><trkpt lat="40.91892196485243" lon="9.193076539337158"><ele>505.0</ele><time>2026-05-01T11:19:24.999Z</time></trkpt><trkpt lat="40.91886243490828" lon="9.193008433331142"><ele>505.0</ele><time>2026-05-01T11:19:25.999Z</time></trkpt><trkpt lat="40.918806962930326" lon="9.192928795377735"><ele>505.0</ele><time>2026-05-01T11:19:26.999Z</time></trkpt><trkpt lat="40.91874807505719" lon="9.192840518249168"><ele>505.0</ele><time>2026-05-01T11:19:27.999Z</time></trkpt><trkpt lat="40.91868461305318" lon="9.192744515082655"><ele>505.0</ele><time>2026-05-01T11:19:28.999Z</time></trkpt><trkpt lat="40.918614940290915" lon="9.192641642599444"><ele>505.0</ele><time>2026-05-01T11:19:29.999Z</time></trkpt><trkpt lat="40.91853328260932" lon="9.192552910027565"><ele>505.0</ele><time>2026-05-01T11:19:30.999Z</time></trkpt><trkpt lat="40.91843648446339" lon="9.192489860487855"><ele>505.0</ele><time>2026-05-01T11:19:31.999Z</time></trkpt><trkpt lat="40.9183490422642" lon="9.192398831371744"><ele>505.0</ele><time>2026-05-01T11:19:32.999Z</time></trkpt><trkpt lat="40.91825519454847" lon="9.192316660216985"><ele>505.0</ele><time>2026-05-01T11:19:33.999Z</time></trkpt><trkpt lat="40.918169097448725" lon="9.192220390123982"><ele>505.0</ele><time>2026-05-01T11:19:34.999Z</time></trkpt><trkpt lat="40.91808106042522" lon="9.192097757315462"><ele>506.75</ele><time>2026-05-01T11:19:35.999Z</time></trkpt><trkpt lat="40.917986149006275" lon="9.191976177737958"><ele>508.5</ele><time>2026-05-01T11:19:36.999Z</time></trkpt><trkpt lat="40.91788226240688" lon="9.191863533588466"><ele>510.25</ele><time>2026-05-01T11:19:37.999Z</time></trkpt><trkpt lat="40.9177811042681" lon="9.191787704759127"><ele>512.0</ele><time>2026-05-01T11:19:38.999Z</time></trkpt><trkpt lat="40.917727163934266" lon="9.191684010328377"><ele>511.99999999999994</ele><time>2026-05-01T11:19:39.999Z</time></trkpt><trkpt lat="40.91766812916601" lon="9.191597180034695"><ele>512.0</ele><time>2026-05-01T11:19:40.999Z</time></trkpt><trkpt lat="40.91760225580461" lon="9.191521596476344"><ele>512.0</ele><time>2026-05-01T11:19:41.999Z</time></trkpt><trkpt lat="40.91756935852296" lon="9.191417136002713"><ele>512.0</ele><time>2026-05-01T11:19:42.999Z</time></trkpt><trkpt lat="40.91755031364766" lon="9.191330775302648"><ele>511.99999999999994</ele><time>2026-05-01T11:19:43.999Z</time></trkpt><trkpt lat="40.91753448835602" lon="9.191224762383975"><ele>512.0</ele><time>2026-05-01T11:19:44.999Z</time></trkpt><trkpt lat="40.917516803672726" lon="9.191103577700428"><ele>515.3333333333333</ele><time>2026-05-01T11:19:45.999Z</time></trkpt><trkpt lat="40.91747724752257" lon="9.190988597773778"><ele>518.6666666666666</ele><time>2026-05-01T11:19:46.999Z</time></trkpt><trkpt lat="40.917463585539224" lon="9.190876043415699"><ele>522.0</ele><time>2026-05-01T11:19:47.999Z</time></trkpt><trkpt lat="40.91750474365198" lon="9.190777308305169"><ele>525.3333333333334</ele><time>2026-05-01T11:19:48.999Z</time></trkpt><trkpt lat="40.91751980537308" lon="9.190663496074142"><ele>528.6666666666667</ele><time>2026-05-01T11:19:49.999Z</time></trkpt><trkpt lat="40.917538847805595" lon="9.190558731843113"><ele>532.0</ele><time>2026-05-01T11:19:50.999Z</time></trkpt><trkpt lat="40.917556813642214" lon="9.190475768114775"><ele>532.4</ele><time>2026-05-01T11:19:51.999Z</time></trkpt><trkpt lat="40.917529236758355" lon="9.190353131037988"><ele>532.8000000000001</ele><time>2026-05-01T11:19:53.999Z</time></trkpt><trkpt lat="40.917496964524176" lon="9.19018661932502"><ele>533.2</ele><time>2026-05-01T11:19:55.999Z</time></trkpt><trkpt lat="40.917466852945154" lon="9.190086018462843"><ele>533.6</ele><time>2026-05-01T11:19:56.999Z</time></trkpt><trkpt lat="40.91743936836123" lon="9.18997346989198"><ele>534.0</ele><time>2026-05-01T11:19:57.999Z</time></trkpt><trkpt lat="40.91742684527934" lon="9.189867599474887"><ele>534.2</ele><time>2026-05-01T11:19:58.999Z</time></trkpt><trkpt lat="40.91741811113453" lon="9.189752689726257"><ele>534.4</ele><time>2026-05-01T11:19:59.999Z</time></trkpt><trkpt lat="40.917412236672774" lon="9.189637102078638"><ele>534.6</ele><time>2026-05-01T11:20:00.999Z</time></trkpt><trkpt lat="40.91739326102124" lon="9.189516171604152"><ele>534.8</ele><time>2026-05-01T11:20:01.999Z</time></trkpt><trkpt lat="40.91739248624416" lon="9.189384148955648"><ele>535.0</ele><time>2026-05-01T11:20:02.999Z</time></trkpt><trkpt lat="40.91738936948168" lon="9.18926742824865"><ele>535.0</ele><time>2026-05-01T11:20:03.999Z</time></trkpt><trkpt lat="40.91738385836801" lon="9.189167057479045"><ele>535.0</ele><time>2026-05-01T11:20:04.999Z</time></trkpt><trkpt lat="40.917369424812875" lon="9.189065149038505"><ele>535.0</ele><time>2026-05-01T11:20:05.999Z</time></trkpt><trkpt lat="40.91736075301004" lon="9.188944633449799"><ele>535.0</ele><time>2026-05-01T11:20:06.999Z</time></trkpt><trkpt lat="40.91736458932395" lon="9.188789673209682"><ele>535.0</ele><time>2026-05-01T11:20:07.999Z</time></trkpt><trkpt lat="40.917383859471414" lon="9.18861922579532"><ele>535.25</ele><time>2026-05-01T11:20:08.999Z</time></trkpt><trkpt lat="40.91740033404795" lon="9.18843645935802"><ele>535.5</ele><time>2026-05-01T11:20:09.999Z</time></trkpt><trkpt lat="40.91742302248084" lon="9.188265782039663"><ele>535.75</ele><time>2026-05-01T11:20:10.999Z</time></trkpt><trkpt lat="40.91741912316856" lon="9.188122716687733"><ele>536.0</ele><time>2026-05-01T11:20:11.999Z</time></trkpt><trkpt lat="40.91742100736059" lon="9.188018368128471"><ele>534.5</ele><time>2026-05-01T11:20:12.999Z</time></trkpt><trkpt lat="40.91736743933975" lon="9.187844360595816"><ele>533.0</ele><time>2026-05-01T11:20:14.999Z</time></trkpt><trkpt lat="40.917316240209885" lon="9.187731046415452"><ele>531.5</ele><time>2026-05-01T11:20:15.999Z</time></trkpt><trkpt lat="40.91725711498945" lon="9.187595641211647"><ele>530.0</ele><time>2026-05-01T11:20:17Z</time></trkpt><trkpt lat="40.917191005133716" lon="9.187454483675797"><ele>529.4</ele><time>2026-05-01T11:20:18Z</time></trkpt><trkpt lat="40.91712460541194" lon="9.187333910938863"><ele>528.8</ele><time>2026-05-01T11:20:19Z</time></trkpt><trkpt lat="40.917086433061726" lon="9.18721380469847"><ele>528.2</ele><time>2026-05-01T11:20:20Z</time></trkpt><trkpt lat="40.917039814297794" lon="9.187106906820937"><ele>527.6</ele><time>2026-05-01T11:20:21Z</time></trkpt><trkpt lat="40.916997215212945" lon="9.187009122203525"><ele>527.0</ele><time>2026-05-01T11:20:22Z</time></trkpt><trkpt lat="40.91699434405073" lon="9.186882812942642"><ele>527.0</ele><time>2026-05-01T11:20:23Z</time></trkpt><trkpt lat="40.91698653454073" lon="9.186771772915897"><ele>527.0</ele><time>2026-05-01T11:20:24Z</time></trkpt><trkpt lat="40.91701231304074" lon="9.18668619319978"><ele>527.0</ele><time>2026-05-01T11:20:25Z</time></trkpt><trkpt lat="40.917051160502005" lon="9.186520755895822"><ele>527.0</ele><time>2026-05-01T11:20:27Z</time></trkpt><trkpt lat="40.91709169038022" lon="9.18643572018868"><ele>527.0</ele><time>2026-05-01T11:20:28Z</time></trkpt><trkpt lat="40.91712889818833" lon="9.186362567830221"><ele>527.0</ele><time>2026-05-01T11:20:29Z</time></trkpt><trkpt lat="40.91719065325417" lon="9.186217335920558"><ele>527.3333333333333</ele><time>2026-05-01T11:20:31Z</time></trkpt><trkpt lat="40.91725360112953" lon="9.186175024991497"><ele>527.6666666666666</ele><time>2026-05-01T11:20:32Z</time></trkpt><trkpt lat="40.91731126746037" lon="9.186129270347895"><ele>528.0</ele><time>2026-05-01T11:20:33Z</time></trkpt><trkpt lat="40.91740142294914" lon="9.186011330232692"><ele>528.3333333333334</ele><time>2026-05-01T11:20:35Z</time></trkpt><trkpt lat="40.917445133548966" lon="9.185918217713056"><ele>528.6666666666667</ele><time>2026-05-01T11:20:36Z</time></trkpt><trkpt lat="40.917492382998205" lon="9.185834283827033"><ele>529.0</ele><time>2026-05-01T11:20:37Z</time></trkpt><trkpt lat="40.9175426244408" lon="9.18574698387626"><ele>525.2</ele><time>2026-05-01T11:20:38Z</time></trkpt><trkpt lat="40.91759312195144" lon="9.185679646261905"><ele>521.4</ele><time>2026-05-01T11:20:39Z</time></trkpt><trkpt lat="40.91764903557136" lon="9.185559856212869"><ele>517.6</ele><time>2026-05-01T11:20:41Z</time></trkpt><trkpt lat="40.91770464320768" lon="9.185431290806497"><ele>513.8</ele><time>2026-05-01T11:20:43Z</time></trkpt><trkpt lat="40.917717797231404" lon="9.185340414946424"><ele>510.0</ele><time>2026-05-01T11:20:44Z</time></trkpt><trkpt lat="40.917738043352884" lon="9.185189264400007"><ele>509.3333333333333</ele><time>2026-05-01T11:20:46Z</time></trkpt><trkpt lat="40.91777312057159" lon="9.18503216618139"><ele>508.66666666666663</ele><time>2026-05-01T11:20:48Z</time></trkpt><trkpt lat="40.917808216755155" lon="9.184956182038947"><ele>508.0</ele><time>2026-05-01T11:20:49Z</time></trkpt><trkpt lat="40.91783231095322" lon="9.18487194792473"><ele>507.3333333333333</ele><time>2026-05-01T11:20:50Z</time></trkpt><trkpt lat="40.91783357889365" lon="9.184766611572696"><ele>506.66666666666663</ele><time>2026-05-01T11:20:51Z</time></trkpt><trkpt lat="40.91785686845237" lon="9.184676636168053"><ele>506.0</ele><time>2026-05-01T11:20:51.999Z</time></trkpt><trkpt lat="40.917884260513205" lon="9.184580488452877"><ele>505.8</ele><time>2026-05-01T11:20:52.999Z</time></trkpt><trkpt lat="40.91790296965649" lon="9.18447206090975"><ele>505.6</ele><time>2026-05-01T11:20:53.999Z</time></trkpt><trkpt lat="40.91795291204722" lon="9.18437545527856"><ele>505.4</ele><time>2026-05-01T11:20:54.999Z</time></trkpt><trkpt lat="40.91798610436838" lon="9.1842899840609"><ele>505.2</ele><time>2026-05-01T11:20:55.999Z</time></trkpt><trkpt lat="40.91808017237973" lon="9.184209079790467"><ele>505.0</ele><time>2026-05-01T11:20:57.999Z</time></trkpt><trkpt lat="40.91813009338528" lon="9.184084651017065"><ele>504.6</ele><time>2026-05-01T11:20:59.999Z</time></trkpt><trkpt lat="40.91816548843462" lon="9.183897685273362"><ele>504.2</ele><time>2026-05-01T11:21:01.999Z</time></trkpt><trkpt lat="40.91818122192348" lon="9.183779075049776"><ele>503.79999999999995</ele><time>2026-05-01T11:21:02.999Z</time></trkpt><trkpt lat="40.91816706144834" lon="9.183675492813203"><ele>503.4</ele><time>2026-05-01T11:21:03.999Z</time></trkpt><trkpt lat="40.91814571741699" lon="9.183559469037109"><ele>503.0</ele><time>2026-05-01T11:21:04.999Z</time></trkpt><trkpt lat="40.91815536326418" lon="9.183446140701005"><ele>502.99999999999994</ele><time>2026-05-01T11:21:05.999Z</time></trkpt><trkpt lat="40.918139711841434" lon="9.183337782138416"><ele>503.0</ele><time>2026-05-01T11:21:06.999Z</time></trkpt><trkpt lat="40.91814044987505" lon="9.183241721327006"><ele>503.0</ele><time>2026-05-01T11:21:07.999Z</time></trkpt><trkpt lat="40.91811786072486" lon="9.183136804636536"><ele>503.0</ele><time>2026-05-01T11:21:08.999Z</time></trkpt><trkpt lat="40.91809313220035" lon="9.18303481043293"><ele>502.99999999999994</ele><time>2026-05-01T11:21:09.999Z</time></trkpt><trkpt lat="40.918051528835505" lon="9.182926520102633"><ele>503.0</ele><time>2026-05-01T11:21:10.999Z</time></trkpt><trkpt lat="40.917997868000384" lon="9.182822440927849"><ele>503.3333333333333</ele><time>2026-05-01T11:21:11.999Z</time></trkpt><trkpt lat="40.91794552281167" lon="9.182729848486836"><ele>503.66666666666663</ele><time>2026-05-01T11:21:12.999Z</time></trkpt><trkpt lat="40.91789203177725" lon="9.182640315007013"><ele>504.0</ele><time>2026-05-01T11:21:13.999Z</time></trkpt><trkpt lat="40.91784154234901" lon="9.182564312518544"><ele>504.33333333333337</ele><time>2026-05-01T11:21:14.999Z</time></trkpt><trkpt lat="40.91778164479436" lon="9.18249537186644"><ele>504.6666666666667</ele><time>2026-05-01T11:21:18.999Z</time></trkpt><trkpt lat="40.917758584621225" lon="9.182402426052741"><ele>505.0</ele><time>2026-05-01T11:21:20.999Z</time></trkpt><trkpt lat="40.91777521324524" lon="9.182305525769046"><ele>505.6</ele><time>2026-05-01T11:21:23.999Z</time></trkpt><trkpt lat="40.9176775461932" lon="9.182181943195692"><ele>506.2</ele><time>2026-05-01T11:21:31.999Z</time></trkpt><trkpt lat="40.917612140855425" lon="9.182180412030293"><ele>506.79999999999995</ele><time>2026-05-01T11:21:32.999Z</time></trkpt><trkpt lat="40.917481398944474" lon="9.18216541783399"><ele>507.4</ele><time>2026-05-01T11:21:34.999Z</time></trkpt><trkpt lat="40.91740954708224" lon="9.182150768168274"><ele>508.0</ele><time>2026-05-01T11:21:35.999Z</time></trkpt><trkpt lat="40.91734330146786" lon="9.18213016242196"><ele>506.83333333333337</ele><time>2026-05-01T11:21:36.999Z</time></trkpt><trkpt lat="40.91727548894722" lon="9.182113050403984"><ele>505.6666666666667</ele><time>2026-05-01T11:21:37.999Z</time></trkpt><trkpt lat="40.917198922814514" lon="9.182091809784687"><ele>504.5</ele><time>2026-05-01T11:21:38.999Z</time></trkpt><trkpt lat="40.917119400047504" lon="9.182039316798594"><ele>503.33333333333337</ele><time>2026-05-01T11:21:39.999Z</time></trkpt><trkpt lat="40.917045241398746" lon="9.181971871862721"><ele>502.1666666666667</ele><time>2026-05-01T11:21:40.999Z</time></trkpt><trkpt lat="40.917001669817544" lon="9.18183417058845"><ele>501.0</ele><time>2026-05-01T11:21:41.999Z</time></trkpt><trkpt lat="40.916909425358625" lon="9.181739417764412"><ele>501.0</ele><time>2026-05-01T11:21:42.999Z</time></trkpt><trkpt lat="40.9168313993297" lon="9.181652910945678"><ele>501.0</ele><time>2026-05-01T11:21:43.999Z</time></trkpt><trkpt lat="40.916784221974524" lon="9.181574941219218"><ele>501.0</ele><time>2026-05-01T11:21:44.999Z</time></trkpt><trkpt lat="40.916753113504846" lon="9.181440611730121"><ele>501.0</ele><time>2026-05-01T11:21:46.999Z</time></trkpt><trkpt lat="40.91679098444595" lon="9.18127006103148"><ele>501.0</ele><time>2026-05-01T11:21:48.999Z</time></trkpt><trkpt lat="40.91674200270683" lon="9.18114377503371"><ele>498.0</ele><time>2026-05-01T11:21:50.999Z</time></trkpt><trkpt lat="40.916664622976306" lon="9.181093753883374"><ele>495.0</ele><time>2026-05-01T11:21:51.999Z</time></trkpt><trkpt lat="40.91656221739129" lon="9.181006513385917"><ele>492.0</ele><time>2026-05-01T11:21:52.999Z</time></trkpt><trkpt lat="40.91644006190608" lon="9.180928530356411"><ele>489.0</ele><time>2026-05-01T11:21:53.999Z</time></trkpt><trkpt lat="40.91633680794361" lon="9.180856147640542"><ele>489.0</ele><time>2026-05-01T11:21:54.999Z</time></trkpt><trkpt lat="40.916230078982174" lon="9.180809641843187"><ele>489.0</ele><time>2026-05-01T11:21:55.999Z</time></trkpt><trkpt lat="40.91612150275075" lon="9.180726454008118"><ele>489.0</ele><time>2026-05-01T11:21:56.999Z</time></trkpt><trkpt lat="40.91601239327998" lon="9.180664891294509"><ele>489.0</ele><time>2026-05-01T11:21:57.999Z</time></trkpt><trkpt lat="40.91591402228235" lon="9.180607777716702"><ele>487.2</ele><time>2026-05-01T11:21:58.999Z</time></trkpt><trkpt lat="40.91583175646981" lon="9.180558234845368"><ele>485.4</ele><time>2026-05-01T11:21:59.999Z</time></trkpt><trkpt lat="40.91574803029878" lon="9.180502269778616"><ele>483.6</ele><time>2026-05-01T11:22:00.999Z</time></trkpt><trkpt lat="40.915668063681395" lon="9.180446040165418"><ele>481.8</ele><time>2026-05-01T11:22:01.999Z</time></trkpt><trkpt lat="40.91558262520641" lon="9.180383929956722"><ele>480.0</ele><time>2026-05-01T11:22:02.999Z</time></trkpt><trkpt lat="40.91549967565061" lon="9.180321031523267"><ele>480.0</ele><time>2026-05-01T11:22:03.999Z</time></trkpt><trkpt lat="40.915417541731614" lon="9.180255531069703"><ele>480.0</ele><time>2026-05-01T11:22:04.999Z</time></trkpt><trkpt lat="40.91533924619829" lon="9.180184215883635"><ele>480.0</ele><time>2026-05-01T11:22:05.999Z</time></trkpt><trkpt lat="40.91526457451553" lon="9.180105600682952"><ele>480.0</ele><time>2026-05-01T11:22:06.999Z</time></trkpt><trkpt lat="40.91519116412027" lon="9.180018376557515"><ele>480.0</ele><time>2026-05-01T11:22:08Z</time></trkpt><trkpt lat="40.91511134076445" lon="9.179947154927653"><ele>481.4</ele><time>2026-05-01T11:22:09Z</time></trkpt><trkpt lat="40.915032389220045" lon="9.179859534718963"><ele>482.8</ele><time>2026-05-01T11:22:10Z</time></trkpt><trkpt lat="40.914938971581364" lon="9.17979273268059"><ele>484.20000000000005</ele><time>2026-05-01T11:22:11Z</time></trkpt><trkpt lat="40.914834399583086" lon="9.179741099877237"><ele>485.6</ele><time>2026-05-01T11:22:12Z</time></trkpt><trkpt lat="40.914740842489934" lon="9.179680295114402"><ele>487.0</ele><time>2026-05-01T11:22:13Z</time></trkpt><trkpt lat="40.91464187881117" lon="9.179625454780068"><ele>489.0</ele><time>2026-05-01T11:22:14Z</time></trkpt><trkpt lat="40.914549451218925" lon="9.179566850465735"><ele>491.00000000000006</ele><time>2026-05-01T11:22:15Z</time></trkpt><trkpt lat="40.914474189522075" lon="9.179499945402375"><ele>493.00000000000006</ele><time>2026-05-01T11:22:16Z</time></trkpt><trkpt lat="40.914397430020216" lon="9.179416635811847"><ele>495.0</ele><time>2026-05-01T11:22:17Z</time></trkpt><trkpt lat="40.91430710658221" lon="9.17931877583049"><ele>497.0</ele><time>2026-05-01T11:22:18Z</time></trkpt><trkpt lat="40.91421732734593" lon="9.17921895546152"><ele>497.16666666666663</ele><time>2026-05-01T11:22:19Z</time></trkpt><trkpt lat="40.914134768085724" lon="9.179130809563768"><ele>497.3333333333333</ele><time>2026-05-01T11:22:20Z</time></trkpt><trkpt lat="40.91406208786965" lon="9.179059157998333"><ele>497.5</ele><time>2026-05-01T11:22:21Z</time></trkpt><trkpt lat="40.913998502588115" lon="9.178993014059724"><ele>497.66666666666663</ele><time>2026-05-01T11:22:22Z</time></trkpt><trkpt lat="40.91394953054999" lon="9.178925292281056"><ele>497.8333333333333</ele><time>2026-05-01T11:22:23Z</time></trkpt><trkpt lat="40.9139092772166" lon="9.178842206468449"><ele>498.0</ele><time>2026-05-01T11:22:24Z</time></trkpt><trkpt lat="40.913899464460414" lon="9.178754973244672"><ele>498.1666666666667</ele><time>2026-05-01T11:22:25Z</time></trkpt><trkpt lat="40.91388697415286" lon="9.178649328380779"><ele>498.33333333333337</ele><time>2026-05-01T11:22:26Z</time></trkpt><trkpt lat="40.913856053554234" lon="9.178496800938692"><ele>498.5</ele><time>2026-05-01T11:22:28Z</time></trkpt><trkpt lat="40.91384702342591" lon="9.178393658231805"><ele>498.6666666666667</ele><time>2026-05-01T11:22:29Z</time></trkpt><trkpt lat="40.91383448245232" lon="9.178287466080207"><ele>498.83333333333337</ele><time>2026-05-01T11:22:30Z</time></trkpt><trkpt lat="40.91382227618381" lon="9.178171682310419"><ele>499.0</ele><time>2026-05-01T11:22:31Z</time></trkpt><trkpt lat="40.91381120647058" lon="9.178072098782483"><ele>499.00000000000006</ele><time>2026-05-01T11:22:32Z</time></trkpt><trkpt lat="40.91379817608848" lon="9.177963541215766"><ele>499.0</ele><time>2026-05-01T11:22:33Z</time></trkpt><trkpt lat="40.91377652512825" lon="9.17784834997363"><ele>499.0</ele><time>2026-05-01T11:22:34Z</time></trkpt><trkpt lat="40.91375491357569" lon="9.177743341007618"><ele>499.0</ele><time>2026-05-01T11:22:35Z</time></trkpt><trkpt lat="40.913741334992245" lon="9.177648932500329"><ele>499.00000000000006</ele><time>2026-05-01T11:22:36Z</time></trkpt><trkpt lat="40.91376447417528" lon="9.177496870088532"><ele>499.0</ele><time>2026-05-01T11:22:38Z</time></trkpt><trkpt lat="40.91379101044823" lon="9.177366609291026"><ele>497.83333333333337</ele><time>2026-05-01T11:22:40Z</time></trkpt><trkpt lat="40.913840094047046" lon="9.177229053029766"><ele>496.6666666666667</ele><time>2026-05-01T11:22:42Z</time></trkpt><trkpt lat="40.91387495163349" lon="9.177148100927818"><ele>495.5</ele><time>2026-05-01T11:22:43Z</time></trkpt><trkpt lat="40.913897400810505" lon="9.177051366796876"><ele>494.33333333333337</ele><time>2026-05-01T11:22:44Z</time></trkpt><trkpt lat="40.91391512871389" lon="9.176969489382698"><ele>493.1666666666667</ele><time>2026-05-01T11:22:45Z</time></trkpt><trkpt lat="40.91389477466666" lon="9.17684208688989"><ele>492.0</ele><time>2026-05-01T11:22:47Z</time></trkpt><trkpt lat="40.91384682706448" lon="9.176787899156588"><ele>492.0</ele><time>2026-05-01T11:22:48Z</time></trkpt><trkpt lat="40.913811270056414" lon="9.176693440019417"><ele>492.00000000000006</ele><time>2026-05-01T11:22:49Z</time></trkpt><trkpt lat="40.913761723892506" lon="9.176564548318726"><ele>492.00000000000006</ele><time>2026-05-01T11:22:50Z</time></trkpt><trkpt lat="40.913705411692064" lon="9.176408066183987"><ele>492.0</ele><time>2026-05-01T11:22:51Z</time></trkpt><trkpt lat="40.913656471256765" lon="9.176253878212723"><ele>492.0</ele><time>2026-05-01T11:22:52Z</time></trkpt><trkpt lat="40.91362265298304" lon="9.17611861050345"><ele>490.75</ele><time>2026-05-01T11:22:53Z</time></trkpt><trkpt lat="40.91357118131816" lon="9.17595790491266"><ele>489.5</ele><time>2026-05-01T11:22:54Z</time></trkpt><trkpt lat="40.91354036751467" lon="9.175796304072916"><ele>488.25</ele><time>2026-05-01T11:22:55Z</time></trkpt><trkpt lat="40.91353673691798" lon="9.175659481214755"><ele>487.0</ele><time>2026-05-01T11:22:56Z</time></trkpt><trkpt lat="40.913485811689014" lon="9.175541737769114"><ele>486.8</ele><time>2026-05-01T11:22:57Z</time></trkpt><trkpt lat="40.91343652415174" lon="9.17542722421264"><ele>486.6</ele><time>2026-05-01T11:22:58Z</time></trkpt><trkpt lat="40.913371795276866" lon="9.17531603010621"><ele>486.40000000000003</ele><time>2026-05-01T11:22:59Z</time></trkpt><trkpt lat="40.9133251209565" lon="9.175182094293294"><ele>486.20000000000005</ele><time>2026-05-01T11:23:00Z</time></trkpt><trkpt lat="40.91326634057859" lon="9.175059818556027"><ele>486.0</ele><time>2026-05-01T11:23:01Z</time></trkpt><trkpt lat="40.91321666521582" lon="9.174960112630783"><ele>485.4</ele><time>2026-05-01T11:23:02Z</time></trkpt><trkpt lat="40.913176092524836" lon="9.174894114432439"><ele>484.8</ele><time>2026-05-01T11:23:03Z</time></trkpt><trkpt lat="40.913025118543594" lon="9.174855720546798"><ele>484.19999999999993</ele><time>2026-05-01T11:23:05Z</time></trkpt><trkpt lat="40.91294716986466" lon="9.174820317385251"><ele>483.59999999999997</ele><time>2026-05-01T11:23:06Z</time></trkpt><trkpt lat="40.91288066481972" lon="9.17476528467354"><ele>483.0</ele><time>2026-05-01T11:23:07Z</time></trkpt><trkpt lat="40.91280136921518" lon="9.17469780813276"><ele>482.3333333333333</ele><time>2026-05-01T11:23:08Z</time></trkpt><trkpt lat="40.912733860404465" lon="9.174640361367008"><ele>481.66666666666663</ele><time>2026-05-01T11:23:09Z</time></trkpt><trkpt lat="40.91266258521959" lon="9.1745851429241"><ele>481.0</ele><time>2026-05-01T11:23:10Z</time></trkpt><trkpt lat="40.912590145833235" lon="9.174536403094626"><ele>480.3333333333333</ele><time>2026-05-01T11:23:11Z</time></trkpt><trkpt lat="40.91250402174739" lon="9.174500788061751"><ele>479.66666666666663</ele><time>2026-05-01T11:23:12Z</time></trkpt><trkpt lat="40.91243029054435" lon="9.174457188952896"><ele>479.0</ele><time>2026-05-01T11:23:13Z</time></trkpt><trkpt lat="40.91236707980514" lon="9.174396124413255"><ele>479.0</ele><time>2026-05-01T11:23:14Z</time></trkpt><trkpt lat="40.912315809871274" lon="9.174317075057193"><ele>479.0</ele><time>2026-05-01T11:23:15Z</time></trkpt><trkpt lat="40.912252711705136" lon="9.174207307501266"><ele>479.0</ele><time>2026-05-01T11:23:16Z</time></trkpt><trkpt lat="40.91219215977399" lon="9.174094208355896"><ele>479.0</ele><time>2026-05-01T11:23:17Z</time></trkpt><trkpt lat="40.91214136031425" lon="9.173982616177401"><ele>479.0</ele><time>2026-05-01T11:23:18Z</time></trkpt><trkpt lat="40.91208524956022" lon="9.173883255545087"><ele>478.99999999999994</ele><time>2026-05-01T11:23:19Z</time></trkpt><trkpt lat="40.91203829959691" lon="9.173795632574432"><ele>479.0</ele><time>2026-05-01T11:23:20Z</time></trkpt><trkpt lat="40.91199397070414" lon="9.173702623374838"><ele>479.0</ele><time>2026-05-01T11:23:21Z</time></trkpt><trkpt lat="40.911949316242" lon="9.173610084577119"><ele>479.0</ele><time>2026-05-01T11:23:22Z</time></trkpt><trkpt lat="40.91188824743953" lon="9.173537989702213"><ele>478.99999999999994</ele><time>2026-05-01T11:23:23Z</time></trkpt><trkpt lat="40.91180237485351" lon="9.17350717219873"><ele>479.0</ele><time>2026-05-01T11:23:24Z</time></trkpt><trkpt lat="40.911709860383674" lon="9.173478780372868"><ele>476.79999999999995</ele><time>2026-05-01T11:23:25Z</time></trkpt><trkpt lat="40.91162219194429" lon="9.17344885573299"><ele>474.59999999999997</ele><time>2026-05-01T11:23:26Z</time></trkpt><trkpt lat="40.91155112642447" lon="9.173386733287543"><ele>472.4</ele><time>2026-05-01T11:23:27Z</time></trkpt><trkpt lat="40.91149433356087" lon="9.17330705226273"><ele>470.2</ele><time>2026-05-01T11:23:28Z</time></trkpt><trkpt lat="40.91142991206676" lon="9.173194775837144"><ele>468.0</ele><time>2026-05-01T11:23:29Z</time></trkpt><trkpt lat="40.91136247741977" lon="9.173073358425214"><ele>467.59999999999997</ele><time>2026-05-01T11:23:30Z</time></trkpt><trkpt lat="40.91131064524691" lon="9.172956710551993"><ele>467.19999999999993</ele><time>2026-05-01T11:23:31Z</time></trkpt><trkpt lat="40.91126626713626" lon="9.172843830108397"><ele>466.8</ele><time>2026-05-01T11:23:32Z</time></trkpt><trkpt lat="40.91122626424172" lon="9.172733484049516"><ele>466.4</ele><time>2026-05-01T11:23:33Z</time></trkpt><trkpt lat="40.91117844262955" lon="9.172616233925025"><ele>466.0</ele><time>2026-05-01T11:23:34Z</time></trkpt><trkpt lat="40.91111463164825" lon="9.17252657064414"><ele>466.0</ele><time>2026-05-01T11:23:35Z</time></trkpt><trkpt lat="40.911062434050216" lon="9.172431078836299"><ele>466.0</ele><time>2026-05-01T11:23:36Z</time></trkpt><trkpt lat="40.91101199991436" lon="9.172331683754878"><ele>466.0</ele><time>2026-05-01T11:23:37Z</time></trkpt><trkpt lat="40.91096967214316" lon="9.172222724081706"><ele>466.0</ele><time>2026-05-01T11:23:38Z</time></trkpt><trkpt lat="40.91093769509547" lon="9.172100291219168"><ele>466.0</ele><time>2026-05-01T11:23:39Z</time></trkpt><trkpt lat="40.91093524182476" lon="9.171982503059779"><ele>464.6666666666667</ele><time>2026-05-01T11:23:40Z</time></trkpt><trkpt lat="40.91093336908069" lon="9.17186633877275"><ele>463.33333333333337</ele><time>2026-05-01T11:23:41Z</time></trkpt><trkpt lat="40.9108747916172" lon="9.171710094200478"><ele>462.0</ele><time>2026-05-01T11:23:43Z</time></trkpt><trkpt lat="40.910810233383465" lon="9.171679352297405"><ele>460.66666666666663</ele><time>2026-05-01T11:23:44Z</time></trkpt><trkpt lat="40.91074981843827" lon="9.171643324184899"><ele>459.3333333333333</ele><time>2026-05-01T11:23:45Z</time></trkpt><trkpt lat="40.910694951274095" lon="9.171587126165464"><ele>458.0</ele><time>2026-05-01T11:23:46Z</time></trkpt><trkpt lat="40.91062733228621" lon="9.171511622151263"><ele>455.4</ele><time>2026-05-01T11:23:47Z</time></trkpt><trkpt lat="40.91056984291608" lon="9.171424392705"><ele>452.79999999999995</ele><time>2026-05-01T11:23:48Z</time></trkpt><trkpt lat="40.91050831261686" lon="9.171325737830104"><ele>450.2</ele><time>2026-05-01T11:23:49Z</time></trkpt><trkpt lat="40.9104296900245" lon="9.171236209752509"><ele>447.6</ele><time>2026-05-01T11:23:50Z</time></trkpt><trkpt lat="40.91036229549704" lon="9.171122551768603"><ele>445.0</ele><time>2026-05-01T11:23:51Z</time></trkpt><trkpt lat="40.91028893098508" lon="9.17102614155146"><ele>445.00000000000006</ele><time>2026-05-01T11:23:52Z</time></trkpt><trkpt lat="40.91022293165121" lon="9.1709146878739"><ele>445.0</ele><time>2026-05-01T11:23:53Z</time></trkpt><trkpt lat="40.91015040525474" lon="9.17082334908628"><ele>445.0</ele><time>2026-05-01T11:23:54Z</time></trkpt><trkpt lat="40.910094021163715" lon="9.170744013710154"><ele>445.0</ele><time>2026-05-01T11:23:55Z</time></trkpt><trkpt lat="40.91005683435054" lon="9.170654827286034"><ele>445.00000000000006</ele><time>2026-05-01T11:23:56Z</time></trkpt><trkpt lat="40.91005471483116" lon="9.170551032996283"><ele>445.0</ele><time>2026-05-01T11:23:57Z</time></trkpt><trkpt lat="40.91002406118706" lon="9.17047320992956"><ele>443.4</ele><time>2026-05-01T11:23:58Z</time></trkpt><trkpt lat="40.9099416487751" lon="9.170379959428477"><ele>441.8</ele><time>2026-05-01T11:24:00Z</time></trkpt><trkpt lat="40.90988284586904" lon="9.170302200811934"><ele>440.20000000000005</ele><time>2026-05-01T11:24:01Z</time></trkpt><trkpt lat="40.90979746635948" lon="9.170212964850737"><ele>438.6</ele><time>2026-05-01T11:24:02Z</time></trkpt><trkpt lat="40.909725501212186" lon="9.170129365226018"><ele>437.0</ele><time>2026-05-01T11:24:03Z</time></trkpt><trkpt lat="40.909610199537035" lon="9.17005231626196"><ele>437.0</ele><time>2026-05-01T11:24:04Z</time></trkpt><trkpt lat="40.909505945218214" lon="9.1699406976439"><ele>437.0</ele><time>2026-05-01T11:24:05Z</time></trkpt><trkpt lat="40.909410458242945" lon="9.169809416221938"><ele>437.0</ele><time>2026-05-01T11:24:06Z</time></trkpt><trkpt lat="40.90930669256018" lon="9.169685850738285"><ele>437.0</ele><time>2026-05-01T11:24:07Z</time></trkpt><trkpt lat="40.90921939656596" lon="9.169566157761999"><ele>437.20000000000005</ele><time>2026-05-01T11:24:08Z</time></trkpt><trkpt lat="40.90914200143336" lon="9.169448744162825"><ele>437.40000000000003</ele><time>2026-05-01T11:24:09Z</time></trkpt><trkpt lat="40.909071461628706" lon="9.169331083630995"><ele>437.59999999999997</ele><time>2026-05-01T11:24:10Z</time></trkpt><trkpt lat="40.909010036743574" lon="9.16921260060759"><ele>437.79999999999995</ele><time>2026-05-01T11:24:11Z</time></trkpt><trkpt lat="40.90895415630326" lon="9.16909313355068"><ele>438.0</ele><time>2026-05-01T11:24:12Z</time></trkpt><trkpt lat="40.90889424400281" lon="9.168968040733352"><ele>437.59999999999997</ele><time>2026-05-01T11:24:13Z</time></trkpt><trkpt lat="40.90883361697563" lon="9.16885417511719"><ele>437.19999999999993</ele><time>2026-05-01T11:24:14Z</time></trkpt><trkpt lat="40.908774292785395" lon="9.168776054873511"><ele>436.8</ele><time>2026-05-01T11:24:15Z</time></trkpt><trkpt lat="40.9087017430004" lon="9.16874885173911"><ele>436.4</ele><time>2026-05-01T11:24:16Z</time></trkpt><trkpt lat="40.90861307660804" lon="9.168780962297001"><ele>436.0</ele><time>2026-05-01T11:24:17Z</time></trkpt><trkpt lat="40.9085200924516" lon="9.16881716353491"><ele>436.00000000000006</ele><time>2026-05-01T11:24:18Z</time></trkpt><trkpt lat="40.90843937007189" lon="9.168816469443195"><ele>436.0</ele><time>2026-05-01T11:24:19Z</time></trkpt><trkpt lat="40.90835073585359" lon="9.168825400095507"><ele>436.0</ele><time>2026-05-01T11:24:21Z</time></trkpt><trkpt lat="40.90826736520451" lon="9.168740695182528"><ele>436.0</ele><time>2026-05-01T11:24:23Z</time></trkpt><trkpt lat="40.90821672967975" lon="9.168683330901018"><ele>436.00000000000006</ele><time>2026-05-01T11:24:24Z</time></trkpt><trkpt lat="40.908164465899695" lon="9.168621301187839"><ele>436.0</ele><time>2026-05-01T11:24:26Z</time></trkpt><trkpt lat="40.90812754343546" lon="9.168531984314155"><ele>436.33333333333337</ele><time>2026-05-01T11:24:29Z</time></trkpt><trkpt lat="40.908193976081" lon="9.16847076899003"><ele>436.6666666666667</ele><time>2026-05-01T11:24:33Z</time></trkpt><trkpt lat="40.90822353034171" lon="9.168391173359078"><ele>437.0</ele><time>2026-05-01T11:24:37Z</time></trkpt><trkpt lat="40.908251049589296" lon="9.168309443939265"><ele>437.33333333333337</ele><time>2026-05-01T11:24:39Z</time></trkpt><trkpt lat="40.908291617991416" lon="9.168189804796267"><ele>437.6666666666667</ele><time>2026-05-01T11:24:41Z</time></trkpt><trkpt lat="40.90832883023523" lon="9.16805090628094"><ele>438.0</ele><time>2026-05-01T11:24:43Z</time></trkpt><trkpt lat="40.90837698912985" lon="9.167909674331083"><ele>437.6666666666667</ele><time>2026-05-01T11:24:45Z</time></trkpt><trkpt lat="40.90843524684716" lon="9.167773625767447"><ele>437.33333333333337</ele><time>2026-05-01T11:24:47Z</time></trkpt><trkpt lat="40.908499483012875" lon="9.167648509960149"><ele>437.0</ele><time>2026-05-01T11:24:49Z</time></trkpt><trkpt lat="40.90853585898163" lon="9.167577711838064"><ele>436.6666666666667</ele><time>2026-05-01T11:24:50Z</time></trkpt><trkpt lat="40.90857518390443" lon="9.167502162884062"><ele>436.33333333333337</ele><time>2026-05-01T11:24:51Z</time></trkpt><trkpt lat="40.90861407940549" lon="9.167420149502295"><ele>436.0</ele><time>2026-05-01T11:24:52Z</time></trkpt><trkpt lat="40.908653507285365" lon="9.167329874573223"><ele>436.0</ele><time>2026-05-01T11:24:53Z</time></trkpt><trkpt lat="40.90869574208379" lon="9.167226580540449"><ele>436.0</ele><time>2026-05-01T11:24:54Z</time></trkpt><trkpt lat="40.908739002542845" lon="9.167112895384802"><ele>436.0</ele><time>2026-05-01T11:24:55Z</time></trkpt><trkpt lat="40.90877209121721" lon="9.166985420041316"><ele>436.0</ele><time>2026-05-01T11:24:56Z</time></trkpt><trkpt lat="40.90879127676633" lon="9.166850493879542"><ele>436.0</ele><time>2026-05-01T11:24:57Z</time></trkpt><trkpt lat="40.90881936794598" lon="9.166729290187327"><ele>436.0</ele><time>2026-05-01T11:24:58Z</time></trkpt><trkpt lat="40.90883191782115" lon="9.166621676971884"><ele>436.0</ele><time>2026-05-01T11:24:59Z</time></trkpt><trkpt lat="40.90886349630976" lon="9.166482524997006"><ele>436.0</ele><time>2026-05-01T11:25:01Z</time></trkpt><trkpt lat="40.90884256378238" lon="9.166341933167345"><ele>436.0</ele><time>2026-05-01T11:25:03Z</time></trkpt><trkpt lat="40.90878807503809" lon="9.166278759104397"><ele>436.0</ele><time>2026-05-01T11:25:04Z</time></trkpt><trkpt lat="40.90870190545758" lon="9.16617885438461"><ele>436.0</ele><time>2026-05-01T11:25:05Z</time></trkpt><trkpt lat="40.9086075133358" lon="9.166063303799714"><ele>436.0</ele><time>2026-05-01T11:25:06Z</time></trkpt><trkpt lat="40.908495712839134" lon="9.165917885671194"><ele>436.0</ele><time>2026-05-01T11:25:07Z</time></trkpt><trkpt lat="40.90839059284711" lon="9.165796075843897"><ele>436.0</ele><time>2026-05-01T11:25:08Z</time></trkpt><trkpt lat="40.90828503930496" lon="9.165673531379756"><ele>437.33333333333337</ele><time>2026-05-01T11:25:09Z</time></trkpt><trkpt lat="40.908171082850586" lon="9.165538612963038"><ele>438.66666666666663</ele><time>2026-05-01T11:25:10Z</time></trkpt><trkpt lat="40.90806055480493" lon="9.165389383819047"><ele>440.0</ele><time>2026-05-01T11:25:11Z</time></trkpt><trkpt lat="40.90796973912042" lon="9.165245570797593"><ele>440.0</ele><time>2026-05-01T11:25:12Z</time></trkpt><trkpt lat="40.9078921784879" lon="9.16510482242439"><ele>440.0</ele><time>2026-05-01T11:25:13Z</time></trkpt><trkpt lat="40.90783076904058" lon="9.164960802779667"><ele>440.0</ele><time>2026-05-01T11:25:14Z</time></trkpt><trkpt lat="40.907769395358585" lon="9.164810266036422"><ele>440.0</ele><time>2026-05-01T11:25:15Z</time></trkpt><trkpt lat="40.9077261938858" lon="9.164631643873836"><ele>440.3333333333333</ele><time>2026-05-01T11:25:16Z</time></trkpt><trkpt lat="40.90767778772162" lon="9.164428928474273"><ele>440.66666666666663</ele><time>2026-05-01T11:25:17Z</time></trkpt><trkpt lat="40.907626385810985" lon="9.16422513989437"><ele>441.0</ele><time>2026-05-01T11:25:18Z</time></trkpt><trkpt lat="40.90757625440506" lon="9.164041727988277"><ele>442.0</ele><time>2026-05-01T11:25:19Z</time></trkpt><trkpt lat="40.907529832722005" lon="9.163846243383261"><ele>443.0</ele><time>2026-05-01T11:25:20Z</time></trkpt><trkpt lat="40.907481957252436" lon="9.163638599696633"><ele>444.0</ele><time>2026-05-01T11:25:21Z</time></trkpt><trkpt lat="40.90744294819683" lon="9.163472451900924"><ele>444.0</ele><time>2026-05-01T11:25:22Z</time></trkpt><trkpt lat="40.90741519936821" lon="9.163357542864578"><ele>444.0</ele><time>2026-05-01T11:25:23Z</time></trkpt><trkpt lat="40.90738734066818" lon="9.163242179445454"><ele>444.0</ele><time>2026-05-01T11:25:24Z</time></trkpt><trkpt lat="40.90732767963515" lon="9.163069118151911"><ele>444.0</ele><time>2026-05-01T11:25:25Z</time></trkpt><trkpt lat="40.90728201430184" lon="9.162884775374597"><ele>445.79999999999995</ele><time>2026-05-01T11:25:26Z</time></trkpt><trkpt lat="40.9072478581539" lon="9.162722506754589"><ele>447.59999999999997</ele><time>2026-05-01T11:25:27Z</time></trkpt><trkpt lat="40.90722113719421" lon="9.162570699415399"><ele>449.4</ele><time>2026-05-01T11:25:28Z</time></trkpt><trkpt lat="40.90719632864939" lon="9.162457109412223"><ele>451.2</ele><time>2026-05-01T11:25:29Z</time></trkpt><trkpt lat="40.90716800021237" lon="9.162328857189458"><ele>453.0</ele><time>2026-05-01T11:25:31Z</time></trkpt><trkpt lat="40.90714550662073" lon="9.162226449753325"><ele>454.0</ele><time>2026-05-01T11:25:33Z</time></trkpt><trkpt lat="40.907120291671525" lon="9.162107797135441"><ele>454.99999999999994</ele><time>2026-05-01T11:25:35Z</time></trkpt><trkpt lat="40.90710023601827" lon="9.162012983823178"><ele>455.99999999999994</ele><time>2026-05-01T11:25:36Z</time></trkpt><trkpt lat="40.907077095529004" lon="9.161891655326896"><ele>457.0</ele><time>2026-05-01T11:25:37Z</time></trkpt><trkpt lat="40.907051790975956" lon="9.161767190561768"><ele>458.0</ele><time>2026-05-01T11:25:38Z</time></trkpt><trkpt lat="40.90702808805412" lon="9.161649779428814"><ele>457.99999999999994</ele><time>2026-05-01T11:25:39Z</time></trkpt><trkpt lat="40.90700986169021" lon="9.161549863732963"><ele>458.0</ele><time>2026-05-01T11:25:40Z</time></trkpt><trkpt lat="40.90700023867992" lon="9.16145124706913"><ele>458.0</ele><time>2026-05-01T11:25:41Z</time></trkpt><trkpt lat="40.906989357821075" lon="9.16129853558329"><ele>458.0</ele><time>2026-05-01T11:25:43Z</time></trkpt><trkpt lat="40.90697890131359" lon="9.161193484045619"><ele>457.99999999999994</ele><time>2026-05-01T11:25:44Z</time></trkpt><trkpt lat="40.90696418554051" lon="9.16106870263822"><ele>458.0</ele><time>2026-05-01T11:25:45Z</time></trkpt><trkpt lat="40.90694356982571" lon="9.160921277611017"><ele>458.0</ele><time>2026-05-01T11:25:46Z</time></trkpt><trkpt lat="40.90692021934906" lon="9.160772922603671"><ele>457.99999999999994</ele><time>2026-05-01T11:25:47Z</time></trkpt><trkpt lat="40.90689156570232" lon="9.160642413324364"><ele>457.99999999999994</ele><time>2026-05-01T11:25:48Z</time></trkpt><trkpt lat="40.906879004880295" lon="9.160557775259415"><ele>458.0</ele><time>2026-05-01T11:25:49Z</time></trkpt><trkpt lat="40.9068403391081" lon="9.160425336256985"><ele>458.0</ele><time>2026-05-01T11:25:51Z</time></trkpt><trkpt lat="40.90682413780644" lon="9.160330239235225"><ele>457.59999999999997</ele><time>2026-05-01T11:25:52Z</time></trkpt><trkpt lat="40.90679003595097" lon="9.160206798963236"><ele>457.19999999999993</ele><time>2026-05-01T11:25:53Z</time></trkpt><trkpt lat="40.906752098579574" lon="9.160082294397053"><ele>456.8</ele><time>2026-05-01T11:25:54Z</time></trkpt><trkpt lat="40.906724001027314" lon="9.159982995332724"><ele>456.4</ele><time>2026-05-01T11:25:55Z</time></trkpt><trkpt lat="40.90669309971255" lon="9.159879349843923"><ele>456.0</ele><time>2026-05-01T11:25:56Z</time></trkpt><trkpt lat="40.90662438085232" lon="9.159720186195768"><ele>457.20000000000005</ele><time>2026-05-01T11:25:58Z</time></trkpt><trkpt lat="40.9065771267996" lon="9.159608405480286"><ele>458.40000000000003</ele><time>2026-05-01T11:25:59Z</time></trkpt><trkpt lat="40.90651687689843" lon="9.159476047415108"><ele>459.6</ele><time>2026-05-01T11:26:00Z</time></trkpt><trkpt lat="40.90646045477605" lon="9.159352466162863"><ele>460.8</ele><time>2026-05-01T11:26:01Z</time></trkpt><trkpt lat="40.90643041699051" lon="9.15921979228072"><ele>462.0</ele><time>2026-05-01T11:26:02Z</time></trkpt><trkpt lat="40.90639101785608" lon="9.159082110496264"><ele>462.6</ele><time>2026-05-01T11:26:03Z</time></trkpt><trkpt lat="40.90636604685191" lon="9.158966189367986"><ele>463.20000000000005</ele><time>2026-05-01T11:26:04Z</time></trkpt><trkpt lat="40.906344449121185" lon="9.158847839449406"><ele>463.8</ele><time>2026-05-01T11:26:05Z</time></trkpt><trkpt lat="40.9063236364406" lon="9.158728639365128"><ele>464.4</ele><time>2026-05-01T11:26:06Z</time></trkpt><trkpt lat="40.906282223780885" lon="9.158578303058828"><ele>465.0</ele><time>2026-05-01T11:26:08Z</time></trkpt><trkpt lat="40.906264849788215" lon="9.158487785441162"><ele>465.0</ele><time>2026-05-01T11:26:09Z</time></trkpt><trkpt lat="40.90625265601361" lon="9.158403566899162"><ele>465.0</ele><time>2026-05-01T11:26:10Z</time></trkpt><trkpt lat="40.90624643310948" lon="9.158299903593097"><ele>465.0</ele><time>2026-05-01T11:26:11Z</time></trkpt><trkpt lat="40.9062259066021" lon="9.158179914627727"><ele>465.0</ele><time>2026-05-01T11:26:12Z</time></trkpt><trkpt lat="40.90620326723443" lon="9.15807395856261"><ele>465.0</ele><time>2026-05-01T11:26:13Z</time></trkpt><trkpt lat="40.906181698628885" lon="9.157953740880764"><ele>465.0</ele><time>2026-05-01T11:26:14Z</time></trkpt><trkpt lat="40.906155500132364" lon="9.157822224718073"><ele>465.0</ele><time>2026-05-01T11:26:15Z</time></trkpt><trkpt lat="40.90612981604797" lon="9.157698145130073"><ele>465.0</ele><time>2026-05-01T11:26:16Z</time></trkpt><trkpt lat="40.90609757974349" lon="9.1575555481341"><ele>465.0</ele><time>2026-05-01T11:26:17Z</time></trkpt><trkpt lat="40.90606224613717" lon="9.15741091088037"><ele>465.0</ele><time>2026-05-01T11:26:18Z</time></trkpt><trkpt lat="40.906026928900175" lon="9.157274670883291"><ele>465.0</ele><time>2026-05-01T11:26:19Z</time></trkpt><trkpt lat="40.90598751989385" lon="9.157130367609199"><ele>465.0</ele><time>2026-05-01T11:26:20Z</time></trkpt><trkpt lat="40.90594677302717" lon="9.156989568840828"><ele>465.0</ele><time>2026-05-01T11:26:21Z</time></trkpt><trkpt lat="40.90590473602235" lon="9.156854968973926"><ele>465.0</ele><time>2026-05-01T11:26:22Z</time></trkpt><trkpt lat="40.90585825264472" lon="9.1567512786043"><ele>465.0</ele><time>2026-05-01T11:26:23Z</time></trkpt><trkpt lat="40.905820038114925" lon="9.1566377446696"><ele>465.0</ele><time>2026-05-01T11:26:24Z</time></trkpt><trkpt lat="40.90577536649762" lon="9.156498889013767"><ele>466.2</ele><time>2026-05-01T11:26:25Z</time></trkpt><trkpt lat="40.9057204573144" lon="9.156367818580556"><ele>467.4</ele><time>2026-05-01T11:26:26Z</time></trkpt><trkpt lat="40.90567761646125" lon="9.15626803984823"><ele>468.6</ele><time>2026-05-01T11:26:27Z</time></trkpt><trkpt lat="40.90563441474896" lon="9.156167420738361"><ele>469.8</ele><time>2026-05-01T11:26:28Z</time></trkpt><trkpt lat="40.905579923801504" lon="9.15604050758006"><ele>471.0</ele><time>2026-05-01T11:26:29Z</time></trkpt><trkpt lat="40.90553434847208" lon="9.155921465353005"><ele>471.0</ele><time>2026-05-01T11:26:30Z</time></trkpt><trkpt lat="40.905496245712726" lon="9.155819368936516"><ele>471.0</ele><time>2026-05-01T11:26:31Z</time></trkpt><trkpt lat="40.90543833369519" lon="9.155657242751534"><ele>471.0</ele><time>2026-05-01T11:26:33Z</time></trkpt><trkpt lat="40.905406231552696" lon="9.155554113666987"><ele>471.0</ele><time>2026-05-01T11:26:34Z</time></trkpt><trkpt lat="40.90538247667692" lon="9.15545475356122"><ele>471.0</ele><time>2026-05-01T11:26:35Z</time></trkpt><trkpt lat="40.9053562587422" lon="9.15535123768309"><ele>471.0</ele><time>2026-05-01T11:26:36Z</time></trkpt><trkpt lat="40.90532093216582" lon="9.155220658962799"><ele>471.0</ele><time>2026-05-01T11:26:37Z</time></trkpt><trkpt lat="40.905294284469" lon="9.155062159707985"><ele>471.0</ele><time>2026-05-01T11:26:38Z</time></trkpt><trkpt lat="40.905271994955115" lon="9.154900323728901"><ele>471.0</ele><time>2026-05-01T11:26:39Z</time></trkpt><trkpt lat="40.90525487996564" lon="9.154747211504214"><ele>471.0</ele><time>2026-05-01T11:26:40Z</time></trkpt><trkpt lat="40.905236525343355" lon="9.154603066108008"><ele>471.0</ele><time>2026-05-01T11:26:41Z</time></trkpt><trkpt lat="40.905234897880774" lon="9.15446786145712"><ele>471.0</ele><time>2026-05-01T11:26:42Z</time></trkpt><trkpt lat="40.905237762422445" lon="9.154327202171205"><ele>471.0</ele><time>2026-05-01T11:26:43Z</time></trkpt><trkpt lat="40.90523019632738" lon="9.154176899967714"><ele>471.0</ele><time>2026-05-01T11:26:44Z</time></trkpt><trkpt lat="40.90521322091188" lon="9.154017492255562"><ele>471.0</ele><time>2026-05-01T11:26:45Z</time></trkpt><trkpt lat="40.90518719163871" lon="9.153849342789497"><ele>471.0</ele><time>2026-05-01T11:26:46Z</time></trkpt><trkpt lat="40.90515503357868" lon="9.153692898306355"><ele>471.0</ele><time>2026-05-01T11:26:47Z</time></trkpt><trkpt lat="40.90512319721035" lon="9.15354535603271"><ele>471.0</ele><time>2026-05-01T11:26:48Z</time></trkpt><trkpt lat="40.90511222907751" lon="9.153390884591794"><ele>471.0</ele><time>2026-05-01T11:26:49Z</time></trkpt><trkpt lat="40.905082457252874" lon="9.153241270663038"><ele>471.0</ele><time>2026-05-01T11:26:50Z</time></trkpt><trkpt lat="40.90503780404548" lon="9.153099099128891"><ele>471.0</ele><time>2026-05-01T11:26:51Z</time></trkpt><trkpt lat="40.905010736722616" lon="9.152951025209967"><ele>471.0</ele><time>2026-05-01T11:26:52Z</time></trkpt><trkpt lat="40.90498397250821" lon="9.152802253997283"><ele>469.75</ele><time>2026-05-01T11:26:53Z</time></trkpt><trkpt lat="40.90495720251309" lon="9.152650474040302"><ele>468.5</ele><time>2026-05-01T11:26:54Z</time></trkpt><trkpt lat="40.90492915459423" lon="9.152501304199955"><ele>467.25</ele><time>2026-05-01T11:26:55Z</time></trkpt><trkpt lat="40.90489974446297" lon="9.152352110364243"><ele>466.0</ele><time>2026-05-01T11:26:56Z</time></trkpt><trkpt lat="40.90486562025727" lon="9.152203097821785"><ele>466.0</ele><time>2026-05-01T11:26:57Z</time></trkpt><trkpt lat="40.90483191310385" lon="9.152057226175293"><ele>466.0</ele><time>2026-05-01T11:26:58Z</time></trkpt><trkpt lat="40.90479824719786" lon="9.151917489145633"><ele>466.0</ele><time>2026-05-01T11:26:59Z</time></trkpt><trkpt lat="40.90476954270146" lon="9.151789285077152"><ele>466.0</ele><time>2026-05-01T11:27:00Z</time></trkpt><trkpt lat="40.90474631685217" lon="9.151676566253661"><ele>466.0</ele><time>2026-05-01T11:27:01Z</time></trkpt><trkpt lat="40.90473589248603" lon="9.151561540096273"><ele>465.4</ele><time>2026-05-01T11:27:02Z</time></trkpt><trkpt lat="40.90469944578544" lon="9.151469009761115"><ele>464.8</ele><time>2026-05-01T11:27:03Z</time></trkpt><trkpt lat="40.90467865465093" lon="9.151372897663904"><ele>464.19999999999993</ele><time>2026-05-01T11:27:04Z</time></trkpt><trkpt lat="40.90467459911983" lon="9.151277713344554"><ele>463.59999999999997</ele><time>2026-05-01T11:27:05Z</time></trkpt><trkpt lat="40.90463422264082" lon="9.151163075907323"><ele>463.0</ele><time>2026-05-01T11:27:07Z</time></trkpt><trkpt lat="40.90440964664728" lon="9.151232677119818"><ele>463.0</ele><time>2026-05-01T11:27:08Z</time></trkpt><trkpt lat="40.904300517239335" lon="9.151279048960827"><ele>463.0</ele><time>2026-05-01T11:27:09Z</time></trkpt><trkpt lat="40.90418116734577" lon="9.151310876410069"><ele>463.0</ele><time>2026-05-01T11:27:10Z</time></trkpt><trkpt lat="40.90404737716708" lon="9.15136430262642"><ele>463.0</ele><time>2026-05-01T11:27:11Z</time></trkpt><trkpt lat="40.90390868719539" lon="9.15141825120101"><ele>462.75</ele><time>2026-05-01T11:27:12Z</time></trkpt><trkpt lat="40.90377080184211" lon="9.151451672315119"><ele>462.5</ele><time>2026-05-01T11:27:13Z</time></trkpt><trkpt lat="40.90363827318568" lon="9.151500002599525"><ele>462.25</ele><time>2026-05-01T11:27:14Z</time></trkpt><trkpt lat="40.90350504040365" lon="9.151548698516866"><ele>462.0</ele><time>2026-05-01T11:27:15Z</time></trkpt><trkpt lat="40.90336884581992" lon="9.151598746950665"><ele>460.25</ele><time>2026-05-01T11:27:16Z</time></trkpt><trkpt lat="40.903239513205854" lon="9.151647553112989"><ele>458.5</ele><time>2026-05-01T11:27:17Z</time></trkpt><trkpt lat="40.903127756235314" lon="9.15170850878529"><ele>456.75</ele><time>2026-05-01T11:27:18Z</time></trkpt><trkpt lat="40.90301985868861" lon="9.151748384623646"><ele>455.0</ele><time>2026-05-01T11:27:19Z</time></trkpt><trkpt lat="40.90291593862144" lon="9.151791936660736"><ele>455.0</ele><time>2026-05-01T11:27:20Z</time></trkpt><trkpt lat="40.90273601624728" lon="9.151847951826035"><ele>455.0</ele><time>2026-05-01T11:27:22Z</time></trkpt><trkpt lat="40.90266419992646" lon="9.15182600219744"><ele>455.0</ele><time>2026-05-01T11:27:23Z</time></trkpt><trkpt lat="40.90256076613307" lon="9.151648576568741"><ele>455.0</ele><time>2026-05-01T11:27:25Z</time></trkpt><trkpt lat="40.902542447117135" lon="9.151491726440314"><ele>453.3333333333333</ele><time>2026-05-01T11:27:26Z</time></trkpt><trkpt lat="40.902502074479656" lon="9.151302068760469"><ele>451.66666666666663</ele><time>2026-05-01T11:27:27Z</time></trkpt><trkpt lat="40.90244604071434" lon="9.151106398010848"><ele>450.0</ele><time>2026-05-01T11:27:28Z</time></trkpt><trkpt lat="40.90240470117223" lon="9.150879233204192"><ele>449.66666666666663</ele><time>2026-05-01T11:27:29Z</time></trkpt><trkpt lat="40.90234760838197" lon="9.150617285213617"><ele>449.3333333333333</ele><time>2026-05-01T11:27:30Z</time></trkpt><trkpt lat="40.90228528899324" lon="9.150350784588177"><ele>449.0</ele><time>2026-05-01T11:27:31Z</time></trkpt><trkpt lat="40.9022323405896" lon="9.150076393313027"><ele>449.3333333333333</ele><time>2026-05-01T11:27:32Z</time></trkpt><trkpt lat="40.90217390002766" lon="9.149821709173477"><ele>449.66666666666663</ele><time>2026-05-01T11:27:33Z</time></trkpt><trkpt lat="40.90212415427526" lon="9.149589695977102"><ele>450.0</ele><time>2026-05-01T11:27:34Z</time></trkpt><trkpt lat="40.902078090291184" lon="9.149383616847315"><ele>450.0</ele><time>2026-05-01T11:27:35Z</time></trkpt><trkpt lat="40.90203590988042" lon="9.149194192675095"><ele>450.0</ele><time>2026-05-01T11:27:36Z</time></trkpt><trkpt lat="40.90200175513847" lon="9.149023480914016"><ele>450.0</ele><time>2026-05-01T11:27:37Z</time></trkpt><trkpt lat="40.90196798092849" lon="9.148873455519047"><ele>450.0</ele><time>2026-05-01T11:27:38Z</time></trkpt><trkpt lat="40.90193768025149" lon="9.14875195854614"><ele>451.2</ele><time>2026-05-01T11:27:39Z</time></trkpt><trkpt lat="40.901927146369275" lon="9.148659296455737"><ele>452.4</ele><time>2026-05-01T11:27:40Z</time></trkpt><trkpt lat="40.90190618469777" lon="9.148560767357532"><ele>453.6</ele><time>2026-05-01T11:27:43Z</time></trkpt><trkpt lat="40.90174379030105" lon="9.14858456752705"><ele>454.8</ele><time>2026-05-01T11:27:44Z</time></trkpt><trkpt lat="40.90165749931154" lon="9.14861227345132"><ele>456.0</ele><time>2026-05-01T11:27:45Z</time></trkpt><trkpt lat="40.90155613141708" lon="9.148658595723111"><ele>456.0</ele><time>2026-05-01T11:27:46Z</time></trkpt><trkpt lat="40.90143594931231" lon="9.148705708515775"><ele>456.0</ele><time>2026-05-01T11:27:47Z</time></trkpt><trkpt lat="40.90129612141053" lon="9.148752074635532"><ele>456.0</ele><time>2026-05-01T11:27:48Z</time></trkpt><trkpt lat="40.90114950826105" lon="9.148783565944807"><ele>456.0</ele><time>2026-05-01T11:27:49Z</time></trkpt><trkpt lat="40.90098131961388" lon="9.148795594352867"><ele>456.33333333333337</ele><time>2026-05-01T11:27:50Z</time></trkpt><trkpt lat="40.900796370249715" lon="9.14879326932177"><ele>456.6666666666667</ele><time>2026-05-01T11:27:51Z</time></trkpt><trkpt lat="40.90060794843748" lon="9.1487721612532"><ele>457.0</ele><time>2026-05-01T11:27:52Z</time></trkpt><trkpt lat="40.90041967630321" lon="9.148725838417224"><ele>457.0</ele><time>2026-05-01T11:27:53Z</time></trkpt><trkpt lat="40.900221428962894" lon="9.148649011675177"><ele>457.0</ele><time>2026-05-01T11:27:54Z</time></trkpt><trkpt lat="40.900030855160686" lon="9.148521077500611"><ele>457.0</ele><time>2026-05-01T11:27:55Z</time></trkpt><trkpt lat="40.89984263961187" lon="9.148381598433708"><ele>458.33333333333337</ele><time>2026-05-01T11:27:56Z</time></trkpt><trkpt lat="40.89965484471605" lon="9.148232840016071"><ele>459.66666666666663</ele><time>2026-05-01T11:27:57Z</time></trkpt><trkpt lat="40.899465721373836" lon="9.14807579268714"><ele>461.0</ele><time>2026-05-01T11:27:58Z</time></trkpt><trkpt lat="40.899278519515576" lon="9.147920837526895"><ele>462.66666666666663</ele><time>2026-05-01T11:27:59Z</time></trkpt><trkpt lat="40.89908990270974" lon="9.147764303009634"><ele>464.33333333333337</ele><time>2026-05-01T11:28:00Z</time></trkpt><trkpt lat="40.89890691518326" lon="9.147612411197581"><ele>466.0</ele><time>2026-05-01T11:28:01Z</time></trkpt><trkpt lat="40.89872317298298" lon="9.14746025425758"><ele>467.0</ele><time>2026-05-01T11:28:02Z</time></trkpt><trkpt lat="40.89853315746667" lon="9.147302823517192"><ele>468.0</ele><time>2026-05-01T11:28:03Z</time></trkpt><trkpt lat="40.89834114678658" lon="9.147142089457425"><ele>465.0</ele><time>2026-05-01T11:28:04Z</time></trkpt><trkpt lat="40.8981489545567" lon="9.146981203458635"><ele>462.0</ele><time>2026-05-01T11:28:05Z</time></trkpt><trkpt lat="40.89795454861405" lon="9.146818444005284"><ele>462.0</ele><time>2026-05-01T11:28:06Z</time></trkpt><trkpt lat="40.897759521639934" lon="9.1466551042739"><ele>462.0</ele><time>2026-05-01T11:28:07Z</time></trkpt><trkpt lat="40.89756168726807" lon="9.146489307514392"><ele>458.5</ele><time>2026-05-01T11:28:08Z</time></trkpt><trkpt lat="40.89735706039037" lon="9.146343600511026"><ele>455.0</ele><time>2026-05-01T11:28:09Z</time></trkpt><trkpt lat="40.89715696644796" lon="9.146177546852707"><ele>455.0</ele><time>2026-05-01T11:28:10Z</time></trkpt><trkpt lat="40.896962714808666" lon="9.146012060834476"><ele>455.0</ele><time>2026-05-01T11:28:11Z</time></trkpt><trkpt lat="40.89677295254741" lon="9.145847305960247"><ele>454.5</ele><time>2026-05-01T11:28:12Z</time></trkpt><trkpt lat="40.89657230361673" lon="9.145682910497094"><ele>454.0</ele><time>2026-05-01T11:28:13Z</time></trkpt><trkpt lat="40.89638216479418" lon="9.145522202661294"><ele>454.0</ele><time>2026-05-01T11:28:14Z</time></trkpt><trkpt lat="40.89618655140265" lon="9.145362602664019"><ele>454.0</ele><time>2026-05-01T11:28:15Z</time></trkpt><trkpt lat="40.89599172185696" lon="9.145205126200041"><ele>455.0</ele><time>2026-05-01T11:28:16Z</time></trkpt><trkpt lat="40.895795805010565" lon="9.14504771731554"><ele>456.0</ele><time>2026-05-01T11:28:17Z</time></trkpt><trkpt lat="40.89560164662949" lon="9.144888843250452"><ele>457.5</ele><time>2026-05-01T11:28:18Z</time></trkpt><trkpt lat="40.89540827417059" lon="9.144728485640362"><ele>459.0</ele><time>2026-05-01T11:28:19Z</time></trkpt><trkpt lat="40.895223961409734" lon="9.144547754430558"><ele>461.5</ele><time>2026-05-01T11:28:20Z</time></trkpt><trkpt lat="40.89502937914496" lon="9.144382367278682"><ele>464.0</ele><time>2026-05-01T11:28:21Z</time></trkpt><trkpt lat="40.89483697279781" lon="9.144218829786212"><ele>464.0</ele><time>2026-05-01T11:28:22Z</time></trkpt><trkpt lat="40.89464180154433" lon="9.144053026052603"><ele>464.0</ele><time>2026-05-01T11:28:23Z</time></trkpt><trkpt lat="40.89444704124727" lon="9.143890394647668"><ele>466.5</ele><time>2026-05-01T11:28:24Z</time></trkpt><trkpt lat="40.89425006231569" lon="9.14372838190109"><ele>469.0</ele><time>2026-05-01T11:28:25Z</time></trkpt><trkpt lat="40.89405247570658" lon="9.14356612280342"><ele>469.0</ele><time>2026-05-01T11:28:26Z</time></trkpt><trkpt lat="40.893865978737004" lon="9.143412133296325"><ele>469.0</ele><time>2026-05-01T11:28:27Z</time></trkpt><trkpt lat="40.8937039526118" lon="9.14327779198492"><ele>469.0</ele><time>2026-05-01T11:28:28Z</time></trkpt><trkpt lat="40.89355169880416" lon="9.14317462194227"><ele>469.0</ele><time>2026-05-01T11:28:29Z</time></trkpt><trkpt lat="40.89341951360572" lon="9.14305931052134"><ele>469.0</ele><time>2026-05-01T11:28:30Z</time></trkpt><trkpt lat="40.893291748593754" lon="9.142949286785052"><ele>469.0</ele><time>2026-05-01T11:28:31Z</time></trkpt><trkpt lat="40.8931775756522" lon="9.142849400919243"><ele>469.0</ele><time>2026-05-01T11:28:32Z</time></trkpt><trkpt lat="40.893092009569855" lon="9.142766018439412"><ele>469.00000000000006</ele><time>2026-05-01T11:28:33Z</time></trkpt><trkpt lat="40.893026294270115" lon="9.14270670205667"><ele>469.0</ele><time>2026-05-01T11:28:34Z</time></trkpt><trkpt lat="40.89292472354826" lon="9.142638517759329"><ele>469.0</ele><time>2026-05-01T11:28:36Z</time></trkpt><trkpt lat="40.89285581619303" lon="9.142612792256797"><ele>469.0</ele><time>2026-05-01T11:28:38Z</time></trkpt><trkpt lat="40.89276879634528" lon="9.142596294908108"><ele>469.00000000000006</ele><time>2026-05-01T11:28:41Z</time></trkpt><trkpt lat="40.89269970963673" lon="9.142575382625616"><ele>469.0</ele><time>2026-05-01T11:28:43Z</time></trkpt><trkpt lat="40.892642530387796" lon="9.142503849185916"><ele>469.00000000000006</ele><time>2026-05-01T11:28:45Z</time></trkpt><trkpt lat="40.89259618715119" lon="9.142430717875877"><ele>469.0</ele><time>2026-05-01T11:28:47Z</time></trkpt><trkpt lat="40.89250992362514" lon="9.142340940049218"><ele>469.0</ele><time>2026-05-01T11:28:49Z</time></trkpt><trkpt lat="40.892455097954105" lon="9.142282602869933"><ele>469.0</ele><time>2026-05-01T11:28:50Z</time></trkpt><trkpt lat="40.89239270175872" lon="9.142222908467554"><ele>469.00000000000006</ele><time>2026-05-01T11:28:51Z</time></trkpt><trkpt lat="40.89232416566892" lon="9.142164922122118"><ele>469.0</ele><time>2026-05-01T11:28:52Z</time></trkpt><trkpt lat="40.89224762359735" lon="9.142103444028306"><ele>469.5</ele><time>2026-05-01T11:28:53Z</time></trkpt><trkpt lat="40.89216055541835" lon="9.142031237697104"><ele>470.0</ele><time>2026-05-01T11:28:54Z</time></trkpt><trkpt lat="40.892073735185235" lon="9.141948983202669"><ele>470.5</ele><time>2026-05-01T11:28:55Z</time></trkpt><trkpt lat="40.89197429145524" lon="9.141860836752333"><ele>471.0</ele><time>2026-05-01T11:28:56Z</time></trkpt><trkpt lat="40.89186473848559" lon="9.141774808651046"><ele>471.25</ele><time>2026-05-01T11:28:57Z</time></trkpt><trkpt lat="40.89175337440323" lon="9.141678170102473"><ele>471.5</ele><time>2026-05-01T11:28:58Z</time></trkpt><trkpt lat="40.891648728437836" lon="9.14156867247143"><ele>471.75</ele><time>2026-05-01T11:28:59Z</time></trkpt><trkpt lat="40.891541526404254" lon="9.141439527324927"><ele>472.0</ele><time>2026-05-01T11:29:00Z</time></trkpt><trkpt lat="40.8914266904784" lon="9.14130023189755"><ele>472.0</ele><time>2026-05-01T11:29:01Z</time></trkpt><trkpt lat="40.89128860776958" lon="9.1411540526803"><ele>472.0</ele><time>2026-05-01T11:29:02Z</time></trkpt><trkpt lat="40.89113328176331" lon="9.14100365379785"><ele>472.0</ele><time>2026-05-01T11:29:03Z</time></trkpt><trkpt lat="40.890984989102485" lon="9.140842830824651"><ele>474.6666666666667</ele><time>2026-05-01T11:29:04Z</time></trkpt><trkpt lat="40.890837829577926" lon="9.140693037171781"><ele>477.33333333333337</ele><time>2026-05-01T11:29:05Z</time></trkpt><trkpt lat="40.89068149309877" lon="9.140544982650963"><ele>480.0</ele><time>2026-05-01T11:29:06Z</time></trkpt><trkpt lat="40.89052461776188" lon="9.140389745306631"><ele>480.0</ele><time>2026-05-01T11:29:07Z</time></trkpt><trkpt lat="40.890371608501276" lon="9.140222243511817"><ele>480.0</ele><time>2026-05-01T11:29:08Z</time></trkpt><trkpt lat="40.89022200199468" lon="9.140045318308085"><ele>480.0</ele><time>2026-05-01T11:29:09Z</time></trkpt><trkpt lat="40.89007859277887" lon="9.13985547262202"><ele>480.66666666666663</ele><time>2026-05-01T11:29:10Z</time></trkpt><trkpt lat="40.88994399406558" lon="9.139649151445807"><ele>481.3333333333333</ele><time>2026-05-01T11:29:11Z</time></trkpt><trkpt lat="40.889815235477684" lon="9.139428981209596"><ele>482.0</ele><time>2026-05-01T11:29:12Z</time></trkpt><trkpt lat="40.88968926205666" lon="9.139205884854551"><ele>481.66666666666663</ele><time>2026-05-01T11:29:13Z</time></trkpt><trkpt lat="40.88956536419988" lon="9.138978364540314"><ele>481.33333333333337</ele><time>2026-05-01T11:29:14Z</time></trkpt><trkpt lat="40.88943657557846" lon="9.138748408669045"><ele>481.0</ele><time>2026-05-01T11:29:15Z</time></trkpt><trkpt lat="40.889305830500916" lon="9.138518064586282"><ele>483.0</ele><time>2026-05-01T11:29:16Z</time></trkpt><trkpt lat="40.88917512627456" lon="9.138285991536335"><ele>485.0</ele><time>2026-05-01T11:29:17Z</time></trkpt><trkpt lat="40.889053135265655" lon="9.138067052033309"><ele>487.0</ele><time>2026-05-01T11:29:18Z</time></trkpt><trkpt lat="40.8889351879553" lon="9.13785561555416"><ele>487.0</ele><time>2026-05-01T11:29:19Z</time></trkpt><trkpt lat="40.88881839795605" lon="9.13764904230398"><ele>487.0</ele><time>2026-05-01T11:29:20Z</time></trkpt><trkpt lat="40.88869485892764" lon="9.13745582631041"><ele>487.0</ele><time>2026-05-01T11:29:21Z</time></trkpt><trkpt lat="40.88855008098903" lon="9.13728223857056"><ele>490.33333333333337</ele><time>2026-05-01T11:29:22Z</time></trkpt><trkpt lat="40.888385319906035" lon="9.137132878095345"><ele>493.66666666666663</ele><time>2026-05-01T11:29:23Z</time></trkpt><trkpt lat="40.88820867087449" lon="9.13700194064141"><ele>497.0</ele><time>2026-05-01T11:29:24Z</time></trkpt><trkpt lat="40.888025459250635" lon="9.13687066603086"><ele>497.0</ele><time>2026-05-01T11:29:25Z</time></trkpt><trkpt lat="40.88784030406321" lon="9.136738813603467"><ele>497.0</ele><time>2026-05-01T11:29:26Z</time></trkpt><trkpt lat="40.88765405318998" lon="9.136607376499088"><ele>497.0</ele><time>2026-05-01T11:29:27Z</time></trkpt><trkpt lat="40.887469084571364" lon="9.136473781380424"><ele>497.66666666666663</ele><time>2026-05-01T11:29:28Z</time></trkpt><trkpt lat="40.88728372962962" lon="9.136337484802274"><ele>498.33333333333337</ele><time>2026-05-01T11:29:29Z</time></trkpt><trkpt lat="40.88709934921145" lon="9.136200648489343"><ele>499.0</ele><time>2026-05-01T11:29:30Z</time></trkpt><trkpt lat="40.88691202281705" lon="9.13606269821259"><ele>499.0</ele><time>2026-05-01T11:29:31Z</time></trkpt><trkpt lat="40.88672197918247" lon="9.135924694614879"><ele>499.0</ele><time>2026-05-01T11:29:32Z</time></trkpt><trkpt lat="40.8865311754951" lon="9.135791771956695"><ele>499.0</ele><time>2026-05-01T11:29:33Z</time></trkpt><trkpt lat="40.88635159569862" lon="9.135636497578268"><ele>499.6666666666667</ele><time>2026-05-01T11:29:34Z</time></trkpt><trkpt lat="40.88616619108627" lon="9.135501542282697"><ele>500.33333333333337</ele><time>2026-05-01T11:29:35Z</time></trkpt><trkpt lat="40.885981709608636" lon="9.135369478464733"><ele>501.0</ele><time>2026-05-01T11:29:36Z</time></trkpt><trkpt lat="40.88579053201596" lon="9.135257757560138"><ele>501.0</ele><time>2026-05-01T11:29:37Z</time></trkpt><trkpt lat="40.885609379926954" lon="9.135126493434354"><ele>501.0</ele><time>2026-05-01T11:29:38Z</time></trkpt><trkpt lat="40.88543077331596" lon="9.134997435775336"><ele>501.0</ele><time>2026-05-01T11:29:39Z</time></trkpt><trkpt lat="40.88526681652689" lon="9.134845811664812"><ele>502.33333333333337</ele><time>2026-05-01T11:29:40Z</time></trkpt><trkpt lat="40.88509778892376" lon="9.134699979879562"><ele>503.6666666666667</ele><time>2026-05-01T11:29:41Z</time></trkpt><trkpt lat="40.884931778733474" lon="9.13454096372972"><ele>505.0</ele><time>2026-05-01T11:29:42Z</time></trkpt><trkpt lat="40.88475621846284" lon="9.134389290445327"><ele>505.0</ele><time>2026-05-01T11:29:43Z</time></trkpt><trkpt lat="40.884592317054434" lon="9.134208933148242"><ele>505.0</ele><time>2026-05-01T11:29:44Z</time></trkpt><trkpt lat="40.88442137645802" lon="9.134037687545527"><ele>505.0</ele><time>2026-05-01T11:29:45Z</time></trkpt><trkpt lat="40.88424966663578" lon="9.133863209295189"><ele>504.6666666666667</ele><time>2026-05-01T11:29:46Z</time></trkpt><trkpt lat="40.884085838056556" lon="9.13366647339679"><ele>504.33333333333337</ele><time>2026-05-01T11:29:47Z</time></trkpt><trkpt lat="40.88391204065636" lon="9.133486969276023"><ele>504.0</ele><time>2026-05-01T11:29:48Z</time></trkpt><trkpt lat="40.88374164957659" lon="9.133310983314868"><ele>504.66666666666663</ele><time>2026-05-01T11:29:49Z</time></trkpt><trkpt lat="40.883572223716854" lon="9.133135994273589"><ele>505.3333333333333</ele><time>2026-05-01T11:29:50Z</time></trkpt><trkpt lat="40.88340750750898" lon="9.132965891614154"><ele>506.0</ele><time>2026-05-01T11:29:51Z</time></trkpt><trkpt lat="40.883247372223" lon="9.132800645892116"><ele>506.0</ele><time>2026-05-01T11:29:52Z</time></trkpt><trkpt lat="40.883091233559654" lon="9.1326395240083"><ele>506.0</ele><time>2026-05-01T11:29:53Z</time></trkpt><trkpt lat="40.882938793944376" lon="9.132482219674445"><ele>506.0</ele><time>2026-05-01T11:29:54Z</time></trkpt><trkpt lat="40.88278953189517" lon="9.132328194078514"><ele>508.0</ele><time>2026-05-01T11:29:55Z</time></trkpt><trkpt lat="40.88264505405744" lon="9.13217910541903"><ele>510.0</ele><time>2026-05-01T11:29:56Z</time></trkpt><trkpt lat="40.88250414703315" lon="9.132033701407163"><ele>512.0</ele><time>2026-05-01T11:29:57Z</time></trkpt><trkpt lat="40.88236968611339" lon="9.131894949450114"><ele>512.0</ele><time>2026-05-01T11:29:58Z</time></trkpt><trkpt lat="40.88224017152125" lon="9.131761301551379"><ele>512.0</ele><time>2026-05-01T11:29:59Z</time></trkpt><trkpt lat="40.882110862740156" lon="9.131627866042047"><ele>512.0</ele><time>2026-05-01T11:30:00Z</time></trkpt><trkpt lat="40.88198760827809" lon="9.131500679169656"><ele>511.75</ele><time>2026-05-01T11:30:01Z</time></trkpt><trkpt lat="40.881869787393946" lon="9.131379098235922"><ele>511.5</ele><time>2026-05-01T11:30:02Z</time></trkpt><trkpt lat="40.88175571939635" lon="9.131261389871858"><ele>511.25</ele><time>2026-05-01T11:30:03Z</time></trkpt><trkpt lat="40.881645848578025" lon="9.131148012641274"><ele>511.0</ele><time>2026-05-01T11:30:04Z</time></trkpt><trkpt lat="40.881541589062856" lon="9.131040425807639"><ele>512.0</ele><time>2026-05-01T11:30:05Z</time></trkpt><trkpt lat="40.8814402316289" lon="9.13093583367129"><ele>513.0</ele><time>2026-05-01T11:30:06Z</time></trkpt><trkpt lat="40.88134022673909" lon="9.130832637310743"><ele>514.0</ele><time>2026-05-01T11:30:07Z</time></trkpt><trkpt lat="40.88123792856448" lon="9.130726455369507"><ele>515.0</ele><time>2026-05-01T11:30:08Z</time></trkpt><trkpt lat="40.88113929652258" lon="9.130624086061296"><ele>515.4</ele><time>2026-05-01T11:30:09Z</time></trkpt><trkpt lat="40.8810519672942" lon="9.130533447865599"><ele>515.8</ele><time>2026-05-01T11:30:10Z</time></trkpt><trkpt lat="40.88097193042043" lon="9.13045037829412"><ele>516.2</ele><time>2026-05-01T11:30:11Z</time></trkpt><trkpt lat="40.88091016127236" lon="9.130386268672599"><ele>516.6</ele><time>2026-05-01T11:30:12.001Z</time></trkpt><trkpt lat="40.88085385590024" lon="9.130327830334894"><ele>517.0</ele><time>2026-05-01T11:30:15.001Z</time></trkpt><trkpt lat="40.880723211508666" lon="9.13038371667997"><ele>517.0</ele><time>2026-05-01T11:30:19.001Z</time></trkpt><trkpt lat="40.880659540449265" lon="9.130409402165197"><ele>517.0</ele><time>2026-05-01T11:30:24.001Z</time></trkpt><trkpt lat="40.880573143322394" lon="9.130372921574024"><ele>517.0</ele><time>2026-05-01T11:30:26.001Z</time></trkpt><trkpt lat="40.880505810320265" lon="9.130349402866932"><ele>517.0</ele><time>2026-05-01T11:30:27.001Z</time></trkpt><trkpt lat="40.88043129657846" lon="9.130278308749832"><ele>517.0</ele><time>2026-05-01T11:30:28.001Z</time></trkpt><trkpt lat="40.88034104582275" lon="9.130245598518188"><ele>517.0</ele><time>2026-05-01T11:30:29.001Z</time></trkpt><trkpt lat="40.88023946231357" lon="9.13020858433333"><ele>517.0</ele><time>2026-05-01T11:30:30.001Z</time></trkpt><trkpt lat="40.88012140530758" lon="9.13016540790248"><ele>517.0</ele><time>2026-05-01T11:30:31.001Z</time></trkpt><trkpt lat="40.87999781509271" lon="9.13011740451389"><ele>517.0</ele><time>2026-05-01T11:30:32Z</time></trkpt><trkpt lat="40.87988150795179" lon="9.13006892619251"><ele>517.0</ele><time>2026-05-01T11:30:33Z</time></trkpt><trkpt lat="40.879771596986146" lon="9.130019399111601"><ele>516.8000000000001</ele><time>2026-05-01T11:30:34Z</time></trkpt><trkpt lat="40.87965637995847" lon="9.129987761417432"><ele>516.6</ele><time>2026-05-01T11:30:35Z</time></trkpt><trkpt lat="40.879558942082625" lon="9.129927973401209"><ele>516.4000000000001</ele><time>2026-05-01T11:30:36Z</time></trkpt><trkpt lat="40.879459552428976" lon="9.129909016661717"><ele>516.2</ele><time>2026-05-01T11:30:37Z</time></trkpt><trkpt lat="40.87935132950336" lon="9.129846697174143"><ele>516.0</ele><time>2026-05-01T11:30:38Z</time></trkpt><trkpt lat="40.87924077979261" lon="9.129827582413068"><ele>516.0</ele><time>2026-05-01T11:30:39Z</time></trkpt><trkpt lat="40.87914479233462" lon="9.12978162206033"><ele>516.0</ele><time>2026-05-01T11:30:40Z</time></trkpt><trkpt lat="40.87903388219827" lon="9.129767639270916"><ele>516.0</ele><time>2026-05-01T11:30:41Z</time></trkpt><trkpt lat="40.8789057218512" lon="9.12977029248068"><ele>516.0</ele><time>2026-05-01T11:30:42Z</time></trkpt><trkpt lat="40.878794768200926" lon="9.129777422943683"><ele>516.0</ele><time>2026-05-01T11:30:43Z</time></trkpt><trkpt lat="40.87870356277474" lon="9.129769039368187"><ele>516.0</ele><time>2026-05-01T11:30:44Z</time></trkpt><trkpt lat="40.87862140977903" lon="9.129742933862785"><ele>516.0</ele><time>2026-05-01T11:30:45Z</time></trkpt><trkpt lat="40.87853470255182" lon="9.129695836064297"><ele>516.0</ele><time>2026-05-01T11:30:46Z</time></trkpt><trkpt lat="40.87842836320119" lon="9.129622936612435"><ele>516.0</ele><time>2026-05-01T11:30:47Z</time></trkpt><trkpt lat="40.8783149242059" lon="9.129530327394141"><ele>515.75</ele><time>2026-05-01T11:30:48Z</time></trkpt><trkpt lat="40.878220980623055" lon="9.129400434782365"><ele>515.5</ele><time>2026-05-01T11:30:49Z</time></trkpt><trkpt lat="40.87815362384046" lon="9.129267184002115"><ele>515.25</ele><time>2026-05-01T11:30:50Z</time></trkpt><trkpt lat="40.87810603831152" lon="9.129116514043336"><ele>515.0</ele><time>2026-05-01T11:30:51Z</time></trkpt><trkpt lat="40.87805334064052" lon="9.12893327969179"><ele>515.8</ele><time>2026-05-01T11:30:52Z</time></trkpt><trkpt lat="40.877996600173674" lon="9.128755557923675"><ele>516.6</ele><time>2026-05-01T11:30:53Z</time></trkpt><trkpt lat="40.87794557556893" lon="9.12860985730955"><ele>517.4</ele><time>2026-05-01T11:30:54Z</time></trkpt><trkpt lat="40.87790219635222" lon="9.128508781976386"><ele>518.2</ele><time>2026-05-01T11:30:55Z</time></trkpt><trkpt lat="40.87787148123864" lon="9.128431453739385"><ele>519.0</ele><time>2026-05-01T11:30:56Z</time></trkpt><trkpt lat="40.87783050794647" lon="9.128364049719622"><ele>519.0</ele><time>2026-05-01T11:30:58Z</time></trkpt><trkpt lat="40.87769196225216" lon="9.12831974592434"><ele>519.0</ele><time>2026-05-01T11:31:01Z</time></trkpt><trkpt lat="40.877609891729385" lon="9.128339591110814"><ele>519.0</ele><time>2026-05-01T11:31:02Z</time></trkpt><trkpt lat="40.87752325689821" lon="9.12835133033778"><ele>519.0</ele><time>2026-05-01T11:31:03Z</time></trkpt><trkpt lat="40.87743377207024" lon="9.128353787978474"><ele>519.0</ele><time>2026-05-01T11:31:04Z</time></trkpt><trkpt lat="40.87734208885282" lon="9.128354435899263"><ele>518.4</ele><time>2026-05-01T11:31:05Z</time></trkpt><trkpt lat="40.87724600876085" lon="9.12836356903399"><ele>517.8</ele><time>2026-05-01T11:31:06Z</time></trkpt><trkpt lat="40.87715232164847" lon="9.12836975941014"><ele>517.2</ele><time>2026-05-01T11:31:07Z</time></trkpt><trkpt lat="40.8770552000472" lon="9.128355746632419"><ele>516.6</ele><time>2026-05-01T11:31:08Z</time></trkpt><trkpt lat="40.87695826547233" lon="9.128360442135929"><ele>516.0</ele><time>2026-05-01T11:31:09Z</time></trkpt><trkpt lat="40.87686481189862" lon="9.128385969669417"><ele>516.0</ele><time>2026-05-01T11:31:10Z</time></trkpt><trkpt lat="40.876782733983504" lon="9.128368944868285"><ele>516.0</ele><time>2026-05-01T11:31:11Z</time></trkpt><trkpt lat="40.8767063099982" lon="9.12838840611443"><ele>516.0</ele><time>2026-05-01T11:31:12Z</time></trkpt><trkpt lat="40.87659968255785" lon="9.12837320243043"><ele>516.0</ele><time>2026-05-01T11:31:14Z</time></trkpt><trkpt lat="40.87653869581871" lon="9.128347388246528"><ele>516.0</ele><time>2026-05-01T11:31:16Z</time></trkpt><trkpt lat="40.87646138585698" lon="9.12831913413267"><ele>516.0</ele><time>2026-05-01T11:31:19Z</time></trkpt><trkpt lat="40.87654119021487" lon="9.128140056052949"><ele>516.3333333333334</ele><time>2026-05-01T11:31:20Z</time></trkpt><trkpt lat="40.87631600390514" lon="9.128335719373885"><ele>516.6666666666667</ele><time>2026-05-01T11:31:23Z</time></trkpt><trkpt lat="40.876202854512236" lon="9.128340752794722"><ele>517.0</ele><time>2026-05-01T11:31:25Z</time></trkpt><trkpt lat="40.8761072363222" lon="9.12833748412895"><ele>517.0</ele><time>2026-05-01T11:31:28Z</time></trkpt><trkpt lat="40.87603551840254" lon="9.128329251138709"><ele>517.0</ele><time>2026-05-01T11:31:29Z</time></trkpt><trkpt lat="40.87593834972824" lon="9.128300063090013"><ele>517.0</ele><time>2026-05-01T11:31:30Z</time></trkpt><trkpt lat="40.87583509355929" lon="9.12824418019294"><ele>517.0</ele><time>2026-05-01T11:31:31Z</time></trkpt><trkpt lat="40.87575377327788" lon="9.128187679833776"><ele>517.0</ele><time>2026-05-01T11:31:32Z</time></trkpt><trkpt lat="40.87568242410172" lon="9.128134409926483"><ele>517.8333333333334</ele><time>2026-05-01T11:31:33Z</time></trkpt><trkpt lat="40.8756214018494" lon="9.128086011361074"><ele>518.6666666666667</ele><time>2026-05-01T11:31:34Z</time></trkpt><trkpt lat="40.87551408124389" lon="9.12799991979318"><ele>519.5</ele><time>2026-05-01T11:31:36Z</time></trkpt><trkpt lat="40.87544342893378" lon="9.127927283063515"><ele>520.3333333333334</ele><time>2026-05-01T11:31:37Z</time></trkpt><trkpt lat="40.875388680386294" lon="9.12787815237446"><ele>521.1666666666666</ele><time>2026-05-01T11:31:38Z</time></trkpt><trkpt lat="40.87530899105711" lon="9.127833780741813"><ele>522.0</ele><time>2026-05-01T11:31:40Z</time></trkpt><trkpt lat="40.8752300206424" lon="9.127769808509965"><ele>522.0</ele><time>2026-05-01T11:31:43Z</time></trkpt><trkpt lat="40.87511832016586" lon="9.127679322412106"><ele>522.0</ele><time>2026-05-01T11:31:45Z</time></trkpt><trkpt lat="40.87503685254175" lon="9.127593608633433"><ele>522.0</ele><time>2026-05-01T11:31:47Z</time></trkpt><trkpt lat="40.87496329587648" lon="9.12755325138706"><ele>522.0</ele><time>2026-05-01T11:31:48Z</time></trkpt><trkpt lat="40.87490026074062" lon="9.127501666687253"><ele>522.0</ele><time>2026-05-01T11:31:49Z</time></trkpt><trkpt lat="40.87484544544195" lon="9.127456808620915"><ele>522.6666666666666</ele><time>2026-05-01T11:31:50Z</time></trkpt><trkpt lat="40.87476226031358" lon="9.127395045748203"><ele>523.3333333333334</ele><time>2026-05-01T11:31:51Z</time></trkpt><trkpt lat="40.87468655671996" lon="9.12735174788128"><ele>524.0</ele><time>2026-05-01T11:31:52Z</time></trkpt><trkpt lat="40.87461738278267" lon="9.127320684724577"><ele>524.6666666666667</ele><time>2026-05-01T11:31:53Z</time></trkpt><trkpt lat="40.874542503383914" lon="9.127306972094585"><ele>525.3333333333334</ele><time>2026-05-01T11:31:54Z</time></trkpt><trkpt lat="40.87447666605788" lon="9.12730356189362"><ele>526.0</ele><time>2026-05-01T11:31:55Z</time></trkpt><trkpt lat="40.87437064301148" lon="9.127314947150495"><ele>525.8333333333334</ele><time>2026-05-01T11:31:57Z</time></trkpt><trkpt lat="40.87429073311879" lon="9.127359488309489"><ele>525.6666666666667</ele><time>2026-05-01T11:31:59Z</time></trkpt><trkpt lat="40.87423094446708" lon="9.127386146480024"><ele>525.5</ele><time>2026-05-01T11:32:01Z</time></trkpt><trkpt lat="40.87412714769157" lon="9.127438547969671"><ele>525.3333333333334</ele><time>2026-05-01T11:32:03Z</time></trkpt><trkpt lat="40.87406835135028" lon="9.127471615641296"><ele>525.1666666666666</ele><time>2026-05-01T11:32:04Z</time></trkpt><trkpt lat="40.87398081935976" lon="9.127548631195973"><ele>525.0</ele><time>2026-05-01T11:32:06Z</time></trkpt><trkpt lat="40.87388929494905" lon="9.127658227974454"><ele>525.0</ele><time>2026-05-01T11:32:08Z</time></trkpt><trkpt lat="40.873847453589924" lon="9.127732194148555"><ele>525.0</ele><time>2026-05-01T11:32:09Z</time></trkpt><trkpt lat="40.873784785721334" lon="9.12789929914317"><ele>525.0</ele><time>2026-05-01T11:32:11Z</time></trkpt><trkpt lat="40.87375477671534" lon="9.128020089661101"><ele>525.0</ele><time>2026-05-01T11:32:12Z</time></trkpt><trkpt lat="40.8737203890416" lon="9.128188363341243"><ele>525.0</ele><time>2026-05-01T11:32:13Z</time></trkpt><trkpt lat="40.87368720440827" lon="9.128356580173262"><ele>524.5</ele><time>2026-05-01T11:32:14Z</time></trkpt><trkpt lat="40.8736636369988" lon="9.128472178210481"><ele>524.0</ele><time>2026-05-01T11:32:15Z</time></trkpt><trkpt lat="40.87364360068848" lon="9.128563047115977"><ele>523.5</ele><time>2026-05-01T11:32:16Z</time></trkpt><trkpt lat="40.873614321751276" lon="9.128659583811267"><ele>523.0</ele><time>2026-05-01T11:32:17Z</time></trkpt><trkpt lat="40.87358334945861" lon="9.128737998638915"><ele>522.5</ele><time>2026-05-01T11:32:18.001Z</time></trkpt><trkpt lat="40.873531404833024" lon="9.12882866196986"><ele>522.0</ele><time>2026-05-01T11:32:19.001Z</time></trkpt><trkpt lat="40.873467922971614" lon="9.128900919505474"><ele>523.6666666666666</ele><time>2026-05-01T11:32:20.001Z</time></trkpt><trkpt lat="40.873391607941166" lon="9.128980411702907"><ele>525.3333333333334</ele><time>2026-05-01T11:32:21.001Z</time></trkpt><trkpt lat="40.87329437912407" lon="9.129055215095612"><ele>527.0</ele><time>2026-05-01T11:32:22.001Z</time></trkpt><trkpt lat="40.87323530357686" lon="9.12910201355052"><ele>528.6666666666667</ele><time>2026-05-01T11:32:23.001Z</time></trkpt><trkpt lat="40.87317703236773" lon="9.12914784213958"><ele>530.3333333333334</ele><time>2026-05-01T11:32:24.001Z</time></trkpt><trkpt lat="40.87309771731682" lon="9.129206857278739"><ele>532.0</ele><time>2026-05-01T11:32:25.001Z</time></trkpt><trkpt lat="40.87303395051587" lon="9.1292490374944"><ele>532.0</ele><time>2026-05-01T11:32:26.001Z</time></trkpt><trkpt lat="40.872969613138196" lon="9.12928169203263"><ele>532.0</ele><time>2026-05-01T11:32:27.001Z</time></trkpt><trkpt lat="40.87288263396206" lon="9.129312142931662"><ele>532.0</ele><time>2026-05-01T11:32:28.001Z</time></trkpt><trkpt lat="40.87278609318256" lon="9.129314813135302"><ele>532.0</ele><time>2026-05-01T11:32:29.001Z</time></trkpt><trkpt lat="40.872683389259024" lon="9.129292099063475"><ele>532.0</ele><time>2026-05-01T11:32:30.001Z</time></trkpt><trkpt lat="40.87259184580262" lon="9.129258600448425"><ele>533.1666666666667</ele><time>2026-05-01T11:32:31.001Z</time></trkpt><trkpt lat="40.87250372841778" lon="9.129210343015341"><ele>534.3333333333334</ele><time>2026-05-01T11:32:32.001Z</time></trkpt><trkpt lat="40.872416816582366" lon="9.129167222462069"><ele>535.5</ele><time>2026-05-01T11:32:33.001Z</time></trkpt><trkpt lat="40.87235392405868" lon="9.129129195085882"><ele>536.6666666666666</ele><time>2026-05-01T11:32:34.001Z</time></trkpt><trkpt lat="40.872263469810186" lon="9.129062297723868"><ele>537.8333333333333</ele><time>2026-05-01T11:32:35.001Z</time></trkpt><trkpt lat="40.872190618079" lon="9.128996059451378"><ele>539.0</ele><time>2026-05-01T11:32:36.001Z</time></trkpt><trkpt lat="40.87212871578807" lon="9.128929831315528"><ele>541.3333333333333</ele><time>2026-05-01T11:32:37.001Z</time></trkpt><trkpt lat="40.872069352901626" lon="9.128860876849318"><ele>543.6666666666666</ele><time>2026-05-01T11:32:38.001Z</time></trkpt><trkpt lat="40.872000146999554" lon="9.128779207003374"><ele>546.0</ele><time>2026-05-01T11:32:40Z</time></trkpt><trkpt lat="40.87194744659917" lon="9.128717714761402"><ele>548.3333333333334</ele><time>2026-05-01T11:32:41Z</time></trkpt><trkpt lat="40.87189384720026" lon="9.128655173519284"><ele>550.6666666666667</ele><time>2026-05-01T11:32:42Z</time></trkpt><trkpt lat="40.87182572767782" lon="9.128575689814715"><ele>553.0</ele><time>2026-05-01T11:32:43Z</time></trkpt><trkpt lat="40.87173928884367" lon="9.128490886827437"><ele>553.0</ele><time>2026-05-01T11:32:45Z</time></trkpt><trkpt lat="40.871620360646915" lon="9.128428618314361"><ele>553.0</ele><time>2026-05-01T11:32:47Z</time></trkpt><trkpt lat="40.87151919895709" lon="9.128422075184623"><ele>553.0</ele><time>2026-05-01T11:32:48Z</time></trkpt><trkpt lat="40.87144317092978" lon="9.128484397590501"><ele>553.0</ele><time>2026-05-01T11:32:49Z</time></trkpt><trkpt lat="40.871343131257966" lon="9.128559435852612"><ele>553.0</ele><time>2026-05-01T11:32:51Z</time></trkpt><trkpt lat="40.87127684014057" lon="9.12859299153606"><ele>553.0</ele><time>2026-05-01T11:32:52Z</time></trkpt><trkpt lat="40.87116872853165" lon="9.128606895201878"><ele>553.0</ele><time>2026-05-01T11:32:53Z</time></trkpt><trkpt lat="40.871043895713534" lon="9.12854659163418"><ele>553.0</ele><time>2026-05-01T11:32:54Z</time></trkpt><trkpt lat="40.87093779235766" lon="9.128500078121098"><ele>553.0</ele><time>2026-05-01T11:32:55Z</time></trkpt><trkpt lat="40.87085135156427" lon="9.128473318662861"><ele>553.0</ele><time>2026-05-01T11:32:56Z</time></trkpt><trkpt lat="40.87076014360499" lon="9.128462445797554"><ele>554.1999999999999</ele><time>2026-05-01T11:32:57Z</time></trkpt><trkpt lat="40.87068175769165" lon="9.128486476141704"><ele>555.4</ele><time>2026-05-01T11:32:58Z</time></trkpt><trkpt lat="40.87060525240081" lon="9.128523330559098"><ele>556.5999999999999</ele><time>2026-05-01T11:32:59Z</time></trkpt><trkpt lat="40.87051413620715" lon="9.12858638948402"><ele>557.8</ele><time>2026-05-01T11:33:01Z</time></trkpt><trkpt lat="40.870409899348005" lon="9.128670592554286"><ele>559.0</ele><time>2026-05-01T11:33:03Z</time></trkpt><trkpt lat="40.87030795963252" lon="9.128746008690282"><ele>559.0</ele><time>2026-05-01T11:33:05Z</time></trkpt><trkpt lat="40.87017130271073" lon="9.12881178222027"><ele>559.0</ele><time>2026-05-01T11:33:06Z</time></trkpt><trkpt lat="40.870096236774174" lon="9.128824641555875"><ele>559.0</ele><time>2026-05-01T11:33:07Z</time></trkpt><trkpt lat="40.87001894828945" lon="9.128811187657588"><ele>559.0</ele><time>2026-05-01T11:33:08Z</time></trkpt><trkpt lat="40.86992614280913" lon="9.12877240877455"><ele>559.0</ele><time>2026-05-01T11:33:10Z</time></trkpt><trkpt lat="40.86986565974189" lon="9.128742241360452"><ele>559.8333333333334</ele><time>2026-05-01T11:33:24Z</time></trkpt><trkpt lat="40.86980462577615" lon="9.128711905062465"><ele>560.6666666666667</ele><time>2026-05-01T11:33:28Z</time></trkpt><trkpt lat="40.86973110193725" lon="9.128675360809064"><ele>561.5</ele><time>2026-05-01T11:33:32Z</time></trkpt><trkpt lat="40.869643093370314" lon="9.1286316170362"><ele>562.3333333333334</ele><time>2026-05-01T11:33:34Z</time></trkpt><trkpt lat="40.8695730013017" lon="9.128596778487879"><ele>563.1666666666666</ele><time>2026-05-01T11:33:35Z</time></trkpt><trkpt lat="40.86950859139213" lon="9.128564764206715"><ele>564.0</ele><time>2026-05-01T11:33:36Z</time></trkpt><trkpt lat="40.86944270818973" lon="9.128533788520123"><ele>564.0</ele><time>2026-05-01T11:33:37Z</time></trkpt><trkpt lat="40.86936175130084" lon="9.128500014543775"><ele>564.0</ele><time>2026-05-01T11:33:39Z</time></trkpt><trkpt lat="40.8692539613336" lon="9.128465422311688"><ele>564.0</ele><time>2026-05-01T11:33:41Z</time></trkpt><trkpt lat="40.86917791944267" lon="9.128453066079821"><ele>564.0</ele><time>2026-05-01T11:33:42Z</time></trkpt><trkpt lat="40.86907339727403" lon="9.128449504976789"><ele>564.0</ele><time>2026-05-01T11:33:43Z</time></trkpt><trkpt lat="40.86896990141526" lon="9.128461879405437"><ele>565.0</ele><time>2026-05-01T11:33:44Z</time></trkpt><trkpt lat="40.86887855817671" lon="9.128485500210168"><ele>566.0</ele><time>2026-05-01T11:33:45Z</time></trkpt><trkpt lat="40.86879993409699" lon="9.128507727459171"><ele>567.0</ele><time>2026-05-01T11:33:46Z</time></trkpt><trkpt lat="40.868670533599854" lon="9.128537280419701"><ele>568.0</ele><time>2026-05-01T11:33:48Z</time></trkpt><trkpt lat="40.86860451334701" lon="9.128545481414298"><ele>569.0</ele><time>2026-05-01T11:33:49Z</time></trkpt><trkpt lat="40.8685162840925" lon="9.12854628211837"><ele>569.0000000000001</ele><time>2026-05-01T11:33:51Z</time></trkpt><trkpt lat="40.86845243121278" lon="9.128541742210349"><ele>569.0</ele><time>2026-05-01T11:34:26.001Z</time></trkpt><trkpt lat="40.86836928755082" lon="9.128528861531898"><ele>569.0</ele><time>2026-05-01T11:34:49Z</time></trkpt><trkpt lat="40.8683042583355" lon="9.128515063009523"><ele>569.0</ele><time>2026-05-01T11:34:51Z</time></trkpt><trkpt lat="40.868230854736254" lon="9.128498122001382"><ele>569.0</ele><time>2026-05-01T11:34:53Z</time></trkpt><trkpt lat="40.8681547978912" lon="9.128479595011878"><ele>569.0000000000001</ele><time>2026-05-01T11:34:56Z</time></trkpt><trkpt lat="40.86808685993466" lon="9.12846304573992"><ele>569.0</ele><time>2026-05-01T11:34:58Z</time></trkpt><trkpt lat="40.868003208657505" lon="9.128442668794909"><ele>569.1666666666666</ele><time>2026-05-01T11:35:00Z</time></trkpt><trkpt lat="40.86793429899511" lon="9.128428842620345"><ele>569.3333333333333</ele><time>2026-05-01T11:35:02Z</time></trkpt><trkpt lat="40.86786342639608" lon="9.128418501889168"><ele>569.5</ele><time>2026-05-01T11:35:06Z</time></trkpt><trkpt lat="40.86779984983272" lon="9.12841658903034"><ele>569.6666666666666</ele><time>2026-05-01T11:35:22Z</time></trkpt><trkpt lat="40.86769336535814" lon="9.128420345098318"><ele>569.8333333333334</ele><time>2026-05-01T11:35:25Z</time></trkpt><trkpt lat="40.867620361132964" lon="9.128425508671361"><ele>570.0</ele><time>2026-05-01T11:35:26Z</time></trkpt><trkpt lat="40.86754737208365" lon="9.128432249641653"><ele>570.3333333333334</ele><time>2026-05-01T11:35:27Z</time></trkpt><trkpt lat="40.86747833423227" lon="9.12843946320862"><ele>570.6666666666666</ele><time>2026-05-01T11:35:28Z</time></trkpt><trkpt lat="40.86739636584163" lon="9.128448027849121"><ele>571.0</ele><time>2026-05-01T11:35:29Z</time></trkpt><trkpt lat="40.86731607823305" lon="9.128456416869698"><ele>571.3333333333333</ele><time>2026-05-01T11:35:30Z</time></trkpt><trkpt lat="40.86724844688432" lon="9.128463483482008"><ele>571.6666666666666</ele><time>2026-05-01T11:35:31Z</time></trkpt><trkpt lat="40.86716361217495" lon="9.1284723476074"><ele>572.0</ele><time>2026-05-01T11:35:32Z</time></trkpt><trkpt lat="40.867083711780616" lon="9.128480034817903"><ele>572.0</ele><time>2026-05-01T11:35:33Z</time></trkpt><trkpt lat="40.86700199317472" lon="9.128487046182595"><ele>572.0</ele><time>2026-05-01T11:35:34Z</time></trkpt><trkpt lat="40.86692100391188" lon="9.128493994968958"><ele>572.0</ele><time>2026-05-01T11:35:35Z</time></trkpt><trkpt lat="40.8668403541451" lon="9.128498489654092"><ele>572.0</ele><time>2026-05-01T11:35:36Z</time></trkpt><trkpt lat="40.866762359238166" lon="9.128501600726155"><ele>572.0</ele><time>2026-05-01T11:35:37Z</time></trkpt><trkpt lat="40.86669526734141" lon="9.12849728383085"><ele>572.0</ele><time>2026-05-01T11:35:38Z</time></trkpt><trkpt lat="40.866629430550624" lon="9.128489523441623"><ele>572.3333333333333</ele><time>2026-05-01T11:35:39Z</time></trkpt><trkpt lat="40.866548945076666" lon="9.128473449560868"><ele>572.6666666666666</ele><time>2026-05-01T11:35:40Z</time></trkpt><trkpt lat="40.8664761624657" lon="9.128457916113033"><ele>573.0</ele><time>2026-05-01T11:35:41Z</time></trkpt><trkpt lat="40.86641041236259" lon="9.128443883554116"><ele>573.3333333333334</ele><time>2026-05-01T11:35:42Z</time></trkpt><trkpt lat="40.86630057083909" lon="9.128420440890414"><ele>573.6666666666667</ele><time>2026-05-01T11:35:44Z</time></trkpt><trkpt lat="40.866204147580866" lon="9.128400656164098"><ele>574.0</ele><time>2026-05-01T11:35:46Z</time></trkpt><trkpt lat="40.866119757687265" lon="9.12838335394111"><ele>574.0</ele><time>2026-05-01T11:35:47Z</time></trkpt><trkpt lat="40.86603542090808" lon="9.128363495271376"><ele>574.0</ele><time>2026-05-01T11:35:48Z</time></trkpt><trkpt lat="40.865972059693" lon="9.12834784369117"><ele>574.0</ele><time>2026-05-01T11:35:49Z</time></trkpt><trkpt lat="40.86586375367624" lon="9.128306365382869"><ele>574.0</ele><time>2026-05-01T11:35:52Z</time></trkpt><trkpt lat="40.86576508933744" lon="9.128261969353318"><ele>574.0</ele><time>2026-05-01T11:35:54Z</time></trkpt><trkpt lat="40.865655132902404" lon="9.128211061891264"><ele>576.6666666666667</ele><time>2026-05-01T11:35:56Z</time></trkpt><trkpt lat="40.86558173133356" lon="9.128176764025199"><ele>579.3333333333334</ele><time>2026-05-01T11:35:57Z</time></trkpt><trkpt lat="40.86549614466904" lon="9.128136080670394"><ele>582.0</ele><time>2026-05-01T11:35:58Z</time></trkpt><trkpt lat="40.8654186237683" lon="9.128099231338062"><ele>584.6666666666666</ele><time>2026-05-01T11:35:59Z</time></trkpt><trkpt lat="40.865339441620506" lon="9.128062471551335"><ele>587.3333333333333</ele><time>2026-05-01T11:36:00Z</time></trkpt><trkpt lat="40.865262650526596" lon="9.128027783929502"><ele>590.0</ele><time>2026-05-01T11:36:01Z</time></trkpt><trkpt lat="40.86519390604525" lon="9.127998305447603"><ele>590.0</ele><time>2026-05-01T11:36:02Z</time></trkpt><trkpt lat="40.8651315260493" lon="9.127973669247966"><ele>590.0</ele><time>2026-05-01T11:36:03Z</time></trkpt><trkpt lat="40.86503645795383" lon="9.127943772173705"><ele>590.0</ele><time>2026-05-01T11:36:05Z</time></trkpt><trkpt lat="40.86497106549037" lon="9.127924475818169"><ele>590.0</ele><time>2026-05-01T11:36:07Z</time></trkpt><trkpt lat="40.86491009412484" lon="9.127898539372012"><ele>590.0</ele><time>2026-05-01T11:36:10Z</time></trkpt><trkpt lat="40.86496678905961" lon="9.127568899643743"><ele>589.2</ele><time>2026-05-01T11:36:11Z</time></trkpt><trkpt lat="40.86497543834631" lon="9.12742096963476"><ele>588.4</ele><time>2026-05-01T11:41:27Z</time></trkpt><trkpt lat="40.86496484673655" lon="9.12724924393279"><ele>587.6</ele><time>2026-05-01T11:41:29Z</time></trkpt><trkpt lat="40.86496517177487" lon="9.127162885051579"><ele>586.8</ele><time>2026-05-01T11:41:30Z</time></trkpt><trkpt lat="40.864970161048376" lon="9.127071559909146"><ele>586.0</ele><time>2026-05-01T11:41:31Z</time></trkpt><trkpt lat="40.86497849592508" lon="9.126971993300787"><ele>585.9999999999999</ele><time>2026-05-01T11:41:32Z</time></trkpt><trkpt lat="40.86498645309939" lon="9.126877536251593"><ele>586.0</ele><time>2026-05-01T11:41:33Z</time></trkpt><trkpt lat="40.86499439731673" lon="9.126786584746743"><ele>586.0</ele><time>2026-05-01T11:41:34Z</time></trkpt><trkpt lat="40.86500587902387" lon="9.126700892511948"><ele>586.0</ele><time>2026-05-01T11:41:35Z</time></trkpt><trkpt lat="40.865007257026114" lon="9.126551242092308"><ele>586.0</ele><time>2026-05-01T11:41:37Z</time></trkpt><trkpt lat="40.864997281407334" lon="9.126466230451436"><ele>585.9999999999999</ele><time>2026-05-01T11:41:38Z</time></trkpt><trkpt lat="40.864985101941556" lon="9.12638449851252"><ele>586.0</ele><time>2026-05-01T11:41:39Z</time></trkpt><trkpt lat="40.864951156281016" lon="9.126231343287106"><ele>587.1666666666667</ele><time>2026-05-01T11:41:41Z</time></trkpt><trkpt lat="40.864923354162464" lon="9.126148272837144"><ele>588.3333333333334</ele><time>2026-05-01T11:41:42Z</time></trkpt><trkpt lat="40.86488829308012" lon="9.126067892215362"><ele>589.5</ele><time>2026-05-01T11:41:43Z</time></trkpt><trkpt lat="40.864851112108006" lon="9.125988040692354"><ele>590.6666666666666</ele><time>2026-05-01T11:41:44Z</time></trkpt><trkpt lat="40.86482265180243" lon="9.125913642142091"><ele>591.8333333333333</ele><time>2026-05-01T11:41:45Z</time></trkpt><trkpt lat="40.86476433306289" lon="9.125761801462586"><ele>593.0</ele><time>2026-05-01T11:41:47Z</time></trkpt><trkpt lat="40.864725605587076" lon="9.125674842698366"><ele>594.0</ele><time>2026-05-01T11:41:48Z</time></trkpt><trkpt lat="40.86469220025055" lon="9.125562041711843"><ele>595.0</ele><time>2026-05-01T11:41:50Z</time></trkpt><trkpt lat="40.86466281838088" lon="9.125450254616526"><ele>596.0</ele><time>2026-05-01T11:41:52Z</time></trkpt><trkpt lat="40.86464699367607" lon="9.125354331388342"><ele>597.0</ele><time>2026-05-01T11:41:54Z</time></trkpt><trkpt lat="40.864682241960146" lon="9.125258527563199"><ele>598.0</ele><time>2026-05-01T11:41:57Z</time></trkpt><trkpt lat="40.86466484306311" lon="9.125174885778273"><ele>599.0</ele><time>2026-05-01T11:42:17Z</time></trkpt><trkpt lat="40.86464300275863" lon="9.125300969686572"><ele>599.0</ele><time>2026-05-01T11:42:24.999Z</time></trkpt><trkpt lat="40.86465750675695" lon="9.125393779166773"><ele>599.0</ele><time>2026-05-01T11:42:25.999Z</time></trkpt><trkpt lat="40.86468879078817" lon="9.12553369186827"><ele>599.0</ele><time>2026-05-01T11:42:26.999Z</time></trkpt><trkpt lat="40.864730580828066" lon="9.125635733725932"><ele>599.0</ele><time>2026-05-01T11:42:27.999Z</time></trkpt><trkpt lat="40.8647793864609" lon="9.125743492981133"><ele>599.0</ele><time>2026-05-01T11:42:28.999Z</time></trkpt><trkpt lat="40.86482549641446" lon="9.125846316433504"><ele>598.0</ele><time>2026-05-01T11:42:29.999Z</time></trkpt><trkpt lat="40.86486341156905" lon="9.125930833938174"><ele>597.0</ele><time>2026-05-01T11:42:30.999Z</time></trkpt><trkpt lat="40.86489735611585" lon="9.126024954114454"><ele>596.0</ele><time>2026-05-01T11:42:31.999Z</time></trkpt><trkpt lat="40.86493180056625" lon="9.126123518431033"><ele>595.0</ele><time>2026-05-01T11:42:32.999Z</time></trkpt><trkpt lat="40.864963120803964" lon="9.126225880934012"><ele>594.0</ele><time>2026-05-01T11:42:33.999Z</time></trkpt><trkpt lat="40.86498694109823" lon="9.126341581205294"><ele>593.0</ele><time>2026-05-01T11:42:34.999Z</time></trkpt><trkpt lat="40.86500278467988" lon="9.126459638379883"><ele>591.6</ele><time>2026-05-01T11:42:35.999Z</time></trkpt><trkpt lat="40.865006512609845" lon="9.126580161666798"><ele>590.1999999999999</ele><time>2026-05-01T11:42:36.999Z</time></trkpt><trkpt lat="40.86500306527295" lon="9.126698179831244"><ele>588.8</ele><time>2026-05-01T11:42:37.999Z</time></trkpt><trkpt lat="40.864997396179966" lon="9.126807495660323"><ele>587.4</ele><time>2026-05-01T11:42:38.999Z</time></trkpt><trkpt lat="40.864992775407615" lon="9.126939551148055"><ele>586.0</ele><time>2026-05-01T11:42:39.999Z</time></trkpt><trkpt lat="40.86498016254295" lon="9.127067018877913"><ele>586.0</ele><time>2026-05-01T11:42:40.999Z</time></trkpt><trkpt lat="40.86497240055262" lon="9.127183765235316"><ele>586.0</ele><time>2026-05-01T11:42:41.999Z</time></trkpt><trkpt lat="40.86497273262955" lon="9.127296955167816"><ele>586.0</ele><time>2026-05-01T11:42:42.999Z</time></trkpt><trkpt lat="40.86497594650098" lon="9.127393617245325"><ele>586.0</ele><time>2026-05-01T11:42:43.999Z</time></trkpt><trkpt lat="40.864978521789034" lon="9.127488671038012"><ele>586.0</ele><time>2026-05-01T11:42:44.999Z</time></trkpt><trkpt lat="40.86497708768556" lon="9.127683879911869"><ele>584.5</ele><time>2026-05-01T11:42:47Z</time></trkpt><trkpt lat="40.864984994389836" lon="9.12778723241312"><ele>583.0</ele><time>2026-05-01T11:42:49Z</time></trkpt><trkpt lat="40.86501723002307" lon="9.127880510011911"><ele>581.5</ele><time>2026-05-01T11:42:51Z</time></trkpt><trkpt lat="40.86497760450255" lon="9.127973622439626"><ele>580.0</ele><time>2026-05-01T11:42:54Z</time></trkpt><trkpt lat="40.86491040809119" lon="9.127953241338503"><ele>578.5</ele><time>2026-05-01T11:42:57Z</time></trkpt><trkpt lat="40.86484557960838" lon="9.127891906422217"><ele>577.0</ele><time>2026-05-01T11:43:12Z</time></trkpt><trkpt lat="40.86480524624487" lon="9.127824339336518"><ele>577.0</ele><time>2026-05-01T11:43:15Z</time></trkpt><trkpt lat="40.8647667183595" lon="9.127755362968164"><ele>577.0</ele><time>2026-05-01T11:43:18Z</time></trkpt><trkpt lat="40.86471822321286" lon="9.127659667904089"><ele>577.0</ele><time>2026-05-01T11:43:21Z</time></trkpt><trkpt lat="40.86467409309537" lon="9.127569737375406"><ele>577.0</ele><time>2026-05-01T11:43:23Z</time></trkpt><trkpt lat="40.86463005024683" lon="9.127474631418009"><ele>577.0</ele><time>2026-05-01T11:43:25Z</time></trkpt><trkpt lat="40.86458973950434" lon="9.12737365257898"><ele>577.0</ele><time>2026-05-01T11:43:27Z</time></trkpt><trkpt lat="40.86455698710749" lon="9.127267109492992"><ele>578.5</ele><time>2026-05-01T11:43:29Z</time></trkpt><trkpt lat="40.86451878781925" lon="9.127162033438783"><ele>580.0</ele><time>2026-05-01T11:43:31Z</time></trkpt><trkpt lat="40.864469870131956" lon="9.12704460750864"><ele>581.5</ele><time>2026-05-01T11:43:33Z</time></trkpt><trkpt lat="40.86443444799109" lon="9.126967803310752"><ele>583.0</ele><time>2026-05-01T11:43:34Z</time></trkpt><trkpt lat="40.86439154328884" lon="9.126886904400386"><ele>584.5</ele><time>2026-05-01T11:43:35Z</time></trkpt><trkpt lat="40.86434203035329" lon="9.126807008762293"><ele>586.0</ele><time>2026-05-01T11:43:36Z</time></trkpt><trkpt lat="40.86429703777441" lon="9.126725315227485"><ele>582.0</ele><time>2026-05-01T11:43:37Z</time></trkpt><trkpt lat="40.86424860137337" lon="9.12664704514588"><ele>578.0</ele><time>2026-05-01T11:43:38Z</time></trkpt><trkpt lat="40.864208087344885" lon="9.126570717162108"><ele>574.0</ele><time>2026-05-01T11:43:39Z</time></trkpt><trkpt lat="40.86416802601339" lon="9.12649813924492"><ele>570.0</ele><time>2026-05-01T11:43:40Z</time></trkpt><trkpt lat="40.86412872408553" lon="9.12642933572552"><ele>566.0</ele><time>2026-05-01T11:43:41Z</time></trkpt><trkpt lat="40.86405306256876" lon="9.126333138060213"><ele>562.0</ele><time>2026-05-01T11:43:43Z</time></trkpt><trkpt lat="40.863983197239264" lon="9.126259834357537"><ele>562.0</ele><time>2026-05-01T11:43:45Z</time></trkpt><trkpt lat="40.86392059225101" lon="9.126204040210652"><ele>562.0</ele><time>2026-05-01T11:43:47Z</time></trkpt><trkpt lat="40.86384169649054" lon="9.12615350776732"><ele>562.0</ele><time>2026-05-01T11:43:49Z</time></trkpt><trkpt lat="40.86375050231242" lon="9.126083522636167"><ele>562.0</ele><time>2026-05-01T11:43:51Z</time></trkpt><trkpt lat="40.86367079635107" lon="9.12599919409783"><ele>562.0</ele><time>2026-05-01T11:43:53Z</time></trkpt><trkpt lat="40.863592842623625" lon="9.125911649815407"><ele>562.0</ele><time>2026-05-01T11:43:55Z</time></trkpt><trkpt lat="40.86347370325078" lon="9.125837224291327"><ele>562.0</ele><time>2026-05-01T11:43:57Z</time></trkpt><trkpt lat="40.86340754035867" lon="9.12580804071154"><ele>562.0</ele><time>2026-05-01T11:43:58Z</time></trkpt><trkpt lat="40.86335110104534" lon="9.125760606395763"><ele>562.0</ele><time>2026-05-01T11:43:59Z</time></trkpt><trkpt lat="40.86333753927147" lon="9.125617858951195"><ele>562.0</ele><time>2026-05-01T11:44:01Z</time></trkpt><trkpt lat="40.863322493030495" lon="9.125495448701173"><ele>557.8000000000001</ele><time>2026-05-01T11:44:08.999Z</time></trkpt><trkpt lat="40.86328583494792" lon="9.125358416736688"><ele>553.6</ele><time>2026-05-01T11:44:10.999Z</time></trkpt><trkpt lat="40.86319131930003" lon="9.12525035976043"><ele>549.4000000000001</ele><time>2026-05-01T11:44:12.999Z</time></trkpt><trkpt lat="40.8631202046391" lon="9.125191542392102"><ele>545.2</ele><time>2026-05-01T11:44:13.999Z</time></trkpt><trkpt lat="40.863044943917124" lon="9.125129492138235"><ele>541.0</ele><time>2026-05-01T11:44:14.999Z</time></trkpt><trkpt lat="40.86299091207509" lon="9.125045992309158"><ele>541.0</ele><time>2026-05-01T11:44:15.999Z</time></trkpt><trkpt lat="40.86293983764415" lon="9.124942611795678"><ele>541.0</ele><time>2026-05-01T11:44:16.999Z</time></trkpt><trkpt lat="40.86288584800591" lon="9.124828864225526"><ele>541.0</ele><time>2026-05-01T11:44:17.999Z</time></trkpt><trkpt lat="40.86282192173849" lon="9.12473329880546"><ele>541.0</ele><time>2026-05-01T11:44:18.999Z</time></trkpt><trkpt lat="40.86276341060643" lon="9.124620954841289"><ele>541.0</ele><time>2026-05-01T11:44:19.999Z</time></trkpt><trkpt lat="40.86271260983515" lon="9.124519901274986"><ele>539.8333333333334</ele><time>2026-05-01T11:44:20.999Z</time></trkpt><trkpt lat="40.86266846186881" lon="9.124426422372629"><ele>538.6666666666667</ele><time>2026-05-01T11:44:21.999Z</time></trkpt><trkpt lat="40.86261345547455" lon="9.124347653518333"><ele>537.5</ele><time>2026-05-01T11:44:22.999Z</time></trkpt><trkpt lat="40.86255370385392" lon="9.124270879301813"><ele>536.3333333333334</ele><time>2026-05-01T11:44:23.999Z</time></trkpt><trkpt lat="40.8624778138369" lon="9.124210994923061"><ele>535.1666666666666</ele><time>2026-05-01T11:44:24.999Z</time></trkpt><trkpt lat="40.86241135107496" lon="9.124153081908254"><ele>534.0</ele><time>2026-05-01T11:44:25.999Z</time></trkpt><trkpt lat="40.8623064239343" lon="9.124088623434346"><ele>535.2</ele><time>2026-05-01T11:44:27.999Z</time></trkpt><trkpt lat="40.862216427047976" lon="9.123960220887048"><ele>536.4</ele><time>2026-05-01T11:44:29.999Z</time></trkpt><trkpt lat="40.86213381822264" lon="9.123889790847175"><ele>537.6</ele><time>2026-05-01T11:44:31.999Z</time></trkpt><trkpt lat="40.862025847706754" lon="9.123876770642498"><ele>538.8</ele><time>2026-05-01T11:44:33.999Z</time></trkpt><trkpt lat="40.86195422128967" lon="9.123894531282769"><ele>540.0</ele><time>2026-05-01T11:44:34.999Z</time></trkpt><trkpt lat="40.86188630755986" lon="9.123890872752408"><ele>540.0</ele><time>2026-05-01T11:44:35.999Z</time></trkpt><trkpt lat="40.86183066310867" lon="9.123833207227085"><ele>540.0</ele><time>2026-05-01T11:44:36.999Z</time></trkpt><trkpt lat="40.86175933303197" lon="9.123734888604913"><ele>540.0</ele><time>2026-05-01T11:44:37.999Z</time></trkpt><trkpt lat="40.86169330145849" lon="9.123637317635895"><ele>540.0</ele><time>2026-05-01T11:44:38.999Z</time></trkpt><trkpt lat="40.86165393259262" lon="9.123533569883913"><ele>540.0</ele><time>2026-05-01T11:44:39.999Z</time></trkpt><trkpt lat="40.861624753715645" lon="9.123428157842302"><ele>540.0</ele><time>2026-05-01T11:44:40.999Z</time></trkpt><trkpt lat="40.861601957551336" lon="9.123316098568656"><ele>536.3333333333334</ele><time>2026-05-01T11:44:41.999Z</time></trkpt><trkpt lat="40.86158569595354" lon="9.123211839307215"><ele>532.6666666666666</ele><time>2026-05-01T11:44:42.999Z</time></trkpt><trkpt lat="40.86156491745073" lon="9.123110033866727"><ele>529.0</ele><time>2026-05-01T11:44:43.999Z</time></trkpt><trkpt lat="40.86153554901975" lon="9.123006164817857"><ele>525.3333333333333</ele><time>2026-05-01T11:44:44.999Z</time></trkpt><trkpt lat="40.861495011562624" lon="9.122908403318412"><ele>521.6666666666666</ele><time>2026-05-01T11:44:45.999Z</time></trkpt><trkpt lat="40.86144174817157" lon="9.122819406914289"><ele>518.0</ele><time>2026-05-01T11:44:46.999Z</time></trkpt><trkpt lat="40.86137851411706" lon="9.122749205012722"><ele>518.0</ele><time>2026-05-01T11:44:47.999Z</time></trkpt><trkpt lat="40.86134053089253" lon="9.122669933582129"><ele>518.0</ele><time>2026-05-01T11:44:48.999Z</time></trkpt><trkpt lat="40.86127536541117" lon="9.12250882993312"><ele>518.0</ele><time>2026-05-01T11:44:50.999Z</time></trkpt><trkpt lat="40.86124390695928" lon="9.122405402925617"><ele>518.0</ele><time>2026-05-01T11:44:51.999Z</time></trkpt><trkpt lat="40.8612059606711" lon="9.122278226390026"><ele>518.0</ele><time>2026-05-01T11:44:53Z</time></trkpt><trkpt lat="40.86114765812527" lon="9.122137451685303"><ele>516.5</ele><time>2026-05-01T11:44:54Z</time></trkpt><trkpt lat="40.86110543157687" lon="9.121998321496852"><ele>515.0</ele><time>2026-05-01T11:44:55Z</time></trkpt><trkpt lat="40.861084252302135" lon="9.12186224301457"><ele>513.5</ele><time>2026-05-01T11:44:56Z</time></trkpt><trkpt lat="40.86105804674829" lon="9.12171660018739"><ele>512.0</ele><time>2026-05-01T11:44:57Z</time></trkpt><trkpt lat="40.861013804600645" lon="9.121569704453993"><ele>512.5</ele><time>2026-05-01T11:44:58Z</time></trkpt><trkpt lat="40.86095927147478" lon="9.121441923937477"><ele>513.0</ele><time>2026-05-01T11:44:59Z</time></trkpt><trkpt lat="40.86088459578788" lon="9.12130619051431"><ele>513.5</ele><time>2026-05-01T11:45:00Z</time></trkpt><trkpt lat="40.860807116680384" lon="9.121146232527696"><ele>514.0</ele><time>2026-05-01T11:45:01Z</time></trkpt><trkpt lat="40.86072385701337" lon="9.120994989863565"><ele>513.0</ele><time>2026-05-01T11:45:02Z</time></trkpt><trkpt lat="40.86064116597783" lon="9.120849458663251"><ele>512.0</ele><time>2026-05-01T11:45:03Z</time></trkpt><trkpt lat="40.86055188980186" lon="9.120715835849731"><ele>511.0</ele><time>2026-05-01T11:45:04Z</time></trkpt><trkpt lat="40.86047632017345" lon="9.120571332529677"><ele>510.0</ele><time>2026-05-01T11:45:05Z</time></trkpt><trkpt lat="40.86041405695151" lon="9.120434046382623"><ele>509.0</ele><time>2026-05-01T11:45:06Z</time></trkpt><trkpt lat="40.86035276010721" lon="9.120297065489416"><ele>508.0</ele><time>2026-05-01T11:45:07Z</time></trkpt><trkpt lat="40.86031385852665" lon="9.120142246407461"><ele>507.0</ele><time>2026-05-01T11:45:08Z</time></trkpt><trkpt lat="40.86025852163223" lon="9.120024761435188"><ele>506.0</ele><time>2026-05-01T11:45:09Z</time></trkpt><trkpt lat="40.86020457072473" lon="9.119927649809089"><ele>505.0</ele><time>2026-05-01T11:45:10Z</time></trkpt><trkpt lat="40.86015600906029" lon="9.119817120209467"><ele>504.6</ele><time>2026-05-01T11:45:11Z</time></trkpt><trkpt lat="40.860120678815065" lon="9.119689288463405"><ele>504.2</ele><time>2026-05-01T11:45:12Z</time></trkpt><trkpt lat="40.8600729457541" lon="9.119561421412532"><ele>503.79999999999995</ele><time>2026-05-01T11:45:13Z</time></trkpt><trkpt lat="40.86004181628628" lon="9.119439671703072"><ele>503.4</ele><time>2026-05-01T11:45:14Z</time></trkpt><trkpt lat="40.860019289383835" lon="9.119330926489013"><ele>503.0</ele><time>2026-05-01T11:45:15Z</time></trkpt><trkpt lat="40.86000906954376" lon="9.119230331736167"><ele>502.8333333333333</ele><time>2026-05-01T11:45:16Z</time></trkpt><trkpt lat="40.860017803918204" lon="9.119105201298131"><ele>502.66666666666663</ele><time>2026-05-01T11:45:17Z</time></trkpt><trkpt lat="40.860037730005295" lon="9.119005905574623"><ele>502.5</ele><time>2026-05-01T11:45:18Z</time></trkpt><trkpt lat="40.86003751606061" lon="9.118904682265912"><ele>502.33333333333337</ele><time>2026-05-01T11:45:19Z</time></trkpt><trkpt lat="40.86002572180649" lon="9.118794272222248"><ele>502.1666666666667</ele><time>2026-05-01T11:45:20Z</time></trkpt><trkpt lat="40.85998157392076" lon="9.118665245405747"><ele>502.0</ele><time>2026-05-01T11:45:22Z</time></trkpt><trkpt lat="40.860008895255106" lon="9.118475709639329"><ele>502.00000000000006</ele><time>2026-05-01T11:45:24Z</time></trkpt><trkpt lat="40.86003799951938" lon="9.118393834747161"><ele>502.0</ele><time>2026-05-01T11:45:25Z</time></trkpt><trkpt lat="40.860089859982374" lon="9.11828039676408"><ele>502.0</ele><time>2026-05-01T11:45:27Z</time></trkpt><trkpt lat="40.86008447515237" lon="9.118188219610284"><ele>502.0</ele><time>2026-05-01T11:45:31Z</time></trkpt><trkpt lat="40.86007900887232" lon="9.118066640180752"><ele>502.00000000000006</ele><time>2026-05-01T11:45:35Z</time></trkpt><trkpt lat="40.86005098381381" lon="9.11795715386763"><ele>502.0</ele><time>2026-05-01T11:45:36Z</time></trkpt><trkpt lat="40.86004272435193" lon="9.117865681414326"><ele>500.50000000000006</ele><time>2026-05-01T11:45:37Z</time></trkpt><trkpt lat="40.86003995673747" lon="9.117764919856993"><ele>499.0</ele><time>2026-05-01T11:45:38Z</time></trkpt><trkpt lat="40.86004683622616" lon="9.117661386025988"><ele>497.5</ele><time>2026-05-01T11:45:39Z</time></trkpt><trkpt lat="40.8600677650405" lon="9.117543504744162"><ele>496.0</ele><time>2026-05-01T11:45:40Z</time></trkpt><trkpt lat="40.86008824236265" lon="9.117441741510843"><ele>494.50000000000006</ele><time>2026-05-01T11:45:41Z</time></trkpt><trkpt lat="40.860094420567656" lon="9.11731744470538"><ele>493.0</ele><time>2026-05-01T11:45:42Z</time></trkpt><trkpt lat="40.86007369191258" lon="9.117198805932187"><ele>492.50000000000006</ele><time>2026-05-01T11:45:43Z</time></trkpt><trkpt lat="40.86007007810435" lon="9.117115674594864"><ele>492.0</ele><time>2026-05-01T11:45:44Z</time></trkpt><trkpt lat="40.86007074069743" lon="9.117019727291"><ele>491.5</ele><time>2026-05-01T11:45:45Z</time></trkpt><trkpt lat="40.86007812451315" lon="9.116926524113504"><ele>491.0</ele><time>2026-05-01T11:45:46Z</time></trkpt><trkpt lat="40.86007932573323" lon="9.116832265011178"><ele>490.50000000000006</ele><time>2026-05-01T11:45:46.999Z</time></trkpt><trkpt lat="40.86009046050934" lon="9.11672268409872"><ele>490.0</ele><time>2026-05-01T11:45:47.999Z</time></trkpt><trkpt lat="40.86009381264128" lon="9.116555798708218"><ele>490.00000000000006</ele><time>2026-05-01T11:45:49.999Z</time></trkpt><trkpt lat="40.86007436329862" lon="9.116429481015777"><ele>490.0</ele><time>2026-05-01T11:45:51.999Z</time></trkpt><trkpt lat="40.860020890056475" lon="9.116350536276313"><ele>490.0</ele><time>2026-05-01T11:45:52.999Z</time></trkpt><trkpt lat="40.85995441298486" lon="9.116295318943175"><ele>490.0</ele><time>2026-05-01T11:45:53.999Z</time></trkpt><trkpt lat="40.85987620344626" lon="9.116241952525083"><ele>490.00000000000006</ele><time>2026-05-01T11:45:54.999Z</time></trkpt><trkpt lat="40.85979984844455" lon="9.116184735245497"><ele>490.0</ele><time>2026-05-01T11:45:55.999Z</time></trkpt><trkpt lat="40.85972228108051" lon="9.116099717437782"><ele>490.0</ele><time>2026-05-01T11:45:56.999Z</time></trkpt><trkpt lat="40.85966146996398" lon="9.116038349104379"><ele>490.0</ele><time>2026-05-01T11:45:57.999Z</time></trkpt><trkpt lat="40.859594752181415" lon="9.116024492699301"><ele>490.0</ele><time>2026-05-01T11:45:58.999Z</time></trkpt><trkpt lat="40.8595110856803" lon="9.116039153157633"><ele>490.0</ele><time>2026-05-01T11:45:59.999Z</time></trkpt><trkpt lat="40.859395947243634" lon="9.116063616305782"><ele>490.0</ele><time>2026-05-01T11:46:00.999Z</time></trkpt><trkpt lat="40.85929075263023" lon="9.116075039949104"><ele>488.6</ele><time>2026-05-01T11:46:01.999Z</time></trkpt><trkpt lat="40.85920071066506" lon="9.116050209826161"><ele>487.2</ele><time>2026-05-01T11:46:02.999Z</time></trkpt><trkpt lat="40.859088486666685" lon="9.116068988330383"><ele>485.79999999999995</ele><time>2026-05-01T11:46:03.999Z</time></trkpt><trkpt lat="40.85896814971532" lon="9.116106750025562"><ele>484.4</ele><time>2026-05-01T11:46:04.999Z</time></trkpt><trkpt lat="40.8588904568326" lon="9.116139343379194"><ele>483.0</ele><time>2026-05-01T11:46:05.999Z</time></trkpt><trkpt lat="40.8588211717326" lon="9.116131926367999"><ele>483.0</ele><time>2026-05-01T11:46:06.999Z</time></trkpt><trkpt lat="40.85873044825323" lon="9.116068210526416"><ele>482.99999999999994</ele><time>2026-05-01T11:46:08.999Z</time></trkpt><trkpt lat="40.858675875985014" lon="9.115934782837277"><ele>482.99999999999994</ele><time>2026-05-01T11:46:10.999Z</time></trkpt><trkpt lat="40.85863488545984" lon="9.115814432965278"><ele>483.0</ele><time>2026-05-01T11:46:13.999Z</time></trkpt><trkpt lat="40.85860562800636" lon="9.115736341168958"><ele>483.0</ele><time>2026-05-01T11:46:14.999Z</time></trkpt><trkpt lat="40.858558915509946" lon="9.115634626315828"><ele>483.0</ele><time>2026-05-01T11:46:15.999Z</time></trkpt><trkpt lat="40.85849828323608" lon="9.115508046704482"><ele>483.0</ele><time>2026-05-01T11:46:16.999Z</time></trkpt><trkpt lat="40.85841524982006" lon="9.115355865287807"><ele>483.0</ele><time>2026-05-01T11:46:17.999Z</time></trkpt><trkpt lat="40.85834668639605" lon="9.115233870708435"><ele>483.0</ele><time>2026-05-01T11:46:18.999Z</time></trkpt><trkpt lat="40.85829028492628" lon="9.115143638762834"><ele>481.75</ele><time>2026-05-01T11:46:19.999Z</time></trkpt><trkpt lat="40.85822024664831" lon="9.115081374375753"><ele>480.5</ele><time>2026-05-01T11:46:20.999Z</time></trkpt><trkpt lat="40.858109524842845" lon="9.115014074789265"><ele>479.25</ele><time>2026-05-01T11:46:21.999Z</time></trkpt><trkpt lat="40.85800024062149" lon="9.114946102646803"><ele>478.0</ele><time>2026-05-01T11:46:22.999Z</time></trkpt><trkpt lat="40.85790039459041" lon="9.114835281613253"><ele>477.75</ele><time>2026-05-01T11:46:23.999Z</time></trkpt><trkpt lat="40.8578001100277" lon="9.114698167212639"><ele>477.5</ele><time>2026-05-01T11:46:24.999Z</time></trkpt><trkpt lat="40.85772290370645" lon="9.11457909023869"><ele>477.25</ele><time>2026-05-01T11:46:25.999Z</time></trkpt><trkpt lat="40.85765539786424" lon="9.114459500114645"><ele>477.0</ele><time>2026-05-01T11:46:26.999Z</time></trkpt><trkpt lat="40.85759523758579" lon="9.114341030116746"><ele>476.3333333333333</ele><time>2026-05-01T11:46:27.999Z</time></trkpt><trkpt lat="40.857540440995216" lon="9.114224108646416"><ele>475.66666666666663</ele><time>2026-05-01T11:46:28.999Z</time></trkpt><trkpt lat="40.857492360658746" lon="9.114122043709314"><ele>475.0</ele><time>2026-05-01T11:46:29.999Z</time></trkpt><trkpt lat="40.85744566865133" lon="9.114033187016522"><ele>474.3333333333333</ele><time>2026-05-01T11:46:30.999Z</time></trkpt><trkpt lat="40.85739733792308" lon="9.113954842371449"><ele>473.66666666666663</ele><time>2026-05-01T11:46:31.999Z</time></trkpt><trkpt lat="40.857341975949225" lon="9.113895553667275"><ele>473.0</ele><time>2026-05-01T11:46:32.999Z</time></trkpt><trkpt lat="40.85727269293205" lon="9.11384116112266"><ele>472.49999999999994</ele><time>2026-05-01T11:46:33.999Z</time></trkpt><trkpt lat="40.85721385777197" lon="9.113800729707728"><ele>472.0</ele><time>2026-05-01T11:46:34.999Z</time></trkpt><trkpt lat="40.85716260753013" lon="9.113733020582014"><ele>471.5</ele><time>2026-05-01T11:46:35.999Z</time></trkpt><trkpt lat="40.8571202693223" lon="9.113645586912206"><ele>471.0</ele><time>2026-05-01T11:46:36.999Z</time></trkpt><trkpt lat="40.85708076105239" lon="9.113552166536426"><ele>470.49999999999994</ele><time>2026-05-01T11:46:37.999Z</time></trkpt><trkpt lat="40.85704809927167" lon="9.113476043305539"><ele>470.0</ele><time>2026-05-01T11:46:38.999Z</time></trkpt><trkpt lat="40.8569861301091" lon="9.11338854466984"><ele>470.0</ele><time>2026-05-01T11:46:39.999Z</time></trkpt><trkpt lat="40.85690517313407" lon="9.113319606462852"><ele>470.0</ele><time>2026-05-01T11:46:40.999Z</time></trkpt><trkpt lat="40.856809203708714" lon="9.113252726185088"><ele>470.0</ele><time>2026-05-01T11:46:41.999Z</time></trkpt><trkpt lat="40.85669809371008" lon="9.113173578244652"><ele>470.0</ele><time>2026-05-01T11:46:42.999Z</time></trkpt><trkpt lat="40.856591310606944" lon="9.113120597987868"><ele>470.0</ele><time>2026-05-01T11:46:43.999Z</time></trkpt><trkpt lat="40.85648273924239" lon="9.113071681176015"><ele>469.4</ele><time>2026-05-01T11:46:44.999Z</time></trkpt><trkpt lat="40.85637715377948" lon="9.113021170678557"><ele>468.8</ele><time>2026-05-01T11:46:45.999Z</time></trkpt><trkpt lat="40.85628914231894" lon="9.112932848228533"><ele>468.20000000000005</ele><time>2026-05-01T11:46:46.999Z</time></trkpt><trkpt lat="40.856222003306875" lon="9.112820388315017"><ele>467.6</ele><time>2026-05-01T11:46:47.999Z</time></trkpt><trkpt lat="40.85616292933065" lon="9.112728692581872"><ele>467.0</ele><time>2026-05-01T11:46:48.999Z</time></trkpt><trkpt lat="40.85608200022376" lon="9.112665562700265"><ele>467.0</ele><time>2026-05-01T11:46:49.999Z</time></trkpt><trkpt lat="40.85598825328647" lon="9.11262153038093"><ele>467.00000000000006</ele><time>2026-05-01T11:46:50.999Z</time></trkpt><trkpt lat="40.85588516205603" lon="9.112588869948693"><ele>467.00000000000006</ele><time>2026-05-01T11:46:51.999Z</time></trkpt><trkpt lat="40.85577556421935" lon="9.112547127662001"><ele>467.0</ele><time>2026-05-01T11:46:52.999Z</time></trkpt><trkpt lat="40.855659315942404" lon="9.112485496014438"><ele>467.0</ele><time>2026-05-01T11:46:53.999Z</time></trkpt><trkpt lat="40.85552168489269" lon="9.112398254125495"><ele>467.25</ele><time>2026-05-01T11:46:54.999Z</time></trkpt><trkpt lat="40.855405940261456" lon="9.11230541580776"><ele>467.5</ele><time>2026-05-01T11:46:55.999Z</time></trkpt><trkpt lat="40.85531625425476" lon="9.112234395775223"><ele>467.75</ele><time>2026-05-01T11:46:56.999Z</time></trkpt><trkpt lat="40.85522403424415" lon="9.11219011388464"><ele>468.0</ele><time>2026-05-01T11:46:57.999Z</time></trkpt><trkpt lat="40.855115602383584" lon="9.112145642228212"><ele>470.25</ele><time>2026-05-01T11:46:59Z</time></trkpt><trkpt lat="40.85497869832148" lon="9.11206533794703"><ele>472.5</ele><time>2026-05-01T11:47:00Z</time></trkpt><trkpt lat="40.85485902421265" lon="9.11196856628509"><ele>474.75</ele><time>2026-05-01T11:47:01Z</time></trkpt><trkpt lat="40.85475403065899" lon="9.111902837682155"><ele>477.0</ele><time>2026-05-01T11:47:02Z</time></trkpt><trkpt lat="40.85465677002627" lon="9.111840564926794"><ele>477.0</ele><time>2026-05-01T11:47:03Z</time></trkpt><trkpt lat="40.8545720097969" lon="9.111782641602387"><ele>477.00000000000006</ele><time>2026-05-01T11:47:04Z</time></trkpt><trkpt lat="40.8544986311477" lon="9.111730483191922"><ele>477.00000000000006</ele><time>2026-05-01T11:47:05Z</time></trkpt><trkpt lat="40.85444125055507" lon="9.111686182914482"><ele>477.0</ele><time>2026-05-01T11:47:06Z</time></trkpt><trkpt lat="40.8543657809984" lon="9.111572190939095"><ele>477.0</ele><time>2026-05-01T11:47:08Z</time></trkpt><trkpt lat="40.85434008013372" lon="9.111439554451742"><ele>478.20000000000005</ele><time>2026-05-01T11:47:10Z</time></trkpt><trkpt lat="40.85430729106823" lon="9.11131137392569"><ele>479.40000000000003</ele><time>2026-05-01T11:47:12Z</time></trkpt><trkpt lat="40.854294012122345" lon="9.111163428832691"><ele>480.59999999999997</ele><time>2026-05-01T11:47:14Z</time></trkpt><trkpt lat="40.85431359141046" lon="9.111025016136194"><ele>481.79999999999995</ele><time>2026-05-01T11:47:16Z</time></trkpt><trkpt lat="40.85440021429795" lon="9.11093256955488"><ele>483.0</ele><time>2026-05-01T11:47:18Z</time></trkpt><trkpt lat="40.85449002746451" lon="9.111026567234513"><ele>483.0</ele><time>2026-05-01T11:47:20Z</time></trkpt><trkpt lat="40.854535527277946" lon="9.111099596388653"><ele>483.0</ele><time>2026-05-01T11:47:21Z</time></trkpt><trkpt lat="40.85459662860219" lon="9.111073801251859"><ele>483.0</ele><time>2026-05-01T11:47:23Z</time></trkpt><trkpt lat="40.85456489543113" lon="9.110947261387922"><ele>483.0</ele><time>2026-05-01T11:47:25.999Z</time></trkpt><trkpt lat="40.854509954289576" lon="9.110860425596735"><ele>483.0</ele><time>2026-05-01T11:47:26.999Z</time></trkpt><trkpt lat="40.85445850206688" lon="9.110780385851847"><ele>483.0</ele><time>2026-05-01T11:47:27.999Z</time></trkpt><trkpt lat="40.8544143816913" lon="9.110713738646853"><ele>487.79999999999995</ele><time>2026-05-01T11:47:28.999Z</time></trkpt><trkpt lat="40.85433823257939" lon="9.110623064539743"><ele>492.59999999999997</ele><time>2026-05-01T11:47:30.999Z</time></trkpt><trkpt lat="40.854292714059646" lon="9.110565175509207"><ele>497.40000000000003</ele><time>2026-05-01T11:47:31.999Z</time></trkpt><trkpt lat="40.854232461232385" lon="9.110465303173815"><ele>502.20000000000005</ele><time>2026-05-01T11:47:33.999Z</time></trkpt><trkpt lat="40.85415087222204" lon="9.110389924780653"><ele>507.0</ele><time>2026-05-01T11:47:35.999Z</time></trkpt><trkpt lat="40.85405940631521" lon="9.110307078249713"><ele>507.0</ele><time>2026-05-01T11:47:37.999Z</time></trkpt><trkpt lat="40.85395880493018" lon="9.110205390482802"><ele>507.00000000000006</ele><time>2026-05-01T11:47:39.999Z</time></trkpt><trkpt lat="40.85389080075349" lon="9.110151744396093"><ele>507.00000000000006</ele><time>2026-05-01T11:47:40.999Z</time></trkpt><trkpt lat="40.853785373990135" lon="9.110066412915604"><ele>507.0</ele><time>2026-05-01T11:47:42.999Z</time></trkpt><trkpt lat="40.85374020848588" lon="9.110006976706762"><ele>507.0</ele><time>2026-05-01T11:47:43.999Z</time></trkpt><trkpt lat="40.85364281743224" lon="9.109877729353942"><ele>509.8</ele><time>2026-05-01T11:47:45.999Z</time></trkpt><trkpt lat="40.853575349272276" lon="9.109819329080588"><ele>512.6</ele><time>2026-05-01T11:47:46.999Z</time></trkpt><trkpt lat="40.8534532976313" lon="9.109726370796247"><ele>515.4000000000001</ele><time>2026-05-01T11:47:48.999Z</time></trkpt><trkpt lat="40.85339340228927" lon="9.109655740759615"><ele>518.2</ele><time>2026-05-01T11:47:50.999Z</time></trkpt><trkpt lat="40.85348459065976" lon="9.109615135786832"><ele>521.0</ele><time>2026-05-01T11:47:53.999Z</time></trkpt><trkpt lat="40.85356910012582" lon="9.109650987654355"><ele>523.0</ele><time>2026-05-01T11:47:54.999Z</time></trkpt><trkpt lat="40.853635841988634" lon="9.10968147507992"><ele>525.0</ele><time>2026-05-01T11:47:55.999Z</time></trkpt><trkpt lat="40.853699864371485" lon="9.109678312773951"><ele>527.0</ele><time>2026-05-01T11:47:56.999Z</time></trkpt><trkpt lat="40.85378690607054" lon="9.109667898069416"><ele>529.0</ele><time>2026-05-01T11:47:57.999Z</time></trkpt><trkpt lat="40.8538628172263" lon="9.109670457673737"><ele>531.0</ele><time>2026-05-01T11:47:58.999Z</time></trkpt><trkpt lat="40.853956365664544" lon="9.109684742479907"><ele>533.0</ele><time>2026-05-01T11:47:59.999Z</time></trkpt><trkpt lat="40.85406047114156" lon="9.10967938851469"><ele>533.0</ele><time>2026-05-01T11:48:00.999Z</time></trkpt><trkpt lat="40.85417337873199" lon="9.109672120491052"><ele>533.0</ele><time>2026-05-01T11:48:01.999Z</time></trkpt><trkpt lat="40.85426662712728" lon="9.109665004805718"><ele>533.0</ele><time>2026-05-01T11:48:02.999Z</time></trkpt><trkpt lat="40.854360179406385" lon="9.109645640670946"><ele>533.0</ele><time>2026-05-01T11:48:03.999Z</time></trkpt><trkpt lat="40.85444281802094" lon="9.10960729155082"><ele>533.0</ele><time>2026-05-01T11:48:04.999Z</time></trkpt><trkpt lat="40.85452983650363" lon="9.109555043349195"><ele>533.0</ele><time>2026-05-01T11:48:05.999Z</time></trkpt><trkpt lat="40.85462521746159" lon="9.109493634888238"><ele>533.0</ele><time>2026-05-01T11:48:06.999Z</time></trkpt><trkpt lat="40.85470763174902" lon="9.109439761552478"><ele>533.0</ele><time>2026-05-01T11:48:07.999Z</time></trkpt><trkpt lat="40.854776060305284" lon="9.109410202991153"><ele>533.0</ele><time>2026-05-01T11:48:08.999Z</time></trkpt><trkpt lat="40.85488604442993" lon="9.109473427361333"><ele>533.0</ele><time>2026-05-01T11:48:10.999Z</time></trkpt><trkpt lat="40.8550121599775" lon="9.10949959700991"><ele>533.0</ele><time>2026-05-01T11:48:12.999Z</time></trkpt><trkpt lat="40.855076881726944" lon="9.109479277491758"><ele>533.0</ele><time>2026-05-01T11:48:13.999Z</time></trkpt><trkpt lat="40.85515310014116" lon="9.109457414277223"><ele>533.0</ele><time>2026-05-01T11:48:14.999Z</time></trkpt><trkpt lat="40.8552461590149" lon="9.109442981226513"><ele>533.0</ele><time>2026-05-01T11:48:15.999Z</time></trkpt><trkpt lat="40.85531373530032" lon="9.10942750791023"><ele>533.0</ele><time>2026-05-01T11:48:16.999Z</time></trkpt><trkpt lat="40.85538050695125" lon="9.109342343022561"><ele>533.0</ele><time>2026-05-01T11:48:18.999Z</time></trkpt><trkpt lat="40.8553966716311" lon="9.109213117634681"><ele>529.0</ele><time>2026-05-01T11:48:20.999Z</time></trkpt><trkpt lat="40.85539841866515" lon="9.109050427299984"><ele>525.0</ele><time>2026-05-01T11:48:22.999Z</time></trkpt><trkpt lat="40.85541598435943" lon="9.108943377151661"><ele>521.0</ele><time>2026-05-01T11:48:23.999Z</time></trkpt><trkpt lat="40.855393523090946" lon="9.108811612528493"><ele>517.0</ele><time>2026-05-01T11:48:25.999Z</time></trkpt><trkpt lat="40.85532343593875" lon="9.108750712952185"><ele>513.0</ele><time>2026-05-01T11:48:27.999Z</time></trkpt><trkpt lat="40.85523317431283" lon="9.108670009132405"><ele>513.0</ele><time>2026-05-01T11:48:29.999Z</time></trkpt><trkpt lat="40.85515409207758" lon="9.108603257910662"><ele>513.0</ele><time>2026-05-01T11:48:31.999Z</time></trkpt><trkpt lat="40.85506073902649" lon="9.108558313941954"><ele>513.0</ele><time>2026-05-01T11:48:33.999Z</time></trkpt><trkpt lat="40.8549430793308" lon="9.108560720228292"><ele>513.0</ele><time>2026-05-01T11:48:35.999Z</time></trkpt><trkpt lat="40.85483821962678" lon="9.108548673561996"><ele>513.0</ele><time>2026-05-01T11:48:37.999Z</time></trkpt><trkpt lat="40.85476220571693" lon="9.108557715910685"><ele>517.3333333333334</ele><time>2026-05-01T11:48:40.999Z</time></trkpt><trkpt lat="40.85466688883883" lon="9.108611374278714"><ele>521.6666666666666</ele><time>2026-05-01T11:48:42.999Z</time></trkpt><trkpt lat="40.85460381934642" lon="9.108613559424453"><ele>526.0</ele><time>2026-05-01T11:48:43.999Z</time></trkpt><trkpt lat="40.85453660888669" lon="9.108638423785282"><ele>530.3333333333333</ele><time>2026-05-01T11:48:44.999Z</time></trkpt><trkpt lat="40.85447120730131" lon="9.10866814843378"><ele>534.6666666666666</ele><time>2026-05-01T11:48:45.999Z</time></trkpt><trkpt lat="40.85434877938319" lon="9.108673420354487"><ele>539.0</ele><time>2026-05-01T11:48:47.999Z</time></trkpt><trkpt lat="40.854285380434355" lon="9.10866168167279"><ele>541.0</ele><time>2026-05-01T11:48:48.999Z</time></trkpt><trkpt lat="40.85422330004058" lon="9.108630756836062"><ele>543.0</ele><time>2026-05-01T11:48:49.999Z</time></trkpt><trkpt lat="40.854173821664716" lon="9.108578910553383"><ele>545.0</ele><time>2026-05-01T11:48:50.999Z</time></trkpt><trkpt lat="40.85411464764859" lon="9.10852736700493"><ele>547.0</ele><time>2026-05-01T11:48:51.999Z</time></trkpt><trkpt lat="40.854060014178714" lon="9.108470705838275"><ele>549.0</ele><time>2026-05-01T11:48:52.999Z</time></trkpt><trkpt lat="40.8540176761665" lon="9.108398098971593"><ele>551.0</ele><time>2026-05-01T11:48:53.999Z</time></trkpt><trkpt lat="40.853981147059855" lon="9.108299756982648"><ele>553.0</ele><time>2026-05-01T11:48:54.999Z</time></trkpt><trkpt lat="40.85395453949889" lon="9.108219808301595"><ele>555.8</ele><time>2026-05-01T11:48:55.999Z</time></trkpt><trkpt lat="40.8539436732023" lon="9.108117154128484"><ele>558.5999999999999</ele><time>2026-05-01T11:48:56.999Z</time></trkpt><trkpt lat="40.85394461390354" lon="9.108005110101114"><ele>561.4000000000001</ele><time>2026-05-01T11:48:57.999Z</time></trkpt><trkpt lat="40.853946884482696" lon="9.10791419361279"><ele>564.2</ele><time>2026-05-01T11:48:58.999Z</time></trkpt><trkpt lat="40.8539388454822" lon="9.107751112274698"><ele>567.0</ele><time>2026-05-01T11:49:00.999Z</time></trkpt><trkpt lat="40.85395624557688" lon="9.107604549526155"><ele>567.0</ele><time>2026-05-01T11:49:02.999Z</time></trkpt><trkpt lat="40.8539860958813" lon="9.107521576804888"><ele>567.0</ele><time>2026-05-01T11:49:03.999Z</time></trkpt><trkpt lat="40.854006266237356" lon="9.10743376423134"><ele>567.0</ele><time>2026-05-01T11:49:05Z</time></trkpt><trkpt lat="40.853978348373246" lon="9.10728922147455"><ele>567.0</ele><time>2026-05-01T11:49:07Z</time></trkpt><trkpt lat="40.8539565963216" lon="9.107179828437335"><ele>567.0</ele><time>2026-05-01T11:49:08Z</time></trkpt><trkpt lat="40.85393399591054" lon="9.107064714804846"><ele>567.0</ele><time>2026-05-01T11:49:09Z</time></trkpt><trkpt lat="40.85393663774866" lon="9.10696141110351"><ele>565.8000000000001</ele><time>2026-05-01T11:49:10Z</time></trkpt><trkpt lat="40.85401860629471" lon="9.106846113395125"><ele>564.6</ele><time>2026-05-01T11:49:12Z</time></trkpt><trkpt lat="40.8540865287027" lon="9.106800869963475"><ele>563.4000000000001</ele><time>2026-05-01T11:49:13Z</time></trkpt><trkpt lat="40.854160899674305" lon="9.106762614669309"><ele>562.2</ele><time>2026-05-01T11:49:14Z</time></trkpt><trkpt lat="40.8542674498715" lon="9.106676344332758"><ele>561.0</ele><time>2026-05-01T11:49:16Z</time></trkpt><trkpt lat="40.85431789322205" lon="9.106601526279453"><ele>565.5</ele><time>2026-05-01T11:49:17Z</time></trkpt><trkpt lat="40.85435744538855" lon="9.106514583023005"><ele>570.0</ele><time>2026-05-01T11:49:18Z</time></trkpt><trkpt lat="40.85433831408112" lon="9.106403359980535"><ele>574.5</ele><time>2026-05-01T11:49:19.999Z</time></trkpt><trkpt lat="40.85424895889037" lon="9.106394715922553"><ele>579.0</ele><time>2026-05-01T11:49:21.999Z</time></trkpt><trkpt lat="40.854182019341636" lon="9.106418883168281"><ele>583.5</ele><time>2026-05-01T11:49:22.999Z</time></trkpt><trkpt lat="40.85408060340852" lon="9.106461738627237"><ele>588.0</ele><time>2026-05-01T11:49:24.999Z</time></trkpt><trkpt lat="40.853974094185546" lon="9.106403962972815"><ele>592.6666666666666</ele><time>2026-05-01T11:49:26.999Z</time></trkpt><trkpt lat="40.853900063784906" lon="9.106362596141716"><ele>597.3333333333334</ele><time>2026-05-01T11:49:27.999Z</time></trkpt><trkpt lat="40.85380324127156" lon="9.106361142176397"><ele>602.0</ele><time>2026-05-01T11:49:29.999Z</time></trkpt><trkpt lat="40.853747658620435" lon="9.106409825372882"><ele>606.6666666666667</ele><time>2026-05-01T11:49:30.999Z</time></trkpt><trkpt lat="40.85366684349009" lon="9.106473564091953"><ele>611.3333333333334</ele><time>2026-05-01T11:49:31.999Z</time></trkpt><trkpt lat="40.85357313027743" lon="9.10650507671976"><ele>616.0</ele><time>2026-05-01T11:49:32.999Z</time></trkpt><trkpt lat="40.85349573202965" lon="9.106507405198508"><ele>617.2</ele><time>2026-05-01T11:49:33.999Z</time></trkpt><trkpt lat="40.85342862116111" lon="9.106471389327856"><ele>618.4000000000001</ele><time>2026-05-01T11:49:34.999Z</time></trkpt><trkpt lat="40.85334291610195" lon="9.106415740071876"><ele>619.6</ele><time>2026-05-01T11:49:35.999Z</time></trkpt><trkpt lat="40.8532657366335" lon="9.106327806661563"><ele>620.8000000000001</ele><time>2026-05-01T11:49:36.999Z</time></trkpt><trkpt lat="40.85318059828861" lon="9.10623065745844"><ele>622.0</ele><time>2026-05-01T11:49:37.999Z</time></trkpt><trkpt lat="40.85308308835138" lon="9.106150528485037"><ele>622.0</ele><time>2026-05-01T11:49:38.999Z</time></trkpt><trkpt lat="40.85297733376434" lon="9.10608795064758"><ele>622.0</ele><time>2026-05-01T11:49:39.999Z</time></trkpt><trkpt lat="40.85288079937341" lon="9.106049663719222"><ele>622.0</ele><time>2026-05-01T11:49:40.999Z</time></trkpt><trkpt lat="40.852786442841854" lon="9.105982904309059"><ele>622.0</ele><time>2026-05-01T11:49:41.999Z</time></trkpt><trkpt lat="40.852701844084415" lon="9.10590265787341"><ele>622.0</ele><time>2026-05-01T11:49:42.999Z</time></trkpt><trkpt lat="40.85261483455202" lon="9.10582751835135"><ele>622.6</ele><time>2026-05-01T11:49:43.999Z</time></trkpt><trkpt lat="40.8525314992082" lon="9.10571742887783"><ele>623.2</ele><time>2026-05-01T11:49:44.999Z</time></trkpt><trkpt lat="40.85247691439369" lon="9.105613899996065"><ele>623.8</ele><time>2026-05-01T11:49:45.999Z</time></trkpt><trkpt lat="40.85244559682587" lon="9.105495760075765"><ele>624.4</ele><time>2026-05-01T11:49:46.999Z</time></trkpt><trkpt lat="40.85242237783996" lon="9.105379583257081"><ele>625.0</ele><time>2026-05-01T11:49:47.999Z</time></trkpt><trkpt lat="40.85239329056596" lon="9.105251268745999"><ele>625.0</ele><time>2026-05-01T11:49:48.999Z</time></trkpt><trkpt lat="40.852366859754206" lon="9.105128296921867"><ele>625.0</ele><time>2026-05-01T11:49:49.999Z</time></trkpt><trkpt lat="40.85233522423662" lon="9.105003980226584"><ele>625.0</ele><time>2026-05-01T11:49:50.999Z</time></trkpt><trkpt lat="40.85231122742816" lon="9.10487623593655"><ele>625.0</ele><time>2026-05-01T11:49:51.999Z</time></trkpt><trkpt lat="40.85231193918686" lon="9.104755154198617"><ele>625.0</ele><time>2026-05-01T11:49:52.999Z</time></trkpt><trkpt lat="40.85231842199286" lon="9.10464298238159"><ele>628.8</ele><time>2026-05-01T11:49:53.999Z</time></trkpt><trkpt lat="40.85231875017166" lon="9.104524954952831"><ele>632.6</ele><time>2026-05-01T11:49:54.999Z</time></trkpt><trkpt lat="40.85229754496983" lon="9.104382222008887"><ele>636.4000000000001</ele><time>2026-05-01T11:49:56.999Z</time></trkpt><trkpt lat="40.85222597511908" lon="9.104280256970664"><ele>640.2</ele><time>2026-05-01T11:49:58.999Z</time></trkpt><trkpt lat="40.85215161419431" lon="9.10420290307325"><ele>644.0</ele><time>2026-05-01T11:50:00.999Z</time></trkpt><trkpt lat="40.852059654684325" lon="9.10408510722029"><ele>643.8333333333333</ele><time>2026-05-01T11:50:02.999Z</time></trkpt><trkpt lat="40.85201172675724" lon="9.103974167836158"><ele>643.6666666666666</ele><time>2026-05-01T11:50:04.999Z</time></trkpt><trkpt lat="40.85197336082477" lon="9.103876493380916"><ele>643.5</ele><time>2026-05-01T11:50:07.999Z</time></trkpt><trkpt lat="40.85192423669352" lon="9.103816809617944"><ele>643.3333333333334</ele><time>2026-05-01T11:50:08.999Z</time></trkpt><trkpt lat="40.85188059456226" lon="9.103752500853012"><ele>643.1666666666667</ele><time>2026-05-01T11:50:09.999Z</time></trkpt><trkpt lat="40.851795249209296" lon="9.103639334181326"><ele>643.0</ele><time>2026-05-01T11:50:11.999Z</time></trkpt><trkpt lat="40.85171203485589" lon="9.103558816197344"><ele>643.0</ele><time>2026-05-01T11:50:13.999Z</time></trkpt><trkpt lat="40.85166114948356" lon="9.10349224281653"><ele>643.0</ele><time>2026-05-01T11:50:15.999Z</time></trkpt><trkpt lat="40.8515761855979" lon="9.103426617342846"><ele>643.0</ele><time>2026-05-01T11:50:17.999Z</time></trkpt><trkpt lat="40.851492929944555" lon="9.10334328956049"><ele>643.0</ele><time>2026-05-01T11:50:19.999Z</time></trkpt><trkpt lat="40.85144346397962" lon="9.103267338669571"><ele>643.0</ele><time>2026-05-01T11:50:21.999Z</time></trkpt><trkpt lat="40.85137962460785" lon="9.103175442262224"><ele>643.0</ele><time>2026-05-01T11:50:23.999Z</time></trkpt><trkpt lat="40.85132797529897" lon="9.103113808356284"><ele>650.4</ele><time>2026-05-01T11:50:25.999Z</time></trkpt><trkpt lat="40.85127426059113" lon="9.103038126937582"><ele>657.8</ele><time>2026-05-01T11:50:27.999Z</time></trkpt><trkpt lat="40.851219941152664" lon="9.102974358278958"><ele>665.2</ele><time>2026-05-01T11:50:29.999Z</time></trkpt><trkpt lat="40.85115161373422" lon="9.10284775708832"><ele>672.6</ele><time>2026-05-01T11:50:31.999Z</time></trkpt><trkpt lat="40.851087774566764" lon="9.10272130139683"><ele>680.0</ele><time>2026-05-01T11:50:33.999Z</time></trkpt><trkpt lat="40.85104948468926" lon="9.102624103674684"><ele>680.0</ele><time>2026-05-01T11:50:35.999Z</time></trkpt><trkpt lat="40.85097237120929" lon="9.10248827139229"><ele>680.0</ele><time>2026-05-01T11:50:37.999Z</time></trkpt><trkpt lat="40.850932646672184" lon="9.102415556102589"><ele>680.0</ele><time>2026-05-01T11:50:38.999Z</time></trkpt><trkpt lat="40.850857186086394" lon="9.102294453594292"><ele>680.0</ele><time>2026-05-01T11:50:40.999Z</time></trkpt><trkpt lat="40.85080727691743" lon="9.10221579705961"><ele>680.0</ele><time>2026-05-01T11:50:41.999Z</time></trkpt><trkpt lat="40.85076810181445" lon="9.102146444769687"><ele>679.3333333333333</ele><time>2026-05-01T11:50:42.999Z</time></trkpt><trkpt lat="40.85069305366003" lon="9.102081091686834"><ele>678.6666666666666</ele><time>2026-05-01T11:50:44.999Z</time></trkpt><trkpt lat="40.850609005177226" lon="9.102064444109166"><ele>678.0</ele><time>2026-05-01T11:50:46.999Z</time></trkpt><trkpt lat="40.85053594534587" lon="9.102052501189986"><ele>677.3333333333334</ele><time>2026-05-01T11:50:48.999Z</time></trkpt><trkpt lat="40.85045064606242" lon="9.102115132241677"><ele>676.6666666666667</ele><time>2026-05-01T11:50:50.999Z</time></trkpt><trkpt lat="40.850375068141496" lon="9.1021991458578"><ele>676.0</ele><time>2026-05-01T11:50:53.999Z</time></trkpt><trkpt lat="40.85030609174231" lon="9.102271446286684"><ele>676.0</ele><time>2026-05-01T11:50:55.999Z</time></trkpt><trkpt lat="40.8502615069261" lon="9.1023436652788"><ele>676.0</ele><time>2026-05-01T11:50:57.999Z</time></trkpt><trkpt lat="40.85022472350555" lon="9.102442755248099"><ele>676.0</ele><time>2026-05-01T11:50:59.999Z</time></trkpt><trkpt lat="40.85019123282238" lon="9.102524703719867"><ele>676.0</ele><time>2026-05-01T11:51:01.999Z</time></trkpt><trkpt lat="40.85011137741134" lon="9.10265366961942"><ele>676.0</ele><time>2026-05-01T11:51:03.999Z</time></trkpt><trkpt lat="40.85005756260423" lon="9.102725075394748"><ele>676.0</ele><time>2026-05-01T11:51:04.999Z</time></trkpt><trkpt lat="40.85000728045588" lon="9.10280061306651"><ele>674.8</ele><time>2026-05-01T11:51:05.999Z</time></trkpt><trkpt lat="40.84995941330586" lon="9.102887996375836"><ele>673.5999999999999</ele><time>2026-05-01T11:51:06.999Z</time></trkpt><trkpt lat="40.84992399294781" lon="9.102975413339081"><ele>672.4</ele><time>2026-05-01T11:51:07.999Z</time></trkpt><trkpt lat="40.84989104726585" lon="9.103103534252405"><ele>671.2</ele><time>2026-05-01T11:51:09.999Z</time></trkpt><trkpt lat="40.84984506069481" lon="9.103265752020123"><ele>670.0</ele><time>2026-05-01T11:51:12Z</time></trkpt><trkpt lat="40.84980560579822" lon="9.103347881313077"><ele>667.1428571428571</ele><time>2026-05-01T11:51:13Z</time></trkpt><trkpt lat="40.84974238221114" lon="9.103393012614154"><ele>664.2857142857142</ele><time>2026-05-01T11:51:14Z</time></trkpt><trkpt lat="40.849669082007956" lon="9.103408917256708"><ele>661.4285714285713</ele><time>2026-05-01T11:51:15Z</time></trkpt><trkpt lat="40.84960199774212" lon="9.103395545773099"><ele>658.5714285714286</ele><time>2026-05-01T11:51:16Z</time></trkpt><trkpt lat="40.84954294214716" lon="9.103350703061315"><ele>655.7142857142858</ele><time>2026-05-01T11:51:18Z</time></trkpt><trkpt lat="40.84947167790722" lon="9.103366875666213"><ele>652.8571428571428</ele><time>2026-05-01T11:51:20Z</time></trkpt><trkpt lat="40.849408519004896" lon="9.103365494920887"><ele>650.0</ele><time>2026-05-01T11:51:21Z</time></trkpt><trkpt lat="40.84933117090522" lon="9.103367604584001"><ele>653.3333333333333</ele><time>2026-05-01T11:51:22Z</time></trkpt><trkpt lat="40.84926579985273" lon="9.10332764767519"><ele>656.6666666666666</ele><time>2026-05-01T11:51:25Z</time></trkpt><trkpt lat="40.8491599628174" lon="9.103282778446902"><ele>660.0</ele><time>2026-05-01T11:53:42Z</time></trkpt><trkpt lat="40.84909010649626" lon="9.103251106220041"><ele>663.3333333333334</ele><time>2026-05-01T11:53:43Z</time></trkpt><trkpt lat="40.84901872054811" lon="9.103209323235642"><ele>666.6666666666667</ele><time>2026-05-01T11:53:44Z</time></trkpt><trkpt lat="40.84895098769735" lon="9.103164681107232"><ele>670.0</ele><time>2026-05-01T11:53:45Z</time></trkpt><trkpt lat="40.84887933681627" lon="9.103120693675532"><ele>674.6</ele><time>2026-05-01T11:53:46Z</time></trkpt><trkpt lat="40.84881018878737" lon="9.10308946291044"><ele>679.2</ele><time>2026-05-01T11:53:47Z</time></trkpt><trkpt lat="40.84873528811077" lon="9.103040519874273"><ele>683.8</ele><time>2026-05-01T11:53:49Z</time></trkpt><trkpt lat="40.84864420460434" lon="9.102964826515768"><ele>688.4</ele><time>2026-05-01T11:53:51Z</time></trkpt><trkpt lat="40.848544902401144" lon="9.102883683958114"><ele>693.0</ele><time>2026-05-01T11:53:53Z</time></trkpt><trkpt lat="40.84844465421802" lon="9.10277829864887"><ele>693.5</ele><time>2026-05-01T11:53:55Z</time></trkpt><trkpt lat="40.84835096650543" lon="9.102689314515917"><ele>694.0</ele><time>2026-05-01T11:53:57Z</time></trkpt><trkpt lat="40.84828537879317" lon="9.102643920499967"><ele>694.5</ele><time>2026-05-01T11:53:58Z</time></trkpt><trkpt lat="40.8482122586735" lon="9.102603802178704"><ele>695.0</ele><time>2026-05-01T11:53:59Z</time></trkpt><trkpt lat="40.848139602977675" lon="9.102572933285618"><ele>695.5</ele><time>2026-05-01T11:54:00Z</time></trkpt><trkpt lat="40.848060402133434" lon="9.102535716861867"><ele>696.0</ele><time>2026-05-01T11:54:01Z</time></trkpt><trkpt lat="40.84797168542444" lon="9.102491593271335"><ele>696.0</ele><time>2026-05-01T11:54:02Z</time></trkpt><trkpt lat="40.847876931175236" lon="9.102444333147861"><ele>696.0</ele><time>2026-05-01T11:54:03Z</time></trkpt><trkpt lat="40.84779341777832" lon="9.10240234100631"><ele>696.0</ele><time>2026-05-01T11:54:04Z</time></trkpt><trkpt lat="40.84771284959413" lon="9.102369915187353"><ele>696.0</ele><time>2026-05-01T11:54:05Z</time></trkpt><trkpt lat="40.84763815644241" lon="9.102351357176198"><ele>696.0</ele><time>2026-05-01T11:54:06Z</time></trkpt><trkpt lat="40.84757262389808" lon="9.102339888872034"><ele>696.0</ele><time>2026-05-01T11:54:07Z</time></trkpt><trkpt lat="40.84745233577892" lon="9.102300386341001"><ele>701.1666666666666</ele><time>2026-05-01T11:54:09Z</time></trkpt><trkpt lat="40.84732885940175" lon="9.102287211323953"><ele>706.3333333333334</ele><time>2026-05-01T11:54:11Z</time></trkpt><trkpt lat="40.847258036387394" lon="9.10226889784165"><ele>711.5</ele><time>2026-05-01T11:54:12Z</time></trkpt><trkpt lat="40.84719385482442" lon="9.102245710567969"><ele>716.6666666666667</ele><time>2026-05-01T11:54:13Z</time></trkpt><trkpt lat="40.847120464938136" lon="9.102222719233836"><ele>721.8333333333334</ele><time>2026-05-01T11:54:14Z</time></trkpt><trkpt lat="40.84704700428712" lon="9.102204443848395"><ele>727.0</ele><time>2026-05-01T11:54:15Z</time></trkpt><trkpt lat="40.84697053690034" lon="9.102211142291814"><ele>727.0</ele><time>2026-05-01T11:54:16Z</time></trkpt><trkpt lat="40.84689683847521" lon="9.102252105977652"><ele>727.0</ele><time>2026-05-01T11:54:17Z</time></trkpt><trkpt lat="40.84681190312153" lon="9.102314483956865"><ele>727.0</ele><time>2026-05-01T11:54:18Z</time></trkpt><trkpt lat="40.846741742454235" lon="9.102389001433565"><ele>727.0</ele><time>2026-05-01T11:54:19Z</time></trkpt><trkpt lat="40.846680959602686" lon="9.102449209345474"><ele>727.0</ele><time>2026-05-01T11:54:20Z</time></trkpt><trkpt lat="40.84662361969823" lon="9.102523306097732"><ele>727.0</ele><time>2026-05-01T11:54:21Z</time></trkpt><trkpt lat="40.84652213789619" lon="9.102581340566497"><ele>727.6666666666667</ele><time>2026-05-01T11:54:23Z</time></trkpt><trkpt lat="40.8464330707335" lon="9.102581060923832"><ele>728.3333333333334</ele><time>2026-05-01T11:54:24Z</time></trkpt><trkpt lat="40.846357346936244" lon="9.102543304556065"><ele>729.0</ele><time>2026-05-01T11:54:25Z</time></trkpt><trkpt lat="40.84628550241569" lon="9.102485316564078"><ele>729.6666666666666</ele><time>2026-05-01T11:54:26Z</time></trkpt><trkpt lat="40.846205126361596" lon="9.102429981071078"><ele>730.3333333333333</ele><time>2026-05-01T11:54:27Z</time></trkpt><trkpt lat="40.84611470954179" lon="9.10240136464945"><ele>731.0</ele><time>2026-05-01T11:54:28Z</time></trkpt><trkpt lat="40.846009132646294" lon="9.102380444178323"><ele>730.3333333333333</ele><time>2026-05-01T11:54:29Z</time></trkpt><trkpt lat="40.845924558195094" lon="9.102334804605313"><ele>729.6666666666666</ele><time>2026-05-01T11:54:30Z</time></trkpt><trkpt lat="40.84586257324301" lon="9.102271119765634"><ele>729.0</ele><time>2026-05-01T11:54:31Z</time></trkpt><trkpt lat="40.84580387009517" lon="9.10216923600357"><ele>728.3333333333334</ele><time>2026-05-01T11:54:32Z</time></trkpt><trkpt lat="40.84574581661709" lon="9.10206645121587"><ele>727.6666666666667</ele><time>2026-05-01T11:54:33Z</time></trkpt><trkpt lat="40.84568591545669" lon="9.102005861435432"><ele>727.0</ele><time>2026-05-01T11:54:34Z</time></trkpt><trkpt lat="40.84562424955324" lon="9.101985331396868"><ele>727.0</ele><time>2026-05-01T11:54:35Z</time></trkpt><trkpt lat="40.845500868291" lon="9.101978290815602"><ele>727.0</ele><time>2026-05-01T11:54:37Z</time></trkpt><trkpt lat="40.8454131289309" lon="9.101999188842994"><ele>727.0</ele><time>2026-05-01T11:54:38Z</time></trkpt><trkpt lat="40.845310553218646" lon="9.102028891324398"><ele>727.0</ele><time>2026-05-01T11:54:39Z</time></trkpt><trkpt lat="40.84520753821404" lon="9.102047444568205"><ele>727.0</ele><time>2026-05-01T11:54:40Z</time></trkpt><trkpt lat="40.8451367417506" lon="9.102051610294058"><ele>726.8</ele><time>2026-05-01T11:54:41Z</time></trkpt><trkpt lat="40.84507090677318" lon="9.10205530557623"><ele>726.6</ele><time>2026-05-01T11:54:42Z</time></trkpt><trkpt lat="40.844967587697816" lon="9.102072487515093"><ele>726.4</ele><time>2026-05-01T11:54:43Z</time></trkpt><trkpt lat="40.84487629003689" lon="9.102060020264377"><ele>726.1999999999999</ele><time>2026-05-01T11:54:44Z</time></trkpt><trkpt lat="40.844778197650136" lon="9.102023877798606"><ele>726.0</ele><time>2026-05-01T11:54:45Z</time></trkpt><trkpt lat="40.8446782426485" lon="9.101988242436681"><ele>726.0</ele><time>2026-05-01T11:54:46Z</time></trkpt><trkpt lat="40.8446033052882" lon="9.10197043181732"><ele>726.0</ele><time>2026-05-01T11:54:47Z</time></trkpt><trkpt lat="40.844507677131254" lon="9.101998046019661"><ele>726.0</ele><time>2026-05-01T11:54:49Z</time></trkpt><trkpt lat="40.844437563002785" lon="9.10204086387208"><ele>726.0</ele><time>2026-05-01T11:54:50Z</time></trkpt><trkpt lat="40.84434582308648" lon="9.102079920537864"><ele>726.0</ele><time>2026-05-01T11:54:51Z</time></trkpt><trkpt lat="40.84426113334807" lon="9.102091515162499"><ele>726.0</ele><time>2026-05-01T11:54:52Z</time></trkpt><trkpt lat="40.844187784076276" lon="9.102098656705932"><ele>725.8</ele><time>2026-05-01T11:54:53Z</time></trkpt><trkpt lat="40.84407254546708" lon="9.102102382079243"><ele>725.5999999999999</ele><time>2026-05-01T11:54:55Z</time></trkpt><trkpt lat="40.84397685935735" lon="9.10213145610755"><ele>725.4</ele><time>2026-05-01T11:54:57Z</time></trkpt><trkpt lat="40.84388213980739" lon="9.102143434105667"><ele>725.2</ele><time>2026-05-01T11:54:59Z</time></trkpt><trkpt lat="40.843773469344534" lon="9.102176988574756"><ele>725.0</ele><time>2026-05-01T11:55:01Z</time></trkpt><trkpt lat="40.84368754487562" lon="9.10218400780743"><ele>725.0</ele><time>2026-05-01T11:55:03Z</time></trkpt><trkpt lat="40.843594791339946" lon="9.10222361034445"><ele>725.0</ele><time>2026-05-01T11:55:05Z</time></trkpt><trkpt lat="40.84351189074801" lon="9.102307065990523"><ele>725.0</ele><time>2026-05-01T11:55:07Z</time></trkpt><trkpt lat="40.84339242112386" lon="9.102389191319682"><ele>725.0</ele><time>2026-05-01T11:55:09Z</time></trkpt><trkpt lat="40.84330532123017" lon="9.102402130509327"><ele>725.0</ele><time>2026-05-01T11:55:10Z</time></trkpt><trkpt lat="40.84321646280966" lon="9.102418581350875"><ele>723.2</ele><time>2026-05-01T11:55:11Z</time></trkpt><trkpt lat="40.84312793089085" lon="9.10244295689789"><ele>721.4</ele><time>2026-05-01T11:55:12Z</time></trkpt><trkpt lat="40.84303385127301" lon="9.102464317727701"><ele>719.5999999999999</ele><time>2026-05-01T11:55:13Z</time></trkpt><trkpt lat="40.842940708933135" lon="9.102454548554121"><ele>717.8</ele><time>2026-05-01T11:55:14Z</time></trkpt><trkpt lat="40.84284388099854" lon="9.102431808253915"><ele>716.0</ele><time>2026-05-01T11:55:15Z</time></trkpt><trkpt lat="40.84275823910234" lon="9.10237051448551"><ele>716.0</ele><time>2026-05-01T11:55:16Z</time></trkpt><trkpt lat="40.842682217453685" lon="9.102289216412935"><ele>716.0</ele><time>2026-05-01T11:55:17Z</time></trkpt><trkpt lat="40.8425041057333" lon="9.102308245681384"><ele>716.0</ele><time>2026-05-01T11:55:17.999Z</time></trkpt><trkpt lat="40.8424667026574" lon="9.102211360165885"><ele>716.0</ele><time>2026-05-01T11:55:18.999Z</time></trkpt><trkpt lat="40.842537600477314" lon="9.102158723171211"><ele>716.0</ele><time>2026-05-01T11:55:22Z</time></trkpt><trkpt lat="40.842635005730294" lon="9.102281021527142"><ele>716.0</ele><time>2026-05-01T11:55:23Z</time></trkpt><trkpt lat="40.842687236796195" lon="9.102346276057043"><ele>716.0</ele><time>2026-05-01T11:55:24Z</time></trkpt><trkpt lat="40.84277079767501" lon="9.102445825178775"><ele>716.0</ele><time>2026-05-01T11:55:25Z</time></trkpt><trkpt lat="40.84284840956677" lon="9.102509073789859"><ele>716.0</ele><time>2026-05-01T11:55:27Z</time></trkpt><trkpt lat="40.84279364602866" lon="9.102559673634827"><ele>716.0</ele><time>2026-05-01T11:55:29Z</time></trkpt><trkpt lat="40.84271045876665" lon="9.103143455069874"><ele>711.5</ele><time>2026-05-01T11:55:31Z</time></trkpt><trkpt lat="40.84267999280675" lon="9.103055919299914"><ele>707.0</ele><time>2026-05-01T11:55:32Z</time></trkpt><trkpt lat="40.842720049212296" lon="9.103145783702805"><ele>702.5</ele><time>2026-05-01T11:55:36Z</time></trkpt><trkpt lat="40.84267074406944" lon="9.103239499987879"><ele>698.0</ele><time>2026-05-01T11:55:38Z</time></trkpt><trkpt lat="40.84262940044733" lon="9.10330658541862"><ele>693.5</ele><time>2026-05-01T11:56:21Z</time></trkpt><trkpt lat="40.842501679255165" lon="9.103363129172925"><ele>689.0</ele><time>2026-05-01T11:56:23Z</time></trkpt><trkpt lat="40.84242193031014" lon="9.103407425408433"><ele>686.0</ele><time>2026-05-01T11:56:24Z</time></trkpt><trkpt lat="40.84232398073394" lon="9.103464485377968"><ele>683.0</ele><time>2026-05-01T11:56:25Z</time></trkpt><trkpt lat="40.84220097688528" lon="9.10353883034467"><ele>680.0</ele><time>2026-05-01T11:56:26Z</time></trkpt><trkpt lat="40.842064429264006" lon="9.10362116929346"><ele>677.0</ele><time>2026-05-01T11:56:27Z</time></trkpt><trkpt lat="40.841920174073614" lon="9.103706773213549"><ele>675.6666666666666</ele><time>2026-05-01T11:56:28Z</time></trkpt><trkpt lat="40.84177612030511" lon="9.103788012174466"><ele>674.3333333333334</ele><time>2026-05-01T11:56:29Z</time></trkpt><trkpt lat="40.84162341442863" lon="9.103872644367383"><ele>673.0</ele><time>2026-05-01T11:56:30Z</time></trkpt><trkpt lat="40.8414973184228" lon="9.103945003705245"><ele>673.0</ele><time>2026-05-01T11:56:31Z</time></trkpt><trkpt lat="40.84139110998165" lon="9.10401092777433"><ele>673.0</ele><time>2026-05-01T11:56:32Z</time></trkpt><trkpt lat="40.84129623425019" lon="9.1040736413631"><ele>673.0</ele><time>2026-05-01T11:56:33Z</time></trkpt><trkpt lat="40.84119051094976" lon="9.104140407339987"><ele>673.0</ele><time>2026-05-01T11:56:34Z</time></trkpt><trkpt lat="40.84108417018276" lon="9.10419619500817"><ele>673.5999999999999</ele><time>2026-05-01T11:56:35Z</time></trkpt><trkpt lat="40.8409997224956" lon="9.104204434542835"><ele>674.1999999999999</ele><time>2026-05-01T11:56:36Z</time></trkpt><trkpt lat="40.840900102633974" lon="9.104190641553151"><ele>674.8</ele><time>2026-05-01T11:56:37Z</time></trkpt><trkpt lat="40.84082066279715" lon="9.104140834637946"><ele>675.4</ele><time>2026-05-01T11:56:38Z</time></trkpt><trkpt lat="40.840702596577756" lon="9.104075614725833"><ele>676.0</ele><time>2026-05-01T11:56:39Z</time></trkpt><trkpt lat="40.84057686560079" lon="9.104007667731706"><ele>676.0</ele><time>2026-05-01T11:56:40Z</time></trkpt><trkpt lat="40.84048418476352" lon="9.103960099193646"><ele>676.0</ele><time>2026-05-01T11:56:41Z</time></trkpt><trkpt lat="40.840421623999426" lon="9.103941906772377"><ele>676.0</ele><time>2026-05-01T11:56:42Z</time></trkpt><trkpt lat="40.84036811686808" lon="9.104094212715163"><ele>676.0</ele><time>2026-05-01T11:56:45Z</time></trkpt><trkpt lat="40.840488770163205" lon="9.104202636288464"><ele>676.0</ele><time>2026-05-01T11:56:47Z</time></trkpt><trkpt lat="40.84056651529834" lon="9.104307068859955"><ele>680.0</ele><time>2026-05-01T11:56:48Z</time></trkpt><trkpt lat="40.84065303405121" lon="9.104406567764402"><ele>684.0</ele><time>2026-05-01T11:56:49Z</time></trkpt><trkpt lat="40.840764164834056" lon="9.104524050321164"><ele>688.0</ele><time>2026-05-01T11:56:50Z</time></trkpt><trkpt lat="40.840877760968354" lon="9.104681161223642"><ele>692.0</ele><time>2026-05-01T11:56:51Z</time></trkpt><trkpt lat="40.840985538014465" lon="9.104782204994851"><ele>692.0</ele><time>2026-05-01T11:56:52Z</time></trkpt><trkpt lat="40.841052286990966" lon="9.104866925936651"><ele>692.0</ele><time>2026-05-01T11:56:53Z</time></trkpt><trkpt lat="40.84103697413368" lon="9.104950896905518"><ele>692.0</ele><time>2026-05-01T11:56:56Z</time></trkpt><trkpt lat="40.84094279455704" lon="9.1049115478074"><ele>692.0</ele><time>2026-05-01T11:56:58Z</time></trkpt><trkpt lat="40.840863409159276" lon="9.10486763979177"><ele>692.0</ele><time>2026-05-01T11:56:59Z</time></trkpt><trkpt lat="40.84077699538771" lon="9.104825170794054"><ele>692.0</ele><time>2026-05-01T11:57:00Z</time></trkpt><trkpt lat="40.840675422111616" lon="9.104774374386016"><ele>692.8</ele><time>2026-05-01T11:57:01Z</time></trkpt><trkpt lat="40.840557921615485" lon="9.104697549266902"><ele>693.6</ele><time>2026-05-01T11:57:02Z</time></trkpt><trkpt lat="40.84045568869342" lon="9.10460684285295"><ele>694.4</ele><time>2026-05-01T11:57:03Z</time></trkpt><trkpt lat="40.84037338114999" lon="9.104572464516496"><ele>695.1999999999999</ele><time>2026-05-01T11:57:04Z</time></trkpt><trkpt lat="40.84031940249144" lon="9.10464733526485"><ele>696.0</ele><time>2026-05-01T11:57:08Z</time></trkpt><trkpt lat="40.840380911503146" lon="9.10475725908447"><ele>696.0</ele><time>2026-05-01T11:57:10Z</time></trkpt><trkpt lat="40.840444474845484" lon="9.104831323295826"><ele>696.0</ele><time>2026-05-01T11:57:11Z</time></trkpt><trkpt lat="40.840502944132965" lon="9.104918567721683"><ele>696.0</ele><time>2026-05-01T11:57:12Z</time></trkpt><trkpt lat="40.840575995900466" lon="9.105009163779899"><ele>696.0</ele><time>2026-05-01T11:57:12.999Z</time></trkpt><trkpt lat="40.840677175297905" lon="9.105135256436716"><ele>696.0</ele><time>2026-05-01T11:57:13.999Z</time></trkpt><trkpt lat="40.84081534503118" lon="9.10523892880278"><ele>699.0</ele><time>2026-05-01T11:57:14.999Z</time></trkpt><trkpt lat="40.84094874224962" lon="9.10538713954966"><ele>702.0</ele><time>2026-05-01T11:57:15.999Z</time></trkpt><trkpt lat="40.841073650816924" lon="9.105494775840397"><ele>705.0</ele><time>2026-05-01T11:57:16.999Z</time></trkpt><trkpt lat="40.84116457764054" lon="9.105577803070785"><ele>708.0</ele><time>2026-05-01T11:57:17.999Z</time></trkpt><trkpt lat="40.8412303573173" lon="9.105717012388558"><ele>710.2</ele><time>2026-05-01T11:57:18.999Z</time></trkpt><trkpt lat="40.841340160355585" lon="9.105843008611783"><ele>712.4</ele><time>2026-05-01T11:57:19.999Z</time></trkpt><trkpt lat="40.841423264758106" lon="9.105977902182824"><ele>714.6</ele><time>2026-05-01T11:57:20.999Z</time></trkpt><trkpt lat="40.84144574198428" lon="9.106079334328777"><ele>716.8000000000001</ele><time>2026-05-01T11:57:21.999Z</time></trkpt><trkpt lat="40.84146310515533" lon="9.10618239741038"><ele>719.0</ele><time>2026-05-01T11:57:23.999Z</time></trkpt><trkpt lat="40.84138804581072" lon="9.106217412008592"><ele>719.0</ele><time>2026-05-01T11:57:25.999Z</time></trkpt><trkpt lat="40.84129513903778" lon="9.106175519652492"><ele>719.0</ele><time>2026-05-01T11:57:28Z</time></trkpt><trkpt lat="40.84121538128975" lon="9.106152305823198"><ele>719.0</ele><time>2026-05-01T11:57:29Z</time></trkpt><trkpt lat="40.84112304753292" lon="9.10611758442847"><ele>719.0</ele><time>2026-05-01T11:57:30Z</time></trkpt><trkpt lat="40.84100286031933" lon="9.106074637548977"><ele>719.0</ele><time>2026-05-01T11:57:31Z</time></trkpt><trkpt lat="40.840863948395395" lon="9.10602557418793"><ele>724.0</ele><time>2026-05-01T11:57:32Z</time></trkpt><trkpt lat="40.840705596845666" lon="9.105994793447902"><ele>729.0</ele><time>2026-05-01T11:57:33Z</time></trkpt><trkpt lat="40.84058886604139" lon="9.105969645197938"><ele>734.0</ele><time>2026-05-01T11:57:34Z</time></trkpt><trkpt lat="40.840489922683254" lon="9.105915539855424"><ele>739.0</ele><time>2026-05-01T11:57:35Z</time></trkpt><trkpt lat="40.840419795849996" lon="9.105829097599184"><ele>739.0</ele><time>2026-05-01T11:57:36Z</time></trkpt><trkpt lat="40.84035168450558" lon="9.105758313610513"><ele>739.0</ele><time>2026-05-01T11:57:37Z</time></trkpt><trkpt lat="40.84024586970472" lon="9.105717009201808"><ele>739.0</ele><time>2026-05-01T11:57:39Z</time></trkpt><trkpt lat="40.84016895374952" lon="9.105858099020669"><ele>739.0</ele><time>2026-05-01T11:57:41Z</time></trkpt><trkpt lat="40.84024446214554" lon="9.10594974783254"><ele>739.0</ele><time>2026-05-01T11:57:42Z</time></trkpt><trkpt lat="40.840285752569294" lon="9.106068693590558"><ele>739.0</ele><time>2026-05-01T11:57:43Z</time></trkpt><trkpt lat="40.84036684948898" lon="9.106198595325795"><ele>739.0</ele><time>2026-05-01T11:57:44Z</time></trkpt><trkpt lat="40.840466377283356" lon="9.106326006815769"><ele>739.0</ele><time>2026-05-01T11:57:45Z</time></trkpt><trkpt lat="40.840592292289955" lon="9.106457714773095"><ele>739.0</ele><time>2026-05-01T11:57:46Z</time></trkpt><trkpt lat="40.84070233456077" lon="9.106610086772985"><ele>742.4000000000001</ele><time>2026-05-01T11:57:47Z</time></trkpt><trkpt lat="40.84079396665231" lon="9.106730465701498"><ele>745.8</ele><time>2026-05-01T11:57:48Z</time></trkpt><trkpt lat="40.840845454346315" lon="9.106805628061212"><ele>749.2</ele><time>2026-05-01T11:57:49Z</time></trkpt><trkpt lat="40.840901951876795" lon="9.106871149075937"><ele>752.5999999999999</ele><time>2026-05-01T11:57:50Z</time></trkpt><trkpt lat="40.840873224499376" lon="9.107019713179325"><ele>756.0</ele><time>2026-05-01T11:57:52Z</time></trkpt><trkpt lat="40.84076807795935" lon="9.107013243790455"><ele>756.0</ele><time>2026-05-01T11:57:54Z</time></trkpt><trkpt lat="40.84069959312176" lon="9.10699001997195"><ele>756.0</ele><time>2026-05-01T11:57:55Z</time></trkpt><trkpt lat="40.84058874106747" lon="9.106967329816149"><ele>756.0</ele><time>2026-05-01T11:57:56Z</time></trkpt><trkpt lat="40.840472207385" lon="9.106934516461783"><ele>756.0</ele><time>2026-05-01T11:57:57Z</time></trkpt><trkpt lat="40.840329994240804" lon="9.106883843371017"><ele>756.0</ele><time>2026-05-01T11:57:58Z</time></trkpt><trkpt lat="40.840178197447884" lon="9.106817294981331"><ele>759.5999999999999</ele><time>2026-05-01T11:57:59Z</time></trkpt><trkpt lat="40.840070249251646" lon="9.106754782699525"><ele>763.2</ele><time>2026-05-01T11:58:00Z</time></trkpt><trkpt lat="40.840000833076864" lon="9.106730261629547"><ele>766.8</ele><time>2026-05-01T11:58:01Z</time></trkpt><trkpt lat="40.83990011579506" lon="9.106803248645337"><ele>770.4000000000001</ele><time>2026-05-01T11:58:03Z</time></trkpt><trkpt lat="40.83985686182043" lon="9.106886777185368"><ele>774.0</ele><time>2026-05-01T11:58:04Z</time></trkpt><trkpt lat="40.83988634998892" lon="9.107028108537996"><ele>774.0</ele><time>2026-05-01T11:58:05Z</time></trkpt><trkpt lat="40.83994020685438" lon="9.107174159434084"><ele>774.0</ele><time>2026-05-01T11:58:06Z</time></trkpt><trkpt lat="40.839981109828855" lon="9.107313470450157"><ele>774.0</ele><time>2026-05-01T11:58:07Z</time></trkpt><trkpt lat="40.84002904196488" lon="9.107463906362495"><ele>774.0</ele><time>2026-05-01T11:58:08Z</time></trkpt><trkpt lat="40.84009172141241" lon="9.107646503495314"><ele>774.0</ele><time>2026-05-01T11:58:09Z</time></trkpt><trkpt lat="40.840149950483706" lon="9.10782497581995"><ele>774.0</ele><time>2026-05-01T11:58:10Z</time></trkpt><trkpt lat="40.84020741711941" lon="9.108014696984878"><ele>774.0</ele><time>2026-05-01T11:58:11Z</time></trkpt><trkpt lat="40.84025556081173" lon="9.108181984380698"><ele>774.0</ele><time>2026-05-01T11:58:12Z</time></trkpt><trkpt lat="40.8402831497619" lon="9.108303425577217"><ele>777.1666666666666</ele><time>2026-05-01T11:58:13Z</time></trkpt><trkpt lat="40.840297450893104" lon="9.10840129459435"><ele>780.3333333333333</ele><time>2026-05-01T11:58:14Z</time></trkpt><trkpt lat="40.840275347529115" lon="9.108510702529017"><ele>783.5</ele><time>2026-05-01T11:58:16Z</time></trkpt><trkpt lat="40.84017365640447" lon="9.108533166064916"><ele>786.6666666666666</ele><time>2026-05-01T11:58:18Z</time></trkpt><trkpt lat="40.84012544124024" lon="9.108475584901527"><ele>789.8333333333333</ele><time>2026-05-01T11:58:19Z</time></trkpt><trkpt lat="40.84005994338553" lon="9.108417841956632"><ele>793.0</ele><time>2026-05-01T11:58:20Z</time></trkpt><trkpt lat="40.83996385809099" lon="9.108333655624916"><ele>791.3333333333333</ele><time>2026-05-01T11:58:21Z</time></trkpt><trkpt lat="40.83984259829033" lon="9.108213308172456"><ele>789.6666666666667</ele><time>2026-05-01T11:58:22Z</time></trkpt><trkpt lat="40.839718618208764" lon="9.108076456897466"><ele>788.0</ele><time>2026-05-01T11:58:23Z</time></trkpt><trkpt lat="40.839618774838186" lon="9.107944742242069"><ele>788.0</ele><time>2026-05-01T11:58:24Z</time></trkpt><trkpt lat="40.8395252634055" lon="9.107801436745138"><ele>788.0</ele><time>2026-05-01T11:58:25Z</time></trkpt><trkpt lat="40.839421371365205" lon="9.107655488003873"><ele>788.0</ele><time>2026-05-01T11:58:26Z</time></trkpt><trkpt lat="40.83932833410085" lon="9.107544713523412"><ele>788.0</ele><time>2026-05-01T11:58:27Z</time></trkpt><trkpt lat="40.839245713296556" lon="9.107466878699542"><ele>793.8</ele><time>2026-05-01T11:58:28Z</time></trkpt><trkpt lat="40.83917097435648" lon="9.10743170517083"><ele>799.5999999999999</ele><time>2026-05-01T11:58:29Z</time></trkpt><trkpt lat="40.839070383022644" lon="9.107472920087059"><ele>805.4000000000001</ele><time>2026-05-01T11:58:31Z</time></trkpt><trkpt lat="40.83903700135891" lon="9.107584938322299"><ele>811.2</ele><time>2026-05-01T11:58:32Z</time></trkpt><trkpt lat="40.83910320496735" lon="9.107698755574633"><ele>817.0</ele><time>2026-05-01T11:58:33Z</time></trkpt><trkpt lat="40.839122950492225" lon="9.10782115329995"><ele>817.0</ele><time>2026-05-01T11:58:34Z</time></trkpt><trkpt lat="40.8391628402055" lon="9.107966929700963"><ele>817.0</ele><time>2026-05-01T11:58:35Z</time></trkpt><trkpt lat="40.83920356416163" lon="9.108108186759543"><ele>817.0</ele><time>2026-05-01T11:58:36Z</time></trkpt><trkpt lat="40.83924101529244" lon="9.108235809849047"><ele>817.0</ele><time>2026-05-01T11:58:37Z</time></trkpt><trkpt lat="40.83928013930069" lon="9.10836897444942"><ele>817.0</ele><time>2026-05-01T11:58:38Z</time></trkpt><trkpt lat="40.83933869172027" lon="9.108526775814592"><ele>813.75</ele><time>2026-05-01T11:58:39Z</time></trkpt><trkpt lat="40.83939794196999" lon="9.10870222769671"><ele>810.5</ele><time>2026-05-01T11:58:40Z</time></trkpt><trkpt lat="40.83946267685337" lon="9.108848921575271"><ele>807.25</ele><time>2026-05-01T11:58:41Z</time></trkpt><trkpt lat="40.83952890846241" lon="9.10895671218207"><ele>804.0</ele><time>2026-05-01T11:58:42Z</time></trkpt><trkpt lat="40.83958003770713" lon="9.109041045570306"><ele>807.6</ele><time>2026-05-01T11:58:43Z</time></trkpt><trkpt lat="40.83963243948273" lon="9.109177026287618"><ele>811.2</ele><time>2026-05-01T11:58:45Z</time></trkpt><trkpt lat="40.83964921495566" lon="9.109345769827238"><ele>814.8000000000001</ele><time>2026-05-01T11:58:47Z</time></trkpt><trkpt lat="40.83965279124482" lon="9.10946661007766"><ele>818.4000000000001</ele><time>2026-05-01T11:58:48Z</time></trkpt><trkpt lat="40.83967818168013" lon="9.109577333851686"><ele>822.0</ele><time>2026-05-01T11:58:49Z</time></trkpt><trkpt lat="40.839746202989204" lon="9.109672915660198"><ele>822.0</ele><time>2026-05-01T11:58:50Z</time></trkpt><trkpt lat="40.83982684052936" lon="9.109741185978738"><ele>822.0</ele><time>2026-05-01T11:58:51Z</time></trkpt><trkpt lat="40.83991247343607" lon="9.109790254010901"><ele>822.0</ele><time>2026-05-01T11:58:52Z</time></trkpt><trkpt lat="40.839998001143094" lon="9.10983336206525"><ele>822.0</ele><time>2026-05-01T11:58:53Z</time></trkpt><trkpt lat="40.840082472906495" lon="9.109922501221849"><ele>822.0</ele><time>2026-05-01T11:58:54Z</time></trkpt><trkpt lat="40.840185222256" lon="9.11000620020576"><ele>823.0</ele><time>2026-05-01T11:58:55Z</time></trkpt><trkpt lat="40.84026892781855" lon="9.110125119095194"><ele>824.0</ele><time>2026-05-01T11:58:56Z</time></trkpt><trkpt lat="40.84035192533608" lon="9.110254558792493"><ele>825.0</ele><time>2026-05-01T11:58:57Z</time></trkpt><trkpt lat="40.840434496454584" lon="9.110373384504856"><ele>826.0</ele><time>2026-05-01T11:58:58Z</time></trkpt><trkpt lat="40.84052548728837" lon="9.110499402316224"><ele>826.0</ele><time>2026-05-01T11:58:59Z</time></trkpt><trkpt lat="40.84064382576658" lon="9.110630282982935"><ele>826.0</ele><time>2026-05-01T11:59:00Z</time></trkpt><trkpt lat="40.840762457460485" lon="9.110756172360048"><ele>826.0</ele><time>2026-05-01T11:59:01Z</time></trkpt><trkpt lat="40.840878251747" lon="9.110878549480027"><ele>827.5999999999999</ele><time>2026-05-01T11:59:02Z</time></trkpt><trkpt lat="40.84096359511024" lon="9.11096825002155"><ele>829.2</ele><time>2026-05-01T11:59:03Z</time></trkpt><trkpt lat="40.84103035312196" lon="9.11105418207529"><ele>830.8</ele><time>2026-05-01T11:59:04Z</time></trkpt><trkpt lat="40.841068384363005" lon="9.111166741085565"><ele>832.4000000000001</ele><time>2026-05-01T11:59:04.999Z</time></trkpt><trkpt lat="40.84110299008633" lon="9.111286784538905"><ele>834.0</ele><time>2026-05-01T11:59:05.999Z</time></trkpt><trkpt lat="40.841138433421165" lon="9.111393941802753"><ele>834.0</ele><time>2026-05-01T11:59:06.999Z</time></trkpt><trkpt lat="40.84117641557427" lon="9.111514552984877"><ele>834.0</ele><time>2026-05-01T11:59:07.999Z</time></trkpt><trkpt lat="40.84121521467063" lon="9.111646390836738"><ele>834.0</ele><time>2026-05-01T11:59:08.999Z</time></trkpt><trkpt lat="40.84124988209293" lon="9.111795696376173"><ele>834.0</ele><time>2026-05-01T11:59:09.999Z</time></trkpt><trkpt lat="40.841279099329796" lon="9.111960039779543"><ele>839.0</ele><time>2026-05-01T11:59:10.999Z</time></trkpt><trkpt lat="40.841300779632256" lon="9.112111341711543"><ele>844.0</ele><time>2026-05-01T11:59:11.999Z</time></trkpt><trkpt lat="40.84131748220126" lon="9.1122737911327"><ele>849.0</ele><time>2026-05-01T11:59:12.999Z</time></trkpt><trkpt lat="40.84132204324351" lon="9.112464975065148"><ele>854.0</ele><time>2026-05-01T11:59:13.999Z</time></trkpt><trkpt lat="40.8413220432519" lon="9.112665812892205"><ele>858.0</ele><time>2026-05-01T11:59:14.999Z</time></trkpt><trkpt lat="40.84132565478016" lon="9.112829797053896"><ele>862.0</ele><time>2026-05-01T11:59:15.999Z</time></trkpt><trkpt lat="40.8413709054097" lon="9.112988136947477"><ele>866.0</ele><time>2026-05-01T11:59:16.999Z</time></trkpt><trkpt lat="40.84139266143874" lon="9.11318505902521"><ele>870.0</ele><time>2026-05-01T11:59:17.999Z</time></trkpt><trkpt lat="40.841418638372254" lon="9.113365318084997"><ele>871.3333333333334</ele><time>2026-05-01T11:59:18.999Z</time></trkpt><trkpt lat="40.84142426486043" lon="9.113501735612004"><ele>872.6666666666667</ele><time>2026-05-01T11:59:19.999Z</time></trkpt><trkpt lat="40.841418589562494" lon="9.113588772452614"><ele>874.0</ele><time>2026-05-01T11:59:20.999Z</time></trkpt><trkpt lat="40.84140197768835" lon="9.113674200188015"><ele>875.3333333333334</ele><time>2026-05-01T11:59:22.999Z</time></trkpt><trkpt lat="40.84138252350498" lon="9.113756179589126"><ele>876.6666666666667</ele><time>2026-05-01T12:01:17.999Z</time></trkpt><trkpt lat="40.841368089371215" lon="9.113865154199958"><ele>878.0</ele><time>2026-05-01T12:01:20.999Z</time></trkpt><trkpt lat="40.84138311992039" lon="9.11376145096492"><ele>878.0</ele><time>2026-05-01T12:01:40.999Z</time></trkpt><trkpt lat="40.84141181782342" lon="9.113617380335803"><ele>878.0</ele><time>2026-05-01T12:01:42.999Z</time></trkpt><trkpt lat="40.841421862223534" lon="9.113512343345711"><ele>878.0</ele><time>2026-05-01T12:01:44.999Z</time></trkpt><trkpt lat="40.84141803537421" lon="9.113359027103952"><ele>878.0</ele><time>2026-05-01T12:01:46.999Z</time></trkpt><trkpt lat="40.84140571580913" lon="9.113264580374214"><ele>878.0</ele><time>2026-05-01T12:01:47.999Z</time></trkpt><trkpt lat="40.841389795058845" lon="9.113167600131685"><ele>876.6666666666667</ele><time>2026-05-01T12:01:48.999Z</time></trkpt><trkpt lat="40.84137395021083" lon="9.11307893920373"><ele>875.3333333333334</ele><time>2026-05-01T12:01:49.999Z</time></trkpt><trkpt lat="40.841365556825465" lon="9.112977216790652"><ele>874.0</ele><time>2026-05-01T12:01:50.999Z</time></trkpt><trkpt lat="40.841330231771515" lon="9.112867819993763"><ele>872.6666666666667</ele><time>2026-05-01T12:01:51.999Z</time></trkpt><trkpt lat="40.84131757807729" lon="9.112750566984253"><ele>871.3333333333334</ele><time>2026-05-01T12:01:52.999Z</time></trkpt><trkpt lat="40.84133766312224" lon="9.112629402556713"><ele>870.0</ele><time>2026-05-01T12:01:53.999Z</time></trkpt><trkpt lat="40.84133762063121" lon="9.112509487477592"><ele>866.8</ele><time>2026-05-01T12:01:54.999Z</time></trkpt><trkpt lat="40.841335865974045" lon="9.112387539614948"><ele>863.6</ele><time>2026-05-01T12:01:55.999Z</time></trkpt><trkpt lat="40.84133317454343" lon="9.112263160405304"><ele>860.4000000000001</ele><time>2026-05-01T12:01:56.999Z</time></trkpt><trkpt lat="40.84132812786036" lon="9.112136737329937"><ele>857.2</ele><time>2026-05-01T12:01:57.999Z</time></trkpt><trkpt lat="40.8412911084503" lon="9.112020684643328"><ele>854.0</ele><time>2026-05-01T12:01:58.999Z</time></trkpt><trkpt lat="40.84126704854802" lon="9.111874364930543"><ele>854.0</ele><time>2026-05-01T12:01:59.999Z</time></trkpt><trkpt lat="40.84125118189357" lon="9.11171950301044"><ele>854.0000000000001</ele><time>2026-05-01T12:02:00.999Z</time></trkpt><trkpt lat="40.84120838479528" lon="9.111578469156612"><ele>854.0000000000001</ele><time>2026-05-01T12:02:01.999Z</time></trkpt><trkpt lat="40.841173004900945" lon="9.1114481544527"><ele>854.0</ele><time>2026-05-01T12:02:02.999Z</time></trkpt><trkpt lat="40.84113460360848" lon="9.111328992601308"><ele>854.0</ele><time>2026-05-01T12:02:03.999Z</time></trkpt><trkpt lat="40.841097389592484" lon="9.111225325579994"><ele>852.4000000000001</ele><time>2026-05-01T12:02:04.999Z</time></trkpt><trkpt lat="40.841062604555106" lon="9.111135252128902"><ele>850.8000000000001</ele><time>2026-05-01T12:02:05.999Z</time></trkpt><trkpt lat="40.84102121607429" lon="9.111048115989712"><ele>849.2</ele><time>2026-05-01T12:02:06.999Z</time></trkpt><trkpt lat="40.84096986501216" lon="9.110939244531355"><ele>847.5999999999999</ele><time>2026-05-01T12:02:07.999Z</time></trkpt><trkpt lat="40.840906719212256" lon="9.110825540786244"><ele>846.0</ele><time>2026-05-01T12:02:08.999Z</time></trkpt><trkpt lat="40.840760536597216" lon="9.110761432331659"><ele>841.0</ele><time>2026-05-01T12:02:09.999Z</time></trkpt><trkpt lat="40.84066280312734" lon="9.110652124622803"><ele>836.0</ele><time>2026-05-01T12:02:10.999Z</time></trkpt><trkpt lat="40.84056600023636" lon="9.110550865991447"><ele>831.0</ele><time>2026-05-01T12:02:11.999Z</time></trkpt><trkpt lat="40.8404977207311" lon="9.110412717093235"><ele>826.0</ele><time>2026-05-01T12:02:12.999Z</time></trkpt><trkpt lat="40.84042104824433" lon="9.110309186887681"><ele>826.0</ele><time>2026-05-01T12:02:13.999Z</time></trkpt><trkpt lat="40.84035257083321" lon="9.110207991604208"><ele>826.0</ele><time>2026-05-01T12:02:14.999Z</time></trkpt><trkpt lat="40.84029247956351" lon="9.110111818026317"><ele>826.0</ele><time>2026-05-01T12:02:15.999Z</time></trkpt><trkpt lat="40.840220253913195" lon="9.10999806635457"><ele>826.0</ele><time>2026-05-01T12:02:16.999Z</time></trkpt><trkpt lat="40.84013064556816" lon="9.109910105973762"><ele>826.0</ele><time>2026-05-01T12:02:17.999Z</time></trkpt><trkpt lat="40.84003612184551" lon="9.10982946189941"><ele>825.1999999999999</ele><time>2026-05-01T12:02:18.999Z</time></trkpt><trkpt lat="40.839937596109976" lon="9.10975047795587"><ele>824.4</ele><time>2026-05-01T12:02:19.999Z</time></trkpt><trkpt lat="40.83984298973384" lon="9.109683697223815"><ele>823.6</ele><time>2026-05-01T12:02:20.999Z</time></trkpt><trkpt lat="40.83976630257939" lon="9.109623068162785"><ele>822.8</ele><time>2026-05-01T12:02:21.999Z</time></trkpt><trkpt lat="40.83970722647321" lon="9.109534631377747"><ele>822.0</ele><time>2026-05-01T12:02:22.999Z</time></trkpt><trkpt lat="40.839679231122545" lon="9.109443829832186"><ele>822.0</ele><time>2026-05-01T12:02:23.999Z</time></trkpt><trkpt lat="40.839664440458655" lon="9.1093363647433"><ele>822.0</ele><time>2026-05-01T12:02:24.999Z</time></trkpt><trkpt lat="40.839671641843545" lon="9.109219298276495"><ele>822.0</ele><time>2026-05-01T12:02:25.999Z</time></trkpt><trkpt lat="40.83963545929596" lon="9.109106361302477"><ele>822.0</ele><time>2026-05-01T12:02:26.999Z</time></trkpt><trkpt lat="40.83959932046015" lon="9.10902544131278"><ele>822.0</ele><time>2026-05-01T12:02:27.999Z</time></trkpt><trkpt lat="40.83953497651253" lon="9.108930533786669"><ele>822.0</ele><time>2026-05-01T12:02:28.999Z</time></trkpt><trkpt lat="40.839475135762896" lon="9.108826947236047"><ele>821.0</ele><time>2026-05-01T12:02:29.999Z</time></trkpt><trkpt lat="40.83942351733764" lon="9.108726046996695"><ele>820.0</ele><time>2026-05-01T12:02:30.999Z</time></trkpt><trkpt lat="40.83939006356204" lon="9.108612796510629"><ele>819.0</ele><time>2026-05-01T12:02:31.999Z</time></trkpt><trkpt lat="40.83934768197833" lon="9.10847584821923"><ele>818.0</ele><time>2026-05-01T12:02:32.999Z</time></trkpt><trkpt lat="40.83930396869856" lon="9.108328633898845"><ele>817.0</ele><time>2026-05-01T12:02:33.999Z</time></trkpt><trkpt lat="40.83924959805849" lon="9.108195823132615"><ele>817.0</ele><time>2026-05-01T12:02:34.999Z</time></trkpt><trkpt lat="40.83922771676806" lon="9.108060855173106"><ele>817.0</ele><time>2026-05-01T12:02:35.999Z</time></trkpt><trkpt lat="40.83919482494689" lon="9.107930223053941"><ele>817.0</ele><time>2026-05-01T12:02:36.999Z</time></trkpt><trkpt lat="40.839164558914185" lon="9.107813976441578"><ele>817.0</ele><time>2026-05-01T12:02:37.999Z</time></trkpt><trkpt lat="40.83911448794278" lon="9.107720260985175"><ele>817.0</ele><time>2026-05-01T12:02:38.999Z</time></trkpt><trkpt lat="40.83910750573389" lon="9.107635306126546"><ele>816.9999999999999</ele><time>2026-05-01T12:02:39.999Z</time></trkpt><trkpt lat="40.83908827234886" lon="9.107506879032949"><ele>817.0</ele><time>2026-05-01T12:02:41.999Z</time></trkpt><trkpt lat="40.839156391004195" lon="9.107469085059869"><ele>817.0</ele><time>2026-05-01T12:02:43.999Z</time></trkpt><trkpt lat="40.83923913174775" lon="9.107502090784003"><ele>817.0</ele><time>2026-05-01T12:02:45.999Z</time></trkpt><trkpt lat="40.83929706067517" lon="9.107555044605075"><ele>816.9999999999999</ele><time>2026-05-01T12:02:46.999Z</time></trkpt><trkpt lat="40.83936164620704" lon="9.107643788467934"><ele>817.0</ele><time>2026-05-01T12:02:47.999Z</time></trkpt><trkpt lat="40.83942926467959" lon="9.107738141555025"><ele>809.75</ele><time>2026-05-01T12:02:48.999Z</time></trkpt><trkpt lat="40.83950671705392" lon="9.107852178084343"><ele>802.5</ele><time>2026-05-01T12:02:49.999Z</time></trkpt><trkpt lat="40.83958681168135" lon="9.107972305497395"><ele>795.25</ele><time>2026-05-01T12:02:50.999Z</time></trkpt><trkpt lat="40.839671079909195" lon="9.108092004719868"><ele>788.0</ele><time>2026-05-01T12:02:51.999Z</time></trkpt><trkpt lat="40.83976771757356" lon="9.108206306060612"><ele>789.0</ele><time>2026-05-01T12:02:52.999Z</time></trkpt><trkpt lat="40.83986932596515" lon="9.108310086332164"><ele>790.0</ele><time>2026-05-01T12:02:53.999Z</time></trkpt><trkpt lat="40.83996110282811" lon="9.108400599703705"><ele>791.0</ele><time>2026-05-01T12:02:54.999Z</time></trkpt><trkpt lat="40.84004404245181" lon="9.108471916006941"><ele>792.0</ele><time>2026-05-01T12:02:55.999Z</time></trkpt><trkpt lat="40.84011610246801" lon="9.108520922554602"><ele>793.0</ele><time>2026-05-01T12:02:56.999Z</time></trkpt><trkpt lat="40.84018976254257" lon="9.108548014910358"><ele>793.0</ele><time>2026-05-01T12:02:57.999Z</time></trkpt><trkpt lat="40.84029045000467" lon="9.108545064891558"><ele>793.0</ele><time>2026-05-01T12:02:59.999Z</time></trkpt><trkpt lat="40.840350619923356" lon="9.10844773783382"><ele>793.0</ele><time>2026-05-01T12:03:01.999Z</time></trkpt><trkpt lat="40.840337036075255" lon="9.108308983821003"><ele>793.0</ele><time>2026-05-01T12:03:03.999Z</time></trkpt><trkpt lat="40.84029808210477" lon="9.108233156990922"><ele>793.0</ele><time>2026-05-01T12:03:04.999Z</time></trkpt><trkpt lat="40.84027530337714" lon="9.108121317824008"><ele>792.0</ele><time>2026-05-01T12:03:05.999Z</time></trkpt><trkpt lat="40.84022472632279" lon="9.108011284294886"><ele>791.0</ele><time>2026-05-01T12:03:06.999Z</time></trkpt><trkpt lat="40.84019453331527" lon="9.107880022333294"><ele>790.0</ele><time>2026-05-01T12:03:07.999Z</time></trkpt><trkpt lat="40.84015277456694" lon="9.10774800997021"><ele>789.0</ele><time>2026-05-01T12:03:08.999Z</time></trkpt><trkpt lat="40.84011373663032" lon="9.107634206663763"><ele>788.0</ele><time>2026-05-01T12:03:09.999Z</time></trkpt><trkpt lat="40.84007216809354" lon="9.107524926212726"><ele>788.0</ele><time>2026-05-01T12:03:10.999Z</time></trkpt><trkpt lat="40.8400309184127" lon="9.107413015131042"><ele>788.0</ele><time>2026-05-01T12:03:11.999Z</time></trkpt><trkpt lat="40.840006290753074" lon="9.107277586048834"><ele>788.0</ele><time>2026-05-01T12:03:12.999Z</time></trkpt><trkpt lat="40.839972426110705" lon="9.10716224739123"><ele>788.0</ele><time>2026-05-01T12:03:13.999Z</time></trkpt><trkpt lat="40.83993605458892" lon="9.107058728731984"><ele>788.0</ele><time>2026-05-01T12:03:14.999Z</time></trkpt><trkpt lat="40.83990897609228" lon="9.106971142398947"><ele>785.6666666666667</ele><time>2026-05-01T12:03:15.999Z</time></trkpt><trkpt lat="40.839895426175644" lon="9.10683080459397"><ele>783.3333333333334</ele><time>2026-05-01T12:03:17.999Z</time></trkpt><trkpt lat="40.83994969303635" lon="9.106777553969232"><ele>781.0</ele><time>2026-05-01T12:03:18.999Z</time></trkpt><trkpt lat="40.840019360582644" lon="9.106762812937594"><ele>778.6666666666667</ele><time>2026-05-01T12:03:19.999Z</time></trkpt><trkpt lat="40.84009881072266" lon="9.106790586965854"><ele>776.3333333333334</ele><time>2026-05-01T12:03:20.999Z</time></trkpt><trkpt lat="40.84019013068086" lon="9.106846611645816"><ele>774.0</ele><time>2026-05-01T12:03:21.999Z</time></trkpt><trkpt lat="40.840309314341226" lon="9.106913462122456"><ele>770.4000000000001</ele><time>2026-05-01T12:03:22.999Z</time></trkpt><trkpt lat="40.84042327691655" lon="9.106975295808875"><ele>766.8</ele><time>2026-05-01T12:03:23.999Z</time></trkpt><trkpt lat="40.84051410219008" lon="9.107004412825175"><ele>763.2</ele><time>2026-05-01T12:03:24.999Z</time></trkpt><trkpt lat="40.84060603080202" lon="9.107026465329245"><ele>759.5999999999999</ele><time>2026-05-01T12:03:25.999Z</time></trkpt><trkpt lat="40.840704309961154" lon="9.107051546778147"><ele>756.0</ele><time>2026-05-01T12:03:26.999Z</time></trkpt><trkpt lat="40.84078309697264" lon="9.107060738571406"><ele>756.0</ele><time>2026-05-01T12:03:27.999Z</time></trkpt><trkpt lat="40.84089055683702" lon="9.10703100890858"><ele>756.0</ele><time>2026-05-01T12:03:29.999Z</time></trkpt><trkpt lat="40.84090215382438" lon="9.106901940844521"><ele>756.0</ele><time>2026-05-01T12:03:31.999Z</time></trkpt><trkpt lat="40.84089844204992" lon="9.10680799764892"><ele>756.0</ele><time>2026-05-01T12:03:32.999Z</time></trkpt><trkpt lat="40.84081638694401" lon="9.106726233332015"><ele>756.0</ele><time>2026-05-01T12:03:33.999Z</time></trkpt><trkpt lat="40.84074694247791" lon="9.106606214579518"><ele>751.75</ele><time>2026-05-01T12:03:34.999Z</time></trkpt><trkpt lat="40.84064400213658" lon="9.106480347043572"><ele>747.5</ele><time>2026-05-01T12:03:35.999Z</time></trkpt><trkpt lat="40.84054956813415" lon="9.106367864247254"><ele>743.25</ele><time>2026-05-01T12:03:36.999Z</time></trkpt><trkpt lat="40.840466042888515" lon="9.106265362068186"><ele>739.0</ele><time>2026-05-01T12:03:37.999Z</time></trkpt><trkpt lat="40.8403902790993" lon="9.106166733446525"><ele>739.0</ele><time>2026-05-01T12:03:38.999Z</time></trkpt><trkpt lat="40.84032502230388" lon="9.106067655751097"><ele>739.0</ele><time>2026-05-01T12:03:39.999Z</time></trkpt><trkpt lat="40.84027831170565" lon="9.105973059477828"><ele>739.0</ele><time>2026-05-01T12:03:40.999Z</time></trkpt><trkpt lat="40.840225230032594" lon="9.10583994477618"><ele>739.0</ele><time>2026-05-01T12:03:42.999Z</time></trkpt><trkpt lat="40.840234705486594" lon="9.105753407681926"><ele>739.0</ele><time>2026-05-01T12:03:44.999Z</time></trkpt><trkpt lat="40.84030015546515" lon="9.105746511939444"><ele>739.0</ele><time>2026-05-01T12:03:45.999Z</time></trkpt><trkpt lat="40.84035927767169" lon="9.105780256487442"><ele>739.0</ele><time>2026-05-01T12:03:46.999Z</time></trkpt><trkpt lat="40.84039332208682" lon="9.1058574686664"><ele>739.0</ele><time>2026-05-01T12:03:47.999Z</time></trkpt><trkpt lat="40.84045123962241" lon="9.105915630821698"><ele>739.0</ele><time>2026-05-01T12:03:48.999Z</time></trkpt><trkpt lat="40.84052415516763" lon="9.105987680997243"><ele>739.0</ele><time>2026-05-01T12:03:49.999Z</time></trkpt><trkpt lat="40.84063535767767" lon="9.106034751201365"><ele>739.0</ele><time>2026-05-01T12:03:50.999Z</time></trkpt><trkpt lat="40.840773748495934" lon="9.106072090995118"><ele>739.0</ele><time>2026-05-01T12:03:51.999Z</time></trkpt><trkpt lat="40.84091401346384" lon="9.10608514946661"><ele>739.0</ele><time>2026-05-01T12:03:52.999Z</time></trkpt><trkpt lat="40.84102976404874" lon="9.106129552649497"><ele>739.0</ele><time>2026-05-01T12:03:53.999Z</time></trkpt><trkpt lat="40.84112772425451" lon="9.10616496424459"><ele>739.0</ele><time>2026-05-01T12:03:54.999Z</time></trkpt><trkpt lat="40.8412212404464" lon="9.10619266305724"><ele>735.0</ele><time>2026-05-01T12:03:55.999Z</time></trkpt><trkpt lat="40.841320744210414" lon="9.106226832669782"><ele>731.0</ele><time>2026-05-01T12:03:56.999Z</time></trkpt><trkpt lat="40.84139941951971" lon="9.106238417078222"><ele>727.0</ele><time>2026-05-01T12:03:57.999Z</time></trkpt><trkpt lat="40.841482298027294" lon="9.106217604497362"><ele>723.0</ele><time>2026-05-01T12:03:59.999Z</time></trkpt><trkpt lat="40.84149432243392" lon="9.106118620152483"><ele>719.0</ele><time>2026-05-01T12:04:01.999Z</time></trkpt><trkpt lat="40.841419131188005" lon="9.10594856168816"><ele>719.0</ele><time>2026-05-01T12:04:03.999Z</time></trkpt><trkpt lat="40.84136964173896" lon="9.10583835297485"><ele>719.0</ele><time>2026-05-01T12:04:04.999Z</time></trkpt><trkpt lat="40.841313096279734" lon="9.105769097078555"><ele>719.0</ele><time>2026-05-01T12:04:06Z</time></trkpt><trkpt lat="40.84126474958279" lon="9.105701181442578"><ele>719.0</ele><time>2026-05-01T12:04:07Z</time></trkpt><trkpt lat="40.84122356083068" lon="9.105637146967807"><ele>719.0</ele><time>2026-05-01T12:04:08Z</time></trkpt><trkpt lat="40.84114442356957" lon="9.105501534013245"><ele>719.0</ele><time>2026-05-01T12:04:10Z</time></trkpt><trkpt lat="40.84107258318775" lon="9.105431150032468"><ele>718.4000000000001</ele><time>2026-05-01T12:04:11Z</time></trkpt><trkpt lat="40.84099682808312" lon="9.10537773205611"><ele>717.8</ele><time>2026-05-01T12:04:12Z</time></trkpt><trkpt lat="40.840913493655776" lon="9.105300876839472"><ele>717.2</ele><time>2026-05-01T12:04:13Z</time></trkpt><trkpt lat="40.840834419283816" lon="9.105228173974066"><ele>716.5999999999999</ele><time>2026-05-01T12:04:14Z</time></trkpt><trkpt lat="40.84075456921465" lon="9.105154279517617"><ele>716.0</ele><time>2026-05-01T12:04:15Z</time></trkpt><trkpt lat="40.84066991013015" lon="9.105070816701664"><ele>716.0</ele><time>2026-05-01T12:04:16Z</time></trkpt><trkpt lat="40.84058916695547" lon="9.10498401769497"><ele>716.0</ele><time>2026-05-01T12:04:17Z</time></trkpt><trkpt lat="40.84051458001874" lon="9.104893485996842"><ele>716.0</ele><time>2026-05-01T12:04:18Z</time></trkpt><trkpt lat="40.84045370865974" lon="9.10479755103247"><ele>716.0</ele><time>2026-05-01T12:04:19Z</time></trkpt><trkpt lat="40.84040121220026" lon="9.104713955306446"><ele>716.0</ele><time>2026-05-01T12:04:20Z</time></trkpt><trkpt lat="40.840360670922706" lon="9.104620728028813"><ele>712.0</ele><time>2026-05-01T12:04:22Z</time></trkpt><trkpt lat="40.84045468247199" lon="9.10464643984979"><ele>708.0</ele><time>2026-05-01T12:04:26Z</time></trkpt><trkpt lat="40.840562373797724" lon="9.104741724369275"><ele>704.0</ele><time>2026-05-01T12:04:28Z</time></trkpt><trkpt lat="40.8406339466133" lon="9.104794920423652"><ele>700.0</ele><time>2026-05-01T12:04:29Z</time></trkpt><trkpt lat="40.840727860150395" lon="9.104839792377637"><ele>696.0</ele><time>2026-05-01T12:04:30Z</time></trkpt><trkpt lat="40.840822885237564" lon="9.104883766267536"><ele>696.0</ele><time>2026-05-01T12:04:31Z</time></trkpt><trkpt lat="40.840901456674395" lon="9.104934679753663"><ele>696.0</ele><time>2026-05-01T12:04:32Z</time></trkpt><trkpt lat="40.84096670035515" lon="9.104974538693682"><ele>696.0</ele><time>2026-05-01T12:04:33Z</time></trkpt><trkpt lat="40.84105743999386" lon="9.104975122538342"><ele>696.0</ele><time>2026-05-01T12:04:35Z</time></trkpt><trkpt lat="40.84107557871594" lon="9.104886341994623"><ele>696.0</ele><time>2026-05-01T12:04:37Z</time></trkpt><trkpt lat="40.84103364330892" lon="9.104810522251663"><ele>696.0</ele><time>2026-05-01T12:04:39Z</time></trkpt><trkpt lat="40.84094752147692" lon="9.104704808319177"><ele>696.0</ele><time>2026-05-01T12:04:41Z</time></trkpt><trkpt lat="40.8408777892532" lon="9.10462146305299"><ele>696.0</ele><time>2026-05-01T12:04:42Z</time></trkpt><trkpt lat="40.84079929767677" lon="9.104508792349582"><ele>696.0</ele><time>2026-05-01T12:04:43Z</time></trkpt><trkpt lat="40.84071113555407" lon="9.104401558663989"><ele>696.0</ele><time>2026-05-01T12:04:44Z</time></trkpt><trkpt lat="40.84062209658672" lon="9.104330556157247"><ele>696.0</ele><time>2026-05-01T12:04:45Z</time></trkpt><trkpt lat="40.84055785285976" lon="9.104238088530948"><ele>696.0</ele><time>2026-05-01T12:04:46Z</time></trkpt><trkpt lat="40.840492642844964" lon="9.104160019798691"><ele>696.0</ele><time>2026-05-01T12:04:47Z</time></trkpt><trkpt lat="40.84044546929272" lon="9.10410107457527"><ele>696.0</ele><time>2026-05-01T12:04:48Z</time></trkpt><trkpt lat="40.840397248897276" lon="9.104017516599274"><ele>696.0</ele><time>2026-05-01T12:04:50Z</time></trkpt><trkpt lat="40.84047371846841" lon="9.103960792870526"><ele>696.0</ele><time>2026-05-01T12:04:52.999Z</time></trkpt><trkpt lat="40.84052454124525" lon="9.104026687335748"><ele>696.0</ele><time>2026-05-01T12:04:53.999Z</time></trkpt><trkpt lat="40.840601493591514" lon="9.104051398676464"><ele>696.0</ele><time>2026-05-01T12:04:54.999Z</time></trkpt><trkpt lat="40.84069451855636" lon="9.104122734353554"><ele>696.0</ele><time>2026-05-01T12:04:55.999Z</time></trkpt><trkpt lat="40.840794098641695" lon="9.104173594821985"><ele>696.0</ele><time>2026-05-01T12:04:56.999Z</time></trkpt><trkpt lat="40.840887437185906" lon="9.104212194821871"><ele>696.0</ele><time>2026-05-01T12:04:57.999Z</time></trkpt><trkpt lat="40.84097237116483" lon="9.104255979881229"><ele>696.0</ele><time>2026-05-01T12:04:58.999Z</time></trkpt><trkpt lat="40.84104592643764" lon="9.10427091074892"><ele>695.1999999999999</ele><time>2026-05-01T12:04:59.999Z</time></trkpt><trkpt lat="40.841128065794784" lon="9.104245256267765"><ele>694.4</ele><time>2026-05-01T12:05:00.999Z</time></trkpt><trkpt lat="40.841222566247126" lon="9.104187294583387"><ele>693.6</ele><time>2026-05-01T12:05:01.999Z</time></trkpt><trkpt lat="40.84132856393153" lon="9.104120792469493"><ele>692.8</ele><time>2026-05-01T12:05:02.999Z</time></trkpt><trkpt lat="40.8414461582253" lon="9.104047020968547"><ele>692.0</ele><time>2026-05-01T12:05:03.999Z</time></trkpt><trkpt lat="40.84154842607331" lon="9.103981075047994"><ele>688.25</ele><time>2026-05-01T12:05:04.999Z</time></trkpt><trkpt lat="40.84165406485326" lon="9.103912086574548"><ele>684.5</ele><time>2026-05-01T12:05:05.999Z</time></trkpt><trkpt lat="40.84176116250066" lon="9.103848496576903"><ele>680.75</ele><time>2026-05-01T12:05:06.999Z</time></trkpt><trkpt lat="40.84187133865258" lon="9.103789470039422"><ele>677.0</ele><time>2026-05-01T12:05:07.999Z</time></trkpt><trkpt lat="40.8419797080944" lon="9.103730598701656"><ele>677.0</ele><time>2026-05-01T12:05:08.999Z</time></trkpt><trkpt lat="40.842083277219444" lon="9.103673491673993"><ele>677.0</ele><time>2026-05-01T12:05:09.999Z</time></trkpt><trkpt lat="40.84218126420983" lon="9.103616048932167"><ele>677.0</ele><time>2026-05-01T12:05:10.999Z</time></trkpt><trkpt lat="40.84227609987294" lon="9.103559794841036"><ele>677.0</ele><time>2026-05-01T12:05:11.999Z</time></trkpt><trkpt lat="40.842364583426736" lon="9.103498942662052"><ele>677.0</ele><time>2026-05-01T12:05:12.999Z</time></trkpt><trkpt lat="40.84245280785413" lon="9.103444595435892"><ele>677.0</ele><time>2026-05-01T12:05:13.999Z</time></trkpt><trkpt lat="40.84253633572199" lon="9.103392351475543"><ele>677.0</ele><time>2026-05-01T12:05:14.999Z</time></trkpt><trkpt lat="40.84260668239261" lon="9.103341836132218"><ele>677.0</ele><time>2026-05-01T12:05:15.999Z</time></trkpt><trkpt lat="40.84267453070894" lon="9.103300303556315"><ele>677.0</ele><time>2026-05-01T12:05:16.999Z</time></trkpt><trkpt lat="40.8427609441714" lon="9.103240532725325"><ele>677.0</ele><time>2026-05-01T12:05:18.999Z</time></trkpt><trkpt lat="40.84273364587995" lon="9.10315755710432"><ele>677.0</ele><time>2026-05-01T12:05:20.999Z</time></trkpt><trkpt lat="40.84267438276323" lon="9.103066412900382"><ele>677.0</ele><time>2026-05-01T12:05:34.999Z</time></trkpt><trkpt lat="40.84267766650745" lon="9.102981227064173"><ele>677.0</ele><time>2026-05-01T12:05:36.999Z</time></trkpt><trkpt lat="40.84266003550577" lon="9.102893986063252"><ele>677.0</ele><time>2026-05-01T12:05:38.999Z</time></trkpt><trkpt lat="40.84265968700422" lon="9.102778133476603"><ele>677.0</ele><time>2026-05-01T12:05:40.999Z</time></trkpt><trkpt lat="40.842624455538015" lon="9.102608822191655"><ele>677.0</ele><time>2026-05-01T12:05:42.999Z</time></trkpt><trkpt lat="40.84258961200675" lon="9.102516084075347"><ele>677.0</ele><time>2026-05-01T12:05:43.999Z</time></trkpt><trkpt lat="40.84254532076239" lon="9.10241606393076"><ele>679.4000000000001</ele><time>2026-05-01T12:05:44.999Z</time></trkpt><trkpt lat="40.84248950622082" lon="9.10231910615535"><ele>681.8000000000001</ele><time>2026-05-01T12:05:45.999Z</time></trkpt><trkpt lat="40.8424642152653" lon="9.102225896712405"><ele>684.2</ele><time>2026-05-01T12:05:46.999Z</time></trkpt><trkpt lat="40.84250124228141" lon="9.102156565609114"><ele>686.6</ele><time>2026-05-01T12:05:47.999Z</time></trkpt><trkpt lat="40.84262779180935" lon="9.102199292889845"><ele>689.0</ele><time>2026-05-01T12:05:49.999Z</time></trkpt><trkpt lat="40.84269665043495" lon="9.102333455310253"><ele>689.0</ele><time>2026-05-01T12:05:50.999Z</time></trkpt><trkpt lat="40.84275781673303" lon="9.102411040410347"><ele>689.0</ele><time>2026-05-01T12:05:51.999Z</time></trkpt><trkpt lat="40.84285729884017" lon="9.102461365991086"><ele>689.0</ele><time>2026-05-01T12:05:52.999Z</time></trkpt><trkpt lat="40.84298027652449" lon="9.10248119269425"><ele>689.0</ele><time>2026-05-01T12:05:53.999Z</time></trkpt><trkpt lat="40.843109566315285" lon="9.10246961757531"><ele>689.0</ele><time>2026-05-01T12:05:54.999Z</time></trkpt><trkpt lat="40.843235324705454" lon="9.102431891037563"><ele>694.4000000000001</ele><time>2026-05-01T12:05:55.999Z</time></trkpt><trkpt lat="40.84335437177503" lon="9.102392492725922"><ele>699.8</ele><time>2026-05-01T12:05:56.999Z</time></trkpt><trkpt lat="40.84346548526598" lon="9.102353016288427"><ele>705.2</ele><time>2026-05-01T12:05:57.999Z</time></trkpt><trkpt lat="40.84353055166026" lon="9.102312088428635"><ele>710.5999999999999</ele><time>2026-05-01T12:05:58.999Z</time></trkpt><trkpt lat="40.843552435336875" lon="9.102155611419201"><ele>716.0</ele><time>2026-05-01T12:06:01Z</time></trkpt><trkpt lat="40.84347737339094" lon="9.102070543471003"><ele>716.0</ele><time>2026-05-01T12:06:02Z</time></trkpt><trkpt lat="40.843344534405695" lon="9.102058855127291"><ele>716.0</ele><time>2026-05-01T12:06:03Z</time></trkpt><trkpt lat="40.84324029905594" lon="9.102097061328953"><ele>716.0</ele><time>2026-05-01T12:06:04Z</time></trkpt><trkpt lat="40.84316616514871" lon="9.102091016784458"><ele>716.0</ele><time>2026-05-01T12:06:05Z</time></trkpt><trkpt lat="40.8430985849866" lon="9.102022728830786"><ele>716.0</ele><time>2026-05-01T12:06:06Z</time></trkpt><trkpt lat="40.84301768547196" lon="9.101946394861969"><ele>716.0</ele><time>2026-05-01T12:06:07Z</time></trkpt><trkpt lat="40.84294083740327" lon="9.101863953417173"><ele>716.0</ele><time>2026-05-01T12:06:08Z</time></trkpt><trkpt lat="40.84287577620432" lon="9.101762286073699"><ele>716.0</ele><time>2026-05-01T12:06:09Z</time></trkpt><trkpt lat="40.84281481443391" lon="9.101651568859353"><ele>716.0</ele><time>2026-05-01T12:06:10Z</time></trkpt><trkpt lat="40.84279766862857" lon="9.10150911660127"><ele>716.0</ele><time>2026-05-01T12:06:11Z</time></trkpt><trkpt lat="40.84279274639031" lon="9.101352713049543"><ele>720.25</ele><time>2026-05-01T12:06:12Z</time></trkpt><trkpt lat="40.84279611114514" lon="9.101184282641988"><ele>724.5</ele><time>2026-05-01T12:06:13Z</time></trkpt><trkpt lat="40.84280346113691" lon="9.101003757183653"><ele>728.75</ele><time>2026-05-01T12:06:14Z</time></trkpt><trkpt lat="40.84281486658552" lon="9.100836098877707"><ele>733.0</ele><time>2026-05-01T12:06:15Z</time></trkpt><trkpt lat="40.84283466417792" lon="9.100660833391304"><ele>735.25</ele><time>2026-05-01T12:06:16Z</time></trkpt><trkpt lat="40.84286451688808" lon="9.10048453154123"><ele>737.5</ele><time>2026-05-01T12:06:17Z</time></trkpt><trkpt lat="40.842899568017565" lon="9.100311545766571"><ele>739.75</ele><time>2026-05-01T12:06:18Z</time></trkpt><trkpt lat="40.842932886636916" lon="9.100149831794216"><ele>742.0</ele><time>2026-05-01T12:06:19Z</time></trkpt><trkpt lat="40.84296125334628" lon="9.099994967070602"><ele>744.0</ele><time>2026-05-01T12:06:20Z</time></trkpt><trkpt lat="40.84296842032745" lon="9.099840418540625"><ele>746.0</ele><time>2026-05-01T12:06:21Z</time></trkpt><trkpt lat="40.84295663594014" lon="9.09968696189359"><ele>748.0</ele><time>2026-05-01T12:06:22Z</time></trkpt><trkpt lat="40.84293091578412" lon="9.099528409592642"><ele>750.0</ele><time>2026-05-01T12:06:23Z</time></trkpt><trkpt lat="40.84289994059631" lon="9.099362951965023"><ele>750.0</ele><time>2026-05-01T12:06:24Z</time></trkpt><trkpt lat="40.84287070993474" lon="9.099192291319225"><ele>750.0</ele><time>2026-05-01T12:06:25Z</time></trkpt><trkpt lat="40.84284801646116" lon="9.099020900720602"><ele>750.0</ele><time>2026-05-01T12:06:26Z</time></trkpt><trkpt lat="40.842844238509855" lon="9.09884488682968"><ele>750.0</ele><time>2026-05-01T12:06:27Z</time></trkpt><trkpt lat="40.84282668663522" lon="9.09866266660682"><ele>753.25</ele><time>2026-05-01T12:06:28Z</time></trkpt><trkpt lat="40.84280162092428" lon="9.09847249985975"><ele>756.5</ele><time>2026-05-01T12:06:29Z</time></trkpt><trkpt lat="40.84275296519205" lon="9.098304538103754"><ele>759.75</ele><time>2026-05-01T12:06:30Z</time></trkpt><trkpt lat="40.84270302413801" lon="9.098138210748075"><ele>763.0</ele><time>2026-05-01T12:06:31Z</time></trkpt><trkpt lat="40.842659562620206" lon="9.097990682584468"><ele>764.8</ele><time>2026-05-01T12:06:32Z</time></trkpt><trkpt lat="40.84266400089196" lon="9.097846257071762"><ele>766.5999999999999</ele><time>2026-05-01T12:06:33Z</time></trkpt><trkpt lat="40.84265674000047" lon="9.097714064830948"><ele>768.4000000000001</ele><time>2026-05-01T12:06:34Z</time></trkpt><trkpt lat="40.84266256936218" lon="9.097591773952404"><ele>770.2</ele><time>2026-05-01T12:06:35Z</time></trkpt><trkpt lat="40.842649089023205" lon="9.097477624391843"><ele>772.0</ele><time>2026-05-01T12:06:36Z</time></trkpt><trkpt lat="40.84263363213603" lon="9.09738828448107"><ele>767.0</ele><time>2026-05-01T12:06:37Z</time></trkpt><trkpt lat="40.842619832324374" lon="9.097275848308776"><ele>762.0</ele><time>2026-05-01T12:06:39Z</time></trkpt><trkpt lat="40.84260036547981" lon="9.097163298191601"><ele>757.0</ele><time>2026-05-01T12:06:51Z</time></trkpt><trkpt lat="40.84258228153918" lon="9.09707814687874"><ele>752.0</ele><time>2026-05-01T12:06:52Z</time></trkpt><trkpt lat="40.842561505190396" lon="9.09694882489811"><ele>747.0</ele><time>2026-05-01T12:06:53Z</time></trkpt><trkpt lat="40.84249019658391" lon="9.096825414559627"><ele>747.0</ele><time>2026-05-01T12:06:54Z</time></trkpt><trkpt lat="40.84242385648939" lon="9.096650686033863"><ele>747.0</ele><time>2026-05-01T12:06:55Z</time></trkpt><trkpt lat="40.84234466408456" lon="9.096490025454045"><ele>747.0</ele><time>2026-05-01T12:06:56Z</time></trkpt><trkpt lat="40.84225884900579" lon="9.096315929209387"><ele>752.0</ele><time>2026-05-01T12:06:57Z</time></trkpt><trkpt lat="40.8421656875322" lon="9.096126929063377"><ele>757.0</ele><time>2026-05-01T12:06:58Z</time></trkpt><trkpt lat="40.84204623249393" lon="9.09593645562844"><ele>762.0</ele><time>2026-05-01T12:06:59Z</time></trkpt><trkpt lat="40.84194773154393" lon="9.095720240527676"><ele>759.6666666666666</ele><time>2026-05-01T12:07:00Z</time></trkpt><trkpt lat="40.841852493317695" lon="9.0955195249155"><ele>757.3333333333333</ele><time>2026-05-01T12:07:01Z</time></trkpt><trkpt lat="40.841773291667614" lon="9.095356354279865"><ele>755.0</ele><time>2026-05-01T12:07:02Z</time></trkpt><trkpt lat="40.84170027603364" lon="9.095211021581756"><ele>755.0</ele><time>2026-05-01T12:07:03Z</time></trkpt><trkpt lat="40.84162845496505" lon="9.095068472154153"><ele>755.0</ele><time>2026-05-01T12:07:04Z</time></trkpt><trkpt lat="40.84156788058974" lon="9.09492205533452"><ele>755.0</ele><time>2026-05-01T12:07:05Z</time></trkpt><trkpt lat="40.84153456089016" lon="9.09474783476038"><ele>755.0</ele><time>2026-05-01T12:07:06Z</time></trkpt><trkpt lat="40.8415041144971" lon="9.094567326194298"><ele>758.3333333333333</ele><time>2026-05-01T12:07:07Z</time></trkpt><trkpt lat="40.841451423098285" lon="9.094403019348622"><ele>761.6666666666666</ele><time>2026-05-01T12:07:08Z</time></trkpt><trkpt lat="40.841357208112235" lon="9.094225939769084"><ele>765.0</ele><time>2026-05-01T12:07:09Z</time></trkpt><trkpt lat="40.841239237190834" lon="9.094015006202694"><ele>767.3333333333333</ele><time>2026-05-01T12:07:10Z</time></trkpt><trkpt lat="40.84112663508102" lon="9.093790362767548"><ele>769.6666666666666</ele><time>2026-05-01T12:07:11Z</time></trkpt><trkpt lat="40.8410353695846" lon="9.093573739180412"><ele>772.0</ele><time>2026-05-01T12:07:12Z</time></trkpt><trkpt lat="40.84097336824755" lon="9.093390258767682"><ele>770.0</ele><time>2026-05-01T12:07:13Z</time></trkpt><trkpt lat="40.84094274116613" lon="9.093227633853958"><ele>768.0</ele><time>2026-05-01T12:07:14Z</time></trkpt><trkpt lat="40.84091922700056" lon="9.093033159702529"><ele>766.0</ele><time>2026-05-01T12:07:15Z</time></trkpt><trkpt lat="40.84089377238143" lon="9.092812775749579"><ele>764.0</ele><time>2026-05-01T12:07:16Z</time></trkpt><trkpt lat="40.84084871700373" lon="9.09261777351189"><ele>764.0</ele><time>2026-05-01T12:07:17Z</time></trkpt><trkpt lat="40.84076696722923" lon="9.09243975571166"><ele>764.0</ele><time>2026-05-01T12:07:18Z</time></trkpt><trkpt lat="40.84067460723737" lon="9.09224682453034"><ele>764.0</ele><time>2026-05-01T12:07:19Z</time></trkpt><trkpt lat="40.84058000272688" lon="9.092036065943987"><ele>768.6666666666666</ele><time>2026-05-01T12:07:20Z</time></trkpt><trkpt lat="40.8404733329985" lon="9.091829120331091"><ele>773.3333333333333</ele><time>2026-05-01T12:07:20.999Z</time></trkpt><trkpt lat="40.84035972210399" lon="9.091653745616517"><ele>778.0</ele><time>2026-05-01T12:07:21.999Z</time></trkpt><trkpt lat="40.84025187969913" lon="9.091512503368422"><ele>778.0</ele><time>2026-05-01T12:07:22.999Z</time></trkpt><trkpt lat="40.840150474473" lon="9.09137699073911"><ele>778.0</ele><time>2026-05-01T12:07:23.999Z</time></trkpt><trkpt lat="40.84005198488653" lon="9.091236787775632"><ele>778.0</ele><time>2026-05-01T12:07:24.999Z</time></trkpt><trkpt lat="40.83997240839955" lon="9.0910796184685"><ele>778.0</ele><time>2026-05-01T12:07:25.999Z</time></trkpt><trkpt lat="40.839899148678946" lon="9.090904679148302"><ele>778.5</ele><time>2026-05-01T12:07:26.999Z</time></trkpt><trkpt lat="40.83981554215556" lon="9.090742088275624"><ele>779.0</ele><time>2026-05-01T12:07:27.999Z</time></trkpt><trkpt lat="40.83972581517511" lon="9.090598754660013"><ele>779.5</ele><time>2026-05-01T12:07:28.999Z</time></trkpt><trkpt lat="40.839640080204205" lon="9.090470651534263"><ele>780.0</ele><time>2026-05-01T12:07:29.999Z</time></trkpt><trkpt lat="40.839569716386535" lon="9.090333473164723"><ele>780.0</ele><time>2026-05-01T12:07:30.999Z</time></trkpt><trkpt lat="40.83951416593482" lon="9.09017632898328"><ele>780.0</ele><time>2026-05-01T12:07:31.999Z</time></trkpt><trkpt lat="40.83947105309709" lon="9.090008376159775"><ele>780.0</ele><time>2026-05-01T12:07:32.999Z</time></trkpt><trkpt lat="40.839434506052356" lon="9.089835010258485"><ele>780.0</ele><time>2026-05-01T12:07:33.999Z</time></trkpt><trkpt lat="40.83939545460978" lon="9.089664178058467"><ele>779.5</ele><time>2026-05-01T12:07:34.999Z</time></trkpt><trkpt lat="40.83935734301934" lon="9.08949460861329"><ele>779.0</ele><time>2026-05-01T12:07:35.999Z</time></trkpt><trkpt lat="40.83929537077137" lon="9.089319770541758"><ele>778.5</ele><time>2026-05-01T12:07:36.999Z</time></trkpt><trkpt lat="40.83922436876631" lon="9.08914819294815"><ele>778.0</ele><time>2026-05-01T12:07:37.999Z</time></trkpt><trkpt lat="40.83915715869899" lon="9.089007371720538"><ele>777.75</ele><time>2026-05-01T12:07:38.999Z</time></trkpt><trkpt lat="40.83907948989322" lon="9.088899448598184"><ele>777.5</ele><time>2026-05-01T12:07:39.999Z</time></trkpt><trkpt lat="40.83896909447657" lon="9.08880503916903"><ele>777.25</ele><time>2026-05-01T12:07:40.999Z</time></trkpt><trkpt lat="40.83885250739746" lon="9.088732898563872"><ele>777.0</ele><time>2026-05-01T12:07:41.999Z</time></trkpt><trkpt lat="40.838758587328826" lon="9.088667533589463"><ele>777.0</ele><time>2026-05-01T12:07:42.999Z</time></trkpt><trkpt lat="40.83869386053652" lon="9.088559478010911"><ele>777.0</ele><time>2026-05-01T12:07:43.999Z</time></trkpt><trkpt lat="40.838629574311035" lon="9.088393231908015"><ele>777.0</ele><time>2026-05-01T12:07:44.999Z</time></trkpt><trkpt lat="40.83852696882632" lon="9.088231247858824"><ele>777.0</ele><time>2026-05-01T12:07:45.999Z</time></trkpt><trkpt lat="40.83837374360495" lon="9.088094038244378"><ele>776.25</ele><time>2026-05-01T12:07:46.999Z</time></trkpt><trkpt lat="40.8382337701097" lon="9.087992164779589"><ele>775.5</ele><time>2026-05-01T12:07:47.999Z</time></trkpt><trkpt lat="40.83810209007069" lon="9.087914462303917"><ele>774.75</ele><time>2026-05-01T12:07:48.999Z</time></trkpt><trkpt lat="40.83796382745377" lon="9.087876062031524"><ele>774.0</ele><time>2026-05-01T12:07:49.999Z</time></trkpt><trkpt lat="40.83781173012354" lon="9.087852379876146"><ele>774.0</ele><time>2026-05-01T12:07:50.999Z</time></trkpt><trkpt lat="40.8376494082266" lon="9.087812691641595"><ele>774.0</ele><time>2026-05-01T12:07:51.999Z</time></trkpt><trkpt lat="40.8374928010837" lon="9.087755615503967"><ele>774.0</ele><time>2026-05-01T12:07:52.999Z</time></trkpt><trkpt lat="40.83735459479229" lon="9.087693508683873"><ele>771.5</ele><time>2026-05-01T12:07:53.999Z</time></trkpt><trkpt lat="40.83722714614214" lon="9.087616823396798"><ele>769.0</ele><time>2026-05-01T12:07:54.999Z</time></trkpt><trkpt lat="40.837108655334056" lon="9.087515599663615"><ele>766.5</ele><time>2026-05-01T12:07:55.999Z</time></trkpt><trkpt lat="40.83699600279661" lon="9.087393509601872"><ele>764.0</ele><time>2026-05-01T12:07:57Z</time></trkpt><trkpt lat="40.83689657281355" lon="9.087250581679987"><ele>764.0</ele><time>2026-05-01T12:07:58Z</time></trkpt><trkpt lat="40.836802894452944" lon="9.087100008530037"><ele>764.0</ele><time>2026-05-01T12:07:59Z</time></trkpt><trkpt lat="40.83670811541945" lon="9.08697299181053"><ele>764.0</ele><time>2026-05-01T12:08:00Z</time></trkpt><trkpt lat="40.836608047480695" lon="9.086879825371069"><ele>764.0</ele><time>2026-05-01T12:08:01Z</time></trkpt><trkpt lat="40.83650834262017" lon="9.086791407890402"><ele>761.5</ele><time>2026-05-01T12:08:02Z</time></trkpt><trkpt lat="40.83642830111398" lon="9.086657517349604"><ele>759.0</ele><time>2026-05-01T12:08:03Z</time></trkpt><trkpt lat="40.83637783646632" lon="9.086483966633608"><ele>756.5</ele><time>2026-05-01T12:08:04Z</time></trkpt><trkpt lat="40.83630361998869" lon="9.086346361166665"><ele>754.0</ele><time>2026-05-01T12:08:05Z</time></trkpt><trkpt lat="40.83618966590523" lon="9.086274712152623"><ele>753.0</ele><time>2026-05-01T12:08:06Z</time></trkpt><trkpt lat="40.83605650517774" lon="9.086240135080999"><ele>752.0</ele><time>2026-05-01T12:08:07Z</time></trkpt><trkpt lat="40.83592297078152" lon="9.086194156924952"><ele>751.0</ele><time>2026-05-01T12:08:08Z</time></trkpt><trkpt lat="40.8357987365689" lon="9.086097421650429"><ele>750.0</ele><time>2026-05-01T12:08:09Z</time></trkpt><trkpt lat="40.83569138510264" lon="9.085957718042458"><ele>748.75</ele><time>2026-05-01T12:08:10Z</time></trkpt><trkpt lat="40.835611699025826" lon="9.0857990685142"><ele>747.5</ele><time>2026-05-01T12:08:11Z</time></trkpt><trkpt lat="40.835562989029896" lon="9.085618503675123"><ele>746.25</ele><time>2026-05-01T12:08:12Z</time></trkpt><trkpt lat="40.835523507234804" lon="9.085432190087657"><ele>745.0</ele><time>2026-05-01T12:08:13Z</time></trkpt><trkpt lat="40.835505315758425" lon="9.085234081171388"><ele>743.6666666666667</ele><time>2026-05-01T12:08:14Z</time></trkpt><trkpt lat="40.83550439075117" lon="9.085023743378693"><ele>742.3333333333334</ele><time>2026-05-01T12:08:15Z</time></trkpt><trkpt lat="40.835532615593486" lon="9.084820561958411"><ele>741.0</ele><time>2026-05-01T12:08:16Z</time></trkpt><trkpt lat="40.83558603643204" lon="9.084623449059109"><ele>740.5</ele><time>2026-05-01T12:08:17Z</time></trkpt><trkpt lat="40.8356255781457" lon="9.084437408050844"><ele>740.0</ele><time>2026-05-01T12:08:18Z</time></trkpt><trkpt lat="40.8356258965602" lon="9.084282741086405"><ele>739.5</ele><time>2026-05-01T12:08:19Z</time></trkpt><trkpt lat="40.83559366641025" lon="9.084148190402972"><ele>739.0</ele><time>2026-05-01T12:08:20Z</time></trkpt><trkpt lat="40.835534500119905" lon="9.08401008912624"><ele>738.75</ele><time>2026-05-01T12:08:21Z</time></trkpt><trkpt lat="40.83544578609145" lon="9.083871899388283"><ele>738.5</ele><time>2026-05-01T12:08:22Z</time></trkpt><trkpt lat="40.83535011231777" lon="9.083733407866985"><ele>738.25</ele><time>2026-05-01T12:08:23Z</time></trkpt><trkpt lat="40.835258276021904" lon="9.083597010761807"><ele>738.0</ele><time>2026-05-01T12:08:24Z</time></trkpt><trkpt lat="40.835201083481294" lon="9.083443358991705"><ele>740.8</ele><time>2026-05-01T12:08:25Z</time></trkpt><trkpt lat="40.83513508926416" lon="9.083314208730336"><ele>743.5999999999999</ele><time>2026-05-01T12:08:26Z</time></trkpt><trkpt lat="40.835066895603426" lon="9.083196562644423"><ele>746.4000000000001</ele><time>2026-05-01T12:08:27Z</time></trkpt><trkpt lat="40.83503569463428" lon="9.083064042666816"><ele>749.2</ele><time>2026-05-01T12:08:28Z</time></trkpt><trkpt lat="40.83498432373446" lon="9.082929422252683"><ele>752.0</ele><time>2026-05-01T12:08:29Z</time></trkpt><trkpt lat="40.834917018946015" lon="9.08280776719585"><ele>752.2</ele><time>2026-05-01T12:08:30Z</time></trkpt><trkpt lat="40.83485944772392" lon="9.082700453026487"><ele>752.4000000000001</ele><time>2026-05-01T12:08:31Z</time></trkpt><trkpt lat="40.83479417935901" lon="9.082605199613797"><ele>752.5999999999999</ele><time>2026-05-01T12:08:32Z</time></trkpt><trkpt lat="40.83475352559812" lon="9.08249808031497"><ele>752.8</ele><time>2026-05-01T12:08:33Z</time></trkpt><trkpt lat="40.834719502424704" lon="9.08239302842355"><ele>753.0</ele><time>2026-05-01T12:08:34Z</time></trkpt><trkpt lat="40.834681606885304" lon="9.082293353922475"><ele>752.25</ele><time>2026-05-01T12:08:35Z</time></trkpt><trkpt lat="40.83453884345741" lon="9.082081794805529"><ele>751.5</ele><time>2026-05-01T12:08:36Z</time></trkpt><trkpt lat="40.8344745507579" lon="9.081961907450971"><ele>750.75</ele><time>2026-05-01T12:08:37Z</time></trkpt><trkpt lat="40.834393792701796" lon="9.081864043613887"><ele>750.0</ele><time>2026-05-01T12:08:38Z</time></trkpt><trkpt lat="40.83428984810224" lon="9.081803687495317"><ele>752.8</ele><time>2026-05-01T12:08:39Z</time></trkpt><trkpt lat="40.8341739022975" lon="9.081756666876494"><ele>755.6</ele><time>2026-05-01T12:08:40Z</time></trkpt><trkpt lat="40.834066321307844" lon="9.081707353048115"><ele>758.4000000000001</ele><time>2026-05-01T12:08:41Z</time></trkpt><trkpt lat="40.83396635052415" lon="9.081644097327114"><ele>761.2</ele><time>2026-05-01T12:08:42Z</time></trkpt><trkpt lat="40.8338991695844" lon="9.081542792397382"><ele>764.0</ele><time>2026-05-01T12:08:43Z</time></trkpt><trkpt lat="40.83382738496117" lon="9.081432145924744"><ele>764.8000000000001</ele><time>2026-05-01T12:08:44Z</time></trkpt><trkpt lat="40.83380197954275" lon="9.08129778147579"><ele>765.6</ele><time>2026-05-01T12:08:45Z</time></trkpt><trkpt lat="40.83378924049177" lon="9.0811553805343"><ele>766.4</ele><time>2026-05-01T12:08:46Z</time></trkpt><trkpt lat="40.83380044991464" lon="9.081016641329093"><ele>767.2</ele><time>2026-05-01T12:08:47Z</time></trkpt><trkpt lat="40.833819872974" lon="9.08087359271015"><ele>768.0</ele><time>2026-05-01T12:08:48Z</time></trkpt><trkpt lat="40.833839127897456" lon="9.080731434042553"><ele>768.75</ele><time>2026-05-01T12:08:49Z</time></trkpt><trkpt lat="40.83384503288134" lon="9.080588029657019"><ele>769.5</ele><time>2026-05-01T12:08:50Z</time></trkpt><trkpt lat="40.83385031589424" lon="9.08043659398493"><ele>770.25</ele><time>2026-05-01T12:08:51Z</time></trkpt><trkpt lat="40.833832867482855" lon="9.08028846040095"><ele>771.0</ele><time>2026-05-01T12:08:52Z</time></trkpt><trkpt lat="40.83379171773826" lon="9.080136049877652"><ele>771.0</ele><time>2026-05-01T12:08:53Z</time></trkpt><trkpt lat="40.833734127045666" lon="9.079994606374514"><ele>771.0</ele><time>2026-05-01T12:08:54Z</time></trkpt><trkpt lat="40.83368208304467" lon="9.079841972437638"><ele>771.0</ele><time>2026-05-01T12:08:55Z</time></trkpt><trkpt lat="40.83363174182148" lon="9.079681552673327"><ele>771.0</ele><time>2026-05-01T12:08:56Z</time></trkpt><trkpt lat="40.83358367043379" lon="9.07951757494139"><ele>770.75</ele><time>2026-05-01T12:08:57Z</time></trkpt><trkpt lat="40.83353781799376" lon="9.079344939529477"><ele>770.5</ele><time>2026-05-01T12:08:58Z</time></trkpt><trkpt lat="40.83348757352048" lon="9.079177153055177"><ele>770.25</ele><time>2026-05-01T12:08:59Z</time></trkpt><trkpt lat="40.833442205438324" lon="9.079011688638873"><ele>770.0</ele><time>2026-05-01T12:09:00Z</time></trkpt><trkpt lat="40.833413853986535" lon="9.078841251274067"><ele>770.0</ele><time>2026-05-01T12:09:01Z</time></trkpt><trkpt lat="40.83337959236385" lon="9.078680027472183"><ele>770.0</ele><time>2026-05-01T12:09:02Z</time></trkpt><trkpt lat="40.83335440590538" lon="9.078518397044936"><ele>770.0</ele><time>2026-05-01T12:09:03Z</time></trkpt><trkpt lat="40.8333360510618" lon="9.078359607911702"><ele>770.0</ele><time>2026-05-01T12:09:04Z</time></trkpt><trkpt lat="40.833303258548874" lon="9.078216877361323"><ele>770.4</ele><time>2026-05-01T12:09:05Z</time></trkpt><trkpt lat="40.83329203716511" lon="9.07807968720419"><ele>770.8</ele><time>2026-05-01T12:09:06Z</time></trkpt><trkpt lat="40.83327578901583" lon="9.0779426009706"><ele>771.2</ele><time>2026-05-01T12:09:07Z</time></trkpt><trkpt lat="40.83325860463762" lon="9.07780451016412"><ele>771.6</ele><time>2026-05-01T12:09:08Z</time></trkpt><trkpt lat="40.83324364718571" lon="9.077666680373836"><ele>772.0</ele><time>2026-05-01T12:09:09Z</time></trkpt><trkpt lat="40.833226451060966" lon="9.077524151317725"><ele>771.5</ele><time>2026-05-01T12:09:10Z</time></trkpt><trkpt lat="40.83320370557286" lon="9.077375111797492"><ele>771.0</ele><time>2026-05-01T12:09:11Z</time></trkpt><trkpt lat="40.83318128874154" lon="9.07721756506887"><ele>770.5</ele><time>2026-05-01T12:09:12Z</time></trkpt><trkpt lat="40.833167267218975" lon="9.077058636348369"><ele>770.0</ele><time>2026-05-01T12:09:13Z</time></trkpt><trkpt lat="40.83315848843734" lon="9.076900450379323"><ele>770.0</ele><time>2026-05-01T12:09:14Z</time></trkpt><trkpt lat="40.833145057825874" lon="9.076745265326943"><ele>770.0</ele><time>2026-05-01T12:09:15Z</time></trkpt><trkpt lat="40.833132685722596" lon="9.076590530977537"><ele>770.0</ele><time>2026-05-01T12:09:16Z</time></trkpt><trkpt lat="40.83312521467932" lon="9.076437855274637"><ele>770.0</ele><time>2026-05-01T12:09:17Z</time></trkpt><trkpt lat="40.833114622816296" lon="9.076288133929703"><ele>769.4</ele><time>2026-05-01T12:09:18Z</time></trkpt><trkpt lat="40.83309810057525" lon="9.076146135406972"><ele>768.8</ele><time>2026-05-01T12:09:19Z</time></trkpt><trkpt lat="40.833066016647535" lon="9.07601242961735"><ele>768.2</ele><time>2026-05-01T12:09:20Z</time></trkpt><trkpt lat="40.833014584873936" lon="9.075882600969553"><ele>767.6</ele><time>2026-05-01T12:09:21Z</time></trkpt><trkpt lat="40.832933553495145" lon="9.07578139830491"><ele>767.0</ele><time>2026-05-01T12:09:22Z</time></trkpt><trkpt lat="40.83283697257578" lon="9.075714587864423"><ele>766.8</ele><time>2026-05-01T12:09:23Z</time></trkpt><trkpt lat="40.83273835261861" lon="9.075645739896684"><ele>766.6</ele><time>2026-05-01T12:09:24Z</time></trkpt><trkpt lat="40.832639324229504" lon="9.07558317071884"><ele>766.4</ele><time>2026-05-01T12:09:25Z</time></trkpt><trkpt lat="40.83253982831987" lon="9.075522726905998"><ele>766.1999999999999</ele><time>2026-05-01T12:09:26Z</time></trkpt><trkpt lat="40.83243759028696" lon="9.075462212188892"><ele>766.0</ele><time>2026-05-01T12:09:27Z</time></trkpt><trkpt lat="40.83232455133634" lon="9.075425827860851"><ele>767.75</ele><time>2026-05-01T12:09:28Z</time></trkpt><trkpt lat="40.83221557935045" lon="9.075355968412048"><ele>769.5</ele><time>2026-05-01T12:09:29Z</time></trkpt><trkpt lat="40.83209358932064" lon="9.075308298851262"><ele>771.25</ele><time>2026-05-01T12:09:30Z</time></trkpt><trkpt lat="40.83196225827904" lon="9.075264746045116"><ele>773.0</ele><time>2026-05-01T12:09:31Z</time></trkpt><trkpt lat="40.83182837502704" lon="9.075221878510687"><ele>774.5</ele><time>2026-05-01T12:09:32Z</time></trkpt><trkpt lat="40.83169021864136" lon="9.075172787510684"><ele>776.0</ele><time>2026-05-01T12:09:33Z</time></trkpt><trkpt lat="40.83154685733307" lon="9.075119351875932"><ele>777.5</ele><time>2026-05-01T12:09:34Z</time></trkpt><trkpt lat="40.831401878102575" lon="9.075061117070492"><ele>779.0</ele><time>2026-05-01T12:09:35Z</time></trkpt><trkpt lat="40.831249619209444" lon="9.074996518970124"><ele>779.3333333333334</ele><time>2026-05-01T12:09:36Z</time></trkpt><trkpt lat="40.83109892944819" lon="9.074933317794404"><ele>779.6666666666667</ele><time>2026-05-01T12:09:37Z</time></trkpt><trkpt lat="40.83094913112112" lon="9.074874182500263"><ele>780.0</ele><time>2026-05-01T12:09:38Z</time></trkpt><trkpt lat="40.83081730936594" lon="9.074815378212774"><ele>782.0</ele><time>2026-05-01T12:09:39Z</time></trkpt><trkpt lat="40.83069153463057" lon="9.074749618610003"><ele>784.0</ele><time>2026-05-01T12:09:40Z</time></trkpt><trkpt lat="40.83056985814422" lon="9.074680848623967"><ele>786.0</ele><time>2026-05-01T12:09:41Z</time></trkpt><trkpt lat="40.8304568115322" lon="9.074606353512635"><ele>788.0</ele><time>2026-05-01T12:09:42Z</time></trkpt><trkpt lat="40.83035925524409" lon="9.074527322881043"><ele>788.0</ele><time>2026-05-01T12:09:43Z</time></trkpt><trkpt lat="40.83030098831585" lon="9.074431455671897"><ele>788.0</ele><time>2026-05-01T12:09:44Z</time></trkpt><trkpt lat="40.83029637652734" lon="9.07430983594062"><ele>788.0</ele><time>2026-05-01T12:09:45Z</time></trkpt><trkpt lat="40.83027690200885" lon="9.074182409424576"><ele>788.0</ele><time>2026-05-01T12:09:46Z</time></trkpt><trkpt lat="40.83028239334475" lon="9.074033193920998"><ele>788.0</ele><time>2026-05-01T12:09:47Z</time></trkpt><trkpt lat="40.830290366120984" lon="9.073874651174613"><ele>788.4</ele><time>2026-05-01T12:09:48Z</time></trkpt><trkpt lat="40.83030168619134" lon="9.073721574382658"><ele>788.8</ele><time>2026-05-01T12:09:49Z</time></trkpt><trkpt lat="40.830294131478325" lon="9.07359602238759"><ele>789.2</ele><time>2026-05-01T12:09:50Z</time></trkpt><trkpt lat="40.830253956596536" lon="9.073503205002114"><ele>789.6</ele><time>2026-05-01T12:09:51Z</time></trkpt><trkpt lat="40.83014359324036" lon="9.07346517122742"><ele>790.0</ele><time>2026-05-01T12:09:52Z</time></trkpt><trkpt lat="40.83003964512485" lon="9.073406868219584"><ele>791.0</ele><time>2026-05-01T12:09:53Z</time></trkpt><trkpt lat="40.82992656400631" lon="9.07335363137211"><ele>792.0</ele><time>2026-05-01T12:09:54Z</time></trkpt><trkpt lat="40.8298171550137" lon="9.073292044134927"><ele>793.0</ele><time>2026-05-01T12:09:55Z</time></trkpt><trkpt lat="40.82971325725469" lon="9.073219206226982"><ele>794.0</ele><time>2026-05-01T12:09:56Z</time></trkpt><trkpt lat="40.829610746521844" lon="9.073138198152126"><ele>794.0</ele><time>2026-05-01T12:09:57Z</time></trkpt><trkpt lat="40.82948923092826" lon="9.073096168981712"><ele>794.0</ele><time>2026-05-01T12:09:58Z</time></trkpt><trkpt lat="40.829360597483316" lon="9.073043569068712"><ele>794.0</ele><time>2026-05-01T12:09:59Z</time></trkpt><trkpt lat="40.829224753471344" lon="9.072993053768773"><ele>794.0</ele><time>2026-05-01T12:10:00Z</time></trkpt><trkpt lat="40.82910314826372" lon="9.072905074419513"><ele>795.3333333333334</ele><time>2026-05-01T12:10:01Z</time></trkpt><trkpt lat="40.82896342490446" lon="9.072815129183088"><ele>796.6666666666667</ele><time>2026-05-01T12:10:02Z</time></trkpt><trkpt lat="40.82881037738432" lon="9.072716943840685"><ele>798.0</ele><time>2026-05-01T12:10:03Z</time></trkpt><trkpt lat="40.828658863250254" lon="9.072619742235275"><ele>798.0</ele><time>2026-05-01T12:10:04Z</time></trkpt><trkpt lat="40.82851427807253" lon="9.072529304088878"><ele>798.0</ele><time>2026-05-01T12:10:05Z</time></trkpt><trkpt lat="40.82837333836809" lon="9.072442207485077"><ele>798.0</ele><time>2026-05-01T12:10:06Z</time></trkpt><trkpt lat="40.82824060320664" lon="9.072356813668797"><ele>795.0</ele><time>2026-05-01T12:10:07Z</time></trkpt><trkpt lat="40.828104043554" lon="9.072268959389984"><ele>792.0</ele><time>2026-05-01T12:10:08Z</time></trkpt><trkpt lat="40.82796842710698" lon="9.072181711926019"><ele>789.0</ele><time>2026-05-01T12:10:09Z</time></trkpt><trkpt lat="40.827839636015874" lon="9.072092796066984"><ele>786.0</ele><time>2026-05-01T12:10:10Z</time></trkpt><trkpt lat="40.82771453840689" lon="9.071995483506686"><ele>785.75</ele><time>2026-05-01T12:10:11Z</time></trkpt><trkpt lat="40.8275978778441" lon="9.071897030902837"><ele>785.5</ele><time>2026-05-01T12:10:12Z</time></trkpt><trkpt lat="40.82748983382028" lon="9.071790740925042"><ele>785.25</ele><time>2026-05-01T12:10:13Z</time></trkpt><trkpt lat="40.82740300200754" lon="9.071662629425308"><ele>785.0</ele><time>2026-05-01T12:10:14Z</time></trkpt><trkpt lat="40.82733137926675" lon="9.071529514067569"><ele>785.0</ele><time>2026-05-01T12:10:15Z</time></trkpt><trkpt lat="40.82726691635072" lon="9.071406371054188"><ele>785.0</ele><time>2026-05-01T12:10:16Z</time></trkpt><trkpt lat="40.82717747309786" lon="9.07131084501673"><ele>785.0</ele><time>2026-05-01T12:10:17Z</time></trkpt><trkpt lat="40.82707199075098" lon="9.071237745282339"><ele>785.0</ele><time>2026-05-01T12:10:18Z</time></trkpt><trkpt lat="40.82695625942892" lon="9.071199300739071"><ele>785.0</ele><time>2026-05-01T12:10:19Z</time></trkpt><trkpt lat="40.8268378654204" lon="9.071160270246793"><ele>785.0</ele><time>2026-05-01T12:10:20Z</time></trkpt><trkpt lat="40.82672854099978" lon="9.071134152881067"><ele>785.0</ele><time>2026-05-01T12:10:21Z</time></trkpt><trkpt lat="40.82663630603094" lon="9.071112118135058"><ele>785.0</ele><time>2026-05-01T12:10:22Z</time></trkpt><trkpt lat="40.826548454441365" lon="9.071091374780098"><ele>785.0</ele><time>2026-05-01T12:10:23Z</time></trkpt><trkpt lat="40.82647111178682" lon="9.07107332816145"><ele>785.5000000000001</ele><time>2026-05-01T12:10:24Z</time></trkpt><trkpt lat="40.82640686171983" lon="9.0710583364774"><ele>786.0</ele><time>2026-05-01T12:10:25Z</time></trkpt><trkpt lat="40.82633452366214" lon="9.071041232773476"><ele>786.5</ele><time>2026-05-01T12:10:28Z</time></trkpt><trkpt lat="40.826243972258915" lon="9.071019703439573"><ele>787.0</ele><time>2026-05-01T12:10:31Z</time></trkpt><trkpt lat="40.826166524860376" lon="9.070999441987567"><ele>787.5000000000001</ele><time>2026-05-01T12:10:33Z</time></trkpt><trkpt lat="40.82607464607042" lon="9.070973300648957"><ele>788.0</ele><time>2026-05-01T12:10:35Z</time></trkpt><trkpt lat="40.825969403754634" lon="9.070939661868888"><ele>788.0</ele><time>2026-05-01T12:10:37Z</time></trkpt><trkpt lat="40.82585090212259" lon="9.070899896215975"><ele>788.0</ele><time>2026-05-01T12:10:39Z</time></trkpt><trkpt lat="40.82572898715382" lon="9.07085898670416"><ele>788.0</ele><time>2026-05-01T12:10:41Z</time></trkpt><trkpt lat="40.825663682184675" lon="9.070837072294433"><ele>788.0</ele><time>2026-05-01T12:10:42Z</time></trkpt><trkpt lat="40.82559805956847" lon="9.07081461996789"><ele>788.0</ele><time>2026-05-01T12:10:43Z</time></trkpt><trkpt lat="40.82552806378071" lon="9.070790546394834"><ele>785.8333333333334</ele><time>2026-05-01T12:10:44Z</time></trkpt><trkpt lat="40.8254572317699" lon="9.070766185228683"><ele>783.6666666666667</ele><time>2026-05-01T12:10:45Z</time></trkpt><trkpt lat="40.82538342880713" lon="9.070740802258392"><ele>781.5</ele><time>2026-05-01T12:10:46Z</time></trkpt><trkpt lat="40.82530773286042" lon="9.07071476823529"><ele>779.3333333333333</ele><time>2026-05-01T12:10:47Z</time></trkpt><trkpt lat="40.82523108833395" lon="9.070688407975736"><ele>777.1666666666666</ele><time>2026-05-01T12:10:48Z</time></trkpt><trkpt lat="40.82515451252776" lon="9.070661829155855"><ele>775.0</ele><time>2026-05-01T12:10:49Z</time></trkpt><trkpt lat="40.82507647807997" lon="9.070634181735675"><ele>774.2</ele><time>2026-05-01T12:10:50Z</time></trkpt><trkpt lat="40.824992487202856" lon="9.070604423956292"><ele>773.4</ele><time>2026-05-01T12:10:51Z</time></trkpt><trkpt lat="40.82490337896222" lon="9.07057335423935"><ele>772.5999999999999</ele><time>2026-05-01T12:10:52Z</time></trkpt><trkpt lat="40.82481502995428" lon="9.070534658563032"><ele>771.8</ele><time>2026-05-01T12:10:53Z</time></trkpt><trkpt lat="40.82473742003168" lon="9.07046271210653"><ele>771.0</ele><time>2026-05-01T12:10:54Z</time></trkpt><trkpt lat="40.8246555407983" lon="9.07038141834884"><ele>771.0</ele><time>2026-05-01T12:10:55Z</time></trkpt><trkpt lat="40.82456942654934" lon="9.070295753111838"><ele>771.0</ele><time>2026-05-01T12:10:56Z</time></trkpt><trkpt lat="40.82448668589281" lon="9.070241047759229"><ele>771.0</ele><time>2026-05-01T12:10:57Z</time></trkpt><trkpt lat="40.8244066515018" lon="9.070230090967426"><ele>771.0</ele><time>2026-05-01T12:10:58Z</time></trkpt><trkpt lat="40.82433368569685" lon="9.070341021950766"><ele>771.0</ele><time>2026-05-01T12:10:59Z</time></trkpt><trkpt lat="40.82425952125427" lon="9.070393956594605"><ele>770.1999999999999</ele><time>2026-05-01T12:11:00Z</time></trkpt><trkpt lat="40.82419263611845" lon="9.070438529559658"><ele>769.4</ele><time>2026-05-01T12:11:01Z</time></trkpt><trkpt lat="40.824114867213346" lon="9.07044260128697"><ele>768.6</ele><time>2026-05-01T12:11:02Z</time></trkpt><trkpt lat="40.824052269800006" lon="9.070390278398902"><ele>767.8</ele><time>2026-05-01T12:11:03Z</time></trkpt><trkpt lat="40.82402165624662" lon="9.070207572279294"><ele>767.0</ele><time>2026-05-01T12:11:05Z</time></trkpt><trkpt lat="40.824057503884944" lon="9.070067174928768"><ele>764.75</ele><time>2026-05-01T12:11:06Z</time></trkpt><trkpt lat="40.82405900612513" lon="9.069935820748363"><ele>762.5</ele><time>2026-05-01T12:11:07Z</time></trkpt><trkpt lat="40.82403308085059" lon="9.06979524012003"><ele>760.25</ele><time>2026-05-01T12:11:08Z</time></trkpt><trkpt lat="40.82394992141597" lon="9.06965789285988"><ele>758.0</ele><time>2026-05-01T12:11:09Z</time></trkpt><trkpt lat="40.82385323818945" lon="9.069547254565578"><ele>758.0</ele><time>2026-05-01T12:11:10Z</time></trkpt><trkpt lat="40.82377510515387" lon="9.069395197233245"><ele>758.0</ele><time>2026-05-01T12:11:11Z</time></trkpt><trkpt lat="40.823688398972344" lon="9.069255999905112"><ele>758.0</ele><time>2026-05-01T12:11:12Z</time></trkpt><trkpt lat="40.823599430630786" lon="9.069126275233256"><ele>758.0</ele><time>2026-05-01T12:11:13Z</time></trkpt><trkpt lat="40.823505926407734" lon="9.069002354739917"><ele>756.0</ele><time>2026-05-01T12:11:14Z</time></trkpt><trkpt lat="40.823404926177545" lon="9.068882800658852"><ele>754.0</ele><time>2026-05-01T12:11:15Z</time></trkpt><trkpt lat="40.823305478956605" lon="9.068753571687573"><ele>752.0</ele><time>2026-05-01T12:11:16Z</time></trkpt><trkpt lat="40.82319378412312" lon="9.068643791288613"><ele>750.0</ele><time>2026-05-01T12:11:17Z</time></trkpt><trkpt lat="40.82308238833994" lon="9.068538328430327"><ele>750.0</ele><time>2026-05-01T12:11:18Z</time></trkpt><trkpt lat="40.82297085111358" lon="9.068452950208075"><ele>750.0</ele><time>2026-05-01T12:11:19Z</time></trkpt><trkpt lat="40.82286692074422" lon="9.06836166949098"><ele>750.0</ele><time>2026-05-01T12:11:20Z</time></trkpt><trkpt lat="40.82277981138634" lon="9.068254987504863"><ele>750.0</ele><time>2026-05-01T12:11:21Z</time></trkpt><trkpt lat="40.82268378110673" lon="9.068165552361386"><ele>750.0</ele><time>2026-05-01T12:11:22Z</time></trkpt><trkpt lat="40.82259712063224" lon="9.068068623206527"><ele>750.0</ele><time>2026-05-01T12:11:23Z</time></trkpt><trkpt lat="40.822510328413344" lon="9.067963695326505"><ele>750.0</ele><time>2026-05-01T12:11:24Z</time></trkpt><trkpt lat="40.822410692956794" lon="9.06787357211372"><ele>750.0</ele><time>2026-05-01T12:11:25Z</time></trkpt><trkpt lat="40.82231623805072" lon="9.067766350175095"><ele>750.0</ele><time>2026-05-01T12:11:26Z</time></trkpt><trkpt lat="40.82222636386029" lon="9.067648337578024"><ele>750.0</ele><time>2026-05-01T12:11:27Z</time></trkpt><trkpt lat="40.82212225572717" lon="9.067548533932488"><ele>750.0</ele><time>2026-05-01T12:11:28Z</time></trkpt><trkpt lat="40.822019630175646" lon="9.067449750516294"><ele>750.0</ele><time>2026-05-01T12:11:29Z</time></trkpt><trkpt lat="40.821914936286895" lon="9.067340707167155"><ele>748.75</ele><time>2026-05-01T12:11:30Z</time></trkpt><trkpt lat="40.821816301490024" lon="9.067206048465298"><ele>747.5</ele><time>2026-05-01T12:11:31Z</time></trkpt><trkpt lat="40.82171577535043" lon="9.067062225134837"><ele>746.25</ele><time>2026-05-01T12:11:32Z</time></trkpt><trkpt lat="40.821620884372855" lon="9.066923555058876"><ele>745.0</ele><time>2026-05-01T12:11:33Z</time></trkpt><trkpt lat="40.82152280713836" lon="9.066785634257196"><ele>744.0</ele><time>2026-05-01T12:11:34Z</time></trkpt><trkpt lat="40.821409019074906" lon="9.066660804256625"><ele>743.0</ele><time>2026-05-01T12:11:35Z</time></trkpt><trkpt lat="40.82130518177963" lon="9.06652304464621"><ele>742.0</ele><time>2026-05-01T12:11:36Z</time></trkpt><trkpt lat="40.821201577478455" lon="9.066387903484822"><ele>741.0</ele><time>2026-05-01T12:11:37Z</time></trkpt><trkpt lat="40.82110889239883" lon="9.066235795330716"><ele>740.0</ele><time>2026-05-01T12:11:38Z</time></trkpt><trkpt lat="40.821005570180105" lon="9.066095810083326"><ele>739.0</ele><time>2026-05-01T12:11:39Z</time></trkpt><trkpt lat="40.82090160193098" lon="9.065955392083163"><ele>738.0</ele><time>2026-05-01T12:11:40Z</time></trkpt><trkpt lat="40.820781859833566" lon="9.0658335149882"><ele>737.0</ele><time>2026-05-01T12:11:41Z</time></trkpt><trkpt lat="40.82067553122273" lon="9.06569763173783"><ele>735.25</ele><time>2026-05-01T12:11:42Z</time></trkpt><trkpt lat="40.82056908559902" lon="9.065562865052495"><ele>733.5</ele><time>2026-05-01T12:11:43Z</time></trkpt><trkpt lat="40.82046314403318" lon="9.06542750418983"><ele>731.75</ele><time>2026-05-01T12:11:44Z</time></trkpt><trkpt lat="40.82036901647581" lon="9.065279412255144"><ele>730.0</ele><time>2026-05-01T12:11:45Z</time></trkpt><trkpt lat="40.820254987394776" lon="9.065168482486479"><ele>730.0</ele><time>2026-05-01T12:11:46Z</time></trkpt><trkpt lat="40.82017732754434" lon="9.065061691038613"><ele>730.0</ele><time>2026-05-01T12:11:47Z</time></trkpt><trkpt lat="40.8201299142679" lon="9.064934779987045"><ele>730.0</ele><time>2026-05-01T12:11:48Z</time></trkpt><trkpt lat="40.82009350596799" lon="9.064815662453166"><ele>730.0</ele><time>2026-05-01T12:11:49Z</time></trkpt><trkpt lat="40.82010916435903" lon="9.064678118049107"><ele>730.0</ele><time>2026-05-01T12:11:50Z</time></trkpt><trkpt lat="40.820162352815686" lon="9.06455477278983"><ele>729.0</ele><time>2026-05-01T12:11:51Z</time></trkpt><trkpt lat="40.820231544813915" lon="9.06445030526699"><ele>728.0</ele><time>2026-05-01T12:11:52Z</time></trkpt><trkpt lat="40.820302379406066" lon="9.064376122793375"><ele>727.0</ele><time>2026-05-01T12:11:53Z</time></trkpt><trkpt lat="40.8203820761286" lon="9.06434658132967"><ele>726.0</ele><time>2026-05-01T12:11:54Z</time></trkpt><trkpt lat="40.820475485639676" lon="9.064350006734344"><ele>725.0</ele><time>2026-05-01T12:11:55Z</time></trkpt><trkpt lat="40.82058087941094" lon="9.064340651724324"><ele>725.0</ele><time>2026-05-01T12:11:56Z</time></trkpt><trkpt lat="40.82066071049362" lon="9.064282593121733"><ele>725.0</ele><time>2026-05-01T12:11:57Z</time></trkpt><trkpt lat="40.82072396153553" lon="9.06417542931284"><ele>725.0</ele><time>2026-05-01T12:11:58Z</time></trkpt><trkpt lat="40.82076089967157" lon="9.06403644317956"><ele>725.0</ele><time>2026-05-01T12:11:59Z</time></trkpt><trkpt lat="40.82077507825646" lon="9.06388196379426"><ele>725.0</ele><time>2026-05-01T12:12:00Z</time></trkpt><trkpt lat="40.820771888143284" lon="9.06372401914505"><ele>724.75</ele><time>2026-05-01T12:12:01Z</time></trkpt><trkpt lat="40.820745681503006" lon="9.063567858119066"><ele>724.5</ele><time>2026-05-01T12:12:02Z</time></trkpt><trkpt lat="40.82069597425838" lon="9.063414299429413"><ele>724.25</ele><time>2026-05-01T12:12:03Z</time></trkpt><trkpt lat="40.820646133379874" lon="9.063263157322726"><ele>724.0</ele><time>2026-05-01T12:12:04Z</time></trkpt><trkpt lat="40.82061299774495" lon="9.063099234877384"><ele>724.0</ele><time>2026-05-01T12:12:05Z</time></trkpt><trkpt lat="40.82055759441239" lon="9.062949868592682"><ele>724.0</ele><time>2026-05-01T12:12:06Z</time></trkpt><trkpt lat="40.82053995047966" lon="9.062801419283494"><ele>724.0</ele><time>2026-05-01T12:12:07Z</time></trkpt><trkpt lat="40.8205525813859" lon="9.062665498067695"><ele>724.0</ele><time>2026-05-01T12:12:08Z</time></trkpt><trkpt lat="40.820591208469835" lon="9.062537089275862"><ele>724.0</ele><time>2026-05-01T12:12:09Z</time></trkpt><trkpt lat="40.82064812847721" lon="9.062396126291388"><ele>723.5</ele><time>2026-05-01T12:12:10Z</time></trkpt><trkpt lat="40.820708181274455" lon="9.06224202962769"><ele>723.0</ele><time>2026-05-01T12:12:11Z</time></trkpt><trkpt lat="40.82076270423715" lon="9.06208880436314"><ele>722.5</ele><time>2026-05-01T12:12:12Z</time></trkpt><trkpt lat="40.82082154951319" lon="9.061920487321755"><ele>722.0</ele><time>2026-05-01T12:12:13Z</time></trkpt><trkpt lat="40.82087883017968" lon="9.061759634444844"><ele>721.0</ele><time>2026-05-01T12:12:14Z</time></trkpt><trkpt lat="40.8209350144049" lon="9.061607070469497"><ele>720.0</ele><time>2026-05-01T12:12:15Z</time></trkpt><trkpt lat="40.820990905922294" lon="9.061465443369483"><ele>719.0</ele><time>2026-05-01T12:12:16Z</time></trkpt><trkpt lat="40.82104247217225" lon="9.061322904756674"><ele>718.0</ele><time>2026-05-01T12:12:17Z</time></trkpt><trkpt lat="40.821069773153475" lon="9.061180135999873"><ele>717.4</ele><time>2026-05-01T12:12:18Z</time></trkpt><trkpt lat="40.821074812791615" lon="9.061032604021031"><ele>716.8</ele><time>2026-05-01T12:12:19Z</time></trkpt><trkpt lat="40.82107118519296" lon="9.06089596310035"><ele>716.2</ele><time>2026-05-01T12:12:20Z</time></trkpt><trkpt lat="40.82107344238442" lon="9.060804202151576"><ele>715.6</ele><time>2026-05-01T12:12:21Z</time></trkpt><trkpt lat="40.82106983885144" lon="9.060665548542145"><ele>715.0</ele><time>2026-05-01T12:12:23Z</time></trkpt><trkpt lat="40.82107005416348" lon="9.06057641781245"><ele>713.4</ele><time>2026-05-01T12:12:24Z</time></trkpt><trkpt lat="40.82108109514606" lon="9.060478351853394"><ele>711.8</ele><time>2026-05-01T12:12:25Z</time></trkpt><trkpt lat="40.821092651658084" lon="9.060371293099182"><ele>710.2</ele><time>2026-05-01T12:12:26Z</time></trkpt><trkpt lat="40.82111018271655" lon="9.060251000231416"><ele>708.6</ele><time>2026-05-01T12:12:27Z</time></trkpt><trkpt lat="40.821140831583" lon="9.060111611207695"><ele>707.0</ele><time>2026-05-01T12:12:28Z</time></trkpt><trkpt lat="40.821177610462975" lon="9.059969499838799"><ele>705.75</ele><time>2026-05-01T12:12:29Z</time></trkpt><trkpt lat="40.821220127228436" lon="9.059825532019847"><ele>704.5</ele><time>2026-05-01T12:12:30Z</time></trkpt><trkpt lat="40.82126880481704" lon="9.059682393836393"><ele>703.25</ele><time>2026-05-01T12:12:31Z</time></trkpt><trkpt lat="40.821323475960185" lon="9.059543546830504"><ele>702.0</ele><time>2026-05-01T12:12:32Z</time></trkpt><trkpt lat="40.821374488195325" lon="9.059418601737574"><ele>702.0</ele><time>2026-05-01T12:12:33Z</time></trkpt><trkpt lat="40.821403372319956" lon="9.059295816607044"><ele>702.0</ele><time>2026-05-01T12:12:34Z</time></trkpt><trkpt lat="40.82138292899759" lon="9.05916114389099"><ele>702.0</ele><time>2026-05-01T12:12:35Z</time></trkpt><trkpt lat="40.82136087140194" lon="9.059008421248022"><ele>702.0</ele><time>2026-05-01T12:12:36Z</time></trkpt><trkpt lat="40.82130207548973" lon="9.058855763263852"><ele>702.0</ele><time>2026-05-01T12:12:37Z</time></trkpt><trkpt lat="40.821261013036185" lon="9.058687132284621"><ele>700.1666666666666</ele><time>2026-05-01T12:12:38Z</time></trkpt><trkpt lat="40.8212104101644" lon="9.058544498206846"><ele>698.3333333333334</ele><time>2026-05-01T12:12:39Z</time></trkpt><trkpt lat="40.8211662392383" lon="9.05846443544388"><ele>696.5</ele><time>2026-05-01T12:12:40Z</time></trkpt><trkpt lat="40.82111820198719" lon="9.058380640668535"><ele>694.6666666666667</ele><time>2026-05-01T12:12:42Z</time></trkpt><trkpt lat="40.8210839351087" lon="9.058292618393818"><ele>692.8333333333334</ele><time>2026-05-01T12:12:46Z</time></trkpt><trkpt lat="40.82105306577239" lon="9.058216658066081"><ele>691.0</ele><time>2026-05-01T12:12:48Z</time></trkpt><trkpt lat="40.821053827700815" lon="9.058057472555362"><ele>690.1999999999999</ele><time>2026-05-01T12:12:50Z</time></trkpt><trkpt lat="40.8210544453689" lon="9.057960518994005"><ele>689.4</ele><time>2026-05-01T12:12:51Z</time></trkpt><trkpt lat="40.82103342800095" lon="9.057853372274579"><ele>688.6</ele><time>2026-05-01T12:12:52Z</time></trkpt><trkpt lat="40.82099834656669" lon="9.057745819966986"><ele>687.8</ele><time>2026-05-01T12:12:53Z</time></trkpt><trkpt lat="40.82092916441519" lon="9.057647637732588"><ele>687.0</ele><time>2026-05-01T12:12:54Z</time></trkpt><trkpt lat="40.82087952162919" lon="9.057513358434335"><ele>689.6</ele><time>2026-05-01T12:12:55Z</time></trkpt><trkpt lat="40.820836752879565" lon="9.057380048877048"><ele>692.2</ele><time>2026-05-01T12:12:56Z</time></trkpt><trkpt lat="40.82080102712922" lon="9.057256257387511"><ele>694.8</ele><time>2026-05-01T12:12:57Z</time></trkpt><trkpt lat="40.82076526832506" lon="9.057136386314136"><ele>697.4</ele><time>2026-05-01T12:12:58Z</time></trkpt><trkpt lat="40.820728987663394" lon="9.057029245442735"><ele>700.0</ele><time>2026-05-01T12:12:59Z</time></trkpt><trkpt lat="40.82068033946825" lon="9.056951560503133"><ele>700.0</ele><time>2026-05-01T12:13:00Z</time></trkpt><trkpt lat="40.820613123166346" lon="9.056869037134428"><ele>700.0</ele><time>2026-05-01T12:13:01Z</time></trkpt><trkpt lat="40.82054315012033" lon="9.056783599808265"><ele>700.0</ele><time>2026-05-01T12:13:02Z</time></trkpt><trkpt lat="40.82049925376274" lon="9.05668092347438"><ele>700.0</ele><time>2026-05-01T12:13:03Z</time></trkpt><trkpt lat="40.820451612909444" lon="9.056599048076716"><ele>700.0</ele><time>2026-05-01T12:13:04Z</time></trkpt><trkpt lat="40.820427682200545" lon="9.05651698598403"><ele>700.0</ele><time>2026-05-01T12:13:05Z</time></trkpt><trkpt lat="40.820399459827605" lon="9.056418991473969"><ele>699.4</ele><time>2026-05-01T12:13:08Z</time></trkpt><trkpt lat="40.82025678217383" lon="9.05643216003438"><ele>698.8</ele><time>2026-05-01T12:13:11Z</time></trkpt><trkpt lat="40.82012579150453" lon="9.05642102980647"><ele>698.2</ele><time>2026-05-01T12:13:13Z</time></trkpt><trkpt lat="40.82005552138849" lon="9.056401428777466"><ele>697.6</ele><time>2026-05-01T12:13:14Z</time></trkpt><trkpt lat="40.819974080052056" lon="9.056374224142525"><ele>697.0</ele><time>2026-05-01T12:13:15Z</time></trkpt><trkpt lat="40.81991313407109" lon="9.056300608169348"><ele>698.3333333333334</ele><time>2026-05-01T12:13:16Z</time></trkpt><trkpt lat="40.81988790720665" lon="9.056206368760432"><ele>699.6666666666667</ele><time>2026-05-01T12:13:17Z</time></trkpt><trkpt lat="40.81984398350714" lon="9.056114357011765"><ele>701.0</ele><time>2026-05-01T12:13:18Z</time></trkpt><trkpt lat="40.8197831770049" lon="9.05602406577894"><ele>702.3333333333334</ele><time>2026-05-01T12:13:19Z</time></trkpt><trkpt lat="40.81973953246354" lon="9.055949544808758"><ele>703.6666666666666</ele><time>2026-05-01T12:13:20Z</time></trkpt><trkpt lat="40.81968104784704" lon="9.055887958761978"><ele>705.0</ele><time>2026-05-01T12:13:21Z</time></trkpt><trkpt lat="40.81960746820691" lon="9.055823301847902"><ele>705.8</ele><time>2026-05-01T12:13:22Z</time></trkpt><trkpt lat="40.81952684008475" lon="9.055751560923099"><ele>706.6</ele><time>2026-05-01T12:13:23Z</time></trkpt><trkpt lat="40.81940427160514" lon="9.055754214225997"><ele>707.4000000000001</ele><time>2026-05-01T12:13:24Z</time></trkpt><trkpt lat="40.81929014583524" lon="9.0557291120127"><ele>708.2</ele><time>2026-05-01T12:13:25Z</time></trkpt><trkpt lat="40.819209767065935" lon="9.0556754853258"><ele>709.0</ele><time>2026-05-01T12:13:26Z</time></trkpt><trkpt lat="40.81912256669144" lon="9.055598598588794"><ele>709.0</ele><time>2026-05-01T12:13:27Z</time></trkpt><trkpt lat="40.819035122767254" lon="9.055518411919723"><ele>709.0</ele><time>2026-05-01T12:13:28Z</time></trkpt><trkpt lat="40.81895612339698" lon="9.055414860551522"><ele>709.0</ele><time>2026-05-01T12:13:29Z</time></trkpt><trkpt lat="40.818879243213594" lon="9.05528755986378"><ele>709.0</ele><time>2026-05-01T12:13:30Z</time></trkpt><trkpt lat="40.818794187322695" lon="9.055155959542722"><ele>709.0</ele><time>2026-05-01T12:13:31Z</time></trkpt><trkpt lat="40.818707089032" lon="9.055036166444493"><ele>709.0</ele><time>2026-05-01T12:13:32Z</time></trkpt><trkpt lat="40.81864060423207" lon="9.05492908445432"><ele>709.0</ele><time>2026-05-01T12:13:33Z</time></trkpt><trkpt lat="40.81859957030217" lon="9.054841648654035"><ele>709.0</ele><time>2026-05-01T12:13:34Z</time></trkpt><trkpt lat="40.81860075848677" lon="9.05473165008576"><ele>709.0</ele><time>2026-05-01T12:13:35Z</time></trkpt><trkpt lat="40.81857990776119" lon="9.054642407728194"><ele>709.2</ele><time>2026-05-01T12:13:36Z</time></trkpt><trkpt lat="40.81852020452428" lon="9.054591648764562"><ele>709.4000000000001</ele><time>2026-05-01T12:13:37Z</time></trkpt><trkpt lat="40.818421834992115" lon="9.054548748491836"><ele>709.6</ele><time>2026-05-01T12:13:38Z</time></trkpt><trkpt lat="40.818324919288955" lon="9.0544788478644"><ele>709.8</ele><time>2026-05-01T12:13:39Z</time></trkpt><trkpt lat="40.818232220547635" lon="9.054416789833232"><ele>710.0</ele><time>2026-05-01T12:13:40Z</time></trkpt><trkpt lat="40.818129139318664" lon="9.054354610473977"><ele>714.0</ele><time>2026-05-01T12:13:41Z</time></trkpt><trkpt lat="40.81800206388496" lon="9.054321342478898"><ele>718.0</ele><time>2026-05-01T12:13:42Z</time></trkpt><trkpt lat="40.817878600576826" lon="9.054269260839941"><ele>722.0</ele><time>2026-05-01T12:13:43Z</time></trkpt><trkpt lat="40.817745761528414" lon="9.054253798715804"><ele>726.0</ele><time>2026-05-01T12:13:44Z</time></trkpt><trkpt lat="40.81762033775222" lon="9.054231774183338"><ele>729.0</ele><time>2026-05-01T12:13:45Z</time></trkpt><trkpt lat="40.817499895754814" lon="9.054206102730713"><ele>732.0</ele><time>2026-05-01T12:13:46Z</time></trkpt><trkpt lat="40.81738513150403" lon="9.054178490695927"><ele>735.0</ele><time>2026-05-01T12:13:47Z</time></trkpt><trkpt lat="40.81727631757058" lon="9.054142480830299"><ele>738.0</ele><time>2026-05-01T12:13:48Z</time></trkpt><trkpt lat="40.8171880316883" lon="9.054086953581221"><ele>741.0</ele><time>2026-05-01T12:13:49Z</time></trkpt><trkpt lat="40.81712681150722" lon="9.054020290133197"><ele>743.0</ele><time>2026-05-01T12:13:50Z</time></trkpt><trkpt lat="40.817075494168236" lon="9.05393367384881"><ele>745.0</ele><time>2026-05-01T12:13:51Z</time></trkpt><trkpt lat="40.81704038149896" lon="9.053819548718046"><ele>747.0</ele><time>2026-05-01T12:13:52Z</time></trkpt><trkpt lat="40.81698737863593" lon="9.053687409126834"><ele>749.0</ele><time>2026-05-01T12:13:53Z</time></trkpt><trkpt lat="40.81689848298766" lon="9.053563914301769"><ele>751.0</ele><time>2026-05-01T12:13:54Z</time></trkpt><trkpt lat="40.8168432243077" lon="9.05341917223416"><ele>752.4</ele><time>2026-05-01T12:13:55Z</time></trkpt><trkpt lat="40.81680209519178" lon="9.053301018375265"><ele>753.8</ele><time>2026-05-01T12:13:56Z</time></trkpt><trkpt lat="40.81678240386311" lon="9.053190998702783"><ele>755.1999999999999</ele><time>2026-05-01T12:13:57Z</time></trkpt><trkpt lat="40.81676590390787" lon="9.053070193633944"><ele>756.5999999999999</ele><time>2026-05-01T12:13:58Z</time></trkpt><trkpt lat="40.8167311904632" lon="9.052949575223844"><ele>758.0</ele><time>2026-05-01T12:13:59Z</time></trkpt><trkpt lat="40.81665293718406" lon="9.052855682167822"><ele>758.0</ele><time>2026-05-01T12:14:00Z</time></trkpt><trkpt lat="40.81660080022918" lon="9.052730396329"><ele>758.0</ele><time>2026-05-01T12:14:01Z</time></trkpt><trkpt lat="40.816537784759504" lon="9.052612831905673"><ele>758.0</ele><time>2026-05-01T12:14:02Z</time></trkpt><trkpt lat="40.81646815386655" lon="9.052489110752267"><ele>758.0</ele><time>2026-05-01T12:14:03Z</time></trkpt><trkpt lat="40.81638329508747" lon="9.052378456202524"><ele>755.75</ele><time>2026-05-01T12:14:04Z</time></trkpt><trkpt lat="40.81629873568744" lon="9.052271320817287"><ele>753.5</ele><time>2026-05-01T12:14:05Z</time></trkpt><trkpt lat="40.81621854281166" lon="9.052157333895956"><ele>751.25</ele><time>2026-05-01T12:14:06Z</time></trkpt><trkpt lat="40.816128828487834" lon="9.052058459886522"><ele>749.0</ele><time>2026-05-01T12:14:07Z</time></trkpt><trkpt lat="40.81605062756126" lon="9.05193962920683"><ele>748.75</ele><time>2026-05-01T12:14:08Z</time></trkpt><trkpt lat="40.81598012911211" lon="9.051811339996453"><ele>748.5</ele><time>2026-05-01T12:14:09Z</time></trkpt><trkpt lat="40.81589367264017" lon="9.051695795571549"><ele>748.25</ele><time>2026-05-01T12:14:10Z</time></trkpt><trkpt lat="40.81582140745986" lon="9.0515713291057"><ele>748.0</ele><time>2026-05-01T12:14:11Z</time></trkpt><trkpt lat="40.81577844410244" lon="9.05142852695094"><ele>748.0</ele><time>2026-05-01T12:14:12Z</time></trkpt><trkpt lat="40.81572962135256" lon="9.051292787683835"><ele>748.0</ele><time>2026-05-01T12:14:13Z</time></trkpt><trkpt lat="40.81568723911686" lon="9.051175714086549"><ele>748.0</ele><time>2026-05-01T12:14:14Z</time></trkpt><trkpt lat="40.815660808663814" lon="9.051094363208064"><ele>748.0</ele><time>2026-05-01T12:14:15Z</time></trkpt><trkpt lat="40.81563263902059" lon="9.050956026151937"><ele>748.0</ele><time>2026-05-01T12:14:19Z</time></trkpt><trkpt lat="40.81562160712035" lon="9.050865952342484"><ele>745.6666666666667</ele><time>2026-05-01T12:14:20Z</time></trkpt><trkpt lat="40.815593062721106" lon="9.050760903226296"><ele>743.3333333333334</ele><time>2026-05-01T12:14:21Z</time></trkpt><trkpt lat="40.8155789931311" lon="9.05064754110227"><ele>741.0</ele><time>2026-05-01T12:14:22Z</time></trkpt><trkpt lat="40.8155441525278" lon="9.05054228311783"><ele>738.6666666666666</ele><time>2026-05-01T12:14:23Z</time></trkpt><trkpt lat="40.81548432950255" lon="9.050459451708486"><ele>736.3333333333333</ele><time>2026-05-01T12:14:24Z</time></trkpt><trkpt lat="40.81542766700916" lon="9.050362737272442"><ele>734.0</ele><time>2026-05-01T12:14:25Z</time></trkpt><trkpt lat="40.815348490182" lon="9.05025812770038"><ele>734.0</ele><time>2026-05-01T12:14:26Z</time></trkpt><trkpt lat="40.81527263575927" lon="9.050162515340544"><ele>734.0</ele><time>2026-05-01T12:14:27Z</time></trkpt><trkpt lat="40.81520367787684" lon="9.050085114197444"><ele>734.0</ele><time>2026-05-01T12:14:28Z</time></trkpt><trkpt lat="40.81513424518165" lon="9.050029658604839"><ele>734.0</ele><time>2026-05-01T12:14:29Z</time></trkpt><trkpt lat="40.815045871185205" lon="9.049981222904345"><ele>734.0</ele><time>2026-05-01T12:14:30Z</time></trkpt><trkpt lat="40.81494906120252" lon="9.049928099622038"><ele>733.5</ele><time>2026-05-01T12:14:31Z</time></trkpt><trkpt lat="40.81485074200316" lon="9.049862776543161"><ele>733.0</ele><time>2026-05-01T12:14:32Z</time></trkpt><trkpt lat="40.8147443086374" lon="9.049775379898836"><ele>732.5</ele><time>2026-05-01T12:14:33Z</time></trkpt><trkpt lat="40.81462860591419" lon="9.04966813702577"><ele>732.0</ele><time>2026-05-01T12:14:34Z</time></trkpt><trkpt lat="40.81450071807978" lon="9.049553496827233"><ele>732.0</ele><time>2026-05-01T12:14:35Z</time></trkpt><trkpt lat="40.81439221731048" lon="9.049459155384197"><ele>732.0</ele><time>2026-05-01T12:14:36Z</time></trkpt><trkpt lat="40.814314156891754" lon="9.049386654386293"><ele>732.0</ele><time>2026-05-01T12:14:37Z</time></trkpt><trkpt lat="40.81424533280964" lon="9.049324948958395"><ele>732.0</ele><time>2026-05-01T12:14:38Z</time></trkpt><trkpt lat="40.81417244097069" lon="9.049260731028587"><ele>732.0</ele><time>2026-05-01T12:14:39Z</time></trkpt><trkpt lat="40.81408001237284" lon="9.049179301192812"><ele>733.1666666666666</ele><time>2026-05-01T12:14:40Z</time></trkpt><trkpt lat="40.81398099813814" lon="9.049090869687955"><ele>734.3333333333334</ele><time>2026-05-01T12:14:41Z</time></trkpt><trkpt lat="40.81389488755247" lon="9.049005203105454"><ele>735.5</ele><time>2026-05-01T12:14:42Z</time></trkpt><trkpt lat="40.8138300465555" lon="9.048951195153316"><ele>736.6666666666667</ele><time>2026-05-01T12:14:43Z</time></trkpt><trkpt lat="40.813762529762066" lon="9.04889390572581"><ele>737.8333333333334</ele><time>2026-05-01T12:14:46Z</time></trkpt><trkpt lat="40.813711038404634" lon="9.04884417433653"><ele>739.0</ele><time>2026-05-01T12:15:18Z</time></trkpt><trkpt lat="40.81376638641787" lon="9.048897476771561"><ele>739.0</ele><time>2026-05-01T12:15:43Z</time></trkpt><trkpt lat="40.81374655606657" lon="9.048981575534283"><ele>739.0</ele><time>2026-05-01T12:16:04Z</time></trkpt><trkpt lat="40.813702840908554" lon="9.048902274988404"><ele>739.0</ele><time>2026-05-01T12:21:53Z</time></trkpt><trkpt lat="40.81366588522678" lon="9.048823582374764"><ele>739.0</ele><time>2026-05-01T12:21:55Z</time></trkpt><trkpt lat="40.81362858859461" lon="9.048740427978178"><ele>739.0</ele><time>2026-05-01T12:21:56Z</time></trkpt><trkpt lat="40.81358687098114" lon="9.04863445523078"><ele>739.0</ele><time>2026-05-01T12:21:57Z</time></trkpt><trkpt lat="40.813543444317794" lon="9.04851708874192"><ele>739.0</ele><time>2026-05-01T12:21:58Z</time></trkpt><trkpt lat="40.81350407810921" lon="9.048414526541357"><ele>739.0</ele><time>2026-05-01T12:21:59Z</time></trkpt><trkpt lat="40.81347316401779" lon="9.048323384581163"><ele>739.0</ele><time>2026-05-01T12:22:00Z</time></trkpt><trkpt lat="40.81345806782537" lon="9.048239191663361"><ele>739.0</ele><time>2026-05-01T12:22:01Z</time></trkpt><trkpt lat="40.81341992505446" lon="9.04811229726876"><ele>739.0</ele><time>2026-05-01T12:22:03Z</time></trkpt><trkpt lat="40.813387244523746" lon="9.047983487592518"><ele>739.0</ele><time>2026-05-01T12:22:05Z</time></trkpt><trkpt lat="40.813053867437496" lon="9.04805456015243"><ele>740.1666666666667</ele><time>2026-05-01T12:22:06Z</time></trkpt><trkpt lat="40.812966544651175" lon="9.048005324762645"><ele>741.3333333333334</ele><time>2026-05-01T12:22:07Z</time></trkpt><trkpt lat="40.8129026606882" lon="9.047943291385629"><ele>742.5</ele><time>2026-05-01T12:22:08Z</time></trkpt><trkpt lat="40.81285273259619" lon="9.047857006441118"><ele>743.6666666666666</ele><time>2026-05-01T12:22:09Z</time></trkpt><trkpt lat="40.81281326272516" lon="9.047769042628053"><ele>744.8333333333333</ele><time>2026-05-01T12:22:10Z</time></trkpt><trkpt lat="40.81281186322401" lon="9.047620602808024"><ele>746.0</ele><time>2026-05-01T12:22:12Z</time></trkpt><trkpt lat="40.81287103637529" lon="9.047452632881088"><ele>747.3333333333333</ele><time>2026-05-01T12:22:14Z</time></trkpt><trkpt lat="40.81289463336386" lon="9.04736099758625"><ele>748.6666666666666</ele><time>2026-05-01T12:22:15Z</time></trkpt><trkpt lat="40.81290526862466" lon="9.047259393714675"><ele>750.0</ele><time>2026-05-01T12:22:16Z</time></trkpt><trkpt lat="40.81290190274454" lon="9.047148510027913"><ele>751.3333333333334</ele><time>2026-05-01T12:22:17Z</time></trkpt><trkpt lat="40.812888349482606" lon="9.047041130331365"><ele>752.6666666666667</ele><time>2026-05-01T12:22:18Z</time></trkpt><trkpt lat="40.81283502424105" lon="9.046915679102458"><ele>754.0</ele><time>2026-05-01T12:22:20Z</time></trkpt><trkpt lat="40.812854567101674" lon="9.046818061707066"><ele>754.0</ele><time>2026-05-01T12:22:21Z</time></trkpt><trkpt lat="40.81282695713124" lon="9.046706610417893"><ele>754.0</ele><time>2026-05-01T12:22:23Z</time></trkpt><trkpt lat="40.812871238931976" lon="9.046564308625593"><ele>754.0</ele><time>2026-05-01T12:22:25Z</time></trkpt><trkpt lat="40.812943755269735" lon="9.046498786726014"><ele>754.0</ele><time>2026-05-01T12:22:25.999Z</time></trkpt><trkpt lat="40.8130170630487" lon="9.046424600572681"><ele>754.0</ele><time>2026-05-01T12:22:26.999Z</time></trkpt><trkpt lat="40.81305566978711" lon="9.04632898560035"><ele>757.0</ele><time>2026-05-01T12:22:27.999Z</time></trkpt><trkpt lat="40.813039139619825" lon="9.04622815877997"><ele>760.0</ele><time>2026-05-01T12:22:28.999Z</time></trkpt><trkpt lat="40.81301379602701" lon="9.046131309762533"><ele>763.0</ele><time>2026-05-01T12:22:29.999Z</time></trkpt><trkpt lat="40.81296290846968" lon="9.046074776247732"><ele>766.0</ele><time>2026-05-01T12:22:31.999Z</time></trkpt><trkpt lat="40.81292298576267" lon="9.046008199363168"><ele>768.9999999999999</ele><time>2026-05-01T12:23:26Z</time></trkpt><trkpt lat="40.81286470262061" lon="9.045910574680196"><ele>772.0</ele><time>2026-05-01T12:23:29Z</time></trkpt><trkpt lat="40.81279495867043" lon="9.04582670139274"><ele>771.4999999999999</ele><time>2026-05-01T12:23:31Z</time></trkpt><trkpt lat="40.81271697152504" lon="9.045689174812665"><ele>771.0</ele><time>2026-05-01T12:23:33Z</time></trkpt><trkpt lat="40.8126767950081" lon="9.045614637308429"><ele>770.5</ele><time>2026-05-01T12:23:34Z</time></trkpt><trkpt lat="40.812632840222605" lon="9.04552874630274"><ele>770.0</ele><time>2026-05-01T12:23:36Z</time></trkpt><trkpt lat="40.81258227573648" lon="9.045465139546708"><ele>769.4999999999999</ele><time>2026-05-01T12:23:39Z</time></trkpt><trkpt lat="40.81254717401908" lon="9.045387697383038"><ele>769.0</ele><time>2026-05-01T12:23:41Z</time></trkpt><trkpt lat="40.81247085885547" lon="9.045305761483027"><ele>767.9999999999999</ele><time>2026-05-01T12:23:43Z</time></trkpt><trkpt lat="40.812398364031054" lon="9.045196086108444"><ele>767.0</ele><time>2026-05-01T12:23:45Z</time></trkpt><trkpt lat="40.8123495815067" lon="9.045135670830751"><ele>766.0</ele><time>2026-05-01T12:23:47Z</time></trkpt><trkpt lat="40.81230216136771" lon="9.045076943064505"><ele>765.0</ele><time>2026-05-01T12:23:49Z</time></trkpt><trkpt lat="40.812233934570315" lon="9.045021001781429"><ele>764.0</ele><time>2026-05-01T12:23:52Z</time></trkpt><trkpt lat="40.812177448482515" lon="9.044949987994663"><ele>763.0</ele><time>2026-05-01T12:23:54Z</time></trkpt><trkpt lat="40.812105992105124" lon="9.044834953556482"><ele>758.8</ele><time>2026-05-01T12:23:56Z</time></trkpt><trkpt lat="40.81209948343769" lon="9.044747679855814"><ele>754.5999999999999</ele><time>2026-05-01T12:23:57Z</time></trkpt><trkpt lat="40.812141228007796" lon="9.044608696286184"><ele>750.4000000000001</ele><time>2026-05-01T12:23:59Z</time></trkpt><trkpt lat="40.81221369925123" lon="9.04455616632241"><ele>746.2</ele><time>2026-05-01T12:24:00Z</time></trkpt><trkpt lat="40.812231820778564" lon="9.044392595076042"><ele>742.0</ele><time>2026-05-01T12:24:02Z</time></trkpt><trkpt lat="40.812187177754396" lon="9.044315764044583"><ele>742.0</ele><time>2026-05-01T12:24:03Z</time></trkpt><trkpt lat="40.81213046051723" lon="9.044231954050876"><ele>742.0</ele><time>2026-05-01T12:24:04Z</time></trkpt><trkpt lat="40.812067458560456" lon="9.044161909729675"><ele>742.0</ele><time>2026-05-01T12:24:05Z</time></trkpt><trkpt lat="40.812000642633386" lon="9.044089307475916"><ele>742.0</ele><time>2026-05-01T12:24:05.999Z</time></trkpt><trkpt lat="40.811933601997445" lon="9.044017290916893"><ele>742.0</ele><time>2026-05-01T12:24:06.999Z</time></trkpt><trkpt lat="40.81186316540299" lon="9.043941626176032"><ele>742.0</ele><time>2026-05-01T12:24:07.999Z</time></trkpt><trkpt lat="40.81179732144038" lon="9.043868108383146"><ele>740.0</ele><time>2026-05-01T12:24:08.999Z</time></trkpt><trkpt lat="40.81173673221277" lon="9.043788061647241"><ele>738.0</ele><time>2026-05-01T12:24:09.999Z</time></trkpt><trkpt lat="40.811690860373574" lon="9.04370065827275"><ele>736.0</ele><time>2026-05-01T12:24:10.999Z</time></trkpt><trkpt lat="40.81164401651046" lon="9.04359861085893"><ele>734.0</ele><time>2026-05-01T12:24:11.999Z</time></trkpt><trkpt lat="40.81160328494085" lon="9.04349631701697"><ele>732.0</ele><time>2026-05-01T12:24:12.999Z</time></trkpt><trkpt lat="40.8115701498939" lon="9.043389791715589"><ele>730.0</ele><time>2026-05-01T12:24:13.999Z</time></trkpt><trkpt lat="40.811556449461854" lon="9.043292005207853"><ele>727.4</ele><time>2026-05-01T12:24:14.999Z</time></trkpt><trkpt lat="40.811582633321066" lon="9.043161986863616"><ele>724.8</ele><time>2026-05-01T12:24:16.999Z</time></trkpt><trkpt lat="40.811693418262934" lon="9.043119942333151"><ele>722.2</ele><time>2026-05-01T12:24:18.999Z</time></trkpt><trkpt lat="40.81176313410754" lon="9.043163158695634"><ele>719.6</ele><time>2026-05-01T12:24:19.999Z</time></trkpt><trkpt lat="40.81184437729363" lon="9.043153734879997"><ele>717.0</ele><time>2026-05-01T12:24:20.999Z</time></trkpt><trkpt lat="40.811928072717606" lon="9.0431783393332"><ele>715.5</ele><time>2026-05-01T12:24:21.999Z</time></trkpt><trkpt lat="40.81201789483663" lon="9.04319231135082"><ele>714.0</ele><time>2026-05-01T12:24:22.999Z</time></trkpt><trkpt lat="40.81211045329472" lon="9.043209457489315"><ele>712.5</ele><time>2026-05-01T12:24:23.999Z</time></trkpt><trkpt lat="40.812195867870464" lon="9.043220489291802"><ele>711.0</ele><time>2026-05-01T12:24:24.999Z</time></trkpt><trkpt lat="40.81227499405267" lon="9.043232399945243"><ele>709.5</ele><time>2026-05-01T12:24:25.999Z</time></trkpt><trkpt lat="40.81235057005031" lon="9.04323997697583"><ele>708.0</ele><time>2026-05-01T12:24:26.999Z</time></trkpt><trkpt lat="40.81242651464037" lon="9.043246227171792"><ele>708.0</ele><time>2026-05-01T12:24:27.999Z</time></trkpt><trkpt lat="40.81251228002618" lon="9.04325571261703"><ele>708.0</ele><time>2026-05-01T12:24:28.999Z</time></trkpt><trkpt lat="40.81259259535382" lon="9.04325910947538"><ele>708.0</ele><time>2026-05-01T12:24:29.999Z</time></trkpt><trkpt lat="40.81266727444068" lon="9.043257533384542"><ele>708.0</ele><time>2026-05-01T12:24:30.999Z</time></trkpt><trkpt lat="40.81273571322402" lon="9.043256473207265"><ele>708.0</ele><time>2026-05-01T12:24:31.999Z</time></trkpt><trkpt lat="40.81280038904152" lon="9.04325582674372"><ele>708.0</ele><time>2026-05-01T12:24:32.999Z</time></trkpt><trkpt lat="40.81286535473254" lon="9.04323893498571"><ele>708.0</ele><time>2026-05-01T12:24:33.999Z</time></trkpt><trkpt lat="40.81292922748472" lon="9.0432311549186"><ele>706.5</ele><time>2026-05-01T12:24:34.999Z</time></trkpt><trkpt lat="40.81301417407847" lon="9.04315461893373"><ele>705.0</ele><time>2026-05-01T12:24:36.999Z</time></trkpt><trkpt lat="40.813023762610676" lon="9.04302396189715"><ele>703.5</ele><time>2026-05-01T12:24:38.999Z</time></trkpt><trkpt lat="40.812929397412006" lon="9.042956089897835"><ele>702.0</ele><time>2026-05-01T12:24:39.999Z</time></trkpt><trkpt lat="40.81289882585108" lon="9.042879574669293"><ele>700.5</ele><time>2026-05-01T12:24:40.999Z</time></trkpt><trkpt lat="40.812855060121045" lon="9.042812796388906"><ele>699.0</ele><time>2026-05-01T12:24:41.999Z</time></trkpt><trkpt lat="40.81277900435096" lon="9.042686849552961"><ele>699.0</ele><time>2026-05-01T12:24:43.999Z</time></trkpt><trkpt lat="40.81271733354611" lon="9.042579375377809"><ele>699.0</ele><time>2026-05-01T12:24:46Z</time></trkpt><trkpt lat="40.81267052810165" lon="9.042519287615944"><ele>699.0</ele><time>2026-05-01T12:25:02Z</time></trkpt><trkpt lat="40.812577778138994" lon="9.042468620900141"><ele>699.0</ele><time>2026-05-01T12:25:04Z</time></trkpt><trkpt lat="40.812514833232406" lon="9.042421355483917"><ele>699.0</ele><time>2026-05-01T12:25:05Z</time></trkpt><trkpt lat="40.81245788712577" lon="9.042370746984579"><ele>699.0</ele><time>2026-05-01T12:25:06Z</time></trkpt><trkpt lat="40.812359207299934" lon="9.042279063543555"><ele>697.6</ele><time>2026-05-01T12:25:08Z</time></trkpt><trkpt lat="40.812305613533056" lon="9.04222051932977"><ele>696.2</ele><time>2026-05-01T12:25:09Z</time></trkpt><trkpt lat="40.81221859689987" lon="9.042114710657943"><ele>694.8000000000001</ele><time>2026-05-01T12:25:11Z</time></trkpt><trkpt lat="40.81214783412232" lon="9.042020197173553"><ele>693.4000000000001</ele><time>2026-05-01T12:25:13Z</time></trkpt><trkpt lat="40.812077568294825" lon="9.041917567703626"><ele>692.0</ele><time>2026-05-01T12:25:15Z</time></trkpt><trkpt lat="40.812020345983896" lon="9.041835179635134"><ele>692.0</ele><time>2026-05-01T12:25:17Z</time></trkpt><trkpt lat="40.81195418459092" lon="9.041745300120512"><ele>692.0</ele><time>2026-05-01T12:25:19Z</time></trkpt><trkpt lat="40.81191150442762" lon="9.041657031640591"><ele>692.0</ele><time>2026-05-01T12:25:21Z</time></trkpt><trkpt lat="40.81190043753582" lon="9.041546386846235"><ele>692.0</ele><time>2026-05-01T12:25:24Z</time></trkpt><trkpt lat="40.81195072731698" lon="9.041473866186479"><ele>692.0</ele><time>2026-05-01T12:25:26Z</time></trkpt><trkpt lat="40.8120299030551" lon="9.041389371542405"><ele>692.0</ele><time>2026-05-01T12:25:28Z</time></trkpt><trkpt lat="40.81212909049186" lon="9.041336490580562"><ele>689.6666666666666</ele><time>2026-05-01T12:25:30Z</time></trkpt><trkpt lat="40.81224480166128" lon="9.041264450208889"><ele>687.3333333333333</ele><time>2026-05-01T12:25:32Z</time></trkpt><trkpt lat="40.81231545418322" lon="9.041229312795094"><ele>685.0</ele><time>2026-05-01T12:25:33Z</time></trkpt><trkpt lat="40.812379451097875" lon="9.041206813914238"><ele>682.6666666666666</ele><time>2026-05-01T12:25:34Z</time></trkpt><trkpt lat="40.81244360633373" lon="9.04117428910712"><ele>680.3333333333334</ele><time>2026-05-01T12:25:35Z</time></trkpt><trkpt lat="40.81251586368746" lon="9.041127610800071"><ele>678.0</ele><time>2026-05-01T12:25:36Z</time></trkpt><trkpt lat="40.812573968908445" lon="9.041090545759506"><ele>678.0</ele><time>2026-05-01T12:25:37Z</time></trkpt><trkpt lat="40.81263617709719" lon="9.041049759346448"><ele>678.0</ele><time>2026-05-01T12:25:38Z</time></trkpt><trkpt lat="40.81269981678924" lon="9.041002016423166"><ele>678.0</ele><time>2026-05-01T12:25:39Z</time></trkpt><trkpt lat="40.812780898869754" lon="9.040943736959363"><ele>678.0</ele><time>2026-05-01T12:25:41Z</time></trkpt><trkpt lat="40.81284798790882" lon="9.040888170785093"><ele>678.0</ele><time>2026-05-01T12:25:43Z</time></trkpt><trkpt lat="40.81293571288444" lon="9.04083241025636"><ele>678.0</ele><time>2026-05-01T12:25:45Z</time></trkpt><trkpt lat="40.813016634835634" lon="9.040751399644929"><ele>673.4</ele><time>2026-05-01T12:25:47Z</time></trkpt><trkpt lat="40.813087370172994" lon="9.04062535438563"><ele>668.8</ele><time>2026-05-01T12:25:49Z</time></trkpt><trkpt lat="40.813148680732986" lon="9.040530894366363"><ele>664.2</ele><time>2026-05-01T12:25:51Z</time></trkpt><trkpt lat="40.81317285095886" lon="9.040413083159645"><ele>659.6</ele><time>2026-05-01T12:25:53Z</time></trkpt><trkpt lat="40.813134128828814" lon="9.04026907374665"><ele>655.0</ele><time>2026-05-01T12:25:55Z</time></trkpt><trkpt lat="40.81309292991315" lon="9.040193843327334"><ele>655.0</ele><time>2026-05-01T12:25:57Z</time></trkpt><trkpt lat="40.81304394765562" lon="9.040135114771612"><ele>655.0</ele><time>2026-05-01T12:25:59Z</time></trkpt><trkpt lat="40.81295374627481" lon="9.040035673319013"><ele>655.0</ele><time>2026-05-01T12:26:01Z</time></trkpt><trkpt lat="40.81287058628429" lon="9.039927577894542"><ele>655.0</ele><time>2026-05-01T12:26:03Z</time></trkpt><trkpt lat="40.81281076851981" lon="9.039880876794577"><ele>655.0</ele><time>2026-05-01T12:26:04Z</time></trkpt><trkpt lat="40.81275841435866" lon="9.039832368572247"><ele>655.0</ele><time>2026-05-01T12:26:05Z</time></trkpt><trkpt lat="40.812705879739596" lon="9.039778839365095"><ele>652.2</ele><time>2026-05-01T12:26:06Z</time></trkpt><trkpt lat="40.81258928635392" lon="9.039711425905422"><ele>649.4</ele><time>2026-05-01T12:26:08Z</time></trkpt><trkpt lat="40.812503753372006" lon="9.03966527818128"><ele>646.5999999999999</ele><time>2026-05-01T12:26:10Z</time></trkpt><trkpt lat="40.812438767900396" lon="9.039609168224786"><ele>643.8</ele><time>2026-05-01T12:26:12Z</time></trkpt><trkpt lat="40.812490241361346" lon="9.039539870991737"><ele>641.0</ele><time>2026-05-01T12:26:16Z</time></trkpt><trkpt lat="40.81258983217611" lon="9.039539232187368"><ele>641.0</ele><time>2026-05-01T12:26:18Z</time></trkpt><trkpt lat="40.81269600426675" lon="9.039552465792912"><ele>641.0</ele><time>2026-05-01T12:26:20Z</time></trkpt><trkpt lat="40.81279779757735" lon="9.039532588709509"><ele>641.0</ele><time>2026-05-01T12:26:22Z</time></trkpt><trkpt lat="40.8128008966894" lon="9.03941977768065"><ele>641.0</ele><time>2026-05-01T12:26:24Z</time></trkpt><trkpt lat="40.81273556755823" lon="9.03937676682483"><ele>641.0</ele><time>2026-05-01T12:26:26Z</time></trkpt><trkpt lat="40.812636043683646" lon="9.03929303566276"><ele>641.0</ele><time>2026-05-01T12:26:28Z</time></trkpt><trkpt lat="40.81257395459972" lon="9.039254584283176"><ele>641.0</ele><time>2026-05-01T12:26:29Z</time></trkpt><trkpt lat="40.81249920989233" lon="9.039208295249002"><ele>641.0</ele><time>2026-05-01T12:26:30Z</time></trkpt><trkpt lat="40.812441941480934" lon="9.039167435642375"><ele>641.0</ele><time>2026-05-01T12:26:31Z</time></trkpt><trkpt lat="40.8123577838277" lon="9.039087666939334"><ele>641.0</ele><time>2026-05-01T12:26:33Z</time></trkpt><trkpt lat="40.81229273250088" lon="9.038975959546098"><ele>641.0</ele><time>2026-05-01T12:26:35Z</time></trkpt><trkpt lat="40.81228085744471" lon="9.038844801187528"><ele>638.4</ele><time>2026-05-01T12:26:37Z</time></trkpt><trkpt lat="40.812295957346855" lon="9.038706342828219"><ele>635.8</ele><time>2026-05-01T12:26:39Z</time></trkpt><trkpt lat="40.81233642185872" lon="9.038584190754896"><ele>633.1999999999999</ele><time>2026-05-01T12:26:41Z</time></trkpt><trkpt lat="40.81237664594687" lon="9.038473214838191"><ele>630.5999999999999</ele><time>2026-05-01T12:26:43Z</time></trkpt><trkpt lat="40.81245021825579" lon="9.03845927358985"><ele>628.0</ele><time>2026-05-01T12:26:52Z</time></trkpt><trkpt lat="40.81254735577779" lon="9.038428376516126"><ele>628.0</ele><time>2026-05-01T12:26:54Z</time></trkpt><trkpt lat="40.81262722612162" lon="9.038344410352488"><ele>628.0</ele><time>2026-05-01T12:26:56Z</time></trkpt><trkpt lat="40.8127222454642" lon="9.038280249164766"><ele>628.0</ele><time>2026-05-01T12:26:58Z</time></trkpt><trkpt lat="40.812821001098186" lon="9.038191092444482"><ele>628.0</ele><time>2026-05-01T12:27:00Z</time></trkpt><trkpt lat="40.812872573495135" lon="9.038138358724726"><ele>628.0</ele><time>2026-05-01T12:27:01Z</time></trkpt><trkpt lat="40.81292645588663" lon="9.038075485831381"><ele>624.3333333333334</ele><time>2026-05-01T12:27:02Z</time></trkpt><trkpt lat="40.81294946579637" lon="9.0379912748927"><ele>620.6666666666667</ele><time>2026-05-01T12:27:04Z</time></trkpt><trkpt lat="40.81298301450463" lon="9.037869425751847"><ele>617.0</ele><time>2026-05-01T12:27:06Z</time></trkpt><trkpt lat="40.812998661842855" lon="9.037742392243338"><ele>613.3333333333334</ele><time>2026-05-01T12:27:08Z</time></trkpt><trkpt lat="40.81298328960754" lon="9.037609466626435"><ele>609.6666666666666</ele><time>2026-05-01T12:27:10Z</time></trkpt><trkpt lat="40.8129718703989" lon="9.037527466433461"><ele>606.0</ele><time>2026-05-01T12:27:11Z</time></trkpt><trkpt lat="40.81297942908024" lon="9.037433604442807"><ele>605.0</ele><time>2026-05-01T12:27:12Z</time></trkpt><trkpt lat="40.813006294915674" lon="9.037354481514194"><ele>604.0</ele><time>2026-05-01T12:27:13Z</time></trkpt><trkpt lat="40.8130210982278" lon="9.037220842817204"><ele>603.0</ele><time>2026-05-01T12:27:15Z</time></trkpt><trkpt lat="40.81302632215218" lon="9.037123876683067"><ele>602.0</ele><time>2026-05-01T12:27:16Z</time></trkpt><trkpt lat="40.81304412940799" lon="9.037040642322212"><ele>601.0</ele><time>2026-05-01T12:27:17Z</time></trkpt><trkpt lat="40.81305603035248" lon="9.036867224800606"><ele>600.0</ele><time>2026-05-01T12:27:19Z</time></trkpt><trkpt lat="40.8130423987368" lon="9.036708465885336"><ele>598.3333333333334</ele><time>2026-05-01T12:27:21Z</time></trkpt><trkpt lat="40.81303313423794" lon="9.036608831456673"><ele>596.6666666666666</ele><time>2026-05-01T12:27:22Z</time></trkpt><trkpt lat="40.81302090097298" lon="9.03650962127577"><ele>595.0</ele><time>2026-05-01T12:27:23Z</time></trkpt><trkpt lat="40.813000840651" lon="9.036429639970473"><ele>593.3333333333333</ele><time>2026-05-01T12:27:24Z</time></trkpt><trkpt lat="40.8129749920536" lon="9.036293334214456"><ele>591.6666666666666</ele><time>2026-05-01T12:27:26Z</time></trkpt><trkpt lat="40.81296846854017" lon="9.036195603154999"><ele>590.0</ele><time>2026-05-01T12:27:27Z</time></trkpt><trkpt lat="40.81293389680906" lon="9.036057040173171"><ele>590.0</ele><time>2026-05-01T12:27:29Z</time></trkpt><trkpt lat="40.812877715416" lon="9.035933596791503"><ele>590.0</ele><time>2026-05-01T12:27:31Z</time></trkpt><trkpt lat="40.81280775121535" lon="9.035796076941766"><ele>590.0</ele><time>2026-05-01T12:27:33Z</time></trkpt><trkpt lat="40.81272670665071" lon="9.0356933837038"><ele>590.0</ele><time>2026-05-01T12:27:35Z</time></trkpt><trkpt lat="40.81266935221261" lon="9.035652218770649"><ele>590.0</ele><time>2026-05-01T12:27:36Z</time></trkpt><trkpt lat="40.8126029918523" lon="9.03553851423907"><ele>589.0</ele><time>2026-05-01T12:27:38Z</time></trkpt><trkpt lat="40.812497305612204" lon="9.035494590324618"><ele>588.0</ele><time>2026-05-01T12:27:40Z</time></trkpt><trkpt lat="40.81243458063654" lon="9.035478116705274"><ele>587.0</ele><time>2026-05-01T12:27:41Z</time></trkpt><trkpt lat="40.812320544807335" lon="9.035436152338825"><ele>586.0</ele><time>2026-05-01T12:27:43Z</time></trkpt><trkpt lat="40.81220081646049" lon="9.035399033946181"><ele>585.0</ele><time>2026-05-01T12:27:45Z</time></trkpt><trkpt lat="40.81213670467495" lon="9.035386422672778"><ele>585.0</ele><time>2026-05-01T12:27:46Z</time></trkpt><trkpt lat="40.81206254872433" lon="9.035374722236604"><ele>585.0</ele><time>2026-05-01T12:27:47Z</time></trkpt><trkpt lat="40.8119961685479" lon="9.035374260231956"><ele>585.0</ele><time>2026-05-01T12:27:48Z</time></trkpt><trkpt lat="40.811873052614274" lon="9.035383297250482"><ele>585.0</ele><time>2026-05-01T12:27:50Z</time></trkpt><trkpt lat="40.81175732926187" lon="9.035372143740478"><ele>585.0</ele><time>2026-05-01T12:27:52Z</time></trkpt><trkpt lat="40.81163935892812" lon="9.035401658426638"><ele>582.8</ele><time>2026-05-01T12:27:54Z</time></trkpt><trkpt lat="40.81157393478743" lon="9.035407187388845"><ele>580.6</ele><time>2026-05-01T12:27:55Z</time></trkpt><trkpt lat="40.81146549333332" lon="9.035423766132684"><ele>578.4</ele><time>2026-05-01T12:27:57Z</time></trkpt><trkpt lat="40.81137505760716" lon="9.035495629463355"><ele>576.2</ele><time>2026-05-01T12:27:59Z</time></trkpt><trkpt lat="40.811309271479296" lon="9.035546870112565"><ele>574.0</ele><time>2026-05-01T12:28:02Z</time></trkpt><trkpt lat="40.81123160908138" lon="9.035624392947158"><ele>574.0</ele><time>2026-05-01T12:28:05Z</time></trkpt><trkpt lat="40.811170118683435" lon="9.035666880803195"><ele>574.0</ele><time>2026-05-01T12:28:07Z</time></trkpt><trkpt lat="40.811070202600575" lon="9.035709356077495"><ele>574.0</ele><time>2026-05-01T12:28:09Z</time></trkpt><trkpt lat="40.810964664102336" lon="9.035777506137421"><ele>574.0</ele><time>2026-05-01T12:28:11Z</time></trkpt><trkpt lat="40.81086231706234" lon="9.035827697744127"><ele>574.0</ele><time>2026-05-01T12:28:13Z</time></trkpt><trkpt lat="40.810798900718666" lon="9.035844326606826"><ele>575.0</ele><time>2026-05-01T12:28:14Z</time></trkpt><trkpt lat="40.810668871523056" lon="9.035869543725651"><ele>576.0</ele><time>2026-05-01T12:28:16Z</time></trkpt><trkpt lat="40.81054360446611" lon="9.035861084224056"><ele>577.0</ele><time>2026-05-01T12:28:18Z</time></trkpt><trkpt lat="40.81043882228981" lon="9.035918234433995"><ele>578.0</ele><time>2026-05-01T12:28:20Z</time></trkpt><trkpt lat="40.81035362642757" lon="9.035964519632834"><ele>578.0</ele><time>2026-05-01T12:28:22Z</time></trkpt><trkpt lat="40.810285663696376" lon="9.03598378410383"><ele>578.0</ele><time>2026-05-01T12:28:24Z</time></trkpt><trkpt lat="40.81021555566493" lon="9.035984528407887"><ele>578.0</ele><time>2026-05-01T12:28:26Z</time></trkpt><trkpt lat="40.81014275613549" lon="9.035990958903195"><ele>578.0</ele><time>2026-05-01T12:28:28Z</time></trkpt><trkpt lat="40.81007844291786" lon="9.035995296514251"><ele>578.0</ele><time>2026-05-01T12:28:32Z</time></trkpt><trkpt lat="40.81001354344468" lon="9.036075645137574"><ele>578.0</ele><time>2026-05-01T12:29:36Z</time></trkpt><trkpt lat="40.809972253695754" lon="9.036180890922848"><ele>575.5</ele><time>2026-05-01T12:29:39Z</time></trkpt><trkpt lat="40.80998918701116" lon="9.036286788185182"><ele>573.0</ele><time>2026-05-01T12:30:40.999Z</time></trkpt><trkpt lat="40.80999861599893" lon="9.036384164969856"><ele>570.5</ele><time>2026-05-01T12:30:41.999Z</time></trkpt><trkpt lat="40.8100116429389" lon="9.036505658970315"><ele>568.0</ele><time>2026-05-01T12:30:42.999Z</time></trkpt><trkpt lat="40.81002157226076" lon="9.03662175500253"><ele>565.5</ele><time>2026-05-01T12:30:43.999Z</time></trkpt><trkpt lat="40.810039393518124" lon="9.03673842040201"><ele>563.0</ele><time>2026-05-01T12:30:44.999Z</time></trkpt><trkpt lat="40.810053949217576" lon="9.036842035681389"><ele>563.0</ele><time>2026-05-01T12:30:45.999Z</time></trkpt><trkpt lat="40.81007783992221" lon="9.036983477501737"><ele>563.0</ele><time>2026-05-01T12:30:47.999Z</time></trkpt><trkpt lat="40.81010141237297" lon="9.037080761927163"><ele>563.0</ele><time>2026-05-01T12:30:48.999Z</time></trkpt><trkpt lat="40.81013686757753" lon="9.037211821822181"><ele>563.0</ele><time>2026-05-01T12:30:50.999Z</time></trkpt><trkpt lat="40.81016418418582" lon="9.037355652152181"><ele>563.0</ele><time>2026-05-01T12:30:52.999Z</time></trkpt><trkpt lat="40.81020154205432" lon="9.037503304961701"><ele>567.8333333333333</ele><time>2026-05-01T12:30:54.999Z</time></trkpt><trkpt lat="40.81025167462187" lon="9.037637684142943"><ele>572.6666666666666</ele><time>2026-05-01T12:30:56.999Z</time></trkpt><trkpt lat="40.810301109592544" lon="9.037720234769006"><ele>577.5</ele><time>2026-05-01T12:30:58.999Z</time></trkpt><trkpt lat="40.810336089032305" lon="9.037842761846509"><ele>582.3333333333334</ele><time>2026-05-01T12:31:00.999Z</time></trkpt><trkpt lat="40.81034540242466" lon="9.03793679376561"><ele>587.1666666666667</ele><time>2026-05-01T12:31:01.999Z</time></trkpt><trkpt lat="40.810359132212994" lon="9.038025474271125"><ele>592.0</ele><time>2026-05-01T12:31:02.998Z</time></trkpt><trkpt lat="40.810380895263094" lon="9.038108482017234"><ele>592.0</ele><time>2026-05-01T12:31:03.998Z</time></trkpt><trkpt lat="40.81041951528554" lon="9.03819139593554"><ele>592.0</ele><time>2026-05-01T12:31:05.998Z</time></trkpt><trkpt lat="40.81045301910984" lon="9.038267212661005"><ele>592.0</ele><time>2026-05-01T12:31:06.998Z</time></trkpt><trkpt lat="40.81048824771231" lon="9.03835952770064"><ele>592.0</ele><time>2026-05-01T12:31:07.998Z</time></trkpt><trkpt lat="40.810523734886054" lon="9.03843638318378"><ele>592.0</ele><time>2026-05-01T12:31:08.998Z</time></trkpt><trkpt lat="40.810562487952666" lon="9.038599968641398"><ele>592.0</ele><time>2026-05-01T12:31:10.999Z</time></trkpt><trkpt lat="40.810560918507925" lon="9.038688474973357"><ele>589.8000000000001</ele><time>2026-05-01T12:31:11.999Z</time></trkpt><trkpt lat="40.810547298165254" lon="9.038793671164276"><ele>587.6</ele><time>2026-05-01T12:31:12.999Z</time></trkpt><trkpt lat="40.81050425005124" lon="9.03892468986325"><ele>585.4000000000001</ele><time>2026-05-01T12:31:14.999Z</time></trkpt><trkpt lat="40.81040315563115" lon="9.039027113794186"><ele>583.2</ele><time>2026-05-01T12:31:16.999Z</time></trkpt><trkpt lat="40.81034564324388" lon="9.039066627399645"><ele>581.0</ele><time>2026-05-01T12:31:17.999Z</time></trkpt><trkpt lat="40.81026542546688" lon="9.03910539075858"><ele>583.3333333333333</ele><time>2026-05-01T12:31:18.999Z</time></trkpt><trkpt lat="40.81018595474663" lon="9.039136535296487"><ele>585.6666666666666</ele><time>2026-05-01T12:31:19.999Z</time></trkpt><trkpt lat="40.8101164224444" lon="9.039175242782404"><ele>588.0</ele><time>2026-05-01T12:31:20.999Z</time></trkpt><trkpt lat="40.810025762143646" lon="9.039208268241289"><ele>590.3333333333334</ele><time>2026-05-01T12:31:22.999Z</time></trkpt><trkpt lat="40.80998268282308" lon="9.039271144095755"><ele>592.6666666666667</ele><time>2026-05-01T12:31:24.999Z</time></trkpt><trkpt lat="40.8098864866098" lon="9.039353204337027"><ele>595.0</ele><time>2026-05-01T12:31:26.999Z</time></trkpt><trkpt lat="40.80983502882482" lon="9.039403903272243"><ele>586.0</ele><time>2026-05-01T12:31:27.999Z</time></trkpt><trkpt lat="40.80975761621176" lon="9.039490012418277"><ele>577.0</ele><time>2026-05-01T12:31:29.999Z</time></trkpt><trkpt lat="40.80970718799917" lon="9.039558216938588"><ele>568.0</ele><time>2026-05-01T12:31:30.999Z</time></trkpt><trkpt lat="40.809650482138274" lon="9.039646377174163"><ele>559.0</ele><time>2026-05-01T12:31:31.999Z</time></trkpt><trkpt lat="40.80960570463546" lon="9.039721263196004"><ele>550.0</ele><time>2026-05-01T12:31:32.999Z</time></trkpt><trkpt lat="40.809537177877274" lon="9.0398496407146"><ele>550.0</ele><time>2026-05-01T12:31:34.999Z</time></trkpt><trkpt lat="40.80944314817947" lon="9.039961307413606"><ele>550.0</ele><time>2026-05-01T12:31:36.999Z</time></trkpt><trkpt lat="40.80932066657637" lon="9.040017945097684"><ele>550.0</ele><time>2026-05-01T12:31:38.999Z</time></trkpt><trkpt lat="40.80920294095314" lon="9.040077692671593"><ele>550.0</ele><time>2026-05-01T12:31:40.999Z</time></trkpt><trkpt lat="40.80910912000245" lon="9.04015700468615"><ele>550.0</ele><time>2026-05-01T12:31:42.999Z</time></trkpt><trkpt lat="40.808998910037" lon="9.040231403295353"><ele>550.0</ele><time>2026-05-01T12:31:44.999Z</time></trkpt><trkpt lat="40.80889934770916" lon="9.040279367260574"><ele>550.0</ele><time>2026-05-01T12:31:46.999Z</time></trkpt><trkpt lat="40.80882164253877" lon="9.040319301725715"><ele>550.0</ele><time>2026-05-01T12:31:48.999Z</time></trkpt><trkpt lat="40.808780763683934" lon="9.040385639970728"><ele>550.0</ele><time>2026-05-01T12:31:49.999Z</time></trkpt><trkpt lat="40.808743746760555" lon="9.04046227557886"><ele>550.0</ele><time>2026-05-01T12:31:50.999Z</time></trkpt><trkpt lat="40.80871589512399" lon="9.040552141784875"><ele>550.0</ele><time>2026-05-01T12:31:51.999Z</time></trkpt><trkpt lat="40.80869505629687" lon="9.040654716504257"><ele>550.0</ele><time>2026-05-01T12:31:52.999Z</time></trkpt><trkpt lat="40.80865313217174" lon="9.040821922237882"><ele>550.0</ele><time>2026-05-01T12:31:54.999Z</time></trkpt><trkpt lat="40.808619883993934" lon="9.040950897274492"><ele>550.0</ele><time>2026-05-01T12:31:56.999Z</time></trkpt><trkpt lat="40.808602402541275" lon="9.041043437100353"><ele>550.0</ele><time>2026-05-01T12:31:58.999Z</time></trkpt><trkpt lat="40.80854234278961" lon="9.041143673924086"><ele>548.6</ele><time>2026-05-01T12:32:00.999Z</time></trkpt><trkpt lat="40.8084732668272" lon="9.041224308561322"><ele>547.2</ele><time>2026-05-01T12:32:02.999Z</time></trkpt><trkpt lat="40.80837037414806" lon="9.041251068707572"><ele>545.8</ele><time>2026-05-01T12:32:04.999Z</time></trkpt><trkpt lat="40.80828211548597" lon="9.041228698249414"><ele>544.4</ele><time>2026-05-01T12:32:06.999Z</time></trkpt><trkpt lat="40.80818308823041" lon="9.04125309728227"><ele>543.0</ele><time>2026-05-01T12:32:08.999Z</time></trkpt><trkpt lat="40.808113878199784" lon="9.041302725414385"><ele>543.0</ele><time>2026-05-01T12:32:09.999Z</time></trkpt><trkpt lat="40.808060486630055" lon="9.041359730487843"><ele>543.0</ele><time>2026-05-01T12:32:10.999Z</time></trkpt><trkpt lat="40.807999863997296" lon="9.041399068013208"><ele>543.0</ele><time>2026-05-01T12:32:11.999Z</time></trkpt><trkpt lat="40.80788948690713" lon="9.04140796526095"><ele>543.0</ele><time>2026-05-01T12:32:13.999Z</time></trkpt><trkpt lat="40.80778665152962" lon="9.041376026844704"><ele>543.0</ele><time>2026-05-01T12:32:15.999Z</time></trkpt><trkpt lat="40.80768100254965" lon="9.041297561675487"><ele>541.4285714285714</ele><time>2026-05-01T12:32:17.999Z</time></trkpt><trkpt lat="40.80762198617092" lon="9.041248259492393"><ele>539.8571428571429</ele><time>2026-05-01T12:32:18.999Z</time></trkpt><trkpt lat="40.8075649328139" lon="9.041202145399197"><ele>538.2857142857142</ele><time>2026-05-01T12:32:19.999Z</time></trkpt><trkpt lat="40.80749965668257" lon="9.041169865832343"><ele>536.7142857142858</ele><time>2026-05-01T12:32:20.999Z</time></trkpt><trkpt lat="40.80743092188192" lon="9.04113738968035"><ele>535.1428571428571</ele><time>2026-05-01T12:32:21.999Z</time></trkpt><trkpt lat="40.80736038032135" lon="9.041092572998537"><ele>533.5714285714286</ele><time>2026-05-01T12:32:22.999Z</time></trkpt><trkpt lat="40.80728625252346" lon="9.041045809518545"><ele>532.0</ele><time>2026-05-01T12:32:23.999Z</time></trkpt><trkpt lat="40.80721609984775" lon="9.041013990711729"><ele>532.0</ele><time>2026-05-01T12:32:24.999Z</time></trkpt><trkpt lat="40.80709022587288" lon="9.040947938532724"><ele>532.0</ele><time>2026-05-01T12:32:26.999Z</time></trkpt><trkpt lat="40.80702514957915" lon="9.040904585506771"><ele>532.0</ele><time>2026-05-01T12:32:27.999Z</time></trkpt><trkpt lat="40.80696195402051" lon="9.040851435260832"><ele>532.0</ele><time>2026-05-01T12:32:28.999Z</time></trkpt><trkpt lat="40.80689159315576" lon="9.040791261274542"><ele>532.0</ele><time>2026-05-01T12:32:29.999Z</time></trkpt><trkpt lat="40.806814626346956" lon="9.040739215972737"><ele>526.1666666666667</ele><time>2026-05-01T12:32:30.999Z</time></trkpt><trkpt lat="40.80674155406662" lon="9.040693333078332"><ele>520.3333333333334</ele><time>2026-05-01T12:32:31.999Z</time></trkpt><trkpt lat="40.806670180778575" lon="9.040657324029594"><ele>514.5</ele><time>2026-05-01T12:32:32.999Z</time></trkpt><trkpt lat="40.80660611539753" lon="9.040634678099805"><ele>508.66666666666663</ele><time>2026-05-01T12:32:33.999Z</time></trkpt><trkpt lat="40.80653468053749" lon="9.040609427665895"><ele>502.8333333333333</ele><time>2026-05-01T12:32:34.999Z</time></trkpt><trkpt lat="40.806398829189995" lon="9.04060339387164"><ele>497.0</ele><time>2026-05-01T12:32:36.999Z</time></trkpt><trkpt lat="40.80632528328158" lon="9.040578734622716"><ele>497.0</ele><time>2026-05-01T12:32:37.999Z</time></trkpt><trkpt lat="40.80626839933986" lon="9.0405362829781"><ele>497.00000000000006</ele><time>2026-05-01T12:32:38.999Z</time></trkpt><trkpt lat="40.80619539210171" lon="9.040508607626847"><ele>497.00000000000006</ele><time>2026-05-01T12:32:39.999Z</time></trkpt><trkpt lat="40.80607933088407" lon="9.040480020230408"><ele>497.0</ele><time>2026-05-01T12:32:41.999Z</time></trkpt><trkpt lat="40.806013560513335" lon="9.040513180413075"><ele>497.0</ele><time>2026-05-01T12:32:43.999Z</time></trkpt><trkpt lat="40.80587559834155" lon="9.040418459297115"><ele>497.3333333333333</ele><time>2026-05-01T12:32:44.999Z</time></trkpt><trkpt lat="40.80580359208469" lon="9.04042973050781"><ele>497.66666666666663</ele><time>2026-05-01T12:32:45.999Z</time></trkpt><trkpt lat="40.805731037014475" lon="9.040443735718164"><ele>498.0</ele><time>2026-05-01T12:32:46.999Z</time></trkpt><trkpt lat="40.805657087129475" lon="9.040493640780639"><ele>498.33333333333337</ele><time>2026-05-01T12:32:48.999Z</time></trkpt><trkpt lat="40.8056318275727" lon="9.040602647207438"><ele>498.6666666666667</ele><time>2026-05-01T12:32:50.999Z</time></trkpt><trkpt lat="40.805633509812814" lon="9.040743217554638"><ele>499.0</ele><time>2026-05-01T12:32:52.999Z</time></trkpt><trkpt lat="40.80565630197881" lon="9.040924368182983"><ele>503.79999999999995</ele><time>2026-05-01T12:32:54.999Z</time></trkpt><trkpt lat="40.80567713668222" lon="9.041065680081728"><ele>508.59999999999997</ele><time>2026-05-01T12:32:56.999Z</time></trkpt><trkpt lat="40.80568925238501" lon="9.041192362574684"><ele>513.4</ele><time>2026-05-01T12:32:58.999Z</time></trkpt><trkpt lat="40.805689600969934" lon="9.04132297546554"><ele>518.1999999999999</ele><time>2026-05-01T12:33:00.999Z</time></trkpt><trkpt lat="40.80567981457222" lon="9.041467630648706"><ele>523.0</ele><time>2026-05-01T12:33:02.999Z</time></trkpt><trkpt lat="40.80568488880535" lon="9.04160192191712"><ele>522.1999999999999</ele><time>2026-05-01T12:33:04.999Z</time></trkpt><trkpt lat="40.805714507579744" lon="9.041722932118287"><ele>521.4</ele><time>2026-05-01T12:33:06.999Z</time></trkpt><trkpt lat="40.80572601464622" lon="9.041818235513915"><ele>520.5999999999999</ele><time>2026-05-01T12:33:07.999Z</time></trkpt><trkpt lat="40.80574104363323" lon="9.041907200032158"><ele>519.8</ele><time>2026-05-01T12:33:08.998Z</time></trkpt><trkpt lat="40.80575121333615" lon="9.04204786551049"><ele>519.0</ele><time>2026-05-01T12:33:10.998Z</time></trkpt><trkpt lat="40.805755364119435" lon="9.042206252088599"><ele>519.0</ele><time>2026-05-01T12:33:12.998Z</time></trkpt><trkpt lat="40.805743591500594" lon="9.042302081841937"><ele>519.0</ele><time>2026-05-01T12:33:13.998Z</time></trkpt><trkpt lat="40.80575078576681" lon="9.042396930796313"><ele>519.0</ele><time>2026-05-01T12:33:14.998Z</time></trkpt><trkpt lat="40.80574515640962" lon="9.04249332006279"><ele>519.0</ele><time>2026-05-01T12:33:15.998Z</time></trkpt><trkpt lat="40.8057325248608" lon="9.042651335933302"><ele>519.0</ele><time>2026-05-01T12:33:17.998Z</time></trkpt><trkpt lat="40.80570459524544" lon="9.042730339667266"><ele>519.0</ele><time>2026-05-01T12:33:18.999Z</time></trkpt><trkpt lat="40.805662993171566" lon="9.04279705776765"><ele>519.75</ele><time>2026-05-01T12:33:19.999Z</time></trkpt><trkpt lat="40.805557793532266" lon="9.042795407237023"><ele>520.5</ele><time>2026-05-01T12:33:21.999Z</time></trkpt><trkpt lat="40.80544739538279" lon="9.042781783646625"><ele>521.25</ele><time>2026-05-01T12:33:23.999Z</time></trkpt><trkpt lat="40.805326293629406" lon="9.042757517500988"><ele>522.0</ele><time>2026-05-01T12:33:25.999Z</time></trkpt><trkpt lat="40.805211091815295" lon="9.042716007866302"><ele>513.8000000000001</ele><time>2026-05-01T12:33:27.999Z</time></trkpt><trkpt lat="40.80510475851624" lon="9.042699724605695"><ele>505.6</ele><time>2026-05-01T12:33:29.999Z</time></trkpt><trkpt lat="40.8050263149843" lon="9.042695946841254"><ele>497.40000000000003</ele><time>2026-05-01T12:33:31.999Z</time></trkpt><trkpt lat="40.80495544141798" lon="9.04273255143794"><ele>489.20000000000005</ele><time>2026-05-01T12:33:33.999Z</time></trkpt><trkpt lat="40.80485040691416" lon="9.042812491752185"><ele>481.0</ele><time>2026-05-01T12:33:35.999Z</time></trkpt><trkpt lat="40.80472158921548" lon="9.042797773947413"><ele>481.0</ele><time>2026-05-01T12:33:37.999Z</time></trkpt><trkpt lat="40.804659927756944" lon="9.042764798739148"><ele>481.0</ele><time>2026-05-01T12:33:38.999Z</time></trkpt><trkpt lat="40.80456654627982" lon="9.04273208736014"><ele>481.0</ele><time>2026-05-01T12:33:40.999Z</time></trkpt><trkpt lat="40.80443494234958" lon="9.042734362494338"><ele>481.0</ele><time>2026-05-01T12:33:42.999Z</time></trkpt><trkpt lat="40.804363615102766" lon="9.042738614162515"><ele>481.0</ele><time>2026-05-01T12:33:43.999Z</time></trkpt><trkpt lat="40.804250599587306" lon="9.042730010595552"><ele>479.0</ele><time>2026-05-01T12:33:45.999Z</time></trkpt><trkpt lat="40.80414743956007" lon="9.042800796543425"><ele>477.0</ele><time>2026-05-01T12:33:47.999Z</time></trkpt><trkpt lat="40.80407321716067" lon="9.042808729642879"><ele>475.0</ele><time>2026-05-01T12:33:48.999Z</time></trkpt><trkpt lat="40.80397359193422" lon="9.042784435895426"><ele>473.0</ele><time>2026-05-01T12:33:49.999Z</time></trkpt><trkpt lat="40.80388864261905" lon="9.042747133788179"><ele>471.0</ele><time>2026-05-01T12:33:50.999Z</time></trkpt><trkpt lat="40.80380368417372" lon="9.042736438378713"><ele>471.00000000000006</ele><time>2026-05-01T12:33:52.999Z</time></trkpt><trkpt lat="40.80371913445435" lon="9.042710825369138"><ele>471.0</ele><time>2026-05-01T12:33:54.999Z</time></trkpt><trkpt lat="40.80365548659806" lon="9.042679601420472"><ele>471.00000000000006</ele><time>2026-05-01T12:33:55.999Z</time></trkpt><trkpt lat="40.80360031450974" lon="9.042631930939512"><ele>471.00000000000006</ele><time>2026-05-01T12:33:56.999Z</time></trkpt><trkpt lat="40.80355910157663" lon="9.042560806483106"><ele>471.0</ele><time>2026-05-01T12:33:57.999Z</time></trkpt><trkpt lat="40.80351635543758" lon="9.042499279956667"><ele>471.00000000000006</ele><time>2026-05-01T12:33:58.999Z</time></trkpt><trkpt lat="40.80345036194364" lon="9.042443714360605"><ele>471.00000000000006</ele><time>2026-05-01T12:33:59.999Z</time></trkpt><trkpt lat="40.80337916793093" lon="9.042396772565256"><ele>462.0</ele><time>2026-05-01T12:34:00.999Z</time></trkpt><trkpt lat="40.803293587547216" lon="9.04233884291013"><ele>453.0</ele><time>2026-05-01T12:34:02.999Z</time></trkpt><trkpt lat="40.80322314152978" lon="9.042317735108243"><ele>444.0</ele><time>2026-05-01T12:34:04.999Z</time></trkpt><trkpt lat="40.80312854012279" lon="9.042284930150002"><ele>435.0</ele><time>2026-05-01T12:34:06.999Z</time></trkpt><trkpt lat="40.80300687584997" lon="9.04228308173244"><ele>426.0</ele><time>2026-05-01T12:34:08.999Z</time></trkpt><trkpt lat="40.80288961009326" lon="9.042249305110015"><ele>426.0</ele><time>2026-05-01T12:34:10.999Z</time></trkpt><trkpt lat="40.80282045298917" lon="9.042218381134013"><ele>426.0</ele><time>2026-05-01T12:34:11.999Z</time></trkpt><trkpt lat="40.8027710186119" lon="9.042163197543829"><ele>426.0</ele><time>2026-05-01T12:34:12.999Z</time></trkpt><trkpt lat="40.80272399442403" lon="9.042045733635403"><ele>426.0</ele><time>2026-05-01T12:34:14.999Z</time></trkpt><trkpt lat="40.80268835285184" lon="9.041969068681059"><ele>426.0</ele><time>2026-05-01T12:34:15.999Z</time></trkpt><trkpt lat="40.80265510048129" lon="9.04189821911158"><ele>426.0</ele><time>2026-05-01T12:34:16.999Z</time></trkpt><trkpt lat="40.802590713627886" lon="9.041799498363677"><ele>428.8333333333333</ele><time>2026-05-01T12:34:18.999Z</time></trkpt><trkpt lat="40.80250881491639" lon="9.041697135268516"><ele>431.66666666666663</ele><time>2026-05-01T12:34:20.999Z</time></trkpt><trkpt lat="40.80245613900956" lon="9.041648811141686"><ele>434.5</ele><time>2026-05-01T12:34:21.999Z</time></trkpt><trkpt lat="40.80239460527257" lon="9.041597089482384"><ele>437.3333333333333</ele><time>2026-05-01T12:34:22.999Z</time></trkpt><trkpt lat="40.802315992901484" lon="9.04153005861305"><ele>440.16666666666663</ele><time>2026-05-01T12:34:24.999Z</time></trkpt><trkpt lat="40.80225305586722" lon="9.04145276843841"><ele>443.0</ele><time>2026-05-01T12:34:26.999Z</time></trkpt><trkpt lat="40.802178324456385" lon="9.041356104348809"><ele>437.59999999999997</ele><time>2026-05-01T12:34:28.999Z</time></trkpt><trkpt lat="40.802100841696394" lon="9.04128872736429"><ele>432.19999999999993</ele><time>2026-05-01T12:34:30.999Z</time></trkpt><trkpt lat="40.80201423430075" lon="9.041256005442715"><ele>426.8</ele><time>2026-05-01T12:34:32.999Z</time></trkpt><trkpt lat="40.801906953249166" lon="9.04125895749571"><ele>421.4</ele><time>2026-05-01T12:34:34.999Z</time></trkpt><trkpt lat="40.80182116618671" lon="9.041291117341594"><ele>416.0</ele><time>2026-05-01T12:34:35.999Z</time></trkpt><trkpt lat="40.801724996115475" lon="9.041350647148198"><ele>416.0</ele><time>2026-05-01T12:34:36.999Z</time></trkpt><trkpt lat="40.8016338212264" lon="9.041431477092495"><ele>416.0</ele><time>2026-05-01T12:34:37.999Z</time></trkpt><trkpt lat="40.8015464231339" lon="9.041497336526962"><ele>416.0</ele><time>2026-05-01T12:34:38.999Z</time></trkpt><trkpt lat="40.80145368727462" lon="9.041557525245969"><ele>416.0</ele><time>2026-05-01T12:34:39.999Z</time></trkpt><trkpt lat="40.801380174083256" lon="9.041598764331289"><ele>416.0</ele><time>2026-05-01T12:34:40.999Z</time></trkpt><trkpt lat="40.80132345641158" lon="9.04163709250474"><ele>420.8333333333333</ele><time>2026-05-01T12:34:41.999Z</time></trkpt><trkpt lat="40.80125945711823" lon="9.041701005430903"><ele>425.66666666666663</ele><time>2026-05-01T12:34:42.999Z</time></trkpt><trkpt lat="40.801201581742184" lon="9.041776208911289"><ele>430.5</ele><time>2026-05-01T12:34:43.999Z</time></trkpt><trkpt lat="40.80117934425977" lon="9.041854647182683"><ele>435.33333333333337</ele><time>2026-05-01T12:34:44.999Z</time></trkpt><trkpt lat="40.80116258677554" lon="9.041975856976903"><ele>440.1666666666667</ele><time>2026-05-01T12:34:45.999Z</time></trkpt><trkpt lat="40.801156937437185" lon="9.04206274985804"><ele>445.0</ele><time>2026-05-01T12:34:46.999Z</time></trkpt><trkpt lat="40.80113553207948" lon="9.042152338373056"><ele>445.00000000000006</ele><time>2026-05-01T12:34:48.999Z</time></trkpt><trkpt lat="40.80111481309788" lon="9.04224050658478"><ele>445.0</ele><time>2026-05-01T12:34:52.999Z</time></trkpt><trkpt lat="40.801076615601225" lon="9.042336301230112"><ele>445.0</ele><time>2026-05-01T12:34:54.999Z</time></trkpt><trkpt lat="40.80104621876077" lon="9.042410987047164"><ele>445.0</ele><time>2026-05-01T12:34:56.999Z</time></trkpt><trkpt lat="40.801012802731535" lon="9.042505295939682"><ele>445.00000000000006</ele><time>2026-05-01T12:34:58.999Z</time></trkpt><trkpt lat="40.80097594130662" lon="9.042606854838501"><ele>445.0</ele><time>2026-05-01T12:35:00.999Z</time></trkpt><trkpt lat="40.80092215687478" lon="9.042688378360555"><ele>443.00000000000006</ele><time>2026-05-01T12:35:02.999Z</time></trkpt><trkpt lat="40.80087087500313" lon="9.042757632951878"><ele>441.0</ele><time>2026-05-01T12:35:04.999Z</time></trkpt><trkpt lat="40.80080717116099" lon="9.042766218490224"><ele>439.0</ele><time>2026-05-01T12:35:06.999Z</time></trkpt><trkpt lat="40.80073547559931" lon="9.042748828040928"><ele>437.0</ele><time>2026-05-01T12:35:08.999Z</time></trkpt><trkpt lat="40.80061905811406" lon="9.042780168005066"><ele>435.00000000000006</ele><time>2026-05-01T12:35:10.999Z</time></trkpt><trkpt lat="40.800544952898875" lon="9.042759630547023"><ele>433.0</ele><time>2026-05-01T12:35:11.999Z</time></trkpt><trkpt lat="40.80046971248866" lon="9.04275493674777"><ele>433.00000000000006</ele><time>2026-05-01T12:35:12.999Z</time></trkpt><trkpt lat="40.800383169041055" lon="9.042755518418522"><ele>433.0</ele><time>2026-05-01T12:35:13.999Z</time></trkpt><trkpt lat="40.80030436621408" lon="9.042753308926269"><ele>433.0</ele><time>2026-05-01T12:35:14.998Z</time></trkpt><trkpt lat="40.80022650616974" lon="9.042740811547482"><ele>433.0</ele><time>2026-05-01T12:35:15.998Z</time></trkpt><trkpt lat="40.800144027707795" lon="9.042732803356687"><ele>433.00000000000006</ele><time>2026-05-01T12:35:16.998Z</time></trkpt><trkpt lat="40.80006402975363" lon="9.042721348077102"><ele>433.0</ele><time>2026-05-01T12:35:17.998Z</time></trkpt><trkpt lat="40.799991201176525" lon="9.042710640774455"><ele>431.6666666666667</ele><time>2026-05-01T12:35:18.999Z</time></trkpt><trkpt lat="40.79991993613573" lon="9.042680417179126"><ele>430.33333333333337</ele><time>2026-05-01T12:35:19.999Z</time></trkpt><trkpt lat="40.799861745349155" lon="9.042645280281377"><ele>429.0</ele><time>2026-05-01T12:35:20.999Z</time></trkpt><trkpt lat="40.79974685085531" lon="9.042614442758154"><ele>427.66666666666663</ele><time>2026-05-01T12:35:22.999Z</time></trkpt><trkpt lat="40.79968171074314" lon="9.042618953443423"><ele>426.3333333333333</ele><time>2026-05-01T12:35:23.999Z</time></trkpt><trkpt lat="40.7996116848258" lon="9.04264606278619"><ele>425.0</ele><time>2026-05-01T12:35:24.999Z</time></trkpt><trkpt lat="40.79953452258531" lon="9.042662194209772"><ele>424.99999999999994</ele><time>2026-05-01T12:35:25.999Z</time></trkpt><trkpt lat="40.79945072530272" lon="9.04265294275666"><ele>425.0</ele><time>2026-05-01T12:35:26.999Z</time></trkpt><trkpt lat="40.79937075490585" lon="9.042631771643766"><ele>425.0</ele><time>2026-05-01T12:35:27.999Z</time></trkpt><trkpt lat="40.7993062746647" lon="9.042584388972157"><ele>425.0</ele><time>2026-05-01T12:35:28.999Z</time></trkpt><trkpt lat="40.79925005131994" lon="9.042511565051035"><ele>424.99999999999994</ele><time>2026-05-01T12:35:29.999Z</time></trkpt><trkpt lat="40.79918966645416" lon="9.042404289621281"><ele>425.0</ele><time>2026-05-01T12:35:30.999Z</time></trkpt><trkpt lat="40.799134342416366" lon="9.042279689286502"><ele>423.66666666666663</ele><time>2026-05-01T12:35:31.999Z</time></trkpt><trkpt lat="40.799076434052246" lon="9.042151694153908"><ele>422.3333333333333</ele><time>2026-05-01T12:35:32.999Z</time></trkpt><trkpt lat="40.799035537401465" lon="9.0420501624695"><ele>421.0</ele><time>2026-05-01T12:35:33.999Z</time></trkpt><trkpt lat="40.79899783468313" lon="9.04196466877961"><ele>419.66666666666663</ele><time>2026-05-01T12:35:34.999Z</time></trkpt><trkpt lat="40.79894506995522" lon="9.041892762463396"><ele>418.3333333333333</ele><time>2026-05-01T12:35:35.999Z</time></trkpt><trkpt lat="40.79887439811095" lon="9.04185478707104"><ele>417.0</ele><time>2026-05-01T12:35:36.999Z</time></trkpt><trkpt lat="40.79876934480442" lon="9.041792839065444"><ele>417.0</ele><time>2026-05-01T12:35:37.999Z</time></trkpt><trkpt lat="40.798644161886315" lon="9.041735557855082"><ele>417.0</ele><time>2026-05-01T12:35:38.999Z</time></trkpt><trkpt lat="40.798542284845" lon="9.04165053588303"><ele>417.0</ele><time>2026-05-01T12:35:39.999Z</time></trkpt><trkpt lat="40.79843386301215" lon="9.041564821669184"><ele>417.0</ele><time>2026-05-01T12:35:40.999Z</time></trkpt><trkpt lat="40.798360207403825" lon="9.041494219513934"><ele>419.8</ele><time>2026-05-01T12:35:41.999Z</time></trkpt><trkpt lat="40.79829474397781" lon="9.041406401914168"><ele>422.6</ele><time>2026-05-01T12:35:42.999Z</time></trkpt><trkpt lat="40.79824382498303" lon="9.041318612202657"><ele>425.40000000000003</ele><time>2026-05-01T12:35:43.999Z</time></trkpt><trkpt lat="40.79819323601605" lon="9.041207762799855"><ele>428.20000000000005</ele><time>2026-05-01T12:35:44.999Z</time></trkpt><trkpt lat="40.798153965201884" lon="9.041066822448183"><ele>431.0</ele><time>2026-05-01T12:35:45.999Z</time></trkpt><trkpt lat="40.79813836966772" lon="9.04096309263685"><ele>430.99999999999994</ele><time>2026-05-01T12:35:46.999Z</time></trkpt><trkpt lat="40.79809529051373" lon="9.040888100671962"><ele>431.0</ele><time>2026-05-01T12:35:47.999Z</time></trkpt><trkpt lat="40.7980252663623" lon="9.040821988176802"><ele>431.0</ele><time>2026-05-01T12:35:49.999Z</time></trkpt><trkpt lat="40.79794986605703" lon="9.040780285297974"><ele>431.0</ele><time>2026-05-01T12:35:50.999Z</time></trkpt><trkpt lat="40.79785869503782" lon="9.040743819269133"><ele>430.99999999999994</ele><time>2026-05-01T12:35:51.999Z</time></trkpt><trkpt lat="40.79776885167075" lon="9.040703181986078"><ele>431.0</ele><time>2026-05-01T12:35:52.999Z</time></trkpt><trkpt lat="40.79766865766526" lon="9.040649878087656"><ele>430.6</ele><time>2026-05-01T12:35:53.999Z</time></trkpt><trkpt lat="40.79756816392323" lon="9.040605953353687"><ele>430.20000000000005</ele><time>2026-05-01T12:35:54.999Z</time></trkpt><trkpt lat="40.79748038386891" lon="9.040584272319705"><ele>429.79999999999995</ele><time>2026-05-01T12:35:55.999Z</time></trkpt><trkpt lat="40.79739404400011" lon="9.04055051882346"><ele>429.4</ele><time>2026-05-01T12:35:56.999Z</time></trkpt><trkpt lat="40.797315423866756" lon="9.040522787027834"><ele>429.0</ele><time>2026-05-01T12:35:57.999Z</time></trkpt><trkpt lat="40.79722589208397" lon="9.040509785615733"><ele>429.0</ele><time>2026-05-01T12:35:58.999Z</time></trkpt><trkpt lat="40.7971338629482" lon="9.040509995512364"><ele>429.0</ele><time>2026-05-01T12:35:59.999Z</time></trkpt><trkpt lat="40.79702509561898" lon="9.040500241867013"><ele>429.0</ele><time>2026-05-01T12:36:00.999Z</time></trkpt><trkpt lat="40.796968612277716" lon="9.040344323200523"><ele>429.0</ele><time>2026-05-01T12:36:02.999Z</time></trkpt><trkpt lat="40.79694184054309" lon="9.040238724214523"><ele>429.0</ele><time>2026-05-01T12:36:03.999Z</time></trkpt><trkpt lat="40.796925581144954" lon="9.040108570489378"><ele>433.5</ele><time>2026-05-01T12:36:04.999Z</time></trkpt><trkpt lat="40.79689700382977" lon="9.03994180900249"><ele>438.0</ele><time>2026-05-01T12:36:05.999Z</time></trkpt><trkpt lat="40.79688036216429" lon="9.039778935520793"><ele>442.5</ele><time>2026-05-01T12:36:06.999Z</time></trkpt><trkpt lat="40.796845938860926" lon="9.039701939677073"><ele>447.0</ele><time>2026-05-01T12:36:07.999Z</time></trkpt><trkpt lat="40.79675958358513" lon="9.03955220836011"><ele>447.0</ele><time>2026-05-01T12:36:09.999Z</time></trkpt><trkpt lat="40.79671272293298" lon="9.039491552525686"><ele>447.0</ele><time>2026-05-01T12:36:10.999Z</time></trkpt><trkpt lat="40.79666710571461" lon="9.039420886689822"><ele>447.0</ele><time>2026-05-01T12:36:11.999Z</time></trkpt><trkpt lat="40.79660028742982" lon="9.039338396238822"><ele>447.0</ele><time>2026-05-01T12:36:12.999Z</time></trkpt><trkpt lat="40.79652729887682" lon="9.03927175568131"><ele>447.0</ele><time>2026-05-01T12:36:13.999Z</time></trkpt><trkpt lat="40.796449414115884" lon="9.039202345249864"><ele>447.0</ele><time>2026-05-01T12:36:14.999Z</time></trkpt><trkpt lat="40.79636242977338" lon="9.039110199571489"><ele>445.71428571428567</ele><time>2026-05-01T12:36:15.999Z</time></trkpt><trkpt lat="40.79630238062922" lon="9.03904668927627"><ele>444.42857142857144</ele><time>2026-05-01T12:36:17Z</time></trkpt><trkpt lat="40.79624826838801" lon="9.038999129993886"><ele>443.1428571428571</ele><time>2026-05-01T12:36:18Z</time></trkpt><trkpt lat="40.79618851213463" lon="9.038947337768551"><ele>441.85714285714283</ele><time>2026-05-01T12:36:19Z</time></trkpt><trkpt lat="40.79612482550639" lon="9.038895487726112"><ele>440.57142857142856</ele><time>2026-05-01T12:36:20Z</time></trkpt><trkpt lat="40.79605424898826" lon="9.03887322477032"><ele>439.2857142857143</ele><time>2026-05-01T12:36:21Z</time></trkpt><trkpt lat="40.79597767153619" lon="9.038870513600905"><ele>438.0</ele><time>2026-05-01T12:36:22Z</time></trkpt><trkpt lat="40.795896013543725" lon="9.038901102953751"><ele>438.0</ele><time>2026-05-01T12:36:23Z</time></trkpt><trkpt lat="40.79580768886081" lon="9.038947784427098"><ele>437.99999999999994</ele><time>2026-05-01T12:36:24Z</time></trkpt><trkpt lat="40.79571403608724" lon="9.038967969932228"><ele>437.99999999999994</ele><time>2026-05-01T12:36:25Z</time></trkpt><trkpt lat="40.79564681539926" lon="9.038958016272113"><ele>438.0</ele><time>2026-05-01T12:36:26Z</time></trkpt><trkpt lat="40.79553076617558" lon="9.03900003321594"><ele>438.0</ele><time>2026-05-01T12:36:28Z</time></trkpt><trkpt lat="40.795455075007986" lon="9.039056965049989"><ele>438.0</ele><time>2026-05-01T12:36:29Z</time></trkpt><trkpt lat="40.79537414738107" lon="9.039105506879393"><ele>438.0</ele><time>2026-05-01T12:36:30Z</time></trkpt><trkpt lat="40.79529292650857" lon="9.039159420610677"><ele>438.0</ele><time>2026-05-01T12:36:31Z</time></trkpt><trkpt lat="40.79522312661829" lon="9.039210615092946"><ele>438.0</ele><time>2026-05-01T12:36:32Z</time></trkpt><trkpt lat="40.79517592893131" lon="9.03927365907766"><ele>438.0</ele><time>2026-05-01T12:36:33Z</time></trkpt><trkpt lat="40.795111686502324" lon="9.0393337715959"><ele>438.0</ele><time>2026-05-01T12:36:35Z</time></trkpt><trkpt lat="40.79502321462094" lon="9.039282468007842"><ele>441.8333333333333</ele><time>2026-05-01T12:36:38Z</time></trkpt><trkpt lat="40.79497214444027" lon="9.03936013760149"><ele>445.66666666666663</ele><time>2026-05-01T12:36:41Z</time></trkpt><trkpt lat="40.79498461088717" lon="9.039460780458649"><ele>449.5</ele><time>2026-05-01T12:37:05Z</time></trkpt><trkpt lat="40.794995830200804" lon="9.03954381509359"><ele>453.3333333333333</ele><time>2026-05-01T12:37:06Z</time></trkpt><trkpt lat="40.79500802497239" lon="9.039631228747412"><ele>457.16666666666663</ele><time>2026-05-01T12:37:07Z</time></trkpt><trkpt lat="40.794971708469866" lon="9.039807781900905"><ele>461.0</ele><time>2026-05-01T12:37:09Z</time></trkpt><trkpt lat="40.794919519615036" lon="9.039880486572313"><ele>460.99999999999994</ele><time>2026-05-01T12:37:10Z</time></trkpt><trkpt lat="40.79487156015152" lon="9.039944097088165"><ele>461.0</ele><time>2026-05-01T12:37:11Z</time></trkpt><trkpt lat="40.79483543237258" lon="9.040021297643525"><ele>461.0</ele><time>2026-05-01T12:37:12Z</time></trkpt><trkpt lat="40.794803837206324" lon="9.0401744333414"><ele>461.0</ele><time>2026-05-01T12:37:14Z</time></trkpt><trkpt lat="40.79472867892577" lon="9.040302673741966"><ele>460.99999999999994</ele><time>2026-05-01T12:37:16Z</time></trkpt><trkpt lat="40.79467768987001" lon="9.040360605608548"><ele>461.0</ele><time>2026-05-01T12:37:17Z</time></trkpt><trkpt lat="40.794634900687264" lon="9.040470076494385"><ele>462.6</ele><time>2026-05-01T12:37:19Z</time></trkpt><trkpt lat="40.79455276527648" lon="9.040560117105256"><ele>464.20000000000005</ele><time>2026-05-01T12:37:20.999Z</time></trkpt><trkpt lat="40.794471836228134" lon="9.040698445861297"><ele>465.79999999999995</ele><time>2026-05-01T12:37:22.999Z</time></trkpt><trkpt lat="40.794382344803424" lon="9.040791483438607"><ele>467.4</ele><time>2026-05-01T12:37:24.999Z</time></trkpt><trkpt lat="40.79432278622997" lon="9.040880829744927"><ele>469.0</ele><time>2026-05-01T12:37:26.999Z</time></trkpt><trkpt lat="40.794239694835355" lon="9.040930640117628"><ele>464.4</ele><time>2026-05-01T12:37:28.999Z</time></trkpt><trkpt lat="40.79413935263678" lon="9.040935908992783"><ele>459.79999999999995</ele><time>2026-05-01T12:37:30.999Z</time></trkpt><trkpt lat="40.79404796053841" lon="9.040908707283805"><ele>455.20000000000005</ele><time>2026-05-01T12:37:32.999Z</time></trkpt><trkpt lat="40.79397260878715" lon="9.04089731019766"><ele>450.6</ele><time>2026-05-01T12:37:34.999Z</time></trkpt><trkpt lat="40.79387033028387" lon="9.040911785092057"><ele>446.0</ele><time>2026-05-01T12:37:36.999Z</time></trkpt><trkpt lat="40.79374643180966" lon="9.040920112153088"><ele>446.0</ele><time>2026-05-01T12:37:39Z</time></trkpt><trkpt lat="40.793733072906164" lon="9.041042508166733"><ele>446.0</ele><time>2026-05-01T12:37:42Z</time></trkpt><trkpt lat="40.793796205721186" lon="9.041112118348934"><ele>446.0</ele><time>2026-05-01T12:37:44Z</time></trkpt><trkpt lat="40.79385595009133" lon="9.041200284191977"><ele>446.0</ele><time>2026-05-01T12:37:46Z</time></trkpt><trkpt lat="40.79389130568769" lon="9.041355818994985"><ele>446.0</ele><time>2026-05-01T12:37:48Z</time></trkpt><trkpt lat="40.793941593731816" lon="9.041516037877786"><ele>445.20000000000005</ele><time>2026-05-01T12:37:50Z</time></trkpt><trkpt lat="40.79398301478587" lon="9.041657664399237"><ele>444.40000000000003</ele><time>2026-05-01T12:37:52Z</time></trkpt><trkpt lat="40.79399515528903" lon="9.041744176672593"><ele>443.6</ele><time>2026-05-01T12:37:53Z</time></trkpt><trkpt lat="40.79400914742279" lon="9.041830291889509"><ele>442.8</ele><time>2026-05-01T12:37:54Z</time></trkpt><trkpt lat="40.79403373336591" lon="9.041965776899737"><ele>442.0</ele><time>2026-05-01T12:37:56Z</time></trkpt><trkpt lat="40.79404680790184" lon="9.042112570518086"><ele>442.0</ele><time>2026-05-01T12:37:58Z</time></trkpt><trkpt lat="40.79406488500964" lon="9.042229782583256"><ele>442.00000000000006</ele><time>2026-05-01T12:38:00Z</time></trkpt><trkpt lat="40.794063117302635" lon="9.042343792319251"><ele>442.00000000000006</ele><time>2026-05-01T12:38:02Z</time></trkpt><trkpt lat="40.794051037758656" lon="9.042458588087259"><ele>442.0</ele><time>2026-05-01T12:38:04Z</time></trkpt><trkpt lat="40.79402467383507" lon="9.042588125737296"><ele>442.0</ele><time>2026-05-01T12:38:06Z</time></trkpt><trkpt lat="40.793938648213974" lon="9.042646977537684"><ele>439.40000000000003</ele><time>2026-05-01T12:38:08Z</time></trkpt><trkpt lat="40.793840996216865" lon="9.042703304107736"><ele>436.80000000000007</ele><time>2026-05-01T12:38:10Z</time></trkpt><trkpt lat="40.793774410358864" lon="9.042804486475458"><ele>434.2</ele><time>2026-05-01T12:38:12Z</time></trkpt><trkpt lat="40.79373493617749" lon="9.042899300965876"><ele>431.6</ele><time>2026-05-01T12:38:14Z</time></trkpt><trkpt lat="40.79372457759158" lon="9.043047621036346"><ele>429.0</ele><time>2026-05-01T12:38:16Z</time></trkpt><trkpt lat="40.79377186226023" lon="9.043172962300064"><ele>429.0</ele><time>2026-05-01T12:38:18Z</time></trkpt><trkpt lat="40.79379106700801" lon="9.04328024703365"><ele>429.0</ele><time>2026-05-01T12:38:20Z</time></trkpt><trkpt lat="40.793715397256626" lon="9.043335743175858"><ele>429.0</ele><time>2026-05-01T12:38:22Z</time></trkpt><trkpt lat="40.79362740761802" lon="9.043249268373406"><ele>429.0</ele><time>2026-05-01T12:38:24Z</time></trkpt><trkpt lat="40.793535539700116" lon="9.04318840290528"><ele>429.0</ele><time>2026-05-01T12:38:26Z</time></trkpt><trkpt lat="40.79345313537161" lon="9.043104176511697"><ele>421.0</ele><time>2026-05-01T12:38:28Z</time></trkpt><trkpt lat="40.79336672140205" lon="9.042972418121186"><ele>413.0</ele><time>2026-05-01T12:38:30Z</time></trkpt><trkpt lat="40.7933029196399" lon="9.042907837437067"><ele>405.0</ele><time>2026-05-01T12:38:31Z</time></trkpt><trkpt lat="40.793319958486194" lon="9.042809302979304"><ele>397.0</ele><time>2026-05-01T12:38:33Z</time></trkpt><trkpt lat="40.793280004295504" lon="9.042719182212855"><ele>389.0</ele><time>2026-05-01T12:38:35Z</time></trkpt><trkpt lat="40.79321778809111" lon="9.042791456528908"><ele>388.99999999999994</ele><time>2026-05-01T12:38:37Z</time></trkpt><trkpt lat="40.7932030148615" lon="9.042899248220454"><ele>389.0</ele><time>2026-05-01T12:38:39Z</time></trkpt><trkpt lat="40.793213497986635" lon="9.043013773133406"><ele>389.0</ele><time>2026-05-01T12:38:41Z</time></trkpt><trkpt lat="40.79321520232745" lon="9.043157149298782"><ele>389.0</ele><time>2026-05-01T12:38:43Z</time></trkpt><trkpt lat="40.79324507662673" lon="9.043231837614007"><ele>388.99999999999994</ele><time>2026-05-01T12:38:45Z</time></trkpt><trkpt lat="40.79325024396889" lon="9.043352622508088"><ele>389.0</ele><time>2026-05-01T12:38:47Z</time></trkpt><trkpt lat="40.79315147726758" lon="9.04330990160228"><ele>388.99999999999994</ele><time>2026-05-01T12:38:49Z</time></trkpt><trkpt lat="40.79309849657652" lon="9.043183595868154"><ele>389.0</ele><time>2026-05-01T12:38:51Z</time></trkpt><trkpt lat="40.793066829792615" lon="9.043068531685357"><ele>389.0</ele><time>2026-05-01T12:38:53Z</time></trkpt><trkpt lat="40.79300873841101" lon="9.042989433366387"><ele>389.0</ele><time>2026-05-01T12:38:54Z</time></trkpt><trkpt lat="40.79295589931091" lon="9.042921355193783"><ele>388.99999999999994</ele><time>2026-05-01T12:38:55Z</time></trkpt><trkpt lat="40.79291148166848" lon="9.042849446525459"><ele>389.0</ele><time>2026-05-01T12:38:56Z</time></trkpt><trkpt lat="40.792826195739536" lon="9.0427806143806"><ele>388.99999999999994</ele><time>2026-05-01T12:38:58Z</time></trkpt><trkpt lat="40.79274318418663" lon="9.042866598875834"><ele>389.0</ele><time>2026-05-01T12:39:00Z</time></trkpt><trkpt lat="40.792778512353784" lon="9.042989547241842"><ele>389.0</ele><time>2026-05-01T12:39:02Z</time></trkpt><trkpt lat="40.792813523487446" lon="9.04308874487478"><ele>389.0</ele><time>2026-05-01T12:39:04Z</time></trkpt><trkpt lat="40.792793887194215" lon="9.043206550942903"><ele>388.99999999999994</ele><time>2026-05-01T12:39:06Z</time></trkpt><trkpt lat="40.79281132474358" lon="9.043289004788157"><ele>389.0</ele><time>2026-05-01T12:39:07Z</time></trkpt><trkpt lat="40.792810982654494" lon="9.043410834669029"><ele>388.0</ele><time>2026-05-01T12:39:09Z</time></trkpt><trkpt lat="40.792801171170204" lon="9.04354585830432"><ele>387.0</ele><time>2026-05-01T12:39:11Z</time></trkpt><trkpt lat="40.79272112440662" lon="9.043601116866693"><ele>386.0</ele><time>2026-05-01T12:39:13Z</time></trkpt><trkpt lat="40.7926398732604" lon="9.043511526584005"><ele>385.0</ele><time>2026-05-01T12:39:15Z</time></trkpt><trkpt lat="40.79261000777438" lon="9.043430485573321"><ele>384.0</ele><time>2026-05-01T12:39:17Z</time></trkpt><trkpt lat="40.792522978796384" lon="9.043403428535061"><ele>378.5</ele><time>2026-05-01T12:39:20Z</time></trkpt><trkpt lat="40.79250469606985" lon="9.043487306199415"><ele>373.0</ele><time>2026-05-01T12:39:23Z</time></trkpt><trkpt lat="40.79249416681085" lon="9.043640996944681"><ele>367.5</ele><time>2026-05-01T12:39:26Z</time></trkpt><trkpt lat="40.79248594197515" lon="9.043778782629431"><ele>362.0</ele><time>2026-05-01T12:39:28Z</time></trkpt><trkpt lat="40.7924811096963" lon="9.043881441671436"><ele>356.5</ele><time>2026-05-01T12:39:29Z</time></trkpt><trkpt lat="40.79246839826105" lon="9.043974560875832"><ele>351.0</ele><time>2026-05-01T12:39:30Z</time></trkpt><trkpt lat="40.792418037550775" lon="9.044098362875415"><ele>349.6</ele><time>2026-05-01T12:39:32Z</time></trkpt><trkpt lat="40.792380510931736" lon="9.044198445608714"><ele>348.20000000000005</ele><time>2026-05-01T12:39:34Z</time></trkpt><trkpt lat="40.792443043342814" lon="9.04428971854393"><ele>346.79999999999995</ele><time>2026-05-01T12:39:36Z</time></trkpt><trkpt lat="40.792481773356656" lon="9.044447480474112"><ele>345.4</ele><time>2026-05-01T12:39:38Z</time></trkpt><trkpt lat="40.792511292489365" lon="9.044524415767539"><ele>344.0</ele><time>2026-05-01T12:39:39Z</time></trkpt><trkpt lat="40.792574138630826" lon="9.044643825995882"><ele>344.0</ele><time>2026-05-01T12:39:41Z</time></trkpt><trkpt lat="40.792653026897206" lon="9.04474814061646"><ele>344.0</ele><time>2026-05-01T12:39:43Z</time></trkpt><trkpt lat="40.792683596189136" lon="9.044824342641293"><ele>344.0</ele><time>2026-05-01T12:39:44Z</time></trkpt><trkpt lat="40.79273817770911" lon="9.044949683914895"><ele>344.0</ele><time>2026-05-01T12:39:46Z</time></trkpt><trkpt lat="40.79277629511007" lon="9.045054244295214"><ele>344.0</ele><time>2026-05-01T12:39:48Z</time></trkpt><trkpt lat="40.7928160877399" lon="9.045139474601193"><ele>344.2</ele><time>2026-05-01T12:39:50Z</time></trkpt><trkpt lat="40.792904239311135" lon="9.04528011224255"><ele>344.4</ele><time>2026-05-01T12:39:52Z</time></trkpt><trkpt lat="40.79295809941041" lon="9.045354889701956"><ele>344.6</ele><time>2026-05-01T12:39:54Z</time></trkpt><trkpt lat="40.79300520414643" lon="9.04549123808655"><ele>344.8</ele><time>2026-05-01T12:39:56Z</time></trkpt><trkpt lat="40.79301948843349" lon="9.045633082409774"><ele>345.0</ele><time>2026-05-01T12:39:58Z</time></trkpt><trkpt lat="40.79298831032453" lon="9.045773735387797"><ele>341.6</ele><time>2026-05-01T12:40:00Z</time></trkpt><trkpt lat="40.79294115198912" lon="9.045911761628226"><ele>338.2</ele><time>2026-05-01T12:40:02Z</time></trkpt><trkpt lat="40.79292383727697" lon="9.046007039427497"><ele>334.79999999999995</ele><time>2026-05-01T12:40:04Z</time></trkpt><trkpt lat="40.792979095130285" lon="9.046136074893232"><ele>331.4</ele><time>2026-05-01T12:40:06Z</time></trkpt><trkpt lat="40.79305717198749" lon="9.046267686442043"><ele>328.0</ele><time>2026-05-01T12:40:08Z</time></trkpt><trkpt lat="40.793123026338485" lon="9.046399067856706"><ele>328.0</ele><time>2026-05-01T12:40:10Z</time></trkpt><trkpt lat="40.79317419747233" lon="9.046475697141428"><ele>328.0</ele><time>2026-05-01T12:40:11Z</time></trkpt><trkpt lat="40.79317733562631" lon="9.046637440267148"><ele>328.0</ele><time>2026-05-01T12:40:13Z</time></trkpt><trkpt lat="40.793166632403" lon="9.046724193427059"><ele>328.0</ele><time>2026-05-01T12:40:14Z</time></trkpt><trkpt lat="40.793131977075895" lon="9.04688242075741"><ele>328.0</ele><time>2026-05-01T12:40:16Z</time></trkpt><trkpt lat="40.79307061591326" lon="9.047034739030302"><ele>324.79999999999995</ele><time>2026-05-01T12:40:18Z</time></trkpt><trkpt lat="40.79300838618111" lon="9.047161153889753"><ele>321.59999999999997</ele><time>2026-05-01T12:40:20Z</time></trkpt><trkpt lat="40.79296209869071" lon="9.047263243548421"><ele>318.4</ele><time>2026-05-01T12:40:22Z</time></trkpt><trkpt lat="40.79294245499457" lon="9.047432693486968"><ele>315.2</ele><time>2026-05-01T12:40:24Z</time></trkpt><trkpt lat="40.792953159886416" lon="9.04751630449544"><ele>312.0</ele><time>2026-05-01T12:40:25Z</time></trkpt><trkpt lat="40.79292399409449" lon="9.047657591368365"><ele>308.8</ele><time>2026-05-01T12:40:27Z</time></trkpt><trkpt lat="40.79291063319165" lon="9.047773006182856"><ele>305.6</ele><time>2026-05-01T12:40:29Z</time></trkpt><trkpt lat="40.79293483463985" lon="9.047892692734617"><ele>302.40000000000003</ele><time>2026-05-01T12:40:31Z</time></trkpt><trkpt lat="40.793003457882214" lon="9.048019385255714"><ele>299.2</ele><time>2026-05-01T12:40:33Z</time></trkpt><trkpt lat="40.793122570725245" lon="9.04809604445373"><ele>296.0</ele><time>2026-05-01T12:40:35Z</time></trkpt><trkpt lat="40.79317319756568" lon="9.048149537277101"><ele>296.0</ele><time>2026-05-01T12:40:36Z</time></trkpt><trkpt lat="40.79320743913465" lon="9.048225782628526"><ele>296.0</ele><time>2026-05-01T12:40:37Z</time></trkpt><trkpt lat="40.79324301074825" lon="9.048325136578121"><ele>296.0</ele><time>2026-05-01T12:40:39Z</time></trkpt><trkpt lat="40.79331380075938" lon="9.048350780142451"><ele>296.0</ele><time>2026-05-01T12:40:41Z</time></trkpt><trkpt lat="40.79342140177357" lon="9.048412332161739"><ele>296.0</ele><time>2026-05-01T12:40:43Z</time></trkpt><trkpt lat="40.79353861515773" lon="9.048427353992858"><ele>296.40000000000003</ele><time>2026-05-01T12:40:45Z</time></trkpt><trkpt lat="40.79361322632237" lon="9.048439620619364"><ele>296.8</ele><time>2026-05-01T12:40:46Z</time></trkpt><trkpt lat="40.793678339764845" lon="9.048479875987265"><ele>297.20000000000005</ele><time>2026-05-01T12:40:47Z</time></trkpt><trkpt lat="40.793736411905094" lon="9.048545644171012"><ele>297.6</ele><time>2026-05-01T12:40:48Z</time></trkpt><trkpt lat="40.79386544602816" lon="9.048648703674585"><ele>298.0</ele><time>2026-05-01T12:40:50Z</time></trkpt><trkpt lat="40.79396128046611" lon="9.048692554158265"><ele>298.0</ele><time>2026-05-01T12:40:51Z</time></trkpt><trkpt lat="40.794046184258356" lon="9.048744852521097"><ele>298.0</ele><time>2026-05-01T12:40:52Z</time></trkpt><trkpt lat="40.79410816158453" lon="9.048795032260909"><ele>298.0</ele><time>2026-05-01T12:40:53Z</time></trkpt><trkpt lat="40.794190657995806" lon="9.048910286133534"><ele>298.0</ele><time>2026-05-01T12:40:55Z</time></trkpt><trkpt lat="40.79426720127633" lon="9.04900216825945"><ele>298.0</ele><time>2026-05-01T12:40:57Z</time></trkpt><trkpt lat="40.794315421766626" lon="9.049063826108549"><ele>299.5</ele><time>2026-05-01T12:40:58Z</time></trkpt><trkpt lat="40.7943647724627" lon="9.049118538465484"><ele>301.0</ele><time>2026-05-01T12:40:59Z</time></trkpt><trkpt lat="40.79445825047445" lon="9.049191038030742"><ele>302.5</ele><time>2026-05-01T12:41:01Z</time></trkpt><trkpt lat="40.79450044051847" lon="9.04927913592076"><ele>304.0</ele><time>2026-05-01T12:41:05Z</time></trkpt><trkpt lat="40.79454115253797" lon="9.049380622700552"><ele>305.5</ele><time>2026-05-01T12:41:10Z</time></trkpt><trkpt lat="40.79456997545327" lon="9.049466943736155"><ele>307.0</ele><time>2026-05-01T12:41:11Z</time></trkpt><trkpt lat="40.79460402226612" lon="9.049573102579838"><ele>307.0</ele><time>2026-05-01T12:41:12Z</time></trkpt><trkpt lat="40.7946203678303" lon="9.049663128626984"><ele>307.0</ele><time>2026-05-01T12:41:13Z</time></trkpt><trkpt lat="40.79465315429969" lon="9.049825511296158"><ele>307.0</ele><time>2026-05-01T12:41:15Z</time></trkpt><trkpt lat="40.79468093466919" lon="9.049977716651684"><ele>307.0</ele><time>2026-05-01T12:41:17Z</time></trkpt><trkpt lat="40.79467647571693" lon="9.050068627783604"><ele>307.0</ele><time>2026-05-01T12:41:18Z</time></trkpt><trkpt lat="40.79467663814344" lon="9.050155319126555"><ele>305.0</ele><time>2026-05-01T12:41:19Z</time></trkpt><trkpt lat="40.7946878403882" lon="9.050302228663357"><ele>303.0</ele><time>2026-05-01T12:41:21Z</time></trkpt><trkpt lat="40.79465160541796" lon="9.050410943766561"><ele>301.0</ele><time>2026-05-01T12:41:23Z</time></trkpt><trkpt lat="40.79458942138936" lon="9.050490370838036"><ele>299.0</ele><time>2026-05-01T12:41:25Z</time></trkpt><trkpt lat="40.79457850933308" lon="9.050576381267515"><ele>297.0</ele><time>2026-05-01T12:41:26.001Z</time></trkpt><trkpt lat="40.794563239202034" lon="9.050679947790274"><ele>295.0</ele><time>2026-05-01T12:41:27.001Z</time></trkpt><trkpt lat="40.79453070194423" lon="9.050753589188728"><ele>295.0</ele><time>2026-05-01T12:41:28.001Z</time></trkpt><trkpt lat="40.794399501095135" lon="9.050773644551274"><ele>295.0</ele><time>2026-05-01T12:41:30.001Z</time></trkpt><trkpt lat="40.794338535809494" lon="9.050747564195449"><ele>295.0</ele><time>2026-05-01T12:41:31.001Z</time></trkpt><trkpt lat="40.794271139947" lon="9.050727834760234"><ele>295.0</ele><time>2026-05-01T12:41:35Z</time></trkpt><trkpt lat="40.794188129698426" lon="9.05069800531897"><ele>295.0</ele><time>2026-05-01T12:41:38Z</time></trkpt><trkpt lat="40.79410224774675" lon="9.050645956869094"><ele>295.0</ele><time>2026-05-01T12:41:40Z</time></trkpt><trkpt lat="40.79398563844382" lon="9.05062013967339"><ele>291.8333333333333</ele><time>2026-05-01T12:41:42Z</time></trkpt><trkpt lat="40.793924104090166" lon="9.050639754202482"><ele>288.66666666666663</ele><time>2026-05-01T12:41:43Z</time></trkpt><trkpt lat="40.7938599633722" lon="9.050645012607687"><ele>285.5</ele><time>2026-05-01T12:41:44Z</time></trkpt><trkpt lat="40.79377116396581" lon="9.050585868286024"><ele>282.3333333333333</ele><time>2026-05-01T12:41:46Z</time></trkpt><trkpt lat="40.79370376085958" lon="9.050567778578738"><ele>279.1666666666667</ele><time>2026-05-01T12:41:47Z</time></trkpt><trkpt lat="40.793599879762205" lon="9.050568433493314"><ele>276.0</ele><time>2026-05-01T12:41:49Z</time></trkpt><trkpt lat="40.79351825950497" lon="9.050527624027568"><ele>276.1666666666667</ele><time>2026-05-01T12:41:51Z</time></trkpt><trkpt lat="40.79348287382922" lon="9.0504571517244"><ele>276.3333333333333</ele><time>2026-05-01T12:41:53Z</time></trkpt><trkpt lat="40.79341186633694" lon="9.050369358597333"><ele>276.5</ele><time>2026-05-01T12:41:55Z</time></trkpt><trkpt lat="40.793359034332276" lon="9.050311885987345"><ele>276.66666666666663</ele><time>2026-05-01T12:41:56Z</time></trkpt><trkpt lat="40.793264834798386" lon="9.05022483619105"><ele>276.8333333333333</ele><time>2026-05-01T12:41:58Z</time></trkpt><trkpt lat="40.793216827547624" lon="9.050169998081339"><ele>277.0</ele><time>2026-05-01T12:41:59Z</time></trkpt><trkpt lat="40.79313936293243" lon="9.050051689595513"><ele>277.0</ele><time>2026-05-01T12:42:01Z</time></trkpt><trkpt lat="40.79304388857786" lon="9.050001688928223"><ele>277.0</ele><time>2026-05-01T12:42:03Z</time></trkpt><trkpt lat="40.79297360258171" lon="9.049994335241376"><ele>277.0</ele><time>2026-05-01T12:42:04Z</time></trkpt><trkpt lat="40.79290334658535" lon="9.050011012808582"><ele>277.0</ele><time>2026-05-01T12:42:05Z</time></trkpt><trkpt lat="40.792823644906115" lon="9.050043930123822"><ele>277.0</ele><time>2026-05-01T12:42:06Z</time></trkpt><trkpt lat="40.79270766747967" lon="9.05005512594426"><ele>277.0</ele><time>2026-05-01T12:42:08Z</time></trkpt><trkpt lat="40.7926411419816" lon="9.050027956148417"><ele>277.3333333333333</ele><time>2026-05-01T12:42:09Z</time></trkpt><trkpt lat="40.792580750117104" lon="9.049981352878236"><ele>277.66666666666663</ele><time>2026-05-01T12:42:10Z</time></trkpt><trkpt lat="40.79252158456657" lon="9.049901250411848"><ele>278.0</ele><time>2026-05-01T12:42:11Z</time></trkpt><trkpt lat="40.79245250906654" lon="9.049801146716794"><ele>278.3333333333333</ele><time>2026-05-01T12:42:12Z</time></trkpt><trkpt lat="40.79239081648871" lon="9.049719271104385"><ele>278.6666666666667</ele><time>2026-05-01T12:42:13Z</time></trkpt><trkpt lat="40.79234380727429" lon="9.049661006972471"><ele>279.0</ele><time>2026-05-01T12:42:14Z</time></trkpt><trkpt lat="40.792300154300655" lon="9.049592801265478"><ele>277.2</ele><time>2026-05-01T12:42:15Z</time></trkpt><trkpt lat="40.79221573145823" lon="9.049504364219416"><ele>275.4</ele><time>2026-05-01T12:42:16Z</time></trkpt><trkpt lat="40.792134100110985" lon="9.049431572229246"><ele>273.6</ele><time>2026-05-01T12:42:17Z</time></trkpt><trkpt lat="40.79205362409303" lon="9.049369184274637"><ele>271.8</ele><time>2026-05-01T12:42:18Z</time></trkpt><trkpt lat="40.79197659216084" lon="9.049308710210076"><ele>270.0</ele><time>2026-05-01T12:42:19Z</time></trkpt><trkpt lat="40.79190500337137" lon="9.049265878986358"><ele>270.6</ele><time>2026-05-01T12:42:20Z</time></trkpt><trkpt lat="40.79183186089254" lon="9.04923004735431"><ele>271.2</ele><time>2026-05-01T12:42:21Z</time></trkpt><trkpt lat="40.791764429697054" lon="9.049205787841712"><ele>271.8</ele><time>2026-05-01T12:42:22Z</time></trkpt><trkpt lat="40.791628901208135" lon="9.0491072783713"><ele>272.4</ele><time>2026-05-01T12:42:24Z</time></trkpt><trkpt lat="40.79155572789357" lon="9.04902798981912"><ele>273.0</ele><time>2026-05-01T12:42:25Z</time></trkpt><trkpt lat="40.79143791741791" lon="9.049013306743882"><ele>271.8333333333333</ele><time>2026-05-01T12:42:27Z</time></trkpt><trkpt lat="40.791321453750946" lon="9.048936541109759"><ele>270.6666666666667</ele><time>2026-05-01T12:42:29Z</time></trkpt><trkpt lat="40.791259015243185" lon="9.048893321491178"><ele>269.5</ele><time>2026-05-01T12:42:30Z</time></trkpt><trkpt lat="40.791200968461816" lon="9.04883978681446"><ele>268.33333333333337</ele><time>2026-05-01T12:42:31Z</time></trkpt><trkpt lat="40.791137026079745" lon="9.048790499651187"><ele>267.1666666666667</ele><time>2026-05-01T12:42:32Z</time></trkpt><trkpt lat="40.79107752145987" lon="9.048740456535395"><ele>266.0</ele><time>2026-05-01T12:42:33Z</time></trkpt><trkpt lat="40.79097106156538" lon="9.048632630553325"><ele>266.0</ele><time>2026-05-01T12:42:35Z</time></trkpt><trkpt lat="40.79090754781534" lon="9.048581886495327"><ele>266.0</ele><time>2026-05-01T12:42:36Z</time></trkpt><trkpt lat="40.79084269501311" lon="9.048529594305313"><ele>266.0</ele><time>2026-05-01T12:42:37Z</time></trkpt><trkpt lat="40.79078182497582" lon="9.048494666911237"><ele>266.0</ele><time>2026-05-01T12:42:38Z</time></trkpt><trkpt lat="40.79071797284894" lon="9.048445145759201"><ele>266.0</ele><time>2026-05-01T12:42:39Z</time></trkpt><trkpt lat="40.79065616221098" lon="9.048404053696746"><ele>266.0</ele><time>2026-05-01T12:42:40Z</time></trkpt><trkpt lat="40.79057965097836" lon="9.048365327830442"><ele>266.0</ele><time>2026-05-01T12:42:41Z</time></trkpt><trkpt lat="40.79049977783243" lon="9.048327380838447"><ele>266.33333333333337</ele><time>2026-05-01T12:42:42Z</time></trkpt><trkpt lat="40.79041482095102" lon="9.048268169433362"><ele>266.6666666666667</ele><time>2026-05-01T12:42:43Z</time></trkpt><trkpt lat="40.79034231100932" lon="9.048210238540992"><ele>267.0</ele><time>2026-05-01T12:42:44Z</time></trkpt><trkpt lat="40.79026709198337" lon="9.048150018725657"><ele>267.3333333333333</ele><time>2026-05-01T12:42:45Z</time></trkpt><trkpt lat="40.79017238431068" lon="9.048089871277607"><ele>267.66666666666663</ele><time>2026-05-01T12:42:47Z</time></trkpt><trkpt lat="40.790114788784905" lon="9.048039637104832"><ele>268.0</ele><time>2026-05-01T12:42:48Z</time></trkpt><trkpt lat="40.79004851228679" lon="9.047988595111164"><ele>266.66666666666663</ele><time>2026-05-01T12:42:49Z</time></trkpt><trkpt lat="40.78997779879649" lon="9.04793323317483"><ele>265.3333333333333</ele><time>2026-05-01T12:42:50Z</time></trkpt><trkpt lat="40.789904974152996" lon="9.047873332189045"><ele>264.0</ele><time>2026-05-01T12:42:51Z</time></trkpt><trkpt lat="40.78983569908228" lon="9.04782078549548"><ele>262.6666666666667</ele><time>2026-05-01T12:42:52Z</time></trkpt><trkpt lat="40.78976858434315" lon="9.047777760059047"><ele>261.33333333333337</ele><time>2026-05-01T12:42:53Z</time></trkpt><trkpt lat="40.78970158286817" lon="9.047719833396384"><ele>260.0</ele><time>2026-05-01T12:42:54Z</time></trkpt><trkpt lat="40.78963225484267" lon="9.047657510238926"><ele>260.0</ele><time>2026-05-01T12:42:55Z</time></trkpt><trkpt lat="40.789573699971655" lon="9.04759779689929"><ele>260.0</ele><time>2026-05-01T12:42:56Z</time></trkpt><trkpt lat="40.78952159975191" lon="9.047544443816998"><ele>260.0</ele><time>2026-05-01T12:42:57Z</time></trkpt><trkpt lat="40.789420342576065" lon="9.047465228568807"><ele>260.0</ele><time>2026-05-01T12:42:59Z</time></trkpt><trkpt lat="40.78935974319248" lon="9.047407724218596"><ele>260.0</ele><time>2026-05-01T12:43:00Z</time></trkpt><trkpt lat="40.78930996022707" lon="9.047352054200463"><ele>260.0</ele><time>2026-05-01T12:43:01Z</time></trkpt><trkpt lat="40.78925512241428" lon="9.047284719898489"><ele>259.6666666666667</ele><time>2026-05-01T12:43:02Z</time></trkpt><trkpt lat="40.789198698589175" lon="9.047230333339629"><ele>259.33333333333337</ele><time>2026-05-01T12:43:03Z</time></trkpt><trkpt lat="40.78913602600569" lon="9.047178036427518"><ele>259.0</ele><time>2026-05-01T12:43:04Z</time></trkpt><trkpt lat="40.78907178414295" lon="9.047113870418462"><ele>258.6666666666667</ele><time>2026-05-01T12:43:05Z</time></trkpt><trkpt lat="40.789001080490415" lon="9.047047872517105"><ele>258.3333333333333</ele><time>2026-05-01T12:43:06Z</time></trkpt><trkpt lat="40.78893986765965" lon="9.047004217275202"><ele>258.0</ele><time>2026-05-01T12:43:07Z</time></trkpt><trkpt lat="40.78884696527621" lon="9.046940532631114"><ele>258.0</ele><time>2026-05-01T12:43:08Z</time></trkpt><trkpt lat="40.78875893282177" lon="9.046863252958875"><ele>258.0</ele><time>2026-05-01T12:43:09Z</time></trkpt><trkpt lat="40.78869274974586" lon="9.046790617124099"><ele>258.0</ele><time>2026-05-01T12:43:10Z</time></trkpt><trkpt lat="40.788556107768045" lon="9.046678539954259"><ele>258.0</ele><time>2026-05-01T12:43:12Z</time></trkpt><trkpt lat="40.78850479057928" lon="9.046628462375994"><ele>258.0</ele><time>2026-05-01T12:43:13Z</time></trkpt><trkpt lat="40.788442166294864" lon="9.046580477059115"><ele>258.6666666666667</ele><time>2026-05-01T12:43:14Z</time></trkpt><trkpt lat="40.78837218781462" lon="9.046505877830363"><ele>259.3333333333333</ele><time>2026-05-01T12:43:15Z</time></trkpt><trkpt lat="40.78831117545504" lon="9.046452612776234"><ele>260.0</ele><time>2026-05-01T12:43:16Z</time></trkpt><trkpt lat="40.78824984601133" lon="9.046420426157637"><ele>260.66666666666663</ele><time>2026-05-01T12:43:17Z</time></trkpt><trkpt lat="40.78811979665246" lon="9.046403996113302"><ele>261.3333333333333</ele><time>2026-05-01T12:43:19Z</time></trkpt><trkpt lat="40.788041608190476" lon="9.046387973211015"><ele>262.0</ele><time>2026-05-01T12:43:20Z</time></trkpt><trkpt lat="40.7879778738975" lon="9.046365426511969"><ele>262.0</ele><time>2026-05-01T12:43:21Z</time></trkpt><trkpt lat="40.78783921773131" lon="9.046373895017506"><ele>262.0</ele><time>2026-05-01T12:43:23Z</time></trkpt><trkpt lat="40.78775896003895" lon="9.046388993203342"><ele>262.0</ele><time>2026-05-01T12:43:24Z</time></trkpt><trkpt lat="40.78768573041383" lon="9.046383701729875"><ele>262.0</ele><time>2026-05-01T12:43:25Z</time></trkpt><trkpt lat="40.78757043411411" lon="9.04645075832504"><ele>262.0</ele><time>2026-05-01T12:43:27Z</time></trkpt><trkpt lat="40.787503772216475" lon="9.046518080446756"><ele>260.6</ele><time>2026-05-01T12:43:28Z</time></trkpt><trkpt lat="40.78742169900268" lon="9.0465762092692"><ele>259.2</ele><time>2026-05-01T12:43:29Z</time></trkpt><trkpt lat="40.78732983911599" lon="9.04658719195178"><ele>257.8</ele><time>2026-05-01T12:43:30Z</time></trkpt><trkpt lat="40.787234015628876" lon="9.046599679268233"><ele>256.4</ele><time>2026-05-01T12:43:31Z</time></trkpt><trkpt lat="40.7871408961918" lon="9.046608405050067"><ele>255.0</ele><time>2026-05-01T12:43:32Z</time></trkpt><trkpt lat="40.78704454256823" lon="9.046610149507924"><ele>255.0</ele><time>2026-05-01T12:43:33Z</time></trkpt><trkpt lat="40.78693737678884" lon="9.046601631667071"><ele>255.0</ele><time>2026-05-01T12:43:34.001Z</time></trkpt><trkpt lat="40.78681035464896" lon="9.046591535502705"><ele>255.0</ele><time>2026-05-01T12:43:35.001Z</time></trkpt><trkpt lat="40.78668251772225" lon="9.046582767401983"><ele>255.0</ele><time>2026-05-01T12:43:36.001Z</time></trkpt><trkpt lat="40.78658263404761" lon="9.046588441376013"><ele>254.4</ele><time>2026-05-01T12:43:37.001Z</time></trkpt><trkpt lat="40.78647187750256" lon="9.046551897355519"><ele>253.8</ele><time>2026-05-01T12:43:38.001Z</time></trkpt><trkpt lat="40.78634779782076" lon="9.046493921449374"><ele>253.2</ele><time>2026-05-01T12:43:39Z</time></trkpt><trkpt lat="40.78625808292515" lon="9.046460699148776"><ele>252.6</ele><time>2026-05-01T12:43:40Z</time></trkpt><trkpt lat="40.786192126413006" lon="9.04641201728743"><ele>252.0</ele><time>2026-05-01T12:43:41Z</time></trkpt><trkpt lat="40.78611025953677" lon="9.046321630902934"><ele>255.25</ele><time>2026-05-01T12:43:42Z</time></trkpt><trkpt lat="40.78600279853294" lon="9.046215265682678"><ele>258.5</ele><time>2026-05-01T12:43:43Z</time></trkpt><trkpt lat="40.785888685545615" lon="9.046121335552275"><ele>261.75</ele><time>2026-05-01T12:43:44Z</time></trkpt><trkpt lat="40.78578390259081" lon="9.04601576824797"><ele>265.0</ele><time>2026-05-01T12:43:45Z</time></trkpt><trkpt lat="40.78570149306248" lon="9.045928928732268"><ele>265.0</ele><time>2026-05-01T12:43:46Z</time></trkpt><trkpt lat="40.785629632420004" lon="9.04585481494804"><ele>265.0</ele><time>2026-05-01T12:43:47Z</time></trkpt><trkpt lat="40.78556011188712" lon="9.04575994945939"><ele>265.0</ele><time>2026-05-01T12:43:48Z</time></trkpt><trkpt lat="40.785496578854016" lon="9.045642804157064"><ele>265.0</ele><time>2026-05-01T12:43:49Z</time></trkpt><trkpt lat="40.78544867740425" lon="9.045500243075713"><ele>265.0</ele><time>2026-05-01T12:43:50Z</time></trkpt><trkpt lat="40.78539629960265" lon="9.045396857980503"><ele>265.0</ele><time>2026-05-01T12:43:51Z</time></trkpt><trkpt lat="40.78532229228581" lon="9.04531016691144"><ele>265.0</ele><time>2026-05-01T12:43:52Z</time></trkpt><trkpt lat="40.78524087176158" lon="9.045250298898237"><ele>265.0</ele><time>2026-05-01T12:43:53Z</time></trkpt><trkpt lat="40.78514790920577" lon="9.045221393474892"><ele>265.0</ele><time>2026-05-01T12:43:54Z</time></trkpt><trkpt lat="40.785033519919445" lon="9.045182327238122"><ele>265.0</ele><time>2026-05-01T12:43:55Z</time></trkpt><trkpt lat="40.784913075242315" lon="9.045126387746139"><ele>265.0</ele><time>2026-05-01T12:43:56Z</time></trkpt><trkpt lat="40.784802565783046" lon="9.045108795977038"><ele>265.0</ele><time>2026-05-01T12:43:57Z</time></trkpt><trkpt lat="40.78471677108508" lon="9.0451051301295"><ele>265.0</ele><time>2026-05-01T12:43:58Z</time></trkpt><trkpt lat="40.78461723835251" lon="9.04513791912044"><ele>265.0</ele><time>2026-05-01T12:44:00Z</time></trkpt><trkpt lat="40.78455788208902" lon="9.04520110915132"><ele>265.0</ele><time>2026-05-01T12:44:01Z</time></trkpt><trkpt lat="40.7844815038681" lon="9.045268858498465"><ele>265.0</ele><time>2026-05-01T12:44:02Z</time></trkpt><trkpt lat="40.784408516312695" lon="9.045342770176454"><ele>265.0</ele><time>2026-05-01T12:44:03Z</time></trkpt><trkpt lat="40.78432534766872" lon="9.045426331855683"><ele>265.0</ele><time>2026-05-01T12:44:04Z</time></trkpt><trkpt lat="40.78423843390777" lon="9.045523144955457"><ele>265.0</ele><time>2026-05-01T12:44:05Z</time></trkpt><trkpt lat="40.78416571836608" lon="9.045596534782748"><ele>265.0</ele><time>2026-05-01T12:44:06Z</time></trkpt><trkpt lat="40.78410973172565" lon="9.045656754146084"><ele>263.2</ele><time>2026-05-01T12:44:07Z</time></trkpt><trkpt lat="40.784075548801496" lon="9.04574722341953"><ele>261.4</ele><time>2026-05-01T12:44:08Z</time></trkpt><trkpt lat="40.784077485622404" lon="9.045831782050776"><ele>259.6</ele><time>2026-05-01T12:44:09Z</time></trkpt><trkpt lat="40.78407150750323" lon="9.04593883261734"><ele>257.8</ele><time>2026-05-01T12:44:10Z</time></trkpt><trkpt lat="40.78405784165502" lon="9.046075666103377"><ele>256.0</ele><time>2026-05-01T12:44:11Z</time></trkpt><trkpt lat="40.78402248210138" lon="9.046234638879087"><ele>259.8</ele><time>2026-05-01T12:44:12Z</time></trkpt><trkpt lat="40.78397485504277" lon="9.046355884771657"><ele>263.6</ele><time>2026-05-01T12:44:13Z</time></trkpt><trkpt lat="40.78390985362996" lon="9.046453050628577"><ele>267.4</ele><time>2026-05-01T12:44:14Z</time></trkpt><trkpt lat="40.78387806746911" lon="9.046539805074417"><ele>271.2</ele><time>2026-05-01T12:44:15Z</time></trkpt><trkpt lat="40.78381086006024" lon="9.046640516220988"><ele>275.0</ele><time>2026-05-01T12:44:17Z</time></trkpt><trkpt lat="40.78370013781925" lon="9.046557906949278"><ele>275.0</ele><time>2026-05-01T12:44:19Z</time></trkpt><trkpt lat="40.78361870759703" lon="9.046527876675896"><ele>275.0</ele><time>2026-05-01T12:44:20Z</time></trkpt><trkpt lat="40.783505822174675" lon="9.046451757122625"><ele>275.0</ele><time>2026-05-01T12:44:21Z</time></trkpt><trkpt lat="40.78344055168627" lon="9.046351766070051"><ele>275.0</ele><time>2026-05-01T12:44:22Z</time></trkpt><trkpt lat="40.783378600648" lon="9.046259089376948"><ele>275.0</ele><time>2026-05-01T12:44:23Z</time></trkpt><trkpt lat="40.783334243008284" lon="9.046190874451154"><ele>272.25</ele><time>2026-05-01T12:44:24Z</time></trkpt><trkpt lat="40.783222660210996" lon="9.0461425802755"><ele>269.5</ele><time>2026-05-01T12:44:25Z</time></trkpt><trkpt lat="40.783123394517155" lon="9.046081478401714"><ele>266.75</ele><time>2026-05-01T12:44:26Z</time></trkpt><trkpt lat="40.78299270093838" lon="9.04600114064327"><ele>264.0</ele><time>2026-05-01T12:44:27Z</time></trkpt><trkpt lat="40.78286408884895" lon="9.045916090755533"><ele>264.0</ele><time>2026-05-01T12:44:28Z</time></trkpt><trkpt lat="40.78277249417761" lon="9.045830403649937"><ele>264.0</ele><time>2026-05-01T12:44:29Z</time></trkpt><trkpt lat="40.782686639522204" lon="9.045785319259366"><ele>264.0</ele><time>2026-05-01T12:44:30Z</time></trkpt><trkpt lat="40.78259352364686" lon="9.045740867326963"><ele>264.0</ele><time>2026-05-01T12:44:32Z</time></trkpt><trkpt lat="40.782595692349275" lon="9.045586889273936"><ele>264.0</ele><time>2026-05-01T12:44:49Z</time></trkpt><trkpt lat="40.78259158051632" lon="9.045499624998302"><ele>265.3333333333333</ele><time>2026-05-01T12:44:50Z</time></trkpt><trkpt lat="40.78258297737667" lon="9.045380286870085"><ele>266.6666666666667</ele><time>2026-05-01T12:44:51Z</time></trkpt><trkpt lat="40.78257012738355" lon="9.0452892905513"><ele>268.0</ele><time>2026-05-01T12:44:52Z</time></trkpt><trkpt lat="40.78254921916185" lon="9.04519623053772"><ele>269.33333333333337</ele><time>2026-05-01T12:44:53Z</time></trkpt><trkpt lat="40.78251920459681" lon="9.04511887212357"><ele>270.6666666666667</ele><time>2026-05-01T12:44:54Z</time></trkpt><trkpt lat="40.78247441831623" lon="9.045047463078776"><ele>272.0</ele><time>2026-05-01T12:44:55Z</time></trkpt><trkpt lat="40.782400710293054" lon="9.044964384532053"><ele>267.0</ele><time>2026-05-01T12:44:56Z</time></trkpt><trkpt lat="40.78231613633481" lon="9.044888013099968"><ele>262.0</ele><time>2026-05-01T12:44:57Z</time></trkpt><trkpt lat="40.78224426711603" lon="9.04486751156579"><ele>257.0</ele><time>2026-05-01T12:44:58Z</time></trkpt><trkpt lat="40.78217314462263" lon="9.044874102541298"><ele>252.0</ele><time>2026-05-01T12:44:59Z</time></trkpt><trkpt lat="40.782045796769914" lon="9.044894338644955"><ele>247.0</ele><time>2026-05-01T12:45:00Z</time></trkpt><trkpt lat="40.78192912855052" lon="9.044927579281296"><ele>245.6</ele><time>2026-05-01T12:45:01Z</time></trkpt><trkpt lat="40.78183957290826" lon="9.044953600048135"><ele>244.2</ele><time>2026-05-01T12:45:02Z</time></trkpt><trkpt lat="40.78174708265053" lon="9.044947574899851"><ele>242.8</ele><time>2026-05-01T12:45:03Z</time></trkpt><trkpt lat="40.78164262041322" lon="9.044918105151549"><ele>241.4</ele><time>2026-05-01T12:45:04Z</time></trkpt><trkpt lat="40.78152912850778" lon="9.044902350196384"><ele>240.0</ele><time>2026-05-01T12:45:05Z</time></trkpt><trkpt lat="40.78142526499927" lon="9.044894168384339"><ele>240.0</ele><time>2026-05-01T12:45:06Z</time></trkpt><trkpt lat="40.78133889793343" lon="9.044896122906863"><ele>240.0</ele><time>2026-05-01T12:45:07Z</time></trkpt><trkpt lat="40.78125591664079" lon="9.044896648810493"><ele>240.0</ele><time>2026-05-01T12:45:08Z</time></trkpt><trkpt lat="40.781186258358886" lon="9.044872449902382"><ele>240.0</ele><time>2026-05-01T12:45:09Z</time></trkpt><trkpt lat="40.78111525279976" lon="9.044823046097266"><ele>240.0</ele><time>2026-05-01T12:45:10Z</time></trkpt><trkpt lat="40.781020466482" lon="9.044777611545875"><ele>240.0</ele><time>2026-05-01T12:45:11Z</time></trkpt><trkpt lat="40.780924580789254" lon="9.044758168876438"><ele>241.0</ele><time>2026-05-01T12:45:12Z</time></trkpt><trkpt lat="40.78082433412633" lon="9.04475290174666"><ele>242.0</ele><time>2026-05-01T12:45:13Z</time></trkpt><trkpt lat="40.7807432370256" lon="9.044766801592571"><ele>243.0</ele><time>2026-05-01T12:45:14.001Z</time></trkpt><trkpt lat="40.78065284175861" lon="9.044849062250183"><ele>244.0</ele><time>2026-05-01T12:45:16.001Z</time></trkpt><trkpt lat="40.780600362256166" lon="9.044915976433835"><ele>245.0</ele><time>2026-05-01T12:45:17.001Z</time></trkpt><trkpt lat="40.78055075758444" lon="9.04499390476792"><ele>246.0</ele><time>2026-05-01T12:45:18.001Z</time></trkpt><trkpt lat="40.78050866809582" lon="9.045072994188482"><ele>248.16666666666666</ele><time>2026-05-01T12:45:19.001Z</time></trkpt><trkpt lat="40.78045349465138" lon="9.04513136227905"><ele>250.33333333333331</ele><time>2026-05-01T12:45:20.001Z</time></trkpt><trkpt lat="40.7803763640627" lon="9.045155203701077"><ele>252.5</ele><time>2026-05-01T12:45:21.001Z</time></trkpt><trkpt lat="40.78030688141531" lon="9.045164093978954"><ele>254.66666666666666</ele><time>2026-05-01T12:45:22.001Z</time></trkpt><trkpt lat="40.78020601243206" lon="9.045156675484414"><ele>256.8333333333333</ele><time>2026-05-01T12:45:24.001Z</time></trkpt><trkpt lat="40.78012496619021" lon="9.045147666550609"><ele>259.0</ele><time>2026-05-01T12:45:25.001Z</time></trkpt><trkpt lat="40.78003670697886" lon="9.045126702527092"><ele>259.0</ele><time>2026-05-01T12:45:26.001Z</time></trkpt><trkpt lat="40.77995225284275" lon="9.045108720814705"><ele>259.0</ele><time>2026-05-01T12:45:27.001Z</time></trkpt><trkpt lat="40.779867841465354" lon="9.045116901266205"><ele>259.0</ele><time>2026-05-01T12:45:28.001Z</time></trkpt><trkpt lat="40.779788440967636" lon="9.045166491104911"><ele>259.0</ele><time>2026-05-01T12:45:29.001Z</time></trkpt><trkpt lat="40.779719598926306" lon="9.045233349700974"><ele>259.0</ele><time>2026-05-01T12:45:30.001Z</time></trkpt><trkpt lat="40.779649673562915" lon="9.04531134991267"><ele>259.0</ele><time>2026-05-01T12:45:31.001Z</time></trkpt><trkpt lat="40.77958308892745" lon="9.045375701873066"><ele>259.0</ele><time>2026-05-01T12:45:32.001Z</time></trkpt><trkpt lat="40.779454989108565" lon="9.045371053513069"><ele>259.0</ele><time>2026-05-01T12:45:34.001Z</time></trkpt><trkpt lat="40.77939502167657" lon="9.045324441923796"><ele>259.0</ele><time>2026-05-01T12:45:35.001Z</time></trkpt><trkpt lat="40.779343581025735" lon="9.045240745844515"><ele>259.0</ele><time>2026-05-01T12:45:36.001Z</time></trkpt><trkpt lat="40.77929995633374" lon="9.045133946870031"><ele>259.0</ele><time>2026-05-01T12:45:37.001Z</time></trkpt><trkpt lat="40.77927194319096" lon="9.045020403732332"><ele>255.99999999999997</ele><time>2026-05-01T12:45:38.001Z</time></trkpt><trkpt lat="40.779227620618194" lon="9.044910717366047"><ele>253.0</ele><time>2026-05-01T12:45:39.001Z</time></trkpt><trkpt lat="40.7791718643966" lon="9.044827397782072"><ele>250.0</ele><time>2026-05-01T12:45:40.001Z</time></trkpt><trkpt lat="40.77910757340714" lon="9.044746381953239"><ele>247.0</ele><time>2026-05-01T12:45:41.001Z</time></trkpt><trkpt lat="40.779043685972965" lon="9.044718191232347"><ele>243.99999999999997</ele><time>2026-05-01T12:45:42.001Z</time></trkpt><trkpt lat="40.7789626355836" lon="9.044722067215009"><ele>241.0</ele><time>2026-05-01T12:45:43.001Z</time></trkpt><trkpt lat="40.77885371440944" lon="9.044719452137166"><ele>241.0</ele><time>2026-05-01T12:45:44.001Z</time></trkpt><trkpt lat="40.77872263263893" lon="9.04470010463303"><ele>241.00000000000003</ele><time>2026-05-01T12:45:45Z</time></trkpt><trkpt lat="40.77860612599427" lon="9.044691687454629"><ele>241.00000000000003</ele><time>2026-05-01T12:45:46Z</time></trkpt><trkpt lat="40.77850009192061" lon="9.044700190368353"><ele>241.0</ele><time>2026-05-01T12:45:47Z</time></trkpt><trkpt lat="40.77843167284842" lon="9.04472004902251"><ele>241.0</ele><time>2026-05-01T12:45:48Z</time></trkpt><trkpt lat="40.77834541352253" lon="9.04473617433916"><ele>243.0</ele><time>2026-05-01T12:45:49Z</time></trkpt><trkpt lat="40.778206445508275" lon="9.044762438593894"><ele>245.00000000000003</ele><time>2026-05-01T12:45:50Z</time></trkpt><trkpt lat="40.778082505701995" lon="9.044757447487319"><ele>247.00000000000003</ele><time>2026-05-01T12:45:51Z</time></trkpt><trkpt lat="40.7779916531525" lon="9.044727323082125"><ele>249.0</ele><time>2026-05-01T12:45:52Z</time></trkpt><trkpt lat="40.777913548681234" lon="9.044692829917578"><ele>251.0</ele><time>2026-05-01T12:45:53Z</time></trkpt><trkpt lat="40.77776588184677" lon="9.044664309716962"><ele>251.0</ele><time>2026-05-01T12:45:55Z</time></trkpt><trkpt lat="40.77769730481037" lon="9.044756966354967"><ele>251.00000000000003</ele><time>2026-05-01T12:45:57Z</time></trkpt><trkpt lat="40.77765391037878" lon="9.044854927055066"><ele>251.00000000000003</ele><time>2026-05-01T12:45:58Z</time></trkpt><trkpt lat="40.777604168509285" lon="9.044975198604428"><ele>251.0</ele><time>2026-05-01T12:45:59Z</time></trkpt><trkpt lat="40.777561596257904" lon="9.045114407170278"><ele>251.0</ele><time>2026-05-01T12:46:00Z</time></trkpt><trkpt lat="40.777499134379156" lon="9.045224040061617"><ele>254.16666666666669</ele><time>2026-05-01T12:46:01Z</time></trkpt><trkpt lat="40.77742615752706" lon="9.045313136124854"><ele>257.33333333333337</ele><time>2026-05-01T12:46:02Z</time></trkpt><trkpt lat="40.77737957932941" lon="9.045389089666187"><ele>260.5</ele><time>2026-05-01T12:46:03Z</time></trkpt><trkpt lat="40.777347673601675" lon="9.045534190840867"><ele>263.6666666666667</ele><time>2026-05-01T12:46:05Z</time></trkpt><trkpt lat="40.777337450112945" lon="9.04562400666153"><ele>266.8333333333333</ele><time>2026-05-01T12:46:06Z</time></trkpt><trkpt lat="40.77733011997369" lon="9.04572863806833"><ele>270.0</ele><time>2026-05-01T12:46:07Z</time></trkpt><trkpt lat="40.77732347953734" lon="9.045855199220545"><ele>273.2</ele><time>2026-05-01T12:46:08Z</time></trkpt><trkpt lat="40.77730871431909" lon="9.04597637648494"><ele>276.4</ele><time>2026-05-01T12:46:09Z</time></trkpt><trkpt lat="40.777295733197995" lon="9.046111640986608"><ele>279.6</ele><time>2026-05-01T12:46:10Z</time></trkpt><trkpt lat="40.777267207715866" lon="9.046263385650347"><ele>282.8</ele><time>2026-05-01T12:46:11Z</time></trkpt><trkpt lat="40.77724780812065" lon="9.046363772245234"><ele>286.0</ele><time>2026-05-01T12:46:12Z</time></trkpt><trkpt lat="40.7771645667506" lon="9.046531988652038"><ele>285.6</ele><time>2026-05-01T12:46:14Z</time></trkpt><trkpt lat="40.77712763208846" lon="9.046632168400551"><ele>285.20000000000005</ele><time>2026-05-01T12:46:15Z</time></trkpt><trkpt lat="40.777079705669394" lon="9.046721559723288"><ele>284.79999999999995</ele><time>2026-05-01T12:46:16Z</time></trkpt><trkpt lat="40.77701973292878" lon="9.046820813287344"><ele>284.4</ele><time>2026-05-01T12:46:17Z</time></trkpt><trkpt lat="40.7769382582864" lon="9.046944010116967"><ele>284.0</ele><time>2026-05-01T12:46:19Z</time></trkpt><trkpt lat="40.776836693504734" lon="9.046972222828968"><ele>284.0</ele><time>2026-05-01T12:46:21Z</time></trkpt><trkpt lat="40.77675541467171" lon="9.046993448726386"><ele>284.0</ele><time>2026-05-01T12:46:23Z</time></trkpt><trkpt lat="40.77672157185271" lon="9.047092469939827"><ele>284.0</ele><time>2026-05-01T12:46:27Z</time></trkpt><trkpt lat="40.77679556318075" lon="9.047145006837283"><ele>284.0</ele><time>2026-05-01T12:46:29Z</time></trkpt><trkpt lat="40.77687237547692" lon="9.047126829680025"><ele>284.0</ele><time>2026-05-01T12:46:30Z</time></trkpt><trkpt lat="40.77694396578227" lon="9.047102234445815"><ele>284.0</ele><time>2026-05-01T12:46:31Z</time></trkpt><trkpt lat="40.77701781202925" lon="9.04710441230588"><ele>284.1666666666667</ele><time>2026-05-01T12:46:32Z</time></trkpt><trkpt lat="40.77708865596722" lon="9.047136690118364"><ele>284.33333333333337</ele><time>2026-05-01T12:46:33Z</time></trkpt><trkpt lat="40.77716210188139" lon="9.047185452265202"><ele>284.5</ele><time>2026-05-01T12:46:34Z</time></trkpt><trkpt lat="40.77723928543862" lon="9.047251443860215"><ele>284.6666666666667</ele><time>2026-05-01T12:46:35Z</time></trkpt><trkpt lat="40.77730352236434" lon="9.047336675771017"><ele>284.8333333333333</ele><time>2026-05-01T12:46:36Z</time></trkpt><trkpt lat="40.777356090775314" lon="9.047432017437837"><ele>285.0</ele><time>2026-05-01T12:46:37Z</time></trkpt><trkpt lat="40.77739234176984" lon="9.047549322059993"><ele>285.0</ele><time>2026-05-01T12:46:38Z</time></trkpt><trkpt lat="40.777409929108565" lon="9.047676983717208"><ele>285.0</ele><time>2026-05-01T12:46:39Z</time></trkpt><trkpt lat="40.77737875281041" lon="9.047816604859435"><ele>285.0</ele><time>2026-05-01T12:46:40Z</time></trkpt><trkpt lat="40.77732691252424" lon="9.047944565718561"><ele>285.0</ele><time>2026-05-01T12:46:41Z</time></trkpt><trkpt lat="40.777285608201424" lon="9.048047045530966"><ele>285.0</ele><time>2026-05-01T12:46:42Z</time></trkpt><trkpt lat="40.77729269321774" lon="9.048147530687796"><ele>285.0</ele><time>2026-05-01T12:46:43Z</time></trkpt><trkpt lat="40.77733945657708" lon="9.048247314600939"><ele>285.0</ele><time>2026-05-01T12:46:44Z</time></trkpt><trkpt lat="40.77742215207955" lon="9.048325946112861"><ele>285.0</ele><time>2026-05-01T12:46:45Z</time></trkpt><trkpt lat="40.777488564225955" lon="9.048406521114623"><ele>285.0</ele><time>2026-05-01T12:46:46Z</time></trkpt><trkpt lat="40.777541119980974" lon="9.048507295012097"><ele>285.0</ele><time>2026-05-01T12:46:47Z</time></trkpt><trkpt lat="40.777573526008794" lon="9.048620923217452"><ele>284.2</ele><time>2026-05-01T12:46:48Z</time></trkpt><trkpt lat="40.77756449026497" lon="9.04874535018822"><ele>283.4</ele><time>2026-05-01T12:46:49Z</time></trkpt><trkpt lat="40.77750769715452" lon="9.048866513112753"><ele>282.6</ele><time>2026-05-01T12:46:50Z</time></trkpt><trkpt lat="40.777410688959044" lon="9.048958002166367"><ele>281.8</ele><time>2026-05-01T12:46:51Z</time></trkpt><trkpt lat="40.77734001269324" lon="9.049062292872305"><ele>281.0</ele><time>2026-05-01T12:46:52Z</time></trkpt><trkpt lat="40.77732274480662" lon="9.04919628280382"><ele>280.40000000000003</ele><time>2026-05-01T12:46:53Z</time></trkpt><trkpt lat="40.77736185533781" lon="9.04932595028187"><ele>279.8</ele><time>2026-05-01T12:46:54Z</time></trkpt><trkpt lat="40.777438153540054" lon="9.049420532708282"><ele>279.20000000000005</ele><time>2026-05-01T12:46:55Z</time></trkpt><trkpt lat="40.77753207738175" lon="9.049471576468214"><ele>278.6</ele><time>2026-05-01T12:46:56Z</time></trkpt><trkpt lat="40.77761951863443" lon="9.049512061679284"><ele>278.0</ele><time>2026-05-01T12:46:57Z</time></trkpt><trkpt lat="40.77769787232251" lon="9.049576891944273"><ele>283.2</ele><time>2026-05-01T12:46:58Z</time></trkpt><trkpt lat="40.77777250603502" lon="9.049646953795273"><ele>288.4</ele><time>2026-05-01T12:46:59Z</time></trkpt><trkpt lat="40.77785087953259" lon="9.049716490983819"><ele>293.59999999999997</ele><time>2026-05-01T12:47:00Z</time></trkpt><trkpt lat="40.77793259043031" lon="9.049784070729796"><ele>298.8</ele><time>2026-05-01T12:47:01Z</time></trkpt><trkpt lat="40.77801239735661" lon="9.049848620211504"><ele>304.0</ele><time>2026-05-01T12:47:02Z</time></trkpt><trkpt lat="40.77809911927933" lon="9.049908085768008"><ele>300.8</ele><time>2026-05-01T12:47:03Z</time></trkpt><trkpt lat="40.77818477978826" lon="9.049959119632044"><ele>297.59999999999997</ele><time>2026-05-01T12:47:04Z</time></trkpt><trkpt lat="40.778276685322446" lon="9.050008185082689"><ele>294.4</ele><time>2026-05-01T12:47:05Z</time></trkpt><trkpt lat="40.77837660231433" lon="9.050049727303678"><ele>291.2</ele><time>2026-05-01T12:47:06Z</time></trkpt><trkpt lat="40.77848293910155" lon="9.050092780579533"><ele>288.0</ele><time>2026-05-01T12:47:07Z</time></trkpt><trkpt lat="40.77859440299501" lon="9.050125739869836"><ele>288.0</ele><time>2026-05-01T12:47:08Z</time></trkpt><trkpt lat="40.77870973071105" lon="9.050139946798598"><ele>288.0</ele><time>2026-05-01T12:47:09Z</time></trkpt><trkpt lat="40.77882977196479" lon="9.05013664039667"><ele>288.0</ele><time>2026-05-01T12:47:10Z</time></trkpt><trkpt lat="40.778948283508875" lon="9.050138774021237"><ele>288.0</ele><time>2026-05-01T12:47:11Z</time></trkpt><trkpt lat="40.77905446577403" lon="9.050167114528024"><ele>288.0</ele><time>2026-05-01T12:47:12Z</time></trkpt><trkpt lat="40.77913931144895" lon="9.050218234542001"><ele>288.0</ele><time>2026-05-01T12:47:13.001Z</time></trkpt><trkpt lat="40.77921074124149" lon="9.050276726400458"><ele>288.0</ele><time>2026-05-01T12:47:14.001Z</time></trkpt><trkpt lat="40.77923938917898" lon="9.050353604670395"><ele>288.0</ele><time>2026-05-01T12:47:15.001Z</time></trkpt><trkpt lat="40.77922757423679" lon="9.050470887590429"><ele>288.0</ele><time>2026-05-01T12:47:16.001Z</time></trkpt><trkpt lat="40.77916074965877" lon="9.050637523405518"><ele>286.25</ele><time>2026-05-01T12:47:17.001Z</time></trkpt><trkpt lat="40.77908152804085" lon="9.0508132637604"><ele>284.5</ele><time>2026-05-01T12:47:18.001Z</time></trkpt><trkpt lat="40.779020987205605" lon="9.050970471972175"><ele>282.75</ele><time>2026-05-01T12:47:19.001Z</time></trkpt><trkpt lat="40.77896170353178" lon="9.051082362982884"><ele>281.0</ele><time>2026-05-01T12:47:20.001Z</time></trkpt><trkpt lat="40.77886671584083" lon="9.051154411926108"><ele>281.0</ele><time>2026-05-01T12:47:21.001Z</time></trkpt><trkpt lat="40.77872477356032" lon="9.051203098342361"><ele>281.0</ele><time>2026-05-01T12:47:22.001Z</time></trkpt><trkpt lat="40.77855471069347" lon="9.051244456459123"><ele>281.0</ele><time>2026-05-01T12:47:23.001Z</time></trkpt><trkpt lat="40.77838829211592" lon="9.051316383703929"><ele>281.75</ele><time>2026-05-01T12:47:24.001Z</time></trkpt><trkpt lat="40.77825369912911" lon="9.0514184236215"><ele>282.5</ele><time>2026-05-01T12:47:25.001Z</time></trkpt><trkpt lat="40.77813924214522" lon="9.051523845186825"><ele>283.25</ele><time>2026-05-01T12:47:26.001Z</time></trkpt><trkpt lat="40.778035529590305" lon="9.051629050437276"><ele>284.0</ele><time>2026-05-01T12:47:27.001Z</time></trkpt><trkpt lat="40.77793949373235" lon="9.051728210264361"><ele>284.0</ele><time>2026-05-01T12:47:28.001Z</time></trkpt><trkpt lat="40.77784287595725" lon="9.05179802133434"><ele>284.0</ele><time>2026-05-01T12:47:29.001Z</time></trkpt><trkpt lat="40.77773735534995" lon="9.051841053519635"><ele>284.0</ele><time>2026-05-01T12:47:30.001Z</time></trkpt><trkpt lat="40.77763406037106" lon="9.051853893536157"><ele>284.0</ele><time>2026-05-01T12:47:31.001Z</time></trkpt><trkpt lat="40.77754368891755" lon="9.0518816417469"><ele>284.0</ele><time>2026-05-01T12:47:32.001Z</time></trkpt><trkpt lat="40.777485482627" lon="9.051963039004999"><ele>286.0</ele><time>2026-05-01T12:47:33.001Z</time></trkpt><trkpt lat="40.7774530487576" lon="9.05209129876538"><ele>288.0</ele><time>2026-05-01T12:47:34.001Z</time></trkpt><trkpt lat="40.77745894214398" lon="9.052235663018351"><ele>290.0</ele><time>2026-05-01T12:47:35.001Z</time></trkpt><trkpt lat="40.77751402185984" lon="9.052359723316846"><ele>292.0</ele><time>2026-05-01T12:47:36.001Z</time></trkpt><trkpt lat="40.77760536309556" lon="9.052446219756641"><ele>294.0</ele><time>2026-05-01T12:47:37.001Z</time></trkpt><trkpt lat="40.77769449814257" lon="9.05254054578636"><ele>294.0</ele><time>2026-05-01T12:47:38.001Z</time></trkpt><trkpt lat="40.77777560009816" lon="9.052653149289297"><ele>294.0</ele><time>2026-05-01T12:47:39.001Z</time></trkpt><trkpt lat="40.77784661164441" lon="9.052784169206337"><ele>294.0</ele><time>2026-05-01T12:47:40.001Z</time></trkpt><trkpt lat="40.77791371830417" lon="9.052914179761194"><ele>294.0</ele><time>2026-05-01T12:47:41.001Z</time></trkpt><trkpt lat="40.777970424348915" lon="9.053036898327479"><ele>294.0</ele><time>2026-05-01T12:47:42.001Z</time></trkpt><trkpt lat="40.77799496871599" lon="9.053162385765122"><ele>294.0</ele><time>2026-05-01T12:47:43.001Z</time></trkpt><trkpt lat="40.777992078201535" lon="9.053281781640848"><ele>294.0</ele><time>2026-05-01T12:47:44.001Z</time></trkpt><trkpt lat="40.77794731425569" lon="9.053377825788038"><ele>294.0</ele><time>2026-05-01T12:47:45.001Z</time></trkpt><trkpt lat="40.777860387591794" lon="9.053457322653625"><ele>294.0</ele><time>2026-05-01T12:47:46.001Z</time></trkpt><trkpt lat="40.77774174920082" lon="9.053476476919343"><ele>290.59999999999997</ele><time>2026-05-01T12:47:47.001Z</time></trkpt><trkpt lat="40.77763202170654" lon="9.053437095256713"><ele>287.2</ele><time>2026-05-01T12:47:48.001Z</time></trkpt><trkpt lat="40.77753346160257" lon="9.053385499447133"><ele>283.79999999999995</ele><time>2026-05-01T12:47:49.001Z</time></trkpt><trkpt lat="40.77744542196835" lon="9.053377453601701"><ele>280.4</ele><time>2026-05-01T12:47:50Z</time></trkpt><trkpt lat="40.77737889352218" lon="9.05343368633224"><ele>277.0</ele><time>2026-05-01T12:47:51Z</time></trkpt><trkpt lat="40.77733972056387" lon="9.05352895652923"><ele>277.0</ele><time>2026-05-01T12:47:52Z</time></trkpt><trkpt lat="40.777320339597075" lon="9.053653668762507"><ele>277.0</ele><time>2026-05-01T12:47:53Z</time></trkpt><trkpt lat="40.77731382168498" lon="9.05378849955387"><ele>277.0</ele><time>2026-05-01T12:47:54Z</time></trkpt><trkpt lat="40.777308171216205" lon="9.053930480098204"><ele>277.0</ele><time>2026-05-01T12:47:55Z</time></trkpt><trkpt lat="40.777306687568206" lon="9.054069388453497"><ele>277.0</ele><time>2026-05-01T12:47:56Z</time></trkpt><trkpt lat="40.77731766756322" lon="9.05420614233264"><ele>278.3333333333333</ele><time>2026-05-01T12:47:57Z</time></trkpt><trkpt lat="40.777340421315394" lon="9.054330379854928"><ele>279.66666666666663</ele><time>2026-05-01T12:47:58Z</time></trkpt><trkpt lat="40.77736134419629" lon="9.054446359772284"><ele>281.0</ele><time>2026-05-01T12:47:59Z</time></trkpt><trkpt lat="40.77737863251698" lon="9.054555320938832"><ele>282.3333333333333</ele><time>2026-05-01T12:48:00Z</time></trkpt><trkpt lat="40.77739273054341" lon="9.054661617832837"><ele>283.6666666666667</ele><time>2026-05-01T12:48:01Z</time></trkpt><trkpt lat="40.77740785392828" lon="9.05477321607514"><ele>285.0</ele><time>2026-05-01T12:48:03Z</time></trkpt><trkpt lat="40.77743471979134" lon="9.054854458204627"><ele>285.2</ele><time>2026-05-01T12:48:24Z</time></trkpt><trkpt lat="40.777478959493074" lon="9.054960469111325"><ele>285.4</ele><time>2026-05-01T12:48:29Z</time></trkpt><trkpt lat="40.77746892994393" lon="9.055126185970781"><ele>285.6</ele><time>2026-05-01T12:48:31Z</time></trkpt><trkpt lat="40.77745925179938" lon="9.055219268638785"><ele>285.8</ele><time>2026-05-01T12:48:32Z</time></trkpt><trkpt lat="40.77745648567609" lon="9.055332462080651"><ele>286.0</ele><time>2026-05-01T12:48:33Z</time></trkpt><trkpt lat="40.7774518652079" lon="9.055453089820528"><ele>286.0</ele><time>2026-05-01T12:48:34Z</time></trkpt><trkpt lat="40.77743253648806" lon="9.055577682952842"><ele>286.0</ele><time>2026-05-01T12:48:35Z</time></trkpt><trkpt lat="40.77741802403753" lon="9.055702709818418"><ele>286.0</ele><time>2026-05-01T12:48:36Z</time></trkpt><trkpt lat="40.77741623148733" lon="9.055835722620794"><ele>286.0</ele><time>2026-05-01T12:48:37Z</time></trkpt><trkpt lat="40.777431434153996" lon="9.055955661864404"><ele>286.0</ele><time>2026-05-01T12:48:38Z</time></trkpt><trkpt lat="40.777448039336626" lon="9.056070130900538"><ele>285.5</ele><time>2026-05-01T12:48:39Z</time></trkpt><trkpt lat="40.77746826997799" lon="9.056176128604575"><ele>285.0</ele><time>2026-05-01T12:48:40Z</time></trkpt><trkpt lat="40.77749912858485" lon="9.056273465465605"><ele>284.5</ele><time>2026-05-01T12:48:41Z</time></trkpt><trkpt lat="40.77753328803535" lon="9.056364866954928"><ele>284.0</ele><time>2026-05-01T12:48:42Z</time></trkpt><trkpt lat="40.777571890526204" lon="9.056452297373777"><ele>283.5</ele><time>2026-05-01T12:48:43Z</time></trkpt><trkpt lat="40.77760768495526" lon="9.056531414188466"><ele>283.0</ele><time>2026-05-01T12:48:44Z</time></trkpt><trkpt lat="40.77763519478891" lon="9.056620857361324"><ele>281.7142857142857</ele><time>2026-05-01T12:48:45Z</time></trkpt><trkpt lat="40.77765049060053" lon="9.056710921571655"><ele>280.42857142857144</ele><time>2026-05-01T12:48:46Z</time></trkpt><trkpt lat="40.77765981268339" lon="9.056801229455385"><ele>279.14285714285717</ele><time>2026-05-01T12:48:47Z</time></trkpt><trkpt lat="40.777666718930874" lon="9.056889837862386"><ele>277.8571428571429</ele><time>2026-05-01T12:48:48Z</time></trkpt><trkpt lat="40.77767596495004" lon="9.056981106093373"><ele>276.57142857142856</ele><time>2026-05-01T12:48:49Z</time></trkpt><trkpt lat="40.777687744082215" lon="9.057079785025696"><ele>275.28571428571433</ele><time>2026-05-01T12:48:50Z</time></trkpt><trkpt lat="40.777709621210974" lon="9.057183431423294"><ele>274.0</ele><time>2026-05-01T12:48:51Z</time></trkpt><trkpt lat="40.777746924136174" lon="9.057289876146772"><ele>279.2</ele><time>2026-05-01T12:48:52Z</time></trkpt><trkpt lat="40.77779502271661" lon="9.057392468504327"><ele>284.4</ele><time>2026-05-01T12:48:53Z</time></trkpt><trkpt lat="40.77784051857872" lon="9.057501381470567"><ele>289.6</ele><time>2026-05-01T12:48:54Z</time></trkpt><trkpt lat="40.77786420635763" lon="9.057623778750681"><ele>294.8</ele><time>2026-05-01T12:48:55Z</time></trkpt><trkpt lat="40.7778541114263" lon="9.057777502219084"><ele>300.0</ele><time>2026-05-01T12:48:56Z</time></trkpt><trkpt lat="40.777800724068776" lon="9.057935045436219"><ele>300.0</ele><time>2026-05-01T12:48:57Z</time></trkpt><trkpt lat="40.777717856456135" lon="9.058080231763448"><ele>300.0</ele><time>2026-05-01T12:48:58Z</time></trkpt><trkpt lat="40.777614367709894" lon="9.058213666272396"><ele>300.0</ele><time>2026-05-01T12:48:59Z</time></trkpt><trkpt lat="40.777520090365684" lon="9.058356762770243"><ele>300.0</ele><time>2026-05-01T12:49:00Z</time></trkpt><trkpt lat="40.77744449739018" lon="9.058510873900898"><ele>293.25</ele><time>2026-05-01T12:49:01Z</time></trkpt><trkpt lat="40.77738091513154" lon="9.058670454073171"><ele>286.5</ele><time>2026-05-01T12:49:02Z</time></trkpt><trkpt lat="40.777328618865184" lon="9.058828927404624"><ele>279.75</ele><time>2026-05-01T12:49:03Z</time></trkpt><trkpt lat="40.77729181696854" lon="9.058979085050504"><ele>273.0</ele><time>2026-05-01T12:49:04Z</time></trkpt><trkpt lat="40.77727421547287" lon="9.05912904571205"><ele>273.0</ele><time>2026-05-01T12:49:05Z</time></trkpt><trkpt lat="40.77729841939677" lon="9.059273827029136"><ele>273.0</ele><time>2026-05-01T12:49:06Z</time></trkpt><trkpt lat="40.777363571196254" lon="9.059404747111545"><ele>273.0</ele><time>2026-05-01T12:49:07Z</time></trkpt><trkpt lat="40.77745029045452" lon="9.059526066482299"><ele>273.0</ele><time>2026-05-01T12:49:08Z</time></trkpt><trkpt lat="40.777519557392786" lon="9.059647575735982"><ele>273.0</ele><time>2026-05-01T12:49:09Z</time></trkpt><trkpt lat="40.77756263540462" lon="9.059767878768435"><ele>273.0</ele><time>2026-05-01T12:49:10Z</time></trkpt><trkpt lat="40.77757111921334" lon="9.059882322490438"><ele>273.0</ele><time>2026-05-01T12:49:11Z</time></trkpt><trkpt lat="40.77753339943471" lon="9.059967411156803"><ele>273.0</ele><time>2026-05-01T12:49:12Z</time></trkpt><trkpt lat="40.777454594717234" lon="9.060005299292113"><ele>273.0</ele><time>2026-05-01T12:49:13Z</time></trkpt><trkpt lat="40.777364209476985" lon="9.059982517280536"><ele>273.0</ele><time>2026-05-01T12:49:14Z</time></trkpt><trkpt lat="40.77726028661462" lon="9.059930907963073"><ele>273.0</ele><time>2026-05-01T12:49:15Z</time></trkpt><trkpt lat="40.777139597988466" lon="9.059927895011084"><ele>273.0</ele><time>2026-05-01T12:49:16Z</time></trkpt><trkpt lat="40.7769999407075" lon="9.05999226486732"><ele>273.0</ele><time>2026-05-01T12:49:17Z</time></trkpt><trkpt lat="40.77686091713251" lon="9.060112496753534"><ele>273.0</ele><time>2026-05-01T12:49:18Z</time></trkpt><trkpt lat="40.77676045625945" lon="9.060250230428858"><ele>269.25</ele><time>2026-05-01T12:49:19Z</time></trkpt><trkpt lat="40.776686393935" lon="9.060401564670613"><ele>265.5</ele><time>2026-05-01T12:49:20Z</time></trkpt><trkpt lat="40.77665103709695" lon="9.060565738253048"><ele>261.75</ele><time>2026-05-01T12:49:21Z</time></trkpt><trkpt lat="40.77663246324716" lon="9.060725112627962"><ele>258.0</ele><time>2026-05-01T12:49:22Z</time></trkpt><trkpt lat="40.776583159665684" lon="9.060865390810365"><ele>258.0</ele><time>2026-05-01T12:49:23Z</time></trkpt><trkpt lat="40.77648548024158" lon="9.060970920619113"><ele>258.0</ele><time>2026-05-01T12:49:24Z</time></trkpt><trkpt lat="40.77635342799608" lon="9.061027302941708"><ele>258.0</ele><time>2026-05-01T12:49:25Z</time></trkpt><trkpt lat="40.77622312811215" lon="9.061027178439165"><ele>258.0</ele><time>2026-05-01T12:49:26Z</time></trkpt><trkpt lat="40.77611073010322" lon="9.061033152825974"><ele>258.0</ele><time>2026-05-01T12:49:27Z</time></trkpt><trkpt lat="40.77602204639739" lon="9.061117635820459"><ele>258.0</ele><time>2026-05-01T12:49:28Z</time></trkpt><trkpt lat="40.77596304970939" lon="9.061257219615472"><ele>258.0</ele><time>2026-05-01T12:49:29Z</time></trkpt><trkpt lat="40.775939079326314" lon="9.061419116561297"><ele>258.0</ele><time>2026-05-01T12:49:30.001Z</time></trkpt><trkpt lat="40.77595059354947" lon="9.061590413268428"><ele>254.75</ele><time>2026-05-01T12:49:31.001Z</time></trkpt><trkpt lat="40.7759726518432" lon="9.061762115607639"><ele>251.5</ele><time>2026-05-01T12:49:32.001Z</time></trkpt><trkpt lat="40.77598225508381" lon="9.061926374649033"><ele>248.25</ele><time>2026-05-01T12:49:33.001Z</time></trkpt><trkpt lat="40.77598697441511" lon="9.062103768230338"><ele>245.0</ele><time>2026-05-01T12:49:34.001Z</time></trkpt><trkpt lat="40.7759911812762" lon="9.06228395318137"><ele>245.0</ele><time>2026-05-01T12:49:35.001Z</time></trkpt><trkpt lat="40.775986517415376" lon="9.062466410033744"><ele>245.0</ele><time>2026-05-01T12:49:36.001Z</time></trkpt><trkpt lat="40.77596170765799" lon="9.062646803298785"><ele>245.0</ele><time>2026-05-01T12:49:37.001Z</time></trkpt><trkpt lat="40.775922562089676" lon="9.062819236249718"><ele>245.0</ele><time>2026-05-01T12:49:38.001Z</time></trkpt><trkpt lat="40.77588761194949" lon="9.062986729365909"><ele>245.0</ele><time>2026-05-01T12:49:39.001Z</time></trkpt><trkpt lat="40.775856482403" lon="9.063162765905387"><ele>245.0</ele><time>2026-05-01T12:49:40.001Z</time></trkpt><trkpt lat="40.775829187308126" lon="9.063342249882922"><ele>245.0</ele><time>2026-05-01T12:49:41.001Z</time></trkpt><trkpt lat="40.77580001117846" lon="9.063525363898618"><ele>245.0</ele><time>2026-05-01T12:49:42.001Z</time></trkpt><trkpt lat="40.775775227628294" lon="9.063721317973904"><ele>244.75</ele><time>2026-05-01T12:49:43.001Z</time></trkpt><trkpt lat="40.77575630266398" lon="9.063925322541323"><ele>244.5</ele><time>2026-05-01T12:49:44.001Z</time></trkpt><trkpt lat="40.77573670019356" lon="9.064122919884301"><ele>244.25</ele><time>2026-05-01T12:49:45.001Z</time></trkpt><trkpt lat="40.77572473129448" lon="9.064257753031974"><ele>244.0</ele><time>2026-05-01T12:49:46.001Z</time></trkpt><trkpt lat="40.775741241654444" lon="9.064442897260815"><ele>243.75</ele><time>2026-05-01T12:49:47.001Z</time></trkpt><trkpt lat="40.7757857332106" lon="9.064624992848863"><ele>243.5</ele><time>2026-05-01T12:49:48.001Z</time></trkpt><trkpt lat="40.775853567423994" lon="9.064793755090243"><ele>243.25</ele><time>2026-05-01T12:49:49.001Z</time></trkpt><trkpt lat="40.775910574195976" lon="9.06496471870016"><ele>243.0</ele><time>2026-05-01T12:49:50.001Z</time></trkpt><trkpt lat="40.77593626680618" lon="9.065154153729605"><ele>241.5</ele><time>2026-05-01T12:49:51.001Z</time></trkpt><trkpt lat="40.77595414968794" lon="9.065338824775807"><ele>240.0</ele><time>2026-05-01T12:49:52.001Z</time></trkpt><trkpt lat="40.77595463020708" lon="9.065525797937928"><ele>238.5</ele><time>2026-05-01T12:49:53.001Z</time></trkpt><trkpt lat="40.77593632471263" lon="9.065712842278996"><ele>237.0</ele><time>2026-05-01T12:49:54.001Z</time></trkpt><trkpt lat="40.77591254858986" lon="9.065895448889261"><ele>236.25</ele><time>2026-05-01T12:49:55.001Z</time></trkpt><trkpt lat="40.7759100103829" lon="9.06607433282598"><ele>235.5</ele><time>2026-05-01T12:49:56Z</time></trkpt><trkpt lat="40.77596671881156" lon="9.066240120314053"><ele>234.75</ele><time>2026-05-01T12:49:57Z</time></trkpt><trkpt lat="40.776059388422524" lon="9.066377374417675"><ele>234.0</ele><time>2026-05-01T12:49:58Z</time></trkpt><trkpt lat="40.77616584210073" lon="9.066509091027115"><ele>235.39999999999998</ele><time>2026-05-01T12:49:59Z</time></trkpt><trkpt lat="40.776269007510656" lon="9.066619395087011"><ele>236.79999999999998</ele><time>2026-05-01T12:50:00Z</time></trkpt><trkpt lat="40.776365372681155" lon="9.066726527590474"><ele>238.20000000000002</ele><time>2026-05-01T12:50:01Z</time></trkpt><trkpt lat="40.776428204489825" lon="9.066823296453547"><ele>239.60000000000002</ele><time>2026-05-01T12:50:02Z</time></trkpt><trkpt lat="40.7764384140363" lon="9.066922652161017"><ele>241.0</ele><time>2026-05-01T12:50:03Z</time></trkpt><trkpt lat="40.77639155751711" lon="9.067013586556795"><ele>241.0</ele><time>2026-05-01T12:50:04Z</time></trkpt><trkpt lat="40.77631057988668" lon="9.067036495549148"><ele>241.00000000000003</ele><time>2026-05-01T12:50:05Z</time></trkpt><trkpt lat="40.776204707059144" lon="9.066989171490354"><ele>241.00000000000003</ele><time>2026-05-01T12:50:06Z</time></trkpt><trkpt lat="40.77610298185373" lon="9.066918939102957"><ele>241.0</ele><time>2026-05-01T12:50:07Z</time></trkpt><trkpt lat="40.7759975328052" lon="9.06684391486661"><ele>241.0</ele><time>2026-05-01T12:50:08Z</time></trkpt><trkpt lat="40.77589445298741" lon="9.066781656680854"><ele>238.60000000000002</ele><time>2026-05-01T12:50:09Z</time></trkpt><trkpt lat="40.77579889313496" lon="9.06674477233461"><ele>236.20000000000002</ele><time>2026-05-01T12:50:10Z</time></trkpt><trkpt lat="40.775698180392105" lon="9.066718522786456"><ele>233.79999999999998</ele><time>2026-05-01T12:50:11Z</time></trkpt><trkpt lat="40.7755924084368" lon="9.066712624848167"><ele>231.39999999999998</ele><time>2026-05-01T12:50:12Z</time></trkpt><trkpt lat="40.77548440280396" lon="9.066719469771632"><ele>229.0</ele><time>2026-05-01T12:50:13Z</time></trkpt><trkpt lat="40.77537678698068" lon="9.066721981493712"><ele>229.0</ele><time>2026-05-01T12:50:14Z</time></trkpt><trkpt lat="40.775267932260185" lon="9.066683385348393"><ele>229.0</ele><time>2026-05-01T12:50:15Z</time></trkpt><trkpt lat="40.77515376176484" lon="9.066613196951193"><ele>229.0</ele><time>2026-05-01T12:50:16Z</time></trkpt><trkpt lat="40.77504139858692" lon="9.06652837833935"><ele>229.0</ele><time>2026-05-01T12:50:17Z</time></trkpt><trkpt lat="40.77492077989851" lon="9.06645988915973"><ele>228.0</ele><time>2026-05-01T12:50:18Z</time></trkpt><trkpt lat="40.7747914379138" lon="9.06642662028762"><ele>227.0</ele><time>2026-05-01T12:50:19Z</time></trkpt><trkpt lat="40.77465741906915" lon="9.066445435295964"><ele>226.0</ele><time>2026-05-01T12:50:20Z</time></trkpt><trkpt lat="40.774533200797215" lon="9.066522369443678"><ele>225.0</ele><time>2026-05-01T12:50:21Z</time></trkpt><trkpt lat="40.774417866132495" lon="9.066625616551418"><ele>223.25</ele><time>2026-05-01T12:50:22Z</time></trkpt><trkpt lat="40.774299456431244" lon="9.06672084868931"><ele>221.5</ele><time>2026-05-01T12:50:23Z</time></trkpt><trkpt lat="40.77416485432381" lon="9.066794107819454"><ele>219.75</ele><time>2026-05-01T12:50:24Z</time></trkpt><trkpt lat="40.774022880575416" lon="9.066850410712817"><ele>218.0</ele><time>2026-05-01T12:50:25Z</time></trkpt><trkpt lat="40.773873407680355" lon="9.066879704976115"><ele>218.0</ele><time>2026-05-01T12:50:26Z</time></trkpt><trkpt lat="40.77371440666493" lon="9.066889424610332"><ele>218.0</ele><time>2026-05-01T12:50:27Z</time></trkpt><trkpt lat="40.77355186276428" lon="9.066899440256961"><ele>218.0</ele><time>2026-05-01T12:50:28Z</time></trkpt><trkpt lat="40.77338455789286" lon="9.066920308942988"><ele>217.0</ele><time>2026-05-01T12:50:29Z</time></trkpt><trkpt lat="40.77321300472515" lon="9.066946129327716"><ele>216.0</ele><time>2026-05-01T12:50:30Z</time></trkpt><trkpt lat="40.77303897165488" lon="9.066964827605382"><ele>215.0</ele><time>2026-05-01T12:50:31Z</time></trkpt><trkpt lat="40.77286800132841" lon="9.06698278754953"><ele>215.0</ele><time>2026-05-01T12:50:32Z</time></trkpt><trkpt lat="40.7727043138946" lon="9.066998271168737"><ele>215.0</ele><time>2026-05-01T12:50:33Z</time></trkpt><trkpt lat="40.77255497837028" lon="9.067004535082082"><ele>215.0</ele><time>2026-05-01T12:50:34Z</time></trkpt><trkpt lat="40.772406099539914" lon="9.06700199693469"><ele>213.5</ele><time>2026-05-01T12:50:35Z</time></trkpt><trkpt lat="40.77227337675622" lon="9.066996227613503"><ele>212.0</ele><time>2026-05-01T12:50:36Z</time></trkpt><trkpt lat="40.77215189253258" lon="9.06701008007458"><ele>210.5</ele><time>2026-05-01T12:50:37Z</time></trkpt><trkpt lat="40.7720412111026" lon="9.067076051118281"><ele>209.0</ele><time>2026-05-01T12:50:38Z</time></trkpt><trkpt lat="40.771939347649685" lon="9.067169163425943"><ele>207.25</ele><time>2026-05-01T12:50:39Z</time></trkpt><trkpt lat="40.771840818432075" lon="9.06726513328046"><ele>205.5</ele><time>2026-05-01T12:50:40Z</time></trkpt><trkpt lat="40.77173262228301" lon="9.067330359365227"><ele>203.75</ele><time>2026-05-01T12:50:41Z</time></trkpt><trkpt lat="40.77160970107542" lon="9.067356464050576"><ele>202.0</ele><time>2026-05-01T12:50:42Z</time></trkpt><trkpt lat="40.77148187161546" lon="9.067343728106492"><ele>202.0</ele><time>2026-05-01T12:50:43Z</time></trkpt><trkpt lat="40.7713504909242" lon="9.067314985459188"><ele>202.0</ele><time>2026-05-01T12:50:44Z</time></trkpt><trkpt lat="40.77121566626275" lon="9.067289195575219"><ele>202.0</ele><time>2026-05-01T12:50:45Z</time></trkpt><trkpt lat="40.77107709545756" lon="9.067269005310866"><ele>202.0</ele><time>2026-05-01T12:50:46Z</time></trkpt><trkpt lat="40.77093552140982" lon="9.067251940048886"><ele>202.0</ele><time>2026-05-01T12:50:47Z</time></trkpt><trkpt lat="40.770790546228596" lon="9.06723433908064"><ele>202.0</ele><time>2026-05-01T12:50:48Z</time></trkpt><trkpt lat="40.770640475438114" lon="9.067213210456075"><ele>202.0</ele><time>2026-05-01T12:50:49Z</time></trkpt><trkpt lat="40.77048775904759" lon="9.067188753478243"><ele>202.0</ele><time>2026-05-01T12:50:50Z</time></trkpt><trkpt lat="40.7703314170661" lon="9.067163758363604"><ele>202.0</ele><time>2026-05-01T12:50:51Z</time></trkpt><trkpt lat="40.77017704368213" lon="9.067140783223259"><ele>202.0</ele><time>2026-05-01T12:50:52Z</time></trkpt><trkpt lat="40.77000543171434" lon="9.067123865436024"><ele>202.0</ele><time>2026-05-01T12:50:53Z</time></trkpt><trkpt lat="40.769837465867134" lon="9.06709931738626"><ele>202.0</ele><time>2026-05-01T12:50:54Z</time></trkpt><trkpt lat="40.76966587289819" lon="9.067073202567146"><ele>202.0</ele><time>2026-05-01T12:50:55Z</time></trkpt><trkpt lat="40.7694858070882" lon="9.06704720414022"><ele>200.0</ele><time>2026-05-01T12:50:56Z</time></trkpt><trkpt lat="40.769301737306506" lon="9.067019060791727"><ele>198.0</ele><time>2026-05-01T12:50:57Z</time></trkpt><trkpt lat="40.76913381816718" lon="9.066993953121953"><ele>196.0</ele><time>2026-05-01T12:50:58Z</time></trkpt><trkpt lat="40.768970783906354" lon="9.066972998696679"><ele>196.0</ele><time>2026-05-01T12:50:59Z</time></trkpt><trkpt lat="40.76882067687995" lon="9.06695304666334"><ele>196.0</ele><time>2026-05-01T12:51:00Z</time></trkpt><trkpt lat="40.76867362971911" lon="9.066935626083618"><ele>196.0</ele><time>2026-05-01T12:51:01Z</time></trkpt><trkpt lat="40.76853281374127" lon="9.066915871050018"><ele>196.0</ele><time>2026-05-01T12:51:02Z</time></trkpt><trkpt lat="40.76839681619737" lon="9.066891076389746"><ele>194.5</ele><time>2026-05-01T12:51:03Z</time></trkpt><trkpt lat="40.7682649145587" lon="9.066865523188898"><ele>193.0</ele><time>2026-05-01T12:51:04Z</time></trkpt><trkpt lat="40.76813579151543" lon="9.066847678435048"><ele>191.5</ele><time>2026-05-01T12:51:05Z</time></trkpt><trkpt lat="40.76801001087969" lon="9.066839915727304"><ele>190.0</ele><time>2026-05-01T12:51:06Z</time></trkpt><trkpt lat="40.76787715436107" lon="9.066837593872078"><ele>190.0</ele><time>2026-05-01T12:51:07Z</time></trkpt><trkpt lat="40.7677334399097" lon="9.066838608706382"><ele>190.0</ele><time>2026-05-01T12:51:08Z</time></trkpt><trkpt lat="40.76757603777434" lon="9.066850665732773"><ele>190.0</ele><time>2026-05-01T12:51:09Z</time></trkpt><trkpt lat="40.767415418583305" lon="9.066872927524903"><ele>190.0</ele><time>2026-05-01T12:51:10Z</time></trkpt><trkpt lat="40.76724509298684" lon="9.066908695234615"><ele>190.0</ele><time>2026-05-01T12:51:11Z</time></trkpt><trkpt lat="40.76707334502369" lon="9.066951708485405"><ele>190.0</ele><time>2026-05-01T12:51:12Z</time></trkpt><trkpt lat="40.76689745952448" lon="9.067003415307067"><ele>189.0</ele><time>2026-05-01T12:51:13Z</time></trkpt><trkpt lat="40.766723702724875" lon="9.067066323787897"><ele>188.0</ele><time>2026-05-01T12:51:14Z</time></trkpt><trkpt lat="40.76655326889081" lon="9.067140487619932"><ele>187.0</ele><time>2026-05-01T12:51:15Z</time></trkpt><trkpt lat="40.76639475214014" lon="9.067222872085992"><ele>187.0</ele><time>2026-05-01T12:51:16Z</time></trkpt><trkpt lat="40.76625068172126" lon="9.06730824659404"><ele>187.0</ele><time>2026-05-01T12:51:17Z</time></trkpt><trkpt lat="40.766108993459056" lon="9.067405791605793"><ele>187.0</ele><time>2026-05-01T12:51:18Z</time></trkpt><trkpt lat="40.76595965174429" lon="9.067509221289946"><ele>184.66666666666669</ele><time>2026-05-01T12:51:19Z</time></trkpt><trkpt lat="40.76580178203336" lon="9.067624038316556"><ele>182.33333333333334</ele><time>2026-05-01T12:51:20Z</time></trkpt><trkpt lat="40.765644743245666" lon="9.067736746185"><ele>180.0</ele><time>2026-05-01T12:51:21Z</time></trkpt><trkpt lat="40.76549349059603" lon="9.067834378306143"><ele>180.0</ele><time>2026-05-01T12:51:22Z</time></trkpt><trkpt lat="40.76535180189093" lon="9.06791309027118"><ele>180.0</ele><time>2026-05-01T12:51:23Z</time></trkpt><trkpt lat="40.765212152402384" lon="9.067978790130168"><ele>180.0</ele><time>2026-05-01T12:51:24Z</time></trkpt><trkpt lat="40.76507765837591" lon="9.068046538603893"><ele>180.0</ele><time>2026-05-01T12:51:25Z</time></trkpt><trkpt lat="40.7649439466775" lon="9.068109880735294"><ele>179.66666666666666</ele><time>2026-05-01T12:51:26Z</time></trkpt><trkpt lat="40.76480311904917" lon="9.068171624834664"><ele>179.33333333333331</ele><time>2026-05-01T12:51:27Z</time></trkpt><trkpt lat="40.764560590451616" lon="9.068271916594817"><ele>179.0</ele><time>2026-05-01T12:51:29Z</time></trkpt><trkpt lat="40.764499946454535" lon="9.068306408248022"><ele>179.0</ele><time>2026-05-01T12:51:30Z</time></trkpt><trkpt lat="40.76444731538295" lon="9.068353044806672"><ele>179.0</ele><time>2026-05-01T12:51:32Z</time></trkpt><trkpt lat="40.7645134360947" lon="9.06836240346131"><ele>179.0</ele><time>2026-05-01T12:51:46Z</time></trkpt><trkpt lat="40.76462563423837" lon="9.068262574251769"><ele>179.0</ele><time>2026-05-01T12:51:48Z</time></trkpt><trkpt lat="40.76468072645331" lon="9.068218812289707"><ele>179.0</ele><time>2026-05-01T12:51:49Z</time></trkpt><trkpt lat="40.76475587029917" lon="9.068233115979874"><ele>179.0</ele><time>2026-05-01T12:51:51Z</time></trkpt><trkpt lat="40.764801569626556" lon="9.068291654775203"><ele>178.0</ele><time>2026-05-01T12:52:28Z</time></trkpt><trkpt lat="40.764842302934454" lon="9.068367352751741"><ele>177.0</ele><time>2026-05-01T12:52:32Z</time></trkpt><trkpt lat="40.76490442561697" lon="9.068482217936626"><ele>176.0</ele><time>2026-05-01T12:52:34Z</time></trkpt><trkpt lat="40.76495079754678" lon="9.068570986595274"><ele>175.0</ele><time>2026-05-01T12:52:35Z</time></trkpt><trkpt lat="40.76498143584294" lon="9.068677640160008"><ele>174.0</ele><time>2026-05-01T12:52:36Z</time></trkpt><trkpt lat="40.76502878214517" lon="9.06876715078247"><ele>173.0</ele><time>2026-05-01T12:52:37Z</time></trkpt><trkpt lat="40.76507711533993" lon="9.06885852718591"><ele>173.0</ele><time>2026-05-01T12:52:38Z</time></trkpt><trkpt lat="40.76513286587771" lon="9.06896154261999"><ele>173.0</ele><time>2026-05-01T12:52:39Z</time></trkpt><trkpt lat="40.76519715680073" lon="9.069077741260106"><ele>173.0</ele><time>2026-05-01T12:52:40Z</time></trkpt><trkpt lat="40.765275399777266" lon="9.069215209380733"><ele>173.0</ele><time>2026-05-01T12:52:41Z</time></trkpt><trkpt lat="40.76536770319856" lon="9.069336028364786"><ele>174.75</ele><time>2026-05-01T12:52:42Z</time></trkpt><trkpt lat="40.765449160456775" lon="9.06945590200174"><ele>176.5</ele><time>2026-05-01T12:52:43Z</time></trkpt><trkpt lat="40.76554609521714" lon="9.069572973372845"><ele>178.25</ele><time>2026-05-01T12:52:44Z</time></trkpt><trkpt lat="40.76565895092307" lon="9.06970488405213"><ele>180.0</ele><time>2026-05-01T12:52:45Z</time></trkpt><trkpt lat="40.765774843257354" lon="9.069835364474164"><ele>180.5</ele><time>2026-05-01T12:52:46Z</time></trkpt><trkpt lat="40.76589235658485" lon="9.069963694184397"><ele>181.0</ele><time>2026-05-01T12:52:47Z</time></trkpt><trkpt lat="40.76601057269859" lon="9.07008969923344"><ele>181.5</ele><time>2026-05-01T12:52:48Z</time></trkpt><trkpt lat="40.76613282661455" lon="9.070187626512839"><ele>182.0</ele><time>2026-05-01T12:52:49Z</time></trkpt><trkpt lat="40.76625161297779" lon="9.070296540604524"><ele>182.0</ele><time>2026-05-01T12:52:50Z</time></trkpt><trkpt lat="40.76637016252815" lon="9.07039409241075"><ele>182.0</ele><time>2026-05-01T12:52:51Z</time></trkpt><trkpt lat="40.76649432344114" lon="9.070486590157138"><ele>182.0</ele><time>2026-05-01T12:52:52Z</time></trkpt><trkpt lat="40.766621556994814" lon="9.070590965722891"><ele>182.0</ele><time>2026-05-01T12:52:53Z</time></trkpt><trkpt lat="40.76673384391681" lon="9.070714675511908"><ele>181.25</ele><time>2026-05-01T12:52:54Z</time></trkpt><trkpt lat="40.76681493344419" lon="9.070870520097973"><ele>180.5</ele><time>2026-05-01T12:52:55Z</time></trkpt><trkpt lat="40.76689098582806" lon="9.0710223506605"><ele>179.75</ele><time>2026-05-01T12:52:56Z</time></trkpt><trkpt lat="40.76697349025335" lon="9.071194359562348"><ele>179.0</ele><time>2026-05-01T12:52:57Z</time></trkpt><trkpt lat="40.76707462608746" lon="9.071374459711517"><ele>179.66666666666666</ele><time>2026-05-01T12:52:58Z</time></trkpt><trkpt lat="40.76716870758378" lon="9.071553361412022"><ele>180.33333333333334</ele><time>2026-05-01T12:52:59Z</time></trkpt><trkpt lat="40.7672764703148" lon="9.07170653951513"><ele>181.0</ele><time>2026-05-01T12:53:00Z</time></trkpt><trkpt lat="40.767378950073784" lon="9.071839302522394"><ele>181.0</ele><time>2026-05-01T12:53:01Z</time></trkpt><trkpt lat="40.76746700405007" lon="9.0719661696888"><ele>181.0</ele><time>2026-05-01T12:53:02Z</time></trkpt><trkpt lat="40.76755283886462" lon="9.072084692537562"><ele>181.0</ele><time>2026-05-01T12:53:03Z</time></trkpt><trkpt lat="40.7676452165696" lon="9.07218695948427"><ele>181.0</ele><time>2026-05-01T12:53:04Z</time></trkpt><trkpt lat="40.76775045152346" lon="9.072280148677224"><ele>182.5</ele><time>2026-05-01T12:53:05Z</time></trkpt><trkpt lat="40.76787339420618" lon="9.07236732821143"><ele>184.0</ele><time>2026-05-01T12:53:06Z</time></trkpt><trkpt lat="40.767996997864536" lon="9.072468932439143"><ele>185.5</ele><time>2026-05-01T12:53:07Z</time></trkpt><trkpt lat="40.76812362358135" lon="9.072566838669418"><ele>187.0</ele><time>2026-05-01T12:53:08Z</time></trkpt><trkpt lat="40.768243776669664" lon="9.07264515466238"><ele>187.0</ele><time>2026-05-01T12:53:09Z</time></trkpt><trkpt lat="40.768359102665684" lon="9.072685750291905"><ele>187.0</ele><time>2026-05-01T12:53:10Z</time></trkpt><trkpt lat="40.76849167124606" lon="9.072708178594564"><ele>187.0</ele><time>2026-05-01T12:53:11Z</time></trkpt><trkpt lat="40.76863308262231" lon="9.072732598805825"><ele>187.0</ele><time>2026-05-01T12:53:12Z</time></trkpt><trkpt lat="40.768759791409465" lon="9.072766561601318"><ele>188.2</ele><time>2026-05-01T12:53:13Z</time></trkpt><trkpt lat="40.76886869962887" lon="9.072787123432844"><ele>189.39999999999998</ele><time>2026-05-01T12:53:14Z</time></trkpt><trkpt lat="40.76896263695788" lon="9.07276614673126"><ele>190.60000000000002</ele><time>2026-05-01T12:53:15Z</time></trkpt><trkpt lat="40.76907392477329" lon="9.072705796978289"><ele>191.8</ele><time>2026-05-01T12:53:16Z</time></trkpt><trkpt lat="40.76918349218924" lon="9.07264727178505"><ele>193.0</ele><time>2026-05-01T12:53:17Z</time></trkpt><trkpt lat="40.76929431920556" lon="9.07262984432403"><ele>193.2</ele><time>2026-05-01T12:53:18Z</time></trkpt><trkpt lat="40.7694027487" lon="9.072650117511929"><ele>193.4</ele><time>2026-05-01T12:53:19Z</time></trkpt><trkpt lat="40.76951123060173" lon="9.072696993193809"><ele>193.6</ele><time>2026-05-01T12:53:20Z</time></trkpt><trkpt lat="40.76961579364275" lon="9.07275034791107"><ele>193.79999999999998</ele><time>2026-05-01T12:53:21Z</time></trkpt><trkpt lat="40.7697097464521" lon="9.072822135419607"><ele>194.0</ele><time>2026-05-01T12:53:22Z</time></trkpt><trkpt lat="40.76980609146057" lon="9.0729044294368"><ele>194.0</ele><time>2026-05-01T12:53:23Z</time></trkpt><trkpt lat="40.76990696547836" lon="9.072988014651806"><ele>194.0</ele><time>2026-05-01T12:53:24Z</time></trkpt><trkpt lat="40.77001397255996" lon="9.073058123320795"><ele>194.0</ele><time>2026-05-01T12:53:25Z</time></trkpt><trkpt lat="40.77011725845123" lon="9.073135250629768"><ele>194.0</ele><time>2026-05-01T12:53:26Z</time></trkpt><trkpt lat="40.7702145251523" lon="9.073214284924855"><ele>195.5</ele><time>2026-05-01T12:53:27Z</time></trkpt><trkpt lat="40.7702929928221" lon="9.073319166839422"><ele>197.0</ele><time>2026-05-01T12:53:28Z</time></trkpt><trkpt lat="40.770386051792634" lon="9.073403457086417"><ele>198.5</ele><time>2026-05-01T12:53:29Z</time></trkpt><trkpt lat="40.7704758332438" lon="9.0735182227578"><ele>200.0</ele><time>2026-05-01T12:53:30Z</time></trkpt><trkpt lat="40.770526704561334" lon="9.073639319975843"><ele>200.0</ele><time>2026-05-01T12:53:31Z</time></trkpt><trkpt lat="40.77056099427968" lon="9.073736444188155"><ele>200.0</ele><time>2026-05-01T12:53:32Z</time></trkpt><trkpt lat="40.77059470582926" lon="9.073853791114438"><ele>200.0</ele><time>2026-05-01T12:53:33Z</time></trkpt><trkpt lat="40.7706281941734" lon="9.073987931126084"><ele>200.0</ele><time>2026-05-01T12:53:34Z</time></trkpt><trkpt lat="40.77066713349003" lon="9.074144630586064"><ele>200.0</ele><time>2026-05-01T12:53:35Z</time></trkpt><trkpt lat="40.77072587232831" lon="9.07429536119598"><ele>201.00000000000003</ele><time>2026-05-01T12:53:36Z</time></trkpt><trkpt lat="40.77075851260222" lon="9.074423223257119"><ele>202.0</ele><time>2026-05-01T12:53:37Z</time></trkpt><trkpt lat="40.770811646365765" lon="9.074527371187935"><ele>203.0</ele><time>2026-05-01T12:53:38Z</time></trkpt><trkpt lat="40.7708710625182" lon="9.074606476108464"><ele>204.0</ele><time>2026-05-01T12:53:39Z</time></trkpt><trkpt lat="40.77093124406637" lon="9.074662671471149"><ele>205.00000000000003</ele><time>2026-05-01T12:53:40Z</time></trkpt><trkpt lat="40.771016382651155" lon="9.074701384512121"><ele>206.0</ele><time>2026-05-01T12:53:41Z</time></trkpt><trkpt lat="40.77112930759865" lon="9.074747390205738"><ele>206.20000000000002</ele><time>2026-05-01T12:53:42Z</time></trkpt><trkpt lat="40.77126799324276" lon="9.07480134242347"><ele>206.4</ele><time>2026-05-01T12:53:43Z</time></trkpt><trkpt lat="40.77138609656353" lon="9.074851986669794"><ele>206.6</ele><time>2026-05-01T12:53:44Z</time></trkpt><trkpt lat="40.7714820147923" lon="9.074888082876681"><ele>206.8</ele><time>2026-05-01T12:53:45Z</time></trkpt><trkpt lat="40.77156020631323" lon="9.074901903374933"><ele>207.0</ele><time>2026-05-01T12:53:46Z</time></trkpt><trkpt lat="40.771624406721465" lon="9.07491624426835"><ele>207.6</ele><time>2026-05-01T12:53:47Z</time></trkpt><trkpt lat="40.771714094646676" lon="9.07498955517757"><ele>208.2</ele><time>2026-05-01T12:53:49Z</time></trkpt><trkpt lat="40.771729816466376" lon="9.075129824719642"><ele>208.8</ele><time>2026-05-01T12:53:51Z</time></trkpt><trkpt lat="40.77172747598752" lon="9.075316550232873"><ele>209.4</ele><time>2026-05-01T12:53:53Z</time></trkpt><trkpt lat="40.77171297240159" lon="9.075418789223416"><ele>210.0</ele><time>2026-05-01T12:53:54Z</time></trkpt><trkpt lat="40.77168978139197" lon="9.075536096248445"><ele>210.0</ele><time>2026-05-01T12:53:55Z</time></trkpt><trkpt lat="40.77165391789562" lon="9.075660682438041"><ele>210.0</ele><time>2026-05-01T12:53:56Z</time></trkpt><trkpt lat="40.77162239983156" lon="9.07579268919629"><ele>210.0</ele><time>2026-05-01T12:53:57Z</time></trkpt><trkpt lat="40.7716021829527" lon="9.075931155665605"><ele>210.0</ele><time>2026-05-01T12:53:58Z</time></trkpt><trkpt lat="40.7715909475943" lon="9.076069247157024"><ele>210.0</ele><time>2026-05-01T12:53:59Z</time></trkpt><trkpt lat="40.77157558051553" lon="9.076194910495541"><ele>210.4</ele><time>2026-05-01T12:54:00Z</time></trkpt><trkpt lat="40.771540341020014" lon="9.076308936678844"><ele>210.8</ele><time>2026-05-01T12:54:01Z</time></trkpt><trkpt lat="40.771511006100575" lon="9.076437427913874"><ele>211.2</ele><time>2026-05-01T12:54:02Z</time></trkpt><trkpt lat="40.77149293154818" lon="9.076573523245067"><ele>211.6</ele><time>2026-05-01T12:54:03Z</time></trkpt><trkpt lat="40.77147753168944" lon="9.076710924207129"><ele>212.0</ele><time>2026-05-01T12:54:04Z</time></trkpt><trkpt lat="40.77146337683618" lon="9.07685733410645"><ele>213.0</ele><time>2026-05-01T12:54:05Z</time></trkpt><trkpt lat="40.77145019904902" lon="9.077010766493684"><ele>214.0</ele><time>2026-05-01T12:54:06Z</time></trkpt><trkpt lat="40.77143645262882" lon="9.077170819586092"><ele>215.0</ele><time>2026-05-01T12:54:06.999Z</time></trkpt><trkpt lat="40.77141907053545" lon="9.077337641858401"><ele>216.0</ele><time>2026-05-01T12:54:07.999Z</time></trkpt><trkpt lat="40.7713988672968" lon="9.077495122150895"><ele>216.4</ele><time>2026-05-01T12:54:08.999Z</time></trkpt><trkpt lat="40.77136376034248" lon="9.077623550159494"><ele>216.8</ele><time>2026-05-01T12:54:09.999Z</time></trkpt><trkpt lat="40.77134013235053" lon="9.077743919975045"><ele>217.20000000000002</ele><time>2026-05-01T12:54:10.999Z</time></trkpt><trkpt lat="40.7713227773946" lon="9.077885781156308"><ele>217.60000000000002</ele><time>2026-05-01T12:54:11.999Z</time></trkpt><trkpt lat="40.771306812975304" lon="9.078056287633448"><ele>218.0</ele><time>2026-05-01T12:54:12.999Z</time></trkpt><trkpt lat="40.771296442295764" lon="9.078230770244726"><ele>218.25</ele><time>2026-05-01T12:54:13.999Z</time></trkpt><trkpt lat="40.77130015510943" lon="9.078375663051036"><ele>218.5</ele><time>2026-05-01T12:54:14.999Z</time></trkpt><trkpt lat="40.77133536115478" lon="9.078509289472972"><ele>218.75</ele><time>2026-05-01T12:54:15.999Z</time></trkpt><trkpt lat="40.771374007312275" lon="9.078660975145945"><ele>219.0</ele><time>2026-05-01T12:54:16.999Z</time></trkpt><trkpt lat="40.77140504201325" lon="9.078820165593122"><ele>219.0</ele><time>2026-05-01T12:54:17.999Z</time></trkpt><trkpt lat="40.771422936680906" lon="9.078977055102955"><ele>218.99999999999997</ele><time>2026-05-01T12:54:18.999Z</time></trkpt><trkpt lat="40.77143634420321" lon="9.079100739859344"><ele>218.99999999999997</ele><time>2026-05-01T12:54:19.999Z</time></trkpt><trkpt lat="40.77145874361494" lon="9.07918094971799"><ele>219.0</ele><time>2026-05-01T12:54:20.999Z</time></trkpt><trkpt lat="40.771452784775775" lon="9.07928061709115"><ele>219.0</ele><time>2026-05-01T12:54:21.999Z</time></trkpt><trkpt lat="40.77146218841109" lon="9.079410207608978"><ele>219.5</ele><time>2026-05-01T12:54:22.999Z</time></trkpt><trkpt lat="40.77147070734619" lon="9.079557083193768"><ele>220.0</ele><time>2026-05-01T12:54:23.999Z</time></trkpt><trkpt lat="40.7714849827569" lon="9.079717243126503"><ele>220.5</ele><time>2026-05-01T12:54:24.999Z</time></trkpt><trkpt lat="40.77151762249005" lon="9.079861829371344"><ele>221.0</ele><time>2026-05-01T12:54:25.999Z</time></trkpt><trkpt lat="40.771530632110746" lon="9.080001811539228"><ele>221.60000000000002</ele><time>2026-05-01T12:54:26.999Z</time></trkpt><trkpt lat="40.77153337825516" lon="9.08013750158981"><ele>222.20000000000002</ele><time>2026-05-01T12:54:27.999Z</time></trkpt><trkpt lat="40.771526480041956" lon="9.080278648378645"><ele>222.79999999999998</ele><time>2026-05-01T12:54:28.999Z</time></trkpt><trkpt lat="40.77151846115099" lon="9.080433378792248"><ele>223.39999999999998</ele><time>2026-05-01T12:54:29.999Z</time></trkpt><trkpt lat="40.77151596796151" lon="9.080584287016345"><ele>224.0</ele><time>2026-05-01T12:54:30.999Z</time></trkpt><trkpt lat="40.77153359227352" lon="9.08072815897543"><ele>225.0</ele><time>2026-05-01T12:54:31.999Z</time></trkpt><trkpt lat="40.771555561826844" lon="9.080892119393345"><ele>226.0</ele><time>2026-05-01T12:54:32.999Z</time></trkpt><trkpt lat="40.7715887663301" lon="9.081058101225162"><ele>227.0</ele><time>2026-05-01T12:54:33.999Z</time></trkpt><trkpt lat="40.77162376337347" lon="9.081218331586866"><ele>228.0</ele><time>2026-05-01T12:54:35Z</time></trkpt><trkpt lat="40.771664741661695" lon="9.081386568471732"><ele>228.0</ele><time>2026-05-01T12:54:36Z</time></trkpt><trkpt lat="40.77171502430792" lon="9.081534195947961"><ele>228.0</ele><time>2026-05-01T12:54:37Z</time></trkpt><trkpt lat="40.771789815119945" lon="9.08168457673852"><ele>228.0</ele><time>2026-05-01T12:54:38Z</time></trkpt><trkpt lat="40.7718767415566" lon="9.081846216778928"><ele>228.0</ele><time>2026-05-01T12:54:39Z</time></trkpt><trkpt lat="40.771965297020955" lon="9.082013652243582"><ele>229.5</ele><time>2026-05-01T12:54:40Z</time></trkpt><trkpt lat="40.77202492893611" lon="9.082189709613878"><ele>231.0</ele><time>2026-05-01T12:54:41Z</time></trkpt><trkpt lat="40.77209252325957" lon="9.082359480535517"><ele>232.5</ele><time>2026-05-01T12:54:42Z</time></trkpt><trkpt lat="40.77216597855491" lon="9.082512264112822"><ele>234.0</ele><time>2026-05-01T12:54:43Z</time></trkpt><trkpt lat="40.77220400541795" lon="9.082656042520762"><ele>234.0</ele><time>2026-05-01T12:54:44Z</time></trkpt><trkpt lat="40.77222924807208" lon="9.082763165732867"><ele>233.99999999999997</ele><time>2026-05-01T12:54:45Z</time></trkpt><trkpt lat="40.77222952555452" lon="9.082872329546552"><ele>233.99999999999997</ele><time>2026-05-01T12:54:47Z</time></trkpt><trkpt lat="40.77233783324704" lon="9.082829225576445"><ele>234.0</ele><time>2026-05-01T12:54:51Z</time></trkpt><trkpt lat="40.772473766443426" lon="9.082803386250529"><ele>234.0</ele><time>2026-05-01T12:54:53Z</time></trkpt><trkpt lat="40.77256028839155" lon="9.082789589854361"><ele>234.0</ele><time>2026-05-01T12:54:54Z</time></trkpt><trkpt lat="40.7726555120304" lon="9.082777077366536"><ele>234.0</ele><time>2026-05-01T12:54:55Z</time></trkpt><trkpt lat="40.77275194065393" lon="9.082767155198402"><ele>234.0</ele><time>2026-05-01T12:54:56Z</time></trkpt><trkpt lat="40.77284000308602" lon="9.082758785921477"><ele>234.0</ele><time>2026-05-01T12:54:57Z</time></trkpt><trkpt lat="40.77304065276298" lon="9.082752198726245"><ele>235.0</ele><time>2026-05-01T12:54:59Z</time></trkpt><trkpt lat="40.77319143267803" lon="9.082754427530572"><ele>236.0</ele><time>2026-05-01T12:55:00Z</time></trkpt><trkpt lat="40.77334428671917" lon="9.082765051056699"><ele>237.0</ele><time>2026-05-01T12:55:01Z</time></trkpt><trkpt lat="40.77348171001096" lon="9.082773304588882"><ele>238.0</ele><time>2026-05-01T12:55:02Z</time></trkpt><trkpt lat="40.77361455059295" lon="9.082770027344198"><ele>239.75</ele><time>2026-05-01T12:55:03Z</time></trkpt><trkpt lat="40.77375861589948" lon="9.082783679413536"><ele>241.5</ele><time>2026-05-01T12:55:04Z</time></trkpt><trkpt lat="40.77390850585611" lon="9.082824483164872"><ele>243.25</ele><time>2026-05-01T12:55:05Z</time></trkpt><trkpt lat="40.774050751936215" lon="9.08286809424567"><ele>245.0</ele><time>2026-05-01T12:55:06Z</time></trkpt><trkpt lat="40.77417850534617" lon="9.08290045549974"><ele>245.0</ele><time>2026-05-01T12:55:07Z</time></trkpt><trkpt lat="40.77429137820238" lon="9.082940732203197"><ele>245.0</ele><time>2026-05-01T12:55:08Z</time></trkpt><trkpt lat="40.77440532441498" lon="9.08299942848729"><ele>245.0</ele><time>2026-05-01T12:55:09Z</time></trkpt><trkpt lat="40.77451915171783" lon="9.083073668399367"><ele>245.0</ele><time>2026-05-01T12:55:10Z</time></trkpt><trkpt lat="40.77464356234713" lon="9.08313194621886"><ele>244.0</ele><time>2026-05-01T12:55:11Z</time></trkpt><trkpt lat="40.77476806330666" lon="9.083155059154052"><ele>243.0</ele><time>2026-05-01T12:55:12Z</time></trkpt><trkpt lat="40.77488773349961" lon="9.083238188881063"><ele>242.0</ele><time>2026-05-01T12:55:13Z</time></trkpt><trkpt lat="40.77503521099562" lon="9.08330274797891"><ele>241.0</ele><time>2026-05-01T12:55:14Z</time></trkpt><trkpt lat="40.77514218699787" lon="9.08341588210281"><ele>244.25</ele><time>2026-05-01T12:55:15Z</time></trkpt><trkpt lat="40.77524095787904" lon="9.083521604042131"><ele>247.5</ele><time>2026-05-01T12:55:16Z</time></trkpt><trkpt lat="40.775351683290445" lon="9.083612539422486"><ele>250.75</ele><time>2026-05-01T12:55:17Z</time></trkpt><trkpt lat="40.77545531669613" lon="9.083702425459714"><ele>254.0</ele><time>2026-05-01T12:55:18Z</time></trkpt><trkpt lat="40.77554549196456" lon="9.083759772447134"><ele>254.00000000000003</ele><time>2026-05-01T12:55:19Z</time></trkpt><trkpt lat="40.77559948497263" lon="9.08383583941766"><ele>254.0</ele><time>2026-05-01T12:55:20Z</time></trkpt><trkpt lat="40.775646468791514" lon="9.083899068169703"><ele>254.0</ele><time>2026-05-01T12:55:21Z</time></trkpt><trkpt lat="40.77572319351408" lon="9.083970373932484"><ele>254.0</ele><time>2026-05-01T12:55:22Z</time></trkpt><trkpt lat="40.77579771877065" lon="9.084062960269533"><ele>254.00000000000003</ele><time>2026-05-01T12:55:23Z</time></trkpt><trkpt lat="40.775848692978755" lon="9.084149996172158"><ele>254.0</ele><time>2026-05-01T12:55:24Z</time></trkpt><trkpt lat="40.775912641342835" lon="9.08420728522458"><ele>254.16666666666669</ele><time>2026-05-01T12:55:25Z</time></trkpt><trkpt lat="40.77598062137555" lon="9.084214917702113"><ele>254.33333333333334</ele><time>2026-05-01T12:55:26Z</time></trkpt><trkpt lat="40.7760429942124" lon="9.084188324158761"><ele>254.5</ele><time>2026-05-01T12:55:27Z</time></trkpt><trkpt lat="40.776124504989866" lon="9.084133167700653"><ele>254.66666666666669</ele><time>2026-05-01T12:55:28Z</time></trkpt><trkpt lat="40.776220993333034" lon="9.084078282000908"><ele>254.83333333333334</ele><time>2026-05-01T12:55:29Z</time></trkpt><trkpt lat="40.77631318314345" lon="9.084047701943653"><ele>255.0</ele><time>2026-05-01T12:55:30Z</time></trkpt><trkpt lat="40.776393111486186" lon="9.084019070753467"><ele>255.0</ele><time>2026-05-01T12:55:31Z</time></trkpt><trkpt lat="40.77646831452634" lon="9.083987602133083"><ele>255.0</ele><time>2026-05-01T12:55:32Z</time></trkpt><trkpt lat="40.776549408945094" lon="9.083980706565393"><ele>255.0</ele><time>2026-05-01T12:55:33Z</time></trkpt><trkpt lat="40.77664559764206" lon="9.083983517840982"><ele>255.0</ele><time>2026-05-01T12:55:34Z</time></trkpt><trkpt lat="40.77673939928679" lon="9.08394099168764"><ele>255.0</ele><time>2026-05-01T12:55:35Z</time></trkpt><trkpt lat="40.77682118166143" lon="9.083898111062696"><ele>255.0</ele><time>2026-05-01T12:55:36Z</time></trkpt><trkpt lat="40.77690276871032" lon="9.083860821545954"><ele>253.8</ele><time>2026-05-01T12:55:37Z</time></trkpt><trkpt lat="40.7769931926451" lon="9.083784525192181"><ele>252.6</ele><time>2026-05-01T12:55:38Z</time></trkpt><trkpt lat="40.77708417838002" lon="9.083708781503937"><ele>251.39999999999998</ele><time>2026-05-01T12:55:39Z</time></trkpt><trkpt lat="40.77718284269982" lon="9.083665107782082"><ele>250.2</ele><time>2026-05-01T12:55:40Z</time></trkpt><trkpt lat="40.77726168606878" lon="9.083652530889058"><ele>249.0</ele><time>2026-05-01T12:55:41Z</time></trkpt><trkpt lat="40.777366442912864" lon="9.08355259133425"><ele>249.0</ele><time>2026-05-01T12:55:43Z</time></trkpt><trkpt lat="40.77741053987608" lon="9.083457561654006"><ele>249.0</ele><time>2026-05-01T12:55:44Z</time></trkpt><trkpt lat="40.77746834398506" lon="9.083374435832566"><ele>249.0</ele><time>2026-05-01T12:55:45Z</time></trkpt><trkpt lat="40.77757335329487" lon="9.083345713745643"><ele>249.0</ele><time>2026-05-01T12:55:47Z</time></trkpt><trkpt lat="40.777637970460994" lon="9.083368789861003"><ele>249.0</ele><time>2026-05-01T12:55:48Z</time></trkpt><trkpt lat="40.77771260904481" lon="9.083416995587978"><ele>249.0</ele><time>2026-05-01T12:55:49Z</time></trkpt><trkpt lat="40.77778089233591" lon="9.083449478378592"><ele>250.39999999999998</ele><time>2026-05-01T12:55:50Z</time></trkpt><trkpt lat="40.77785341229029" lon="9.083547983923978"><ele>251.79999999999998</ele><time>2026-05-01T12:55:52Z</time></trkpt><trkpt lat="40.77785306000987" lon="9.083655642290891"><ele>253.20000000000002</ele><time>2026-05-01T12:55:53Z</time></trkpt><trkpt lat="40.777886449602725" lon="9.08380321432398"><ele>254.60000000000002</ele><time>2026-05-01T12:55:54Z</time></trkpt><trkpt lat="40.777941805106494" lon="9.083972656765798"><ele>256.0</ele><time>2026-05-01T12:55:55Z</time></trkpt><trkpt lat="40.777974162061426" lon="9.084125725221362"><ele>256.0</ele><time>2026-05-01T12:55:56Z</time></trkpt><trkpt lat="40.77798388189006" lon="9.08424745500113"><ele>256.0</ele><time>2026-05-01T12:55:57Z</time></trkpt><trkpt lat="40.77800079244128" lon="9.084337017202492"><ele>256.0</ele><time>2026-05-01T12:55:58Z</time></trkpt><trkpt lat="40.778054153511356" lon="9.084480389864709"><ele>256.0</ele><time>2026-05-01T12:56:00Z</time></trkpt><trkpt lat="40.77810380623269" lon="9.084571586186115"><ele>256.0</ele><time>2026-05-01T12:56:01Z</time></trkpt><trkpt lat="40.77817050775766" lon="9.084689613665542"><ele>256.0</ele><time>2026-05-01T12:56:02Z</time></trkpt><trkpt lat="40.778240806340754" lon="9.084806747508"><ele>256.0</ele><time>2026-05-01T12:56:03Z</time></trkpt><trkpt lat="40.77832462364708" lon="9.084907523452065"><ele>256.0</ele><time>2026-05-01T12:56:04Z</time></trkpt><trkpt lat="40.77840777700838" lon="9.084993934802856"><ele>256.0</ele><time>2026-05-01T12:56:05Z</time></trkpt><trkpt lat="40.77848960994159" lon="9.085079708139073"><ele>256.0</ele><time>2026-05-01T12:56:06Z</time></trkpt><trkpt lat="40.778567839859754" lon="9.085115887335789"><ele>256.40000000000003</ele><time>2026-05-01T12:56:07Z</time></trkpt><trkpt lat="40.77862920502709" lon="9.085174574468441"><ele>256.8</ele><time>2026-05-01T12:56:08Z</time></trkpt><trkpt lat="40.77869390903059" lon="9.085211489960013"><ele>257.20000000000005</ele><time>2026-05-01T12:56:09Z</time></trkpt><trkpt lat="40.77872865492556" lon="9.085294385150656"><ele>257.6</ele><time>2026-05-01T12:56:10Z</time></trkpt><trkpt lat="40.77881025740999" lon="9.085383484896523"><ele>258.0</ele><time>2026-05-01T12:56:11Z</time></trkpt><trkpt lat="40.77890418186936" lon="9.085529791421116"><ele>258.0</ele><time>2026-05-01T12:56:12Z</time></trkpt><trkpt lat="40.77902185603812" lon="9.08569293745799"><ele>258.0</ele><time>2026-05-01T12:56:12.999Z</time></trkpt><trkpt lat="40.7791311820028" lon="9.085823476211766"><ele>258.0</ele><time>2026-05-01T12:56:13.999Z</time></trkpt><trkpt lat="40.77922308586118" lon="9.08594016979435"><ele>258.0</ele><time>2026-05-01T12:56:14.999Z</time></trkpt><trkpt lat="40.77932114182843" lon="9.086091736117654"><ele>259.0</ele><time>2026-05-01T12:56:15.999Z</time></trkpt><trkpt lat="40.77942555841612" lon="9.086213435323566"><ele>260.0</ele><time>2026-05-01T12:56:16.999Z</time></trkpt><trkpt lat="40.779484183335434" lon="9.086291221950553"><ele>261.0</ele><time>2026-05-01T12:56:17.999Z</time></trkpt><trkpt lat="40.779539061164364" lon="9.086367787287132"><ele>262.0</ele><time>2026-05-01T12:56:19.999Z</time></trkpt><trkpt lat="40.77958876512417" lon="9.086427642265155"><ele>263.0</ele><time>2026-05-01T12:56:31.999Z</time></trkpt><trkpt lat="40.77972670671653" lon="9.086333323870413"><ele>263.0</ele><time>2026-05-01T12:56:33.999Z</time></trkpt><trkpt lat="40.77978380760643" lon="9.086447502362596"><ele>263.0</ele><time>2026-05-01T12:56:35.999Z</time></trkpt><trkpt lat="40.77977846246657" lon="9.086539856065437"><ele>263.0</ele><time>2026-05-01T12:56:36.999Z</time></trkpt><trkpt lat="40.779803375226" lon="9.086668305272337"><ele>263.0</ele><time>2026-05-01T12:56:37.999Z</time></trkpt><trkpt lat="40.779828511049885" lon="9.08680791745427"><ele>263.0</ele><time>2026-05-01T12:56:38.999Z</time></trkpt><trkpt lat="40.77984694799218" lon="9.086925745571854"><ele>262.8</ele><time>2026-05-01T12:56:39.999Z</time></trkpt><trkpt lat="40.77986747053444" lon="9.087056902440851"><ele>262.6</ele><time>2026-05-01T12:56:40.999Z</time></trkpt><trkpt lat="40.779903746134124" lon="9.08718007438454"><ele>262.4</ele><time>2026-05-01T12:56:41.999Z</time></trkpt><trkpt lat="40.77991544701582" lon="9.087309745033247"><ele>262.2</ele><time>2026-05-01T12:56:42.999Z</time></trkpt><trkpt lat="40.77994072814108" lon="9.087441437738063"><ele>262.0</ele><time>2026-05-01T12:56:43.999Z</time></trkpt><trkpt lat="40.779962044393166" lon="9.087561648827476"><ele>262.0</ele><time>2026-05-01T12:56:44.999Z</time></trkpt><trkpt lat="40.77997916389219" lon="9.087667224772446"><ele>262.0</ele><time>2026-05-01T12:56:45.999Z</time></trkpt><trkpt lat="40.77999986802766" lon="9.087785429690756"><ele>262.0</ele><time>2026-05-01T12:56:46.999Z</time></trkpt><trkpt lat="40.78002016758179" lon="9.087918701597944"><ele>262.0</ele><time>2026-05-01T12:56:47.999Z</time></trkpt><trkpt lat="40.78002228321459" lon="9.088051243237297"><ele>262.0</ele><time>2026-05-01T12:56:48.999Z</time></trkpt><trkpt lat="40.78003955121076" lon="9.08814936614685"><ele>261.6</ele><time>2026-05-01T12:56:49.999Z</time></trkpt><trkpt lat="40.78003847887996" lon="9.088272512746801"><ele>261.2</ele><time>2026-05-01T12:56:50.999Z</time></trkpt><trkpt lat="40.78005938957494" lon="9.088401520058765"><ele>260.8</ele><time>2026-05-01T12:56:51.999Z</time></trkpt><trkpt lat="40.780072390780276" lon="9.0885354397246"><ele>260.4</ele><time>2026-05-01T12:56:52.999Z</time></trkpt><trkpt lat="40.78007220800052" lon="9.088673130698322"><ele>260.0</ele><time>2026-05-01T12:56:53.999Z</time></trkpt><trkpt lat="40.780082749492486" lon="9.088801412983466"><ele>260.0</ele><time>2026-05-01T12:56:54.999Z</time></trkpt><trkpt lat="40.78009288124745" lon="9.088925742310762"><ele>260.0</ele><time>2026-05-01T12:56:55.999Z</time></trkpt><trkpt lat="40.78011248969781" lon="9.089022019979637"><ele>260.0</ele><time>2026-05-01T12:56:56.999Z</time></trkpt><trkpt lat="40.78010798743178" lon="9.08911111422004"><ele>260.0</ele><time>2026-05-01T12:56:57.999Z</time></trkpt><trkpt lat="40.78012011055919" lon="9.089259885564912"><ele>260.0</ele><time>2026-05-01T12:56:59.999Z</time></trkpt><trkpt lat="40.78012879619462" lon="9.089360101931849"><ele>260.0</ele><time>2026-05-01T12:57:02Z</time></trkpt><trkpt lat="40.7801355932504" lon="9.08944988776354"><ele>261.0</ele><time>2026-05-01T12:57:04Z</time></trkpt><trkpt lat="40.78001877593018" lon="9.089607003153535"><ele>262.0</ele><time>2026-05-01T12:58:35Z</time></trkpt><trkpt lat="40.7799506556094" lon="9.089717726475618"><ele>263.0</ele><time>2026-05-01T12:58:37Z</time></trkpt><trkpt lat="40.77989236261063" lon="9.089818870632582"><ele>264.0</ele><time>2026-05-01T12:58:39Z</time></trkpt><trkpt lat="40.779862350121235" lon="9.089960420885655"><ele>265.3333333333333</ele><time>2026-05-01T12:58:41Z</time></trkpt><trkpt lat="40.779849952341934" lon="9.09007643078373"><ele>266.6666666666667</ele><time>2026-05-01T12:58:44Z</time></trkpt><trkpt lat="40.779830135261435" lon="9.090183466587195"><ele>268.0</ele><time>2026-05-01T12:58:46Z</time></trkpt><trkpt lat="40.77980264214517" lon="9.090275666334215"><ele>269.33333333333337</ele><time>2026-05-01T12:58:48Z</time></trkpt><trkpt lat="40.77976936984808" lon="9.090352408218534"><ele>270.6666666666667</ele><time>2026-05-01T12:58:50Z</time></trkpt><trkpt lat="40.77973557883589" lon="9.090425784087882"><ele>272.0</ele><time>2026-05-01T12:58:52Z</time></trkpt><trkpt lat="40.77972958104625" lon="9.090526044580985"><ele>272.0</ele><time>2026-05-01T12:58:55Z</time></trkpt><trkpt lat="40.779680322508405" lon="9.090620266087178"><ele>272.0</ele><time>2026-05-01T12:58:59Z</time></trkpt><trkpt lat="40.77962445649501" lon="9.090694248887736"><ele>272.0</ele><time>2026-05-01T12:59:22.001Z</time></trkpt><trkpt lat="40.77967381394368" lon="9.090630777728498"><ele>272.0</ele><time>2026-05-01T13:00:08.001Z</time></trkpt><trkpt lat="40.779703039312814" lon="9.090552545350699"><ele>272.0</ele><time>2026-05-01T13:00:11.001Z</time></trkpt><trkpt lat="40.779731794271136" lon="9.090452136454733"><ele>272.0</ele><time>2026-05-01T13:00:14.001Z</time></trkpt><trkpt lat="40.77975859077469" lon="9.09036461040792"><ele>272.0</ele><time>2026-05-01T13:00:17.001Z</time></trkpt><trkpt lat="40.7797895098246" lon="9.090276863487894"><ele>272.0</ele><time>2026-05-01T13:00:21.001Z</time></trkpt><trkpt lat="40.779829462311184" lon="9.09011927566069"><ele>272.0</ele><time>2026-05-01T13:00:26.001Z</time></trkpt><trkpt lat="40.779851392317646" lon="9.09000918161049"><ele>272.0</ele><time>2026-05-01T13:00:28.001Z</time></trkpt><trkpt lat="40.77985747635015" lon="9.089924648150669"><ele>272.0</ele><time>2026-05-01T13:00:30.001Z</time></trkpt><trkpt lat="40.77988711143625" lon="9.0898331052709"><ele>272.0</ele><time>2026-05-01T13:00:33.001Z</time></trkpt><trkpt lat="40.77993153064679" lon="9.089720141684989"><ele>270.6666666666667</ele><time>2026-05-01T13:00:35.001Z</time></trkpt><trkpt lat="40.779986593173355" lon="9.089643535039972"><ele>269.33333333333337</ele><time>2026-05-01T13:00:37.001Z</time></trkpt><trkpt lat="40.78003011886073" lon="9.089569595498569"><ele>268.0</ele><time>2026-05-01T13:00:39.001Z</time></trkpt><trkpt lat="40.78006848115024" lon="9.089503223272013"><ele>266.6666666666667</ele><time>2026-05-01T13:00:41.001Z</time></trkpt><trkpt lat="40.780094724660685" lon="9.089366745884323"><ele>265.3333333333333</ele><time>2026-05-01T13:00:43.001Z</time></trkpt><trkpt lat="40.78015567750324" lon="9.089441893133406"><ele>264.0</ele><time>2026-05-01T13:01:01.001Z</time></trkpt><trkpt lat="40.780177422611374" lon="9.08958702979805"><ele>265.4</ele><time>2026-05-01T13:01:03.001Z</time></trkpt><trkpt lat="40.78021935469962" lon="9.089732351486854"><ele>266.79999999999995</ele><time>2026-05-01T13:01:05.001Z</time></trkpt><trkpt lat="40.78025655028697" lon="9.089882123299557"><ele>268.20000000000005</ele><time>2026-05-01T13:01:07.001Z</time></trkpt><trkpt lat="40.78027776796021" lon="9.089973141898152"><ele>269.6</ele><time>2026-05-01T13:01:08.001Z</time></trkpt><trkpt lat="40.780287988915624" lon="9.090063307455965"><ele>271.0</ele><time>2026-05-01T13:01:09.001Z</time></trkpt><trkpt lat="40.78029725954517" lon="9.090191026183733"><ele>271.66666666666663</ele><time>2026-05-01T13:01:11.001Z</time></trkpt><trkpt lat="40.78032334322253" lon="9.090342267226873"><ele>272.3333333333333</ele><time>2026-05-01T13:01:13.001Z</time></trkpt><trkpt lat="40.78032625473251" lon="9.090452902805161"><ele>273.0</ele><time>2026-05-01T13:01:15.001Z</time></trkpt><trkpt lat="40.78035589286693" lon="9.090538072079852"><ele>273.6666666666667</ele><time>2026-05-01T13:01:24.001Z</time></trkpt><trkpt lat="40.780360473700654" lon="9.090633963313875"><ele>274.33333333333337</ele><time>2026-05-01T13:01:26.001Z</time></trkpt><trkpt lat="40.78037485640143" lon="9.09072055195218"><ele>275.0</ele><time>2026-05-01T13:01:29.001Z</time></trkpt><trkpt lat="40.78039083602274" lon="9.090808622294082"><ele>275.14285714285717</ele><time>2026-05-01T13:01:31.001Z</time></trkpt><trkpt lat="40.78040106209839" lon="9.09089483535045"><ele>275.2857142857143</ele><time>2026-05-01T13:01:33.001Z</time></trkpt><trkpt lat="40.78042217789202" lon="9.090993469130368"><ele>275.42857142857144</ele><time>2026-05-01T13:01:43.001Z</time></trkpt><trkpt lat="40.780402085289296" lon="9.091079891993848"><ele>275.57142857142856</ele><time>2026-05-01T13:01:48.001Z</time></trkpt><trkpt lat="40.78033089688534" lon="9.091105127249756"><ele>275.7142857142857</ele><time>2026-05-01T13:01:52.001Z</time></trkpt><trkpt lat="40.780271597452796" lon="9.091134471927315"><ele>275.8571428571429</ele><time>2026-05-01T13:01:56.001Z</time></trkpt><trkpt lat="40.780198249826164" lon="9.091122736035812"><ele>276.0</ele><time>2026-05-01T13:02:00.001Z</time></trkpt><trkpt lat="40.780126925620316" lon="9.091098178241632"><ele>276.0</ele><time>2026-05-01T13:02:03.001Z</time></trkpt><trkpt lat="40.780048728516505" lon="9.091065995835073"><ele>276.0</ele><time>2026-05-01T13:02:06.001Z</time></trkpt><trkpt lat="40.77998544037041" lon="9.09106125603349"><ele>276.0</ele><time>2026-05-01T13:02:08.001Z</time></trkpt><trkpt lat="40.77990875385022" lon="9.09107363614181"><ele>276.0</ele><time>2026-05-01T13:02:10.001Z</time></trkpt><trkpt lat="40.77981993354778" lon="9.091081526050955"><ele>276.0</ele><time>2026-05-01T13:02:15.001Z</time></trkpt><trkpt lat="40.7797596339995" lon="9.09104547016334"><ele>276.0</ele><time>2026-05-01T13:02:17.001Z</time></trkpt><trkpt lat="40.77969174842623" lon="9.091053161417317"><ele>276.0</ele><time>2026-05-01T13:02:19.001Z</time></trkpt><trkpt lat="40.77960648183221" lon="9.091035732768932"><ele>276.0</ele><time>2026-05-01T13:02:23.001Z</time></trkpt><trkpt lat="40.77952672530081" lon="9.091019907935964"><ele>276.0</ele><time>2026-05-01T13:02:26.001Z</time></trkpt><trkpt lat="40.779472580325134" lon="9.091073298358614"><ele>276.0</ele><time>2026-05-01T13:02:28.001Z</time></trkpt><trkpt lat="40.77938290026028" lon="9.091185233864982"><ele>276.0</ele><time>2026-05-01T13:02:30.001Z</time></trkpt><trkpt lat="40.77930934623546" lon="9.091273105176887"><ele>276.0</ele><time>2026-05-01T13:02:32Z</time></trkpt><trkpt lat="40.779234588135274" lon="9.091347674327153"><ele>275.8</ele><time>2026-05-01T13:02:34Z</time></trkpt><trkpt lat="40.779203785483354" lon="9.091442134252352"><ele>275.6</ele><time>2026-05-01T13:02:37Z</time></trkpt><trkpt lat="40.77919583825068" lon="9.091585045454"><ele>275.4</ele><time>2026-05-01T13:02:39Z</time></trkpt><trkpt lat="40.77915317624081" lon="9.091694938259963"><ele>275.2</ele><time>2026-05-01T13:02:41Z</time></trkpt><trkpt lat="40.77912385580104" lon="9.091801971107225"><ele>275.0</ele><time>2026-05-01T13:02:43Z</time></trkpt><trkpt lat="40.779115546076156" lon="9.091938342701507"><ele>273.5</ele><time>2026-05-01T13:02:45Z</time></trkpt><trkpt lat="40.77909015795672" lon="9.092040089700452"><ele>272.0</ele><time>2026-05-01T13:02:47Z</time></trkpt><trkpt lat="40.779081352964646" lon="9.092135765935799"><ele>270.5</ele><time>2026-05-01T13:02:49Z</time></trkpt><trkpt lat="40.779077953045054" lon="9.092244924981246"><ele>269.0</ele><time>2026-05-01T13:02:51Z</time></trkpt><trkpt lat="40.779091774563305" lon="9.092359355415292"><ele>267.5</ele><time>2026-05-01T13:02:53Z</time></trkpt><trkpt lat="40.77909489585051" lon="9.092482155203923"><ele>266.0</ele><time>2026-05-01T13:02:55Z</time></trkpt><trkpt lat="40.779064499645244" lon="9.092605796431776"><ele>264.0</ele><time>2026-05-01T13:02:57Z</time></trkpt><trkpt lat="40.77905835828443" lon="9.092745156988565"><ele>262.0</ele><time>2026-05-01T13:02:59Z</time></trkpt><trkpt lat="40.77904048060852" lon="9.09284966907121"><ele>260.0</ele><time>2026-05-01T13:03:01Z</time></trkpt><trkpt lat="40.77900522799869" lon="9.092965751681046"><ele>258.0</ele><time>2026-05-01T13:03:03Z</time></trkpt><trkpt lat="40.7789517247702" lon="9.09306778691274"><ele>256.0</ele><time>2026-05-01T13:03:05Z</time></trkpt><trkpt lat="40.77891818510201" lon="9.093211044471063"><ele>255.20000000000002</ele><time>2026-05-01T13:03:07Z</time></trkpt><trkpt lat="40.778873735728226" lon="9.093321817938639"><ele>254.40000000000003</ele><time>2026-05-01T13:03:09Z</time></trkpt><trkpt lat="40.77884045772317" lon="9.093448390202948"><ele>253.6</ele><time>2026-05-01T13:03:11Z</time></trkpt><trkpt lat="40.77881399278223" lon="9.09356312412341"><ele>252.8</ele><time>2026-05-01T13:03:13Z</time></trkpt><trkpt lat="40.77881119032267" lon="9.093700873370095"><ele>252.0</ele><time>2026-05-01T13:03:15Z</time></trkpt><trkpt lat="40.778819828332935" lon="9.093813277740143"><ele>252.0</ele><time>2026-05-01T13:03:17.001Z</time></trkpt><trkpt lat="40.778802236366595" lon="9.093940826522699"><ele>252.0</ele><time>2026-05-01T13:03:19.001Z</time></trkpt><trkpt lat="40.778786200136736" lon="9.094054521585209"><ele>252.0</ele><time>2026-05-01T13:03:21.001Z</time></trkpt><trkpt lat="40.77878399881944" lon="9.094160793399864"><ele>252.0</ele><time>2026-05-01T13:03:23.001Z</time></trkpt><trkpt lat="40.77878377454677" lon="9.094249790564353"><ele>252.0</ele><time>2026-05-01T13:03:25.001Z</time></trkpt><trkpt lat="40.778769308505204" lon="9.094337214694656"><ele>252.0</ele><time>2026-05-01T13:03:27.001Z</time></trkpt><trkpt lat="40.77877481083505" lon="9.094425907683206"><ele>250.83333333333334</ele><time>2026-05-01T13:03:29.001Z</time></trkpt><trkpt lat="40.778734620335854" lon="9.09451489706217"><ele>249.66666666666669</ele><time>2026-05-01T13:03:33.001Z</time></trkpt><trkpt lat="40.778655896624976" lon="9.094526770902045"><ele>248.5</ele><time>2026-05-01T13:03:35.001Z</time></trkpt><trkpt lat="40.778577533445365" lon="9.094507613602747"><ele>247.33333333333334</ele><time>2026-05-01T13:03:37.001Z</time></trkpt><trkpt lat="40.77848511614883" lon="9.094511507073143"><ele>246.16666666666669</ele><time>2026-05-01T13:03:40.001Z</time></trkpt><trkpt lat="40.778409934966035" lon="9.094521496637643"><ele>245.0</ele><time>2026-05-01T13:03:42.001Z</time></trkpt><trkpt lat="40.77832391280023" lon="9.094535399218485"><ele>244.83333333333334</ele><time>2026-05-01T13:03:45.001Z</time></trkpt><trkpt lat="40.77825062648522" lon="9.094525241262001"><ele>244.66666666666669</ele><time>2026-05-01T13:03:47.001Z</time></trkpt><trkpt lat="40.77819025737047" lon="9.094582924121724"><ele>244.5</ele><time>2026-05-01T13:03:49.001Z</time></trkpt><trkpt lat="40.77813307440005" lon="9.09467999236788"><ele>244.33333333333331</ele><time>2026-05-01T13:03:52.001Z</time></trkpt><trkpt lat="40.778091782433194" lon="9.09475385964324"><ele>244.16666666666666</ele><time>2026-05-01T13:03:54.001Z</time></trkpt><trkpt lat="40.778037320257596" lon="9.094804607518743"><ele>244.0</ele><time>2026-05-01T13:03:56.001Z</time></trkpt><trkpt lat="40.777959636476695" lon="9.094867109548618"><ele>243.99999999999997</ele><time>2026-05-01T13:03:58.001Z</time></trkpt><trkpt lat="40.777888389423616" lon="9.094917690184866"><ele>244.0</ele><time>2026-05-01T13:04:00.001Z</time></trkpt><trkpt lat="40.777799329848406" lon="9.09495032888792"><ele>244.0</ele><time>2026-05-01T13:04:02.001Z</time></trkpt><trkpt lat="40.77772443364889" lon="9.095010085538842"><ele>244.0</ele><time>2026-05-01T13:04:04.001Z</time></trkpt><trkpt lat="40.7776583238266" lon="9.095085864121776"><ele>243.99999999999997</ele><time>2026-05-01T13:04:06.001Z</time></trkpt><trkpt lat="40.777591819746185" lon="9.095149721166395"><ele>244.0</ele><time>2026-05-01T13:04:08.001Z</time></trkpt><trkpt lat="40.777519065323574" lon="9.095152285504248"><ele>242.33333333333331</ele><time>2026-05-01T13:04:10.001Z</time></trkpt><trkpt lat="40.777417573487114" lon="9.095153282501437"><ele>240.66666666666666</ele><time>2026-05-01T13:04:12.001Z</time></trkpt><trkpt lat="40.777351928858614" lon="9.095193832619891"><ele>239.0</ele><time>2026-05-01T13:04:15.001Z</time></trkpt><trkpt lat="40.77731441340839" lon="9.095273538489053"><ele>237.33333333333331</ele><time>2026-05-01T13:05:48.001Z</time></trkpt><trkpt lat="40.77727606164544" lon="9.095362984671176"><ele>235.66666666666666</ele><time>2026-05-01T13:07:00Z</time></trkpt><trkpt lat="40.777294629703455" lon="9.09547670724751"><ele>234.0</ele><time>2026-05-01T13:07:02Z</time></trkpt><trkpt lat="40.77733919653271" lon="9.095587142337132"><ele>234.0</ele><time>2026-05-01T13:07:04Z</time></trkpt><trkpt lat="40.777372378833704" lon="9.095659179577556"><ele>234.0</ele><time>2026-05-01T13:07:05Z</time></trkpt><trkpt lat="40.77739023856116" lon="9.095794866673977"><ele>234.0</ele><time>2026-05-01T13:07:07Z</time></trkpt><trkpt lat="40.77739256519452" lon="9.095893180082165"><ele>234.0</ele><time>2026-05-01T13:07:09Z</time></trkpt><trkpt lat="40.77740752671578" lon="9.096000660531326"><ele>234.0</ele><time>2026-05-01T13:07:12Z</time></trkpt><trkpt lat="40.777464769953774" lon="9.096051206264782"><ele>234.0</ele><time>2026-05-01T13:07:14Z</time></trkpt><trkpt lat="40.77752707273852" lon="9.096024208717203"><ele>233.33333333333334</ele><time>2026-05-01T13:07:16Z</time></trkpt><trkpt lat="40.77759598548573" lon="9.09604914049751"><ele>232.66666666666669</ele><time>2026-05-01T13:07:18Z</time></trkpt><trkpt lat="40.777624246212305" lon="9.096143446961369"><ele>232.0</ele><time>2026-05-01T13:07:20Z</time></trkpt><trkpt lat="40.777611246280955" lon="9.096242892778408"><ele>231.33333333333334</ele><time>2026-05-01T13:07:23Z</time></trkpt><trkpt lat="40.777606510301595" lon="9.096371925366796"><ele>230.66666666666669</ele><time>2026-05-01T13:07:57Z</time></trkpt><trkpt lat="40.77762609204802" lon="9.096502438681421"><ele>230.0</ele><time>2026-05-01T13:07:59.001Z</time></trkpt><trkpt lat="40.777598802042256" lon="9.096623776621644"><ele>229.6</ele><time>2026-05-01T13:08:01.001Z</time></trkpt><trkpt lat="40.77756184746957" lon="9.096703788702557"><ele>229.2</ele><time>2026-05-01T13:08:03.001Z</time></trkpt><trkpt lat="40.77765869497141" lon="9.096726572638062"><ele>228.8</ele><time>2026-05-01T13:08:07.001Z</time></trkpt><trkpt lat="40.77772202254764" lon="9.096682976309669"><ele>228.4</ele><time>2026-05-01T13:08:08.001Z</time></trkpt><trkpt lat="40.77778891552223" lon="9.096648530122913"><ele>228.0</ele><time>2026-05-01T13:08:09.001Z</time></trkpt><trkpt lat="40.77792135734106" lon="9.096575830871965"><ele>229.16666666666666</ele><time>2026-05-01T13:08:11.001Z</time></trkpt><trkpt lat="40.777989618654864" lon="9.096543621750113"><ele>230.33333333333331</ele><time>2026-05-01T13:08:12.001Z</time></trkpt><trkpt lat="40.77806392049087" lon="9.096530871755517"><ele>231.5</ele><time>2026-05-01T13:08:13.001Z</time></trkpt><trkpt lat="40.778126402843704" lon="9.096510451020933"><ele>232.66666666666666</ele><time>2026-05-01T13:08:14.001Z</time></trkpt><trkpt lat="40.778197144936286" lon="9.09647460257569"><ele>233.83333333333331</ele><time>2026-05-01T13:08:15.001Z</time></trkpt><trkpt lat="40.77827190617784" lon="9.096436336743661"><ele>235.0</ele><time>2026-05-01T13:08:16.001Z</time></trkpt><trkpt lat="40.778350763340015" lon="9.096398854809468"><ele>235.0</ele><time>2026-05-01T13:08:17.001Z</time></trkpt><trkpt lat="40.7784365542177" lon="9.096360344190497"><ele>235.0</ele><time>2026-05-01T13:08:18.001Z</time></trkpt><trkpt lat="40.77851982417695" lon="9.09632127116534"><ele>235.0</ele><time>2026-05-01T13:08:19.001Z</time></trkpt><trkpt lat="40.77860826270862" lon="9.096288139961299"><ele>235.0</ele><time>2026-05-01T13:08:20.001Z</time></trkpt><trkpt lat="40.77871128697375" lon="9.096279417267583"><ele>235.0</ele><time>2026-05-01T13:08:21.001Z</time></trkpt><trkpt lat="40.778808883337646" lon="9.096304981138633"><ele>234.8</ele><time>2026-05-01T13:08:22.001Z</time></trkpt><trkpt lat="40.778895895417364" lon="9.096377989276652"><ele>234.6</ele><time>2026-05-01T13:08:23.001Z</time></trkpt><trkpt lat="40.77898174105733" lon="9.096452544176856"><ele>234.39999999999998</ele><time>2026-05-01T13:08:24.001Z</time></trkpt><trkpt lat="40.77907124831075" lon="9.09652909050232"><ele>234.2</ele><time>2026-05-01T13:08:25.001Z</time></trkpt><trkpt lat="40.779169386370704" lon="9.09660591948348"><ele>234.0</ele><time>2026-05-01T13:08:26.001Z</time></trkpt><trkpt lat="40.77928724604867" lon="9.096669491556677"><ele>236.0</ele><time>2026-05-01T13:08:27.001Z</time></trkpt><trkpt lat="40.77939444125086" lon="9.096708271627495"><ele>238.0</ele><time>2026-05-01T13:08:28.001Z</time></trkpt><trkpt lat="40.77949960667231" lon="9.096774144439534"><ele>240.0</ele><time>2026-05-01T13:08:29.001Z</time></trkpt><trkpt lat="40.779589876185916" lon="9.096895949308557"><ele>242.0</ele><time>2026-05-01T13:08:30.001Z</time></trkpt><trkpt lat="40.77965764568972" lon="9.09704784760576"><ele>242.0</ele><time>2026-05-01T13:08:31.001Z</time></trkpt><trkpt lat="40.7796870617105" lon="9.097233549572323"><ele>242.0</ele><time>2026-05-01T13:08:32.001Z</time></trkpt><trkpt lat="40.7797423790467" lon="9.097416539993215"><ele>242.0</ele><time>2026-05-01T13:08:33.001Z</time></trkpt><trkpt lat="40.779830141643295" lon="9.097587082922667"><ele>242.0</ele><time>2026-05-01T13:08:34.001Z</time></trkpt><trkpt lat="40.77990832944135" lon="9.097765700988324"><ele>242.0</ele><time>2026-05-01T13:08:35.001Z</time></trkpt><trkpt lat="40.77996282720288" lon="9.097925004767411"><ele>242.0</ele><time>2026-05-01T13:08:36.001Z</time></trkpt><trkpt lat="40.78004249970276" lon="9.098028143385458"><ele>242.0</ele><time>2026-05-01T13:08:37.001Z</time></trkpt><trkpt lat="40.78012953796431" lon="9.098122330047795"><ele>242.0</ele><time>2026-05-01T13:08:38.001Z</time></trkpt><trkpt lat="40.78025065147866" lon="9.098194500619678"><ele>242.33333333333334</ele><time>2026-05-01T13:08:39.001Z</time></trkpt><trkpt lat="40.780376232188935" lon="9.098281873732478"><ele>242.66666666666669</ele><time>2026-05-01T13:08:40.001Z</time></trkpt><trkpt lat="40.78050222390673" lon="9.098398796687441"><ele>243.0</ele><time>2026-05-01T13:08:41.001Z</time></trkpt><trkpt lat="40.78062848774774" lon="9.098534497701193"><ele>243.0</ele><time>2026-05-01T13:08:42.001Z</time></trkpt><trkpt lat="40.78074469494432" lon="9.098667474399393"><ele>243.0</ele><time>2026-05-01T13:08:43.001Z</time></trkpt><trkpt lat="40.780847161329504" lon="9.098754803538611"><ele>243.0</ele><time>2026-05-01T13:08:44.001Z</time></trkpt><trkpt lat="40.780965705064176" lon="9.098800481780957"><ele>243.0</ele><time>2026-05-01T13:08:45.001Z</time></trkpt><trkpt lat="40.78108123638014" lon="9.098836815562143"><ele>244.2</ele><time>2026-05-01T13:08:46.001Z</time></trkpt><trkpt lat="40.78117467965575" lon="9.098897886980502"><ele>245.4</ele><time>2026-05-01T13:08:47.001Z</time></trkpt><trkpt lat="40.781239526839556" lon="9.098989590460938"><ele>246.59999999999997</ele><time>2026-05-01T13:08:48.001Z</time></trkpt><trkpt lat="40.78127433718558" lon="9.099109708743196"><ele>247.79999999999998</ele><time>2026-05-01T13:08:48.999Z</time></trkpt><trkpt lat="40.78123886581171" lon="9.099262304193099"><ele>249.0</ele><time>2026-05-01T13:08:49.999Z</time></trkpt><trkpt lat="40.78122180774756" lon="9.099421564326535"><ele>249.25</ele><time>2026-05-01T13:08:50.999Z</time></trkpt><trkpt lat="40.78123960066955" lon="9.09959646349423"><ele>249.5</ele><time>2026-05-01T13:08:51.999Z</time></trkpt><trkpt lat="40.78129154262403" lon="9.099755902302796"><ele>249.75</ele><time>2026-05-01T13:08:52.999Z</time></trkpt><trkpt lat="40.78134180486636" lon="9.099909331576967"><ele>250.0</ele><time>2026-05-01T13:08:53.999Z</time></trkpt><trkpt lat="40.78136990194869" lon="9.100050952141906"><ele>250.5</ele><time>2026-05-01T13:08:54.999Z</time></trkpt><trkpt lat="40.78144382473447" lon="9.100167771421983"><ele>251.0</ele><time>2026-05-01T13:08:55.999Z</time></trkpt><trkpt lat="40.7815234869787" lon="9.100293275232785"><ele>251.5</ele><time>2026-05-01T13:08:56.999Z</time></trkpt><trkpt lat="40.78161065996099" lon="9.100433004169975"><ele>252.0</ele><time>2026-05-01T13:08:57.999Z</time></trkpt><trkpt lat="40.78169243061542" lon="9.100589611094296"><ele>252.0</ele><time>2026-05-01T13:08:58.999Z</time></trkpt><trkpt lat="40.78177912784799" lon="9.100774558418976"><ele>252.0</ele><time>2026-05-01T13:08:59.999Z</time></trkpt><trkpt lat="40.78187896704206" lon="9.100995428979841"><ele>252.0</ele><time>2026-05-01T13:09:00.999Z</time></trkpt><trkpt lat="40.781968528239105" lon="9.101200386900706"><ele>252.0</ele><time>2026-05-01T13:09:01.999Z</time></trkpt><trkpt lat="40.78204205694434" lon="9.10136198858138"><ele>252.0</ele><time>2026-05-01T13:09:02.999Z</time></trkpt><trkpt lat="40.782100561342205" lon="9.101485491341661"><ele>252.0</ele><time>2026-05-01T13:09:03.999Z</time></trkpt><trkpt lat="40.78215569649719" lon="9.101600752127926"><ele>252.0</ele><time>2026-05-01T13:09:04.999Z</time></trkpt><trkpt lat="40.782179377544956" lon="9.101731377233026"><ele>250.5</ele><time>2026-05-01T13:09:05.999Z</time></trkpt><trkpt lat="40.78219743188957" lon="9.101873918787456"><ele>249.0</ele><time>2026-05-01T13:09:06.999Z</time></trkpt><trkpt lat="40.782197617697285" lon="9.102064816183617"><ele>247.5</ele><time>2026-05-01T13:09:07.999Z</time></trkpt><trkpt lat="40.782198326369254" lon="9.102300522461977"><ele>246.0</ele><time>2026-05-01T13:09:09Z</time></trkpt><trkpt lat="40.78220001802135" lon="9.102522348811345"><ele>243.5</ele><time>2026-05-01T13:09:10Z</time></trkpt><trkpt lat="40.78220445693936" lon="9.102707720605407"><ele>241.0</ele><time>2026-05-01T13:09:11Z</time></trkpt><trkpt lat="40.78220844660978" lon="9.102874329260194"><ele>238.5</ele><time>2026-05-01T13:09:12Z</time></trkpt><trkpt lat="40.78220836311791" lon="9.103040318052246"><ele>236.0</ele><time>2026-05-01T13:09:13Z</time></trkpt><trkpt lat="40.782198580921154" lon="9.103232128236126"><ele>236.33333333333334</ele><time>2026-05-01T13:09:14Z</time></trkpt><trkpt lat="40.782182681895655" lon="9.103449029045537"><ele>236.66666666666669</ele><time>2026-05-01T13:09:15Z</time></trkpt><trkpt lat="40.782160807751964" lon="9.103647873748331"><ele>237.0</ele><time>2026-05-01T13:09:16Z</time></trkpt><trkpt lat="40.78213683849459" lon="9.103820059591818"><ele>237.0</ele><time>2026-05-01T13:09:17Z</time></trkpt><trkpt lat="40.78209371821413" lon="9.103968575541657"><ele>237.0</ele><time>2026-05-01T13:09:18Z</time></trkpt><trkpt lat="40.78201754331524" lon="9.104090709075509"><ele>237.0</ele><time>2026-05-01T13:09:19Z</time></trkpt><trkpt lat="40.78191308431842" lon="9.10420930486865"><ele>237.0</ele><time>2026-05-01T13:09:20Z</time></trkpt><trkpt lat="40.78178609293179" lon="9.104315640292034"><ele>236.0</ele><time>2026-05-01T13:09:21Z</time></trkpt><trkpt lat="40.781685375399526" lon="9.104399812377666"><ele>235.0</ele><time>2026-05-01T13:09:22Z</time></trkpt><trkpt lat="40.78160970675466" lon="9.104513936019783"><ele>234.0</ele><time>2026-05-01T13:09:23Z</time></trkpt><trkpt lat="40.78156786512981" lon="9.104652066377657"><ele>233.0</ele><time>2026-05-01T13:09:24Z</time></trkpt><trkpt lat="40.78155553662572" lon="9.104800262654416"><ele>234.25</ele><time>2026-05-01T13:09:25Z</time></trkpt><trkpt lat="40.78156374140695" lon="9.10495499208421"><ele>235.5</ele><time>2026-05-01T13:09:26Z</time></trkpt><trkpt lat="40.78155726112037" lon="9.105102800678468"><ele>236.75</ele><time>2026-05-01T13:09:27Z</time></trkpt><trkpt lat="40.78153511248677" lon="9.105253810960553"><ele>238.0</ele><time>2026-05-01T13:09:28Z</time></trkpt><trkpt lat="40.78150144366799" lon="9.10541832517792"><ele>238.0</ele><time>2026-05-01T13:09:29Z</time></trkpt><trkpt lat="40.78149679294712" lon="9.105604555853638"><ele>238.0</ele><time>2026-05-01T13:09:30Z</time></trkpt><trkpt lat="40.781485924354044" lon="9.105790555838194"><ele>238.0</ele><time>2026-05-01T13:09:31Z</time></trkpt><trkpt lat="40.781463779397214" lon="9.10599458812599"><ele>238.0</ele><time>2026-05-01T13:09:32Z</time></trkpt><trkpt lat="40.781431587159574" lon="9.106202711866771"><ele>236.66666666666666</ele><time>2026-05-01T13:09:33Z</time></trkpt><trkpt lat="40.78139443358519" lon="9.106407848033273"><ele>235.33333333333331</ele><time>2026-05-01T13:09:34Z</time></trkpt><trkpt lat="40.78136649265496" lon="9.106624430404702"><ele>234.0</ele><time>2026-05-01T13:09:35Z</time></trkpt><trkpt lat="40.78137118053519" lon="9.106835372881097"><ele>233.5</ele><time>2026-05-01T13:09:36Z</time></trkpt><trkpt lat="40.78135553215655" lon="9.107027066014496"><ele>233.0</ele><time>2026-05-01T13:09:37Z</time></trkpt><trkpt lat="40.78132700314601" lon="9.107179320395064"><ele>232.5</ele><time>2026-05-01T13:09:38Z</time></trkpt><trkpt lat="40.78124248560088" lon="9.107278085413597"><ele>232.0</ele><time>2026-05-01T13:09:39Z</time></trkpt><trkpt lat="40.781166426482905" lon="9.107380046055455"><ele>232.25</ele><time>2026-05-01T13:09:40Z</time></trkpt><trkpt lat="40.78108297454264" lon="9.107480271012925"><ele>232.5</ele><time>2026-05-01T13:09:41Z</time></trkpt><trkpt lat="40.781008698788824" lon="9.107581400069062"><ele>232.75</ele><time>2026-05-01T13:09:42Z</time></trkpt><trkpt lat="40.780934191483304" lon="9.107704381199301"><ele>233.0</ele><time>2026-05-01T13:09:43Z</time></trkpt><trkpt lat="40.7808618004588" lon="9.107825984774099"><ele>232.5</ele><time>2026-05-01T13:09:44Z</time></trkpt><trkpt lat="40.78077511820944" lon="9.107923953215005"><ele>232.0</ele><time>2026-05-01T13:09:45Z</time></trkpt><trkpt lat="40.78068985889262" lon="9.108032477166587"><ele>231.5</ele><time>2026-05-01T13:09:46Z</time></trkpt><trkpt lat="40.780608189205154" lon="9.108151857720856"><ele>231.0</ele><time>2026-05-01T13:09:47Z</time></trkpt><trkpt lat="40.78052602368113" lon="9.10828800690461"><ele>231.0</ele><time>2026-05-01T13:09:48Z</time></trkpt><trkpt lat="40.780452769217696" lon="9.108443980823605"><ele>231.0</ele><time>2026-05-01T13:09:49Z</time></trkpt><trkpt lat="40.780377929762054" lon="9.108599855059873"><ele>231.0</ele><time>2026-05-01T13:09:50Z</time></trkpt><trkpt lat="40.780299659454165" lon="9.108754460961729"><ele>231.0</ele><time>2026-05-01T13:09:51Z</time></trkpt><trkpt lat="40.78022665325093" lon="9.108886019578653"><ele>230.75</ele><time>2026-05-01T13:09:52Z</time></trkpt><trkpt lat="40.78015968733795" lon="9.10902341675408"><ele>230.5</ele><time>2026-05-01T13:09:53Z</time></trkpt><trkpt lat="40.78009659056951" lon="9.1091714573179"><ele>230.25</ele><time>2026-05-01T13:09:54Z</time></trkpt><trkpt lat="40.780042888217636" lon="9.109330029820434"><ele>230.0</ele><time>2026-05-01T13:09:55Z</time></trkpt><trkpt lat="40.78000497164353" lon="9.109505153043553"><ele>230.0</ele><time>2026-05-01T13:09:56Z</time></trkpt><trkpt lat="40.77998408419275" lon="9.10969074193595"><ele>230.0</ele><time>2026-05-01T13:09:57Z</time></trkpt><trkpt lat="40.77998003239379" lon="9.109882173296562"><ele>230.0</ele><time>2026-05-01T13:09:58Z</time></trkpt><trkpt lat="40.779981953270365" lon="9.110071838871873"><ele>230.0</ele><time>2026-05-01T13:09:59Z</time></trkpt><trkpt lat="40.78000449111762" lon="9.110256260561934"><ele>230.0</ele><time>2026-05-01T13:10:00Z</time></trkpt><trkpt lat="40.78001626644914" lon="9.110444652157392"><ele>230.0</ele><time>2026-05-01T13:10:01Z</time></trkpt><trkpt lat="40.78005047585037" lon="9.110627117172426"><ele>230.0</ele><time>2026-05-01T13:10:02Z</time></trkpt><trkpt lat="40.78007549675178" lon="9.110810563234597"><ele>230.0</ele><time>2026-05-01T13:10:03Z</time></trkpt><trkpt lat="40.78011598489546" lon="9.110986878873325"><ele>229.75</ele><time>2026-05-01T13:10:04Z</time></trkpt><trkpt lat="40.78015722406163" lon="9.111162782422731"><ele>229.5</ele><time>2026-05-01T13:10:05Z</time></trkpt><trkpt lat="40.78019958631538" lon="9.11134347594947"><ele>229.25</ele><time>2026-05-01T13:10:06Z</time></trkpt><trkpt lat="40.78024009391761" lon="9.111527792502839"><ele>229.0</ele><time>2026-05-01T13:10:07Z</time></trkpt><trkpt lat="40.78028037320963" lon="9.111711618645828"><ele>230.5</ele><time>2026-05-01T13:10:08Z</time></trkpt><trkpt lat="40.78032283999314" lon="9.111891548866593"><ele>232.0</ele><time>2026-05-01T13:10:09Z</time></trkpt><trkpt lat="40.780364498861246" lon="9.112069435805516"><ele>233.5</ele><time>2026-05-01T13:10:10Z</time></trkpt><trkpt lat="40.780418697500814" lon="9.112243912005841"><ele>235.0</ele><time>2026-05-01T13:10:11Z</time></trkpt><trkpt lat="40.78044979389822" lon="9.11242816934638"><ele>235.0</ele><time>2026-05-01T13:10:12Z</time></trkpt><trkpt lat="40.780474941158374" lon="9.112609448833444"><ele>235.0</ele><time>2026-05-01T13:10:13Z</time></trkpt><trkpt lat="40.780494558169416" lon="9.11279216547006"><ele>235.0</ele><time>2026-05-01T13:10:14Z</time></trkpt><trkpt lat="40.780518802142076" lon="9.112972243320016"><ele>235.0</ele><time>2026-05-01T13:10:15Z</time></trkpt><trkpt lat="40.78056315561976" lon="9.11314925810143"><ele>234.25</ele><time>2026-05-01T13:10:16Z</time></trkpt><trkpt lat="40.780619782875625" lon="9.113320900405071"><ele>233.5</ele><time>2026-05-01T13:10:17Z</time></trkpt><trkpt lat="40.78067873842317" lon="9.113492390003486"><ele>232.75</ele><time>2026-05-01T13:10:18Z</time></trkpt><trkpt lat="40.78072664525572" lon="9.113668678671225"><ele>232.0</ele><time>2026-05-01T13:10:19Z</time></trkpt><trkpt lat="40.780757481281405" lon="9.11385332866983"><ele>232.0</ele><time>2026-05-01T13:10:20Z</time></trkpt><trkpt lat="40.780782779178516" lon="9.114036780456104"><ele>232.0</ele><time>2026-05-01T13:10:21Z</time></trkpt><trkpt lat="40.78081149363973" lon="9.114221408950055"><ele>232.0</ele><time>2026-05-01T13:10:22Z</time></trkpt><trkpt lat="40.78084827182534" lon="9.114405811112514"><ele>232.0</ele><time>2026-05-01T13:10:23Z</time></trkpt><trkpt lat="40.78088819524184" lon="9.114590075158013"><ele>231.25</ele><time>2026-05-01T13:10:24Z</time></trkpt><trkpt lat="40.78092093335001" lon="9.114776935684109"><ele>230.5</ele><time>2026-05-01T13:10:25.001Z</time></trkpt><trkpt lat="40.78093029192683" lon="9.114970017731627"><ele>229.75</ele><time>2026-05-01T13:10:26.001Z</time></trkpt><trkpt lat="40.78096577655888" lon="9.115160783625496"><ele>229.0</ele><time>2026-05-01T13:10:27.001Z</time></trkpt><trkpt lat="40.78098345280193" lon="9.115354452641233"><ele>229.5</ele><time>2026-05-01T13:10:28.001Z</time></trkpt><trkpt lat="40.7810120799194" lon="9.115545315617425"><ele>230.0</ele><time>2026-05-01T13:10:29.001Z</time></trkpt><trkpt lat="40.7810508354446" lon="9.115706593156007"><ele>230.5</ele><time>2026-05-01T13:10:30.001Z</time></trkpt><trkpt lat="40.781087847694444" lon="9.115837662192146"><ele>231.0</ele><time>2026-05-01T13:10:31.001Z</time></trkpt><trkpt lat="40.781115137634416" lon="9.115933103205688"><ele>231.0</ele><time>2026-05-01T13:10:32.001Z</time></trkpt><trkpt lat="40.7812212717022" lon="9.115981942802442"><ele>231.0</ele><time>2026-05-01T13:10:36.001Z</time></trkpt><trkpt lat="40.78137335407226" lon="9.115980805328912"><ele>231.0</ele><time>2026-05-01T13:10:38.001Z</time></trkpt><trkpt lat="40.7814727740891" lon="9.115986844525152"><ele>231.0</ele><time>2026-05-01T13:10:39.001Z</time></trkpt><trkpt lat="40.781559006805075" lon="9.116006911401895"><ele>231.0</ele><time>2026-05-01T13:10:40.001Z</time></trkpt><trkpt lat="40.78162399541341" lon="9.116053978158552"><ele>231.00000000000003</ele><time>2026-05-01T13:10:41.001Z</time></trkpt><trkpt lat="40.78167867996466" lon="9.11615865809022"><ele>231.00000000000003</ele><time>2026-05-01T13:10:42.001Z</time></trkpt><trkpt lat="40.78175579838218" lon="9.116267847820966"><ele>231.0</ele><time>2026-05-01T13:10:43.001Z</time></trkpt><trkpt lat="40.781835469061946" lon="9.116343213964702"><ele>231.0</ele><time>2026-05-01T13:10:44.001Z</time></trkpt><trkpt lat="40.78191460933113" lon="9.116418310544574"><ele>231.5</ele><time>2026-05-01T13:10:45.001Z</time></trkpt><trkpt lat="40.78202522077059" lon="9.116487998613835"><ele>232.0</ele><time>2026-05-01T13:10:46.001Z</time></trkpt><trkpt lat="40.78217136800017" lon="9.116538511549885"><ele>232.5</ele><time>2026-05-01T13:10:47.001Z</time></trkpt><trkpt lat="40.78233513271268" lon="9.116582781893225"><ele>233.0</ele><time>2026-05-01T13:10:48.001Z</time></trkpt><trkpt lat="40.782495798374526" lon="9.116650516859485"><ele>233.0</ele><time>2026-05-01T13:10:49.001Z</time></trkpt><trkpt lat="40.78262934342081" lon="9.116721569102264"><ele>233.0</ele><time>2026-05-01T13:10:50.001Z</time></trkpt><trkpt lat="40.782772006674605" lon="9.11685428503258"><ele>233.0</ele><time>2026-05-01T13:10:51.001Z</time></trkpt><trkpt lat="40.78294479864289" lon="9.11696199256871"><ele>235.0</ele><time>2026-05-01T13:10:52.001Z</time></trkpt><trkpt lat="40.783103195873935" lon="9.117080475349045"><ele>237.0</ele><time>2026-05-01T13:10:53.001Z</time></trkpt><trkpt lat="40.78324705786708" lon="9.117196046171111"><ele>239.0</ele><time>2026-05-01T13:10:54.001Z</time></trkpt><trkpt lat="40.78338409949105" lon="9.11732243752383"><ele>239.5</ele><time>2026-05-01T13:10:55Z</time></trkpt><trkpt lat="40.78349050962366" lon="9.117420673733802"><ele>240.0</ele><time>2026-05-01T13:10:55.999Z</time></trkpt><trkpt lat="40.78358478503179" lon="9.117492034716609"><ele>240.5</ele><time>2026-05-01T13:10:57Z</time></trkpt><trkpt lat="40.78370948835962" lon="9.117545716218832"><ele>241.0</ele><time>2026-05-01T13:10:58Z</time></trkpt><trkpt lat="40.78387082175458" lon="9.117598094664398"><ele>241.0</ele><time>2026-05-01T13:10:59Z</time></trkpt><trkpt lat="40.784003209730585" lon="9.117677261186667"><ele>241.0</ele><time>2026-05-01T13:11:00Z</time></trkpt><trkpt lat="40.78410447317189" lon="9.117767665277409"><ele>241.0</ele><time>2026-05-01T13:11:01Z</time></trkpt><trkpt lat="40.78421002276335" lon="9.117871894301325"><ele>241.0</ele><time>2026-05-01T13:11:02Z</time></trkpt><trkpt lat="40.784312913952505" lon="9.117993041381666"><ele>242.25</ele><time>2026-05-01T13:11:03Z</time></trkpt><trkpt lat="40.78443276567803" lon="9.118084844740242"><ele>243.5</ele><time>2026-05-01T13:11:04Z</time></trkpt><trkpt lat="40.78455063477375" lon="9.118164894831422"><ele>244.75</ele><time>2026-05-01T13:11:05Z</time></trkpt><trkpt lat="40.784682125595246" lon="9.118207864367537"><ele>246.0</ele><time>2026-05-01T13:11:06Z</time></trkpt><trkpt lat="40.78480735199423" lon="9.118253177971255"><ele>246.0</ele><time>2026-05-01T13:11:07Z</time></trkpt><trkpt lat="40.7849463333094" lon="9.11827601311371"><ele>246.0</ele><time>2026-05-01T13:11:08Z</time></trkpt><trkpt lat="40.78506037503496" lon="9.118278156068266"><ele>246.0</ele><time>2026-05-01T13:11:09Z</time></trkpt><trkpt lat="40.785166459955406" lon="9.118250858883757"><ele>246.0</ele><time>2026-05-01T13:11:10Z</time></trkpt><trkpt lat="40.7852549423159" lon="9.11819848973633"><ele>248.75</ele><time>2026-05-01T13:11:11Z</time></trkpt><trkpt lat="40.785335048109076" lon="9.118118282067268"><ele>251.5</ele><time>2026-05-01T13:11:12Z</time></trkpt><trkpt lat="40.78543614934482" lon="9.118012277482652"><ele>254.25</ele><time>2026-05-01T13:11:13Z</time></trkpt><trkpt lat="40.78555907292448" lon="9.117922905823724"><ele>257.0</ele><time>2026-05-01T13:11:14Z</time></trkpt><trkpt lat="40.7856733878615" lon="9.117832222028916"><ele>257.0</ele><time>2026-05-01T13:11:15Z</time></trkpt><trkpt lat="40.78575867220136" lon="9.117793695163828"><ele>257.0</ele><time>2026-05-01T13:11:16Z</time></trkpt><trkpt lat="40.78583361922174" lon="9.117780499729909"><ele>257.0</ele><time>2026-05-01T13:11:17Z</time></trkpt><trkpt lat="40.785931917952176" lon="9.117783339027087"><ele>257.0</ele><time>2026-05-01T13:11:18Z</time></trkpt><trkpt lat="40.78604625804089" lon="9.117830483891728"><ele>257.0</ele><time>2026-05-01T13:11:19Z</time></trkpt><trkpt lat="40.78616464719544" lon="9.117931405335627"><ele>258.33333333333337</ele><time>2026-05-01T13:11:20Z</time></trkpt><trkpt lat="40.78631104255157" lon="9.11803336415432"><ele>259.6666666666667</ele><time>2026-05-01T13:11:21Z</time></trkpt><trkpt lat="40.78647207181211" lon="9.118155726390395"><ele>261.0</ele><time>2026-05-01T13:11:22Z</time></trkpt><trkpt lat="40.786651208000585" lon="9.1182417708138"><ele>261.0</ele><time>2026-05-01T13:11:23Z</time></trkpt><trkpt lat="40.786787710003026" lon="9.118324833538102"><ele>261.0</ele><time>2026-05-01T13:11:24Z</time></trkpt><trkpt lat="40.786884386371376" lon="9.118387416736491"><ele>261.0</ele><time>2026-05-01T13:11:25Z</time></trkpt><trkpt lat="40.786967879285" lon="9.118485506615533"><ele>261.0</ele><time>2026-05-01T13:11:26Z</time></trkpt><trkpt lat="40.78706311704947" lon="9.11854544812696"><ele>261.8333333333333</ele><time>2026-05-01T13:11:27Z</time></trkpt><trkpt lat="40.787095359591774" lon="9.118678414841563"><ele>262.6666666666667</ele><time>2026-05-01T13:11:28Z</time></trkpt><trkpt lat="40.78720076323221" lon="9.118683757518221"><ele>263.5</ele><time>2026-05-01T13:11:30Z</time></trkpt><trkpt lat="40.78726391068894" lon="9.118650956000714"><ele>264.33333333333337</ele><time>2026-05-01T13:11:31Z</time></trkpt><trkpt lat="40.787338067634145" lon="9.118621687005307"><ele>265.1666666666667</ele><time>2026-05-01T13:11:32Z</time></trkpt><trkpt lat="40.787427454501184" lon="9.118600642012371"><ele>266.0</ele><time>2026-05-01T13:11:33Z</time></trkpt><trkpt lat="40.78753140650764" lon="9.11858388505903"><ele>266.0</ele><time>2026-05-01T13:11:34Z</time></trkpt><trkpt lat="40.787629340694124" lon="9.118574777670311"><ele>266.0</ele><time>2026-05-01T13:11:35Z</time></trkpt><trkpt lat="40.787723496825315" lon="9.118550423856599"><ele>266.0</ele><time>2026-05-01T13:11:36Z</time></trkpt><trkpt lat="40.78781718012994" lon="9.11848212010915"><ele>266.0</ele><time>2026-05-01T13:11:37Z</time></trkpt><trkpt lat="40.78789542932804" lon="9.118392308012153"><ele>266.0</ele><time>2026-05-01T13:11:38Z</time></trkpt><trkpt lat="40.78797771104535" lon="9.118334040816721"><ele>268.6</ele><time>2026-05-01T13:11:39Z</time></trkpt><trkpt lat="40.788071439006714" lon="9.118304907285927"><ele>271.20000000000005</ele><time>2026-05-01T13:11:40Z</time></trkpt><trkpt lat="40.78818677215788" lon="9.1182847218885"><ele>273.79999999999995</ele><time>2026-05-01T13:11:41Z</time></trkpt><trkpt lat="40.78830981518178" lon="9.118253941567652"><ele>276.4</ele><time>2026-05-01T13:11:42Z</time></trkpt><trkpt lat="40.788417610397886" lon="9.118234168697596"><ele>279.0</ele><time>2026-05-01T13:11:43Z</time></trkpt><trkpt lat="40.78851988074742" lon="9.118241018627565"><ele>282.0</ele><time>2026-05-01T13:11:44Z</time></trkpt><trkpt lat="40.78862537142076" lon="9.118291884059326"><ele>285.0</ele><time>2026-05-01T13:11:45Z</time></trkpt><trkpt lat="40.788753600735305" lon="9.118375054715775"><ele>288.0</ele><time>2026-05-01T13:11:46Z</time></trkpt><trkpt lat="40.78889504332379" lon="9.118457639372231"><ele>291.0</ele><time>2026-05-01T13:11:47Z</time></trkpt><trkpt lat="40.789037650002115" lon="9.11852173516404"><ele>291.0</ele><time>2026-05-01T13:11:48Z</time></trkpt><trkpt lat="40.78916460419559" lon="9.118562316074208"><ele>291.0</ele><time>2026-05-01T13:11:49Z</time></trkpt><trkpt lat="40.78927192594167" lon="9.118623654300768"><ele>291.0</ele><time>2026-05-01T13:11:50Z</time></trkpt><trkpt lat="40.78938943569197" lon="9.118708708791159"><ele>291.0</ele><time>2026-05-01T13:11:51Z</time></trkpt><trkpt lat="40.789502636738945" lon="9.118753553232647"><ele>293.8</ele><time>2026-05-01T13:11:52Z</time></trkpt><trkpt lat="40.789621946508596" lon="9.118753027680125"><ele>296.6</ele><time>2026-05-01T13:11:53Z</time></trkpt><trkpt lat="40.78972645186362" lon="9.118734094917837"><ele>299.4</ele><time>2026-05-01T13:11:54Z</time></trkpt><trkpt lat="40.78980316137615" lon="9.118763100571073"><ele>302.2</ele><time>2026-05-01T13:11:55Z</time></trkpt><trkpt lat="40.78987181363439" lon="9.118849674260016"><ele>305.0</ele><time>2026-05-01T13:11:56Z</time></trkpt><trkpt lat="40.789953062194286" lon="9.118951907189782"><ele>305.0</ele><time>2026-05-01T13:11:57Z</time></trkpt><trkpt lat="40.79004793442114" lon="9.119016179630103"><ele>305.0</ele><time>2026-05-01T13:11:58Z</time></trkpt><trkpt lat="40.790156778267956" lon="9.119017494381312"><ele>305.0</ele><time>2026-05-01T13:11:59Z</time></trkpt><trkpt lat="40.790237342648865" lon="9.119016975203495"><ele>305.0</ele><time>2026-05-01T13:12:00Z</time></trkpt><trkpt lat="40.790309394355624" lon="9.11908132122368"><ele>305.0</ele><time>2026-05-01T13:12:02Z</time></trkpt><trkpt lat="40.79037233104775" lon="9.119222978822602"><ele>306.8</ele><time>2026-05-01T13:12:04Z</time></trkpt><trkpt lat="40.790414748074554" lon="9.119319062294998"><ele>308.6</ele><time>2026-05-01T13:12:05Z</time></trkpt><trkpt lat="40.790467880222415" lon="9.119428713544403"><ele>310.4</ele><time>2026-05-01T13:12:06Z</time></trkpt><trkpt lat="40.79052391326315" lon="9.119560710391621"><ele>312.2</ele><time>2026-05-01T13:12:07Z</time></trkpt><trkpt lat="40.79058016721486" lon="9.11970205851479"><ele>314.0</ele><time>2026-05-01T13:12:08Z</time></trkpt><trkpt lat="40.79063613998422" lon="9.11983688227547"><ele>314.0</ele><time>2026-05-01T13:12:09Z</time></trkpt><trkpt lat="40.79068636635569" lon="9.119961731838547"><ele>314.0</ele><time>2026-05-01T13:12:10Z</time></trkpt><trkpt lat="40.7907521952674" lon="9.120064898622513"><ele>314.0</ele><time>2026-05-01T13:12:11Z</time></trkpt><trkpt lat="40.79082431115045" lon="9.120126124051835"><ele>314.0</ele><time>2026-05-01T13:12:12Z</time></trkpt><trkpt lat="40.79089883686505" lon="9.120165692945488"><ele>314.0</ele><time>2026-05-01T13:12:13Z</time></trkpt><trkpt lat="40.79097978331687" lon="9.120233585244232"><ele>315.5</ele><time>2026-05-01T13:12:14Z</time></trkpt><trkpt lat="40.791055671226076" lon="9.120313864613747"><ele>317.0</ele><time>2026-05-01T13:12:15Z</time></trkpt><trkpt lat="40.79111779392689" lon="9.120400158324092"><ele>318.5</ele><time>2026-05-01T13:12:16Z</time></trkpt><trkpt lat="40.791161314450534" lon="9.120489580712672"><ele>320.0</ele><time>2026-05-01T13:12:17.001Z</time></trkpt><trkpt lat="40.79117975885971" lon="9.120584971590091"><ele>321.5</ele><time>2026-05-01T13:12:18.001Z</time></trkpt><trkpt lat="40.79118228389166" lon="9.120701880203889"><ele>323.0</ele><time>2026-05-01T13:12:19.001Z</time></trkpt><trkpt lat="40.7911769575622" lon="9.120818736439446"><ele>323.0</ele><time>2026-05-01T13:12:20.001Z</time></trkpt><trkpt lat="40.79117850119628" lon="9.120946343187708"><ele>323.0</ele><time>2026-05-01T13:12:21.001Z</time></trkpt><trkpt lat="40.791186250365165" lon="9.121098669258526"><ele>323.0</ele><time>2026-05-01T13:12:22.001Z</time></trkpt><trkpt lat="40.79119030365342" lon="9.12126824578966"><ele>323.0</ele><time>2026-05-01T13:12:23.001Z</time></trkpt><trkpt lat="40.79119604877897" lon="9.121434761709596"><ele>323.2</ele><time>2026-05-01T13:12:24.001Z</time></trkpt><trkpt lat="40.79119546665925" lon="9.121581730861017"><ele>323.4</ele><time>2026-05-01T13:12:25.001Z</time></trkpt><trkpt lat="40.791195519399835" lon="9.12171340579809"><ele>323.59999999999997</ele><time>2026-05-01T13:12:26.001Z</time></trkpt><trkpt lat="40.791164940270335" lon="9.121837887122748"><ele>323.79999999999995</ele><time>2026-05-01T13:12:27.001Z</time></trkpt><trkpt lat="40.79115480980871" lon="9.121967485530456"><ele>324.0</ele><time>2026-05-01T13:12:28.001Z</time></trkpt><trkpt lat="40.79114633053305" lon="9.122094521731658"><ele>324.0</ele><time>2026-05-01T13:12:29.001Z</time></trkpt><trkpt lat="40.7911420215673" lon="9.122224167810913"><ele>324.0</ele><time>2026-05-01T13:12:30.001Z</time></trkpt><trkpt lat="40.79116749217572" lon="9.12234012494272"><ele>324.0</ele><time>2026-05-01T13:12:31.001Z</time></trkpt><trkpt lat="40.79118976037226" lon="9.122425294485355"><ele>324.0</ele><time>2026-05-01T13:12:32.001Z</time></trkpt><trkpt lat="40.79124634630392" lon="9.122540959678787"><ele>324.0</ele><time>2026-05-01T13:12:34.001Z</time></trkpt><trkpt lat="40.79131449584185" lon="9.122544654350166"><ele>324.0</ele><time>2026-05-01T13:12:35.001Z</time></trkpt><trkpt lat="40.79137847907803" lon="9.122551012383685"><ele>323.4</ele><time>2026-05-01T13:12:36.001Z</time></trkpt><trkpt lat="40.79151226908316" lon="9.122542590109466"><ele>322.79999999999995</ele><time>2026-05-01T13:12:38.001Z</time></trkpt><trkpt lat="40.79161641103625" lon="9.12254146983939"><ele>322.20000000000005</ele><time>2026-05-01T13:12:39.001Z</time></trkpt><trkpt lat="40.79171878681987" lon="9.12253955933011"><ele>321.6</ele><time>2026-05-01T13:12:40.001Z</time></trkpt><trkpt lat="40.791794697515634" lon="9.122562881134991"><ele>321.0</ele><time>2026-05-01T13:12:41.001Z</time></trkpt><trkpt lat="40.79186480120588" lon="9.122646275607822"><ele>323.20000000000005</ele><time>2026-05-01T13:12:42.001Z</time></trkpt><trkpt lat="40.79194495569476" lon="9.122732039365946"><ele>325.40000000000003</ele><time>2026-05-01T13:12:43.001Z</time></trkpt><trkpt lat="40.792005925711756" lon="9.122837318331236"><ele>327.6</ele><time>2026-05-01T13:12:44.001Z</time></trkpt><trkpt lat="40.7920704905818" lon="9.122946521579136"><ele>329.8</ele><time>2026-05-01T13:12:45.001Z</time></trkpt><trkpt lat="40.79213640151605" lon="9.123050564847563"><ele>332.0</ele><time>2026-05-01T13:12:46.001Z</time></trkpt><trkpt lat="40.79219773442393" lon="9.123159592124276"><ele>331.0</ele><time>2026-05-01T13:12:47.001Z</time></trkpt><trkpt lat="40.79226000287727" lon="9.12323880723284"><ele>330.0</ele><time>2026-05-01T13:12:48.001Z</time></trkpt><trkpt lat="40.79228771612148" lon="9.123335844941701"><ele>329.0</ele><time>2026-05-01T13:12:49.001Z</time></trkpt><trkpt lat="40.7923344435953" lon="9.123444056983578"><ele>328.0</ele><time>2026-05-01T13:12:50.001Z</time></trkpt><trkpt lat="40.792371800558655" lon="9.123542632079443"><ele>327.0</ele><time>2026-05-01T13:12:51.001Z</time></trkpt><trkpt lat="40.79241444552542" lon="9.12364714317211"><ele>326.0</ele><time>2026-05-01T13:12:52.001Z</time></trkpt><trkpt lat="40.792465194708114" lon="9.12376459513612"><ele>326.0</ele><time>2026-05-01T13:12:53.001Z</time></trkpt><trkpt lat="40.79251531648389" lon="9.123888799232823"><ele>326.0</ele><time>2026-05-01T13:12:54.001Z</time></trkpt><trkpt lat="40.79257666335492" lon="9.124011883820174"><ele>326.0</ele><time>2026-05-01T13:12:55.001Z</time></trkpt><trkpt lat="40.792609617143434" lon="9.12412977372282"><ele>326.0</ele><time>2026-05-01T13:12:56.001Z</time></trkpt><trkpt lat="40.792626482248586" lon="9.12425271804465"><ele>326.0</ele><time>2026-05-01T13:12:57.001Z</time></trkpt><trkpt lat="40.79265265556881" lon="9.124364383191036"><ele>326.33333333333337</ele><time>2026-05-01T13:12:58.001Z</time></trkpt><trkpt lat="40.79268492338687" lon="9.124488211107188"><ele>326.6666666666667</ele><time>2026-05-01T13:12:59.001Z</time></trkpt><trkpt lat="40.79272451678408" lon="9.124604810917992"><ele>327.0</ele><time>2026-05-01T13:13:00.001Z</time></trkpt><trkpt lat="40.792773434411934" lon="9.12466765312868"><ele>327.3333333333333</ele><time>2026-05-01T13:13:01Z</time></trkpt><trkpt lat="40.79287622797056" lon="9.12470655481938"><ele>327.66666666666663</ele><time>2026-05-01T13:13:03Z</time></trkpt><trkpt lat="40.79294653258083" lon="9.124745871815643"><ele>328.0</ele><time>2026-05-01T13:13:04Z</time></trkpt><trkpt lat="40.79300008945811" lon="9.124823215675683"><ele>327.4</ele><time>2026-05-01T13:13:06Z</time></trkpt><trkpt lat="40.79307415803434" lon="9.124933299156941"><ele>326.79999999999995</ele><time>2026-05-01T13:13:16Z</time></trkpt><trkpt lat="40.79314215792465" lon="9.125017467977496"><ele>326.2</ele><time>2026-05-01T13:13:17Z</time></trkpt><trkpt lat="40.79320392875249" lon="9.125099878483804"><ele>325.6</ele><time>2026-05-01T13:13:18Z</time></trkpt><trkpt lat="40.79328699385305" lon="9.125194383477153"><ele>325.0</ele><time>2026-05-01T13:13:19Z</time></trkpt><trkpt lat="40.79337814346602" lon="9.125305206668035"><ele>325.0</ele><time>2026-05-01T13:13:20Z</time></trkpt><trkpt lat="40.7934449424577" lon="9.125390509304381"><ele>325.0</ele><time>2026-05-01T13:13:21Z</time></trkpt><trkpt lat="40.793501512511675" lon="9.125470569302168"><ele>325.0</ele><time>2026-05-01T13:13:22Z</time></trkpt><trkpt lat="40.793528593784735" lon="9.12555853261615"><ele>325.0</ele><time>2026-05-01T13:13:23Z</time></trkpt><trkpt lat="40.79355024559785" lon="9.125672028355885"><ele>325.0</ele><time>2026-05-01T13:13:24Z</time></trkpt><trkpt lat="40.79356284437966" lon="9.125799068746964"><ele>325.0</ele><time>2026-05-01T13:13:25Z</time></trkpt><trkpt lat="40.79359025713599" lon="9.125918834805516"><ele>326.0</ele><time>2026-05-01T13:13:26Z</time></trkpt><trkpt lat="40.79361857793324" lon="9.126049144412097"><ele>327.0</ele><time>2026-05-01T13:13:27Z</time></trkpt><trkpt lat="40.79365321294801" lon="9.126167508577094"><ele>328.0</ele><time>2026-05-01T13:13:28Z</time></trkpt><trkpt lat="40.79366282583394" lon="9.126295222807304"><ele>329.0</ele><time>2026-05-01T13:13:29Z</time></trkpt><trkpt lat="40.793676428487984" lon="9.126433506935447"><ele>330.0</ele><time>2026-05-01T13:13:30Z</time></trkpt><trkpt lat="40.793685258784684" lon="9.126562295971853"><ele>330.0</ele><time>2026-05-01T13:13:31Z</time></trkpt><trkpt lat="40.79370300387523" lon="9.126704566506547"><ele>330.0</ele><time>2026-05-01T13:13:32Z</time></trkpt><trkpt lat="40.793713658054344" lon="9.126834698745371"><ele>330.0</ele><time>2026-05-01T13:13:33Z</time></trkpt><trkpt lat="40.79371781512546" lon="9.12693039625952"><ele>330.0</ele><time>2026-05-01T13:13:34Z</time></trkpt><trkpt lat="40.79375055863594" lon="9.127035837172103"><ele>330.0</ele><time>2026-05-01T13:13:35Z</time></trkpt><trkpt lat="40.793801393113775" lon="9.127164615182032"><ele>330.0</ele><time>2026-05-01T13:13:36Z</time></trkpt><trkpt lat="40.79382879374065" lon="9.127314705686972"><ele>330.0</ele><time>2026-05-01T13:13:37Z</time></trkpt><trkpt lat="40.793847235131054" lon="9.127449817065088"><ele>330.0</ele><time>2026-05-01T13:13:38Z</time></trkpt><trkpt lat="40.793867307245826" lon="9.12759932297559"><ele>330.0</ele><time>2026-05-01T13:13:39Z</time></trkpt><trkpt lat="40.79389217822323" lon="9.127722757112974"><ele>330.0</ele><time>2026-05-01T13:13:40Z</time></trkpt><trkpt lat="40.79393490541022" lon="9.127828131675392"><ele>328.4</ele><time>2026-05-01T13:13:41Z</time></trkpt><trkpt lat="40.793982131625626" lon="9.127950078937433"><ele>326.8</ele><time>2026-05-01T13:13:42Z</time></trkpt><trkpt lat="40.79404439738018" lon="9.128072606288217"><ele>325.20000000000005</ele><time>2026-05-01T13:13:43Z</time></trkpt><trkpt lat="40.79411079793853" lon="9.128174516625739"><ele>323.6</ele><time>2026-05-01T13:13:44Z</time></trkpt><trkpt lat="40.79417446908525" lon="9.128272089236145"><ele>322.0</ele><time>2026-05-01T13:13:45Z</time></trkpt><trkpt lat="40.79424476743973" lon="9.12839993686515"><ele>320.75</ele><time>2026-05-01T13:13:46Z</time></trkpt><trkpt lat="40.794334674757444" lon="9.12852215588246"><ele>319.5</ele><time>2026-05-01T13:13:47Z</time></trkpt><trkpt lat="40.794432735558026" lon="9.12861919324637"><ele>318.25</ele><time>2026-05-01T13:13:48Z</time></trkpt><trkpt lat="40.794534022378876" lon="9.128727340566662"><ele>317.0</ele><time>2026-05-01T13:13:49Z</time></trkpt><trkpt lat="40.79463736964582" lon="9.128819367566159"><ele>317.0</ele><time>2026-05-01T13:13:50Z</time></trkpt><trkpt lat="40.7947417771011" lon="9.128897667525793"><ele>317.0</ele><time>2026-05-01T13:13:51Z</time></trkpt><trkpt lat="40.79484512175889" lon="9.128972554507834"><ele>317.0</ele><time>2026-05-01T13:13:52Z</time></trkpt><trkpt lat="40.794934659443875" lon="9.129029810290683"><ele>317.0</ele><time>2026-05-01T13:13:53Z</time></trkpt><trkpt lat="40.79502117667999" lon="9.129076602995262"><ele>317.0</ele><time>2026-05-01T13:13:54Z</time></trkpt><trkpt lat="40.79510773943518" lon="9.129101872480364"><ele>313.75</ele><time>2026-05-01T13:13:55Z</time></trkpt><trkpt lat="40.79523384847832" lon="9.129157415843641"><ele>310.5</ele><time>2026-05-01T13:13:56Z</time></trkpt><trkpt lat="40.79536330544576" lon="9.129180692303887"><ele>307.25</ele><time>2026-05-01T13:13:57Z</time></trkpt><trkpt lat="40.79550705599324" lon="9.129223792033057"><ele>304.0</ele><time>2026-05-01T13:13:58Z</time></trkpt><trkpt lat="40.795643848435056" lon="9.12926701343481"><ele>304.0</ele><time>2026-05-01T13:13:59Z</time></trkpt><trkpt lat="40.7957395720465" lon="9.129307445951854"><ele>304.0</ele><time>2026-05-01T13:14:00Z</time></trkpt><trkpt lat="40.7958221528706" lon="9.129373562684302"><ele>304.0</ele><time>2026-05-01T13:14:01Z</time></trkpt><trkpt lat="40.795899404422784" lon="9.12946399240655"><ele>304.0</ele><time>2026-05-01T13:14:02Z</time></trkpt><trkpt lat="40.79599554701415" lon="9.129551809198546"><ele>304.0</ele><time>2026-05-01T13:14:03Z</time></trkpt><trkpt lat="40.79608905152318" lon="9.12965837900863"><ele>305.4</ele><time>2026-05-01T13:14:04Z</time></trkpt><trkpt lat="40.79617499630255" lon="9.129730418782351"><ele>306.79999999999995</ele><time>2026-05-01T13:14:05Z</time></trkpt><trkpt lat="40.796259802877294" lon="9.129763242943069"><ele>308.20000000000005</ele><time>2026-05-01T13:14:06Z</time></trkpt><trkpt lat="40.796381120456445" lon="9.12976737042165"><ele>309.6</ele><time>2026-05-01T13:14:07Z</time></trkpt><trkpt lat="40.79648958130227" lon="9.129794893413633"><ele>311.0</ele><time>2026-05-01T13:14:08.001Z</time></trkpt><trkpt lat="40.79656794090395" lon="9.129820487010813"><ele>309.6</ele><time>2026-05-01T13:14:09.001Z</time></trkpt><trkpt lat="40.79660680856886" lon="9.12995686597758"><ele>308.20000000000005</ele><time>2026-05-01T13:14:11.001Z</time></trkpt><trkpt lat="40.79659551183363" lon="9.130056897466135"><ele>306.79999999999995</ele><time>2026-05-01T13:14:12.001Z</time></trkpt><trkpt lat="40.796584124336" lon="9.130198801251572"><ele>305.4</ele><time>2026-05-01T13:14:13.001Z</time></trkpt><trkpt lat="40.796568244238934" lon="9.130358739398268"><ele>304.0</ele><time>2026-05-01T13:14:14.001Z</time></trkpt><trkpt lat="40.796533272725455" lon="9.130502241008685"><ele>304.0</ele><time>2026-05-01T13:14:15.001Z</time></trkpt><trkpt lat="40.796484299231984" lon="9.130677386050365"><ele>304.0</ele><time>2026-05-01T13:14:16.001Z</time></trkpt><trkpt lat="40.7964348530141" lon="9.130847982112728"><ele>304.0</ele><time>2026-05-01T13:14:17.001Z</time></trkpt><trkpt lat="40.79639024650589" lon="9.130978363063932"><ele>304.0</ele><time>2026-05-01T13:14:18.001Z</time></trkpt><trkpt lat="40.7963107570781" lon="9.13113362641482"><ele>305.59999999999997</ele><time>2026-05-01T13:14:20.001Z</time></trkpt><trkpt lat="40.79634826912588" lon="9.131294479901518"><ele>307.2</ele><time>2026-05-01T13:14:22.001Z</time></trkpt><trkpt lat="40.7964460269549" lon="9.131293294822985"><ele>308.79999999999995</ele><time>2026-05-01T13:14:23.001Z</time></trkpt><trkpt lat="40.79652482062296" lon="9.131325970317823"><ele>310.4</ele><time>2026-05-01T13:14:24.001Z</time></trkpt><trkpt lat="40.79661564139541" lon="9.131344895567512"><ele>312.0</ele><time>2026-05-01T13:14:25.001Z</time></trkpt><trkpt lat="40.796733214872596" lon="9.131364385396925"><ele>313.2</ele><time>2026-05-01T13:14:26.001Z</time></trkpt><trkpt lat="40.796848929659994" lon="9.131388561607007"><ele>314.4</ele><time>2026-05-01T13:14:27.001Z</time></trkpt><trkpt lat="40.79695522319288" lon="9.131409972527498"><ele>315.6</ele><time>2026-05-01T13:14:28.001Z</time></trkpt><trkpt lat="40.79704100057875" lon="9.131440357953371"><ele>316.8</ele><time>2026-05-01T13:14:29.001Z</time></trkpt><trkpt lat="40.79709537961843" lon="9.13151006387919"><ele>318.0</ele><time>2026-05-01T13:14:30.001Z</time></trkpt><trkpt lat="40.797159799108805" lon="9.13162146626398"><ele>319.4</ele><time>2026-05-01T13:14:31.001Z</time></trkpt><trkpt lat="40.79722314124812" lon="9.13174537372998"><ele>320.8</ele><time>2026-05-01T13:14:32.001Z</time></trkpt><trkpt lat="40.797298044254894" lon="9.131880352859303"><ele>322.2</ele><time>2026-05-01T13:14:33.001Z</time></trkpt><trkpt lat="40.797360710020776" lon="9.131963276226434"><ele>323.6</ele><time>2026-05-01T13:14:34.001Z</time></trkpt><trkpt lat="40.7974197667152" lon="9.132036084163392"><ele>325.0</ele><time>2026-05-01T13:14:35.001Z</time></trkpt><trkpt lat="40.797433803096276" lon="9.13213804503447"><ele>325.0</ele><time>2026-05-01T13:14:36.001Z</time></trkpt><trkpt lat="40.797464821412646" lon="9.132249029531122"><ele>325.0</ele><time>2026-05-01T13:14:37.001Z</time></trkpt><trkpt lat="40.79749420292333" lon="9.13238764053936"><ele>325.0</ele><time>2026-05-01T13:14:38.001Z</time></trkpt><trkpt lat="40.79754095656402" lon="9.132519765841836"><ele>325.0</ele><time>2026-05-01T13:14:39.001Z</time></trkpt><trkpt lat="40.79759541050101" lon="9.132659291711542"><ele>325.0</ele><time>2026-05-01T13:14:40.001Z</time></trkpt><trkpt lat="40.79762990949039" lon="9.132776243303454"><ele>327.2</ele><time>2026-05-01T13:14:41.001Z</time></trkpt><trkpt lat="40.797641560613044" lon="9.132879284613008"><ele>329.4</ele><time>2026-05-01T13:14:42.001Z</time></trkpt><trkpt lat="40.797621741716334" lon="9.132986311102725"><ele>331.6</ele><time>2026-05-01T13:14:43.001Z</time></trkpt><trkpt lat="40.79762375820809" lon="9.133128277468728"><ele>333.8</ele><time>2026-05-01T13:14:44.001Z</time></trkpt><trkpt lat="40.79765022439086" lon="9.13324614842421"><ele>336.0</ele><time>2026-05-01T13:14:45.001Z</time></trkpt><trkpt lat="40.797682300633625" lon="9.13335825355576"><ele>339.4</ele><time>2026-05-01T13:14:46.001Z</time></trkpt><trkpt lat="40.7977292694222" lon="9.13346551794846"><ele>342.8</ele><time>2026-05-01T13:14:47.001Z</time></trkpt><trkpt lat="40.797794686924505" lon="9.133556556787656"><ele>346.2</ele><time>2026-05-01T13:14:48.001Z</time></trkpt><trkpt lat="40.797852169453876" lon="9.133634335505949"><ele>349.59999999999997</ele><time>2026-05-01T13:14:49.001Z</time></trkpt><trkpt lat="40.79792474371625" lon="9.133737385996263"><ele>353.0</ele><time>2026-05-01T13:14:51.001Z</time></trkpt><trkpt lat="40.797845879893394" lon="9.133852770884088"><ele>353.0</ele><time>2026-05-01T13:14:53.001Z</time></trkpt><trkpt lat="40.797775144256626" lon="9.133947136358076"><ele>353.0</ele><time>2026-05-01T13:14:54.001Z</time></trkpt><trkpt lat="40.797703039533225" lon="9.134033783336546"><ele>353.0</ele><time>2026-05-01T13:14:55.001Z</time></trkpt><trkpt lat="40.79762691899355" lon="9.134103997986083"><ele>353.0</ele><time>2026-05-01T13:14:56.001Z</time></trkpt><trkpt lat="40.79753635533136" lon="9.134135895756904"><ele>353.0</ele><time>2026-05-01T13:14:57.001Z</time></trkpt><trkpt lat="40.79746539210001" lon="9.134193865029522"><ele>353.6666666666667</ele><time>2026-05-01T13:14:58.001Z</time></trkpt><trkpt lat="40.79740662635854" lon="9.134267836852063"><ele>354.33333333333337</ele><time>2026-05-01T13:14:59.001Z</time></trkpt><trkpt lat="40.79738785690844" lon="9.13437794005928"><ele>355.0</ele><time>2026-05-01T13:15:00.001Z</time></trkpt><trkpt lat="40.79738112711953" lon="9.134486210818276"><ele>355.6666666666667</ele><time>2026-05-01T13:15:01.001Z</time></trkpt><trkpt lat="40.79739015671079" lon="9.134594753354763"><ele>356.3333333333333</ele><time>2026-05-01T13:15:02.001Z</time></trkpt><trkpt lat="40.79738385758962" lon="9.134680413029354"><ele>357.0</ele><time>2026-05-01T13:15:03.001Z</time></trkpt><trkpt lat="40.79737534831191" lon="9.134818826299156"><ele>357.6</ele><time>2026-05-01T13:15:05.001Z</time></trkpt><trkpt lat="40.79732839740925" lon="9.134978867710279"><ele>358.20000000000005</ele><time>2026-05-01T13:15:07Z</time></trkpt><trkpt lat="40.797292655622726" lon="9.135085450828191"><ele>358.8</ele><time>2026-05-01T13:15:08Z</time></trkpt><trkpt lat="40.797258909911214" lon="9.135190503988607"><ele>359.4</ele><time>2026-05-01T13:15:09Z</time></trkpt><trkpt lat="40.79722331787918" lon="9.13531618652121"><ele>360.0</ele><time>2026-05-01T13:15:10Z</time></trkpt><trkpt lat="40.797211285025966" lon="9.135442532546309"><ele>360.0</ele><time>2026-05-01T13:15:11Z</time></trkpt><trkpt lat="40.797205432852124" lon="9.135585477679221"><ele>360.0</ele><time>2026-05-01T13:15:12Z</time></trkpt><trkpt lat="40.79719881672562" lon="9.13572449049466"><ele>360.0</ele><time>2026-05-01T13:15:13Z</time></trkpt><trkpt lat="40.797183525309556" lon="9.135853747214838"><ele>360.0</ele><time>2026-05-01T13:15:14Z</time></trkpt><trkpt lat="40.79714220389352" lon="9.135971125934459"><ele>360.0</ele><time>2026-05-01T13:15:15Z</time></trkpt><trkpt lat="40.797072271538035" lon="9.13608813167557"><ele>359.4</ele><time>2026-05-01T13:15:16Z</time></trkpt><trkpt lat="40.79709325594711" lon="9.136240738625713"><ele>358.8</ele><time>2026-05-01T13:15:17Z</time></trkpt><trkpt lat="40.79706621651473" lon="9.136381160471768"><ele>358.20000000000005</ele><time>2026-05-01T13:15:18Z</time></trkpt><trkpt lat="40.79703994458862" lon="9.136509791126345"><ele>357.6</ele><time>2026-05-01T13:15:19Z</time></trkpt><trkpt lat="40.79700629008174" lon="9.136648030368146"><ele>357.0</ele><time>2026-05-01T13:15:20Z</time></trkpt><trkpt lat="40.7969673205134" lon="9.13677813348815"><ele>356.6</ele><time>2026-05-01T13:15:21Z</time></trkpt><trkpt lat="40.79692607024034" lon="9.136899699650588"><ele>356.20000000000005</ele><time>2026-05-01T13:15:22Z</time></trkpt><trkpt lat="40.7968766606816" lon="9.137027694816574"><ele>355.8</ele><time>2026-05-01T13:15:23Z</time></trkpt><trkpt lat="40.796814460427" lon="9.137144272716062"><ele>355.4</ele><time>2026-05-01T13:15:24Z</time></trkpt><trkpt lat="40.796747293834606" lon="9.137240652143602"><ele>355.0</ele><time>2026-05-01T13:15:25Z</time></trkpt><trkpt lat="40.796676606356804" lon="9.137347422131821"><ele>351.0</ele><time>2026-05-01T13:15:26Z</time></trkpt><trkpt lat="40.79660793833382" lon="9.137455373949988"><ele>347.0</ele><time>2026-05-01T13:15:27Z</time></trkpt><trkpt lat="40.79654602798041" lon="9.137558056478532"><ele>343.0</ele><time>2026-05-01T13:15:28Z</time></trkpt><trkpt lat="40.79655574957687" lon="9.137696298020442"><ele>339.0</ele><time>2026-05-01T13:15:29Z</time></trkpt><trkpt lat="40.79656323152852" lon="9.13781739355418"><ele>335.0</ele><time>2026-05-01T13:15:30Z</time></trkpt><trkpt lat="40.79658980415593" lon="9.137978680140886"><ele>335.0</ele><time>2026-05-01T13:15:31Z</time></trkpt><trkpt lat="40.796608738749704" lon="9.138162447298535"><ele>335.0</ele><time>2026-05-01T13:15:32Z</time></trkpt><trkpt lat="40.79662990993959" lon="9.138326508148443"><ele>335.0</ele><time>2026-05-01T13:15:33Z</time></trkpt><trkpt lat="40.79664274263615" lon="9.1384719757078"><ele>335.0</ele><time>2026-05-01T13:15:34Z</time></trkpt><trkpt lat="40.79665558164801" lon="9.138591946537888"><ele>334.33333333333337</ele><time>2026-05-01T13:15:35Z</time></trkpt><trkpt lat="40.79665563847234" lon="9.138686570933029"><ele>333.6666666666667</ele><time>2026-05-01T13:15:36Z</time></trkpt><trkpt lat="40.79666726598009" lon="9.138776407956183"><ele>333.0</ele><time>2026-05-01T13:15:37Z</time></trkpt><trkpt lat="40.796649041702366" lon="9.138878825190691"><ele>332.3333333333333</ele><time>2026-05-01T13:15:38Z</time></trkpt><trkpt lat="40.79665287609521" lon="9.138976829603523"><ele>331.66666666666663</ele><time>2026-05-01T13:15:39Z</time></trkpt><trkpt lat="40.79666931653998" lon="9.13908367966552"><ele>331.0</ele><time>2026-05-01T13:15:40Z</time></trkpt><trkpt lat="40.79674469044141" lon="9.139173797654017"><ele>330.6</ele><time>2026-05-01T13:15:41Z</time></trkpt><trkpt lat="40.79681056422214" lon="9.139301625013672"><ele>330.20000000000005</ele><time>2026-05-01T13:15:42Z</time></trkpt><trkpt lat="40.79681278703074" lon="9.13944116663593"><ele>329.79999999999995</ele><time>2026-05-01T13:15:43Z</time></trkpt><trkpt lat="40.79679060266469" lon="9.139553537470594"><ele>329.4</ele><time>2026-05-01T13:15:44Z</time></trkpt><trkpt lat="40.79675608090382" lon="9.139655758425317"><ele>329.0</ele><time>2026-05-01T13:15:45Z</time></trkpt><trkpt lat="40.79670321296416" lon="9.139759982880602"><ele>329.0</ele><time>2026-05-01T13:15:46Z</time></trkpt><trkpt lat="40.79664999476118" lon="9.139874025497239"><ele>329.0</ele><time>2026-05-01T13:15:47Z</time></trkpt><trkpt lat="40.79660310908081" lon="9.13998640051003"><ele>329.0</ele><time>2026-05-01T13:15:48Z</time></trkpt><trkpt lat="40.79659220403079" lon="9.14011481497086"><ele>329.0</ele><time>2026-05-01T13:15:49Z</time></trkpt><trkpt lat="40.79654892544124" lon="9.140216708151115"><ele>329.0</ele><time>2026-05-01T13:15:50Z</time></trkpt><trkpt lat="40.79650178921693" lon="9.140295839445896"><ele>329.2</ele><time>2026-05-01T13:15:51Z</time></trkpt><trkpt lat="40.79646098409538" lon="9.140406386419773"><ele>329.4</ele><time>2026-05-01T13:15:52Z</time></trkpt><trkpt lat="40.79636765010659" lon="9.140433349960526"><ele>329.6</ele><time>2026-05-01T13:15:53Z</time></trkpt><trkpt lat="40.79629585602579" lon="9.140474244421116"><ele>329.8</ele><time>2026-05-01T13:15:54Z</time></trkpt><trkpt lat="40.796176432283076" lon="9.140442134734618"><ele>330.0</ele><time>2026-05-01T13:15:56Z</time></trkpt><trkpt lat="40.79608663859448" lon="9.14040657970632"><ele>329.6</ele><time>2026-05-01T13:15:58Z</time></trkpt><trkpt lat="40.79594700331984" lon="9.140380880443278"><ele>329.2</ele><time>2026-05-01T13:16:00Z</time></trkpt><trkpt lat="40.79584143760421" lon="9.140382659087638"><ele>328.79999999999995</ele><time>2026-05-01T13:16:01Z</time></trkpt><trkpt lat="40.79574458914798" lon="9.140467298664516"><ele>328.4</ele><time>2026-05-01T13:16:02.001Z</time></trkpt><trkpt lat="40.79568470441341" lon="9.140548667740198"><ele>328.0</ele><time>2026-05-01T13:16:03.001Z</time></trkpt><trkpt lat="40.79564776839074" lon="9.140662246695568"><ele>331.0</ele><time>2026-05-01T13:16:04.001Z</time></trkpt><trkpt lat="40.79562964283734" lon="9.140808194058682"><ele>334.0</ele><time>2026-05-01T13:16:05.001Z</time></trkpt><trkpt lat="40.79564705808348" lon="9.140968020401678"><ele>337.0</ele><time>2026-05-01T13:16:06.001Z</time></trkpt><trkpt lat="40.79564684171882" lon="9.141118685151806"><ele>340.0</ele><time>2026-05-01T13:16:07.001Z</time></trkpt><trkpt lat="40.79561195865179" lon="9.141255026917351"><ele>340.0</ele><time>2026-05-01T13:16:08.001Z</time></trkpt><trkpt lat="40.79559506776136" lon="9.141386153282967"><ele>340.0</ele><time>2026-05-01T13:16:09.001Z</time></trkpt><trkpt lat="40.79556473032795" lon="9.141597047214002"><ele>340.0</ele><time>2026-05-01T13:16:10.001Z</time></trkpt><trkpt lat="40.795528111889425" lon="9.141805363769695"><ele>340.0</ele><time>2026-05-01T13:16:11.001Z</time></trkpt><trkpt lat="40.79549464607286" lon="9.141967200171669"><ele>343.25</ele><time>2026-05-01T13:16:12.001Z</time></trkpt><trkpt lat="40.795452551410776" lon="9.142112886912766"><ele>346.5</ele><time>2026-05-01T13:16:13.001Z</time></trkpt><trkpt lat="40.79544209537665" lon="9.142282762442237"><ele>349.75</ele><time>2026-05-01T13:16:14.001Z</time></trkpt><trkpt lat="40.79539371225018" lon="9.142409449641422"><ele>353.0</ele><time>2026-05-01T13:16:15.001Z</time></trkpt><trkpt lat="40.795334036511676" lon="9.142514843170174"><ele>355.75</ele><time>2026-05-01T13:16:16.001Z</time></trkpt><trkpt lat="40.79525818878772" lon="9.142623222279369"><ele>358.5</ele><time>2026-05-01T13:16:17.001Z</time></trkpt><trkpt lat="40.79522781797366" lon="9.142769428786412"><ele>361.25</ele><time>2026-05-01T13:16:18.001Z</time></trkpt><trkpt lat="40.79516812248136" lon="9.142920187422579"><ele>364.0</ele><time>2026-05-01T13:16:19.001Z</time></trkpt><trkpt lat="40.795112310714096" lon="9.143060884470053"><ele>364.0</ele><time>2026-05-01T13:16:20.001Z</time></trkpt><trkpt lat="40.79506926308278" lon="9.143173778729405"><ele>364.0</ele><time>2026-05-01T13:16:21.001Z</time></trkpt><trkpt lat="40.795035295867024" lon="9.143257222365419"><ele>364.0</ele><time>2026-05-01T13:16:22.001Z</time></trkpt><trkpt lat="40.79498968019325" lon="9.143352242123397"><ele>364.0</ele><time>2026-05-01T13:16:23.001Z</time></trkpt><trkpt lat="40.79493610317486" lon="9.143449050990176"><ele>364.0</ele><time>2026-05-01T13:16:24.001Z</time></trkpt><trkpt lat="40.79487967647597" lon="9.143552893536203"><ele>364.0</ele><time>2026-05-01T13:16:25.001Z</time></trkpt><trkpt lat="40.794819202499994" lon="9.143662247560705"><ele>363.4</ele><time>2026-05-01T13:16:26.001Z</time></trkpt><trkpt lat="40.79475799521558" lon="9.143769469938567"><ele>362.79999999999995</ele><time>2026-05-01T13:16:27.001Z</time></trkpt><trkpt lat="40.79469708548891" lon="9.143872814243664"><ele>362.20000000000005</ele><time>2026-05-01T13:16:28.001Z</time></trkpt><trkpt lat="40.79463495788987" lon="9.143973176039266"><ele>361.6</ele><time>2026-05-01T13:16:29.001Z</time></trkpt><trkpt lat="40.79456036912958" lon="9.144050461853583"><ele>361.0</ele><time>2026-05-01T13:16:30.001Z</time></trkpt><trkpt lat="40.79447925579323" lon="9.144144141639165"><ele>359.75</ele><time>2026-05-01T13:16:31.001Z</time></trkpt><trkpt lat="40.794402235842256" lon="9.144239329167474"><ele>358.5</ele><time>2026-05-01T13:16:32.001Z</time></trkpt><trkpt lat="40.79431761985288" lon="9.144330983328851"><ele>357.25</ele><time>2026-05-01T13:16:33.001Z</time></trkpt><trkpt lat="40.79422463288054" lon="9.144413822850055"><ele>356.0</ele><time>2026-05-01T13:16:34.001Z</time></trkpt><trkpt lat="40.794122242506035" lon="9.144504272865968"><ele>351.25</ele><time>2026-05-01T13:16:35.001Z</time></trkpt><trkpt lat="40.7940212671642" lon="9.144600312573436"><ele>346.5</ele><time>2026-05-01T13:16:36.001Z</time></trkpt><trkpt lat="40.79393829393635" lon="9.144711776032258"><ele>341.75</ele><time>2026-05-01T13:16:37.001Z</time></trkpt><trkpt lat="40.79383561481126" lon="9.144771237982445"><ele>337.0</ele><time>2026-05-01T13:16:38.001Z</time></trkpt><trkpt lat="40.7937442572334" lon="9.144826058297308"><ele>335.8</ele><time>2026-05-01T13:16:39.001Z</time></trkpt><trkpt lat="40.793675608747265" lon="9.144893863611811"><ele>334.6</ele><time>2026-05-01T13:16:40.001Z</time></trkpt><trkpt lat="40.793619831932816" lon="9.14499238230423"><ele>333.40000000000003</ele><time>2026-05-01T13:16:41.001Z</time></trkpt><trkpt lat="40.79359538588482" lon="9.145122867729256"><ele>332.20000000000005</ele><time>2026-05-01T13:16:42.001Z</time></trkpt><trkpt lat="40.79353449021908" lon="9.145255021218077"><ele>331.0</ele><time>2026-05-01T13:16:43.001Z</time></trkpt><trkpt lat="40.793488557450914" lon="9.145385363606543"><ele>329.4</ele><time>2026-05-01T13:16:44.001Z</time></trkpt><trkpt lat="40.79343809097337" lon="9.145513755982412"><ele>327.8</ele><time>2026-05-01T13:16:45.001Z</time></trkpt><trkpt lat="40.793389200359584" lon="9.145635425205812"><ele>326.2</ele><time>2026-05-01T13:16:46.001Z</time></trkpt><trkpt lat="40.793336919572724" lon="9.145709897590617"><ele>324.59999999999997</ele><time>2026-05-01T13:16:47.001Z</time></trkpt><trkpt lat="40.7932439240647" lon="9.145774127658772"><ele>323.0</ele><time>2026-05-01T13:16:48.001Z</time></trkpt><trkpt lat="40.793150304248" lon="9.145893738920222"><ele>322.0</ele><time>2026-05-01T13:16:49.001Z</time></trkpt><trkpt lat="40.793097397001965" lon="9.146008620759215"><ele>321.0</ele><time>2026-05-01T13:16:50.001Z</time></trkpt><trkpt lat="40.79307195082823" lon="9.146146764273409"><ele>320.0</ele><time>2026-05-01T13:16:51.001Z</time></trkpt><trkpt lat="40.79300630232066" lon="9.146296375487227"><ele>319.0</ele><time>2026-05-01T13:16:52.001Z</time></trkpt><trkpt lat="40.79296325185211" lon="9.146461947288765"><ele>320.5</ele><time>2026-05-01T13:16:53.001Z</time></trkpt><trkpt lat="40.79297813059115" lon="9.146630141095143"><ele>322.0</ele><time>2026-05-01T13:16:54.001Z</time></trkpt><trkpt lat="40.79299162816393" lon="9.146803120634676"><ele>323.5</ele><time>2026-05-01T13:16:55.001Z</time></trkpt><trkpt lat="40.79297370038248" lon="9.146969771829456"><ele>325.0</ele><time>2026-05-01T13:16:56.001Z</time></trkpt><trkpt lat="40.79296199661784" lon="9.147131809347572"><ele>325.0</ele><time>2026-05-01T13:16:57.001Z</time></trkpt><trkpt lat="40.792939007507776" lon="9.147286832876214"><ele>325.0</ele><time>2026-05-01T13:16:58.001Z</time></trkpt><trkpt lat="40.7928944101768" lon="9.14741663765403"><ele>325.0</ele><time>2026-05-01T13:16:59.001Z</time></trkpt><trkpt lat="40.79284342485396" lon="9.147522954003334"><ele>325.0</ele><time>2026-05-01T13:17:00.001Z</time></trkpt><trkpt lat="40.79274631918119" lon="9.147559496006552"><ele>325.0</ele><time>2026-05-01T13:17:01.001Z</time></trkpt><trkpt lat="40.79264851090848" lon="9.147656196311454"><ele>324.75</ele><time>2026-05-01T13:17:02.001Z</time></trkpt><trkpt lat="40.79256860224554" lon="9.147767652644484"><ele>324.5</ele><time>2026-05-01T13:17:03.001Z</time></trkpt><trkpt lat="40.792553440344626" lon="9.147915759735975"><ele>324.25</ele><time>2026-05-01T13:17:04.001Z</time></trkpt><trkpt lat="40.79253644218346" lon="9.148074952421519"><ele>324.0</ele><time>2026-05-01T13:17:05.001Z</time></trkpt><trkpt lat="40.7924845740238" lon="9.148194637525078"><ele>329.0</ele><time>2026-05-01T13:17:06.001Z</time></trkpt><trkpt lat="40.79241360790421" lon="9.148260817920743"><ele>334.0</ele><time>2026-05-01T13:17:07.001Z</time></trkpt><trkpt lat="40.79229848247122" lon="9.148293600056427"><ele>339.0</ele><time>2026-05-01T13:17:08.001Z</time></trkpt><trkpt lat="40.792171996768836" lon="9.14836307183765"><ele>344.0</ele><time>2026-05-01T13:17:09.001Z</time></trkpt><trkpt lat="40.792074002263945" lon="9.148467416542013"><ele>344.0</ele><time>2026-05-01T13:17:10.001Z</time></trkpt><trkpt lat="40.79197351112056" lon="9.148542243150782"><ele>344.0</ele><time>2026-05-01T13:17:11.001Z</time></trkpt><trkpt lat="40.79188179125696" lon="9.148621093021733"><ele>344.0</ele><time>2026-05-01T13:17:12.001Z</time></trkpt><trkpt lat="40.791778850290214" lon="9.148670727704955"><ele>344.0</ele><time>2026-05-01T13:17:13.001Z</time></trkpt><trkpt lat="40.79165023433979" lon="9.148642662513558"><ele>342.0</ele><time>2026-05-01T13:17:14.001Z</time></trkpt><trkpt lat="40.79152387284546" lon="9.148664272129293"><ele>340.0</ele><time>2026-05-01T13:17:15.001Z</time></trkpt><trkpt lat="40.79140692906283" lon="9.14870508355425"><ele>338.0</ele><time>2026-05-01T13:17:16.001Z</time></trkpt><trkpt lat="40.79130914882013" lon="9.14878924561522"><ele>336.0</ele><time>2026-05-01T13:17:17.001Z</time></trkpt><trkpt lat="40.79121634151052" lon="9.148882138306808"><ele>336.0</ele><time>2026-05-01T13:17:18.001Z</time></trkpt><trkpt lat="40.79113015083039" lon="9.149001701768036"><ele>336.0</ele><time>2026-05-01T13:17:19.001Z</time></trkpt><trkpt lat="40.7910529667068" lon="9.149128103206506"><ele>336.0</ele><time>2026-05-01T13:17:20.001Z</time></trkpt><trkpt lat="40.790958628403295" lon="9.149227926060103"><ele>336.0</ele><time>2026-05-01T13:17:21.001Z</time></trkpt><trkpt lat="40.7908743520492" lon="9.149325447456366"><ele>339.20000000000005</ele><time>2026-05-01T13:17:22.001Z</time></trkpt><trkpt lat="40.79079282399503" lon="9.149420762195843"><ele>342.40000000000003</ele><time>2026-05-01T13:17:23.001Z</time></trkpt><trkpt lat="40.79070737033754" lon="9.149504896237039"><ele>345.6</ele><time>2026-05-01T13:17:24.001Z</time></trkpt><trkpt lat="40.79061545398151" lon="9.149562297580186"><ele>348.8</ele><time>2026-05-01T13:17:25.001Z</time></trkpt><trkpt lat="40.79051406082923" lon="9.149616959374741"><ele>352.0</ele><time>2026-05-01T13:17:26.001Z</time></trkpt><trkpt lat="40.79041189558799" lon="9.14967459630509"><ele>352.0</ele><time>2026-05-01T13:17:27.001Z</time></trkpt><trkpt lat="40.790312271013846" lon="9.149749472177692"><ele>352.0</ele><time>2026-05-01T13:17:28.001Z</time></trkpt><trkpt lat="40.790231392921875" lon="9.149830659106268"><ele>352.0</ele><time>2026-05-01T13:17:29.001Z</time></trkpt><trkpt lat="40.79018039801499" lon="9.149932411841334"><ele>352.0</ele><time>2026-05-01T13:17:30.001Z</time></trkpt><trkpt lat="40.790127564955796" lon="9.150005755289747"><ele>352.0</ele><time>2026-05-01T13:17:31.001Z</time></trkpt><trkpt lat="40.79005883653121" lon="9.150091925480275"><ele>354.20000000000005</ele><time>2026-05-01T13:17:32.001Z</time></trkpt><trkpt lat="40.78998440582547" lon="9.150183867241378"><ele>356.4</ele><time>2026-05-01T13:17:33.001Z</time></trkpt><trkpt lat="40.78990730144456" lon="9.1502918128505"><ele>358.6</ele><time>2026-05-01T13:17:34.001Z</time></trkpt><trkpt lat="40.78983167802476" lon="9.150411673777"><ele>360.79999999999995</ele><time>2026-05-01T13:17:35.001Z</time></trkpt><trkpt lat="40.78978202880315" lon="9.150526601925195"><ele>363.0</ele><time>2026-05-01T13:17:36.001Z</time></trkpt><trkpt lat="40.789738451517984" lon="9.150609261716795"><ele>365.5</ele><time>2026-05-01T13:17:37.001Z</time></trkpt><trkpt lat="40.78963426462016" lon="9.15078218783404"><ele>368.0</ele><time>2026-05-01T13:17:39.001Z</time></trkpt><trkpt lat="40.78960008934585" lon="9.150934925509576"><ele>370.5</ele><time>2026-05-01T13:17:40.001Z</time></trkpt><trkpt lat="40.78953131116223" lon="9.151081962104106"><ele>373.0</ele><time>2026-05-01T13:17:41.001Z</time></trkpt><trkpt lat="40.78948567868858" lon="9.1512483698616"><ele>373.0</ele><time>2026-05-01T13:17:42.001Z</time></trkpt><trkpt lat="40.789451712284404" lon="9.151399807129549"><ele>373.0</ele><time>2026-05-01T13:17:43.001Z</time></trkpt><trkpt lat="40.789408943899375" lon="9.151531901450415"><ele>373.0</ele><time>2026-05-01T13:17:44.001Z</time></trkpt><trkpt lat="40.78938287631011" lon="9.151679998084493"><ele>373.0</ele><time>2026-05-01T13:17:45.001Z</time></trkpt><trkpt lat="40.7893174421971" lon="9.151810525561228"><ele>366.75</ele><time>2026-05-01T13:17:46.001Z</time></trkpt><trkpt lat="40.78925518517929" lon="9.151942995958905"><ele>360.5</ele><time>2026-05-01T13:17:47.001Z</time></trkpt><trkpt lat="40.78919826229545" lon="9.152081607250315"><ele>354.25</ele><time>2026-05-01T13:17:48.001Z</time></trkpt><trkpt lat="40.78911724745168" lon="9.152195456901811"><ele>348.0</ele><time>2026-05-01T13:17:49.001Z</time></trkpt><trkpt lat="40.78904774967224" lon="9.152314520942227"><ele>349.5</ele><time>2026-05-01T13:17:50.001Z</time></trkpt><trkpt lat="40.78898210466285" lon="9.15245228685304"><ele>351.0</ele><time>2026-05-01T13:17:51.001Z</time></trkpt><trkpt lat="40.78893223835924" lon="9.152611288529178"><ele>352.5</ele><time>2026-05-01T13:17:52.001Z</time></trkpt><trkpt lat="40.788897624676125" lon="9.152780094087232"><ele>354.0</ele><time>2026-05-01T13:17:53.001Z</time></trkpt><trkpt lat="40.78888476792365" lon="9.152945224583844"><ele>354.0</ele><time>2026-05-01T13:17:54.001Z</time></trkpt><trkpt lat="40.78884516285338" lon="9.153076669221006"><ele>354.0</ele><time>2026-05-01T13:17:55.001Z</time></trkpt><trkpt lat="40.78876279463963" lon="9.153194260729366"><ele>354.0</ele><time>2026-05-01T13:17:56.001Z</time></trkpt><trkpt lat="40.78867571016977" lon="9.15326777691498"><ele>354.0</ele><time>2026-05-01T13:17:57.001Z</time></trkpt><trkpt lat="40.78856460540508" lon="9.153344181682753"><ele>350.0</ele><time>2026-05-01T13:17:58.001Z</time></trkpt><trkpt lat="40.78843993363824" lon="9.153407856103813"><ele>346.0</ele><time>2026-05-01T13:17:59.001Z</time></trkpt><trkpt lat="40.788319224562876" lon="9.15347650428161"><ele>342.0</ele><time>2026-05-01T13:18:00.001Z</time></trkpt><trkpt lat="40.78821845617428" lon="9.153555153347337"><ele>338.0</ele><time>2026-05-01T13:18:01.001Z</time></trkpt><trkpt lat="40.78813359862745" lon="9.153638073713989"><ele>338.0</ele><time>2026-05-01T13:18:02.001Z</time></trkpt><trkpt lat="40.78804021992398" lon="9.153724632387808"><ele>338.0</ele><time>2026-05-01T13:18:03.001Z</time></trkpt><trkpt lat="40.78792116730702" lon="9.153793080555612"><ele>338.0</ele><time>2026-05-01T13:18:04.001Z</time></trkpt><trkpt lat="40.78779527459044" lon="9.153883528787455"><ele>338.0</ele><time>2026-05-01T13:18:05.001Z</time></trkpt><trkpt lat="40.78766714196348" lon="9.153981464811324"><ele>338.5</ele><time>2026-05-01T13:18:06.001Z</time></trkpt><trkpt lat="40.787539608841016" lon="9.154084963056677"><ele>339.0</ele><time>2026-05-01T13:18:07.001Z</time></trkpt><trkpt lat="40.78743235858195" lon="9.154181288448715"><ele>339.5</ele><time>2026-05-01T13:18:08.001Z</time></trkpt><trkpt lat="40.78730373463489" lon="9.154165785982345"><ele>340.0</ele><time>2026-05-01T13:18:09.001Z</time></trkpt><trkpt lat="40.78719328754566" lon="9.154215062553707"><ele>340.0</ele><time>2026-05-01T13:18:10.001Z</time></trkpt><trkpt lat="40.787096872603215" lon="9.154286023554482"><ele>340.0</ele><time>2026-05-01T13:18:11.001Z</time></trkpt><trkpt lat="40.787008613283966" lon="9.154392638841061"><ele>340.0</ele><time>2026-05-01T13:18:12.001Z</time></trkpt><trkpt lat="40.786920371668494" lon="9.154500873224453"><ele>340.0</ele><time>2026-05-01T13:18:13.001Z</time></trkpt><trkpt lat="40.78682472951727" lon="9.154615274970464"><ele>339.0</ele><time>2026-05-01T13:18:14.001Z</time></trkpt><trkpt lat="40.78672595593846" lon="9.154729683500205"><ele>338.0</ele><time>2026-05-01T13:18:15.001Z</time></trkpt><trkpt lat="40.78663457962489" lon="9.154834540675497"><ele>337.0</ele><time>2026-05-01T13:18:16.001Z</time></trkpt><trkpt lat="40.78655100269095" lon="9.1549341421633"><ele>336.0</ele><time>2026-05-01T13:18:17.001Z</time></trkpt><trkpt lat="40.78647101293783" lon="9.155021033871284"><ele>336.0</ele><time>2026-05-01T13:18:18.001Z</time></trkpt><trkpt lat="40.78639636208655" lon="9.155105319113781"><ele>336.0</ele><time>2026-05-01T13:18:19.001Z</time></trkpt><trkpt lat="40.78633216656357" lon="9.155186099956039"><ele>336.0</ele><time>2026-05-01T13:18:20.001Z</time></trkpt><trkpt lat="40.78627273471984" lon="9.15526962773729"><ele>336.0</ele><time>2026-05-01T13:18:21.001Z</time></trkpt><trkpt lat="40.78622047531195" lon="9.155358628477973"><ele>336.0</ele><time>2026-05-01T13:18:22.001Z</time></trkpt><trkpt lat="40.78617767441078" lon="9.155443156447108"><ele>336.0</ele><time>2026-05-01T13:18:23.001Z</time></trkpt><trkpt lat="40.78614219073238" lon="9.155516700512093"><ele>336.0</ele><time>2026-05-01T13:18:25.001Z</time></trkpt><trkpt lat="40.786115597670786" lon="9.155594146807772"><ele>336.0</ele><time>2026-05-01T13:18:51.001Z</time></trkpt><trkpt lat="40.786078221358714" lon="9.155735016143051"><ele>336.0</ele><time>2026-05-01T13:18:53.001Z</time></trkpt><trkpt lat="40.786050725768476" lon="9.155841169331321"><ele>336.0</ele><time>2026-05-01T13:18:54.001Z</time></trkpt><trkpt lat="40.78601707513098" lon="9.155967956189153"><ele>336.0</ele><time>2026-05-01T13:18:55.001Z</time></trkpt><trkpt lat="40.78596798328015" lon="9.156120504162773"><ele>333.6666666666667</ele><time>2026-05-01T13:18:56.001Z</time></trkpt><trkpt lat="40.78589140898149" lon="9.156321518528491"><ele>331.33333333333337</ele><time>2026-05-01T13:18:57.001Z</time></trkpt><trkpt lat="40.78582293977108" lon="9.156564971085565"><ele>329.0</ele><time>2026-05-01T13:18:58.001Z</time></trkpt><trkpt lat="40.78573138459928" lon="9.156784579231319"><ele>329.0</ele><time>2026-05-01T13:18:59.001Z</time></trkpt><trkpt lat="40.785673775326686" lon="9.15698713857694"><ele>329.0</ele><time>2026-05-01T13:19:00.001Z</time></trkpt><trkpt lat="40.78561801022246" lon="9.157174152650459"><ele>329.0</ele><time>2026-05-01T13:19:01.001Z</time></trkpt><trkpt lat="40.785589707503966" lon="9.157398522161126"><ele>333.0</ele><time>2026-05-01T13:19:02.001Z</time></trkpt><trkpt lat="40.78558047480529" lon="9.15764432264911"><ele>337.0</ele><time>2026-05-01T13:19:03.001Z</time></trkpt><trkpt lat="40.785586709626436" lon="9.157888046147885"><ele>341.0</ele><time>2026-05-01T13:19:04.001Z</time></trkpt><trkpt lat="40.78560286601946" lon="9.15809529129624"><ele>340.6666666666667</ele><time>2026-05-01T13:19:05.001Z</time></trkpt><trkpt lat="40.78561870775874" lon="9.158237132629019"><ele>340.3333333333333</ele><time>2026-05-01T13:19:06.001Z</time></trkpt><trkpt lat="40.7856634203243" lon="9.158536039313601"><ele>340.0</ele><time>2026-05-01T13:19:08.001Z</time></trkpt><trkpt lat="40.78570114132526" lon="9.15870195458503"><ele>340.0</ele><time>2026-05-01T13:19:09.001Z</time></trkpt><trkpt lat="40.78574814760114" lon="9.158856143494898"><ele>340.0</ele><time>2026-05-01T13:19:10.001Z</time></trkpt><trkpt lat="40.785814948643846" lon="9.159007240997129"><ele>340.0</ele><time>2026-05-01T13:19:11.001Z</time></trkpt><trkpt lat="40.7858871757931" lon="9.15913897805388"><ele>340.0</ele><time>2026-05-01T13:19:12.001Z</time></trkpt><trkpt lat="40.785943382525474" lon="9.15927542569487"><ele>338.0</ele><time>2026-05-01T13:19:13.001Z</time></trkpt><trkpt lat="40.7859887472815" lon="9.159428008567511"><ele>336.0</ele><time>2026-05-01T13:19:14.001Z</time></trkpt><trkpt lat="40.78604518767141" lon="9.15958104630184"><ele>334.0</ele><time>2026-05-01T13:19:15.001Z</time></trkpt><trkpt lat="40.78611276931542" lon="9.159738179466341"><ele>332.0</ele><time>2026-05-01T13:19:16.001Z</time></trkpt><trkpt lat="40.78615860166977" lon="9.159894626873132"><ele>332.0</ele><time>2026-05-01T13:19:17.001Z</time></trkpt><trkpt lat="40.786185688863924" lon="9.160057639144643"><ele>332.0</ele><time>2026-05-01T13:19:18.001Z</time></trkpt><trkpt lat="40.78621114448793" lon="9.160211973531787"><ele>332.0</ele><time>2026-05-01T13:19:19.001Z</time></trkpt><trkpt lat="40.78625526771205" lon="9.160351669219994"><ele>332.0</ele><time>2026-05-01T13:19:20.001Z</time></trkpt><trkpt lat="40.78632147662041" lon="9.160492245484757"><ele>332.0</ele><time>2026-05-01T13:19:21.001Z</time></trkpt><trkpt lat="40.78639664088835" lon="9.160637618559473"><ele>332.0</ele><time>2026-05-01T13:19:22.001Z</time></trkpt><trkpt lat="40.786459329187345" lon="9.160765684792553"><ele>332.0</ele><time>2026-05-01T13:19:23.001Z</time></trkpt><trkpt lat="40.78651288548663" lon="9.160911407689772"><ele>332.0</ele><time>2026-05-01T13:19:24.001Z</time></trkpt><trkpt lat="40.78653021569795" lon="9.161062672996248"><ele>328.40000000000003</ele><time>2026-05-01T13:19:25.001Z</time></trkpt><trkpt lat="40.78655231124609" lon="9.161204499488411"><ele>324.8</ele><time>2026-05-01T13:19:26.001Z</time></trkpt><trkpt lat="40.78661912118482" lon="9.161331342311234"><ele>321.2</ele><time>2026-05-01T13:19:27.001Z</time></trkpt><trkpt lat="40.78666065297725" lon="9.16145553954528"><ele>317.6</ele><time>2026-05-01T13:19:28.001Z</time></trkpt><trkpt lat="40.78667382619505" lon="9.16159690377784"><ele>314.0</ele><time>2026-05-01T13:19:29.001Z</time></trkpt><trkpt lat="40.78663217705046" lon="9.16174939491379"><ele>310.8</ele><time>2026-05-01T13:19:30.001Z</time></trkpt><trkpt lat="40.78663412983811" lon="9.161884456420092"><ele>307.59999999999997</ele><time>2026-05-01T13:19:31.001Z</time></trkpt><trkpt lat="40.78662058271023" lon="9.162003470128223"><ele>304.4</ele><time>2026-05-01T13:19:32.001Z</time></trkpt><trkpt lat="40.786636581251" lon="9.162123892538624"><ele>301.2</ele><time>2026-05-01T13:19:33.001Z</time></trkpt><trkpt lat="40.7866533877451" lon="9.162228937066146"><ele>298.0</ele><time>2026-05-01T13:19:34.001Z</time></trkpt><trkpt lat="40.78667592410733" lon="9.162335907351657"><ele>298.6</ele><time>2026-05-01T13:19:35.001Z</time></trkpt><trkpt lat="40.78672442170426" lon="9.162427346451294"><ele>299.20000000000005</ele><time>2026-05-01T13:19:36.001Z</time></trkpt><trkpt lat="40.786763557401095" lon="9.16255004775671"><ele>299.8</ele><time>2026-05-01T13:19:37.001Z</time></trkpt><trkpt lat="40.786814430534626" lon="9.162690421683639"><ele>300.40000000000003</ele><time>2026-05-01T13:19:38.001Z</time></trkpt><trkpt lat="40.78686244367436" lon="9.162816083903474"><ele>301.0</ele><time>2026-05-01T13:19:39.001Z</time></trkpt><trkpt lat="40.786902009566205" lon="9.162915635208597"><ele>301.0</ele><time>2026-05-01T13:19:40.001Z</time></trkpt><trkpt lat="40.78693357625551" lon="9.162988601661123"><ele>301.0</ele><time>2026-05-01T13:19:41.001Z</time></trkpt><trkpt lat="40.78695351181506" lon="9.163109586986758"><ele>301.0</ele><time>2026-05-01T13:19:43.001Z</time></trkpt><trkpt lat="40.78683670799243" lon="9.163102846168083"><ele>301.0</ele><time>2026-05-01T13:19:45.001Z</time></trkpt><trkpt lat="40.78675519522259" lon="9.163139364355079"><ele>301.0</ele><time>2026-05-01T13:19:46.001Z</time></trkpt><trkpt lat="40.786664125223325" lon="9.163181045607898"><ele>298.8</ele><time>2026-05-01T13:19:47.001Z</time></trkpt><trkpt lat="40.78658965222961" lon="9.163209479134121"><ele>296.6</ele><time>2026-05-01T13:19:48.001Z</time></trkpt><trkpt lat="40.78655665725309" lon="9.163358757041605"><ele>294.4</ele><time>2026-05-01T13:19:52.001Z</time></trkpt><trkpt lat="40.78658609903607" lon="9.163461552142781"><ele>292.2</ele><time>2026-05-01T13:19:53.001Z</time></trkpt><trkpt lat="40.78662178487758" lon="9.163572902281123"><ele>290.0</ele><time>2026-05-01T13:19:54.001Z</time></trkpt><trkpt lat="40.78662913384972" lon="9.163691062916353"><ele>290.0</ele><time>2026-05-01T13:19:55.001Z</time></trkpt><trkpt lat="40.78664339274611" lon="9.16379621951332"><ele>290.0</ele><time>2026-05-01T13:19:56.001Z</time></trkpt><trkpt lat="40.78665215884917" lon="9.16392614114602"><ele>290.0</ele><time>2026-05-01T13:19:58.001Z</time></trkpt><trkpt lat="40.786593722309114" lon="9.163989186606926"><ele>290.0</ele><time>2026-05-01T13:19:59.001Z</time></trkpt><trkpt lat="40.786535547713385" lon="9.164055172661689"><ele>290.0</ele><time>2026-05-01T13:20:00.001Z</time></trkpt><trkpt lat="40.786427460044855" lon="9.164130013741486"><ele>289.1666666666667</ele><time>2026-05-01T13:20:02.001Z</time></trkpt><trkpt lat="40.78635356222596" lon="9.164146093975369"><ele>288.33333333333337</ele><time>2026-05-01T13:20:03.001Z</time></trkpt><trkpt lat="40.78627441098799" lon="9.164169645367908"><ele>287.5</ele><time>2026-05-01T13:20:04.001Z</time></trkpt><trkpt lat="40.78620421796263" lon="9.164188145543063"><ele>286.6666666666667</ele><time>2026-05-01T13:20:05.001Z</time></trkpt><trkpt lat="40.78609994014395" lon="9.16421478144659"><ele>285.8333333333333</ele><time>2026-05-01T13:20:07.001Z</time></trkpt><trkpt lat="40.78603176667158" lon="9.16423723649371"><ele>285.0</ele><time>2026-05-01T13:20:08.001Z</time></trkpt><trkpt lat="40.78596762851465" lon="9.164259941669046"><ele>285.0</ele><time>2026-05-01T13:20:09.001Z</time></trkpt><trkpt lat="40.78587625643178" lon="9.164306454078407"><ele>285.0</ele><time>2026-05-01T13:20:11.001Z</time></trkpt><trkpt lat="40.78578922102728" lon="9.16438417418736"><ele>285.0</ele><time>2026-05-01T13:20:13.001Z</time></trkpt><trkpt lat="40.78574350156114" lon="9.164451688591571"><ele>285.0</ele><time>2026-05-01T13:20:14.001Z</time></trkpt><trkpt lat="40.78569319184343" lon="9.164511428917363"><ele>285.0</ele><time>2026-05-01T13:20:15.001Z</time></trkpt><trkpt lat="40.78565627352819" lon="9.164593820787738"><ele>285.0</ele><time>2026-05-01T13:20:16.001Z</time></trkpt><trkpt lat="40.7856219950334" lon="9.164680528922808"><ele>285.0</ele><time>2026-05-01T13:20:17.001Z</time></trkpt><trkpt lat="40.78559017666971" lon="9.164762766120004"><ele>285.0</ele><time>2026-05-01T13:20:18.001Z</time></trkpt><trkpt lat="40.785559462398126" lon="9.164842143330313"><ele>285.0</ele><time>2026-05-01T13:20:19.001Z</time></trkpt><trkpt lat="40.78552762298156" lon="9.164922070734203"><ele>285.0</ele><time>2026-05-01T13:20:20.001Z</time></trkpt><trkpt lat="40.78549646589343" lon="9.165000285277282"><ele>285.0</ele><time>2026-05-01T13:20:21.001Z</time></trkpt><trkpt lat="40.785465067365784" lon="9.165075559358062"><ele>285.0</ele><time>2026-05-01T13:20:22.001Z</time></trkpt><trkpt lat="40.78540168491746" lon="9.165224845921983"><ele>285.85714285714283</ele><time>2026-05-01T13:20:24.001Z</time></trkpt><trkpt lat="40.78536514484096" lon="9.165300732562319"><ele>286.7142857142857</ele><time>2026-05-01T13:20:25.001Z</time></trkpt><trkpt lat="40.78531812394034" lon="9.165373859639141"><ele>287.57142857142856</ele><time>2026-05-01T13:20:26.001Z</time></trkpt><trkpt lat="40.78526310130323" lon="9.16543567865923"><ele>288.42857142857144</ele><time>2026-05-01T13:20:27.001Z</time></trkpt><trkpt lat="40.785200726312" lon="9.165477522615634"><ele>289.2857142857143</ele><time>2026-05-01T13:20:28.001Z</time></trkpt><trkpt lat="40.78513050104277" lon="9.165524223113268"><ele>290.1428571428571</ele><time>2026-05-01T13:20:29.001Z</time></trkpt><trkpt lat="40.78505792674883" lon="9.165570766113676"><ele>291.0</ele><time>2026-05-01T13:20:30.001Z</time></trkpt><trkpt lat="40.784981307603786" lon="9.165617130516274"><ele>289.8333333333333</ele><time>2026-05-01T13:20:31.001Z</time></trkpt><trkpt lat="40.784905339449224" lon="9.165663100994644"><ele>288.6666666666667</ele><time>2026-05-01T13:20:32.001Z</time></trkpt><trkpt lat="40.784829775729605" lon="9.165709525201892"><ele>287.5</ele><time>2026-05-01T13:20:33.001Z</time></trkpt><trkpt lat="40.784756999590876" lon="9.165772274147308"><ele>286.33333333333337</ele><time>2026-05-01T13:20:34.001Z</time></trkpt><trkpt lat="40.78470497440546" lon="9.165844730545283"><ele>285.1666666666667</ele><time>2026-05-01T13:20:35.001Z</time></trkpt><trkpt lat="40.78467124638311" lon="9.165953671514098"><ele>284.0</ele><time>2026-05-01T13:20:36.001Z</time></trkpt><trkpt lat="40.784623547867575" lon="9.166038235590566"><ele>284.0</ele><time>2026-05-01T13:20:37.001Z</time></trkpt><trkpt lat="40.78457593175535" lon="9.16615920029107"><ele>284.0</ele><time>2026-05-01T13:20:39.001Z</time></trkpt><trkpt lat="40.784547938835566" lon="9.166245670506518"><ele>284.0</ele><time>2026-05-01T13:20:48.001Z</time></trkpt><trkpt lat="40.78452389260778" lon="9.166352391621395"><ele>284.0</ele><time>2026-05-01T13:20:50.001Z</time></trkpt><trkpt lat="40.78447924235294" lon="9.166439293897135"><ele>284.0</ele><time>2026-05-01T13:20:51.001Z</time></trkpt><trkpt lat="40.78444415823544" lon="9.166539193649912"><ele>284.0</ele><time>2026-05-01T13:20:52.001Z</time></trkpt><trkpt lat="40.784404048723395" lon="9.166652781929495"><ele>284.8</ele><time>2026-05-01T13:20:53.001Z</time></trkpt><trkpt lat="40.784360939800045" lon="9.166774864388122"><ele>285.59999999999997</ele><time>2026-05-01T13:20:54.001Z</time></trkpt><trkpt lat="40.78432999072462" lon="9.166912615814423"><ele>286.4</ele><time>2026-05-01T13:20:55.001Z</time></trkpt><trkpt lat="40.78427961013229" lon="9.167041690683844"><ele>287.2</ele><time>2026-05-01T13:20:56.001Z</time></trkpt><trkpt lat="40.784229096233524" lon="9.167167532954691"><ele>288.0</ele><time>2026-05-01T13:20:57.001Z</time></trkpt><trkpt lat="40.78418432689653" lon="9.167294229716846"><ele>283.8</ele><time>2026-05-01T13:20:58.001Z</time></trkpt><trkpt lat="40.78414047600847" lon="9.16741911521113"><ele>279.6</ele><time>2026-05-01T13:20:59.001Z</time></trkpt><trkpt lat="40.784094930283146" lon="9.167544065803792"><ele>275.4</ele><time>2026-05-01T13:21:00.001Z</time></trkpt><trkpt lat="40.784056524359954" lon="9.167673082498803"><ele>271.2</ele><time>2026-05-01T13:21:01.001Z</time></trkpt><trkpt lat="40.78402490551792" lon="9.167802033526971"><ele>267.0</ele><time>2026-05-01T13:21:02.001Z</time></trkpt><trkpt lat="40.784000461389006" lon="9.167931436307086"><ele>267.0</ele><time>2026-05-01T13:21:03.001Z</time></trkpt><trkpt lat="40.78397972163274" lon="9.168061849081207"><ele>267.0</ele><time>2026-05-01T13:21:04.001Z</time></trkpt><trkpt lat="40.78396131625937" lon="9.168193796504484"><ele>267.0</ele><time>2026-05-01T13:21:05.001Z</time></trkpt><trkpt lat="40.78394537620923" lon="9.168326834107988"><ele>267.0</ele><time>2026-05-01T13:21:06.001Z</time></trkpt><trkpt lat="40.78392996810842" lon="9.168459232369678"><ele>267.0</ele><time>2026-05-01T13:21:07.001Z</time></trkpt><trkpt lat="40.78391562175052" lon="9.168590265766035"><ele>267.0</ele><time>2026-05-01T13:21:08.001Z</time></trkpt><trkpt lat="40.78390238071538" lon="9.168726456499192"><ele>267.0</ele><time>2026-05-01T13:21:09.001Z</time></trkpt><trkpt lat="40.78388591119358" lon="9.16887310413616"><ele>267.0</ele><time>2026-05-01T13:21:10.001Z</time></trkpt><trkpt lat="40.78387325586361" lon="9.169025881164652"><ele>267.0</ele><time>2026-05-01T13:21:11.001Z</time></trkpt><trkpt lat="40.783862147181054" lon="9.169187386609156"><ele>266.5</ele><time>2026-05-01T13:21:12.001Z</time></trkpt><trkpt lat="40.78383890768143" lon="9.169345469528578"><ele>266.0</ele><time>2026-05-01T13:21:13.001Z</time></trkpt><trkpt lat="40.783830652074805" lon="9.169504964971912"><ele>265.5</ele><time>2026-05-01T13:21:14.001Z</time></trkpt><trkpt lat="40.78383404365272" lon="9.169683434151903"><ele>265.0</ele><time>2026-05-01T13:21:15.001Z</time></trkpt><trkpt lat="40.783820054556905" lon="9.169855076973858"><ele>264.0</ele><time>2026-05-01T13:21:16.001Z</time></trkpt><trkpt lat="40.783798224220554" lon="9.170020559801065"><ele>263.0</ele><time>2026-05-01T13:21:17.001Z</time></trkpt><trkpt lat="40.78377793911211" lon="9.17017344606907"><ele>262.0</ele><time>2026-05-01T13:21:18.001Z</time></trkpt><trkpt lat="40.78375246358481" lon="9.170299904561238"><ele>261.0</ele><time>2026-05-01T13:21:19.001Z</time></trkpt><trkpt lat="40.783701075021156" lon="9.170389727995783"><ele>260.0</ele><time>2026-05-01T13:21:20.001Z</time></trkpt><trkpt lat="40.78365691645013" lon="9.17045340621937"><ele>260.0</ele><time>2026-05-01T13:21:21.001Z</time></trkpt><trkpt lat="40.783600290093574" lon="9.170494211529444"><ele>260.0</ele><time>2026-05-01T13:21:23.001Z</time></trkpt><trkpt lat="40.783541320991" lon="9.170457627260157"><ele>260.0</ele><time>2026-05-01T13:21:25.001Z</time></trkpt><trkpt lat="40.783481195122725" lon="9.170424490576522"><ele>260.0</ele><time>2026-05-01T13:21:27.001Z</time></trkpt><trkpt lat="40.783446177776966" lon="9.170307147893755"><ele>260.0</ele><time>2026-05-01T13:21:29.001Z</time></trkpt><trkpt lat="40.78340455354537" lon="9.170168365937336"><ele>260.0</ele><time>2026-05-01T13:21:31.001Z</time></trkpt><trkpt lat="40.78339338943069" lon="9.170082680176183"><ele>258.0</ele><time>2026-05-01T13:21:32.001Z</time></trkpt><trkpt lat="40.783376288577834" lon="9.169979291531394"><ele>256.0</ele><time>2026-05-01T13:21:33.001Z</time></trkpt><trkpt lat="40.78335890345957" lon="9.169863686732363"><ele>254.0</ele><time>2026-05-01T13:21:34.001Z</time></trkpt><trkpt lat="40.78333923577568" lon="9.169744204732146"><ele>252.0</ele><time>2026-05-01T13:21:35.001Z</time></trkpt><trkpt lat="40.78332529505033" lon="9.169624452153684"><ele>250.0</ele><time>2026-05-01T13:21:36.001Z</time></trkpt><trkpt lat="40.783306839904995" lon="9.169499941077012"><ele>250.0</ele><time>2026-05-01T13:21:37Z</time></trkpt><trkpt lat="40.78327444274716" lon="9.169381482676307"><ele>250.0</ele><time>2026-05-01T13:21:38Z</time></trkpt><trkpt lat="40.78322201718406" lon="9.169266463853372"><ele>250.0</ele><time>2026-05-01T13:21:39Z</time></trkpt><trkpt lat="40.783157098485844" lon="9.169163698788031"><ele>250.0</ele><time>2026-05-01T13:21:40Z</time></trkpt><trkpt lat="40.783089983348056" lon="9.169079449111628"><ele>250.0</ele><time>2026-05-01T13:21:41Z</time></trkpt><trkpt lat="40.783029805650905" lon="9.169001295580664"><ele>249.99999999999997</ele><time>2026-05-01T13:21:42Z</time></trkpt><trkpt lat="40.78298785613816" lon="9.16890942000173"><ele>250.0</ele><time>2026-05-01T13:21:43Z</time></trkpt><trkpt lat="40.78292945620149" lon="9.168848799540001"><ele>250.0</ele><time>2026-05-01T13:21:44Z</time></trkpt><trkpt lat="40.78288127236084" lon="9.168771628092593"><ele>250.0</ele><time>2026-05-01T13:21:45Z</time></trkpt><trkpt lat="40.782836991874696" lon="9.168680889740198"><ele>249.99999999999997</ele><time>2026-05-01T13:21:46Z</time></trkpt><trkpt lat="40.7827882610117" lon="9.168607072039482"><ele>250.0</ele><time>2026-05-01T13:21:47Z</time></trkpt><trkpt lat="40.78273140906756" lon="9.168495687870964"><ele>249.99999999999997</ele><time>2026-05-01T13:21:49Z</time></trkpt><trkpt lat="40.78277126059882" lon="9.168407807208853"><ele>250.0</ele><time>2026-05-01T13:21:50Z</time></trkpt><trkpt lat="40.78273003782178" lon="9.168302993399202"><ele>250.0</ele><time>2026-05-01T13:41:56Z</time></trkpt><trkpt lat="40.78265166345514" lon="9.168296913693677"><ele>250.0</ele><time>2026-05-01T13:41:58Z</time></trkpt><trkpt lat="40.78263682278855" lon="9.168388855849459"><ele>249.99999999999997</ele><time>2026-05-01T13:42:00Z</time></trkpt><trkpt lat="40.782692462808114" lon="9.168506635548562"><ele>250.0</ele><time>2026-05-01T13:42:02Z</time></trkpt><trkpt lat="40.782744168822866" lon="9.16858027804702"><ele>250.0</ele><time>2026-05-01T13:42:03Z</time></trkpt><trkpt lat="40.78280135499348" lon="9.168662361793988"><ele>250.0</ele><time>2026-05-01T13:42:04Z</time></trkpt><trkpt lat="40.78285989049257" lon="9.168752950368855"><ele>250.0</ele><time>2026-05-01T13:42:05Z</time></trkpt><trkpt lat="40.78291814334991" lon="9.168844710567482"><ele>250.0</ele><time>2026-05-01T13:42:06Z</time></trkpt><trkpt lat="40.78298056097311" lon="9.168942856097404"><ele>250.0</ele><time>2026-05-01T13:42:07Z</time></trkpt><trkpt lat="40.78304769805412" lon="9.169045566884476"><ele>250.0</ele><time>2026-05-01T13:42:08Z</time></trkpt><trkpt lat="40.783119938188406" lon="9.169154502437655"><ele>250.0</ele><time>2026-05-01T13:42:09Z</time></trkpt><trkpt lat="40.78318977140291" lon="9.169267382708686"><ele>250.0</ele><time>2026-05-01T13:42:10Z</time></trkpt><trkpt lat="40.783251152230854" lon="9.16937588609285"><ele>250.0</ele><time>2026-05-01T13:42:11Z</time></trkpt><trkpt lat="40.78327651369048" lon="9.169503368470266"><ele>250.0</ele><time>2026-05-01T13:42:12Z</time></trkpt><trkpt lat="40.783300685791716" lon="9.169634482323696"><ele>250.0</ele><time>2026-05-01T13:42:13Z</time></trkpt><trkpt lat="40.78333307135955" lon="9.169760145388985"><ele>250.0</ele><time>2026-05-01T13:42:14Z</time></trkpt><trkpt lat="40.78335088472962" lon="9.16989465441699"><ele>250.0</ele><time>2026-05-01T13:42:15Z</time></trkpt><trkpt lat="40.783370805014854" lon="9.170031007491064"><ele>250.0</ele><time>2026-05-01T13:42:16Z</time></trkpt><trkpt lat="40.783392470133656" lon="9.170166709983022"><ele>250.0</ele><time>2026-05-01T13:42:17Z</time></trkpt><trkpt lat="40.7834182682029" lon="9.170298138056289"><ele>249.4</ele><time>2026-05-01T13:42:18Z</time></trkpt><trkpt lat="40.783461511276684" lon="9.170418095102795"><ele>248.8</ele><time>2026-05-01T13:42:19Z</time></trkpt><trkpt lat="40.783527435533465" lon="9.170494664883913"><ele>248.2</ele><time>2026-05-01T13:42:20Z</time></trkpt><trkpt lat="40.78360550964247" lon="9.170518393340325"><ele>247.6</ele><time>2026-05-01T13:42:21Z</time></trkpt><trkpt lat="40.78369112398287" lon="9.170488831370069"><ele>247.0</ele><time>2026-05-01T13:42:22Z</time></trkpt><trkpt lat="40.78375201295666" lon="9.17039246724998"><ele>250.25</ele><time>2026-05-01T13:42:23.001Z</time></trkpt><trkpt lat="40.78379309994117" lon="9.17026035766807"><ele>253.5</ele><time>2026-05-01T13:42:24.001Z</time></trkpt><trkpt lat="40.78382144417115" lon="9.170107947382116"><ele>256.75</ele><time>2026-05-01T13:42:25.001Z</time></trkpt><trkpt lat="40.78383964956485" lon="9.16994136442221"><ele>260.0</ele><time>2026-05-01T13:42:26.001Z</time></trkpt><trkpt lat="40.783848980534266" lon="9.16976787052937"><ele>261.25</ele><time>2026-05-01T13:42:27.001Z</time></trkpt><trkpt lat="40.78385546721791" lon="9.16960112004093"><ele>262.5</ele><time>2026-05-01T13:42:28.001Z</time></trkpt><trkpt lat="40.78386228626303" lon="9.16942384793742"><ele>263.75</ele><time>2026-05-01T13:42:29.001Z</time></trkpt><trkpt lat="40.783872066657" lon="9.169242558986115"><ele>265.0</ele><time>2026-05-01T13:42:30.001Z</time></trkpt><trkpt lat="40.783882944711095" lon="9.169064362945651"><ele>265.5</ele><time>2026-05-01T13:42:31.001Z</time></trkpt><trkpt lat="40.78390268013559" lon="9.168874082906163"><ele>266.0</ele><time>2026-05-01T13:42:32.001Z</time></trkpt><trkpt lat="40.78392409445223" lon="9.168689115835695"><ele>266.5</ele><time>2026-05-01T13:42:33.001Z</time></trkpt><trkpt lat="40.78394610260632" lon="9.168502104180597"><ele>267.0</ele><time>2026-05-01T13:42:34.001Z</time></trkpt><trkpt lat="40.78396733368196" lon="9.168321838237375"><ele>267.0</ele><time>2026-05-01T13:42:35.001Z</time></trkpt><trkpt lat="40.783991127042846" lon="9.16814126949787"><ele>267.0</ele><time>2026-05-01T13:42:36.001Z</time></trkpt><trkpt lat="40.78401984993143" lon="9.167967867877184"><ele>267.0</ele><time>2026-05-01T13:42:37.001Z</time></trkpt><trkpt lat="40.784053473673694" lon="9.167792899357615"><ele>267.0</ele><time>2026-05-01T13:42:38.001Z</time></trkpt><trkpt lat="40.78409393435386" lon="9.167618054527352"><ele>267.0</ele><time>2026-05-01T13:42:39.001Z</time></trkpt><trkpt lat="40.78414757416323" lon="9.167451451053266"><ele>267.0</ele><time>2026-05-01T13:42:40.001Z</time></trkpt><trkpt lat="40.78420786084868" lon="9.167289269340104"><ele>267.0</ele><time>2026-05-01T13:42:41.001Z</time></trkpt><trkpt lat="40.784270298238496" lon="9.167128302218472"><ele>267.0</ele><time>2026-05-01T13:42:42.001Z</time></trkpt><trkpt lat="40.78433075901254" lon="9.166967415758835"><ele>271.25</ele><time>2026-05-01T13:42:43.001Z</time></trkpt><trkpt lat="40.78438771983146" lon="9.166806929399803"><ele>275.5</ele><time>2026-05-01T13:42:44.001Z</time></trkpt><trkpt lat="40.78444211561114" lon="9.166642810693753"><ele>279.75</ele><time>2026-05-01T13:42:45Z</time></trkpt><trkpt lat="40.78449756239755" lon="9.166476312092161"><ele>284.0</ele><time>2026-05-01T13:42:46Z</time></trkpt><trkpt lat="40.78455707400316" lon="9.166314996991378"><ele>284.0</ele><time>2026-05-01T13:42:47Z</time></trkpt><trkpt lat="40.78461730186822" lon="9.166157100039566"><ele>284.0</ele><time>2026-05-01T13:42:48Z</time></trkpt><trkpt lat="40.78467531004137" lon="9.16600758759185"><ele>284.0</ele><time>2026-05-01T13:42:49Z</time></trkpt><trkpt lat="40.78473142187622" lon="9.165867876261014"><ele>284.0</ele><time>2026-05-01T13:42:50Z</time></trkpt><trkpt lat="40.78480593758219" lon="9.165762401006173"><ele>285.75</ele><time>2026-05-01T13:42:51Z</time></trkpt><trkpt lat="40.78491232639323" lon="9.16568877957823"><ele>287.5</ele><time>2026-05-01T13:42:52Z</time></trkpt><trkpt lat="40.78503003962359" lon="9.165632827561666"><ele>289.25</ele><time>2026-05-01T13:42:53Z</time></trkpt><trkpt lat="40.785145204738086" lon="9.165571432929207"><ele>291.0</ele><time>2026-05-01T13:42:54Z</time></trkpt><trkpt lat="40.78525321690227" lon="9.165492696873683"><ele>291.0</ele><time>2026-05-01T13:42:55Z</time></trkpt><trkpt lat="40.78534977285708" lon="9.16539965154948"><ele>291.0</ele><time>2026-05-01T13:42:56Z</time></trkpt><trkpt lat="40.785427413929305" lon="9.165287641106366"><ele>291.0</ele><time>2026-05-01T13:42:57Z</time></trkpt><trkpt lat="40.78548201516313" lon="9.165148423366992"><ele>291.0</ele><time>2026-05-01T13:42:58Z</time></trkpt><trkpt lat="40.78552286511162" lon="9.165002427362438"><ele>291.0</ele><time>2026-05-01T13:42:59Z</time></trkpt><trkpt lat="40.78556457631974" lon="9.164868562527507"><ele>291.0</ele><time>2026-05-01T13:43:00Z</time></trkpt><trkpt lat="40.785622697520935" lon="9.164758716080385"><ele>291.0</ele><time>2026-05-01T13:43:01Z</time></trkpt><trkpt lat="40.78567795425955" lon="9.164638567804861"><ele>291.0</ele><time>2026-05-01T13:43:02Z</time></trkpt><trkpt lat="40.785733869505904" lon="9.164516168441605"><ele>291.0</ele><time>2026-05-01T13:43:03Z</time></trkpt><trkpt lat="40.78580251355008" lon="9.164409208533371"><ele>292.0</ele><time>2026-05-01T13:43:04Z</time></trkpt><trkpt lat="40.7858862494047" lon="9.164330956763523"><ele>293.0</ele><time>2026-05-01T13:43:05Z</time></trkpt><trkpt lat="40.785973611041975" lon="9.164267668360887"><ele>294.0</ele><time>2026-05-01T13:43:06Z</time></trkpt><trkpt lat="40.786049481037466" lon="9.164252494080865"><ele>295.0</ele><time>2026-05-01T13:43:07Z</time></trkpt><trkpt lat="40.78612202680045" lon="9.16423837084591"><ele>296.0</ele><time>2026-05-01T13:43:08Z</time></trkpt><trkpt lat="40.78623485945554" lon="9.164277459274128"><ele>296.0</ele><time>2026-05-01T13:43:10Z</time></trkpt><trkpt lat="40.78633053139481" lon="9.164364779303323"><ele>296.0</ele><time>2026-05-01T13:43:12Z</time></trkpt><trkpt lat="40.786400027397264" lon="9.1644207487056"><ele>296.0</ele><time>2026-05-01T13:43:14Z</time></trkpt><trkpt lat="40.786457444703494" lon="9.164464786739995"><ele>296.0</ele><time>2026-05-01T13:43:17Z</time></trkpt><trkpt lat="40.78650697492695" lon="9.164530677745766"><ele>296.0</ele><time>2026-05-01T13:43:26Z</time></trkpt><trkpt lat="40.7864754593742" lon="9.16460393015411"><ele>296.0</ele><time>2026-05-01T13:43:29Z</time></trkpt><trkpt lat="40.786479908658585" lon="9.164507956400138"><ele>296.0</ele><time>2026-05-01T13:43:31Z</time></trkpt><trkpt lat="40.786516229602974" lon="9.164615908641627"><ele>296.0</ele><time>2026-05-01T13:44:33Z</time></trkpt><trkpt lat="40.7865059803967" lon="9.164525170104161"><ele>296.0</ele><time>2026-05-01T13:46:01Z</time></trkpt><trkpt lat="40.786478651766316" lon="9.16460290114501"><ele>296.0</ele><time>2026-05-01T13:46:25.999Z</time></trkpt><trkpt lat="40.78654011863018" lon="9.164576662896394"><ele>296.0</ele><time>2026-05-01T13:46:39Z</time></trkpt><trkpt lat="40.78650592557563" lon="9.164499385781323"><ele>296.0</ele><time>2026-05-01T13:46:45Z</time></trkpt><trkpt lat="40.78644417739453" lon="9.16447240872915"><ele>296.0</ele><time>2026-05-01T13:46:49Z</time></trkpt><trkpt lat="40.78642618979035" lon="9.164364320657798"><ele>296.0</ele><time>2026-05-01T13:46:55Z</time></trkpt><trkpt lat="40.78646069296657" lon="9.16427629019492"><ele>296.0</ele><time>2026-05-01T13:47:01Z</time></trkpt><trkpt lat="40.786481698986655" lon="9.164188888701384"><ele>296.0</ele><time>2026-05-01T13:47:07Z</time></trkpt><trkpt lat="40.78649932623666" lon="9.16409994795619"><ele>296.0</ele><time>2026-05-01T13:47:20Z</time></trkpt><trkpt lat="40.78657664084473" lon="9.164076903905647"><ele>296.0</ele><time>2026-05-01T13:47:29Z</time></trkpt><trkpt lat="40.786609159234665" lon="9.164151003765499"><ele>296.0</ele><time>2026-05-01T13:47:34Z</time></trkpt><trkpt lat="40.78666605038245" lon="9.164202665056788"><ele>296.0</ele><time>2026-05-01T13:47:48.07Z</time></trkpt><trkpt lat="40.786400476900894" lon="9.164056616804572"><ele>296.0</ele><time>2026-05-01T13:48:30.016Z</time></trkpt><trkpt lat="40.78646715411585" lon="9.164114382691965"><ele>296.0</ele><time>2026-05-01T13:48:57Z</time></trkpt><trkpt lat="40.786486874560495" lon="9.164202520820833"><ele>296.0</ele><time>2026-05-01T13:49:26Z</time></trkpt><trkpt lat="40.78641493181562" lon="9.164136893201173"><ele>296.0</ele><time>2026-05-01T13:51:52.999Z</time></trkpt><trkpt lat="40.78649982379656" lon="9.164125259602198"><ele>296.0</ele><time>2026-05-01T14:14:19.998Z</time></trkpt><trkpt lat="40.786560929074845" lon="9.164044004538445"><ele>296.0</ele><time>2026-05-01T14:14:28.998Z</time></trkpt><trkpt lat="40.78660157067021" lon="9.164166113424676"><ele>296.0</ele><time>2026-05-01T14:15:09.998Z</time></trkpt><trkpt lat="40.78653427165185" lon="9.164045966558616"><ele>296.0</ele><time>2026-05-01T14:15:41.998Z</time></trkpt><trkpt lat="40.78648588348898" lon="9.164115258509462"><ele>296.0</ele><time>2026-05-01T14:15:53.998Z</time></trkpt><trkpt lat="40.786414876077835" lon="9.164156193528033"><ele>296.0</ele><time>2026-05-01T14:16:00.998Z</time></trkpt><trkpt lat="40.786458030732426" lon="9.164233619239221"><ele>296.0</ele><time>2026-05-01T14:16:17.999Z</time></trkpt><trkpt lat="40.78644169286224" lon="9.164318163497299"><ele>296.0</ele><time>2026-05-01T14:17:06.999Z</time></trkpt><trkpt lat="40.78643167200871" lon="9.164422691291481"><ele>296.0</ele><time>2026-05-01T14:17:12.999Z</time></trkpt><trkpt lat="40.786472361459744" lon="9.164500229698206"><ele>296.0</ele><time>2026-05-01T14:17:17.999Z</time></trkpt><trkpt lat="40.78648170784844" lon="9.164587277892439"><ele>296.0</ele><time>2026-05-01T14:17:23.999Z</time></trkpt><trkpt lat="40.786519246544295" lon="9.164488083622983"><ele>296.0</ele><time>2026-05-01T14:19:36Z</time></trkpt><trkpt lat="40.78646430242834" lon="9.164406479454403"><ele>296.0</ele><time>2026-05-01T14:19:38Z</time></trkpt><trkpt lat="40.78647011219792" lon="9.164311361217486"><ele>296.0</ele><time>2026-05-01T14:19:40Z</time></trkpt><trkpt lat="40.78648764238284" lon="9.164228479263423"><ele>296.0</ele><time>2026-05-01T14:20:07Z</time></trkpt><trkpt lat="40.78648123564907" lon="9.16413271696002"><ele>296.0</ele><time>2026-05-01T14:21:32Z</time></trkpt><trkpt lat="40.78637388999993" lon="9.164136564001444"><ele>296.0</ele><time>2026-05-01T14:21:35Z</time></trkpt><trkpt lat="40.7862659896923" lon="9.164168048454963"><ele>296.0</ele><time>2026-05-01T14:21:37Z</time></trkpt><trkpt lat="40.786092293399506" lon="9.16422442883564"><ele>296.0</ele><time>2026-05-01T14:21:39Z</time></trkpt><trkpt lat="40.78602105537027" lon="9.164248400420536"><ele>294.1666666666667</ele><time>2026-05-01T14:21:40Z</time></trkpt><trkpt lat="40.78595794462448" lon="9.164276685491881"><ele>292.33333333333337</ele><time>2026-05-01T14:21:41Z</time></trkpt><trkpt lat="40.78588714723102" lon="9.16428897675355"><ele>290.5</ele><time>2026-05-01T14:21:42Z</time></trkpt><trkpt lat="40.78582728261075" lon="9.164330488578882"><ele>288.6666666666667</ele><time>2026-05-01T14:21:43Z</time></trkpt><trkpt lat="40.785758004822185" lon="9.164396616165677"><ele>286.8333333333333</ele><time>2026-05-01T14:21:44Z</time></trkpt><trkpt lat="40.785704792028355" lon="9.164480422312897"><ele>285.0</ele><time>2026-05-01T14:21:45Z</time></trkpt><trkpt lat="40.78566488587065" lon="9.164575257555098"><ele>285.0</ele><time>2026-05-01T14:21:46Z</time></trkpt><trkpt lat="40.78562258237391" lon="9.164666439495488"><ele>285.0</ele><time>2026-05-01T14:21:47Z</time></trkpt><trkpt lat="40.785589600919984" lon="9.164764254160252"><ele>285.0</ele><time>2026-05-01T14:21:48.001Z</time></trkpt><trkpt lat="40.785558204266856" lon="9.164845301673973"><ele>285.0</ele><time>2026-05-01T14:21:49.001Z</time></trkpt><trkpt lat="40.785527557318574" lon="9.164922235568795"><ele>285.0</ele><time>2026-05-01T14:21:50.001Z</time></trkpt><trkpt lat="40.785496014812665" lon="9.165001417616075"><ele>285.0</ele><time>2026-05-01T14:21:51.001Z</time></trkpt><trkpt lat="40.785461410809944" lon="9.165084171746074"><ele>285.0</ele><time>2026-05-01T14:21:52.001Z</time></trkpt><trkpt lat="40.78542537764977" lon="9.165169041718134"><ele>286.0</ele><time>2026-05-01T14:21:53.001Z</time></trkpt><trkpt lat="40.78539085183022" lon="9.165250732825069"><ele>287.0</ele><time>2026-05-01T14:21:54.001Z</time></trkpt><trkpt lat="40.785345861539206" lon="9.16533174729254"><ele>288.0</ele><time>2026-05-01T14:21:55.001Z</time></trkpt><trkpt lat="40.78529100238724" lon="9.16540276741141"><ele>289.0</ele><time>2026-05-01T14:21:56.001Z</time></trkpt><trkpt lat="40.78522794784128" lon="9.165458259810423"><ele>290.0</ele><time>2026-05-01T14:21:57.001Z</time></trkpt><trkpt lat="40.785152280076666" lon="9.16550983784268"><ele>291.0</ele><time>2026-05-01T14:21:58.001Z</time></trkpt><trkpt lat="40.78507237929666" lon="9.165562020473384"><ele>289.6</ele><time>2026-05-01T14:21:59.001Z</time></trkpt><trkpt lat="40.78499132949437" lon="9.165611065989332"><ele>288.20000000000005</ele><time>2026-05-01T14:22:00.001Z</time></trkpt><trkpt lat="40.78491248946857" lon="9.16567660194176"><ele>286.79999999999995</ele><time>2026-05-01T14:22:01.001Z</time></trkpt><trkpt lat="40.78482532294915" lon="9.165712272851144"><ele>285.4</ele><time>2026-05-01T14:22:02.001Z</time></trkpt><trkpt lat="40.78475006753442" lon="9.165778468688039"><ele>284.0</ele><time>2026-05-01T14:22:03.001Z</time></trkpt><trkpt lat="40.78468772391389" lon="9.165871942353565"><ele>284.0</ele><time>2026-05-01T14:22:04.001Z</time></trkpt><trkpt lat="40.78466021477739" lon="9.16598409604929"><ele>284.0</ele><time>2026-05-01T14:22:05.001Z</time></trkpt><trkpt lat="40.78460713286716" lon="9.166079936510927"><ele>284.0</ele><time>2026-05-01T14:22:06.001Z</time></trkpt><trkpt lat="40.78456689951016" lon="9.166182145929673"><ele>284.0</ele><time>2026-05-01T14:22:07.001Z</time></trkpt><trkpt lat="40.78453447339375" lon="9.166283392070682"><ele>284.0</ele><time>2026-05-01T14:22:08.001Z</time></trkpt><trkpt lat="40.78451905940597" lon="9.166397274285726"><ele>284.0</ele><time>2026-05-01T14:22:09.001Z</time></trkpt><trkpt lat="40.78448310785409" lon="9.166500291027699"><ele>284.6666666666667</ele><time>2026-05-01T14:22:10.001Z</time></trkpt><trkpt lat="40.784444706173154" lon="9.166599875231407"><ele>285.33333333333337</ele><time>2026-05-01T14:22:11.001Z</time></trkpt><trkpt lat="40.78440413106149" lon="9.166694089724778"><ele>286.0</ele><time>2026-05-01T14:22:12.001Z</time></trkpt><trkpt lat="40.784368108504" lon="9.166793823814752"><ele>286.6666666666667</ele><time>2026-05-01T14:22:13Z</time></trkpt><trkpt lat="40.78433217380473" lon="9.166892441479987"><ele>287.3333333333333</ele><time>2026-05-01T14:22:14Z</time></trkpt><trkpt lat="40.784297476085065" lon="9.16698730117399"><ele>288.0</ele><time>2026-05-01T14:22:15Z</time></trkpt><trkpt lat="40.78426127276203" lon="9.167086047815289"><ele>284.5</ele><time>2026-05-01T14:22:16Z</time></trkpt><trkpt lat="40.78422813842756" lon="9.167184814489284"><ele>281.0</ele><time>2026-05-01T14:22:17Z</time></trkpt><trkpt lat="40.7841922255822" lon="9.167287218243866"><ele>277.5</ele><time>2026-05-01T14:22:18Z</time></trkpt><trkpt lat="40.78415415759261" lon="9.167387360842321"><ele>274.0</ele><time>2026-05-01T14:22:19Z</time></trkpt><trkpt lat="40.78411175590589" lon="9.16748146934225"><ele>270.5</ele><time>2026-05-01T14:22:20Z</time></trkpt><trkpt lat="40.784074271316626" lon="9.167583589007451"><ele>267.0</ele><time>2026-05-01T14:22:21Z</time></trkpt><trkpt lat="40.78404748410702" lon="9.167687360303598"><ele>267.0</ele><time>2026-05-01T14:22:22Z</time></trkpt><trkpt lat="40.78402365440034" lon="9.167792280871154"><ele>267.0</ele><time>2026-05-01T14:22:23Z</time></trkpt><trkpt lat="40.78400507339462" lon="9.16789189808111"><ele>267.0</ele><time>2026-05-01T14:22:24Z</time></trkpt><trkpt lat="40.78398529693429" lon="9.167996418764936"><ele>267.0</ele><time>2026-05-01T14:22:25Z</time></trkpt><trkpt lat="40.783975451977135" lon="9.168103568717791"><ele>267.0</ele><time>2026-05-01T14:22:26Z</time></trkpt><trkpt lat="40.78394695079633" lon="9.16821361022894"><ele>267.0</ele><time>2026-05-01T14:22:27Z</time></trkpt><trkpt lat="40.78393177395147" lon="9.168332471859943"><ele>267.0</ele><time>2026-05-01T14:22:28Z</time></trkpt><trkpt lat="40.78392808165859" lon="9.168469798687946"><ele>267.0</ele><time>2026-05-01T14:22:29Z</time></trkpt><trkpt lat="40.78390855053767" lon="9.16860059734119"><ele>267.0</ele><time>2026-05-01T14:22:30Z</time></trkpt><trkpt lat="40.78388594391517" lon="9.16873720471326"><ele>267.0</ele><time>2026-05-01T14:22:31Z</time></trkpt><trkpt lat="40.78387429356218" lon="9.168864688841204"><ele>267.0</ele><time>2026-05-01T14:22:32Z</time></trkpt><trkpt lat="40.783873750804275" lon="9.16899303651269"><ele>266.6</ele><time>2026-05-01T14:22:33Z</time></trkpt><trkpt lat="40.78385213004188" lon="9.169127409182854"><ele>266.2</ele><time>2026-05-01T14:22:34Z</time></trkpt><trkpt lat="40.78385231044241" lon="9.169252636520474"><ele>265.8</ele><time>2026-05-01T14:22:35Z</time></trkpt><trkpt lat="40.78383675509403" lon="9.16938096926344"><ele>265.4</ele><time>2026-05-01T14:22:36Z</time></trkpt><trkpt lat="40.78383020316165" lon="9.169513402295536"><ele>265.0</ele><time>2026-05-01T14:22:37Z</time></trkpt><trkpt lat="40.78382138404385" lon="9.169645609216591"><ele>265.0</ele><time>2026-05-01T14:22:38Z</time></trkpt><trkpt lat="40.7838281587657" lon="9.169767934480424"><ele>265.0</ele><time>2026-05-01T14:22:39Z</time></trkpt><trkpt lat="40.78381331512406" lon="9.169896564436915"><ele>265.0</ele><time>2026-05-01T14:22:40Z</time></trkpt><trkpt lat="40.783803388400315" lon="9.170023993897827"><ele>265.0</ele><time>2026-05-01T14:22:41Z</time></trkpt><trkpt lat="40.78377096259581" lon="9.170139728265454"><ele>265.0</ele><time>2026-05-01T14:22:42Z</time></trkpt><trkpt lat="40.78374897768846" lon="9.170253124537243"><ele>264.16666666666663</ele><time>2026-05-01T14:22:43Z</time></trkpt><trkpt lat="40.78373520187974" lon="9.170360663162066"><ele>263.3333333333333</ele><time>2026-05-01T14:22:44Z</time></trkpt><trkpt lat="40.783669079073924" lon="9.170433827603757"><ele>262.5</ele><time>2026-05-01T14:22:45Z</time></trkpt><trkpt lat="40.78359388158169" lon="9.170478152899731"><ele>261.6666666666667</ele><time>2026-05-01T14:22:46Z</time></trkpt><trkpt lat="40.783520959780546" lon="9.17047177796445"><ele>260.83333333333337</ele><time>2026-05-01T14:22:47Z</time></trkpt><trkpt lat="40.783462210826876" lon="9.170403766175722"><ele>260.0</ele><time>2026-05-01T14:22:48Z</time></trkpt><trkpt lat="40.78343077026855" lon="9.170283297913466"><ele>258.0</ele><time>2026-05-01T14:22:49Z</time></trkpt><trkpt lat="40.78341857514319" lon="9.17013788900638"><ele>256.0</ele><time>2026-05-01T14:22:50Z</time></trkpt><trkpt lat="40.78339914326837" lon="9.16999054364699"><ele>254.0</ele><time>2026-05-01T14:22:51Z</time></trkpt><trkpt lat="40.78337013493718" lon="9.169843845380466"><ele>252.0</ele><time>2026-05-01T14:22:52Z</time></trkpt><trkpt lat="40.78334416109149" lon="9.169704729885195"><ele>250.0</ele><time>2026-05-01T14:22:53Z</time></trkpt><trkpt lat="40.783319056560394" lon="9.169565354701014"><ele>250.0</ele><time>2026-05-01T14:22:54Z</time></trkpt><trkpt lat="40.78328997642317" lon="9.16941907486088"><ele>250.0</ele><time>2026-05-01T14:22:55Z</time></trkpt><trkpt lat="40.78323842995165" lon="9.169280944412597"><ele>250.0</ele><time>2026-05-01T14:22:56Z</time></trkpt><trkpt lat="40.78315978463364" lon="9.169161556346133"><ele>250.0</ele><time>2026-05-01T14:22:57Z</time></trkpt><trkpt lat="40.78307409551741" lon="9.169044296486165"><ele>250.0</ele><time>2026-05-01T14:22:58Z</time></trkpt><trkpt lat="40.78299388680905" lon="9.168920375160653"><ele>250.0</ele><time>2026-05-01T14:22:59Z</time></trkpt><trkpt lat="40.78291288000866" lon="9.16879564233955"><ele>250.0</ele><time>2026-05-01T14:23:00Z</time></trkpt><trkpt lat="40.78283782432771" lon="9.168679033060716"><ele>250.0</ele><time>2026-05-01T14:23:01Z</time></trkpt><trkpt lat="40.78276313330491" lon="9.168568200460394"><ele>250.0</ele><time>2026-05-01T14:23:02Z</time></trkpt><trkpt lat="40.78270308306231" lon="9.168476470819774"><ele>250.0</ele><time>2026-05-01T14:23:03Z</time></trkpt><trkpt lat="40.7826469013955" lon="9.168400190312306"><ele>250.0</ele><time>2026-05-01T14:23:04Z</time></trkpt><trkpt lat="40.78254864350268" lon="9.168370481982281"><ele>250.0</ele><time>2026-05-01T14:23:06Z</time></trkpt><trkpt lat="40.78246473443003" lon="9.168462194803793"><ele>250.0</ele><time>2026-05-01T14:23:09Z</time></trkpt><trkpt lat="40.78246553265299" lon="9.168554286811549"><ele>247.6</ele><time>2026-05-01T14:23:11Z</time></trkpt><trkpt lat="40.78254381552986" lon="9.168632258634872"><ele>245.2</ele><time>2026-05-01T14:23:12Z</time></trkpt><trkpt lat="40.78255710358546" lon="9.168726401795734"><ele>242.8</ele><time>2026-05-01T14:23:16Z</time></trkpt><trkpt lat="40.78255223723897" lon="9.168822903454357"><ele>240.4</ele><time>2026-05-01T14:23:22Z</time></trkpt><trkpt lat="40.782579613363296" lon="9.168984917073146"><ele>238.0</ele><time>2026-05-01T14:23:24Z</time></trkpt><trkpt lat="40.7825885127889" lon="9.169093889413071"><ele>237.8</ele><time>2026-05-01T14:23:25Z</time></trkpt><trkpt lat="40.78259746059012" lon="9.169191679437226"><ele>237.60000000000002</ele><time>2026-05-01T14:23:26Z</time></trkpt><trkpt lat="40.78259200022683" lon="9.169292621103166"><ele>237.39999999999998</ele><time>2026-05-01T14:23:27Z</time></trkpt><trkpt lat="40.78260165188569" lon="9.169406958625215"><ele>237.2</ele><time>2026-05-01T14:23:28Z</time></trkpt><trkpt lat="40.782612983187626" lon="9.169541193883928"><ele>237.0</ele><time>2026-05-01T14:23:29Z</time></trkpt><trkpt lat="40.78262597116706" lon="9.16969505482357"><ele>237.0</ele><time>2026-05-01T14:23:30Z</time></trkpt><trkpt lat="40.78263933768403" lon="9.169855325358906"><ele>237.0</ele><time>2026-05-01T14:23:31Z</time></trkpt><trkpt lat="40.7826512610618" lon="9.170019337101156"><ele>237.0</ele><time>2026-05-01T14:23:32Z</time></trkpt><trkpt lat="40.782663275698596" lon="9.170184604148702"><ele>237.0</ele><time>2026-05-01T14:23:33Z</time></trkpt><trkpt lat="40.78267610700167" lon="9.17036981171458"><ele>238.25</ele><time>2026-05-01T14:23:34Z</time></trkpt><trkpt lat="40.78268882513877" lon="9.170557717806654"><ele>239.5</ele><time>2026-05-01T14:23:35Z</time></trkpt><trkpt lat="40.78270171163038" lon="9.170756709276464"><ele>240.75</ele><time>2026-05-01T14:23:36Z</time></trkpt><trkpt lat="40.78273119614204" lon="9.170955842243526"><ele>242.0</ele><time>2026-05-01T14:23:37Z</time></trkpt><trkpt lat="40.78274908624978" lon="9.171160229156245"><ele>242.0</ele><time>2026-05-01T14:23:38Z</time></trkpt><trkpt lat="40.78277819827755" lon="9.171357353754882"><ele>242.0</ele><time>2026-05-01T14:23:39Z</time></trkpt><trkpt lat="40.782822016246634" lon="9.1715513864376"><ele>242.0</ele><time>2026-05-01T14:23:40Z</time></trkpt><trkpt lat="40.782873417297644" lon="9.171743772624216"><ele>240.25</ele><time>2026-05-01T14:23:41Z</time></trkpt><trkpt lat="40.78290795799161" lon="9.1719384547628"><ele>238.5</ele><time>2026-05-01T14:23:42Z</time></trkpt><trkpt lat="40.78296039328286" lon="9.172124999719948"><ele>236.75</ele><time>2026-05-01T14:23:43Z</time></trkpt><trkpt lat="40.7830131464277" lon="9.172293347722485"><ele>235.0</ele><time>2026-05-01T14:23:44Z</time></trkpt><trkpt lat="40.78304556166408" lon="9.172451382978805"><ele>234.25</ele><time>2026-05-01T14:23:45Z</time></trkpt><trkpt lat="40.78306358625597" lon="9.172625477739892"><ele>233.5</ele><time>2026-05-01T14:23:46Z</time></trkpt><trkpt lat="40.78304072728934" lon="9.172803360381627"><ele>232.75</ele><time>2026-05-01T14:23:47Z</time></trkpt><trkpt lat="40.783025159824966" lon="9.17298645568661"><ele>232.0</ele><time>2026-05-01T14:23:48Z</time></trkpt><trkpt lat="40.78300362239506" lon="9.173173176822486"><ele>230.33333333333331</ele><time>2026-05-01T14:23:49Z</time></trkpt><trkpt lat="40.782976911350715" lon="9.173367400454092"><ele>228.66666666666669</ele><time>2026-05-01T14:23:50Z</time></trkpt><trkpt lat="40.78296247396504" lon="9.173564379307605"><ele>227.0</ele><time>2026-05-01T14:23:51Z</time></trkpt><trkpt lat="40.78294095178803" lon="9.173764230171304"><ele>227.0</ele><time>2026-05-01T14:23:52Z</time></trkpt><trkpt lat="40.782935733904054" lon="9.173961267910613"><ele>227.0</ele><time>2026-05-01T14:23:53Z</time></trkpt><trkpt lat="40.782954788651566" lon="9.174158061265342"><ele>227.0</ele><time>2026-05-01T14:23:54Z</time></trkpt><trkpt lat="40.7829906699185" lon="9.174356282011782"><ele>225.66666666666669</ele><time>2026-05-01T14:23:55Z</time></trkpt><trkpt lat="40.78304526367089" lon="9.174558016486355"><ele>224.33333333333331</ele><time>2026-05-01T14:23:56Z</time></trkpt><trkpt lat="40.78311751240276" lon="9.174758020903548"><ele>223.0</ele><time>2026-05-01T14:23:57Z</time></trkpt><trkpt lat="40.783203299274035" lon="9.174958842336874"><ele>221.66666666666666</ele><time>2026-05-01T14:23:58Z</time></trkpt><trkpt lat="40.783292571515986" lon="9.175166655272577"><ele>220.33333333333331</ele><time>2026-05-01T14:23:59Z</time></trkpt><trkpt lat="40.78338332310109" lon="9.175382870481537"><ele>219.0</ele><time>2026-05-01T14:24:00Z</time></trkpt><trkpt lat="40.78347188606442" lon="9.1756078454002"><ele>219.0</ele><time>2026-05-01T14:24:01Z</time></trkpt><trkpt lat="40.783555883779485" lon="9.175829399705922"><ele>219.0</ele><time>2026-05-01T14:24:02Z</time></trkpt><trkpt lat="40.7836297460602" lon="9.17604976773849"><ele>219.0</ele><time>2026-05-01T14:24:03Z</time></trkpt><trkpt lat="40.783690131127734" lon="9.176262738499108"><ele>219.0</ele><time>2026-05-01T14:24:04Z</time></trkpt><trkpt lat="40.783755251375425" lon="9.176480787444275"><ele>219.0</ele><time>2026-05-01T14:24:05Z</time></trkpt><trkpt lat="40.783815506056655" lon="9.176704255598079"><ele>219.0</ele><time>2026-05-01T14:24:06Z</time></trkpt><trkpt lat="40.783865933496" lon="9.176921935565925"><ele>218.0</ele><time>2026-05-01T14:24:07Z</time></trkpt><trkpt lat="40.783914598416004" lon="9.177142517445446"><ele>217.0</ele><time>2026-05-01T14:24:08Z</time></trkpt><trkpt lat="40.78395390839455" lon="9.177357298518336"><ele>216.0</ele><time>2026-05-01T14:24:09Z</time></trkpt><trkpt lat="40.78399564459125" lon="9.177576799005973"><ele>215.0</ele><time>2026-05-01T14:24:10Z</time></trkpt><trkpt lat="40.78403967205051" lon="9.177785375070282"><ele>214.0</ele><time>2026-05-01T14:24:11.001Z</time></trkpt><trkpt lat="40.78409444905334" lon="9.17799039661747"><ele>213.0</ele><time>2026-05-01T14:24:12.001Z</time></trkpt><trkpt lat="40.78415546047381" lon="9.17817741160435"><ele>212.33333333333331</ele><time>2026-05-01T14:24:13.001Z</time></trkpt><trkpt lat="40.784230730248666" lon="9.178365948127004"><ele>211.66666666666666</ele><time>2026-05-01T14:24:14.001Z</time></trkpt><trkpt lat="40.78431887702263" lon="9.178540576868096"><ele>211.0</ele><time>2026-05-01T14:24:15.001Z</time></trkpt><trkpt lat="40.78438856744157" lon="9.17872752062328"><ele>212.66666666666666</ele><time>2026-05-01T14:24:16.001Z</time></trkpt><trkpt lat="40.78446733991492" lon="9.178907563155837"><ele>214.33333333333331</ele><time>2026-05-01T14:24:17.001Z</time></trkpt><trkpt lat="40.78455005440714" lon="9.17909343354244"><ele>216.0</ele><time>2026-05-01T14:24:18.001Z</time></trkpt><trkpt lat="40.78462542781171" lon="9.17928452286856"><ele>216.0</ele><time>2026-05-01T14:24:19Z</time></trkpt><trkpt lat="40.78468051455929" lon="9.17948179140205"><ele>216.0</ele><time>2026-05-01T14:24:20Z</time></trkpt><trkpt lat="40.784737282334305" lon="9.179681188700659"><ele>216.0</ele><time>2026-05-01T14:24:21Z</time></trkpt><trkpt lat="40.78475204549987" lon="9.179893534500586"><ele>216.66666666666669</ele><time>2026-05-01T14:24:22Z</time></trkpt><trkpt lat="40.784787671103814" lon="9.180102902115017"><ele>217.33333333333334</ele><time>2026-05-01T14:24:23Z</time></trkpt><trkpt lat="40.784801891749545" lon="9.180314488712037"><ele>218.0</ele><time>2026-05-01T14:24:24Z</time></trkpt><trkpt lat="40.7848165579933" lon="9.18053021012558"><ele>217.66666666666669</ele><time>2026-05-01T14:24:25Z</time></trkpt><trkpt lat="40.784835076470344" lon="9.180743962082918"><ele>217.33333333333331</ele><time>2026-05-01T14:24:26Z</time></trkpt><trkpt lat="40.78485400704349" lon="9.180957369402222"><ele>217.0</ele><time>2026-05-01T14:24:27Z</time></trkpt><trkpt lat="40.784872403311965" lon="9.181177007266564"><ele>217.0</ele><time>2026-05-01T14:24:28Z</time></trkpt><trkpt lat="40.78488999862318" lon="9.181391956177423"><ele>217.0</ele><time>2026-05-01T14:24:29Z</time></trkpt><trkpt lat="40.78491101012509" lon="9.181601781856534"><ele>217.0</ele><time>2026-05-01T14:24:30Z</time></trkpt><trkpt lat="40.78492741145064" lon="9.181795945036425"><ele>216.75</ele><time>2026-05-01T14:24:31Z</time></trkpt><trkpt lat="40.78493958857608" lon="9.181979213261652"><ele>216.5</ele><time>2026-05-01T14:24:32Z</time></trkpt><trkpt lat="40.78492578565867" lon="9.182140776212043"><ele>216.25</ele><time>2026-05-01T14:24:33Z</time></trkpt><trkpt lat="40.7849166980812" lon="9.182287389579615"><ele>216.0</ele><time>2026-05-01T14:24:34Z</time></trkpt><trkpt lat="40.78490106478396" lon="9.182400720945871"><ele>215.25</ele><time>2026-05-01T14:24:35Z</time></trkpt><trkpt lat="40.785000265868874" lon="9.182576045980307"><ele>214.5</ele><time>2026-05-01T14:24:37Z</time></trkpt><trkpt lat="40.78504376577109" lon="9.18267113814568"><ele>213.75</ele><time>2026-05-01T14:24:38Z</time></trkpt><trkpt lat="40.78506538893634" lon="9.182802990847744"><ele>213.0</ele><time>2026-05-01T14:24:39Z</time></trkpt><trkpt lat="40.78510217337786" lon="9.182938899652264"><ele>213.0</ele><time>2026-05-01T14:24:40Z</time></trkpt><trkpt lat="40.785156643711844" lon="9.183081443917418"><ele>213.0</ele><time>2026-05-01T14:24:41Z</time></trkpt><trkpt lat="40.78521070323708" lon="9.183235332631066"><ele>213.0</ele><time>2026-05-01T14:24:42Z</time></trkpt><trkpt lat="40.785272768910886" lon="9.183384871171272"><ele>213.0</ele><time>2026-05-01T14:24:43Z</time></trkpt><trkpt lat="40.78533404650812" lon="9.183539954731488"><ele>214.0</ele><time>2026-05-01T14:24:44Z</time></trkpt><trkpt lat="40.78541563255393" lon="9.183703517435541"><ele>215.0</ele><time>2026-05-01T14:24:45Z</time></trkpt><trkpt lat="40.785494204452164" lon="9.183871459857546"><ele>216.0</ele><time>2026-05-01T14:24:46Z</time></trkpt><trkpt lat="40.78557007558771" lon="9.184046989373766"><ele>216.0</ele><time>2026-05-01T14:24:47Z</time></trkpt><trkpt lat="40.785643118444675" lon="9.18421852364866"><ele>216.0</ele><time>2026-05-01T14:24:48Z</time></trkpt><trkpt lat="40.78571995513047" lon="9.18438735270706"><ele>216.0</ele><time>2026-05-01T14:24:49Z</time></trkpt><trkpt lat="40.78580131460151" lon="9.184536531813036"><ele>216.0</ele><time>2026-05-01T14:24:50Z</time></trkpt><trkpt lat="40.78586702441645" lon="9.18465089467219"><ele>216.0</ele><time>2026-05-01T14:24:51Z</time></trkpt><trkpt lat="40.78591678881747" lon="9.18471624870597"><ele>216.0</ele><time>2026-05-01T14:24:52Z</time></trkpt><trkpt lat="40.78596977413636" lon="9.184770636703368"><ele>216.0</ele><time>2026-05-01T14:24:53Z</time></trkpt><trkpt lat="40.786011657955" lon="9.18485547363559"><ele>216.0</ele><time>2026-05-01T14:24:54Z</time></trkpt><trkpt lat="40.78606461546983" lon="9.184935002388874"><ele>216.0</ele><time>2026-05-01T14:24:55Z</time></trkpt><trkpt lat="40.78610854537304" lon="9.185045490613689"><ele>216.0</ele><time>2026-05-01T14:24:56Z</time></trkpt><trkpt lat="40.786159225128536" lon="9.185161904427398"><ele>217.25</ele><time>2026-05-01T14:24:57Z</time></trkpt><trkpt lat="40.78621760057507" lon="9.185292212046503"><ele>218.5</ele><time>2026-05-01T14:24:58Z</time></trkpt><trkpt lat="40.78629542669288" lon="9.185427179092748"><ele>219.75</ele><time>2026-05-01T14:24:59Z</time></trkpt><trkpt lat="40.786386361284706" lon="9.185566841317263"><ele>221.0</ele><time>2026-05-01T14:25:00Z</time></trkpt><trkpt lat="40.786438332742584" lon="9.18572326696809"><ele>221.5</ele><time>2026-05-01T14:25:01Z</time></trkpt><trkpt lat="40.78650988661733" lon="9.185871157886075"><ele>222.0</ele><time>2026-05-01T14:25:02Z</time></trkpt><trkpt lat="40.786565705502326" lon="9.186035905058038"><ele>222.5</ele><time>2026-05-01T14:25:03Z</time></trkpt><trkpt lat="40.78663250863016" lon="9.186194235713165"><ele>223.0</ele><time>2026-05-01T14:25:04Z</time></trkpt><trkpt lat="40.786720756766776" lon="9.186339624097853"><ele>223.0</ele><time>2026-05-01T14:25:05Z</time></trkpt><trkpt lat="40.78682195718029" lon="9.186469940617988"><ele>223.0</ele><time>2026-05-01T14:25:06Z</time></trkpt><trkpt lat="40.786925949032415" lon="9.186590176984835"><ele>223.0</ele><time>2026-05-01T14:25:07Z</time></trkpt><trkpt lat="40.78700665391757" lon="9.186740607712919"><ele>223.0</ele><time>2026-05-01T14:25:08Z</time></trkpt><trkpt lat="40.78709232535117" lon="9.186888672576329"><ele>224.0</ele><time>2026-05-01T14:25:09Z</time></trkpt><trkpt lat="40.78718618652016" lon="9.187041172621399"><ele>225.0</ele><time>2026-05-01T14:25:10Z</time></trkpt><trkpt lat="40.78726888710342" lon="9.18718597288501"><ele>226.0</ele><time>2026-05-01T14:25:11Z</time></trkpt><trkpt lat="40.78732888803673" lon="9.187327349256146"><ele>227.0</ele><time>2026-05-01T14:25:12Z</time></trkpt><trkpt lat="40.78735844873022" lon="9.187464008997093"><ele>227.0</ele><time>2026-05-01T14:25:13Z</time></trkpt><trkpt lat="40.78739072382784" lon="9.187621195271722"><ele>227.0</ele><time>2026-05-01T14:25:14Z</time></trkpt><trkpt lat="40.78745098181488" lon="9.187784839053752"><ele>227.0</ele><time>2026-05-01T14:25:15Z</time></trkpt><trkpt lat="40.787506286658314" lon="9.187965866446852"><ele>227.0</ele><time>2026-05-01T14:25:16Z</time></trkpt><trkpt lat="40.78756734634899" lon="9.188147702488665"><ele>226.2</ele><time>2026-05-01T14:25:17Z</time></trkpt><trkpt lat="40.7876313227068" lon="9.18830882313123"><ele>225.39999999999998</ele><time>2026-05-01T14:25:18Z</time></trkpt><trkpt lat="40.78767484714283" lon="9.1884171061611"><ele>224.60000000000002</ele><time>2026-05-01T14:25:19Z</time></trkpt><trkpt lat="40.78773078502422" lon="9.18850160388553"><ele>223.8</ele><time>2026-05-01T14:25:20Z</time></trkpt><trkpt lat="40.78782208335712" lon="9.188578655639814"><ele>223.0</ele><time>2026-05-01T14:25:21Z</time></trkpt><trkpt lat="40.787935554776304" lon="9.18863308712545"><ele>222.75</ele><time>2026-05-01T14:25:22Z</time></trkpt><trkpt lat="40.78807579640918" lon="9.188664158147366"><ele>222.5</ele><time>2026-05-01T14:25:23Z</time></trkpt><trkpt lat="40.78819718348261" lon="9.188716816143918"><ele>222.25</ele><time>2026-05-01T14:25:24Z</time></trkpt><trkpt lat="40.788288641434505" lon="9.188792868242414"><ele>222.0</ele><time>2026-05-01T14:25:25Z</time></trkpt><trkpt lat="40.78835856457072" lon="9.188894477519494"><ele>221.5</ele><time>2026-05-01T14:25:26Z</time></trkpt><trkpt lat="40.78839074124953" lon="9.189062073774524"><ele>221.0</ele><time>2026-05-01T14:25:27Z</time></trkpt><trkpt lat="40.78845579183603" lon="9.189221342653651"><ele>220.5</ele><time>2026-05-01T14:25:28Z</time></trkpt><trkpt lat="40.788531708715006" lon="9.189385187312855"><ele>220.0</ele><time>2026-05-01T14:25:29Z</time></trkpt><trkpt lat="40.78857885403529" lon="9.189569923319771"><ele>222.25</ele><time>2026-05-01T14:25:30Z</time></trkpt><trkpt lat="40.78864018656119" lon="9.189757538855908"><ele>224.5</ele><time>2026-05-01T14:25:31Z</time></trkpt><trkpt lat="40.78870893160331" lon="9.189926242779011"><ele>226.75</ele><time>2026-05-01T14:25:32Z</time></trkpt><trkpt lat="40.788725282095534" lon="9.190090149826919"><ele>229.0</ele><time>2026-05-01T14:25:33Z</time></trkpt><trkpt lat="40.78874531242089" lon="9.190257140682528"><ele>229.0</ele><time>2026-05-01T14:25:34Z</time></trkpt><trkpt lat="40.78878031539996" lon="9.190427482074982"><ele>229.0</ele><time>2026-05-01T14:25:35Z</time></trkpt><trkpt lat="40.78881911781839" lon="9.190616313390374"><ele>229.0</ele><time>2026-05-01T14:25:36Z</time></trkpt><trkpt lat="40.788861730910966" lon="9.190811873297601"><ele>229.0</ele><time>2026-05-01T14:25:37Z</time></trkpt><trkpt lat="40.788925001652856" lon="9.191005829616895"><ele>229.66666666666666</ele><time>2026-05-01T14:25:38Z</time></trkpt><trkpt lat="40.78897434979922" lon="9.19120488736105"><ele>230.33333333333331</ele><time>2026-05-01T14:25:39Z</time></trkpt><trkpt lat="40.789005483441954" lon="9.191402359875719"><ele>231.0</ele><time>2026-05-01T14:25:40Z</time></trkpt><trkpt lat="40.7890438720522" lon="9.191597269919274"><ele>231.0</ele><time>2026-05-01T14:25:41Z</time></trkpt><trkpt lat="40.78908937435751" lon="9.191789104562528"><ele>231.0</ele><time>2026-05-01T14:25:42Z</time></trkpt><trkpt lat="40.789138310735254" lon="9.191973439520668"><ele>231.0</ele><time>2026-05-01T14:25:43Z</time></trkpt><trkpt lat="40.78920790175539" lon="9.192140077705497"><ele>231.0</ele><time>2026-05-01T14:25:44Z</time></trkpt><trkpt lat="40.78927537392087" lon="9.19229893624164"><ele>232.25</ele><time>2026-05-01T14:25:45Z</time></trkpt><trkpt lat="40.78934934910625" lon="9.192463991137055"><ele>233.5</ele><time>2026-05-01T14:25:46Z</time></trkpt><trkpt lat="40.78940665097533" lon="9.192641739136326"><ele>234.75</ele><time>2026-05-01T14:25:47Z</time></trkpt><trkpt lat="40.789474520865724" lon="9.192812912289941"><ele>236.0</ele><time>2026-05-01T14:25:48Z</time></trkpt><trkpt lat="40.789558733738694" lon="9.192975968884683"><ele>236.0</ele><time>2026-05-01T14:25:49Z</time></trkpt><trkpt lat="40.789631247933805" lon="9.193143135700796"><ele>236.0</ele><time>2026-05-01T14:25:50Z</time></trkpt><trkpt lat="40.78972785366913" lon="9.19329285466659"><ele>236.0</ele><time>2026-05-01T14:25:51Z</time></trkpt><trkpt lat="40.78982793770017" lon="9.193438187868992"><ele>236.0</ele><time>2026-05-01T14:25:52Z</time></trkpt><trkpt lat="40.78992356520584" lon="9.193581151871344"><ele>236.25</ele><time>2026-05-01T14:25:53Z</time></trkpt><trkpt lat="40.79002326350753" lon="9.193718848088213"><ele>236.5</ele><time>2026-05-01T14:25:54Z</time></trkpt><trkpt lat="40.7901236993325" lon="9.19385043058076"><ele>236.75</ele><time>2026-05-01T14:25:55Z</time></trkpt><trkpt lat="40.79022306259216" lon="9.193984000055314"><ele>237.0</ele><time>2026-05-01T14:25:56Z</time></trkpt><trkpt lat="40.790316545353505" lon="9.194121093467539"><ele>238.5</ele><time>2026-05-01T14:25:57Z</time></trkpt><trkpt lat="40.79041141785298" lon="9.19425503815074"><ele>240.0</ele><time>2026-05-01T14:25:58Z</time></trkpt><trkpt lat="40.79050870332027" lon="9.194373161988134"><ele>241.5</ele><time>2026-05-01T14:25:59Z</time></trkpt><trkpt lat="40.79060901700037" lon="9.194459719032626"><ele>243.0</ele><time>2026-05-01T14:26:00Z</time></trkpt><trkpt lat="40.79070781941619" lon="9.194515082808909"><ele>243.0</ele><time>2026-05-01T14:26:01Z</time></trkpt><trkpt lat="40.79080032928273" lon="9.194566883600732"><ele>243.0</ele><time>2026-05-01T14:26:02Z</time></trkpt><trkpt lat="40.79086318261942" lon="9.19466148822465"><ele>243.0</ele><time>2026-05-01T14:26:03Z</time></trkpt><trkpt lat="40.79092644795635" lon="9.194776114911402"><ele>243.0</ele><time>2026-05-01T14:26:04Z</time></trkpt><trkpt lat="40.79100195036165" lon="9.194897650351427"><ele>243.0</ele><time>2026-05-01T14:26:05Z</time></trkpt><trkpt lat="40.79107406998522" lon="9.195032556508421"><ele>244.5</ele><time>2026-05-01T14:26:06Z</time></trkpt><trkpt lat="40.79115273083021" lon="9.195163785914731"><ele>246.0</ele><time>2026-05-01T14:26:07Z</time></trkpt><trkpt lat="40.791246565033795" lon="9.195282046344497"><ele>247.5</ele><time>2026-05-01T14:26:08Z</time></trkpt><trkpt lat="40.791352989390575" lon="9.195381816583959"><ele>249.0</ele><time>2026-05-01T14:26:09Z</time></trkpt><trkpt lat="40.791476772656004" lon="9.195457522883897"><ele>249.0</ele><time>2026-05-01T14:26:10Z</time></trkpt><trkpt lat="40.79159891548395" lon="9.195534627659178"><ele>249.0</ele><time>2026-05-01T14:26:11Z</time></trkpt><trkpt lat="40.79172070571757" lon="9.195629142022316"><ele>249.0</ele><time>2026-05-01T14:26:12Z</time></trkpt><trkpt lat="40.791827334941225" lon="9.195711468434796"><ele>249.0</ele><time>2026-05-01T14:26:13Z</time></trkpt><trkpt lat="40.79194059892851" lon="9.195783029708082"><ele>249.5</ele><time>2026-05-01T14:26:14Z</time></trkpt><trkpt lat="40.792053324626686" lon="9.195856428601575"><ele>250.0</ele><time>2026-05-01T14:26:15Z</time></trkpt><trkpt lat="40.79216520178516" lon="9.195933924432747"><ele>250.5</ele><time>2026-05-01T14:26:16Z</time></trkpt><trkpt lat="40.79227227392117" lon="9.196023769521204"><ele>251.0</ele><time>2026-05-01T14:26:17Z</time></trkpt><trkpt lat="40.79236664014887" lon="9.196125120173233"><ele>251.0</ele><time>2026-05-01T14:26:18Z</time></trkpt><trkpt lat="40.7924436032166" lon="9.196238965442712"><ele>251.0</ele><time>2026-05-01T14:26:19Z</time></trkpt><trkpt lat="40.79248524058646" lon="9.196385544054397"><ele>251.0</ele><time>2026-05-01T14:26:20Z</time></trkpt><trkpt lat="40.79255087104703" lon="9.196527380938312"><ele>251.0</ele><time>2026-05-01T14:26:21Z</time></trkpt><trkpt lat="40.792596144575384" lon="9.196691799850006"><ele>250.5</ele><time>2026-05-01T14:26:22Z</time></trkpt><trkpt lat="40.79261701428301" lon="9.19687238957457"><ele>250.0</ele><time>2026-05-01T14:26:23Z</time></trkpt><trkpt lat="40.79264545993707" lon="9.19705690415275"><ele>249.5</ele><time>2026-05-01T14:26:24Z</time></trkpt><trkpt lat="40.79266079815102" lon="9.197222947235383"><ele>249.0</ele><time>2026-05-01T14:26:25Z</time></trkpt><trkpt lat="40.79267219157917" lon="9.197378486988212"><ele>250.75</ele><time>2026-05-01T14:26:26Z</time></trkpt><trkpt lat="40.79275936388962" lon="9.197538523529055"><ele>252.5</ele><time>2026-05-01T14:26:27Z</time></trkpt><trkpt lat="40.792803029660384" lon="9.197708137504385"><ele>254.25</ele><time>2026-05-01T14:26:28Z</time></trkpt><trkpt lat="40.7928228515786" lon="9.197886326292632"><ele>256.0</ele><time>2026-05-01T14:26:29Z</time></trkpt><trkpt lat="40.79287325584478" lon="9.198052680638632"><ele>255.5</ele><time>2026-05-01T14:26:30Z</time></trkpt><trkpt lat="40.79291905018054" lon="9.19821125461418"><ele>255.0</ele><time>2026-05-01T14:26:31Z</time></trkpt><trkpt lat="40.79297408727293" lon="9.198363619202281"><ele>254.5</ele><time>2026-05-01T14:26:32Z</time></trkpt><trkpt lat="40.79303839680394" lon="9.198516019320538"><ele>254.0</ele><time>2026-05-01T14:26:33Z</time></trkpt><trkpt lat="40.79310581553554" lon="9.198668833107119"><ele>254.0</ele><time>2026-05-01T14:26:34Z</time></trkpt><trkpt lat="40.7931856670461" lon="9.198824298108773"><ele>254.0</ele><time>2026-05-01T14:26:35Z</time></trkpt><trkpt lat="40.79327526548888" lon="9.198972805035858"><ele>254.0</ele><time>2026-05-01T14:26:36Z</time></trkpt><trkpt lat="40.79337335654745" lon="9.199108963787928"><ele>254.0</ele><time>2026-05-01T14:26:37Z</time></trkpt><trkpt lat="40.79348019993067" lon="9.199260567995617"><ele>254.66666666666669</ele><time>2026-05-01T14:26:38Z</time></trkpt><trkpt lat="40.79357986561745" lon="9.199410362610909"><ele>255.33333333333331</ele><time>2026-05-01T14:26:39Z</time></trkpt><trkpt lat="40.79368184713093" lon="9.199567784672805"><ele>256.0</ele><time>2026-05-01T14:26:40Z</time></trkpt><trkpt lat="40.79378525744056" lon="9.199713001257317"><ele>255.5</ele><time>2026-05-01T14:26:41Z</time></trkpt><trkpt lat="40.793878801470214" lon="9.199866808823586"><ele>255.0</ele><time>2026-05-01T14:26:42Z</time></trkpt><trkpt lat="40.79397101216825" lon="9.200012776980376"><ele>254.5</ele><time>2026-05-01T14:26:43Z</time></trkpt><trkpt lat="40.79406768545794" lon="9.200142602267068"><ele>254.0</ele><time>2026-05-01T14:26:44Z</time></trkpt><trkpt lat="40.79416315819404" lon="9.20027897492388"><ele>254.0</ele><time>2026-05-01T14:26:45Z</time></trkpt><trkpt lat="40.79421960891025" lon="9.200439025362972"><ele>254.0</ele><time>2026-05-01T14:26:46Z</time></trkpt><trkpt lat="40.79427157163433" lon="9.200596773897402"><ele>254.0</ele><time>2026-05-01T14:26:47Z</time></trkpt><trkpt lat="40.794340694024235" lon="9.20075033099217"><ele>254.0</ele><time>2026-05-01T14:26:48Z</time></trkpt><trkpt lat="40.79439763055035" lon="9.20090917501261"><ele>254.5</ele><time>2026-05-01T14:26:49Z</time></trkpt><trkpt lat="40.794464220999075" lon="9.201067097552267"><ele>255.0</ele><time>2026-05-01T14:26:50Z</time></trkpt><trkpt lat="40.794538146116466" lon="9.201219987894723"><ele>255.5</ele><time>2026-05-01T14:26:51Z</time></trkpt><trkpt lat="40.79462282031382" lon="9.201362719608506"><ele>256.0</ele><time>2026-05-01T14:26:52Z</time></trkpt><trkpt lat="40.79471262170152" lon="9.201509044410537"><ele>256.0</ele><time>2026-05-01T14:26:53Z</time></trkpt><trkpt lat="40.79480796055759" lon="9.201645356522832"><ele>256.0</ele><time>2026-05-01T14:26:54Z</time></trkpt><trkpt lat="40.79490305343225" lon="9.20177950824322"><ele>256.0</ele><time>2026-05-01T14:26:55Z</time></trkpt><trkpt lat="40.79500576740634" lon="9.201901076614677"><ele>256.0</ele><time>2026-05-01T14:26:56Z</time></trkpt><trkpt lat="40.795090961226016" lon="9.20203563425858"><ele>257.25</ele><time>2026-05-01T14:26:57Z</time></trkpt><trkpt lat="40.79518022512115" lon="9.202176158935996"><ele>258.5</ele><time>2026-05-01T14:26:58Z</time></trkpt><trkpt lat="40.79525766339918" lon="9.202330825200033"><ele>259.75</ele><time>2026-05-01T14:26:59Z</time></trkpt><trkpt lat="40.79537084331805" lon="9.20244411172773"><ele>261.0</ele><time>2026-05-01T14:27:00Z</time></trkpt><trkpt lat="40.795475745674125" lon="9.202565972458572"><ele>261.25</ele><time>2026-05-01T14:27:01Z</time></trkpt><trkpt lat="40.79558115137407" lon="9.20269472707704"><ele>261.5</ele><time>2026-05-01T14:27:02Z</time></trkpt><trkpt lat="40.79568819466788" lon="9.202820641593604"><ele>261.75</ele><time>2026-05-01T14:27:03Z</time></trkpt><trkpt lat="40.795782884741996" lon="9.20295666259341"><ele>262.0</ele><time>2026-05-01T14:27:04Z</time></trkpt><trkpt lat="40.79588921473535" lon="9.20307688095661"><ele>261.5</ele><time>2026-05-01T14:27:05Z</time></trkpt><trkpt lat="40.79599490550006" lon="9.203196376460024"><ele>261.0</ele><time>2026-05-01T14:27:06Z</time></trkpt><trkpt lat="40.796098821601724" lon="9.203309591776852"><ele>260.5</ele><time>2026-05-01T14:27:07Z</time></trkpt><trkpt lat="40.79620223840948" lon="9.20341614679"><ele>260.0</ele><time>2026-05-01T14:27:08Z</time></trkpt><trkpt lat="40.79629992020424" lon="9.203494352290493"><ele>261.0</ele><time>2026-05-01T14:27:09Z</time></trkpt><trkpt lat="40.79637083986392" lon="9.203577997555373"><ele>262.0</ele><time>2026-05-01T14:27:10Z</time></trkpt><trkpt lat="40.796423431249934" lon="9.203663215487497"><ele>263.0</ele><time>2026-05-01T14:27:11Z</time></trkpt><trkpt lat="40.79640507876303" lon="9.203762630917058"><ele>264.0</ele><time>2026-05-01T14:27:12Z</time></trkpt><trkpt lat="40.79639191819377" lon="9.203856697013437"><ele>265.0</ele><time>2026-05-01T14:27:13Z</time></trkpt><trkpt lat="40.796392823075124" lon="9.203977557651855"><ele>266.0</ele><time>2026-05-01T14:27:14Z</time></trkpt><trkpt lat="40.796405095293025" lon="9.204092114323393"><ele>266.0</ele><time>2026-05-01T14:27:15Z</time></trkpt><trkpt lat="40.79643639003648" lon="9.204248553079767"><ele>266.0</ele><time>2026-05-01T14:27:16Z</time></trkpt><trkpt lat="40.796482251921304" lon="9.204412304991576"><ele>266.0</ele><time>2026-05-01T14:27:17Z</time></trkpt><trkpt lat="40.7965390766039" lon="9.204566474877101"><ele>266.0</ele><time>2026-05-01T14:27:18Z</time></trkpt><trkpt lat="40.796605546246674" lon="9.20471146094837"><ele>266.6666666666667</ele><time>2026-05-01T14:27:19Z</time></trkpt><trkpt lat="40.79669369489844" lon="9.20486260466497"><ele>267.3333333333333</ele><time>2026-05-01T14:27:20Z</time></trkpt><trkpt lat="40.79678443748019" lon="9.205027471714846"><ele>268.0</ele><time>2026-05-01T14:27:21Z</time></trkpt><trkpt lat="40.79688268269888" lon="9.20518439304449"><ele>270.25</ele><time>2026-05-01T14:27:22Z</time></trkpt><trkpt lat="40.79694622305918" lon="9.205352087049128"><ele>272.5</ele><time>2026-05-01T14:27:23Z</time></trkpt><trkpt lat="40.79701629555958" lon="9.205505341655703"><ele>274.75</ele><time>2026-05-01T14:27:24Z</time></trkpt><trkpt lat="40.797089195240005" lon="9.20565864160902"><ele>277.0</ele><time>2026-05-01T14:27:25Z</time></trkpt><trkpt lat="40.79717617062171" lon="9.205796504265763"><ele>277.0</ele><time>2026-05-01T14:27:26Z</time></trkpt><trkpt lat="40.79722872197493" lon="9.205953716357472"><ele>277.0</ele><time>2026-05-01T14:27:27Z</time></trkpt><trkpt lat="40.79727431882006" lon="9.206101802226828"><ele>277.0</ele><time>2026-05-01T14:27:28Z</time></trkpt><trkpt lat="40.79732531546411" lon="9.20622893315321"><ele>277.0</ele><time>2026-05-01T14:27:29Z</time></trkpt><trkpt lat="40.79738425383195" lon="9.206329102547002"><ele>277.0</ele><time>2026-05-01T14:27:30Z</time></trkpt><trkpt lat="40.797428378138406" lon="9.206438293108993"><ele>277.0</ele><time>2026-05-01T14:27:31Z</time></trkpt><trkpt lat="40.79750289457728" lon="9.206510748960014"><ele>277.0</ele><time>2026-05-01T14:27:32Z</time></trkpt><trkpt lat="40.797521453528056" lon="9.206623367509492"><ele>277.0</ele><time>2026-05-01T14:27:33Z</time></trkpt><trkpt lat="40.79752811481173" lon="9.206713190116059"><ele>277.0</ele><time>2026-05-01T14:27:34Z</time></trkpt><trkpt lat="40.797512971352894" lon="9.206809750229803"><ele>277.0</ele><time>2026-05-01T14:27:35Z</time></trkpt><trkpt lat="40.797493300997296" lon="9.206938403432149"><ele>276.8</ele><time>2026-05-01T14:27:36Z</time></trkpt><trkpt lat="40.79749156535269" lon="9.207061934065063"><ele>276.6</ele><time>2026-05-01T14:27:37Z</time></trkpt><trkpt lat="40.79749370585345" lon="9.207196694651515"><ele>276.40000000000003</ele><time>2026-05-01T14:27:38Z</time></trkpt><trkpt lat="40.7975187348446" lon="9.207343502709053"><ele>276.2</ele><time>2026-05-01T14:27:39Z</time></trkpt><trkpt lat="40.797542111679334" lon="9.207503273562956"><ele>276.0</ele><time>2026-05-01T14:27:40Z</time></trkpt><trkpt lat="40.79753722098308" lon="9.207666756322991"><ele>276.5</ele><time>2026-05-01T14:27:41Z</time></trkpt><trkpt lat="40.79754607102208" lon="9.207831913051505"><ele>277.0</ele><time>2026-05-01T14:27:42Z</time></trkpt><trkpt lat="40.79755575220787" lon="9.207995117603403"><ele>277.5</ele><time>2026-05-01T14:27:43Z</time></trkpt><trkpt lat="40.797571801543434" lon="9.20815520644058"><ele>278.0</ele><time>2026-05-01T14:27:44Z</time></trkpt><trkpt lat="40.79755982236789" lon="9.20832172834467"><ele>278.75</ele><time>2026-05-01T14:27:45Z</time></trkpt><trkpt lat="40.79758255577147" lon="9.208477510998122"><ele>279.5</ele><time>2026-05-01T14:27:46Z</time></trkpt><trkpt lat="40.797593788486424" lon="9.20864280793838"><ele>280.25</ele><time>2026-05-01T14:27:47Z</time></trkpt><trkpt lat="40.79758573216185" lon="9.208818241959374"><ele>281.0</ele><time>2026-05-01T14:27:48Z</time></trkpt><trkpt lat="40.79759952849577" lon="9.208995262369196"><ele>282.2</ele><time>2026-05-01T14:27:49Z</time></trkpt><trkpt lat="40.797602823955856" lon="9.209155874493831"><ele>283.40000000000003</ele><time>2026-05-01T14:27:50Z</time></trkpt><trkpt lat="40.797612983444914" lon="9.209303192733154"><ele>284.6</ele><time>2026-05-01T14:27:51Z</time></trkpt><trkpt lat="40.7976279829123" lon="9.209413099201411"><ele>285.8</ele><time>2026-05-01T14:27:52Z</time></trkpt><trkpt lat="40.79766809931579" lon="9.20951448317584"><ele>287.0</ele><time>2026-05-01T14:27:53Z</time></trkpt><trkpt lat="40.797748056139035" lon="9.209606245038888"><ele>288.75</ele><time>2026-05-01T14:27:54Z</time></trkpt><trkpt lat="40.797836039206516" lon="9.209692340762665"><ele>290.5</ele><time>2026-05-01T14:27:55Z</time></trkpt><trkpt lat="40.797896676019135" lon="9.209822482464238"><ele>292.25</ele><time>2026-05-01T14:27:56Z</time></trkpt><trkpt lat="40.79795547045258" lon="9.209955353163794"><ele>294.0</ele><time>2026-05-01T14:27:57Z</time></trkpt><trkpt lat="40.79801269471619" lon="9.210095989898177"><ele>296.0</ele><time>2026-05-01T14:27:58Z</time></trkpt><trkpt lat="40.798071463280706" lon="9.21024042107978"><ele>298.0</ele><time>2026-05-01T14:27:59Z</time></trkpt><trkpt lat="40.79816997606848" lon="9.210360562639998"><ele>300.0</ele><time>2026-05-01T14:28:00Z</time></trkpt><trkpt lat="40.798272394220206" lon="9.2104841377448"><ele>302.0</ele><time>2026-05-01T14:28:01Z</time></trkpt><trkpt lat="40.79836500956889" lon="9.210630366684647"><ele>302.25</ele><time>2026-05-01T14:28:02Z</time></trkpt><trkpt lat="40.79845324703753" lon="9.21077667802342"><ele>302.5</ele><time>2026-05-01T14:28:03Z</time></trkpt><trkpt lat="40.798533499807796" lon="9.210928447359514"><ele>302.75</ele><time>2026-05-01T14:28:04Z</time></trkpt><trkpt lat="40.798612489498986" lon="9.211087805315538"><ele>303.0</ele><time>2026-05-01T14:28:05Z</time></trkpt><trkpt lat="40.79869064828376" lon="9.211253484468418"><ele>307.0</ele><time>2026-05-01T14:28:06Z</time></trkpt><trkpt lat="40.79877241327571" lon="9.211428912346289"><ele>311.0</ele><time>2026-05-01T14:28:07Z</time></trkpt><trkpt lat="40.79885407833311" lon="9.211602673288501"><ele>315.0</ele><time>2026-05-01T14:28:08Z</time></trkpt><trkpt lat="40.7989158449419" lon="9.211769999194088"><ele>315.4</ele><time>2026-05-01T14:28:09Z</time></trkpt><trkpt lat="40.79897102657127" lon="9.211935331976976"><ele>315.8</ele><time>2026-05-01T14:28:10Z</time></trkpt><trkpt lat="40.799046437931146" lon="9.21206289040056"><ele>316.2</ele><time>2026-05-01T14:28:11Z</time></trkpt><trkpt lat="40.799091890439044" lon="9.212185201829843"><ele>316.6</ele><time>2026-05-01T14:28:12Z</time></trkpt><trkpt lat="40.79912993859765" lon="9.21227266627171"><ele>317.0</ele><time>2026-05-01T14:28:13Z</time></trkpt><trkpt lat="40.799148789168115" lon="9.212366861186721"><ele>317.0</ele><time>2026-05-01T14:28:14Z</time></trkpt><trkpt lat="40.799134672824486" lon="9.212487460655607"><ele>317.0</ele><time>2026-05-01T14:28:15Z</time></trkpt><trkpt lat="40.79917706119491" lon="9.212633592180815"><ele>317.0</ele><time>2026-05-01T14:28:16Z</time></trkpt><trkpt lat="40.79916714165123" lon="9.212745871847932"><ele>317.0</ele><time>2026-05-01T14:28:17Z</time></trkpt><trkpt lat="40.7991370286302" lon="9.21282285151369"><ele>317.0</ele><time>2026-05-01T14:28:18Z</time></trkpt><trkpt lat="40.799057398313884" lon="9.212892565149303"><ele>317.0</ele><time>2026-05-01T14:28:19Z</time></trkpt><trkpt lat="40.799000091184006" lon="9.213012345151288"><ele>317.0</ele><time>2026-05-01T14:28:20Z</time></trkpt><trkpt lat="40.79899251251837" lon="9.213169982800755"><ele>317.0</ele><time>2026-05-01T14:28:21Z</time></trkpt><trkpt lat="40.79899188470273" lon="9.21333004253407"><ele>317.0</ele><time>2026-05-01T14:28:22Z</time></trkpt><trkpt lat="40.79898269821235" lon="9.213463678969491"><ele>317.6666666666667</ele><time>2026-05-01T14:28:23Z</time></trkpt><trkpt lat="40.79901203381043" lon="9.213559804538999"><ele>318.33333333333337</ele><time>2026-05-01T14:28:24Z</time></trkpt><trkpt lat="40.799057535049904" lon="9.213654115095917"><ele>319.0</ele><time>2026-05-01T14:28:25Z</time></trkpt><trkpt lat="40.799133452365126" lon="9.213737450082034"><ele>319.6666666666667</ele><time>2026-05-01T14:28:26Z</time></trkpt><trkpt lat="40.79918768180658" lon="9.213844164498731"><ele>320.3333333333333</ele><time>2026-05-01T14:28:27Z</time></trkpt><trkpt lat="40.79920378186668" lon="9.213958906266898"><ele>321.0</ele><time>2026-05-01T14:28:28Z</time></trkpt><trkpt lat="40.79919186670624" lon="9.214074928359894"><ele>323.20000000000005</ele><time>2026-05-01T14:28:29Z</time></trkpt><trkpt lat="40.799190004822236" lon="9.214218558540214"><ele>325.40000000000003</ele><time>2026-05-01T14:28:30Z</time></trkpt><trkpt lat="40.79919256087831" lon="9.214360043467513"><ele>327.6</ele><time>2026-05-01T14:28:31Z</time></trkpt><trkpt lat="40.799180280508054" lon="9.214484571574507"><ele>329.8</ele><time>2026-05-01T14:28:32Z</time></trkpt><trkpt lat="40.79912996286719" lon="9.214556340250748"><ele>332.0</ele><time>2026-05-01T14:28:33Z</time></trkpt><trkpt lat="40.79909802435729" lon="9.21466038145719"><ele>332.0</ele><time>2026-05-01T14:28:34Z</time></trkpt><trkpt lat="40.79909391833622" lon="9.214794570026035"><ele>332.0</ele><time>2026-05-01T14:28:35Z</time></trkpt><trkpt lat="40.79907092190951" lon="9.214922104234565"><ele>332.0</ele><time>2026-05-01T14:28:36Z</time></trkpt><trkpt lat="40.79907502348465" lon="9.215060931404304"><ele>332.0</ele><time>2026-05-01T14:28:37Z</time></trkpt><trkpt lat="40.79909769812346" lon="9.215195650223029"><ele>332.0</ele><time>2026-05-01T14:28:38Z</time></trkpt><trkpt lat="40.79909431151169" lon="9.215327138969212"><ele>334.6</ele><time>2026-05-01T14:28:39Z</time></trkpt><trkpt lat="40.79913527390408" lon="9.215456330725939"><ele>337.20000000000005</ele><time>2026-05-01T14:28:40Z</time></trkpt><trkpt lat="40.799163194599025" lon="9.215586046628436"><ele>339.8</ele><time>2026-05-01T14:28:41Z</time></trkpt><trkpt lat="40.79917268889158" lon="9.215721748358906"><ele>342.4</ele><time>2026-05-01T14:28:42Z</time></trkpt><trkpt lat="40.799191685470305" lon="9.215852646924352"><ele>345.0</ele><time>2026-05-01T14:28:43Z</time></trkpt><trkpt lat="40.799207207723555" lon="9.21598450052388"><ele>347.0</ele><time>2026-05-01T14:28:44Z</time></trkpt><trkpt lat="40.799225236055186" lon="9.216112168950483"><ele>349.0</ele><time>2026-05-01T14:28:45Z</time></trkpt><trkpt lat="40.7992444137921" lon="9.2162466536617"><ele>351.0</ele><time>2026-05-01T14:28:46Z</time></trkpt><trkpt lat="40.799264906680044" lon="9.216389977661057"><ele>353.0</ele><time>2026-05-01T14:28:47Z</time></trkpt><trkpt lat="40.79928782508266" lon="9.216538318021723"><ele>355.0</ele><time>2026-05-01T14:28:48Z</time></trkpt><trkpt lat="40.799313934219526" lon="9.216688885578561"><ele>355.6</ele><time>2026-05-01T14:28:49Z</time></trkpt><trkpt lat="40.799334491321055" lon="9.216832527931603"><ele>356.2</ele><time>2026-05-01T14:28:50Z</time></trkpt><trkpt lat="40.799346195596506" lon="9.216961938235807"><ele>356.79999999999995</ele><time>2026-05-01T14:28:51Z</time></trkpt><trkpt lat="40.79935043856791" lon="9.217093987717387"><ele>357.4</ele><time>2026-05-01T14:28:52Z</time></trkpt><trkpt lat="40.79933370322773" lon="9.2172351165894"><ele>358.0</ele><time>2026-05-01T14:28:53Z</time></trkpt><trkpt lat="40.79933635087675" lon="9.217395100836326"><ele>363.2</ele><time>2026-05-01T14:28:54Z</time></trkpt><trkpt lat="40.79934013416759" lon="9.217543366487615"><ele>368.4</ele><time>2026-05-01T14:28:55Z</time></trkpt><trkpt lat="40.79934882103262" lon="9.217686866477173"><ele>373.59999999999997</ele><time>2026-05-01T14:28:56Z</time></trkpt><trkpt lat="40.799363017089874" lon="9.217816067145836"><ele>378.79999999999995</ele><time>2026-05-01T14:28:57Z</time></trkpt><trkpt lat="40.79940930046804" lon="9.217929624494122"><ele>384.0</ele><time>2026-05-01T14:28:58Z</time></trkpt><trkpt lat="40.79947639522266" lon="9.21804788749146"><ele>383.75</ele><time>2026-05-01T14:28:59Z</time></trkpt><trkpt lat="40.799551734460515" lon="9.218171268020846"><ele>383.5</ele><time>2026-05-01T14:29:00Z</time></trkpt><trkpt lat="40.799631973097455" lon="9.21830344417394"><ele>383.25</ele><time>2026-05-01T14:29:01Z</time></trkpt><trkpt lat="40.79971808419336" lon="9.218431905086103"><ele>383.0</ele><time>2026-05-01T14:29:02Z</time></trkpt><trkpt lat="40.79979416175058" lon="9.218544872902168"><ele>383.0</ele><time>2026-05-01T14:29:03Z</time></trkpt><trkpt lat="40.79984649623449" lon="9.218679494098117"><ele>383.0</ele><time>2026-05-01T14:29:04Z</time></trkpt><trkpt lat="40.799900997953344" lon="9.218805361240252"><ele>383.0</ele><time>2026-05-01T14:29:05Z</time></trkpt><trkpt lat="40.799952064849876" lon="9.218945777775069"><ele>383.0</ele><time>2026-05-01T14:29:06Z</time></trkpt><trkpt lat="40.80000990149896" lon="9.219099804961738"><ele>381.75</ele><time>2026-05-01T14:29:07Z</time></trkpt><trkpt lat="40.80008938152772" lon="9.219242203763796"><ele>380.5</ele><time>2026-05-01T14:29:08Z</time></trkpt><trkpt lat="40.80016087452542" lon="9.219382450272697"><ele>379.25</ele><time>2026-05-01T14:29:09Z</time></trkpt><trkpt lat="40.80024968698508" lon="9.21951583169"><ele>378.0</ele><time>2026-05-01T14:29:10Z</time></trkpt><trkpt lat="40.80033817670252" lon="9.219668560556158"><ele>381.25</ele><time>2026-05-01T14:29:11Z</time></trkpt><trkpt lat="40.80041921014977" lon="9.219814568958897"><ele>384.5</ele><time>2026-05-01T14:29:12Z</time></trkpt><trkpt lat="40.800497106302146" lon="9.219955790721034"><ele>387.75</ele><time>2026-05-01T14:29:13Z</time></trkpt><trkpt lat="40.80057216674046" lon="9.220076898747076"><ele>391.0</ele><time>2026-05-01T14:29:14Z</time></trkpt><trkpt lat="40.800643093611576" lon="9.220171581681118"><ele>391.0</ele><time>2026-05-01T14:29:15Z</time></trkpt><trkpt lat="40.80072807363243" lon="9.22024056640199"><ele>391.0</ele><time>2026-05-01T14:29:16Z</time></trkpt><trkpt lat="40.800821849117725" lon="9.220285069411263"><ele>391.0</ele><time>2026-05-01T14:29:17Z</time></trkpt><trkpt lat="40.80091599034217" lon="9.22030560538258"><ele>391.0</ele><time>2026-05-01T14:29:18Z</time></trkpt><trkpt lat="40.801013245164" lon="9.22030815346353"><ele>391.0</ele><time>2026-05-01T14:29:19Z</time></trkpt><trkpt lat="40.80111560283641" lon="9.220314818637343"><ele>394.75</ele><time>2026-05-01T14:29:20Z</time></trkpt><trkpt lat="40.80121000124539" lon="9.220336590402828"><ele>398.5</ele><time>2026-05-01T14:29:21Z</time></trkpt><trkpt lat="40.80130990944593" lon="9.22039670034794"><ele>402.25</ele><time>2026-05-01T14:29:22Z</time></trkpt><trkpt lat="40.80142094152576" lon="9.220449244469082"><ele>406.0</ele><time>2026-05-01T14:29:23Z</time></trkpt><trkpt lat="40.80154882977818" lon="9.220494003745841"><ele>406.0</ele><time>2026-05-01T14:29:24Z</time></trkpt><trkpt lat="40.80165943600826" lon="9.220574511070735"><ele>406.0</ele><time>2026-05-01T14:29:25Z</time></trkpt><trkpt lat="40.801730513551185" lon="9.220702722532526"><ele>406.0</ele><time>2026-05-01T14:29:26Z</time></trkpt><trkpt lat="40.80177744574432" lon="9.220851153755994"><ele>406.0</ele><time>2026-05-01T14:29:27Z</time></trkpt><trkpt lat="40.80183333379169" lon="9.221024152742837"><ele>407.0</ele><time>2026-05-01T14:29:28Z</time></trkpt><trkpt lat="40.801870306638804" lon="9.221202332019434"><ele>408.0</ele><time>2026-05-01T14:29:29Z</time></trkpt><trkpt lat="40.80191582179326" lon="9.221391249754749"><ele>409.0</ele><time>2026-05-01T14:29:30Z</time></trkpt><trkpt lat="40.80194750155261" lon="9.221594142575013"><ele>410.0</ele><time>2026-05-01T14:29:31Z</time></trkpt><trkpt lat="40.80200094813098" lon="9.221776182524776"><ele>406.8</ele><time>2026-05-01T14:29:32Z</time></trkpt><trkpt lat="40.80205628375954" lon="9.221915748345818"><ele>403.6</ele><time>2026-05-01T14:29:33Z</time></trkpt><trkpt lat="40.80211915265098" lon="9.222011655695301"><ele>400.4</ele><time>2026-05-01T14:29:34Z</time></trkpt><trkpt lat="40.8021972606807" lon="9.222071152304903"><ele>397.2</ele><time>2026-05-01T14:29:35Z</time></trkpt><trkpt lat="40.80228550751931" lon="9.222070445572907"><ele>394.0</ele><time>2026-05-01T14:29:36Z</time></trkpt><trkpt lat="40.802388013878975" lon="9.222018737932357"><ele>394.0</ele><time>2026-05-01T14:29:37Z</time></trkpt><trkpt lat="40.802494397402576" lon="9.221965096388676"><ele>394.0</ele><time>2026-05-01T14:29:38Z</time></trkpt><trkpt lat="40.80259987352691" lon="9.221962557987663"><ele>394.0</ele><time>2026-05-01T14:29:39Z</time></trkpt><trkpt lat="40.8026897326283" lon="9.222012919171464"><ele>394.0</ele><time>2026-05-01T14:29:40Z</time></trkpt><trkpt lat="40.80273202124687" lon="9.222139604487904"><ele>394.0</ele><time>2026-05-01T14:29:41Z</time></trkpt><trkpt lat="40.802788480163144" lon="9.222261728836578"><ele>392.5</ele><time>2026-05-01T14:29:42Z</time></trkpt><trkpt lat="40.802866503217324" lon="9.222406417998721"><ele>391.0</ele><time>2026-05-01T14:29:43Z</time></trkpt><trkpt lat="40.802967545523124" lon="9.222535233768689"><ele>389.5</ele><time>2026-05-01T14:29:44Z</time></trkpt><trkpt lat="40.8030613236241" lon="9.22263067762364"><ele>388.0</ele><time>2026-05-01T14:29:45Z</time></trkpt><trkpt lat="40.803119286783655" lon="9.222748752892828"><ele>388.0</ele><time>2026-05-01T14:29:46Z</time></trkpt><trkpt lat="40.80318974323699" lon="9.222864810286815"><ele>388.0</ele><time>2026-05-01T14:29:47Z</time></trkpt><trkpt lat="40.80325761578709" lon="9.222973865799958"><ele>388.0</ele><time>2026-05-01T14:29:48Z</time></trkpt><trkpt lat="40.80332258083677" lon="9.223078249783857"><ele>388.0</ele><time>2026-05-01T14:29:49Z</time></trkpt><trkpt lat="40.80338661195142" lon="9.223182210341736"><ele>388.0</ele><time>2026-05-01T14:29:50Z</time></trkpt><trkpt lat="40.80345076873699" lon="9.223254844763323"><ele>385.2</ele><time>2026-05-01T14:29:51Z</time></trkpt><trkpt lat="40.803465578683344" lon="9.22334790292111"><ele>382.4</ele><time>2026-05-01T14:29:52Z</time></trkpt><trkpt lat="40.803452379585636" lon="9.223495887137572"><ele>379.59999999999997</ele><time>2026-05-01T14:29:54Z</time></trkpt><trkpt lat="40.80337346783337" lon="9.223553215387948"><ele>376.79999999999995</ele><time>2026-05-01T14:29:55Z</time></trkpt><trkpt lat="40.803324270890165" lon="9.22364575505386"><ele>374.0</ele><time>2026-05-01T14:29:56Z</time></trkpt><trkpt lat="40.80327294907436" lon="9.223742291818292"><ele>374.0</ele><time>2026-05-01T14:29:57Z</time></trkpt><trkpt lat="40.803217990746376" lon="9.223840104939267"><ele>374.0</ele><time>2026-05-01T14:29:58Z</time></trkpt><trkpt lat="40.80315366561963" lon="9.22392559597447"><ele>374.0</ele><time>2026-05-01T14:29:59Z</time></trkpt><trkpt lat="40.8030817895107" lon="9.224014221604206"><ele>374.0</ele><time>2026-05-01T14:30:00Z</time></trkpt><trkpt lat="40.80300915228781" lon="9.224103785432309"><ele>374.0</ele><time>2026-05-01T14:30:01Z</time></trkpt><trkpt lat="40.80295230319697" lon="9.224218355584735"><ele>372.4</ele><time>2026-05-01T14:30:02Z</time></trkpt><trkpt lat="40.80287670675508" lon="9.224315910839989"><ele>370.79999999999995</ele><time>2026-05-01T14:30:03Z</time></trkpt><trkpt lat="40.80282001760163" lon="9.224434811250969"><ele>369.20000000000005</ele><time>2026-05-01T14:30:04Z</time></trkpt><trkpt lat="40.80277079678221" lon="9.224556903061334"><ele>367.6</ele><time>2026-05-01T14:30:05Z</time></trkpt><trkpt lat="40.80274447457056" lon="9.224687992242789"><ele>366.0</ele><time>2026-05-01T14:30:06Z</time></trkpt><trkpt lat="40.80271118580671" lon="9.22481403049503"><ele>365.0</ele><time>2026-05-01T14:30:07Z</time></trkpt><trkpt lat="40.8026672521735" lon="9.224936779986685"><ele>364.0</ele><time>2026-05-01T14:30:08Z</time></trkpt><trkpt lat="40.80264306147932" lon="9.225065796907069"><ele>363.0</ele><time>2026-05-01T14:30:09Z</time></trkpt><trkpt lat="40.80260537364148" lon="9.225192563552863"><ele>362.0</ele><time>2026-05-01T14:30:10Z</time></trkpt><trkpt lat="40.8025587098651" lon="9.225320249908826"><ele>361.0</ele><time>2026-05-01T14:30:11Z</time></trkpt><trkpt lat="40.802535620281965" lon="9.225456002638268"><ele>358.0</ele><time>2026-05-01T14:30:12Z</time></trkpt><trkpt lat="40.802500340146985" lon="9.225584030657032"><ele>355.0</ele><time>2026-05-01T14:30:13Z</time></trkpt><trkpt lat="40.802482093859645" lon="9.225712885101816"><ele>352.0</ele><time>2026-05-01T14:30:14Z</time></trkpt><trkpt lat="40.802489631604196" lon="9.22584452383303"><ele>349.0</ele><time>2026-05-01T14:30:15Z</time></trkpt><trkpt lat="40.80251064823193" lon="9.225974404878365"><ele>346.0</ele><time>2026-05-01T14:30:16Z</time></trkpt><trkpt lat="40.80250689904174" lon="9.226105260579091"><ele>345.0</ele><time>2026-05-01T14:30:17Z</time></trkpt><trkpt lat="40.802520383066266" lon="9.226226889039202"><ele>344.0</ele><time>2026-05-01T14:30:18Z</time></trkpt><trkpt lat="40.8025370529308" lon="9.226340077859332"><ele>343.0</ele><time>2026-05-01T14:30:19Z</time></trkpt><trkpt lat="40.8026101303786" lon="9.226431854668157"><ele>342.0</ele><time>2026-05-01T14:30:20Z</time></trkpt><trkpt lat="40.80268757887264" lon="9.226507330712137"><ele>341.0</ele><time>2026-05-01T14:30:21Z</time></trkpt><trkpt lat="40.80275753843735" lon="9.226603376635007"><ele>341.0</ele><time>2026-05-01T14:30:22Z</time></trkpt><trkpt lat="40.80281672362325" lon="9.226712439694063"><ele>341.0</ele><time>2026-05-01T14:30:23Z</time></trkpt><trkpt lat="40.802874886593344" lon="9.226841542462646"><ele>341.0</ele><time>2026-05-01T14:30:24Z</time></trkpt><trkpt lat="40.80292885247021" lon="9.226982484769715"><ele>341.0</ele><time>2026-05-01T14:30:25Z</time></trkpt><trkpt lat="40.80298425477803" lon="9.227128831034275"><ele>341.0</ele><time>2026-05-01T14:30:26Z</time></trkpt><trkpt lat="40.80304168024956" lon="9.227272980953302"><ele>341.0</ele><time>2026-05-01T14:30:27Z</time></trkpt><trkpt lat="40.80308169943049" lon="9.227428154531845"><ele>341.0</ele><time>2026-05-01T14:30:28Z</time></trkpt><trkpt lat="40.803115448511186" lon="9.227558842357585"><ele>341.0</ele><time>2026-05-01T14:30:29Z</time></trkpt><trkpt lat="40.803161067903076" lon="9.2276525857276"><ele>341.0</ele><time>2026-05-01T14:30:30Z</time></trkpt><trkpt lat="40.80321086081729" lon="9.227739111176708"><ele>342.0</ele><time>2026-05-01T14:30:31Z</time></trkpt><trkpt lat="40.80331786620895" lon="9.227784983215843"><ele>343.0</ele><time>2026-05-01T14:30:32Z</time></trkpt><trkpt lat="40.80343709345676" lon="9.22784360027415"><ele>344.0</ele><time>2026-05-01T14:30:33Z</time></trkpt><trkpt lat="40.80357260729256" lon="9.227901030699021"><ele>345.0</ele><time>2026-05-01T14:30:34Z</time></trkpt><trkpt lat="40.80368669804155" lon="9.227995184311991"><ele>345.0</ele><time>2026-05-01T14:30:35Z</time></trkpt><trkpt lat="40.80378805150433" lon="9.22810356585509"><ele>345.0</ele><time>2026-05-01T14:30:36Z</time></trkpt><trkpt lat="40.803900134064726" lon="9.228202669395525"><ele>345.0</ele><time>2026-05-01T14:30:37Z</time></trkpt><trkpt lat="40.80399354379076" lon="9.22832502292582"><ele>345.0</ele><time>2026-05-01T14:30:38Z</time></trkpt><trkpt lat="40.8040782222215" lon="9.228433712043596"><ele>341.25</ele><time>2026-05-01T14:30:39Z</time></trkpt><trkpt lat="40.804160242064974" lon="9.228521779054082"><ele>337.5</ele><time>2026-05-01T14:30:40Z</time></trkpt><trkpt lat="40.804253321912654" lon="9.228588825547847"><ele>333.75</ele><time>2026-05-01T14:30:41Z</time></trkpt><trkpt lat="40.80436525824427" lon="9.22864291496701"><ele>330.0</ele><time>2026-05-01T14:30:42Z</time></trkpt><trkpt lat="40.80448668402792" lon="9.228692326159345"><ele>329.75</ele><time>2026-05-01T14:30:43Z</time></trkpt><trkpt lat="40.8046019738424" lon="9.228766844023822"><ele>329.5</ele><time>2026-05-01T14:30:44Z</time></trkpt><trkpt lat="40.80469183024632" lon="9.228887728272072"><ele>329.25</ele><time>2026-05-01T14:30:45Z</time></trkpt><trkpt lat="40.804799529215224" lon="9.22896975186491"><ele>329.0</ele><time>2026-05-01T14:30:46Z</time></trkpt><trkpt lat="40.80489685879724" lon="9.229052277086401"><ele>328.0</ele><time>2026-05-01T14:30:47Z</time></trkpt><trkpt lat="40.8049892016304" lon="9.229129452637514"><ele>327.0</ele><time>2026-05-01T14:30:48Z</time></trkpt><trkpt lat="40.80506961302294" lon="9.22921860483577"><ele>326.0</ele><time>2026-05-01T14:30:49Z</time></trkpt><trkpt lat="40.80514344729132" lon="9.229331988302551"><ele>325.0</ele><time>2026-05-01T14:30:50Z</time></trkpt><trkpt lat="40.8052178014022" lon="9.229448938214915"><ele>324.0</ele><time>2026-05-01T14:30:51Z</time></trkpt><trkpt lat="40.80530611876452" lon="9.229551886506217"><ele>324.0</ele><time>2026-05-01T14:30:52Z</time></trkpt><trkpt lat="40.805410218204926" lon="9.22964932874397"><ele>324.0</ele><time>2026-05-01T14:30:53Z</time></trkpt><trkpt lat="40.805517330722985" lon="9.229743345483296"><ele>324.0</ele><time>2026-05-01T14:30:54Z</time></trkpt><trkpt lat="40.80561119598587" lon="9.229841083512698"><ele>324.0</ele><time>2026-05-01T14:30:55Z</time></trkpt><trkpt lat="40.805696768167046" lon="9.229944235899586"><ele>323.75</ele><time>2026-05-01T14:30:56Z</time></trkpt><trkpt lat="40.80578278625693" lon="9.230054597532744"><ele>323.5</ele><time>2026-05-01T14:30:57Z</time></trkpt><trkpt lat="40.80586610068349" lon="9.230175220484526"><ele>323.25</ele><time>2026-05-01T14:30:58Z</time></trkpt><trkpt lat="40.80594866601038" lon="9.230304887712148"><ele>323.0</ele><time>2026-05-01T14:30:59Z</time></trkpt><trkpt lat="40.80602806995125" lon="9.23043266169653"><ele>324.0</ele><time>2026-05-01T14:31:00Z</time></trkpt><trkpt lat="40.8061044838364" lon="9.230551789843378"><ele>325.0</ele><time>2026-05-01T14:31:01Z</time></trkpt><trkpt lat="40.806175977507316" lon="9.230663421707332"><ele>326.0</ele><time>2026-05-01T14:31:02Z</time></trkpt><trkpt lat="40.806244002104336" lon="9.230765708039673"><ele>327.0</ele><time>2026-05-01T14:31:03Z</time></trkpt><trkpt lat="40.80631326734431" lon="9.230859638461618"><ele>328.0</ele><time>2026-05-01T14:31:04Z</time></trkpt><trkpt lat="40.806393113491225" lon="9.230932283527476"><ele>328.0</ele><time>2026-05-01T14:31:05Z</time></trkpt><trkpt lat="40.8064809229343" lon="9.230994242514251"><ele>328.0</ele><time>2026-05-01T14:31:06Z</time></trkpt><trkpt lat="40.80657111459937" lon="9.23105072878513"><ele>328.0</ele><time>2026-05-01T14:31:07Z</time></trkpt><trkpt lat="40.80666330581016" lon="9.231107776330283"><ele>328.0</ele><time>2026-05-01T14:31:08Z</time></trkpt><trkpt lat="40.806752130920124" lon="9.23116915874855"><ele>328.0</ele><time>2026-05-01T14:31:09Z</time></trkpt><trkpt lat="40.80682633498923" lon="9.231265328856825"><ele>330.75</ele><time>2026-05-01T14:31:10Z</time></trkpt><trkpt lat="40.806905118664" lon="9.231365937025737"><ele>333.5</ele><time>2026-05-01T14:31:11Z</time></trkpt><trkpt lat="40.806977846426655" lon="9.231483507298416"><ele>336.25</ele><time>2026-05-01T14:31:12Z</time></trkpt><trkpt lat="40.80705871244798" lon="9.231629553362481"><ele>339.0</ele><time>2026-05-01T14:31:13Z</time></trkpt><trkpt lat="40.80715029282717" lon="9.23179489486784"><ele>339.0</ele><time>2026-05-01T14:31:14Z</time></trkpt><trkpt lat="40.807258861571206" lon="9.231944960777978"><ele>339.0</ele><time>2026-05-01T14:31:15Z</time></trkpt><trkpt lat="40.80737009318331" lon="9.232094296202238"><ele>339.0</ele><time>2026-05-01T14:31:16Z</time></trkpt><trkpt lat="40.8074912777849" lon="9.232245967881369"><ele>335.3333333333333</ele><time>2026-05-01T14:31:17Z</time></trkpt><trkpt lat="40.807588293657325" lon="9.23242512182315"><ele>331.66666666666663</ele><time>2026-05-01T14:31:18Z</time></trkpt><trkpt lat="40.80769927848725" lon="9.232574127077712"><ele>328.0</ele><time>2026-05-01T14:31:19Z</time></trkpt><trkpt lat="40.80779257775581" lon="9.23272243904931"><ele>329.2</ele><time>2026-05-01T14:31:20Z</time></trkpt><trkpt lat="40.807881442175244" lon="9.232838893357075"><ele>330.4</ele><time>2026-05-01T14:31:21Z</time></trkpt><trkpt lat="40.80794930892279" lon="9.232927252106371"><ele>331.59999999999997</ele><time>2026-05-01T14:31:22Z</time></trkpt><trkpt lat="40.807991305975754" lon="9.233018721219544"><ele>332.79999999999995</ele><time>2026-05-01T14:31:23Z</time></trkpt><trkpt lat="40.80799024947525" lon="9.233132136957726"><ele>334.0</ele><time>2026-05-01T14:31:24Z</time></trkpt><trkpt lat="40.80795593524866" lon="9.233236563070127"><ele>334.0</ele><time>2026-05-01T14:31:25Z</time></trkpt><trkpt lat="40.80789487278883" lon="9.233311062666782"><ele>334.0</ele><time>2026-05-01T14:31:26Z</time></trkpt><trkpt lat="40.80780197123209" lon="9.233363679257478"><ele>334.0</ele><time>2026-05-01T14:31:27Z</time></trkpt><trkpt lat="40.80769103893046" lon="9.233443140403988"><ele>334.0</ele><time>2026-05-01T14:31:28Z</time></trkpt><trkpt lat="40.80757549441556" lon="9.233531487049763"><ele>334.0</ele><time>2026-05-01T14:31:29Z</time></trkpt><trkpt lat="40.8074702150749" lon="9.233627935454528"><ele>330.0</ele><time>2026-05-01T14:31:30Z</time></trkpt><trkpt lat="40.80737239835508" lon="9.233740294253582"><ele>326.0</ele><time>2026-05-01T14:31:31Z</time></trkpt><trkpt lat="40.80727767920649" lon="9.233855995280797"><ele>322.0</ele><time>2026-05-01T14:31:32Z</time></trkpt><trkpt lat="40.80719095461652" lon="9.233978684323317"><ele>318.0</ele><time>2026-05-01T14:31:33Z</time></trkpt><trkpt lat="40.80710666900899" lon="9.23410820605076"><ele>317.5</ele><time>2026-05-01T14:31:34Z</time></trkpt><trkpt lat="40.80702700417234" lon="9.234237539207488"><ele>317.0</ele><time>2026-05-01T14:31:35Z</time></trkpt><trkpt lat="40.80694769604848" lon="9.234361111970872"><ele>316.5</ele><time>2026-05-01T14:31:36Z</time></trkpt><trkpt lat="40.80686852995638" lon="9.234481516211817"><ele>316.0</ele><time>2026-05-01T14:31:37Z</time></trkpt><trkpt lat="40.806790967089924" lon="9.234597091791379"><ele>314.2</ele><time>2026-05-01T14:31:38Z</time></trkpt><trkpt lat="40.80671415155577" lon="9.23471028608247"><ele>312.40000000000003</ele><time>2026-05-01T14:31:39Z</time></trkpt><trkpt lat="40.80663897686349" lon="9.234814999578271"><ele>310.6</ele><time>2026-05-01T14:31:40Z</time></trkpt><trkpt lat="40.80657521942417" lon="9.234916047765322"><ele>308.8</ele><time>2026-05-01T14:31:41Z</time></trkpt><trkpt lat="40.806545508906986" lon="9.235016755504583"><ele>307.0</ele><time>2026-05-01T14:31:42Z</time></trkpt><trkpt lat="40.80655668078789" lon="9.235122519665703"><ele>306.4285714285714</ele><time>2026-05-01T14:31:43Z</time></trkpt><trkpt lat="40.80658534584423" lon="9.235213422735756"><ele>305.85714285714283</ele><time>2026-05-01T14:31:44Z</time></trkpt><trkpt lat="40.80657450401379" lon="9.23530406566413"><ele>305.2857142857143</ele><time>2026-05-01T14:31:45Z</time></trkpt><trkpt lat="40.80657464165858" lon="9.235389938946344"><ele>304.71428571428567</ele><time>2026-05-01T14:31:46Z</time></trkpt><trkpt lat="40.806574641659466" lon="9.235475902163415"><ele>304.1428571428571</ele><time>2026-05-01T14:31:47Z</time></trkpt><trkpt lat="40.806555380080376" lon="9.23556894559092"><ele>303.57142857142856</ele><time>2026-05-01T14:31:49Z</time></trkpt><trkpt lat="40.80646853729496" lon="9.235620505418876"><ele>303.0</ele><time>2026-05-01T14:31:52Z</time></trkpt><trkpt lat="40.806407720633196" lon="9.235655463487605"><ele>304.0</ele><time>2026-05-01T14:31:53Z</time></trkpt><trkpt lat="40.80633374226933" lon="9.235697987029745"><ele>305.0</ele><time>2026-05-01T14:31:54Z</time></trkpt><trkpt lat="40.80625802673916" lon="9.23576354999765"><ele>306.0</ele><time>2026-05-01T14:31:55Z</time></trkpt><trkpt lat="40.80616666146091" lon="9.235799591831501"><ele>307.0</ele><time>2026-05-01T14:31:56Z</time></trkpt><trkpt lat="40.80608420871473" lon="9.235858879928333"><ele>308.0</ele><time>2026-05-01T14:31:57Z</time></trkpt><trkpt lat="40.80599482385126" lon="9.23591589249879"><ele>308.0</ele><time>2026-05-01T14:31:58Z</time></trkpt><trkpt lat="40.805896614022615" lon="9.2359748366076"><ele>308.0</ele><time>2026-05-01T14:31:59Z</time></trkpt><trkpt lat="40.80578823363556" lon="9.236011060871968"><ele>308.0</ele><time>2026-05-01T14:32:00Z</time></trkpt><trkpt lat="40.80569508141852" lon="9.236082941566533"><ele>308.0</ele><time>2026-05-01T14:32:01Z</time></trkpt><trkpt lat="40.80559742361693" lon="9.236141277471805"><ele>308.0</ele><time>2026-05-01T14:32:02Z</time></trkpt><trkpt lat="40.80550828896167" lon="9.236217640117038"><ele>308.0</ele><time>2026-05-01T14:32:03Z</time></trkpt><trkpt lat="40.80540868192403" lon="9.236282677449235"><ele>308.0</ele><time>2026-05-01T14:32:04Z</time></trkpt><trkpt lat="40.80531898715811" lon="9.236381209040493"><ele>308.0</ele><time>2026-05-01T14:32:05Z</time></trkpt><trkpt lat="40.80523513340099" lon="9.23649082208224"><ele>308.0</ele><time>2026-05-01T14:32:06Z</time></trkpt><trkpt lat="40.805158123428114" lon="9.23662109413484"><ele>306.75</ele><time>2026-05-01T14:32:07Z</time></trkpt><trkpt lat="40.80509278674582" lon="9.236772065638535"><ele>305.5</ele><time>2026-05-01T14:32:08Z</time></trkpt><trkpt lat="40.8050313879663" lon="9.236930709607634"><ele>304.25</ele><time>2026-05-01T14:32:09Z</time></trkpt><trkpt lat="40.804969197111745" lon="9.237091397880274"><ele>303.0</ele><time>2026-05-01T14:32:10Z</time></trkpt><trkpt lat="40.80490711999698" lon="9.237254822543953"><ele>303.75</ele><time>2026-05-01T14:32:11Z</time></trkpt><trkpt lat="40.80484449934532" lon="9.237419678102817"><ele>304.5</ele><time>2026-05-01T14:32:12Z</time></trkpt><trkpt lat="40.80479584757009" lon="9.237595305170515"><ele>305.25</ele><time>2026-05-01T14:32:13Z</time></trkpt><trkpt lat="40.80473211103235" lon="9.237762322039467"><ele>306.0</ele><time>2026-05-01T14:32:14Z</time></trkpt><trkpt lat="40.80466828418347" lon="9.237929980484338"><ele>306.0</ele><time>2026-05-01T14:32:15Z</time></trkpt><trkpt lat="40.80460420946737" lon="9.238099780856523"><ele>306.0</ele><time>2026-05-01T14:32:16Z</time></trkpt><trkpt lat="40.804524140838176" lon="9.238256855944009"><ele>306.0</ele><time>2026-05-01T14:32:17Z</time></trkpt><trkpt lat="40.80445700148414" lon="9.23842175578779"><ele>306.0</ele><time>2026-05-01T14:32:18Z</time></trkpt><trkpt lat="40.80438785800111" lon="9.238576879051855"><ele>303.0</ele><time>2026-05-01T14:32:19Z</time></trkpt><trkpt lat="40.804315582391695" lon="9.238713133428933"><ele>300.0</ele><time>2026-05-01T14:32:20Z</time></trkpt><trkpt lat="40.80423470231633" lon="9.238829987287104"><ele>297.0</ele><time>2026-05-01T14:32:21Z</time></trkpt><trkpt lat="40.80415306877871" lon="9.238926269609276"><ele>294.0</ele><time>2026-05-01T14:32:22Z</time></trkpt><trkpt lat="40.8040791182739" lon="9.239005699073253"><ele>294.0</ele><time>2026-05-01T14:32:23Z</time></trkpt><trkpt lat="40.80402072089403" lon="9.23906667953193"><ele>294.0</ele><time>2026-05-01T14:32:24Z</time></trkpt><trkpt lat="40.80396930222121" lon="9.239131440521726"><ele>294.0</ele><time>2026-05-01T14:32:26Z</time></trkpt><trkpt lat="40.80406627316331" lon="9.239297243049505"><ele>294.0</ele><time>2026-05-01T14:32:27Z</time></trkpt><trkpt lat="40.80414659305866" lon="9.23934245594135"><ele>294.0</ele><time>2026-05-01T14:32:28Z</time></trkpt><trkpt lat="40.804230377902414" lon="9.23938739025645"><ele>294.0</ele><time>2026-05-01T14:32:29Z</time></trkpt><trkpt lat="40.804307038667524" lon="9.23947478130391"><ele>294.0</ele><time>2026-05-01T14:32:30Z</time></trkpt><trkpt lat="40.80440282201409" lon="9.239535698806195"><ele>294.0</ele><time>2026-05-01T14:32:31Z</time></trkpt><trkpt lat="40.804495590468804" lon="9.239631708961362"><ele>294.0</ele><time>2026-05-01T14:32:32Z</time></trkpt><trkpt lat="40.80457854383323" lon="9.239759275667298"><ele>296.0</ele><time>2026-05-01T14:32:33Z</time></trkpt><trkpt lat="40.80464706229965" lon="9.239900371358248"><ele>298.0</ele><time>2026-05-01T14:32:34Z</time></trkpt><trkpt lat="40.80469234056727" lon="9.240061748033598"><ele>300.0</ele><time>2026-05-01T14:32:35Z</time></trkpt><trkpt lat="40.804735293157286" lon="9.24024342783996"><ele>302.0</ele><time>2026-05-01T14:32:36Z</time></trkpt><trkpt lat="40.8047727995575" lon="9.240403488862103"><ele>302.0</ele><time>2026-05-01T14:32:37Z</time></trkpt><trkpt lat="40.80480634219902" lon="9.24057659931968"><ele>302.0</ele><time>2026-05-01T14:32:38Z</time></trkpt><trkpt lat="40.80482574161301" lon="9.24076651906618"><ele>302.0</ele><time>2026-05-01T14:32:39Z</time></trkpt><trkpt lat="40.804837538511194" lon="9.240966117610489"><ele>302.0</ele><time>2026-05-01T14:32:40Z</time></trkpt><trkpt lat="40.8048453495883" lon="9.241171524716497"><ele>303.0</ele><time>2026-05-01T14:32:41Z</time></trkpt><trkpt lat="40.80485001542048" lon="9.24137980432519"><ele>304.0</ele><time>2026-05-01T14:32:42Z</time></trkpt><trkpt lat="40.804860521307546" lon="9.241595128586736"><ele>305.0</ele><time>2026-05-01T14:32:43Z</time></trkpt><trkpt lat="40.80488334638361" lon="9.241805242604297"><ele>306.33333333333337</ele><time>2026-05-01T14:32:44Z</time></trkpt><trkpt lat="40.80489733167546" lon="9.242015739495136"><ele>307.6666666666667</ele><time>2026-05-01T14:32:45Z</time></trkpt><trkpt lat="40.80490742645945" lon="9.242222061526745"><ele>309.0</ele><time>2026-05-01T14:32:46Z</time></trkpt><trkpt lat="40.80491748830542" lon="9.24242880053461"><ele>309.6666666666667</ele><time>2026-05-01T14:32:47Z</time></trkpt><trkpt lat="40.80492983386127" lon="9.242640005807043"><ele>310.33333333333337</ele><time>2026-05-01T14:32:48Z</time></trkpt><trkpt lat="40.804950586981036" lon="9.242855833228178"><ele>311.0</ele><time>2026-05-01T14:32:49Z</time></trkpt><trkpt lat="40.80498132941241" lon="9.24306960102549"><ele>312.33333333333337</ele><time>2026-05-01T14:32:50Z</time></trkpt><trkpt lat="40.805009441924945" lon="9.243279384978257"><ele>313.6666666666667</ele><time>2026-05-01T14:32:51Z</time></trkpt><trkpt lat="40.80503545006122" lon="9.243490064446343"><ele>315.0</ele><time>2026-05-01T14:32:52Z</time></trkpt><trkpt lat="40.8050664524261" lon="9.24370466118463"><ele>315.0</ele><time>2026-05-01T14:32:53Z</time></trkpt><trkpt lat="40.80509923364638" lon="9.243920593040382"><ele>315.0</ele><time>2026-05-01T14:32:54Z</time></trkpt><trkpt lat="40.80513494151683" lon="9.244138641402719"><ele>315.0</ele><time>2026-05-01T14:32:55Z</time></trkpt><trkpt lat="40.80518938959556" lon="9.244356186573487"><ele>320.3333333333333</ele><time>2026-05-01T14:32:56Z</time></trkpt><trkpt lat="40.80523052186472" lon="9.244572196877481"><ele>325.66666666666663</ele><time>2026-05-01T14:32:57Z</time></trkpt><trkpt lat="40.80526292008096" lon="9.244793323820703"><ele>331.0</ele><time>2026-05-01T14:32:58Z</time></trkpt><trkpt lat="40.805337589767824" lon="9.244995676275344"><ele>331.0</ele><time>2026-05-01T14:32:59Z</time></trkpt><trkpt lat="40.8053857107756" lon="9.245203587026188"><ele>331.0</ele><time>2026-05-01T14:33:00Z</time></trkpt><trkpt lat="40.80545658221443" lon="9.245394673032289"><ele>331.0</ele><time>2026-05-01T14:33:01Z</time></trkpt><trkpt lat="40.80549442971206" lon="9.245603332277385"><ele>330.66666666666663</ele><time>2026-05-01T14:33:02Z</time></trkpt><trkpt lat="40.805526140479934" lon="9.245813481544355"><ele>330.3333333333333</ele><time>2026-05-01T14:33:03Z</time></trkpt><trkpt lat="40.8055442921899" lon="9.246029914610109"><ele>330.0</ele><time>2026-05-01T14:33:04Z</time></trkpt><trkpt lat="40.80558737546867" lon="9.246241547477998"><ele>330.0</ele><time>2026-05-01T14:33:05Z</time></trkpt><trkpt lat="40.8056338751213" lon="9.24644973271467"><ele>330.0</ele><time>2026-05-01T14:33:06Z</time></trkpt><trkpt lat="40.805679346890216" lon="9.24664966613798"><ele>330.0</ele><time>2026-05-01T14:33:07Z</time></trkpt><trkpt lat="40.805721689943695" lon="9.246835843155456"><ele>329.75</ele><time>2026-05-01T14:33:08Z</time></trkpt><trkpt lat="40.805765267121906" lon="9.247014618893227"><ele>329.5</ele><time>2026-05-01T14:33:09Z</time></trkpt><trkpt lat="40.80583101569329" lon="9.247186810664443"><ele>329.25</ele><time>2026-05-01T14:33:10Z</time></trkpt><trkpt lat="40.80587587957801" lon="9.247380385982252"><ele>329.0</ele><time>2026-05-01T14:33:11Z</time></trkpt><trkpt lat="40.80593784643476" lon="9.247565322748239"><ele>329.33333333333337</ele><time>2026-05-01T14:33:12Z</time></trkpt><trkpt lat="40.80600133080396" lon="9.247753215350276"><ele>329.6666666666667</ele><time>2026-05-01T14:33:13Z</time></trkpt><trkpt lat="40.806064906241204" lon="9.24794137762584"><ele>330.0</ele><time>2026-05-01T14:33:14Z</time></trkpt><trkpt lat="40.806126444086416" lon="9.248133057822303"><ele>328.0</ele><time>2026-05-01T14:33:15Z</time></trkpt><trkpt lat="40.80618689858383" lon="9.248328631536475"><ele>326.0</ele><time>2026-05-01T14:33:16Z</time></trkpt><trkpt lat="40.80624758507456" lon="9.248523015672367"><ele>324.0</ele><time>2026-05-01T14:33:17Z</time></trkpt><trkpt lat="40.80630899079689" lon="9.248707869271097"><ele>324.0</ele><time>2026-05-01T14:33:18Z</time></trkpt><trkpt lat="40.80638037474471" lon="9.24888234658611"><ele>324.0</ele><time>2026-05-01T14:33:19Z</time></trkpt><trkpt lat="40.80644173490854" lon="9.249061074761515"><ele>324.0</ele><time>2026-05-01T14:33:20Z</time></trkpt><trkpt lat="40.8064843068423" lon="9.249245908319088"><ele>324.0</ele><time>2026-05-01T14:33:21Z</time></trkpt><trkpt lat="40.806551703289195" lon="9.249426096153911"><ele>323.3333333333333</ele><time>2026-05-01T14:33:22Z</time></trkpt><trkpt lat="40.80659285662981" lon="9.249628567122025"><ele>322.66666666666663</ele><time>2026-05-01T14:33:23Z</time></trkpt><trkpt lat="40.80663213311566" lon="9.249832616511831"><ele>322.0</ele><time>2026-05-01T14:33:24Z</time></trkpt><trkpt lat="40.80667031896719" lon="9.250028660278906"><ele>322.75</ele><time>2026-05-01T14:33:25Z</time></trkpt><trkpt lat="40.80671090914811" lon="9.250213989860162"><ele>323.5</ele><time>2026-05-01T14:33:26Z</time></trkpt><trkpt lat="40.80676303619316" lon="9.250393601816993"><ele>324.25</ele><time>2026-05-01T14:33:27Z</time></trkpt><trkpt lat="40.80683730813741" lon="9.250567765248046"><ele>325.0</ele><time>2026-05-01T14:33:28Z</time></trkpt><trkpt lat="40.80690182392704" lon="9.250761345451314"><ele>323.0</ele><time>2026-05-01T14:33:29Z</time></trkpt><trkpt lat="40.80697715098305" lon="9.250938248520132"><ele>321.0</ele><time>2026-05-01T14:33:30Z</time></trkpt><trkpt lat="40.80705614048017" lon="9.251126514425923"><ele>319.0</ele><time>2026-05-01T14:33:31Z</time></trkpt><trkpt lat="40.8071314373329" lon="9.251312046363852"><ele>316.66666666666663</ele><time>2026-05-01T14:33:32Z</time></trkpt><trkpt lat="40.807217676593396" lon="9.251497382922793"><ele>314.3333333333333</ele><time>2026-05-01T14:33:33Z</time></trkpt><trkpt lat="40.80728649327338" lon="9.251693799655262"><ele>312.0</ele><time>2026-05-01T14:33:34Z</time></trkpt><trkpt lat="40.80733701317468" lon="9.251901293461112"><ele>312.0</ele><time>2026-05-01T14:33:35Z</time></trkpt><trkpt lat="40.807419959693455" lon="9.252080082815091"><ele>312.0</ele><time>2026-05-01T14:33:36Z</time></trkpt><trkpt lat="40.80749299944213" lon="9.252254280104884"><ele>312.0</ele><time>2026-05-01T14:33:37Z</time></trkpt><trkpt lat="40.80758031762194" lon="9.252413590368421"><ele>312.5</ele><time>2026-05-01T14:33:38Z</time></trkpt><trkpt lat="40.80766706412974" lon="9.252566994069996"><ele>313.0</ele><time>2026-05-01T14:33:39Z</time></trkpt><trkpt lat="40.807732913182925" lon="9.252734241723756"><ele>313.5</ele><time>2026-05-01T14:33:40Z</time></trkpt><trkpt lat="40.807803350876675" lon="9.252897819263854"><ele>314.0</ele><time>2026-05-01T14:33:41Z</time></trkpt><trkpt lat="40.807869228105226" lon="9.253066569541287"><ele>312.0</ele><time>2026-05-01T14:33:42Z</time></trkpt><trkpt lat="40.80793024481411" lon="9.253233802141585"><ele>310.0</ele><time>2026-05-01T14:33:43Z</time></trkpt><trkpt lat="40.80799306667352" lon="9.253366131964265"><ele>308.0</ele><time>2026-05-01T14:33:44Z</time></trkpt><trkpt lat="40.808035531925434" lon="9.25350820918503"><ele>306.0</ele><time>2026-05-01T14:33:45Z</time></trkpt><trkpt lat="40.80806150590034" lon="9.253621928111608"><ele>306.0</ele><time>2026-05-01T14:33:46Z</time></trkpt><trkpt lat="40.80810107058598" lon="9.253740076406071"><ele>306.0</ele><time>2026-05-01T14:33:47Z</time></trkpt><trkpt lat="40.808149146293914" lon="9.253889383491563"><ele>306.0</ele><time>2026-05-01T14:33:48Z</time></trkpt><trkpt lat="40.80820264465013" lon="9.254066167142486"><ele>306.0</ele><time>2026-05-01T14:33:49Z</time></trkpt><trkpt lat="40.8082609625583" lon="9.254262149535023"><ele>303.6666666666667</ele><time>2026-05-01T14:33:50Z</time></trkpt><trkpt lat="40.808324750003244" lon="9.254469640528528"><ele>301.33333333333337</ele><time>2026-05-01T14:33:51Z</time></trkpt><trkpt lat="40.80839176788994" lon="9.254687386420665"><ele>299.0</ele><time>2026-05-01T14:33:52Z</time></trkpt><trkpt lat="40.80846618261774" lon="9.254874001813967"><ele>300.33333333333337</ele><time>2026-05-01T14:33:53Z</time></trkpt><trkpt lat="40.80850034608805" lon="9.255065590987597"><ele>301.6666666666667</ele><time>2026-05-01T14:33:54Z</time></trkpt><trkpt lat="40.80853984656274" lon="9.255257962428598"><ele>303.0</ele><time>2026-05-01T14:33:55Z</time></trkpt><trkpt lat="40.808571103559046" lon="9.255469154583077"><ele>301.6666666666667</ele><time>2026-05-01T14:33:56Z</time></trkpt><trkpt lat="40.80860498326221" lon="9.25569412535153"><ele>300.33333333333337</ele><time>2026-05-01T14:33:57Z</time></trkpt><trkpt lat="40.808637275329716" lon="9.255892086657058"><ele>299.0</ele><time>2026-05-01T14:33:58Z</time></trkpt><trkpt lat="40.8086744991961" lon="9.256093871424111"><ele>299.0</ele><time>2026-05-01T14:33:59Z</time></trkpt><trkpt lat="40.80872742901744" lon="9.256288075207738"><ele>299.0</ele><time>2026-05-01T14:34:00Z</time></trkpt><trkpt lat="40.80876856333019" lon="9.256484425732229"><ele>299.0</ele><time>2026-05-01T14:34:01Z</time></trkpt><trkpt lat="40.80880837037487" lon="9.256679297997728"><ele>297.75</ele><time>2026-05-01T14:34:02Z</time></trkpt><trkpt lat="40.80885379258988" lon="9.256863895381827"><ele>296.5</ele><time>2026-05-01T14:34:03Z</time></trkpt><trkpt lat="40.80891270930198" lon="9.257033418604138"><ele>295.25</ele><time>2026-05-01T14:34:04Z</time></trkpt><trkpt lat="40.808992870795365" lon="9.257196952469489"><ele>294.0</ele><time>2026-05-01T14:34:05Z</time></trkpt><trkpt lat="40.809094377753944" lon="9.25735478013015"><ele>293.25</ele><time>2026-05-01T14:34:06Z</time></trkpt><trkpt lat="40.80920930616457" lon="9.257489285288504"><ele>292.5</ele><time>2026-05-01T14:34:07Z</time></trkpt><trkpt lat="40.80931642251073" lon="9.257574135621656"><ele>291.75</ele><time>2026-05-01T14:34:08Z</time></trkpt><trkpt lat="40.809384078221974" lon="9.257690056749553"><ele>291.0</ele><time>2026-05-01T14:34:09Z</time></trkpt><trkpt lat="40.80944333883081" lon="9.257800638242077"><ele>290.75</ele><time>2026-05-01T14:34:10Z</time></trkpt><trkpt lat="40.80951233200191" lon="9.257917259139315"><ele>290.5</ele><time>2026-05-01T14:34:11Z</time></trkpt><trkpt lat="40.809510519297675" lon="9.258089291996482"><ele>290.25</ele><time>2026-05-01T14:34:12Z</time></trkpt><trkpt lat="40.809539258797656" lon="9.25827404595932"><ele>290.0</ele><time>2026-05-01T14:34:13Z</time></trkpt><trkpt lat="40.80956906152528" lon="9.258474853731254"><ele>288.0</ele><time>2026-05-01T14:34:14Z</time></trkpt><trkpt lat="40.80960331084377" lon="9.258692189865535"><ele>286.0</ele><time>2026-05-01T14:34:15Z</time></trkpt><trkpt lat="40.80964375812461" lon="9.258910745694488"><ele>284.0</ele><time>2026-05-01T14:34:16Z</time></trkpt><trkpt lat="40.80968902946083" lon="9.259131782503694"><ele>283.0</ele><time>2026-05-01T14:34:17Z</time></trkpt><trkpt lat="40.80974249224994" lon="9.259367743625642"><ele>282.0</ele><time>2026-05-01T14:34:18Z</time></trkpt><trkpt lat="40.8098069481705" lon="9.259606363367686"><ele>281.0</ele><time>2026-05-01T14:34:19Z</time></trkpt><trkpt lat="40.80988755364144" lon="9.25983263542426"><ele>280.0</ele><time>2026-05-01T14:34:20Z</time></trkpt><trkpt lat="40.80992831433741" lon="9.260058770307372"><ele>279.0</ele><time>2026-05-01T14:34:21Z</time></trkpt><trkpt lat="40.80997497360642" lon="9.260269179829223"><ele>278.0</ele><time>2026-05-01T14:34:22Z</time></trkpt><trkpt lat="40.810026484959856" lon="9.260464394428604"><ele>277.75</ele><time>2026-05-01T14:34:23Z</time></trkpt><trkpt lat="40.81008347741161" lon="9.260640164984439"><ele>277.5</ele><time>2026-05-01T14:34:24Z</time></trkpt><trkpt lat="40.81015611135914" lon="9.260803607322105"><ele>277.25</ele><time>2026-05-01T14:34:25Z</time></trkpt><trkpt lat="40.81020460878972" lon="9.260983978580326"><ele>277.0</ele><time>2026-05-01T14:34:26Z</time></trkpt><trkpt lat="40.81026508593554" lon="9.261152050869775"><ele>275.66666666666663</ele><time>2026-05-01T14:34:27Z</time></trkpt><trkpt lat="40.8103320540051" lon="9.261335141631735"><ele>274.3333333333333</ele><time>2026-05-01T14:34:28Z</time></trkpt><trkpt lat="40.81040178298092" lon="9.26151918761486"><ele>273.0</ele><time>2026-05-01T14:34:29Z</time></trkpt><trkpt lat="40.810474742277414" lon="9.261710242870135"><ele>272.25</ele><time>2026-05-01T14:34:30Z</time></trkpt><trkpt lat="40.81055821171444" lon="9.261884040450642"><ele>271.5</ele><time>2026-05-01T14:34:31Z</time></trkpt><trkpt lat="40.81060989059238" lon="9.262064149716"><ele>270.75</ele><time>2026-05-01T14:34:32Z</time></trkpt><trkpt lat="40.81066854863007" lon="9.26222561786157"><ele>270.0</ele><time>2026-05-01T14:34:33Z</time></trkpt><trkpt lat="40.81073772467601" lon="9.262384316148994"><ele>269.5</ele><time>2026-05-01T14:34:34Z</time></trkpt><trkpt lat="40.810762868806165" lon="9.262552822509509"><ele>269.0</ele><time>2026-05-01T14:34:35Z</time></trkpt><trkpt lat="40.810797122345846" lon="9.262710821229776"><ele>268.5</ele><time>2026-05-01T14:34:36Z</time></trkpt><trkpt lat="40.81082924018151" lon="9.262863697536407"><ele>268.0</ele><time>2026-05-01T14:34:37Z</time></trkpt><trkpt lat="40.81085740862777" lon="9.263012472102423"><ele>268.0</ele><time>2026-05-01T14:34:38Z</time></trkpt><trkpt lat="40.81087622814012" lon="9.263153343499875"><ele>268.0</ele><time>2026-05-01T14:34:39Z</time></trkpt><trkpt lat="40.81089070871976" lon="9.263290044941934"><ele>268.0</ele><time>2026-05-01T14:34:40Z</time></trkpt><trkpt lat="40.81090571005607" lon="9.263419456083298"><ele>268.0</ele><time>2026-05-01T14:34:41Z</time></trkpt><trkpt lat="40.810926152431264" lon="9.263536642113328"><ele>268.0</ele><time>2026-05-01T14:34:42Z</time></trkpt><trkpt lat="40.81095596394467" lon="9.263642361798142"><ele>268.0</ele><time>2026-05-01T14:34:43Z</time></trkpt><trkpt lat="40.81102552216878" lon="9.263707659939977"><ele>268.0</ele><time>2026-05-01T14:34:44Z</time></trkpt><trkpt lat="40.81111417836216" lon="9.26369857134978"><ele>268.0</ele><time>2026-05-01T14:34:45Z</time></trkpt><trkpt lat="40.81118921770914" lon="9.263668235780555"><ele>268.0</ele><time>2026-05-01T14:34:46Z</time></trkpt><trkpt lat="40.811264591386156" lon="9.263641413007475"><ele>268.0</ele><time>2026-05-01T14:34:47Z</time></trkpt><trkpt lat="40.8113486662512" lon="9.26363727709281"><ele>268.0</ele><time>2026-05-01T14:34:48Z</time></trkpt><trkpt lat="40.81143170334222" lon="9.263635895036561"><ele>268.0</ele><time>2026-05-01T14:34:49Z</time></trkpt><trkpt lat="40.81151743771538" lon="9.263645946672046"><ele>268.0</ele><time>2026-05-01T14:34:50Z</time></trkpt><trkpt lat="40.81160259461154" lon="9.26367667270369"><ele>268.0</ele><time>2026-05-01T14:34:51Z</time></trkpt><trkpt lat="40.81167459176733" lon="9.263748707265012"><ele>268.0</ele><time>2026-05-01T14:34:52Z</time></trkpt><trkpt lat="40.81174860987731" lon="9.263815873041938"><ele>268.0</ele><time>2026-05-01T14:34:53Z</time></trkpt><trkpt lat="40.81181611717092" lon="9.263893430762504"><ele>268.0</ele><time>2026-05-01T14:34:54Z</time></trkpt><trkpt lat="40.811873892933626" lon="9.26397111283027"><ele>268.8333333333333</ele><time>2026-05-01T14:34:55Z</time></trkpt><trkpt lat="40.81193465656869" lon="9.26404991122599"><ele>269.66666666666663</ele><time>2026-05-01T14:34:56Z</time></trkpt><trkpt lat="40.812005607152656" lon="9.264110428274043"><ele>270.5</ele><time>2026-05-01T14:34:57Z</time></trkpt><trkpt lat="40.812062563889334" lon="9.264182949091673"><ele>271.3333333333333</ele><time>2026-05-01T14:34:58Z</time></trkpt><trkpt lat="40.81211819254251" lon="9.264252907361364"><ele>272.1666666666667</ele><time>2026-05-01T14:34:59Z</time></trkpt><trkpt lat="40.81217684701881" lon="9.264320962543302"><ele>273.0</ele><time>2026-05-01T14:35:00Z</time></trkpt><trkpt lat="40.812239904119956" lon="9.264382768947776"><ele>273.0</ele><time>2026-05-01T14:35:01Z</time></trkpt><trkpt lat="40.81231424208816" lon="9.264449467226854"><ele>273.0</ele><time>2026-05-01T14:35:03Z</time></trkpt><trkpt lat="40.81226885330923" lon="9.264535676204957"><ele>273.0</ele><time>2026-05-01T14:35:25Z</time></trkpt><trkpt lat="40.81226230036629" lon="9.264619025358463"><ele>273.0</ele><time>2026-05-01T14:35:26Z</time></trkpt><trkpt lat="40.81225348837611" lon="9.264739167079831"><ele>273.0</ele><time>2026-05-01T14:35:27Z</time></trkpt><trkpt lat="40.81224829741807" lon="9.26485921495732"><ele>273.0</ele><time>2026-05-01T14:35:28Z</time></trkpt><trkpt lat="40.81224110890299" lon="9.265018445685529"><ele>272.5</ele><time>2026-05-01T14:35:29Z</time></trkpt><trkpt lat="40.81223716344224" lon="9.265199480883979"><ele>272.0</ele><time>2026-05-01T14:35:30Z</time></trkpt><trkpt lat="40.812236407069996" lon="9.265359755938205"><ele>271.5</ele><time>2026-05-01T14:35:31Z</time></trkpt><trkpt lat="40.812232272058175" lon="9.265515065579075"><ele>271.0</ele><time>2026-05-01T14:35:32Z</time></trkpt><trkpt lat="40.812234404428374" lon="9.26566944940781"><ele>270.6</ele><time>2026-05-01T14:35:33Z</time></trkpt><trkpt lat="40.81225653702979" lon="9.265799867839247"><ele>270.20000000000005</ele><time>2026-05-01T14:35:34Z</time></trkpt><trkpt lat="40.81224714364052" lon="9.265922344895142"><ele>269.79999999999995</ele><time>2026-05-01T14:35:35Z</time></trkpt><trkpt lat="40.81226919321298" lon="9.266048445784069"><ele>269.4</ele><time>2026-05-01T14:35:36Z</time></trkpt><trkpt lat="40.812328192611254" lon="9.266168153976565"><ele>269.0</ele><time>2026-05-01T14:35:37Z</time></trkpt><trkpt lat="40.81237526956835" lon="9.26629759868155"><ele>268.75</ele><time>2026-05-01T14:35:38Z</time></trkpt><trkpt lat="40.812385540664" lon="9.266449586236666"><ele>268.5</ele><time>2026-05-01T14:35:39Z</time></trkpt><trkpt lat="40.81240879027604" lon="9.266605518545816"><ele>268.25</ele><time>2026-05-01T14:35:40Z</time></trkpt><trkpt lat="40.81245981664436" lon="9.266762746091915"><ele>268.0</ele><time>2026-05-01T14:35:41Z</time></trkpt><trkpt lat="40.812505824069085" lon="9.2669150978653"><ele>268.0</ele><time>2026-05-01T14:35:42Z</time></trkpt><trkpt lat="40.81256061281566" lon="9.2670720562265"><ele>268.0</ele><time>2026-05-01T14:35:43Z</time></trkpt><trkpt lat="40.81260428700969" lon="9.26723568333892"><ele>268.0</ele><time>2026-05-01T14:35:44Z</time></trkpt><trkpt lat="40.81268312322304" lon="9.267411933886727"><ele>268.0</ele><time>2026-05-01T14:35:45Z</time></trkpt><trkpt lat="40.81276249575856" lon="9.267626531808189"><ele>269.5</ele><time>2026-05-01T14:35:46Z</time></trkpt><trkpt lat="40.812827168061695" lon="9.26779745621186"><ele>271.0</ele><time>2026-05-01T14:35:47Z</time></trkpt><trkpt lat="40.81287890472597" lon="9.26792015023905"><ele>272.5</ele><time>2026-05-01T14:35:48Z</time></trkpt><trkpt lat="40.81292960669005" lon="9.268030653498242"><ele>274.0</ele><time>2026-05-01T14:35:49Z</time></trkpt><trkpt lat="40.812991378006586" lon="9.268154396073482"><ele>276.25</ele><time>2026-05-01T14:35:50Z</time></trkpt><trkpt lat="40.81303177581087" lon="9.268277344906673"><ele>278.5</ele><time>2026-05-01T14:35:51Z</time></trkpt><trkpt lat="40.81300585582536" lon="9.268403410958506"><ele>280.75</ele><time>2026-05-01T14:35:52Z</time></trkpt><trkpt lat="40.81300058808771" lon="9.268554408176051"><ele>283.0</ele><time>2026-05-01T14:35:53Z</time></trkpt><trkpt lat="40.81301862826818" lon="9.268731608304105"><ele>283.0</ele><time>2026-05-01T14:35:54Z</time></trkpt><trkpt lat="40.81303842962623" lon="9.26890050920561"><ele>283.0</ele><time>2026-05-01T14:35:55Z</time></trkpt><trkpt lat="40.81308414592843" lon="9.269060550721552"><ele>283.0</ele><time>2026-05-01T14:35:56Z</time></trkpt><trkpt lat="40.813149095102794" lon="9.269211680186872"><ele>283.0</ele><time>2026-05-01T14:35:57Z</time></trkpt><trkpt lat="40.813170110691644" lon="9.269378251058054"><ele>284.0</ele><time>2026-05-01T14:35:58Z</time></trkpt><trkpt lat="40.8132109523198" lon="9.269529542546186"><ele>285.0</ele><time>2026-05-01T14:35:59Z</time></trkpt><trkpt lat="40.81327046063362" lon="9.269659756969622"><ele>286.0</ele><time>2026-05-01T14:36:00Z</time></trkpt><trkpt lat="40.81333684033801" lon="9.269798888119372"><ele>287.0</ele><time>2026-05-01T14:36:01Z</time></trkpt><trkpt lat="40.8133831855881" lon="9.26997351399194"><ele>287.25</ele><time>2026-05-01T14:36:02Z</time></trkpt><trkpt lat="40.81344097534976" lon="9.270135422021198"><ele>287.5</ele><time>2026-05-01T14:36:03Z</time></trkpt><trkpt lat="40.81350652370953" lon="9.270297381821205"><ele>287.75</ele><time>2026-05-01T14:36:04Z</time></trkpt><trkpt lat="40.813540297475164" lon="9.27049816959466"><ele>288.0</ele><time>2026-05-01T14:36:05Z</time></trkpt><trkpt lat="40.813580624471086" lon="9.270704225035553"><ele>291.5</ele><time>2026-05-01T14:36:06Z</time></trkpt><trkpt lat="40.81359779842675" lon="9.270896710386852"><ele>295.0</ele><time>2026-05-01T14:36:07Z</time></trkpt><trkpt lat="40.813598641642066" lon="9.271071444748715"><ele>298.5</ele><time>2026-05-01T14:36:08Z</time></trkpt><trkpt lat="40.81359223816079" lon="9.271257157289087"><ele>302.0</ele><time>2026-05-01T14:36:09Z</time></trkpt><trkpt lat="40.81361217903537" lon="9.271460033981382"><ele>302.33333333333337</ele><time>2026-05-01T14:36:10Z</time></trkpt><trkpt lat="40.813625413654556" lon="9.27165949050773"><ele>302.6666666666667</ele><time>2026-05-01T14:36:11Z</time></trkpt><trkpt lat="40.813656428158446" lon="9.271864344150087"><ele>303.0</ele><time>2026-05-01T14:36:12Z</time></trkpt><trkpt lat="40.81367322622338" lon="9.272064846302722"><ele>303.0</ele><time>2026-05-01T14:36:13Z</time></trkpt><trkpt lat="40.8136965012675" lon="9.272254523681275"><ele>303.0</ele><time>2026-05-01T14:36:14Z</time></trkpt><trkpt lat="40.81370588372635" lon="9.272407194518246"><ele>303.0</ele><time>2026-05-01T14:36:15Z</time></trkpt><trkpt lat="40.81373156427582" lon="9.27253670035326"><ele>303.0</ele><time>2026-05-01T14:36:16Z</time></trkpt><trkpt lat="40.81376206442827" lon="9.272667376007238"><ele>303.0</ele><time>2026-05-01T14:36:17Z</time></trkpt><trkpt lat="40.813825580121495" lon="9.2728006749657"><ele>303.0</ele><time>2026-05-01T14:36:18Z</time></trkpt><trkpt lat="40.81392114720916" lon="9.272944795068723"><ele>303.0</ele><time>2026-05-01T14:36:19Z</time></trkpt><trkpt lat="40.81399246047389" lon="9.273108349643085"><ele>303.0</ele><time>2026-05-01T14:36:20Z</time></trkpt><trkpt lat="40.81406001832838" lon="9.273238247268278"><ele>303.0</ele><time>2026-05-01T14:36:21Z</time></trkpt><trkpt lat="40.814102076296045" lon="9.273362779588458"><ele>303.0</ele><time>2026-05-01T14:36:22Z</time></trkpt><trkpt lat="40.81413042410122" lon="9.273507925208632"><ele>303.0</ele><time>2026-05-01T14:36:23Z</time></trkpt><trkpt lat="40.814141743359016" lon="9.273646508520219"><ele>303.0</ele><time>2026-05-01T14:36:24Z</time></trkpt><trkpt lat="40.81417602508327" lon="9.273760779624727"><ele>303.0</ele><time>2026-05-01T14:36:25Z</time></trkpt><trkpt lat="40.814202343684705" lon="9.273873869539898"><ele>301.75</ele><time>2026-05-01T14:36:26Z</time></trkpt><trkpt lat="40.8142631820748" lon="9.27398227944901"><ele>300.5</ele><time>2026-05-01T14:36:27Z</time></trkpt><trkpt lat="40.81435403286315" lon="9.274104909438213"><ele>299.25</ele><time>2026-05-01T14:36:28Z</time></trkpt><trkpt lat="40.814461596580564" lon="9.27422799255446"><ele>298.0</ele><time>2026-05-01T14:36:29Z</time></trkpt><trkpt lat="40.81454292610791" lon="9.274345277285683"><ele>301.0</ele><time>2026-05-01T14:36:30Z</time></trkpt><trkpt lat="40.81461789274511" lon="9.274455667255756"><ele>304.0</ele><time>2026-05-01T14:36:31Z</time></trkpt><trkpt lat="40.81466981117389" lon="9.274581495648128"><ele>307.0</ele><time>2026-05-01T14:36:32Z</time></trkpt><trkpt lat="40.81472372630691" lon="9.274715287898964"><ele>310.0</ele><time>2026-05-01T14:36:33Z</time></trkpt><trkpt lat="40.81477246637827" lon="9.274902784072149"><ele>310.0</ele><time>2026-05-01T14:36:34Z</time></trkpt><trkpt lat="40.81483951829868" lon="9.275085274886923"><ele>310.0</ele><time>2026-05-01T14:36:35Z</time></trkpt><trkpt lat="40.814882767762576" lon="9.275254278465068"><ele>310.0</ele><time>2026-05-01T14:36:36Z</time></trkpt><trkpt lat="40.81494533734341" lon="9.27539883072122"><ele>310.0</ele><time>2026-05-01T14:36:37Z</time></trkpt><trkpt lat="40.815001420117724" lon="9.275534167989587"><ele>309.8</ele><time>2026-05-01T14:36:38Z</time></trkpt><trkpt lat="40.815044918347006" lon="9.275678692255488"><ele>309.6</ele><time>2026-05-01T14:36:39Z</time></trkpt><trkpt lat="40.815072034163286" lon="9.27585261993377"><ele>309.4</ele><time>2026-05-01T14:36:40Z</time></trkpt><trkpt lat="40.81510071345861" lon="9.275992251562732"><ele>309.2</ele><time>2026-05-01T14:36:41Z</time></trkpt><trkpt lat="40.81513061367513" lon="9.276088278233148"><ele>309.0</ele><time>2026-05-01T14:36:42Z</time></trkpt><trkpt lat="40.815238284575486" lon="9.27616420595822"><ele>313.0</ele><time>2026-05-01T14:36:43Z</time></trkpt><trkpt lat="40.815352273044105" lon="9.276242924092688"><ele>317.0</ele><time>2026-05-01T14:36:44Z</time></trkpt><trkpt lat="40.81545239743501" lon="9.276390286268054"><ele>321.0</ele><time>2026-05-01T14:36:45Z</time></trkpt><trkpt lat="40.81553683592467" lon="9.276530405940967"><ele>325.0</ele><time>2026-05-01T14:36:46Z</time></trkpt><trkpt lat="40.81562801222123" lon="9.276689836311938"><ele>325.0</ele><time>2026-05-01T14:36:47Z</time></trkpt><trkpt lat="40.815717364552455" lon="9.276840034755896"><ele>325.0</ele><time>2026-05-01T14:36:48Z</time></trkpt><trkpt lat="40.81577570518734" lon="9.27696935851407"><ele>325.0</ele><time>2026-05-01T14:36:49Z</time></trkpt><trkpt lat="40.815808650603806" lon="9.277085585526347"><ele>325.0</ele><time>2026-05-01T14:36:50Z</time></trkpt><trkpt lat="40.815861500005475" lon="9.27722872408181"><ele>325.8</ele><time>2026-05-01T14:36:51Z</time></trkpt><trkpt lat="40.81589864693034" lon="9.277385688540614"><ele>326.6</ele><time>2026-05-01T14:36:52Z</time></trkpt><trkpt lat="40.815912682887706" lon="9.27754002382167"><ele>327.4</ele><time>2026-05-01T14:36:53Z</time></trkpt><trkpt lat="40.815918604035076" lon="9.27766523703613"><ele>328.2</ele><time>2026-05-01T14:36:54Z</time></trkpt><trkpt lat="40.815898516006" lon="9.277785704987135"><ele>329.0</ele><time>2026-05-01T14:36:55Z</time></trkpt><trkpt lat="40.81586196373358" lon="9.277877256272347"><ele>329.0</ele><time>2026-05-01T14:36:56Z</time></trkpt><trkpt lat="40.81581313432575" lon="9.278002358580311"><ele>329.0</ele><time>2026-05-01T14:36:57Z</time></trkpt><trkpt lat="40.81574914472676" lon="9.278154828788486"><ele>329.0</ele><time>2026-05-01T14:36:58Z</time></trkpt><trkpt lat="40.81569601271701" lon="9.278273045319349"><ele>329.0</ele><time>2026-05-01T14:36:59Z</time></trkpt><trkpt lat="40.81565097371191" lon="9.278417781422547"><ele>329.79999999999995</ele><time>2026-05-01T14:37:01Z</time></trkpt><trkpt lat="40.81564640778945" lon="9.27850080467022"><ele>330.59999999999997</ele><time>2026-05-01T14:37:02Z</time></trkpt><trkpt lat="40.81566620201492" lon="9.278629675393438"><ele>331.4</ele><time>2026-05-01T14:37:03Z</time></trkpt><trkpt lat="40.81568919665171" lon="9.27875407577496"><ele>332.2</ele><time>2026-05-01T14:37:04Z</time></trkpt><trkpt lat="40.815715552089344" lon="9.278874526533755"><ele>333.0</ele><time>2026-05-01T14:37:05Z</time></trkpt><trkpt lat="40.81575469532153" lon="9.27901245705737"><ele>333.0</ele><time>2026-05-01T14:37:06Z</time></trkpt><trkpt lat="40.81580244402881" lon="9.279163904933124"><ele>333.0</ele><time>2026-05-01T14:37:07Z</time></trkpt><trkpt lat="40.81584833743271" lon="9.279296946898201"><ele>333.0</ele><time>2026-05-01T14:37:08Z</time></trkpt><trkpt lat="40.81590540352275" lon="9.279449114101544"><ele>333.0</ele><time>2026-05-01T14:37:09Z</time></trkpt><trkpt lat="40.815963889333084" lon="9.279592582431864"><ele>333.0</ele><time>2026-05-01T14:37:10Z</time></trkpt><trkpt lat="40.81601002837638" lon="9.27973229311614"><ele>333.0</ele><time>2026-05-01T14:37:11Z</time></trkpt><trkpt lat="40.81604710124262" lon="9.279874358115222"><ele>333.0</ele><time>2026-05-01T14:37:12Z</time></trkpt><trkpt lat="40.816084387899615" lon="9.280033813771489"><ele>333.0</ele><time>2026-05-01T14:37:13Z</time></trkpt><trkpt lat="40.81611483062557" lon="9.280174172361397"><ele>333.0</ele><time>2026-05-01T14:37:14Z</time></trkpt><trkpt lat="40.81615641522747" lon="9.280286767867606"><ele>333.0</ele><time>2026-05-01T14:37:15Z</time></trkpt><trkpt lat="40.81617897536854" lon="9.280407984908894"><ele>333.0</ele><time>2026-05-01T14:37:16Z</time></trkpt><trkpt lat="40.816223639093536" lon="9.28051053778387"><ele>333.0</ele><time>2026-05-01T14:37:17Z</time></trkpt><trkpt lat="40.81628958379166" lon="9.280616405844263"><ele>333.0</ele><time>2026-05-01T14:37:18Z</time></trkpt><trkpt lat="40.81635706549763" lon="9.280718735768959"><ele>331.8333333333333</ele><time>2026-05-01T14:37:19Z</time></trkpt><trkpt lat="40.816416835153305" lon="9.280772304610995"><ele>330.6666666666667</ele><time>2026-05-01T14:37:20Z</time></trkpt><trkpt lat="40.81647995208636" lon="9.280841908931313"><ele>329.5</ele><time>2026-05-01T14:37:22Z</time></trkpt><trkpt lat="40.816563327526225" lon="9.280973178604803"><ele>328.33333333333337</ele><time>2026-05-01T14:37:24Z</time></trkpt><trkpt lat="40.81658606273581" lon="9.2810706931743"><ele>327.1666666666667</ele><time>2026-05-01T14:37:25Z</time></trkpt><trkpt lat="40.81663538974888" lon="9.281158772404787"><ele>326.0</ele><time>2026-05-01T14:37:26Z</time></trkpt><trkpt lat="40.816667986057624" lon="9.28125685728148"><ele>326.0</ele><time>2026-05-01T14:37:27Z</time></trkpt><trkpt lat="40.81659824112468" lon="9.281381260678003"><ele>326.0</ele><time>2026-05-01T14:37:28Z</time></trkpt><trkpt lat="40.81660920016145" lon="9.281470253656162"><ele>326.0</ele><time>2026-05-01T14:37:29Z</time></trkpt><trkpt lat="40.81661944543561" lon="9.28155345101602"><ele>326.0</ele><time>2026-05-01T14:37:30Z</time></trkpt><trkpt lat="40.81663517816997" lon="9.281646713106758"><ele>326.0</ele><time>2026-05-01T14:37:31Z</time></trkpt><trkpt lat="40.8166607529359" lon="9.281770121545472"><ele>326.0</ele><time>2026-05-01T14:37:32Z</time></trkpt><trkpt lat="40.81669577728659" lon="9.281895483977273"><ele>326.8</ele><time>2026-05-01T14:37:33Z</time></trkpt><trkpt lat="40.81673376300811" lon="9.28201222698785"><ele>327.6</ele><time>2026-05-01T14:37:34Z</time></trkpt><trkpt lat="40.81677084527387" lon="9.28212367179071"><ele>328.4</ele><time>2026-05-01T14:37:35Z</time></trkpt><trkpt lat="40.81682402236993" lon="9.282242061987525"><ele>329.2</ele><time>2026-05-01T14:37:36Z</time></trkpt><trkpt lat="40.81687720685268" lon="9.282382120266103"><ele>330.0</ele><time>2026-05-01T14:37:37Z</time></trkpt><trkpt lat="40.81693994546351" lon="9.282517316747876"><ele>328.2</ele><time>2026-05-01T14:37:38Z</time></trkpt><trkpt lat="40.81698475379517" lon="9.282646411281794"><ele>326.4</ele><time>2026-05-01T14:37:39Z</time></trkpt><trkpt lat="40.817003562897675" lon="9.282773937653518"><ele>324.6</ele><time>2026-05-01T14:37:40Z</time></trkpt><trkpt lat="40.81702817074246" lon="9.282904976234223"><ele>322.8</ele><time>2026-05-01T14:37:41Z</time></trkpt><trkpt lat="40.81703638847069" lon="9.283050794354194"><ele>321.0</ele><time>2026-05-01T14:37:42Z</time></trkpt><trkpt lat="40.817033507851065" lon="9.283178548261525"><ele>320.0</ele><time>2026-05-01T14:37:43Z</time></trkpt><trkpt lat="40.81703838606064" lon="9.283331044514592"><ele>319.0</ele><time>2026-05-01T14:37:44Z</time></trkpt><trkpt lat="40.81699940271813" lon="9.283482909909267"><ele>318.0</ele><time>2026-05-01T14:37:45Z</time></trkpt><trkpt lat="40.81697547074152" lon="9.283637705904097"><ele>317.0</ele><time>2026-05-01T14:37:46Z</time></trkpt><trkpt lat="40.816957457717045" lon="9.283775776189698"><ele>317.0</ele><time>2026-05-01T14:37:47Z</time></trkpt><trkpt lat="40.81696594985572" lon="9.28390211565582"><ele>317.0</ele><time>2026-05-01T14:37:48Z</time></trkpt><trkpt lat="40.81697712794997" lon="9.284019608168041"><ele>317.0</ele><time>2026-05-01T14:37:49Z</time></trkpt><trkpt lat="40.81701266000131" lon="9.284120267167829"><ele>317.0</ele><time>2026-05-01T14:37:50Z</time></trkpt><trkpt lat="40.81705296466117" lon="9.284233085763308"><ele>317.0</ele><time>2026-05-01T14:37:51Z</time></trkpt><trkpt lat="40.817115211369256" lon="9.28440072746845"><ele>316.0</ele><time>2026-05-01T14:37:52Z</time></trkpt><trkpt lat="40.817162553863966" lon="9.284555531421342"><ele>315.0</ele><time>2026-05-01T14:37:53Z</time></trkpt><trkpt lat="40.81719777232179" lon="9.284701662453529"><ele>314.0</ele><time>2026-05-01T14:37:54Z</time></trkpt><trkpt lat="40.81722884879094" lon="9.284841884852666"><ele>313.0</ele><time>2026-05-01T14:37:55Z</time></trkpt><trkpt lat="40.81725384217599" lon="9.284975498077204"><ele>312.8</ele><time>2026-05-01T14:37:56Z</time></trkpt><trkpt lat="40.81725649274991" lon="9.285125503092631"><ele>312.6</ele><time>2026-05-01T14:37:57Z</time></trkpt><trkpt lat="40.817280025689094" lon="9.285280759960596"><ele>312.4</ele><time>2026-05-01T14:37:58Z</time></trkpt><trkpt lat="40.817299068057295" lon="9.285415230585537"><ele>312.2</ele><time>2026-05-01T14:37:59Z</time></trkpt><trkpt lat="40.817348809769136" lon="9.285522601685956"><ele>312.0</ele><time>2026-05-01T14:38:00Z</time></trkpt><trkpt lat="40.81738440656304" lon="9.285637491804705"><ele>311.4</ele><time>2026-05-01T14:38:01Z</time></trkpt><trkpt lat="40.81741234941049" lon="9.28577035675063"><ele>310.79999999999995</ele><time>2026-05-01T14:38:02Z</time></trkpt><trkpt lat="40.81738866711185" lon="9.285880526416186"><ele>310.2</ele><time>2026-05-01T14:38:03Z</time></trkpt><trkpt lat="40.81736604316361" lon="9.286013856634803"><ele>309.59999999999997</ele><time>2026-05-01T14:38:04Z</time></trkpt><trkpt lat="40.81732574141673" lon="9.286173327113682"><ele>309.0</ele><time>2026-05-01T14:38:05Z</time></trkpt><trkpt lat="40.81727463417645" lon="9.28630934845125"><ele>309.0</ele><time>2026-05-01T14:38:06Z</time></trkpt><trkpt lat="40.81724610984984" lon="9.286400074585801"><ele>309.0</ele><time>2026-05-01T14:38:07Z</time></trkpt><trkpt lat="40.81721518792619" lon="9.286498426613647"><ele>309.0</ele><time>2026-05-01T14:38:08Z</time></trkpt><trkpt lat="40.81716831888923" lon="9.286624167470169"><ele>309.0</ele><time>2026-05-01T14:38:09Z</time></trkpt><trkpt lat="40.81711650275402" lon="9.286760580579108"><ele>309.0</ele><time>2026-05-01T14:38:10Z</time></trkpt><trkpt lat="40.81706624615095" lon="9.286906483141342"><ele>308.59999999999997</ele><time>2026-05-01T14:38:11Z</time></trkpt><trkpt lat="40.81703706102991" lon="9.287050322805618"><ele>308.2</ele><time>2026-05-01T14:38:12Z</time></trkpt><trkpt lat="40.81701319688361" lon="9.287158523293725"><ele>307.79999999999995</ele><time>2026-05-01T14:38:13Z</time></trkpt><trkpt lat="40.816985157594225" lon="9.287279714370122"><ele>307.4</ele><time>2026-05-01T14:38:14Z</time></trkpt><trkpt lat="40.81693119598969" lon="9.287461036207038"><ele>307.0</ele><time>2026-05-01T14:38:15Z</time></trkpt><trkpt lat="40.81689479785538" lon="9.2876193755873"><ele>308.0</ele><time>2026-05-01T14:38:16Z</time></trkpt><trkpt lat="40.816881448411195" lon="9.287759043072814"><ele>309.0</ele><time>2026-05-01T14:38:17Z</time></trkpt><trkpt lat="40.816864454749656" lon="9.287902281824255"><ele>310.0</ele><time>2026-05-01T14:38:18Z</time></trkpt><trkpt lat="40.81687643473423" lon="9.288048755107152"><ele>311.0</ele><time>2026-05-01T14:38:19Z</time></trkpt><trkpt lat="40.816884554882904" lon="9.288198851431178"><ele>312.0</ele><time>2026-05-01T14:38:20Z</time></trkpt><trkpt lat="40.816897303593265" lon="9.288341697704853"><ele>312.4</ele><time>2026-05-01T14:38:21Z</time></trkpt><trkpt lat="40.81693203924829" lon="9.28845589133575"><ele>312.79999999999995</ele><time>2026-05-01T14:38:22Z</time></trkpt><trkpt lat="40.816981833419554" lon="9.288570400692914"><ele>313.2</ele><time>2026-05-01T14:38:23Z</time></trkpt><trkpt lat="40.817023003265966" lon="9.288699196586059"><ele>313.59999999999997</ele><time>2026-05-01T14:38:24Z</time></trkpt><trkpt lat="40.817043484975514" lon="9.288806444588802"><ele>314.0</ele><time>2026-05-01T14:38:25Z</time></trkpt><trkpt lat="40.81705295406174" lon="9.288904837847664"><ele>313.5</ele><time>2026-05-01T14:38:26Z</time></trkpt><trkpt lat="40.81705439946259" lon="9.28900195722756"><ele>313.0</ele><time>2026-05-01T14:38:27Z</time></trkpt><trkpt lat="40.81704626575155" lon="9.289114566178284"><ele>312.5</ele><time>2026-05-01T14:38:28Z</time></trkpt><trkpt lat="40.817016201205014" lon="9.289216305035813"><ele>312.0</ele><time>2026-05-01T14:38:29Z</time></trkpt><trkpt lat="40.816951239590956" lon="9.289316259541437"><ele>311.5</ele><time>2026-05-01T14:38:30Z</time></trkpt><trkpt lat="40.81688917384176" lon="9.289430854528531"><ele>311.0</ele><time>2026-05-01T14:38:31Z</time></trkpt><trkpt lat="40.816851473121595" lon="9.28953576840454"><ele>310.6</ele><time>2026-05-01T14:38:32Z</time></trkpt><trkpt lat="40.81679636163564" lon="9.289637394492393"><ele>310.20000000000005</ele><time>2026-05-01T14:38:33Z</time></trkpt><trkpt lat="40.81677905938359" lon="9.289743842920595"><ele>309.79999999999995</ele><time>2026-05-01T14:38:34Z</time></trkpt><trkpt lat="40.81677024062801" lon="9.289882430412698"><ele>309.4</ele><time>2026-05-01T14:38:35Z</time></trkpt><trkpt lat="40.81675486779766" lon="9.290017809259744"><ele>309.0</ele><time>2026-05-01T14:38:36Z</time></trkpt><trkpt lat="40.81674751426209" lon="9.290107228735165"><ele>309.0</ele><time>2026-05-01T14:38:37Z</time></trkpt><trkpt lat="40.81675490940597" lon="9.29021032174786"><ele>309.0</ele><time>2026-05-01T14:38:38Z</time></trkpt><trkpt lat="40.81677463445299" lon="9.290352424735303"><ele>309.0</ele><time>2026-05-01T14:38:39Z</time></trkpt><trkpt lat="40.81676989106778" lon="9.290491992879296"><ele>309.0</ele><time>2026-05-01T14:38:40Z</time></trkpt><trkpt lat="40.816784696421664" lon="9.290632905736537"><ele>309.0</ele><time>2026-05-01T14:38:41Z</time></trkpt><trkpt lat="40.81678924584701" lon="9.290785817538161"><ele>307.75</ele><time>2026-05-01T14:38:42Z</time></trkpt><trkpt lat="40.81679890439407" lon="9.290943656062218"><ele>306.5</ele><time>2026-05-01T14:38:43Z</time></trkpt><trkpt lat="40.81679620924409" lon="9.291097332007837"><ele>305.25</ele><time>2026-05-01T14:38:44Z</time></trkpt><trkpt lat="40.81680412389884" lon="9.291248490166467"><ele>304.0</ele><time>2026-05-01T14:38:45Z</time></trkpt><trkpt lat="40.81681120844445" lon="9.29139747385023"><ele>301.59999999999997</ele><time>2026-05-01T14:38:46Z</time></trkpt><trkpt lat="40.81683410886572" lon="9.29154269169569"><ele>299.2</ele><time>2026-05-01T14:38:47Z</time></trkpt><trkpt lat="40.81682451022577" lon="9.291678408289986"><ele>296.79999999999995</ele><time>2026-05-01T14:38:48Z</time></trkpt><trkpt lat="40.81683269669351" lon="9.291816140438657"><ele>294.4</ele><time>2026-05-01T14:38:49Z</time></trkpt><trkpt lat="40.81684938209912" lon="9.291945124336154"><ele>292.0</ele><time>2026-05-01T14:38:50Z</time></trkpt><trkpt lat="40.81688563973509" lon="9.292074282268215"><ele>292.0</ele><time>2026-05-01T14:38:51Z</time></trkpt><trkpt lat="40.816901387990185" lon="9.292213476888133"><ele>292.0</ele><time>2026-05-01T14:38:52Z</time></trkpt><trkpt lat="40.816934513416285" lon="9.292330858780664"><ele>292.0</ele><time>2026-05-01T14:38:53Z</time></trkpt><trkpt lat="40.816994525835725" lon="9.29242899140221"><ele>292.0</ele><time>2026-05-01T14:38:54Z</time></trkpt><trkpt lat="40.81705308932498" lon="9.29255098450478"><ele>292.0</ele><time>2026-05-01T14:38:55Z</time></trkpt><trkpt lat="40.81713244926462" lon="9.292662132586456"><ele>291.2</ele><time>2026-05-01T14:38:56Z</time></trkpt><trkpt lat="40.81722083883534" lon="9.292778041894655"><ele>290.4</ele><time>2026-05-01T14:38:57Z</time></trkpt><trkpt lat="40.81727121525118" lon="9.29289827623052"><ele>289.6</ele><time>2026-05-01T14:38:58Z</time></trkpt><trkpt lat="40.81732759704967" lon="9.293006380809926"><ele>288.8</ele><time>2026-05-01T14:38:59Z</time></trkpt><trkpt lat="40.81739225495494" lon="9.293096981134685"><ele>288.0</ele><time>2026-05-01T14:39:00Z</time></trkpt><trkpt lat="40.817450237799385" lon="9.293172211740957"><ele>286.8</ele><time>2026-05-01T14:39:01Z</time></trkpt><trkpt lat="40.81747324679258" lon="9.29328459298045"><ele>285.6</ele><time>2026-05-01T14:39:02Z</time></trkpt><trkpt lat="40.817493290767246" lon="9.29337763616782"><ele>284.4</ele><time>2026-05-01T14:39:03Z</time></trkpt><trkpt lat="40.81750624619215" lon="9.293566415816946"><ele>283.2</ele><time>2026-05-01T14:39:05Z</time></trkpt><trkpt lat="40.81750857924732" lon="9.29367443541975"><ele>282.0</ele><time>2026-05-01T14:39:06Z</time></trkpt><trkpt lat="40.81751236157622" lon="9.293788084536363"><ele>281.75</ele><time>2026-05-01T14:39:07Z</time></trkpt><trkpt lat="40.81750550962102" lon="9.293933851626445"><ele>281.5</ele><time>2026-05-01T14:39:08Z</time></trkpt><trkpt lat="40.817517405239535" lon="9.294098872384152"><ele>281.25</ele><time>2026-05-01T14:39:09Z</time></trkpt><trkpt lat="40.817528011015604" lon="9.294267827732462"><ele>281.0</ele><time>2026-05-01T14:39:10Z</time></trkpt><trkpt lat="40.81753727295767" lon="9.294430938355045"><ele>281.0</ele><time>2026-05-01T14:39:11Z</time></trkpt><trkpt lat="40.81754524286196" lon="9.294598770246884"><ele>281.0</ele><time>2026-05-01T14:39:12Z</time></trkpt><trkpt lat="40.81755172849488" lon="9.294746256690088"><ele>281.0</ele><time>2026-05-01T14:39:13Z</time></trkpt><trkpt lat="40.81755823371216" lon="9.294870992138252"><ele>281.0</ele><time>2026-05-01T14:39:14Z</time></trkpt><trkpt lat="40.81756061952276" lon="9.294973797306252"><ele>281.0</ele><time>2026-05-01T14:39:15Z</time></trkpt><trkpt lat="40.8175631307408" lon="9.295057483868849"><ele>280.2</ele><time>2026-05-01T14:39:16Z</time></trkpt><trkpt lat="40.817573817226446" lon="9.295154810915239"><ele>279.40000000000003</ele><time>2026-05-01T14:39:18Z</time></trkpt><trkpt lat="40.81769234436542" lon="9.295139456211833"><ele>278.6</ele><time>2026-05-01T14:39:20Z</time></trkpt><trkpt lat="40.817779619862165" lon="9.295106541659754"><ele>277.8</ele><time>2026-05-01T14:39:21Z</time></trkpt><trkpt lat="40.81788967293653" lon="9.29510130409518"><ele>277.0</ele><time>2026-05-01T14:39:22Z</time></trkpt><trkpt lat="40.818031772783925" lon="9.295088639879447"><ele>276.0</ele><time>2026-05-01T14:39:23Z</time></trkpt><trkpt lat="40.818172223891665" lon="9.295066453653021"><ele>275.0</ele><time>2026-05-01T14:39:24Z</time></trkpt><trkpt lat="40.81828510688638" lon="9.295070271453211"><ele>274.0</ele><time>2026-05-01T14:39:25Z</time></trkpt><trkpt lat="40.818401526808934" lon="9.295069448640884"><ele>273.0</ele><time>2026-05-01T14:39:26Z</time></trkpt><trkpt lat="40.81850963547894" lon="9.295047756760628"><ele>273.0</ele><time>2026-05-01T14:39:27Z</time></trkpt><trkpt lat="40.81862921417899" lon="9.29507324646742"><ele>273.0</ele><time>2026-05-01T14:39:28Z</time></trkpt><trkpt lat="40.81876322649133" lon="9.295089709346692"><ele>273.0</ele><time>2026-05-01T14:39:29Z</time></trkpt><trkpt lat="40.81892376267489" lon="9.29509381477035"><ele>273.0</ele><time>2026-05-01T14:39:30Z</time></trkpt><trkpt lat="40.819076971210634" lon="9.295132769025873"><ele>273.0</ele><time>2026-05-01T14:39:31Z</time></trkpt><trkpt lat="40.81921267806414" lon="9.295167010128006"><ele>273.0</ele><time>2026-05-01T14:39:32Z</time></trkpt><trkpt lat="40.81932799830079" lon="9.295197649723942"><ele>273.0</ele><time>2026-05-01T14:39:33Z</time></trkpt><trkpt lat="40.81942760819552" lon="9.29523172190458"><ele>273.0</ele><time>2026-05-01T14:39:34Z</time></trkpt><trkpt lat="40.81953878463293" lon="9.295274057113971"><ele>273.0</ele><time>2026-05-01T14:39:35Z</time></trkpt><trkpt lat="40.81965830682438" lon="9.295321955074135"><ele>273.0</ele><time>2026-05-01T14:39:36Z</time></trkpt><trkpt lat="40.81977831947742" lon="9.295373454455582"><ele>273.0</ele><time>2026-05-01T14:39:37Z</time></trkpt><trkpt lat="40.81989739776842" lon="9.295424603065262"><ele>273.0</ele><time>2026-05-01T14:39:38Z</time></trkpt><trkpt lat="40.82001720740353" lon="9.29548432987747"><ele>273.0</ele><time>2026-05-01T14:39:39Z</time></trkpt><trkpt lat="40.82013858184453" lon="9.295552519669734"><ele>273.0</ele><time>2026-05-01T14:39:40Z</time></trkpt><trkpt lat="40.820258308620886" lon="9.29563064422738"><ele>273.0</ele><time>2026-05-01T14:39:41Z</time></trkpt><trkpt lat="40.82037639570584" lon="9.29571372661928"><ele>273.0</ele><time>2026-05-01T14:39:42Z</time></trkpt><trkpt lat="40.82049769007645" lon="9.295793849023628"><ele>272.75</ele><time>2026-05-01T14:39:43Z</time></trkpt><trkpt lat="40.820620441470346" lon="9.295861317822093"><ele>272.5</ele><time>2026-05-01T14:39:44Z</time></trkpt><trkpt lat="40.820750950680754" lon="9.295923069924461"><ele>272.25</ele><time>2026-05-01T14:39:45Z</time></trkpt><trkpt lat="40.820861483656536" lon="9.295979306326178"><ele>272.0</ele><time>2026-05-01T14:39:46Z</time></trkpt><trkpt lat="40.82095058626492" lon="9.296034178531201"><ele>272.1666666666667</ele><time>2026-05-01T14:39:47Z</time></trkpt><trkpt lat="40.82101726048442" lon="9.296069624433976"><ele>272.33333333333337</ele><time>2026-05-01T14:39:48Z</time></trkpt><trkpt lat="40.82107054942742" lon="9.295976183521228"><ele>272.5</ele><time>2026-05-01T14:39:49.001Z</time></trkpt><trkpt lat="40.82112859767388" lon="9.29594043317762"><ele>272.6666666666667</ele><time>2026-05-01T14:39:51.001Z</time></trkpt><trkpt lat="40.82125138924726" lon="9.296017263274798"><ele>272.8333333333333</ele><time>2026-05-01T14:39:53.001Z</time></trkpt><trkpt lat="40.821301041837096" lon="9.296083197972532"><ele>273.0</ele><time>2026-05-01T14:39:54.001Z</time></trkpt><trkpt lat="40.82126568454729" lon="9.296232136389138"><ele>273.0</ele><time>2026-05-01T14:39:56.001Z</time></trkpt><trkpt lat="40.82131540126516" lon="9.296361900121132"><ele>273.0</ele><time>2026-05-01T14:39:58.001Z</time></trkpt><trkpt lat="40.82139387381587" lon="9.29639246039897"><ele>273.0</ele><time>2026-05-01T14:39:59.001Z</time></trkpt><trkpt lat="40.82146194162953" lon="9.29644102163474"><ele>273.0</ele><time>2026-05-01T14:40:00.001Z</time></trkpt><trkpt lat="40.82152744762941" lon="9.296498446298724"><ele>273.0</ele><time>2026-05-01T14:40:01.001Z</time></trkpt><trkpt lat="40.82159305666663" lon="9.296553707378115"><ele>273.0</ele><time>2026-05-01T14:40:02.001Z</time></trkpt><trkpt lat="40.82168907417058" lon="9.296618407235108"><ele>272.4</ele><time>2026-05-01T14:40:04.001Z</time></trkpt><trkpt lat="40.821760362463884" lon="9.296685936365721"><ele>271.8</ele><time>2026-05-01T14:40:06.001Z</time></trkpt><trkpt lat="40.821823180938324" lon="9.296766190051688"><ele>271.2</ele><time>2026-05-01T14:40:08.001Z</time></trkpt><trkpt lat="40.821876605711445" lon="9.296918330669612"><ele>270.6</ele><time>2026-05-01T14:40:10.001Z</time></trkpt><trkpt lat="40.82193067076727" lon="9.296972611826869"><ele>270.0</ele><time>2026-05-01T14:40:11.001Z</time></trkpt><trkpt lat="40.821992191707196" lon="9.297056296536525"><ele>271.25</ele><time>2026-05-01T14:40:12.001Z</time></trkpt><trkpt lat="40.8220650038655" lon="9.297155824244573"><ele>272.5</ele><time>2026-05-01T14:40:13.001Z</time></trkpt><trkpt lat="40.82214654843455" lon="9.297273634631864"><ele>273.75</ele><time>2026-05-01T14:40:14.001Z</time></trkpt><trkpt lat="40.82224044433327" lon="9.297411045084791"><ele>275.0</ele><time>2026-05-01T14:40:15.001Z</time></trkpt><trkpt lat="40.82231845918188" lon="9.297574163845571"><ele>275.0</ele><time>2026-05-01T14:40:16.001Z</time></trkpt><trkpt lat="40.82241090295561" lon="9.297714938226727"><ele>275.0</ele><time>2026-05-01T14:40:17.001Z</time></trkpt><trkpt lat="40.82247663066543" lon="9.297849145215517"><ele>275.0</ele><time>2026-05-01T14:40:18.001Z</time></trkpt><trkpt lat="40.822513942923756" lon="9.297967915237031"><ele>275.0</ele><time>2026-05-01T14:40:19.001Z</time></trkpt><trkpt lat="40.822562705989704" lon="9.298029564328402"><ele>275.0</ele><time>2026-05-01T14:40:20.001Z</time></trkpt><trkpt lat="40.8226451317011" lon="9.298082707363177"><ele>277.0</ele><time>2026-05-01T14:40:22.001Z</time></trkpt><trkpt lat="40.82274297307235" lon="9.298032975894056"><ele>279.0</ele><time>2026-05-01T14:40:23.001Z</time></trkpt><trkpt lat="40.82285881756912" lon="9.298002541307318"><ele>281.0</ele><time>2026-05-01T14:40:24.001Z</time></trkpt><trkpt lat="40.82298186440615" lon="9.29798979115449"><ele>283.0</ele><time>2026-05-01T14:40:25.001Z</time></trkpt><trkpt lat="40.823126277668614" lon="9.297994784487624"><ele>283.0</ele><time>2026-05-01T14:40:26.001Z</time></trkpt><trkpt lat="40.8232771958525" lon="9.297998800255074"><ele>283.0</ele><time>2026-05-01T14:40:27.001Z</time></trkpt><trkpt lat="40.82339594171086" lon="9.298005658197546"><ele>283.0</ele><time>2026-05-01T14:40:28.001Z</time></trkpt><trkpt lat="40.82347636644257" lon="9.298009519315194"><ele>283.0</ele><time>2026-05-01T14:40:29.001Z</time></trkpt><trkpt lat="40.823549518700936" lon="9.29799575211478"><ele>283.0</ele><time>2026-05-01T14:40:30.001Z</time></trkpt><trkpt lat="40.82360095931077" lon="9.29793527475591"><ele>285.5</ele><time>2026-05-01T14:40:31.001Z</time></trkpt><trkpt lat="40.823628163017865" lon="9.297821502839863"><ele>288.0</ele><time>2026-05-01T14:40:32.001Z</time></trkpt><trkpt lat="40.82364716213324" lon="9.297672036000765"><ele>290.5</ele><time>2026-05-01T14:40:33.001Z</time></trkpt><trkpt lat="40.82368702586917" lon="9.29750665273601"><ele>293.0</ele><time>2026-05-01T14:40:34.001Z</time></trkpt><trkpt lat="40.823727378501715" lon="9.297320199262769"><ele>293.8</ele><time>2026-05-01T14:40:35.001Z</time></trkpt><trkpt lat="40.823777377826694" lon="9.297143087446575"><ele>294.6</ele><time>2026-05-01T14:40:36.001Z</time></trkpt><trkpt lat="40.82383624585201" lon="9.297027332875183"><ele>295.4</ele><time>2026-05-01T14:40:37.001Z</time></trkpt><trkpt lat="40.823895240657315" lon="9.296949748867494"><ele>296.2</ele><time>2026-05-01T14:40:38.001Z</time></trkpt><trkpt lat="40.82396535492595" lon="9.296886543620463"><ele>297.0</ele><time>2026-05-01T14:40:39.001Z</time></trkpt><trkpt lat="40.824076152653234" lon="9.296921954769862"><ele>297.0</ele><time>2026-05-01T14:40:40.001Z</time></trkpt><trkpt lat="40.82420801448118" lon="9.296905752586156"><ele>297.0</ele><time>2026-05-01T14:40:41.001Z</time></trkpt><trkpt lat="40.82436629230462" lon="9.296924761312384"><ele>297.0</ele><time>2026-05-01T14:40:42.001Z</time></trkpt><trkpt lat="40.824505678302486" lon="9.296934897091788"><ele>297.0</ele><time>2026-05-01T14:40:43.001Z</time></trkpt><trkpt lat="40.82462045391236" lon="9.296929126116897"><ele>298.2</ele><time>2026-05-01T14:40:44.001Z</time></trkpt><trkpt lat="40.82473422368294" lon="9.296908306632906"><ele>299.4</ele><time>2026-05-01T14:40:45.001Z</time></trkpt><trkpt lat="40.82484480061981" lon="9.29689768222078"><ele>300.6</ele><time>2026-05-01T14:40:46.001Z</time></trkpt><trkpt lat="40.82495642167897" lon="9.296907825378366"><ele>301.8</ele><time>2026-05-01T14:40:47.001Z</time></trkpt><trkpt lat="40.8250620764489" lon="9.296907994158932"><ele>303.0</ele><time>2026-05-01T14:40:48.001Z</time></trkpt><trkpt lat="40.82517376914073" lon="9.29688392083475"><ele>303.0</ele><time>2026-05-01T14:40:49.001Z</time></trkpt><trkpt lat="40.82528978119467" lon="9.296841547721218"><ele>303.0</ele><time>2026-05-01T14:40:50.001Z</time></trkpt><trkpt lat="40.825413119278885" lon="9.296798247554786"><ele>303.0</ele><time>2026-05-01T14:40:51.001Z</time></trkpt><trkpt lat="40.82553512649013" lon="9.296746548477769"><ele>303.0</ele><time>2026-05-01T14:40:52.001Z</time></trkpt><trkpt lat="40.82565328421897" lon="9.296674818298952"><ele>303.0</ele><time>2026-05-01T14:40:53.001Z</time></trkpt><trkpt lat="40.82576686121355" lon="9.296592564744351"><ele>303.0</ele><time>2026-05-01T14:40:54.001Z</time></trkpt><trkpt lat="40.825868041154536" lon="9.296529650890013"><ele>303.0</ele><time>2026-05-01T14:40:55.001Z</time></trkpt><trkpt lat="40.82596068598573" lon="9.296472977478652"><ele>303.0</ele><time>2026-05-01T14:40:56.001Z</time></trkpt><trkpt lat="40.826058373857855" lon="9.296398893277539"><ele>303.0</ele><time>2026-05-01T14:40:57.001Z</time></trkpt><trkpt lat="40.82615626776693" lon="9.296332524976169"><ele>303.0</ele><time>2026-05-01T14:40:58.001Z</time></trkpt><trkpt lat="40.82625439849336" lon="9.296256498651749"><ele>303.0</ele><time>2026-05-01T14:40:59.001Z</time></trkpt><trkpt lat="40.82635511673691" lon="9.296172450644125"><ele>303.0</ele><time>2026-05-01T14:41:00.001Z</time></trkpt><trkpt lat="40.82644898571631" lon="9.29610618953139"><ele>303.0</ele><time>2026-05-01T14:41:01.001Z</time></trkpt><trkpt lat="40.8265286644692" lon="9.296077878218995"><ele>303.0</ele><time>2026-05-01T14:41:02.001Z</time></trkpt><trkpt lat="40.82661108494548" lon="9.296112423013573"><ele>303.0</ele><time>2026-05-01T14:41:03.001Z</time></trkpt><trkpt lat="40.826713069735575" lon="9.296136916283643"><ele>303.0</ele><time>2026-05-01T14:41:04.001Z</time></trkpt><trkpt lat="40.8268481312873" lon="9.296159881004542"><ele>303.0</ele><time>2026-05-01T14:41:05.001Z</time></trkpt><trkpt lat="40.826988338914035" lon="9.296214716702957"><ele>305.0</ele><time>2026-05-01T14:41:06.001Z</time></trkpt><trkpt lat="40.82713221832349" lon="9.296274339010477"><ele>307.0</ele><time>2026-05-01T14:41:07.001Z</time></trkpt><trkpt lat="40.82726552709278" lon="9.296344337371274"><ele>309.0</ele><time>2026-05-01T14:41:08.001Z</time></trkpt><trkpt lat="40.827397852854524" lon="9.296427224231124"><ele>311.0</ele><time>2026-05-01T14:41:09.001Z</time></trkpt><trkpt lat="40.827527425891674" lon="9.296502965774517"><ele>311.0</ele><time>2026-05-01T14:41:10.001Z</time></trkpt><trkpt lat="40.82763169397601" lon="9.296560214505293"><ele>311.0</ele><time>2026-05-01T14:41:11.001Z</time></trkpt><trkpt lat="40.82772095544729" lon="9.296596268851006"><ele>311.0</ele><time>2026-05-01T14:41:12.001Z</time></trkpt><trkpt lat="40.82779514398633" lon="9.296600621435726"><ele>311.0</ele><time>2026-05-01T14:41:13.001Z</time></trkpt><trkpt lat="40.82787972639575" lon="9.296521876789575"><ele>311.0</ele><time>2026-05-01T14:41:15.001Z</time></trkpt><trkpt lat="40.827876109688404" lon="9.296394034138489"><ele>312.8</ele><time>2026-05-01T14:41:16.001Z</time></trkpt><trkpt lat="40.82788001179129" lon="9.296273552739805"><ele>314.6</ele><time>2026-05-01T14:41:17.001Z</time></trkpt><trkpt lat="40.827888266747436" lon="9.296147541697355"><ele>316.4</ele><time>2026-05-01T14:41:18.001Z</time></trkpt><trkpt lat="40.82789832092265" lon="9.296005586735463"><ele>318.2</ele><time>2026-05-01T14:41:19.001Z</time></trkpt><trkpt lat="40.82791793425561" lon="9.2958512496653"><ele>320.0</ele><time>2026-05-01T14:41:20.001Z</time></trkpt><trkpt lat="40.82794071073792" lon="9.295688778864958"><ele>319.75</ele><time>2026-05-01T14:41:21.001Z</time></trkpt><trkpt lat="40.827968371195894" lon="9.295514487335053"><ele>319.5</ele><time>2026-05-01T14:41:22.001Z</time></trkpt><trkpt lat="40.827998201905" lon="9.295311258730502"><ele>319.25</ele><time>2026-05-01T14:41:23.001Z</time></trkpt><trkpt lat="40.8280191891735" lon="9.295116972691455"><ele>319.0</ele><time>2026-05-01T14:41:24.001Z</time></trkpt><trkpt lat="40.82803043162071" lon="9.294951576083236"><ele>319.0</ele><time>2026-05-01T14:41:25.001Z</time></trkpt><trkpt lat="40.82804446705911" lon="9.294766172252396"><ele>319.0</ele><time>2026-05-01T14:41:26.001Z</time></trkpt><trkpt lat="40.828079102584674" lon="9.29458076827731"><ele>319.0</ele><time>2026-05-01T14:41:27.001Z</time></trkpt><trkpt lat="40.82809876656143" lon="9.294411492956572"><ele>319.0</ele><time>2026-05-01T14:41:28.001Z</time></trkpt><trkpt lat="40.82811160867281" lon="9.294280438859486"><ele>319.0</ele><time>2026-05-01T14:41:29.001Z</time></trkpt><trkpt lat="40.82811329984466" lon="9.294153275950439"><ele>319.0</ele><time>2026-05-01T14:41:30.001Z</time></trkpt><trkpt lat="40.82812656011114" lon="9.294013981046323"><ele>319.0</ele><time>2026-05-01T14:41:31.001Z</time></trkpt><trkpt lat="40.828139325873735" lon="9.293863950116888"><ele>319.0</ele><time>2026-05-01T14:41:32.001Z</time></trkpt><trkpt lat="40.82819471935086" lon="9.29372916258777"><ele>319.0</ele><time>2026-05-01T14:41:33.001Z</time></trkpt><trkpt lat="40.8282585618688" lon="9.293546117707956"><ele>319.0</ele><time>2026-05-01T14:41:34.001Z</time></trkpt><trkpt lat="40.8283251378033" lon="9.293339507114002"><ele>319.0</ele><time>2026-05-01T14:41:35.001Z</time></trkpt><trkpt lat="40.828367490803366" lon="9.293150128599464"><ele>319.0</ele><time>2026-05-01T14:41:36.001Z</time></trkpt><trkpt lat="40.82841403460257" lon="9.293002914784562"><ele>319.0</ele><time>2026-05-01T14:41:37.001Z</time></trkpt><trkpt lat="40.8284617411457" lon="9.292853099652252"><ele>320.66666666666663</ele><time>2026-05-01T14:41:38.001Z</time></trkpt><trkpt lat="40.82854954045898" lon="9.292713145657837"><ele>322.3333333333333</ele><time>2026-05-01T14:41:39.001Z</time></trkpt><trkpt lat="40.828624488186975" lon="9.29254706672412"><ele>324.0</ele><time>2026-05-01T14:41:40.001Z</time></trkpt><trkpt lat="40.82873163077778" lon="9.292376738618824"><ele>324.5</ele><time>2026-05-01T14:41:41.001Z</time></trkpt><trkpt lat="40.82882055576349" lon="9.292210959817591"><ele>325.0</ele><time>2026-05-01T14:41:42.001Z</time></trkpt><trkpt lat="40.82889556864878" lon="9.292065972757252"><ele>325.5</ele><time>2026-05-01T14:41:43.001Z</time></trkpt><trkpt lat="40.828951168588084" lon="9.291942471289165"><ele>326.0</ele><time>2026-05-01T14:41:44.001Z</time></trkpt><trkpt lat="40.82898512417258" lon="9.291798569649181"><ele>326.0</ele><time>2026-05-01T14:41:45.001Z</time></trkpt><trkpt lat="40.82902066634603" lon="9.291620561824955"><ele>326.0</ele><time>2026-05-01T14:41:46.001Z</time></trkpt><trkpt lat="40.82908561831644" lon="9.291445953866948"><ele>326.0</ele><time>2026-05-01T14:41:47.001Z</time></trkpt><trkpt lat="40.82915249428827" lon="9.291314828807106"><ele>326.0</ele><time>2026-05-01T14:41:48.001Z</time></trkpt><trkpt lat="40.829233790400934" lon="9.291213466132346"><ele>328.25</ele><time>2026-05-01T14:41:49.001Z</time></trkpt><trkpt lat="40.829337253399764" lon="9.291108830367671"><ele>330.5</ele><time>2026-05-01T14:41:50.001Z</time></trkpt><trkpt lat="40.829466853543224" lon="9.290970897446753"><ele>332.75</ele><time>2026-05-01T14:41:51.001Z</time></trkpt><trkpt lat="40.82958720147125" lon="9.290876109559834"><ele>335.0</ele><time>2026-05-01T14:41:52.001Z</time></trkpt><trkpt lat="40.82966712253867" lon="9.290810533019286"><ele>335.0</ele><time>2026-05-01T14:41:53.001Z</time></trkpt><trkpt lat="40.82971230878606" lon="9.290682512453214"><ele>335.0</ele><time>2026-05-01T14:41:55.001Z</time></trkpt><trkpt lat="40.8296855265061" lon="9.290599538941503"><ele>335.0</ele><time>2026-05-01T14:41:56.001Z</time></trkpt><trkpt lat="40.82963318401881" lon="9.2904908335343"><ele>335.0</ele><time>2026-05-01T14:41:57.001Z</time></trkpt><trkpt lat="40.82960967632208" lon="9.290325230962038"><ele>335.0</ele><time>2026-05-01T14:41:58.001Z</time></trkpt><trkpt lat="40.829574073769976" lon="9.290150129639716"><ele>336.0</ele><time>2026-05-01T14:41:59.001Z</time></trkpt><trkpt lat="40.82951087700688" lon="9.289972186041306"><ele>337.0</ele><time>2026-05-01T14:42:00.001Z</time></trkpt><trkpt lat="40.82943618189009" lon="9.289791825751623"><ele>338.0</ele><time>2026-05-01T14:42:01.001Z</time></trkpt><trkpt lat="40.82933993619381" lon="9.28959128303197"><ele>336.59999999999997</ele><time>2026-05-01T14:42:02.001Z</time></trkpt><trkpt lat="40.829270890173206" lon="9.289441607024859"><ele>335.2</ele><time>2026-05-01T14:42:03.001Z</time></trkpt><trkpt lat="40.829226953634915" lon="9.289331685098428"><ele>333.8</ele><time>2026-05-01T14:42:04.001Z</time></trkpt><trkpt lat="40.82919015782383" lon="9.289244620829582"><ele>332.4</ele><time>2026-05-01T14:42:05.001Z</time></trkpt><trkpt lat="40.829146213964115" lon="9.289132675091146"><ele>331.0</ele><time>2026-05-01T14:42:07.001Z</time></trkpt><trkpt lat="40.829265572637375" lon="9.289124664625955"><ele>332.8</ele><time>2026-05-01T14:42:34.001Z</time></trkpt><trkpt lat="40.82933036960664" lon="9.289155809479173"><ele>334.6</ele><time>2026-05-01T14:42:35.001Z</time></trkpt><trkpt lat="40.829414224535284" lon="9.289189709782105"><ele>336.4</ele><time>2026-05-01T14:42:36.001Z</time></trkpt><trkpt lat="40.829502431034825" lon="9.289229096395376"><ele>338.2</ele><time>2026-05-01T14:42:37.001Z</time></trkpt><trkpt lat="40.82961528828985" lon="9.289271523762695"><ele>340.0</ele><time>2026-05-01T14:42:38.001Z</time></trkpt><trkpt lat="40.82974756906934" lon="9.28931540937484"><ele>340.0</ele><time>2026-05-01T14:42:39.001Z</time></trkpt><trkpt lat="40.8299032928791" lon="9.28936012757776"><ele>340.0</ele><time>2026-05-01T14:42:40.001Z</time></trkpt><trkpt lat="40.83008968095319" lon="9.28941977253854"><ele>340.0</ele><time>2026-05-01T14:42:41.001Z</time></trkpt><trkpt lat="40.83024337848248" lon="9.289475930152516"><ele>343.3333333333333</ele><time>2026-05-01T14:42:42.001Z</time></trkpt><trkpt lat="40.830386264169704" lon="9.289526935666453"><ele>346.6666666666667</ele><time>2026-05-01T14:42:43.001Z</time></trkpt><trkpt lat="40.83053257583049" lon="9.289570796517685"><ele>350.0</ele><time>2026-05-01T14:42:44.001Z</time></trkpt><trkpt lat="40.83068531337837" lon="9.28961566588102"><ele>350.0</ele><time>2026-05-01T14:42:45.001Z</time></trkpt><trkpt lat="40.83084628458213" lon="9.289668672116075"><ele>350.0</ele><time>2026-05-01T14:42:46.001Z</time></trkpt><trkpt lat="40.83101508186953" lon="9.289727034432355"><ele>350.0</ele><time>2026-05-01T14:42:47.001Z</time></trkpt><trkpt lat="40.83117584767811" lon="9.289778579995149"><ele>350.6666666666667</ele><time>2026-05-01T14:42:48.001Z</time></trkpt><trkpt lat="40.831353341387675" lon="9.289823772669212"><ele>351.3333333333333</ele><time>2026-05-01T14:42:49.001Z</time></trkpt><trkpt lat="40.83153499260807" lon="9.289850528451856"><ele>352.0</ele><time>2026-05-01T14:42:50.001Z</time></trkpt><trkpt lat="40.831712447806176" lon="9.289863202157655"><ele>354.66666666666663</ele><time>2026-05-01T14:42:51.001Z</time></trkpt><trkpt lat="40.83188675321644" lon="9.289864041327293"><ele>357.3333333333333</ele><time>2026-05-01T14:42:52.001Z</time></trkpt><trkpt lat="40.832028810906245" lon="9.289845054419018"><ele>360.0</ele><time>2026-05-01T14:42:53.001Z</time></trkpt><trkpt lat="40.83216067488206" lon="9.28981587358548"><ele>360.0</ele><time>2026-05-01T14:42:54.001Z</time></trkpt><trkpt lat="40.83229994807018" lon="9.289777611338886"><ele>360.0</ele><time>2026-05-01T14:42:55.001Z</time></trkpt><trkpt lat="40.83244609337438" lon="9.289756927463685"><ele>360.0</ele><time>2026-05-01T14:42:56.001Z</time></trkpt><trkpt lat="40.832562504320244" lon="9.28980492621304"><ele>360.0</ele><time>2026-05-01T14:42:57.001Z</time></trkpt><trkpt lat="40.83268367432067" lon="9.289878349651355"><ele>363.3333333333333</ele><time>2026-05-01T14:42:58.001Z</time></trkpt><trkpt lat="40.832834487710684" lon="9.28989565220914"><ele>366.66666666666663</ele><time>2026-05-01T14:42:59.001Z</time></trkpt><trkpt lat="40.83300937461591" lon="9.289913307312574"><ele>370.0</ele><time>2026-05-01T14:43:00.001Z</time></trkpt><trkpt lat="40.833178815096744" lon="9.289963075094935"><ele>370.0</ele><time>2026-05-01T14:43:01.001Z</time></trkpt><trkpt lat="40.833313007771004" lon="9.289992831407293"><ele>370.0</ele><time>2026-05-01T14:43:02.001Z</time></trkpt><trkpt lat="40.833409556534995" lon="9.290020657724575"><ele>370.0</ele><time>2026-05-01T14:43:03.001Z</time></trkpt><trkpt lat="40.83350743991736" lon="9.289998823028386"><ele>370.0</ele><time>2026-05-01T14:43:04.001Z</time></trkpt><trkpt lat="40.833599687789366" lon="9.289934733097978"><ele>370.0</ele><time>2026-05-01T14:43:05.001Z</time></trkpt><trkpt lat="40.83370879509911" lon="9.28984031656291"><ele>372.0</ele><time>2026-05-01T14:43:06.001Z</time></trkpt><trkpt lat="40.833855997465825" lon="9.289784621935846"><ele>374.0</ele><time>2026-05-01T14:43:07.001Z</time></trkpt><trkpt lat="40.83399709910692" lon="9.289767202632948"><ele>376.0</ele><time>2026-05-01T14:43:08.001Z</time></trkpt><trkpt lat="40.8341357447095" lon="9.28976636229561"><ele>378.0</ele><time>2026-05-01T14:43:09.001Z</time></trkpt><trkpt lat="40.83429442574048" lon="9.289790555130542"><ele>382.0</ele><time>2026-05-01T14:43:10.001Z</time></trkpt><trkpt lat="40.834413997695826" lon="9.289850284324716"><ele>386.0</ele><time>2026-05-01T14:43:11.001Z</time></trkpt><trkpt lat="40.83455255497592" lon="9.289924350656012"><ele>390.0</ele><time>2026-05-01T14:43:12.001Z</time></trkpt><trkpt lat="40.83471564559761" lon="9.289985447608482"><ele>394.0</ele><time>2026-05-01T14:43:13.001Z</time></trkpt><trkpt lat="40.834889424986486" lon="9.290015878975815"><ele>394.0</ele><time>2026-05-01T14:43:14.001Z</time></trkpt><trkpt lat="40.83507384698583" lon="9.290056334760974"><ele>394.0</ele><time>2026-05-01T14:43:15.001Z</time></trkpt><trkpt lat="40.835265322352704" lon="9.290095726271474"><ele>394.0</ele><time>2026-05-01T14:43:16.001Z</time></trkpt><trkpt lat="40.83544613316906" lon="9.290156565215408"><ele>399.33333333333337</ele><time>2026-05-01T14:43:17.001Z</time></trkpt><trkpt lat="40.835608063202685" lon="9.290199202874335"><ele>404.66666666666663</ele><time>2026-05-01T14:43:18.001Z</time></trkpt><trkpt lat="40.83578132915291" lon="9.290216706757672"><ele>410.0</ele><time>2026-05-01T14:43:19.001Z</time></trkpt><trkpt lat="40.83596984792674" lon="9.290212286023205"><ele>413.66666666666663</ele><time>2026-05-01T14:43:20.001Z</time></trkpt><trkpt lat="40.836167426465956" lon="9.290222672909232"><ele>417.33333333333337</ele><time>2026-05-01T14:43:21.001Z</time></trkpt><trkpt lat="40.836347601202874" lon="9.290234297343924"><ele>421.0</ele><time>2026-05-01T14:43:22.001Z</time></trkpt><trkpt lat="40.83648947740267" lon="9.29023963030484"><ele>421.0</ele><time>2026-05-01T14:43:23.001Z</time></trkpt><trkpt lat="40.83662259311569" lon="9.290223549007797"><ele>421.0</ele><time>2026-05-01T14:43:24.001Z</time></trkpt><trkpt lat="40.83676889037105" lon="9.290171098825006"><ele>421.0</ele><time>2026-05-01T14:43:25.001Z</time></trkpt><trkpt lat="40.83692301830815" lon="9.2901104310102"><ele>421.0</ele><time>2026-05-01T14:43:26.001Z</time></trkpt><trkpt lat="40.83708919668523" lon="9.290034334600232"><ele>423.75</ele><time>2026-05-01T14:43:27.001Z</time></trkpt><trkpt lat="40.83723539371928" lon="9.289945311265633"><ele>426.5</ele><time>2026-05-01T14:43:28.001Z</time></trkpt><trkpt lat="40.8373685904428" lon="9.289870364547705"><ele>429.25</ele><time>2026-05-01T14:43:29.001Z</time></trkpt><trkpt lat="40.837463532943346" lon="9.289827962806896"><ele>432.0</ele><time>2026-05-01T14:43:30.001Z</time></trkpt><trkpt lat="40.837556591491705" lon="9.289825729797599"><ele>435.0</ele><time>2026-05-01T14:43:31.001Z</time></trkpt><trkpt lat="40.8376499179013" lon="9.289860942138096"><ele>438.00000000000006</ele><time>2026-05-01T14:43:32.001Z</time></trkpt><trkpt lat="40.83774492778633" lon="9.289937910298333"><ele>441.00000000000006</ele><time>2026-05-01T14:43:33.001Z</time></trkpt><trkpt lat="40.837784118694465" lon="9.290059244742888"><ele>444.0</ele><time>2026-05-01T14:43:34.001Z</time></trkpt><trkpt lat="40.83781422566226" lon="9.290193688961708"><ele>447.0</ele><time>2026-05-01T14:43:35.001Z</time></trkpt><trkpt lat="40.8378397985617" lon="9.290364459665485"><ele>447.0</ele><time>2026-05-01T14:43:36.001Z</time></trkpt><trkpt lat="40.837888675807605" lon="9.290561807492177"><ele>447.0</ele><time>2026-05-01T14:43:37.001Z</time></trkpt><trkpt lat="40.83793442957748" lon="9.290750163971335"><ele>447.0</ele><time>2026-05-01T14:43:38.001Z</time></trkpt><trkpt lat="40.837990086354914" lon="9.29087328647583"><ele>447.0</ele><time>2026-05-01T14:43:39.001Z</time></trkpt><trkpt lat="40.83804984490278" lon="9.290946413100214"><ele>447.0</ele><time>2026-05-01T14:43:40.001Z</time></trkpt><trkpt lat="40.838130055743946" lon="9.290938519032936"><ele>447.00000000000006</ele><time>2026-05-01T14:43:42.001Z</time></trkpt><trkpt lat="40.8381783673901" lon="9.290812542552144"><ele>447.00000000000006</ele><time>2026-05-01T14:43:44.001Z</time></trkpt><trkpt lat="40.83816533727777" lon="9.290701694074539"><ele>447.0</ele><time>2026-05-01T14:43:45.001Z</time></trkpt><trkpt lat="40.83813923628644" lon="9.290564211175822"><ele>447.0</ele><time>2026-05-01T14:43:46.001Z</time></trkpt><trkpt lat="40.83812202682652" lon="9.290392002541935"><ele>447.0</ele><time>2026-05-01T14:43:47.001Z</time></trkpt><trkpt lat="40.83810145068821" lon="9.290183554677037"><ele>447.0</ele><time>2026-05-01T14:43:48.001Z</time></trkpt><trkpt lat="40.838086159616815" lon="9.289958040132673"><ele>447.0</ele><time>2026-05-01T14:43:49.001Z</time></trkpt><trkpt lat="40.838097155904045" lon="9.28975841255416"><ele>449.0</ele><time>2026-05-01T14:43:50.001Z</time></trkpt><trkpt lat="40.83812582357263" lon="9.289604332347382"><ele>451.0</ele><time>2026-05-01T14:43:51.001Z</time></trkpt><trkpt lat="40.838162508323045" lon="9.28945804832597"><ele>453.0</ele><time>2026-05-01T14:43:52.001Z</time></trkpt><trkpt lat="40.838206688918625" lon="9.289325776426743"><ele>455.0</ele><time>2026-05-01T14:43:53.001Z</time></trkpt><trkpt lat="40.83825418002554" lon="9.289185049362706"><ele>455.0</ele><time>2026-05-01T14:43:54.001Z</time></trkpt><trkpt lat="40.838320003976904" lon="9.289102302163489"><ele>455.0</ele><time>2026-05-01T14:43:55.001Z</time></trkpt><trkpt lat="40.838390666083335" lon="9.289062443792826"><ele>455.0</ele><time>2026-05-01T14:43:56.001Z</time></trkpt><trkpt lat="40.83848883448849" lon="9.289084382527468"><ele>455.0</ele><time>2026-05-01T14:43:57.001Z</time></trkpt><trkpt lat="40.838621073924266" lon="9.289060247057321"><ele>455.0</ele><time>2026-05-01T14:43:58.001Z</time></trkpt><trkpt lat="40.83876112566911" lon="9.289024501769392"><ele>454.0</ele><time>2026-05-01T14:43:59.001Z</time></trkpt><trkpt lat="40.83892511694401" lon="9.288947960633761"><ele>453.0</ele><time>2026-05-01T14:44:00.001Z</time></trkpt><trkpt lat="40.83906024399253" lon="9.288865259750981"><ele>452.0</ele><time>2026-05-01T14:44:01.001Z</time></trkpt><trkpt lat="40.83917462641545" lon="9.288790083325352"><ele>451.5</ele><time>2026-05-01T14:44:02.001Z</time></trkpt><trkpt lat="40.839295234541105" lon="9.288728945572435"><ele>451.0</ele><time>2026-05-01T14:44:03.001Z</time></trkpt><trkpt lat="40.839443077940516" lon="9.288682932887863"><ele>450.5</ele><time>2026-05-01T14:44:04.001Z</time></trkpt><trkpt lat="40.83957977758245" lon="9.28864849383411"><ele>450.0</ele><time>2026-05-01T14:44:05.001Z</time></trkpt><trkpt lat="40.839681274343754" lon="9.288603794554179"><ele>450.0</ele><time>2026-05-01T14:44:06.001Z</time></trkpt><trkpt lat="40.839750748758895" lon="9.288561223861372"><ele>450.0</ele><time>2026-05-01T14:44:07.001Z</time></trkpt><trkpt lat="40.839820546103624" lon="9.28850029932625"><ele>450.0</ele><time>2026-05-01T14:44:08.001Z</time></trkpt><trkpt lat="40.8398802431024" lon="9.288423822597643"><ele>450.0</ele><time>2026-05-01T14:44:09.001Z</time></trkpt><trkpt lat="40.83993422043881" lon="9.288349339857803"><ele>450.0</ele><time>2026-05-01T14:44:10.001Z</time></trkpt><trkpt lat="40.83999624989866" lon="9.288253819128714"><ele>450.0</ele><time>2026-05-01T14:44:12.001Z</time></trkpt><trkpt lat="40.84001531523446" lon="9.28816969398543"><ele>450.0</ele><time>2026-05-01T14:44:56Z</time></trkpt><trkpt lat="40.84003642949659" lon="9.288079777891058"><ele>450.0</ele><time>2026-05-01T14:44:57Z</time></trkpt><trkpt lat="40.84006678261694" lon="9.287967736663049"><ele>450.0</ele><time>2026-05-01T14:44:58Z</time></trkpt><trkpt lat="40.84010099659654" lon="9.287854469553732"><ele>450.0</ele><time>2026-05-01T14:44:59Z</time></trkpt><trkpt lat="40.84014483782027" lon="9.28773241557844"><ele>450.0</ele><time>2026-05-01T14:45:00Z</time></trkpt><trkpt lat="40.84018486271666" lon="9.287581347674568"><ele>448.0</ele><time>2026-05-01T14:45:01Z</time></trkpt><trkpt lat="40.84023514724622" lon="9.287440500695604"><ele>446.0</ele><time>2026-05-01T14:45:02Z</time></trkpt><trkpt lat="40.84027167227218" lon="9.287309436103255"><ele>444.0</ele><time>2026-05-01T14:45:03Z</time></trkpt><trkpt lat="40.84031103123791" lon="9.287184144443822"><ele>442.0</ele><time>2026-05-01T14:45:04Z</time></trkpt><trkpt lat="40.840343304758676" lon="9.287058211721122"><ele>440.0</ele><time>2026-05-01T14:45:05Z</time></trkpt><trkpt lat="40.840373372469756" lon="9.286935095507298"><ele>440.0</ele><time>2026-05-01T14:45:06Z</time></trkpt><trkpt lat="40.840402926446096" lon="9.286810685189115"><ele>440.0</ele><time>2026-05-01T14:45:07Z</time></trkpt><trkpt lat="40.84043167797385" lon="9.286683437616842"><ele>440.0</ele><time>2026-05-01T14:45:08Z</time></trkpt><trkpt lat="40.840454414671335" lon="9.286565336174116"><ele>440.0</ele><time>2026-05-01T14:45:09Z</time></trkpt><trkpt lat="40.84048030694415" lon="9.286435464003187"><ele>440.0</ele><time>2026-05-01T14:45:10Z</time></trkpt><trkpt lat="40.84050107060602" lon="9.286336653280788"><ele>440.0</ele><time>2026-05-01T14:45:11Z</time></trkpt><trkpt lat="40.84052441153046" lon="9.286232783890846"><ele>440.0</ele><time>2026-05-01T14:45:12Z</time></trkpt><trkpt lat="40.84055213134187" lon="9.286128242703313"><ele>440.0</ele><time>2026-05-01T14:45:13Z</time></trkpt><trkpt lat="40.84060334835761" lon="9.286020832717401"><ele>440.0</ele><time>2026-05-01T14:45:14Z</time></trkpt><trkpt lat="40.84067365129359" lon="9.28590141865389"><ele>440.0</ele><time>2026-05-01T14:45:15Z</time></trkpt><trkpt lat="40.840738062523954" lon="9.285768583251855"><ele>440.0</ele><time>2026-05-01T14:45:16Z</time></trkpt><trkpt lat="40.84079300440418" lon="9.285648838419293"><ele>440.0</ele><time>2026-05-01T14:45:17.001Z</time></trkpt><trkpt lat="40.84082493114344" lon="9.28552656790586"><ele>440.0</ele><time>2026-05-01T14:45:18.001Z</time></trkpt><trkpt lat="40.840844401514474" lon="9.285392357793588"><ele>440.0</ele><time>2026-05-01T14:45:19.001Z</time></trkpt><trkpt lat="40.84086961979887" lon="9.285237851504322"><ele>440.0</ele><time>2026-05-01T14:45:20.001Z</time></trkpt><trkpt lat="40.840908890178184" lon="9.28510134157637"><ele>440.4</ele><time>2026-05-01T14:45:21.001Z</time></trkpt><trkpt lat="40.84094558462326" lon="9.284990973882765"><ele>440.8</ele><time>2026-05-01T14:45:22.001Z</time></trkpt><trkpt lat="40.840960965446925" lon="9.284866886991496"><ele>441.20000000000005</ele><time>2026-05-01T14:45:23.001Z</time></trkpt><trkpt lat="40.84098316231487" lon="9.284753398351429"><ele>441.6</ele><time>2026-05-01T14:45:24.001Z</time></trkpt><trkpt lat="40.840999203109035" lon="9.284636102162347"><ele>442.0</ele><time>2026-05-01T14:45:25.001Z</time></trkpt><trkpt lat="40.84102212054136" lon="9.284488306172364"><ele>442.8</ele><time>2026-05-01T14:45:26.001Z</time></trkpt><trkpt lat="40.84104275826868" lon="9.284335074976191"><ele>443.6</ele><time>2026-05-01T14:45:27.001Z</time></trkpt><trkpt lat="40.84109052044538" lon="9.284197675348528"><ele>444.40000000000003</ele><time>2026-05-01T14:45:28.001Z</time></trkpt><trkpt lat="40.84114508630058" lon="9.2840683792653"><ele>445.20000000000005</ele><time>2026-05-01T14:45:29.001Z</time></trkpt><trkpt lat="40.841186151324514" lon="9.2839614486242"><ele>446.0</ele><time>2026-05-01T14:45:30.001Z</time></trkpt><trkpt lat="40.841219442902506" lon="9.283876737565091"><ele>446.0</ele><time>2026-05-01T14:45:31.001Z</time></trkpt><trkpt lat="40.84126935682008" lon="9.283797354851055"><ele>446.0</ele><time>2026-05-01T14:45:32.001Z</time></trkpt><trkpt lat="40.841357839552856" lon="9.283744274614046"><ele>446.0</ele><time>2026-05-01T14:45:33.001Z</time></trkpt><trkpt lat="40.84147327248501" lon="9.283649302406165"><ele>446.0</ele><time>2026-05-01T14:45:34.001Z</time></trkpt><trkpt lat="40.84157820542223" lon="9.283512458918842"><ele>446.0</ele><time>2026-05-01T14:45:35.001Z</time></trkpt><trkpt lat="40.84165560341913" lon="9.283380146385912"><ele>446.0</ele><time>2026-05-01T14:45:36.001Z</time></trkpt><trkpt lat="40.84172357445073" lon="9.283264041706598"><ele>446.0</ele><time>2026-05-01T14:45:37.001Z</time></trkpt><trkpt lat="40.84178164222007" lon="9.283159713797982"><ele>446.0</ele><time>2026-05-01T14:45:38.001Z</time></trkpt><trkpt lat="40.84184224016836" lon="9.283013448231623"><ele>444.0</ele><time>2026-05-01T14:45:39.001Z</time></trkpt><trkpt lat="40.84191538455206" lon="9.282862791915798"><ele>442.0</ele><time>2026-05-01T14:45:40.001Z</time></trkpt><trkpt lat="40.84198999341288" lon="9.282696775400334"><ele>440.0</ele><time>2026-05-01T14:45:41.001Z</time></trkpt><trkpt lat="40.84206599799734" lon="9.282539260935089"><ele>438.0</ele><time>2026-05-01T14:45:42.001Z</time></trkpt><trkpt lat="40.84213011464591" lon="9.282408840215993"><ele>441.0</ele><time>2026-05-01T14:45:43.001Z</time></trkpt><trkpt lat="40.84218500452861" lon="9.28226030927591"><ele>444.0</ele><time>2026-05-01T14:45:44.001Z</time></trkpt><trkpt lat="40.84226351267873" lon="9.282115789357714"><ele>447.0</ele><time>2026-05-01T14:45:45.001Z</time></trkpt><trkpt lat="40.842327462964164" lon="9.281969173367292"><ele>450.0</ele><time>2026-05-01T14:45:46.001Z</time></trkpt><trkpt lat="40.84238064566242" lon="9.281829756538624"><ele>450.0</ele><time>2026-05-01T14:45:47.001Z</time></trkpt><trkpt lat="40.842419207411616" lon="9.28170110149304"><ele>450.0</ele><time>2026-05-01T14:45:48.001Z</time></trkpt><trkpt lat="40.842488055897135" lon="9.281589597459606"><ele>450.0</ele><time>2026-05-01T14:45:49.001Z</time></trkpt><trkpt lat="40.842552142853975" lon="9.281512437262704"><ele>450.0</ele><time>2026-05-01T14:45:50.001Z</time></trkpt><trkpt lat="40.84263222540811" lon="9.281468624738507"><ele>450.0</ele><time>2026-05-01T14:45:51.001Z</time></trkpt><trkpt lat="40.84272408251582" lon="9.281418947291904"><ele>448.75</ele><time>2026-05-01T14:45:52.001Z</time></trkpt><trkpt lat="40.84281346452141" lon="9.281335586875493"><ele>447.5</ele><time>2026-05-01T14:45:53.001Z</time></trkpt><trkpt lat="40.8429031340226" lon="9.28123131305682"><ele>446.25</ele><time>2026-05-01T14:45:54.001Z</time></trkpt><trkpt lat="40.8429664877367" lon="9.281111327172352"><ele>445.0</ele><time>2026-05-01T14:45:55.001Z</time></trkpt><trkpt lat="40.84303563306991" lon="9.280949570792783"><ele>445.0</ele><time>2026-05-01T14:45:56.001Z</time></trkpt><trkpt lat="40.8431158716721" lon="9.280790859029397"><ele>445.0</ele><time>2026-05-01T14:45:57.001Z</time></trkpt><trkpt lat="40.84318052059115" lon="9.28065289473179"><ele>445.0</ele><time>2026-05-01T14:45:58.001Z</time></trkpt><trkpt lat="40.84323128979074" lon="9.280493801136542"><ele>445.0</ele><time>2026-05-01T14:45:59.001Z</time></trkpt><trkpt lat="40.84327504547052" lon="9.28032471151362"><ele>448.6666666666667</ele><time>2026-05-01T14:46:00.001Z</time></trkpt><trkpt lat="40.843299508104224" lon="9.280123190522142"><ele>452.33333333333337</ele><time>2026-05-01T14:46:01.001Z</time></trkpt><trkpt lat="40.84331800458002" lon="9.279910244092857"><ele>456.0</ele><time>2026-05-01T14:46:02.001Z</time></trkpt><trkpt lat="40.84333330269548" lon="9.279727861847897"><ele>456.75</ele><time>2026-05-01T14:46:03.001Z</time></trkpt><trkpt lat="40.843344091624175" lon="9.279554912400265"><ele>457.5</ele><time>2026-05-01T14:46:04.001Z</time></trkpt><trkpt lat="40.84335956167866" lon="9.279400927098346"><ele>458.25</ele><time>2026-05-01T14:46:05.001Z</time></trkpt><trkpt lat="40.8433351270685" lon="9.279241938374675"><ele>459.0</ele><time>2026-05-01T14:46:06.001Z</time></trkpt><trkpt lat="40.843304899044284" lon="9.279076609826395"><ele>459.25</ele><time>2026-05-01T14:46:07.001Z</time></trkpt><trkpt lat="40.84326737717898" lon="9.278888638939748"><ele>459.5</ele><time>2026-05-01T14:46:08.001Z</time></trkpt><trkpt lat="40.84321453403318" lon="9.278703636725929"><ele>459.75</ele><time>2026-05-01T14:46:09.001Z</time></trkpt><trkpt lat="40.84318448606082" lon="9.278522111279486"><ele>460.0</ele><time>2026-05-01T14:46:10Z</time></trkpt><trkpt lat="40.84314427045051" lon="9.278352791266208"><ele>460.0</ele><time>2026-05-01T14:46:11Z</time></trkpt><trkpt lat="40.84313360969537" lon="9.278200212045373"><ele>460.0</ele><time>2026-05-01T14:46:12Z</time></trkpt><trkpt lat="40.84314069095383" lon="9.278063159886917"><ele>460.0</ele><time>2026-05-01T14:46:13Z</time></trkpt><trkpt lat="40.84316594497235" lon="9.277931814009715"><ele>460.0</ele><time>2026-05-01T14:46:14Z</time></trkpt><trkpt lat="40.84319599948021" lon="9.277802452634965"><ele>460.0</ele><time>2026-05-01T14:46:15Z</time></trkpt><trkpt lat="40.84324248556879" lon="9.277688880919973"><ele>462.0</ele><time>2026-05-01T14:46:16Z</time></trkpt><trkpt lat="40.843301811889475" lon="9.277574390849598"><ele>464.0</ele><time>2026-05-01T14:46:17Z</time></trkpt><trkpt lat="40.84337582765893" lon="9.277464810596202"><ele>466.0</ele><time>2026-05-01T14:46:18Z</time></trkpt><trkpt lat="40.84345018556897" lon="9.27735683284606"><ele>468.0</ele><time>2026-05-01T14:46:19Z</time></trkpt><trkpt lat="40.84352599443892" lon="9.277239548429447"><ele>470.0</ele><time>2026-05-01T14:46:20Z</time></trkpt><trkpt lat="40.84360569307949" lon="9.27713005274656"><ele>472.75</ele><time>2026-05-01T14:46:21Z</time></trkpt><trkpt lat="40.84368952382025" lon="9.277038046923586"><ele>475.5</ele><time>2026-05-01T14:46:22Z</time></trkpt><trkpt lat="40.84377866478219" lon="9.276954287670934"><ele>478.25</ele><time>2026-05-01T14:46:23Z</time></trkpt><trkpt lat="40.84385885551383" lon="9.276844777331064"><ele>481.0</ele><time>2026-05-01T14:46:24Z</time></trkpt><trkpt lat="40.84392589790324" lon="9.276713140651129"><ele>481.0</ele><time>2026-05-01T14:46:25Z</time></trkpt><trkpt lat="40.843991742444786" lon="9.276584855131292"><ele>481.0</ele><time>2026-05-01T14:46:26Z</time></trkpt><trkpt lat="40.844074305337955" lon="9.276484957323206"><ele>481.0</ele><time>2026-05-01T14:46:27Z</time></trkpt><trkpt lat="40.84414794053404" lon="9.276373274126986"><ele>481.0</ele><time>2026-05-01T14:46:28Z</time></trkpt><trkpt lat="40.84421452812624" lon="9.27626068172859"><ele>481.0</ele><time>2026-05-01T14:46:29Z</time></trkpt><trkpt lat="40.84427325230045" lon="9.276172718802226"><ele>478.6666666666667</ele><time>2026-05-01T14:46:30Z</time></trkpt><trkpt lat="40.844302026325536" lon="9.276095011166126"><ele>476.33333333333337</ele><time>2026-05-01T14:46:31Z</time></trkpt><trkpt lat="40.84435557141349" lon="9.275996638404276"><ele>474.0</ele><time>2026-05-01T14:46:32Z</time></trkpt><trkpt lat="40.84439994614744" lon="9.27588620665525"><ele>471.66666666666663</ele><time>2026-05-01T14:46:33Z</time></trkpt><trkpt lat="40.84443652994422" lon="9.275789439962798"><ele>469.3333333333333</ele><time>2026-05-01T14:46:34Z</time></trkpt><trkpt lat="40.84448115796411" lon="9.275671395712962"><ele>467.0</ele><time>2026-05-01T14:46:35Z</time></trkpt><trkpt lat="40.844539870972895" lon="9.27552234433642"><ele>467.0</ele><time>2026-05-01T14:46:36Z</time></trkpt><trkpt lat="40.84462579445946" lon="9.275376399204562"><ele>467.0</ele><time>2026-05-01T14:46:37Z</time></trkpt><trkpt lat="40.84469446874601" lon="9.275225387844953"><ele>467.0</ele><time>2026-05-01T14:46:38Z</time></trkpt><trkpt lat="40.84477306589679" lon="9.275129889428323"><ele>467.0</ele><time>2026-05-01T14:46:39Z</time></trkpt><trkpt lat="40.84485443649773" lon="9.275006602391628"><ele>467.0</ele><time>2026-05-01T14:46:40Z</time></trkpt><trkpt lat="40.84492995529963" lon="9.2748590193574"><ele>467.0</ele><time>2026-05-01T14:46:41Z</time></trkpt><trkpt lat="40.84499412726106" lon="9.274695366186437"><ele>467.0</ele><time>2026-05-01T14:46:42Z</time></trkpt><trkpt lat="40.84506205981355" lon="9.274552453262938"><ele>467.0</ele><time>2026-05-01T14:46:43Z</time></trkpt><trkpt lat="40.845141281308194" lon="9.274407781657299"><ele>464.3333333333333</ele><time>2026-05-01T14:46:44Z</time></trkpt><trkpt lat="40.84521844093194" lon="9.274272481199148"><ele>461.66666666666663</ele><time>2026-05-01T14:46:45Z</time></trkpt><trkpt lat="40.84530293817417" lon="9.274103307380118"><ele>459.0</ele><time>2026-05-01T14:46:46Z</time></trkpt><trkpt lat="40.845437710441885" lon="9.27394742608909"><ele>460.75</ele><time>2026-05-01T14:46:47Z</time></trkpt><trkpt lat="40.84556759425309" lon="9.273818169306143"><ele>462.5</ele><time>2026-05-01T14:46:48Z</time></trkpt><trkpt lat="40.845679822052304" lon="9.273691497948489"><ele>464.25</ele><time>2026-05-01T14:46:49Z</time></trkpt><trkpt lat="40.8457823827576" lon="9.273573232837798"><ele>466.0</ele><time>2026-05-01T14:46:50Z</time></trkpt><trkpt lat="40.8458780143913" lon="9.273447527704246"><ele>466.0</ele><time>2026-05-01T14:46:51Z</time></trkpt><trkpt lat="40.84595558588704" lon="9.273346887106896"><ele>466.0</ele><time>2026-05-01T14:46:52Z</time></trkpt><trkpt lat="40.846022559513656" lon="9.273247418247538"><ele>466.0</ele><time>2026-05-01T14:46:53Z</time></trkpt><trkpt lat="40.84609409061801" lon="9.27312816785599"><ele>466.0</ele><time>2026-05-01T14:46:54Z</time></trkpt><trkpt lat="40.84617168270244" lon="9.273000255420927"><ele>466.0</ele><time>2026-05-01T14:46:55Z</time></trkpt><trkpt lat="40.84625416107029" lon="9.272879766261534"><ele>466.0</ele><time>2026-05-01T14:46:56Z</time></trkpt><trkpt lat="40.84633666000151" lon="9.2727266320444"><ele>466.0</ele><time>2026-05-01T14:46:57Z</time></trkpt><trkpt lat="40.84642221214104" lon="9.272565967651994"><ele>466.0</ele><time>2026-05-01T14:46:58Z</time></trkpt><trkpt lat="40.846502943149424" lon="9.272396423612227"><ele>466.0</ele><time>2026-05-01T14:46:59Z</time></trkpt><trkpt lat="40.84657951335716" lon="9.272221166567594"><ele>466.0</ele><time>2026-05-01T14:47:00Z</time></trkpt><trkpt lat="40.84665822107146" lon="9.272065679771528"><ele>466.0</ele><time>2026-05-01T14:47:01Z</time></trkpt><trkpt lat="40.846731658713466" lon="9.271924358000286"><ele>466.0</ele><time>2026-05-01T14:47:02Z</time></trkpt><trkpt lat="40.846803775512704" lon="9.271786517489078"><ele>466.0</ele><time>2026-05-01T14:47:03Z</time></trkpt><trkpt lat="40.84688111527152" lon="9.271640231661518"><ele>464.0</ele><time>2026-05-01T14:47:04Z</time></trkpt><trkpt lat="40.846935474167864" lon="9.271492239836912"><ele>462.0</ele><time>2026-05-01T14:47:05Z</time></trkpt><trkpt lat="40.84698120211107" lon="9.271324835468322"><ele>460.0</ele><time>2026-05-01T14:47:06Z</time></trkpt><trkpt lat="40.84704287085913" lon="9.27117094313676"><ele>458.0</ele><time>2026-05-01T14:47:07Z</time></trkpt><trkpt lat="40.84709433479275" lon="9.271006159084068"><ele>458.0</ele><time>2026-05-01T14:47:08Z</time></trkpt><trkpt lat="40.847140359576066" lon="9.270849928453966"><ele>458.0</ele><time>2026-05-01T14:47:09Z</time></trkpt><trkpt lat="40.84718820451046" lon="9.270687519328394"><ele>458.0</ele><time>2026-05-01T14:47:10Z</time></trkpt><trkpt lat="40.84723141371994" lon="9.270537405906412"><ele>458.0</ele><time>2026-05-01T14:47:11Z</time></trkpt><trkpt lat="40.84726966472015" lon="9.27038901876778"><ele>459.4</ele><time>2026-05-01T14:47:12Z</time></trkpt><trkpt lat="40.84727628195453" lon="9.270240611256375"><ele>460.79999999999995</ele><time>2026-05-01T14:47:13Z</time></trkpt><trkpt lat="40.847310477237656" lon="9.270118154891136"><ele>462.2</ele><time>2026-05-01T14:47:14Z</time></trkpt><trkpt lat="40.847358746141126" lon="9.270020792430314"><ele>463.6</ele><time>2026-05-01T14:47:15Z</time></trkpt><trkpt lat="40.847414253166896" lon="9.26993622730898"><ele>465.0</ele><time>2026-05-01T14:47:16Z</time></trkpt><trkpt lat="40.84749014411445" lon="9.269886551721118"><ele>465.0</ele><time>2026-05-01T14:47:17Z</time></trkpt><trkpt lat="40.847543991950204" lon="9.269815090181167"><ele>465.0</ele><time>2026-05-01T14:47:18Z</time></trkpt><trkpt lat="40.84754891610523" lon="9.26970694675895"><ele>465.0</ele><time>2026-05-01T14:47:19Z</time></trkpt><trkpt lat="40.84757530965825" lon="9.26960194068193"><ele>465.0</ele><time>2026-05-01T14:47:20Z</time></trkpt><trkpt lat="40.8476170379983" lon="9.26946910642046"><ele>465.0</ele><time>2026-05-01T14:47:21Z</time></trkpt><trkpt lat="40.84766607561236" lon="9.269340703887906"><ele>465.6</ele><time>2026-05-01T14:47:22Z</time></trkpt><trkpt lat="40.847740679291725" lon="9.269239362801933"><ele>466.2</ele><time>2026-05-01T14:47:23.001Z</time></trkpt><trkpt lat="40.8478052071023" lon="9.269155500635705"><ele>466.79999999999995</ele><time>2026-05-01T14:47:24.001Z</time></trkpt><trkpt lat="40.84787875872188" lon="9.269035588625274"><ele>467.4</ele><time>2026-05-01T14:47:25.001Z</time></trkpt><trkpt lat="40.847953159600294" lon="9.268941709544658"><ele>468.0</ele><time>2026-05-01T14:47:26.001Z</time></trkpt><trkpt lat="40.84799755203536" lon="9.268864384230199"><ele>468.6666666666667</ele><time>2026-05-01T14:47:27.001Z</time></trkpt><trkpt lat="40.84804136849458" lon="9.268772397657733"><ele>469.33333333333337</ele><time>2026-05-01T14:47:28.001Z</time></trkpt><trkpt lat="40.848077984121375" lon="9.268676292473064"><ele>470.0</ele><time>2026-05-01T14:47:29.001Z</time></trkpt><trkpt lat="40.84810448653275" lon="9.268598035543642"><ele>470.6666666666667</ele><time>2026-05-01T14:47:30.001Z</time></trkpt><trkpt lat="40.84816923432877" lon="9.268480650562998"><ele>471.33333333333337</ele><time>2026-05-01T14:47:33.001Z</time></trkpt><trkpt lat="40.848222011183374" lon="9.268391291706736"><ele>472.0</ele><time>2026-05-01T14:47:34.001Z</time></trkpt><trkpt lat="40.84828043040939" lon="9.26828490540792"><ele>472.0</ele><time>2026-05-01T14:47:35.001Z</time></trkpt><trkpt lat="40.8483480541707" lon="9.26816493974763"><ele>472.0</ele><time>2026-05-01T14:47:36.001Z</time></trkpt><trkpt lat="40.84843646008212" lon="9.268026402580631"><ele>472.0</ele><time>2026-05-01T14:47:37.001Z</time></trkpt><trkpt lat="40.84854046611564" lon="9.26786017369154"><ele>472.0</ele><time>2026-05-01T14:47:38.001Z</time></trkpt><trkpt lat="40.848658837229195" lon="9.267670794785413"><ele>472.33333333333337</ele><time>2026-05-01T14:47:39.001Z</time></trkpt><trkpt lat="40.84877433932888" lon="9.26747613687795"><ele>472.66666666666663</ele><time>2026-05-01T14:47:40.001Z</time></trkpt><trkpt lat="40.848869778390615" lon="9.267309653072452"><ele>473.0</ele><time>2026-05-01T14:47:41.001Z</time></trkpt><trkpt lat="40.84896339376813" lon="9.267154542962817"><ele>474.0</ele><time>2026-05-01T14:47:42.001Z</time></trkpt><trkpt lat="40.84904560622925" lon="9.267023761395238"><ele>475.0</ele><time>2026-05-01T14:47:43.001Z</time></trkpt><trkpt lat="40.849119454967585" lon="9.266903567296724"><ele>476.0</ele><time>2026-05-01T14:47:44.001Z</time></trkpt><trkpt lat="40.849195728883785" lon="9.26678115157378"><ele>477.0</ele><time>2026-05-01T14:47:45.001Z</time></trkpt><trkpt lat="40.84926401524185" lon="9.266661561644534"><ele>476.6</ele><time>2026-05-01T14:47:46.001Z</time></trkpt><trkpt lat="40.849332457991906" lon="9.266539554070663"><ele>476.20000000000005</ele><time>2026-05-01T14:47:47.001Z</time></trkpt><trkpt lat="40.849397111480215" lon="9.266428632788417"><ele>475.8</ele><time>2026-05-01T14:47:48.001Z</time></trkpt><trkpt lat="40.849451373740855" lon="9.26634630283243"><ele>475.4</ele><time>2026-05-01T14:47:49.001Z</time></trkpt><trkpt lat="40.84949012918485" lon="9.266279773178159"><ele>475.0</ele><time>2026-05-01T14:47:50.001Z</time></trkpt><trkpt lat="40.84954625798588" lon="9.266156033218001"><ele>475.00000000000006</ele><time>2026-05-01T14:47:52.001Z</time></trkpt><trkpt lat="40.84958117450961" lon="9.266048626852962"><ele>475.0</ele><time>2026-05-01T14:47:54.001Z</time></trkpt><trkpt lat="40.84961972980769" lon="9.26596616923952"><ele>475.0</ele><time>2026-05-01T14:47:56.001Z</time></trkpt><trkpt lat="40.84964780252274" lon="9.265853923911756"><ele>475.0</ele><time>2026-05-01T14:47:59.001Z</time></trkpt><trkpt lat="40.84969705678523" lon="9.265765573738305"><ele>475.00000000000006</ele><time>2026-05-01T14:48:01.001Z</time></trkpt><trkpt lat="40.84975064329097" lon="9.26566280429739"><ele>475.0</ele><time>2026-05-01T14:48:03.001Z</time></trkpt><trkpt lat="40.84980751176841" lon="9.265530103764135"><ele>474.8</ele><time>2026-05-01T14:48:05.001Z</time></trkpt><trkpt lat="40.84984816066309" lon="9.265452026718231"><ele>474.6</ele><time>2026-05-01T14:48:06.001Z</time></trkpt><trkpt lat="40.84989981390623" lon="9.265359759125799"><ele>474.4</ele><time>2026-05-01T14:48:07.001Z</time></trkpt><trkpt lat="40.849962067110106" lon="9.265257877186594"><ele>474.2</ele><time>2026-05-01T14:48:08.001Z</time></trkpt><trkpt lat="40.85002376693603" lon="9.265157160169553"><ele>474.0</ele><time>2026-05-01T14:48:09.001Z</time></trkpt><trkpt lat="40.85008381792289" lon="9.265037980937883"><ele>474.0</ele><time>2026-05-01T14:48:10.001Z</time></trkpt><trkpt lat="40.85014297824654" lon="9.264928130410377"><ele>474.0</ele><time>2026-05-01T14:48:11.001Z</time></trkpt><trkpt lat="40.85019246800725" lon="9.264839892208574"><ele>474.0</ele><time>2026-05-01T14:48:12Z</time></trkpt><trkpt lat="40.8502347912186" lon="9.264776361282083"><ele>474.0</ele><time>2026-05-01T14:48:13Z</time></trkpt><trkpt lat="40.85030950495115" lon="9.264658206927427"><ele>474.0</ele><time>2026-05-01T14:48:15Z</time></trkpt><trkpt lat="40.85038951873977" lon="9.264520125153696"><ele>474.3333333333333</ele><time>2026-05-01T14:48:17Z</time></trkpt><trkpt lat="40.850443183700584" lon="9.264429248964179"><ele>474.66666666666663</ele><time>2026-05-01T14:48:18Z</time></trkpt><trkpt lat="40.850497002351766" lon="9.264331311472699"><ele>475.0</ele><time>2026-05-01T14:48:19Z</time></trkpt><trkpt lat="40.85054378836335" lon="9.264246029017658"><ele>475.3333333333333</ele><time>2026-05-01T14:48:20Z</time></trkpt><trkpt lat="40.850597197074094" lon="9.264169907726037"><ele>475.66666666666663</ele><time>2026-05-01T14:48:21Z</time></trkpt><trkpt lat="40.85066220614776" lon="9.264104714032593"><ele>476.0</ele><time>2026-05-01T14:48:22Z</time></trkpt><trkpt lat="40.85073442287257" lon="9.26404326245223"><ele>476.0</ele><time>2026-05-01T14:48:23Z</time></trkpt><trkpt lat="40.850807718460445" lon="9.263989689015144"><ele>476.0</ele><time>2026-05-01T14:48:24Z</time></trkpt><trkpt lat="40.850888078171664" lon="9.263937347009552"><ele>476.0</ele><time>2026-05-01T14:48:25Z</time></trkpt><trkpt lat="40.850972705203034" lon="9.26388272232811"><ele>476.0</ele><time>2026-05-01T14:48:26Z</time></trkpt><trkpt lat="40.85105386058113" lon="9.26381329361444"><ele>476.0</ele><time>2026-05-01T14:48:27Z</time></trkpt><trkpt lat="40.85113466651639" lon="9.263732656347196"><ele>476.4</ele><time>2026-05-01T14:48:28Z</time></trkpt><trkpt lat="40.851211784094595" lon="9.263652096695589"><ele>476.8</ele><time>2026-05-01T14:48:29Z</time></trkpt><trkpt lat="40.85130288813088" lon="9.263568253352142"><ele>477.19999999999993</ele><time>2026-05-01T14:48:30Z</time></trkpt><trkpt lat="40.851393604531836" lon="9.263479182141092"><ele>477.59999999999997</ele><time>2026-05-01T14:48:31Z</time></trkpt><trkpt lat="40.851480480715914" lon="9.26339483945904"><ele>478.0</ele><time>2026-05-01T14:48:32Z</time></trkpt><trkpt lat="40.85156946500458" lon="9.263285873915128"><ele>478.0</ele><time>2026-05-01T14:48:33Z</time></trkpt><trkpt lat="40.85166265343198" lon="9.263184303184763"><ele>477.99999999999994</ele><time>2026-05-01T14:48:34Z</time></trkpt><trkpt lat="40.85175220563229" lon="9.263081505853274"><ele>477.99999999999994</ele><time>2026-05-01T14:48:35Z</time></trkpt><trkpt lat="40.85183072435352" lon="9.263006272521407"><ele>478.0</ele><time>2026-05-01T14:48:36Z</time></trkpt><trkpt lat="40.85191569897707" lon="9.262981388811363"><ele>478.0</ele><time>2026-05-01T14:48:37Z</time></trkpt><trkpt lat="40.852003139333576" lon="9.262963389920102"><ele>477.75</ele><time>2026-05-01T14:48:38Z</time></trkpt><trkpt lat="40.852139675506436" lon="9.262911832757991"><ele>477.5</ele><time>2026-05-01T14:48:39Z</time></trkpt><trkpt lat="40.852293822414225" lon="9.262881058358657"><ele>477.25</ele><time>2026-05-01T14:48:40Z</time></trkpt><trkpt lat="40.85243300624089" lon="9.26282426852371"><ele>477.0</ele><time>2026-05-01T14:48:41Z</time></trkpt><trkpt lat="40.852541520113235" lon="9.262758494959263"><ele>477.0</ele><time>2026-05-01T14:48:42Z</time></trkpt><trkpt lat="40.852657557885045" lon="9.262678181991072"><ele>477.0</ele><time>2026-05-01T14:48:43Z</time></trkpt><trkpt lat="40.852795536257425" lon="9.262570242277455"><ele>477.0</ele><time>2026-05-01T14:48:44Z</time></trkpt><trkpt lat="40.85293863113131" lon="9.26246395714046"><ele>477.0</ele><time>2026-05-01T14:48:45Z</time></trkpt><trkpt lat="40.85305728112138" lon="9.26236825198386"><ele>477.0</ele><time>2026-05-01T14:48:46Z</time></trkpt><trkpt lat="40.8531324519928" lon="9.26223676608644"><ele>477.0</ele><time>2026-05-01T14:48:47Z</time></trkpt><trkpt lat="40.85322802347155" lon="9.262093773754803"><ele>477.0</ele><time>2026-05-01T14:48:48Z</time></trkpt><trkpt lat="40.85333424112614" lon="9.261933270857313"><ele>477.25</ele><time>2026-05-01T14:48:49Z</time></trkpt><trkpt lat="40.85343771031755" lon="9.261784781696285"><ele>477.5</ele><time>2026-05-01T14:48:50Z</time></trkpt><trkpt lat="40.85353886234546" lon="9.261652093355442"><ele>477.75</ele><time>2026-05-01T14:48:51Z</time></trkpt><trkpt lat="40.85364537348808" lon="9.261523316042823"><ele>478.0</ele><time>2026-05-01T14:48:52Z</time></trkpt><trkpt lat="40.85375517022406" lon="9.261396411407798"><ele>478.25</ele><time>2026-05-01T14:48:53Z</time></trkpt><trkpt lat="40.85385919048533" lon="9.26126537440283"><ele>478.5</ele><time>2026-05-01T14:48:54Z</time></trkpt><trkpt lat="40.85394897205846" lon="9.261125679164785"><ele>478.75</ele><time>2026-05-01T14:48:55Z</time></trkpt><trkpt lat="40.85403208602" lon="9.260974382900475"><ele>479.0</ele><time>2026-05-01T14:48:56Z</time></trkpt><trkpt lat="40.854118047255156" lon="9.260841187799397"><ele>479.0</ele><time>2026-05-01T14:48:57Z</time></trkpt><trkpt lat="40.85423096176231" lon="9.260753348216719"><ele>479.0</ele><time>2026-05-01T14:48:58Z</time></trkpt><trkpt lat="40.854329325949735" lon="9.260660640815669"><ele>479.0</ele><time>2026-05-01T14:48:59Z</time></trkpt><trkpt lat="40.85442374461354" lon="9.260563267381878"><ele>479.0</ele><time>2026-05-01T14:49:00Z</time></trkpt><trkpt lat="40.85450324463626" lon="9.260480326806258"><ele>480.25</ele><time>2026-05-01T14:49:01Z</time></trkpt><trkpt lat="40.85456327289846" lon="9.26036681887995"><ele>481.5</ele><time>2026-05-01T14:49:02Z</time></trkpt><trkpt lat="40.85465773454744" lon="9.260244719914501"><ele>482.75</ele><time>2026-05-01T14:49:03Z</time></trkpt><trkpt lat="40.854728404120024" lon="9.260096511390811"><ele>484.0</ele><time>2026-05-01T14:49:04Z</time></trkpt><trkpt lat="40.85479223314383" lon="9.25997176634207"><ele>484.0</ele><time>2026-05-01T14:49:05Z</time></trkpt><trkpt lat="40.85486682116425" lon="9.259886078886252"><ele>484.0</ele><time>2026-05-01T14:49:06Z</time></trkpt><trkpt lat="40.854984346608255" lon="9.259825291742125"><ele>484.0</ele><time>2026-05-01T14:49:07Z</time></trkpt><trkpt lat="40.855086992720665" lon="9.259716382519379"><ele>484.0</ele><time>2026-05-01T14:49:08Z</time></trkpt><trkpt lat="40.85518274776771" lon="9.25963825119375"><ele>484.5</ele><time>2026-05-01T14:49:09Z</time></trkpt><trkpt lat="40.85525480099662" lon="9.259562436035802"><ele>485.0</ele><time>2026-05-01T14:49:10Z</time></trkpt><trkpt lat="40.85531966930359" lon="9.259464734700389"><ele>485.5</ele><time>2026-05-01T14:49:11Z</time></trkpt><trkpt lat="40.855385597923835" lon="9.259329198489016"><ele>486.0</ele><time>2026-05-01T14:49:12Z</time></trkpt><trkpt lat="40.855447151112074" lon="9.25915537342748"><ele>486.0</ele><time>2026-05-01T14:49:13Z</time></trkpt><trkpt lat="40.85551553536329" lon="9.25896337891881"><ele>486.0</ele><time>2026-05-01T14:49:14Z</time></trkpt><trkpt lat="40.855604415539666" lon="9.258793728136155"><ele>486.0</ele><time>2026-05-01T14:49:15Z</time></trkpt><trkpt lat="40.85565291341126" lon="9.258652350944752"><ele>486.0</ele><time>2026-05-01T14:49:16Z</time></trkpt><trkpt lat="40.85569528799635" lon="9.258543542563453"><ele>486.25</ele><time>2026-05-01T14:49:17Z</time></trkpt><trkpt lat="40.85572158771615" lon="9.258414603422075"><ele>486.5</ele><time>2026-05-01T14:49:18Z</time></trkpt><trkpt lat="40.855756988185696" lon="9.258248778315902"><ele>486.75</ele><time>2026-05-01T14:49:19Z</time></trkpt><trkpt lat="40.85576649377339" lon="9.258052430308158"><ele>487.0</ele><time>2026-05-01T14:49:20Z</time></trkpt><trkpt lat="40.85579831051115" lon="9.257881420231866"><ele>487.0</ele><time>2026-05-01T14:49:21Z</time></trkpt><trkpt lat="40.85583743595088" lon="9.25775369895429"><ele>487.0</ele><time>2026-05-01T14:49:22Z</time></trkpt><trkpt lat="40.85589646451291" lon="9.257634032909042"><ele>487.0</ele><time>2026-05-01T14:49:23Z</time></trkpt><trkpt lat="40.855993574433626" lon="9.257476484878724"><ele>487.0</ele><time>2026-05-01T14:49:24Z</time></trkpt><trkpt lat="40.85610575268569" lon="9.25730466682433"><ele>486.8</ele><time>2026-05-01T14:49:25Z</time></trkpt><trkpt lat="40.856174164470794" lon="9.257156254010612"><ele>486.6</ele><time>2026-05-01T14:49:26Z</time></trkpt><trkpt lat="40.85624313063363" lon="9.257046340395018"><ele>486.40000000000003</ele><time>2026-05-01T14:49:27Z</time></trkpt><trkpt lat="40.85630420451514" lon="9.256966953577214"><ele>486.20000000000005</ele><time>2026-05-01T14:49:28Z</time></trkpt><trkpt lat="40.8563798409535" lon="9.256890178606923"><ele>486.0</ele><time>2026-05-01T14:49:29.001Z</time></trkpt><trkpt lat="40.856471540667194" lon="9.25676559774551"><ele>486.0</ele><time>2026-05-01T14:49:30.001Z</time></trkpt><trkpt lat="40.856583777084026" lon="9.256622000461842"><ele>486.0</ele><time>2026-05-01T14:49:31.001Z</time></trkpt><trkpt lat="40.85671285843238" lon="9.256487974216823"><ele>486.0</ele><time>2026-05-01T14:49:32.001Z</time></trkpt><trkpt lat="40.85686926437057" lon="9.256349237103802"><ele>486.0</ele><time>2026-05-01T14:49:33.001Z</time></trkpt><trkpt lat="40.857020604487786" lon="9.256219507863793"><ele>486.0</ele><time>2026-05-01T14:49:34.001Z</time></trkpt><trkpt lat="40.85714580630272" lon="9.256106016367674"><ele>486.0</ele><time>2026-05-01T14:49:35.001Z</time></trkpt><trkpt lat="40.857253073346826" lon="9.256021703606523"><ele>486.0</ele><time>2026-05-01T14:49:36.001Z</time></trkpt><trkpt lat="40.857343270871624" lon="9.255964132621218"><ele>486.0</ele><time>2026-05-01T14:49:37.001Z</time></trkpt><trkpt lat="40.857421629952356" lon="9.2559248386296"><ele>486.0</ele><time>2026-05-01T14:49:38.001Z</time></trkpt><trkpt lat="40.85751678269908" lon="9.255890584451592"><ele>486.0</ele><time>2026-05-01T14:49:40.001Z</time></trkpt><trkpt lat="40.85759124212555" lon="9.255874625920379"><ele>486.0</ele><time>2026-05-01T14:49:45Z</time></trkpt><trkpt lat="40.857648049452614" lon="9.255824899226898"><ele>486.0</ele><time>2026-05-01T14:49:47Z</time></trkpt><trkpt lat="40.857786497254374" lon="9.25580994760777"><ele>486.0</ele><time>2026-05-01T14:49:48.999Z</time></trkpt><trkpt lat="40.85787605071241" lon="9.255768723310954"><ele>486.0</ele><time>2026-05-01T14:49:49.999Z</time></trkpt><trkpt lat="40.857963648613996" lon="9.25573735373042"><ele>486.0</ele><time>2026-05-01T14:49:50.999Z</time></trkpt><trkpt lat="40.85806563260132" lon="9.255702908688905"><ele>486.0</ele><time>2026-05-01T14:49:51.999Z</time></trkpt><trkpt lat="40.8581659208331" lon="9.255669909694866"><ele>486.0</ele><time>2026-05-01T14:49:52.999Z</time></trkpt><trkpt lat="40.85826017298338" lon="9.255650020622252"><ele>486.20000000000005</ele><time>2026-05-01T14:49:53.999Z</time></trkpt><trkpt lat="40.85835575144263" lon="9.25561451799848"><ele>486.40000000000003</ele><time>2026-05-01T14:49:54.999Z</time></trkpt><trkpt lat="40.85845096127318" lon="9.255571021527388"><ele>486.6</ele><time>2026-05-01T14:49:55.998Z</time></trkpt><trkpt lat="40.85854974488517" lon="9.255534287176253"><ele>486.8</ele><time>2026-05-01T14:49:56.998Z</time></trkpt><trkpt lat="40.858651224121104" lon="9.255502659480221"><ele>487.0</ele><time>2026-05-01T14:49:57.998Z</time></trkpt><trkpt lat="40.858754131168546" lon="9.25546837651619"><ele>487.40000000000003</ele><time>2026-05-01T14:49:58.998Z</time></trkpt><trkpt lat="40.8588575923343" lon="9.255432378839371"><ele>487.80000000000007</ele><time>2026-05-01T14:49:59.998Z</time></trkpt><trkpt lat="40.85895826016945" lon="9.255396009300851"><ele>488.2</ele><time>2026-05-01T14:50:00.998Z</time></trkpt><trkpt lat="40.85906480720965" lon="9.255358474882824"><ele>488.6</ele><time>2026-05-01T14:50:01.998Z</time></trkpt><trkpt lat="40.85917943107787" lon="9.255321302449378"><ele>489.0</ele><time>2026-05-01T14:50:02.998Z</time></trkpt><trkpt lat="40.85929865515315" lon="9.255283772654375"><ele>489.25</ele><time>2026-05-01T14:50:03.998Z</time></trkpt><trkpt lat="40.85942899651289" lon="9.25525408397549"><ele>489.5</ele><time>2026-05-01T14:50:04.998Z</time></trkpt><trkpt lat="40.85956516756376" lon="9.255237118998018"><ele>489.75</ele><time>2026-05-01T14:50:05.997Z</time></trkpt><trkpt lat="40.85970114809543" lon="9.255236159701296"><ele>490.0</ele><time>2026-05-01T14:50:06.997Z</time></trkpt><trkpt lat="40.859835781381825" lon="9.25524370817"><ele>490.0</ele><time>2026-05-01T14:50:07.997Z</time></trkpt><trkpt lat="40.85996018095519" lon="9.255265765390073"><ele>490.0</ele><time>2026-05-01T14:50:08.997Z</time></trkpt><trkpt lat="40.860055244339954" lon="9.255287039283518"><ele>490.0</ele><time>2026-05-01T14:50:09.997Z</time></trkpt><trkpt lat="40.86014666169328" lon="9.255303323217587"><ele>490.0</ele><time>2026-05-01T14:50:10.997Z</time></trkpt><trkpt lat="40.86021435955155" lon="9.255329550053007"><ele>490.0</ele><time>2026-05-01T14:50:11.997Z</time></trkpt><trkpt lat="40.86019514542915" lon="9.255478756644177"><ele>490.0</ele><time>2026-05-01T14:50:14.997Z</time></trkpt><trkpt lat="40.86016479570343" lon="9.255563818029763"><ele>490.0</ele><time>2026-05-01T14:50:15.997Z</time></trkpt><trkpt lat="40.86012683133545" lon="9.255675656738696"><ele>490.0</ele><time>2026-05-01T14:50:16.997Z</time></trkpt><trkpt lat="40.86007651684951" lon="9.25582684064465"><ele>490.0</ele><time>2026-05-01T14:50:17.997Z</time></trkpt><trkpt lat="40.86001912784083" lon="9.255999281928654"><ele>490.0</ele><time>2026-05-01T14:50:18.997Z</time></trkpt><trkpt lat="40.85996829674017" lon="9.256154270316776"><ele>489.5</ele><time>2026-05-01T14:50:19.997Z</time></trkpt><trkpt lat="40.859913090679505" lon="9.25632307883322"><ele>489.0</ele><time>2026-05-01T14:50:20.997Z</time></trkpt><trkpt lat="40.85984502940376" lon="9.256500494942824"><ele>488.5</ele><time>2026-05-01T14:50:21.997Z</time></trkpt><trkpt lat="40.85977684327495" lon="9.25666020690049"><ele>488.0</ele><time>2026-05-01T14:50:22.997Z</time></trkpt><trkpt lat="40.85971379063689" lon="9.256793265350218"><ele>488.0</ele><time>2026-05-01T14:50:23.997Z</time></trkpt><trkpt lat="40.85964582471718" lon="9.256930953044252"><ele>488.0</ele><time>2026-05-01T14:50:24.997Z</time></trkpt><trkpt lat="40.85957207274301" lon="9.257080362345079"><ele>488.0</ele><time>2026-05-01T14:50:25.997Z</time></trkpt><trkpt lat="40.85949410287041" lon="9.25723831651438"><ele>488.0</ele><time>2026-05-01T14:50:26.997Z</time></trkpt><trkpt lat="40.85941121383982" lon="9.257403517720027"><ele>488.3333333333333</ele><time>2026-05-01T14:50:27.997Z</time></trkpt><trkpt lat="40.85932088015788" lon="9.257582686022499"><ele>488.66666666666663</ele><time>2026-05-01T14:50:28.997Z</time></trkpt><trkpt lat="40.85922470375187" lon="9.257771648826067"><ele>489.0</ele><time>2026-05-01T14:50:29.997Z</time></trkpt><trkpt lat="40.85911103533575" lon="9.257991594675548"><ele>488.33333333333337</ele><time>2026-05-01T14:50:30.997Z</time></trkpt><trkpt lat="40.85899860630303" lon="9.2582047024498"><ele>487.6666666666667</ele><time>2026-05-01T14:50:31.997Z</time></trkpt><trkpt lat="40.85889853950743" lon="9.258397559585534"><ele>487.0</ele><time>2026-05-01T14:50:32.997Z</time></trkpt><trkpt lat="40.85879545495608" lon="9.25860805232722"><ele>487.0</ele><time>2026-05-01T14:50:33.997Z</time></trkpt><trkpt lat="40.85868910122276" lon="9.25883082938952"><ele>487.0</ele><time>2026-05-01T14:50:34.997Z</time></trkpt><trkpt lat="40.85859440730398" lon="9.259028660654986"><ele>487.0</ele><time>2026-05-01T14:50:35.997Z</time></trkpt><trkpt lat="40.85851323648472" lon="9.259194152038425"><ele>486.75</ele><time>2026-05-01T14:50:36.997Z</time></trkpt><trkpt lat="40.85843905664517" lon="9.259343758733976"><ele>486.5</ele><time>2026-05-01T14:50:37.996Z</time></trkpt><trkpt lat="40.85836392355845" lon="9.259493957705141"><ele>486.25</ele><time>2026-05-01T14:50:38.996Z</time></trkpt><trkpt lat="40.85828555238401" lon="9.259650629677022"><ele>486.0</ele><time>2026-05-01T14:50:39.996Z</time></trkpt><trkpt lat="40.858203785609874" lon="9.259814090009689"><ele>486.0</ele><time>2026-05-01T14:50:40.996Z</time></trkpt><trkpt lat="40.85812279589218" lon="9.259975449190202"><ele>486.0</ele><time>2026-05-01T14:50:41.996Z</time></trkpt><trkpt lat="40.85804031750416" lon="9.260138335108838"><ele>486.0</ele><time>2026-05-01T14:50:42.996Z</time></trkpt><trkpt lat="40.85796197750979" lon="9.260293048085304"><ele>486.0</ele><time>2026-05-01T14:50:43.996Z</time></trkpt><trkpt lat="40.85788296534907" lon="9.260449088494715"><ele>486.0</ele><time>2026-05-01T14:50:44.996Z</time></trkpt><trkpt lat="40.85780856196519" lon="9.260596493755141"><ele>486.0</ele><time>2026-05-01T14:50:45.996Z</time></trkpt><trkpt lat="40.85773270035695" lon="9.260748797530454"><ele>486.0</ele><time>2026-05-01T14:50:46.996Z</time></trkpt><trkpt lat="40.85765633321497" lon="9.260902116142574"><ele>486.0</ele><time>2026-05-01T14:50:47.996Z</time></trkpt><trkpt lat="40.857581972491715" lon="9.261051406587882"><ele>486.0</ele><time>2026-05-01T14:50:48.996Z</time></trkpt><trkpt lat="40.8575094162394" lon="9.261197074493777"><ele>486.0</ele><time>2026-05-01T14:50:49.996Z</time></trkpt><trkpt lat="40.85743896643988" lon="9.26133879812744"><ele>486.0</ele><time>2026-05-01T14:50:50.996Z</time></trkpt><trkpt lat="40.857367243331566" lon="9.261482970763574"><ele>486.0</ele><time>2026-05-01T14:50:51.996Z</time></trkpt><trkpt lat="40.8572894743832" lon="9.261638118565784"><ele>486.0</ele><time>2026-05-01T14:50:52.996Z</time></trkpt><trkpt lat="40.857211229032146" lon="9.261794216631024"><ele>486.0</ele><time>2026-05-01T14:50:53.996Z</time></trkpt><trkpt lat="40.85712767997753" lon="9.261960895845847"><ele>486.0</ele><time>2026-05-01T14:50:54.996Z</time></trkpt><trkpt lat="40.857046434397866" lon="9.26212297945228"><ele>486.0</ele><time>2026-05-01T14:50:55.996Z</time></trkpt><trkpt lat="40.85696696475369" lon="9.262281150350313"><ele>486.25</ele><time>2026-05-01T14:50:56.996Z</time></trkpt><trkpt lat="40.856886272341505" lon="9.262439617167503"><ele>486.5</ele><time>2026-05-01T14:50:57.996Z</time></trkpt><trkpt lat="40.8568036343013" lon="9.262601904789463"><ele>486.75</ele><time>2026-05-01T14:50:58.996Z</time></trkpt><trkpt lat="40.8567212454672" lon="9.262763702997674"><ele>487.0</ele><time>2026-05-01T14:50:59.996Z</time></trkpt><trkpt lat="40.85663928337255" lon="9.262924663226164"><ele>486.5</ele><time>2026-05-01T14:51:00.996Z</time></trkpt><trkpt lat="40.85656403406172" lon="9.263072440609713"><ele>486.0</ele><time>2026-05-01T14:51:01.996Z</time></trkpt><trkpt lat="40.856484811608446" lon="9.263232247968755"><ele>485.5</ele><time>2026-05-01T14:51:02.996Z</time></trkpt><trkpt lat="40.856411149696285" lon="9.263387947344597"><ele>485.0</ele><time>2026-05-01T14:51:03.996Z</time></trkpt><trkpt lat="40.856336300541926" lon="9.263553459733128"><ele>485.0</ele><time>2026-05-01T14:51:04.996Z</time></trkpt><trkpt lat="40.85626417979302" lon="9.26372104054792"><ele>485.0</ele><time>2026-05-01T14:51:05.996Z</time></trkpt><trkpt lat="40.85619341105788" lon="9.26389809370342"><ele>485.0</ele><time>2026-05-01T14:51:06.996Z</time></trkpt><trkpt lat="40.856126198271596" lon="9.264079802900584"><ele>485.0</ele><time>2026-05-01T14:51:07.996Z</time></trkpt><trkpt lat="40.856061686723535" lon="9.264269046112133"><ele>485.0</ele><time>2026-05-01T14:51:08.996Z</time></trkpt><trkpt lat="40.856003813015136" lon="9.264456447636777"><ele>485.0</ele><time>2026-05-01T14:51:09.996Z</time></trkpt><trkpt lat="40.85595118845268" lon="9.264647522559168"><ele>484.0</ele><time>2026-05-01T14:51:10.996Z</time></trkpt><trkpt lat="40.85590323003253" lon="9.26484407747984"><ele>483.0</ele><time>2026-05-01T14:51:11.996Z</time></trkpt><trkpt lat="40.85586181982668" lon="9.265031385726031"><ele>482.0</ele><time>2026-05-01T14:51:12.996Z</time></trkpt><trkpt lat="40.85582439157404" lon="9.265222405892636"><ele>482.0</ele><time>2026-05-01T14:51:13.996Z</time></trkpt><trkpt lat="40.855790233873726" lon="9.26541537684145"><ele>482.0</ele><time>2026-05-01T14:51:14.996Z</time></trkpt><trkpt lat="40.855764019889364" lon="9.265622090173686"><ele>482.0</ele><time>2026-05-01T14:51:15.996Z</time></trkpt><trkpt lat="40.85574097610282" lon="9.265833540404286"><ele>482.0</ele><time>2026-05-01T14:51:16.996Z</time></trkpt><trkpt lat="40.855719823544256" lon="9.266040346983647"><ele>482.0</ele><time>2026-05-01T14:51:17.996Z</time></trkpt><trkpt lat="40.85569836637763" lon="9.26625013169845"><ele>482.0</ele><time>2026-05-01T14:51:18.996Z</time></trkpt><trkpt lat="40.85567696482949" lon="9.266459372988608"><ele>482.66666666666663</ele><time>2026-05-01T14:51:19.996Z</time></trkpt><trkpt lat="40.85565653724711" lon="9.266664866225726"><ele>483.33333333333337</ele><time>2026-05-01T14:51:20.996Z</time></trkpt><trkpt lat="40.85565226645911" lon="9.266879383992093"><ele>484.0</ele><time>2026-05-01T14:51:21.996Z</time></trkpt><trkpt lat="40.85563278909518" lon="9.26709373248301"><ele>483.0</ele><time>2026-05-01T14:51:22.996Z</time></trkpt><trkpt lat="40.85561269140198" lon="9.267302350229464"><ele>482.0</ele><time>2026-05-01T14:51:23.996Z</time></trkpt><trkpt lat="40.85559301377119" lon="9.267508415739984"><ele>481.0</ele><time>2026-05-01T14:51:24.996Z</time></trkpt><trkpt lat="40.85557399310607" lon="9.26770854826091"><ele>481.0</ele><time>2026-05-01T14:51:25.996Z</time></trkpt><trkpt lat="40.85555674109799" lon="9.267903674682453"><ele>481.0</ele><time>2026-05-01T14:51:26.996Z</time></trkpt><trkpt lat="40.855536622750776" lon="9.268100779825703"><ele>481.0</ele><time>2026-05-01T14:51:27.996Z</time></trkpt><trkpt lat="40.855501969775744" lon="9.268298207317292"><ele>481.25</ele><time>2026-05-01T14:51:28.996Z</time></trkpt><trkpt lat="40.8554825332733" lon="9.268484088084973"><ele>481.5</ele><time>2026-05-01T14:51:29.996Z</time></trkpt><trkpt lat="40.85547981448049" lon="9.268676310810266"><ele>481.75</ele><time>2026-05-01T14:51:30.996Z</time></trkpt><trkpt lat="40.85544562272676" lon="9.268854463288418"><ele>482.0</ele><time>2026-05-01T14:51:31.996Z</time></trkpt><trkpt lat="40.855427485431036" lon="9.269038618529759"><ele>482.3333333333333</ele><time>2026-05-01T14:51:32.996Z</time></trkpt><trkpt lat="40.855410881022024" lon="9.26922386129069"><ele>482.66666666666663</ele><time>2026-05-01T14:51:33.996Z</time></trkpt><trkpt lat="40.855393016546515" lon="9.269423161897834"><ele>483.0</ele><time>2026-05-01T14:51:34.997Z</time></trkpt><trkpt lat="40.85537401061234" lon="9.26963556664407"><ele>483.0</ele><time>2026-05-01T14:51:35.997Z</time></trkpt><trkpt lat="40.85535379777378" lon="9.26984853418919"><ele>483.0</ele><time>2026-05-01T14:51:36.997Z</time></trkpt><trkpt lat="40.85533282915924" lon="9.270061394580747"><ele>483.0</ele><time>2026-05-01T14:51:37.997Z</time></trkpt><trkpt lat="40.85531121110462" lon="9.270280847526836"><ele>483.0</ele><time>2026-05-01T14:51:38.997Z</time></trkpt><trkpt lat="40.855286892571876" lon="9.270499308961233"><ele>483.0</ele><time>2026-05-01T14:51:39.998Z</time></trkpt><trkpt lat="40.855260524230864" lon="9.270737989023985"><ele>483.0</ele><time>2026-05-01T14:51:40.998Z</time></trkpt><trkpt lat="40.855238651067" lon="9.270960481749668"><ele>482.66666666666663</ele><time>2026-05-01T14:51:41.998Z</time></trkpt><trkpt lat="40.855216946535826" lon="9.27119920061039"><ele>482.3333333333333</ele><time>2026-05-01T14:51:42.998Z</time></trkpt><trkpt lat="40.855196526498105" lon="9.271423791737757"><ele>482.0</ele><time>2026-05-01T14:51:43.998Z</time></trkpt><trkpt lat="40.85517710309046" lon="9.271636930329962"><ele>481.3333333333333</ele><time>2026-05-01T14:51:44.999Z</time></trkpt><trkpt lat="40.85515608485198" lon="9.271840420286175"><ele>480.66666666666663</ele><time>2026-05-01T14:51:45.999Z</time></trkpt><trkpt lat="40.855125803484036" lon="9.2720408345947"><ele>480.0</ele><time>2026-05-01T14:51:46.999Z</time></trkpt><trkpt lat="40.855087676987864" lon="9.272238893917796"><ele>479.0</ele><time>2026-05-01T14:51:47.999Z</time></trkpt><trkpt lat="40.85504062061004" lon="9.272440436389783"><ele>478.0</ele><time>2026-05-01T14:51:48.999Z</time></trkpt><trkpt lat="40.854992164784285" lon="9.272631881101432"><ele>477.0</ele><time>2026-05-01T14:51:49.999Z</time></trkpt><trkpt lat="40.854942385380966" lon="9.272828555325322"><ele>477.0</ele><time>2026-05-01T14:51:50.999Z</time></trkpt><trkpt lat="40.854886289620524" lon="9.27302155676702"><ele>477.0</ele><time>2026-05-01T14:51:51.999Z</time></trkpt><trkpt lat="40.85481268108473" lon="9.273200339257382"><ele>477.0</ele><time>2026-05-01T14:51:52.999Z</time></trkpt><trkpt lat="40.85473135657831" lon="9.273373995704667"><ele>477.75</ele><time>2026-05-01T14:51:53.999Z</time></trkpt><trkpt lat="40.85464951137236" lon="9.273526171621308"><ele>478.5</ele><time>2026-05-01T14:51:54.999Z</time></trkpt><trkpt lat="40.85455623614336" lon="9.273672233284817"><ele>479.25</ele><time>2026-05-01T14:51:56Z</time></trkpt><trkpt lat="40.85445259019844" lon="9.273827145869777"><ele>480.0</ele><time>2026-05-01T14:51:57Z</time></trkpt><trkpt lat="40.85434560850718" lon="9.273961294629585"><ele>479.33333333333337</ele><time>2026-05-01T14:51:58Z</time></trkpt><trkpt lat="40.854229303798554" lon="9.274090121925262"><ele>478.6666666666667</ele><time>2026-05-01T14:51:59Z</time></trkpt><trkpt lat="40.85410533359462" lon="9.27421418165908"><ele>478.0</ele><time>2026-05-01T14:52:00Z</time></trkpt><trkpt lat="40.853955293349266" lon="9.274276078767802"><ele>478.0</ele><time>2026-05-01T14:52:01Z</time></trkpt><trkpt lat="40.85381948462011" lon="9.274376443624764"><ele>478.0</ele><time>2026-05-01T14:52:02Z</time></trkpt><trkpt lat="40.85367372059856" lon="9.274479003311884"><ele>478.0</ele><time>2026-05-01T14:52:03Z</time></trkpt><trkpt lat="40.85351843490236" lon="9.274587270397063"><ele>478.0</ele><time>2026-05-01T14:52:04Z</time></trkpt><trkpt lat="40.8533594002605" lon="9.274690192708361"><ele>478.0</ele><time>2026-05-01T14:52:05Z</time></trkpt><trkpt lat="40.853206622167775" lon="9.27478864682938"><ele>478.0</ele><time>2026-05-01T14:52:06Z</time></trkpt><trkpt lat="40.85304112504681" lon="9.274898118492446"><ele>478.0</ele><time>2026-05-01T14:52:07Z</time></trkpt><trkpt lat="40.85287208647727" lon="9.275011906601682"><ele>478.0</ele><time>2026-05-01T14:52:08Z</time></trkpt><trkpt lat="40.85271886819776" lon="9.275117025132271"><ele>478.0</ele><time>2026-05-01T14:52:09Z</time></trkpt><trkpt lat="40.85258350319966" lon="9.275206826676522"><ele>477.5</ele><time>2026-05-01T14:52:10Z</time></trkpt><trkpt lat="40.85245304568091" lon="9.275291386188963"><ele>477.0</ele><time>2026-05-01T14:52:11Z</time></trkpt><trkpt lat="40.85233937945846" lon="9.275378277608079"><ele>476.5</ele><time>2026-05-01T14:52:12Z</time></trkpt><trkpt lat="40.852251389374175" lon="9.275465808732125"><ele>476.0</ele><time>2026-05-01T14:52:13Z</time></trkpt><trkpt lat="40.85217194947884" lon="9.275564528483075"><ele>477.0</ele><time>2026-05-01T14:52:14Z</time></trkpt><trkpt lat="40.85210206216057" lon="9.275663133831808"><ele>478.0</ele><time>2026-05-01T14:52:15Z</time></trkpt><trkpt lat="40.852028830572564" lon="9.275773289035635"><ele>479.0</ele><time>2026-05-01T14:52:16Z</time></trkpt><trkpt lat="40.851957874033445" lon="9.275889374901398"><ele>480.0</ele><time>2026-05-01T14:52:17Z</time></trkpt><trkpt lat="40.85188087251171" lon="9.276027772828957"><ele>480.0</ele><time>2026-05-01T14:52:18Z</time></trkpt><trkpt lat="40.85180528265811" lon="9.27617901962647"><ele>480.0</ele><time>2026-05-01T14:52:19Z</time></trkpt><trkpt lat="40.851739224173045" lon="9.276356787474773"><ele>480.0</ele><time>2026-05-01T14:52:20Z</time></trkpt><trkpt lat="40.851630430953264" lon="9.276538821438077"><ele>478.66666666666663</ele><time>2026-05-01T14:52:21Z</time></trkpt><trkpt lat="40.85153127554916" lon="9.276733596312333"><ele>477.3333333333333</ele><time>2026-05-01T14:52:22Z</time></trkpt><trkpt lat="40.851441961445104" lon="9.276909039604384"><ele>476.0</ele><time>2026-05-01T14:52:23Z</time></trkpt><trkpt lat="40.85135289300901" lon="9.277084000291492"><ele>477.0</ele><time>2026-05-01T14:52:24Z</time></trkpt><trkpt lat="40.851257379357044" lon="9.277272373234414"><ele>478.0</ele><time>2026-05-01T14:52:25Z</time></trkpt><trkpt lat="40.851157687854574" lon="9.27747341312698"><ele>479.0</ele><time>2026-05-01T14:52:26Z</time></trkpt><trkpt lat="40.85106350746089" lon="9.277665075716863"><ele>479.0</ele><time>2026-05-01T14:52:27Z</time></trkpt><trkpt lat="40.850984231928095" lon="9.277826406005726"><ele>479.0</ele><time>2026-05-01T14:52:28Z</time></trkpt><trkpt lat="40.85091272151384" lon="9.27797193381953"><ele>479.0</ele><time>2026-05-01T14:52:29Z</time></trkpt><trkpt lat="40.850858084407406" lon="9.278116863855539"><ele>479.0</ele><time>2026-05-01T14:52:30Z</time></trkpt><trkpt lat="40.85077213299433" lon="9.278278326339361"><ele>478.66666666666663</ele><time>2026-05-01T14:52:31Z</time></trkpt><trkpt lat="40.85068169128314" lon="9.278433841608614"><ele>478.33333333333337</ele><time>2026-05-01T14:52:32Z</time></trkpt><trkpt lat="40.850588503529465" lon="9.278616298148846"><ele>478.0</ele><time>2026-05-01T14:52:33Z</time></trkpt><trkpt lat="40.850510384206196" lon="9.278772401381365"><ele>478.0</ele><time>2026-05-01T14:52:34Z</time></trkpt><trkpt lat="40.850432757340265" lon="9.278931413416418"><ele>478.0</ele><time>2026-05-01T14:52:35Z</time></trkpt><trkpt lat="40.85035890991516" lon="9.279084969212107"><ele>478.0</ele><time>2026-05-01T14:52:36Z</time></trkpt><trkpt lat="40.850291411665204" lon="9.279239283637283"><ele>478.0</ele><time>2026-05-01T14:52:37Z</time></trkpt><trkpt lat="40.850234118431466" lon="9.27939446388854"><ele>478.0</ele><time>2026-05-01T14:52:38Z</time></trkpt><trkpt lat="40.85018806444085" lon="9.279574236678991"><ele>478.0</ele><time>2026-05-01T14:52:39Z</time></trkpt><trkpt lat="40.850158685746564" lon="9.279769757843583"><ele>478.0</ele><time>2026-05-01T14:52:40Z</time></trkpt><trkpt lat="40.85015001118691" lon="9.279963775123418"><ele>478.0</ele><time>2026-05-01T14:52:41Z</time></trkpt><trkpt lat="40.85015696181802" lon="9.280133670019383"><ele>478.0</ele><time>2026-05-01T14:52:42Z</time></trkpt><trkpt lat="40.8501901772429" lon="9.280311430236212"><ele>478.0</ele><time>2026-05-01T14:52:43Z</time></trkpt><trkpt lat="40.85020263216379" lon="9.280507991166488"><ele>478.0</ele><time>2026-05-01T14:52:44Z</time></trkpt><trkpt lat="40.85023627371256" lon="9.280716417897683"><ele>478.0</ele><time>2026-05-01T14:52:45Z</time></trkpt><trkpt lat="40.85028633657301" lon="9.28095211185852"><ele>477.6666666666667</ele><time>2026-05-01T14:52:46Z</time></trkpt><trkpt lat="40.85032762812859" lon="9.28124741642933"><ele>477.33333333333337</ele><time>2026-05-01T14:52:47Z</time></trkpt><trkpt lat="40.85037995494807" lon="9.2815328585949"><ele>477.0</ele><time>2026-05-01T14:52:48Z</time></trkpt><trkpt lat="40.850427853822296" lon="9.281798701317697"><ele>476.66666666666663</ele><time>2026-05-01T14:52:49Z</time></trkpt><trkpt lat="40.85047401745158" lon="9.282075981751676"><ele>476.3333333333333</ele><time>2026-05-01T14:52:50Z</time></trkpt><trkpt lat="40.85051471445472" lon="9.28234773280719"><ele>476.0</ele><time>2026-05-01T14:52:51Z</time></trkpt><trkpt lat="40.85054627960429" lon="9.282559707196569"><ele>474.25</ele><time>2026-05-01T14:52:52Z</time></trkpt><trkpt lat="40.850576508747814" lon="9.28274141826076"><ele>472.5</ele><time>2026-05-01T14:52:53Z</time></trkpt><trkpt lat="40.85062291097707" lon="9.282911138301346"><ele>470.75</ele><time>2026-05-01T14:52:54Z</time></trkpt><trkpt lat="40.85065464050389" lon="9.283083508509721"><ele>469.0</ele><time>2026-05-01T14:52:55Z</time></trkpt><trkpt lat="40.8507075098081" lon="9.283244108045405"><ele>468.0</ele><time>2026-05-01T14:52:56Z</time></trkpt><trkpt lat="40.85078401232092" lon="9.283406022060634"><ele>467.0</ele><time>2026-05-01T14:52:57Z</time></trkpt><trkpt lat="40.85088456313159" lon="9.283560523321528"><ele>466.0</ele><time>2026-05-01T14:52:58Z</time></trkpt><trkpt lat="40.851004002696826" lon="9.283684694459275"><ele>465.0</ele><time>2026-05-01T14:52:59Z</time></trkpt><trkpt lat="40.85114063083579" lon="9.283776109316616"><ele>464.0</ele><time>2026-05-01T14:53:00Z</time></trkpt><trkpt lat="40.85130516605001" lon="9.28387077871549"><ele>463.0</ele><time>2026-05-01T14:53:01Z</time></trkpt><trkpt lat="40.851448545120576" lon="9.283943665585333"><ele>463.0</ele><time>2026-05-01T14:53:02Z</time></trkpt><trkpt lat="40.85156885321901" lon="9.284033048992203"><ele>463.0</ele><time>2026-05-01T14:53:03Z</time></trkpt><trkpt lat="40.85167846307827" lon="9.284131873394855"><ele>463.0</ele><time>2026-05-01T14:53:04Z</time></trkpt><trkpt lat="40.85177305130774" lon="9.284258832286312"><ele>463.0</ele><time>2026-05-01T14:53:05Z</time></trkpt><trkpt lat="40.85184935155086" lon="9.284389788276389"><ele>465.0</ele><time>2026-05-01T14:53:06Z</time></trkpt><trkpt lat="40.85192084200259" lon="9.284551904504571"><ele>467.0</ele><time>2026-05-01T14:53:07Z</time></trkpt><trkpt lat="40.85196764093238" lon="9.284716198320984"><ele>469.0</ele><time>2026-05-01T14:53:08Z</time></trkpt><trkpt lat="40.85199533947027" lon="9.284874305422763"><ele>471.0</ele><time>2026-05-01T14:53:09Z</time></trkpt><trkpt lat="40.85200593550311" lon="9.285037180884368"><ele>471.0</ele><time>2026-05-01T14:53:10Z</time></trkpt><trkpt lat="40.85199255996356" lon="9.285221705781273"><ele>471.0</ele><time>2026-05-01T14:53:11Z</time></trkpt><trkpt lat="40.85196062957174" lon="9.285442728686935"><ele>471.0</ele><time>2026-05-01T14:53:12Z</time></trkpt><trkpt lat="40.85190428568899" lon="9.285695039986154"><ele>471.33333333333337</ele><time>2026-05-01T14:53:13Z</time></trkpt><trkpt lat="40.85184212942929" lon="9.285963861669474"><ele>471.6666666666667</ele><time>2026-05-01T14:53:14Z</time></trkpt><trkpt lat="40.85178787386738" lon="9.286214507244694"><ele>472.0</ele><time>2026-05-01T14:53:15Z</time></trkpt><trkpt lat="40.85174573430367" lon="9.286424579925018"><ele>468.5</ele><time>2026-05-01T14:53:16Z</time></trkpt><trkpt lat="40.85171925165394" lon="9.286606619591325"><ele>465.0</ele><time>2026-05-01T14:53:17Z</time></trkpt><trkpt lat="40.85170595489998" lon="9.28676626454935"><ele>461.5</ele><time>2026-05-01T14:53:18Z</time></trkpt><trkpt lat="40.85170364220144" lon="9.286956367550284"><ele>458.0</ele><time>2026-05-01T14:53:19Z</time></trkpt><trkpt lat="40.85173324423443" lon="9.287163425768142"><ele>459.5</ele><time>2026-05-01T14:53:20Z</time></trkpt><trkpt lat="40.851798419530446" lon="9.287338235628809"><ele>461.0</ele><time>2026-05-01T14:53:21Z</time></trkpt><trkpt lat="40.851862910940625" lon="9.287500754226526"><ele>462.5</ele><time>2026-05-01T14:53:22Z</time></trkpt><trkpt lat="40.85195095703955" lon="9.287643497357536"><ele>464.0</ele><time>2026-05-01T14:53:23Z</time></trkpt><trkpt lat="40.85205434459944" lon="9.287774109011233"><ele>464.0</ele><time>2026-05-01T14:53:24Z</time></trkpt><trkpt lat="40.852178629230266" lon="9.287884808971304"><ele>464.0</ele><time>2026-05-01T14:53:25Z</time></trkpt><trkpt lat="40.852313082808955" lon="9.287976749317888"><ele>464.0</ele><time>2026-05-01T14:53:26Z</time></trkpt><trkpt lat="40.85245350246357" lon="9.288039774829995"><ele>464.0</ele><time>2026-05-01T14:53:27Z</time></trkpt><trkpt lat="40.85258719776887" lon="9.288081427272854"><ele>464.0</ele><time>2026-05-01T14:53:28Z</time></trkpt><trkpt lat="40.852695789645765" lon="9.288135975778044"><ele>464.0</ele><time>2026-05-01T14:53:29Z</time></trkpt><trkpt lat="40.85280697542953" lon="9.288188230720602"><ele>464.0</ele><time>2026-05-01T14:53:30Z</time></trkpt><trkpt lat="40.85292322185976" lon="9.288252229528222"><ele>462.25</ele><time>2026-05-01T14:53:31Z</time></trkpt><trkpt lat="40.853019334678095" lon="9.288320783755854"><ele>460.5</ele><time>2026-05-01T14:53:32Z</time></trkpt><trkpt lat="40.85313576753813" lon="9.288394871534251"><ele>458.75</ele><time>2026-05-01T14:53:33Z</time></trkpt><trkpt lat="40.85322919515203" lon="9.288531358881746"><ele>457.0</ele><time>2026-05-01T14:53:34Z</time></trkpt><trkpt lat="40.85331485864563" lon="9.288692947293947"><ele>457.0</ele><time>2026-05-01T14:53:35Z</time></trkpt><trkpt lat="40.85337483245234" lon="9.288859179632695"><ele>457.0</ele><time>2026-05-01T14:53:36Z</time></trkpt><trkpt lat="40.85341701915846" lon="9.289046306807444"><ele>457.0</ele><time>2026-05-01T14:53:37Z</time></trkpt><trkpt lat="40.853451984952855" lon="9.289269092688091"><ele>457.33333333333337</ele><time>2026-05-01T14:53:38Z</time></trkpt><trkpt lat="40.85350629217181" lon="9.289552774151957"><ele>457.66666666666663</ele><time>2026-05-01T14:53:39Z</time></trkpt><trkpt lat="40.853569126468315" lon="9.289836676028044"><ele>458.0</ele><time>2026-05-01T14:53:40Z</time></trkpt><trkpt lat="40.85362374497016" lon="9.290091593976511"><ele>458.0</ele><time>2026-05-01T14:53:41.001Z</time></trkpt><trkpt lat="40.85365086617469" lon="9.290332043302078"><ele>458.0</ele><time>2026-05-01T14:53:42.001Z</time></trkpt><trkpt lat="40.85367387875605" lon="9.290524428874562"><ele>458.0</ele><time>2026-05-01T14:53:43.001Z</time></trkpt><trkpt lat="40.85368586827775" lon="9.290702126603414"><ele>457.75</ele><time>2026-05-01T14:53:44.001Z</time></trkpt><trkpt lat="40.85368250086154" lon="9.29088892089121"><ele>457.5</ele><time>2026-05-01T14:53:45.001Z</time></trkpt><trkpt lat="40.85365950369456" lon="9.291071433710218"><ele>457.25</ele><time>2026-05-01T14:53:46.001Z</time></trkpt><trkpt lat="40.85362039384926" lon="9.291261114429943"><ele>457.0</ele><time>2026-05-01T14:53:47Z</time></trkpt><trkpt lat="40.85357161220652" lon="9.29148747939937"><ele>456.6666666666667</ele><time>2026-05-01T14:53:48Z</time></trkpt><trkpt lat="40.85350501007451" lon="9.291744090277007"><ele>456.33333333333337</ele><time>2026-05-01T14:53:49Z</time></trkpt><trkpt lat="40.853451241136575" lon="9.291954866375509"><ele>456.0</ele><time>2026-05-01T14:53:50Z</time></trkpt><trkpt lat="40.853408932753226" lon="9.292129852632462"><ele>454.0</ele><time>2026-05-01T14:53:51Z</time></trkpt><trkpt lat="40.85337155184006" lon="9.292285295085666"><ele>452.0</ele><time>2026-05-01T14:53:52Z</time></trkpt><trkpt lat="40.85334124682109" lon="9.29242918302383"><ele>450.0</ele><time>2026-05-01T14:53:53Z</time></trkpt><trkpt lat="40.853319370055715" lon="9.292565210882868"><ele>448.0</ele><time>2026-05-01T14:53:54Z</time></trkpt><trkpt lat="40.8533021718344" lon="9.292691705814926"><ele>446.0</ele><time>2026-05-01T14:53:55Z</time></trkpt><trkpt lat="40.853295257134256" lon="9.292795127862545"><ele>446.0</ele><time>2026-05-01T14:53:56Z</time></trkpt><trkpt lat="40.85330396355211" lon="9.292929994354505"><ele>446.0</ele><time>2026-05-01T14:53:57Z</time></trkpt><trkpt lat="40.85333527270326" lon="9.293060272443794"><ele>446.0</ele><time>2026-05-01T14:53:58Z</time></trkpt><trkpt lat="40.853357835361024" lon="9.293187762290648"><ele>446.0</ele><time>2026-05-01T14:53:59Z</time></trkpt><trkpt lat="40.85339508312717" lon="9.293315775803718"><ele>446.0</ele><time>2026-05-01T14:54:00Z</time></trkpt><trkpt lat="40.85345276824391" lon="9.293468615892584"><ele>446.6</ele><time>2026-05-01T14:54:01Z</time></trkpt><trkpt lat="40.853531961924375" lon="9.29363200990051"><ele>447.20000000000005</ele><time>2026-05-01T14:54:02Z</time></trkpt><trkpt lat="40.85360597805415" lon="9.29374745410243"><ele>447.79999999999995</ele><time>2026-05-01T14:54:03Z</time></trkpt><trkpt lat="40.85368184274949" lon="9.29382753692632"><ele>448.4</ele><time>2026-05-01T14:54:04Z</time></trkpt><trkpt lat="40.85374622330204" lon="9.293895306046801"><ele>449.0</ele><time>2026-05-01T14:54:05Z</time></trkpt><trkpt lat="40.85379829516319" lon="9.2939533585024"><ele>447.99999999999994</ele><time>2026-05-01T14:54:06Z</time></trkpt><trkpt lat="40.85388027558242" lon="9.293997305117465"><ele>447.0</ele><time>2026-05-01T14:54:10Z</time></trkpt><trkpt lat="40.85396147871437" lon="9.294034605060356"><ele>446.0</ele><time>2026-05-01T14:54:13Z</time></trkpt><trkpt lat="40.854043702270666" lon="9.294065808179647"><ele>445.0</ele><time>2026-05-01T14:54:15Z</time></trkpt><trkpt lat="40.85410982683712" lon="9.294075791969309"><ele>443.99999999999994</ele><time>2026-05-01T14:54:16Z</time></trkpt><trkpt lat="40.85419045131701" lon="9.294103248060376"><ele>443.0</ele><time>2026-05-01T14:54:18Z</time></trkpt><trkpt lat="40.854172935059474" lon="9.294218157036388"><ele>442.99999999999994</ele><time>2026-05-01T14:54:21Z</time></trkpt><trkpt lat="40.85412445693782" lon="9.294314243801061"><ele>443.0</ele><time>2026-05-01T14:54:23Z</time></trkpt><trkpt lat="40.85410192009784" lon="9.29442596442924"><ele>443.0</ele><time>2026-05-01T14:54:25Z</time></trkpt><trkpt lat="40.85408254666479" lon="9.294515467556003"><ele>443.0</ele><time>2026-05-01T14:54:27Z</time></trkpt><trkpt lat="40.85404655632975" lon="9.294603531856904"><ele>442.99999999999994</ele><time>2026-05-01T14:54:29Z</time></trkpt><trkpt lat="40.85401484160803" lon="9.294697006153223"><ele>443.0</ele><time>2026-05-01T14:54:31Z</time></trkpt><trkpt lat="40.85399779962006" lon="9.294792861457335"><ele>441.59999999999997</ele><time>2026-05-01T14:54:33Z</time></trkpt><trkpt lat="40.853964889549914" lon="9.294948493400893"><ele>440.19999999999993</ele><time>2026-05-01T14:54:35Z</time></trkpt><trkpt lat="40.85394490768745" lon="9.295029231537134"><ele>438.8</ele><time>2026-05-01T14:54:36Z</time></trkpt><trkpt lat="40.85390582874118" lon="9.295194734982598"><ele>437.4</ele><time>2026-05-01T14:54:38Z</time></trkpt><trkpt lat="40.8538757678107" lon="9.295287177399"><ele>436.0</ele><time>2026-05-01T14:54:39Z</time></trkpt><trkpt lat="40.853839471738766" lon="9.295383141993081"><ele>436.0</ele><time>2026-05-01T14:54:40Z</time></trkpt><trkpt lat="40.853799846455765" lon="9.295477911746131"><ele>436.0</ele><time>2026-05-01T14:54:41Z</time></trkpt><trkpt lat="40.853756999826324" lon="9.295582107710757"><ele>436.0</ele><time>2026-05-01T14:54:42Z</time></trkpt><trkpt lat="40.8537090576544" lon="9.2957049472905"><ele>436.0</ele><time>2026-05-01T14:54:43Z</time></trkpt><trkpt lat="40.85366420510981" lon="9.295831336566586"><ele>436.0</ele><time>2026-05-01T14:54:44Z</time></trkpt><trkpt lat="40.853618327833374" lon="9.295963171063134"><ele>435.75</ele><time>2026-05-01T14:54:45Z</time></trkpt><trkpt lat="40.853576655941964" lon="9.296104252608577"><ele>435.5</ele><time>2026-05-01T14:54:46Z</time></trkpt><trkpt lat="40.853548807927076" lon="9.29625459240146"><ele>435.25</ele><time>2026-05-01T14:54:47Z</time></trkpt><trkpt lat="40.85351645905111" lon="9.296402194151323"><ele>435.0</ele><time>2026-05-01T14:54:48Z</time></trkpt><trkpt lat="40.85349768498468" lon="9.296559837570793"><ele>433.75</ele><time>2026-05-01T14:54:49Z</time></trkpt><trkpt lat="40.85350448381499" lon="9.296726258519387"><ele>432.5</ele><time>2026-05-01T14:54:50Z</time></trkpt><trkpt lat="40.85349725440588" lon="9.296888552681283"><ele>431.25</ele><time>2026-05-01T14:54:51Z</time></trkpt><trkpt lat="40.85351033973163" lon="9.297040636944601"><ele>430.0</ele><time>2026-05-01T14:54:52Z</time></trkpt><trkpt lat="40.853516496782746" lon="9.297202793162048"><ele>428.75</ele><time>2026-05-01T14:54:53Z</time></trkpt><trkpt lat="40.85352634185759" lon="9.29735995371645"><ele>427.5</ele><time>2026-05-01T14:54:54Z</time></trkpt><trkpt lat="40.85352658378431" lon="9.297530192565304"><ele>426.25</ele><time>2026-05-01T14:54:55Z</time></trkpt><trkpt lat="40.85353629970772" lon="9.297703588763257"><ele>425.0</ele><time>2026-05-01T14:54:56Z</time></trkpt><trkpt lat="40.85354212358711" lon="9.297878592948923"><ele>425.0</ele><time>2026-05-01T14:54:57Z</time></trkpt><trkpt lat="40.85354283180997" lon="9.298051400441526"><ele>425.0</ele><time>2026-05-01T14:54:58Z</time></trkpt><trkpt lat="40.85353534583295" lon="9.29822828122811"><ele>425.0</ele><time>2026-05-01T14:54:59Z</time></trkpt><trkpt lat="40.853556099438194" lon="9.298399745437044"><ele>425.0</ele><time>2026-05-01T14:55:00Z</time></trkpt><trkpt lat="40.85355834205659" lon="9.29857158071631"><ele>425.0</ele><time>2026-05-01T14:55:01Z</time></trkpt><trkpt lat="40.85356166084916" lon="9.298761746063526"><ele>425.0</ele><time>2026-05-01T14:55:02Z</time></trkpt><trkpt lat="40.85357560653276" lon="9.298972751484143"><ele>425.0</ele><time>2026-05-01T14:55:03Z</time></trkpt><trkpt lat="40.85358391226295" lon="9.299176205608848"><ele>424.75</ele><time>2026-05-01T14:55:04Z</time></trkpt><trkpt lat="40.8535937012769" lon="9.299375161590895"><ele>424.5</ele><time>2026-05-01T14:55:05Z</time></trkpt><trkpt lat="40.853602782118024" lon="9.299563196013219"><ele>424.25</ele><time>2026-05-01T14:55:06Z</time></trkpt><trkpt lat="40.8536093017922" lon="9.299748834470583"><ele>424.0</ele><time>2026-05-01T14:55:07Z</time></trkpt><trkpt lat="40.853620237846314" lon="9.299927461238193"><ele>422.0</ele><time>2026-05-01T14:55:08Z</time></trkpt><trkpt lat="40.853632111758415" lon="9.300106555632405"><ele>420.0</ele><time>2026-05-01T14:55:09Z</time></trkpt><trkpt lat="40.85364434650366" lon="9.300283510821714"><ele>418.0</ele><time>2026-05-01T14:55:10Z</time></trkpt><trkpt lat="40.85365424728373" lon="9.300457445257507"><ele>416.0</ele><time>2026-05-01T14:55:11Z</time></trkpt><trkpt lat="40.85365537554172" lon="9.300633440592424"><ele>414.66666666666663</ele><time>2026-05-01T14:55:12Z</time></trkpt><trkpt lat="40.85364174751354" lon="9.300827353029549"><ele>413.33333333333337</ele><time>2026-05-01T14:55:13Z</time></trkpt><trkpt lat="40.85361675147427" lon="9.301032252036125"><ele>412.0</ele><time>2026-05-01T14:55:14Z</time></trkpt><trkpt lat="40.853583926888085" lon="9.301235597617907"><ele>410.5</ele><time>2026-05-01T14:55:15Z</time></trkpt><trkpt lat="40.8535834128384" lon="9.301425902365182"><ele>409.0</ele><time>2026-05-01T14:55:16Z</time></trkpt><trkpt lat="40.853568989726476" lon="9.301604328875051"><ele>407.5</ele><time>2026-05-01T14:55:17Z</time></trkpt><trkpt lat="40.853554819381635" lon="9.301781489900666"><ele>406.0</ele><time>2026-05-01T14:55:18Z</time></trkpt><trkpt lat="40.85354118047334" lon="9.301949973453013"><ele>406.0</ele><time>2026-05-01T14:55:19Z</time></trkpt><trkpt lat="40.85353667109972" lon="9.302093943368098"><ele>406.0</ele><time>2026-05-01T14:55:20Z</time></trkpt><trkpt lat="40.85350779064397" lon="9.302217650842177"><ele>406.0</ele><time>2026-05-01T14:55:21Z</time></trkpt><trkpt lat="40.85347172105174" lon="9.302317133704827"><ele>406.0</ele><time>2026-05-01T14:55:22Z</time></trkpt><trkpt lat="40.853396577857374" lon="9.302378029842348"><ele>406.0</ele><time>2026-05-01T14:55:23Z</time></trkpt><trkpt lat="40.85328432920678" lon="9.302399307378291"><ele>404.0</ele><time>2026-05-01T14:55:24Z</time></trkpt><trkpt lat="40.853148735362964" lon="9.302439623608498"><ele>402.0</ele><time>2026-05-01T14:55:25Z</time></trkpt><trkpt lat="40.85299710877466" lon="9.3024983938499"><ele>400.0</ele><time>2026-05-01T14:55:26Z</time></trkpt><trkpt lat="40.85282848654102" lon="9.30256032904573"><ele>400.0</ele><time>2026-05-01T14:55:27Z</time></trkpt><trkpt lat="40.85265825821246" lon="9.302639505826072"><ele>400.0</ele><time>2026-05-01T14:55:28Z</time></trkpt><trkpt lat="40.85249940148361" lon="9.302716945175954"><ele>400.0</ele><time>2026-05-01T14:55:29Z</time></trkpt><trkpt lat="40.852359461947856" lon="9.302784357078446"><ele>399.5</ele><time>2026-05-01T14:55:30Z</time></trkpt><trkpt lat="40.85223421010693" lon="9.302850460877643"><ele>399.0</ele><time>2026-05-01T14:55:31Z</time></trkpt><trkpt lat="40.85213423909394" lon="9.302926126017208"><ele>398.5</ele><time>2026-05-01T14:55:32Z</time></trkpt><trkpt lat="40.85205092282276" lon="9.30303188306199"><ele>398.0</ele><time>2026-05-01T14:55:33Z</time></trkpt><trkpt lat="40.85197358088158" lon="9.303188649553094"><ele>396.66666666666663</ele><time>2026-05-01T14:55:34Z</time></trkpt><trkpt lat="40.85189922427437" lon="9.303375966004163"><ele>395.33333333333337</ele><time>2026-05-01T14:55:35Z</time></trkpt><trkpt lat="40.85181952290518" lon="9.30357743911868"><ele>394.0</ele><time>2026-05-01T14:55:36Z</time></trkpt><trkpt lat="40.85172487749067" lon="9.303768697117352"><ele>392.6666666666667</ele><time>2026-05-01T14:55:37Z</time></trkpt><trkpt lat="40.851662675662354" lon="9.303980662252764"><ele>391.33333333333337</ele><time>2026-05-01T14:55:38Z</time></trkpt><trkpt lat="40.851571560258634" lon="9.304169772924165"><ele>390.0</ele><time>2026-05-01T14:55:39Z</time></trkpt><trkpt lat="40.85148522242535" lon="9.3043833096672"><ele>390.0</ele><time>2026-05-01T14:55:40Z</time></trkpt><trkpt lat="40.85140111695122" lon="9.304591325469982"><ele>390.0</ele><time>2026-05-01T14:55:41Z</time></trkpt><trkpt lat="40.85132315958469" lon="9.304817794459098"><ele>390.0</ele><time>2026-05-01T14:55:42Z</time></trkpt><trkpt lat="40.85121753428078" lon="9.305023246106895"><ele>389.33333333333337</ele><time>2026-05-01T14:55:43Z</time></trkpt><trkpt lat="40.8511280670903" lon="9.305246009360715"><ele>388.6666666666667</ele><time>2026-05-01T14:55:44Z</time></trkpt><trkpt lat="40.8510577272984" lon="9.305471950250002"><ele>388.0</ele><time>2026-05-01T14:55:45Z</time></trkpt><trkpt lat="40.850977079346464" lon="9.305680051694624"><ele>387.33333333333337</ele><time>2026-05-01T14:55:46Z</time></trkpt><trkpt lat="40.85091004856989" lon="9.30587411510076"><ele>386.66666666666663</ele><time>2026-05-01T14:55:47Z</time></trkpt><trkpt lat="40.85085667110698" lon="9.30606818229766"><ele>386.0</ele><time>2026-05-01T14:55:48Z</time></trkpt><trkpt lat="40.85082687144944" lon="9.306279976913933"><ele>386.3333333333333</ele><time>2026-05-01T14:55:49Z</time></trkpt><trkpt lat="40.85080405868848" lon="9.306496517340747"><ele>386.66666666666663</ele><time>2026-05-01T14:55:50Z</time></trkpt><trkpt lat="40.85079377548975" lon="9.306698243302797"><ele>387.0</ele><time>2026-05-01T14:55:51Z</time></trkpt><trkpt lat="40.85079633122159" lon="9.306891589439065"><ele>387.0</ele><time>2026-05-01T14:55:52Z</time></trkpt><trkpt lat="40.85080547636147" lon="9.307080557933975"><ele>387.0</ele><time>2026-05-01T14:55:53Z</time></trkpt><trkpt lat="40.850818124223224" lon="9.307212880442638"><ele>387.0</ele><time>2026-05-01T14:55:54Z</time></trkpt><trkpt lat="40.85083975924064" lon="9.30731620579119"><ele>387.0</ele><time>2026-05-01T14:55:55Z</time></trkpt><trkpt lat="40.85088985105033" lon="9.307403389044255"><ele>387.0</ele><time>2026-05-01T14:55:56Z</time></trkpt><trkpt lat="40.85097714572864" lon="9.307458267919491"><ele>386.75</ele><time>2026-05-01T14:55:57Z</time></trkpt><trkpt lat="40.851081325851226" lon="9.307496998882618"><ele>386.5</ele><time>2026-05-01T14:55:58Z</time></trkpt><trkpt lat="40.85116641362135" lon="9.307564865168544"><ele>386.25</ele><time>2026-05-01T14:55:59Z</time></trkpt><trkpt lat="40.85119720793097" lon="9.307722295106167"><ele>386.0</ele><time>2026-05-01T14:56:00Z</time></trkpt><trkpt lat="40.85126280947422" lon="9.307885857777542"><ele>386.0</ele><time>2026-05-01T14:56:01Z</time></trkpt><trkpt lat="40.851310442433224" lon="9.308089976117563"><ele>386.0</ele><time>2026-05-01T14:56:02Z</time></trkpt><trkpt lat="40.8513647522321" lon="9.308280474294847"><ele>386.0</ele><time>2026-05-01T14:56:03Z</time></trkpt><trkpt lat="40.85140897053264" lon="9.308442512778642"><ele>386.0</ele><time>2026-05-01T14:56:04Z</time></trkpt><trkpt lat="40.85145225874563" lon="9.30858467456971"><ele>386.0</ele><time>2026-05-01T14:56:05Z</time></trkpt><trkpt lat="40.851496247794756" lon="9.308723055669022"><ele>386.0</ele><time>2026-05-01T14:56:06Z</time></trkpt><trkpt lat="40.851532576977675" lon="9.308844719468313"><ele>386.0</ele><time>2026-05-01T14:56:07Z</time></trkpt><trkpt lat="40.85155789509342" lon="9.308937276067807"><ele>386.0</ele><time>2026-05-01T14:56:08Z</time></trkpt><trkpt lat="40.85168608046111" lon="9.308881788937777"><ele>386.0</ele><time>2026-05-01T14:56:13Z</time></trkpt><trkpt lat="40.85174825803651" lon="9.30874737305662"><ele>384.6</ele><time>2026-05-01T14:56:15Z</time></trkpt><trkpt lat="40.85179432452166" lon="9.308671683823011"><ele>383.20000000000005</ele><time>2026-05-01T14:56:16Z</time></trkpt><trkpt lat="40.85184743581403" lon="9.308595045801088"><ele>381.79999999999995</ele><time>2026-05-01T14:56:17Z</time></trkpt><trkpt lat="40.85192062613025" lon="9.308501588458393"><ele>380.4</ele><time>2026-05-01T14:56:18Z</time></trkpt><trkpt lat="40.85200374866028" lon="9.308412154858175"><ele>379.0</ele><time>2026-05-01T14:56:19Z</time></trkpt><trkpt lat="40.85208329942496" lon="9.308350507490209"><ele>379.0</ele><time>2026-05-01T14:56:20Z</time></trkpt><trkpt lat="40.852171622272685" lon="9.30833849334117"><ele>379.0</ele><time>2026-05-01T14:56:21Z</time></trkpt><trkpt lat="40.85229396312984" lon="9.308328457419188"><ele>379.0</ele><time>2026-05-01T14:56:22Z</time></trkpt><trkpt lat="40.852454823581255" lon="9.308295655326125"><ele>379.0</ele><time>2026-05-01T14:56:23Z</time></trkpt><trkpt lat="40.85261588447805" lon="9.308265449129008"><ele>378.2</ele><time>2026-05-01T14:56:24Z</time></trkpt><trkpt lat="40.852733986042004" lon="9.308254666823292"><ele>377.4</ele><time>2026-05-01T14:56:25Z</time></trkpt><trkpt lat="40.85283524603254" lon="9.30825982925738"><ele>376.6</ele><time>2026-05-01T14:56:26Z</time></trkpt><trkpt lat="40.85292991343487" lon="9.308265615755861"><ele>375.8</ele><time>2026-05-01T14:56:27Z</time></trkpt><trkpt lat="40.853012503376554" lon="9.308345382359217"><ele>375.0</ele><time>2026-05-01T14:56:28Z</time></trkpt><trkpt lat="40.85306840730041" lon="9.30842241728123"><ele>375.0</ele><time>2026-05-01T14:56:29Z</time></trkpt><trkpt lat="40.85314123338947" lon="9.308532539222647"><ele>375.0</ele><time>2026-05-01T14:56:30Z</time></trkpt><trkpt lat="40.85324253626598" lon="9.3086832011073"><ele>375.0</ele><time>2026-05-01T14:56:31Z</time></trkpt><trkpt lat="40.853353531404814" lon="9.308839732410778"><ele>375.0</ele><time>2026-05-01T14:56:32Z</time></trkpt><trkpt lat="40.853443362656584" lon="9.3089642366243"><ele>375.0</ele><time>2026-05-01T14:56:33Z</time></trkpt><trkpt lat="40.853525004873745" lon="9.30907691043598"><ele>375.0</ele><time>2026-05-01T14:56:34Z</time></trkpt><trkpt lat="40.85362636930567" lon="9.309191844303804"><ele>375.0</ele><time>2026-05-01T14:56:35Z</time></trkpt><trkpt lat="40.853748996383466" lon="9.309330462441462"><ele>375.0</ele><time>2026-05-01T14:56:36Z</time></trkpt><trkpt lat="40.85388098888053" lon="9.309466950091227"><ele>375.0</ele><time>2026-05-01T14:56:37Z</time></trkpt><trkpt lat="40.85400724514918" lon="9.309604604824727"><ele>375.0</ele><time>2026-05-01T14:56:38Z</time></trkpt><trkpt lat="40.8541550301725" lon="9.309751436572466"><ele>375.0</ele><time>2026-05-01T14:56:39Z</time></trkpt><trkpt lat="40.854330123619036" lon="9.309943536382383"><ele>375.0</ele><time>2026-05-01T14:56:40Z</time></trkpt><trkpt lat="40.85454369656343" lon="9.310129014163294"><ele>375.0</ele><time>2026-05-01T14:56:41Z</time></trkpt><trkpt lat="40.85472485259149" lon="9.310320893716273"><ele>375.0</ele><time>2026-05-01T14:56:42Z</time></trkpt><trkpt lat="40.85489668219842" lon="9.310495598563595"><ele>375.0</ele><time>2026-05-01T14:56:43Z</time></trkpt><trkpt lat="40.855058160395885" lon="9.310658513893294"><ele>375.0</ele><time>2026-05-01T14:56:44Z</time></trkpt><trkpt lat="40.855190878353966" lon="9.310790439865356"><ele>377.6666666666667</ele><time>2026-05-01T14:56:45Z</time></trkpt><trkpt lat="40.85531466278376" lon="9.310920127562358"><ele>380.33333333333337</ele><time>2026-05-01T14:56:46Z</time></trkpt><trkpt lat="40.85544591292395" lon="9.311051942317714"><ele>383.0</ele><time>2026-05-01T14:56:47Z</time></trkpt><trkpt lat="40.855574030244476" lon="9.311176897563383"><ele>383.0</ele><time>2026-05-01T14:56:48Z</time></trkpt><trkpt lat="40.85572146077638" lon="9.311319640701685"><ele>383.0</ele><time>2026-05-01T14:56:49Z</time></trkpt><trkpt lat="40.85585517646038" lon="9.311464641067738"><ele>383.0</ele><time>2026-05-01T14:56:50Z</time></trkpt><trkpt lat="40.855969350933265" lon="9.311587600985296"><ele>385.0</ele><time>2026-05-01T14:56:51Z</time></trkpt><trkpt lat="40.856117521800556" lon="9.311737539412139"><ele>387.0</ele><time>2026-05-01T14:56:52Z</time></trkpt><trkpt lat="40.856286675339405" lon="9.311917457833719"><ele>389.0</ele><time>2026-05-01T14:56:53Z</time></trkpt><trkpt lat="40.85646705894293" lon="9.31208165881367"><ele>389.0</ele><time>2026-05-01T14:56:54Z</time></trkpt><trkpt lat="40.85663644030061" lon="9.31221200753009"><ele>389.0</ele><time>2026-05-01T14:56:55Z</time></trkpt><trkpt lat="40.85678246833261" lon="9.312373305518241"><ele>389.0</ele><time>2026-05-01T14:56:56Z</time></trkpt><trkpt lat="40.85694118336035" lon="9.31252496547386"><ele>390.0</ele><time>2026-05-01T14:56:57Z</time></trkpt><trkpt lat="40.857096831133404" lon="9.312658093617939"><ele>391.0</ele><time>2026-05-01T14:56:58Z</time></trkpt><trkpt lat="40.85723898709178" lon="9.312815891570322"><ele>392.0</ele><time>2026-05-01T14:56:59Z</time></trkpt><trkpt lat="40.85739365489594" lon="9.312963470561261"><ele>392.3333333333333</ele><time>2026-05-01T14:57:00Z</time></trkpt><trkpt lat="40.857539883588636" lon="9.313091468005018"><ele>392.66666666666663</ele><time>2026-05-01T14:57:01Z</time></trkpt><trkpt lat="40.85766272484629" lon="9.31322391283351"><ele>393.0</ele><time>2026-05-01T14:57:02Z</time></trkpt><trkpt lat="40.85780501245969" lon="9.313328299523958"><ele>393.0</ele><time>2026-05-01T14:57:03Z</time></trkpt><trkpt lat="40.85791079241719" lon="9.313429683091176"><ele>393.0</ele><time>2026-05-01T14:57:04Z</time></trkpt><trkpt lat="40.85799467364886" lon="9.313516425798944"><ele>393.0</ele><time>2026-05-01T14:57:05Z</time></trkpt><trkpt lat="40.858057817350826" lon="9.313565450868818"><ele>393.0</ele><time>2026-05-01T14:57:06Z</time></trkpt><trkpt lat="40.85817629467022" lon="9.313546728397293"><ele>393.0</ele><time>2026-05-01T14:57:08Z</time></trkpt><trkpt lat="40.85827891344233" lon="9.313493324853004"><ele>393.0</ele><time>2026-05-01T14:57:09Z</time></trkpt><trkpt lat="40.858417370586245" lon="9.313440170579321"><ele>393.0</ele><time>2026-05-01T14:57:10Z</time></trkpt><trkpt lat="40.85856347429548" lon="9.313356789218753"><ele>393.0</ele><time>2026-05-01T14:57:11Z</time></trkpt><trkpt lat="40.85874062535628" lon="9.313315110188034"><ele>394.66666666666663</ele><time>2026-05-01T14:57:12Z</time></trkpt><trkpt lat="40.85893819605652" lon="9.313233171198553"><ele>396.3333333333333</ele><time>2026-05-01T14:57:13Z</time></trkpt><trkpt lat="40.85915851618601" lon="9.313165344338458"><ele>398.0</ele><time>2026-05-01T14:57:14Z</time></trkpt><trkpt lat="40.859360223132526" lon="9.313106048503236"><ele>399.66666666666663</ele><time>2026-05-01T14:57:15Z</time></trkpt><trkpt lat="40.85952849650753" lon="9.313038437291725"><ele>401.33333333333337</ele><time>2026-05-01T14:57:16Z</time></trkpt><trkpt lat="40.8597161007664" lon="9.3129685555921"><ele>403.0</ele><time>2026-05-01T14:57:17Z</time></trkpt><trkpt lat="40.85990405040892" lon="9.312914120200535"><ele>403.0</ele><time>2026-05-01T14:57:18Z</time></trkpt><trkpt lat="40.86006588369138" lon="9.312842620938465"><ele>403.0</ele><time>2026-05-01T14:57:19Z</time></trkpt><trkpt lat="40.86020496836472" lon="9.312816429668304"><ele>403.0</ele><time>2026-05-01T14:57:20Z</time></trkpt><trkpt lat="40.86033201203181" lon="9.312766171284588"><ele>403.0</ele><time>2026-05-01T14:57:21Z</time></trkpt><trkpt lat="40.86043380488199" lon="9.312757891114613"><ele>402.5</ele><time>2026-05-01T14:57:22Z</time></trkpt><trkpt lat="40.86053421405822" lon="9.31276123010003"><ele>402.0</ele><time>2026-05-01T14:57:23Z</time></trkpt><trkpt lat="40.860659041938426" lon="9.312790322208759"><ele>401.5</ele><time>2026-05-01T14:57:24Z</time></trkpt><trkpt lat="40.86081359571366" lon="9.312847587065969"><ele>401.0</ele><time>2026-05-01T14:57:25Z</time></trkpt><trkpt lat="40.86099599002649" lon="9.312923883858064"><ele>401.0</ele><time>2026-05-01T14:57:26Z</time></trkpt><trkpt lat="40.86119113978359" lon="9.31300670896852"><ele>401.0</ele><time>2026-05-01T14:57:27Z</time></trkpt><trkpt lat="40.86135140126889" lon="9.313064831204718"><ele>401.0</ele><time>2026-05-01T14:57:28Z</time></trkpt><trkpt lat="40.86148279042358" lon="9.313114380694772"><ele>400.8333333333333</ele><time>2026-05-01T14:57:29Z</time></trkpt><trkpt lat="40.86159070721003" lon="9.313185465559956"><ele>400.66666666666663</ele><time>2026-05-01T14:57:30Z</time></trkpt><trkpt lat="40.861672159471965" lon="9.313230035161757"><ele>400.5</ele><time>2026-05-01T14:57:31Z</time></trkpt><trkpt lat="40.86173340434894" lon="9.313251557595972"><ele>400.33333333333337</ele><time>2026-05-01T14:57:31.999Z</time></trkpt><trkpt lat="40.861806650108825" lon="9.313328225565916"><ele>400.1666666666667</ele><time>2026-05-01T14:57:33.999Z</time></trkpt><trkpt lat="40.86186818336905" lon="9.313371340997437"><ele>400.0</ele><time>2026-05-01T14:57:34.999Z</time></trkpt><trkpt lat="40.86193359387095" lon="9.313408883104943"><ele>400.50000000000006</ele><time>2026-05-01T14:57:35.999Z</time></trkpt><trkpt lat="40.86201197285673" lon="9.31343983684457"><ele>401.0</ele><time>2026-05-01T14:57:37.999Z</time></trkpt><trkpt lat="40.86207172069201" lon="9.313390124465375"><ele>401.5</ele><time>2026-05-01T14:57:39.999Z</time></trkpt><trkpt lat="40.86211599038834" lon="9.313328790273"><ele>402.0</ele><time>2026-05-01T14:57:40.999Z</time></trkpt><trkpt lat="40.86218008819881" lon="9.31323139223077"><ele>402.50000000000006</ele><time>2026-05-01T14:57:41.999Z</time></trkpt><trkpt lat="40.8622573908349" lon="9.313103507286561"><ele>403.0</ele><time>2026-05-01T14:57:42.999Z</time></trkpt><trkpt lat="40.86234230376052" lon="9.312961020080776"><ele>403.0</ele><time>2026-05-01T14:57:43.999Z</time></trkpt><trkpt lat="40.86244245414576" lon="9.312782669944612"><ele>403.0</ele><time>2026-05-01T14:57:44.999Z</time></trkpt><trkpt lat="40.86254655293312" lon="9.312567910710086"><ele>403.0</ele><time>2026-05-01T14:57:45.999Z</time></trkpt><trkpt lat="40.862666606525174" lon="9.312353979321106"><ele>403.33333333333337</ele><time>2026-05-01T14:57:46.999Z</time></trkpt><trkpt lat="40.86278643971802" lon="9.312130719580656"><ele>403.66666666666663</ele><time>2026-05-01T14:57:47.999Z</time></trkpt><trkpt lat="40.862924585645985" lon="9.31192313151696"><ele>404.0</ele><time>2026-05-01T14:57:48.999Z</time></trkpt><trkpt lat="40.86304446866925" lon="9.311752287069352"><ele>404.0</ele><time>2026-05-01T14:57:49.999Z</time></trkpt><trkpt lat="40.863162886016724" lon="9.311573427256167"><ele>404.0</ele><time>2026-05-01T14:57:50.999Z</time></trkpt><trkpt lat="40.86327244381298" lon="9.311385123079987"><ele>404.0</ele><time>2026-05-01T14:57:52Z</time></trkpt><trkpt lat="40.86339554193663" lon="9.311182970160822"><ele>404.66666666666663</ele><time>2026-05-01T14:57:53Z</time></trkpt><trkpt lat="40.863512653155034" lon="9.310970444676475"><ele>405.33333333333337</ele><time>2026-05-01T14:57:54Z</time></trkpt><trkpt lat="40.86361311701021" lon="9.310789370215568"><ele>406.0</ele><time>2026-05-01T14:57:55Z</time></trkpt><trkpt lat="40.863707933225655" lon="9.310625704323252"><ele>406.25</ele><time>2026-05-01T14:57:56Z</time></trkpt><trkpt lat="40.86379246417193" lon="9.31047722429624"><ele>406.5</ele><time>2026-05-01T14:57:57Z</time></trkpt><trkpt lat="40.863873551378475" lon="9.31034106225317"><ele>406.75</ele><time>2026-05-01T14:57:58Z</time></trkpt><trkpt lat="40.86394365135543" lon="9.310233842536372"><ele>407.0</ele><time>2026-05-01T14:57:59Z</time></trkpt><trkpt lat="40.864013567158416" lon="9.310159600063535"><ele>407.0</ele><time>2026-05-01T14:58:00Z</time></trkpt><trkpt lat="40.86410069397205" lon="9.310115933283223"><ele>407.0</ele><time>2026-05-01T14:58:01Z</time></trkpt><trkpt lat="40.86419723478984" lon="9.310109341548277"><ele>407.0</ele><time>2026-05-01T14:58:02Z</time></trkpt><trkpt lat="40.86429486470755" lon="9.310163261007158"><ele>407.0</ele><time>2026-05-01T14:58:03Z</time></trkpt><trkpt lat="40.86440652209781" lon="9.310231720963246"><ele>407.0</ele><time>2026-05-01T14:58:04Z</time></trkpt><trkpt lat="40.86455326785513" lon="9.310319556510253"><ele>407.3333333333333</ele><time>2026-05-01T14:58:05Z</time></trkpt><trkpt lat="40.86473961993188" lon="9.310412581329434"><ele>407.66666666666663</ele><time>2026-05-01T14:58:06Z</time></trkpt><trkpt lat="40.8649420691951" lon="9.310527401045471"><ele>408.0</ele><time>2026-05-01T14:58:07Z</time></trkpt><trkpt lat="40.86515665334218" lon="9.310649246567401"><ele>405.66666666666663</ele><time>2026-05-01T14:58:08Z</time></trkpt><trkpt lat="40.8653503146842" lon="9.310761138382134"><ele>403.3333333333333</ele><time>2026-05-01T14:58:09Z</time></trkpt><trkpt lat="40.86555096236647" lon="9.310884617833066"><ele>401.0</ele><time>2026-05-01T14:58:10Z</time></trkpt><trkpt lat="40.86575309470733" lon="9.310990823993755"><ele>401.0</ele><time>2026-05-01T14:58:11Z</time></trkpt><trkpt lat="40.86592658136515" lon="9.311084674792355"><ele>401.0</ele><time>2026-05-01T14:58:12Z</time></trkpt><trkpt lat="40.866080429649934" lon="9.311178536652674"><ele>401.0</ele><time>2026-05-01T14:58:13Z</time></trkpt><trkpt lat="40.866231507261006" lon="9.311266414086427"><ele>401.25</ele><time>2026-05-01T14:58:14Z</time></trkpt><trkpt lat="40.86636006051024" lon="9.311342866963704"><ele>401.5</ele><time>2026-05-01T14:58:15Z</time></trkpt><trkpt lat="40.86648927702496" lon="9.311416514969036"><ele>401.75</ele><time>2026-05-01T14:58:16Z</time></trkpt><trkpt lat="40.86661017507998" lon="9.311478237068426"><ele>402.0</ele><time>2026-05-01T14:58:17Z</time></trkpt><trkpt lat="40.866734019587625" lon="9.311535358279142"><ele>401.0</ele><time>2026-05-01T14:58:18Z</time></trkpt><trkpt lat="40.86686776989019" lon="9.31159452848084"><ele>400.0</ele><time>2026-05-01T14:58:19Z</time></trkpt><trkpt lat="40.867006441091554" lon="9.311653113773351"><ele>399.0</ele><time>2026-05-01T14:58:20Z</time></trkpt><trkpt lat="40.867134449599995" lon="9.311719584854803"><ele>398.0</ele><time>2026-05-01T14:58:21Z</time></trkpt><trkpt lat="40.867271065152956" lon="9.311771498236187"><ele>398.0</ele><time>2026-05-01T14:58:22Z</time></trkpt><trkpt lat="40.86742621045704" lon="9.311808848863818"><ele>398.0</ele><time>2026-05-01T14:58:23Z</time></trkpt><trkpt lat="40.86757868059143" lon="9.311840487717676"><ele>398.0</ele><time>2026-05-01T14:58:24Z</time></trkpt><trkpt lat="40.86771320173458" lon="9.31186936482699"><ele>398.0</ele><time>2026-05-01T14:58:25Z</time></trkpt><trkpt lat="40.8678442342606" lon="9.311896316616398"><ele>396.0</ele><time>2026-05-01T14:58:26Z</time></trkpt><trkpt lat="40.86798209691869" lon="9.31193235922296"><ele>394.0</ele><time>2026-05-01T14:58:27Z</time></trkpt><trkpt lat="40.868119004143516" lon="9.31195855327724"><ele>392.0</ele><time>2026-05-01T14:58:28Z</time></trkpt><trkpt lat="40.86825616129013" lon="9.311988998284582"><ele>390.0</ele><time>2026-05-01T14:58:29Z</time></trkpt><trkpt lat="40.868398927913354" lon="9.312004137343267"><ele>388.5</ele><time>2026-05-01T14:58:30Z</time></trkpt><trkpt lat="40.86853757816459" lon="9.31202816764821"><ele>387.0</ele><time>2026-05-01T14:58:31Z</time></trkpt><trkpt lat="40.86867640477153" lon="9.31205447039212"><ele>385.5</ele><time>2026-05-01T14:58:32Z</time></trkpt><trkpt lat="40.86879538463971" lon="9.312096578711513"><ele>384.0</ele><time>2026-05-01T14:58:33Z</time></trkpt><trkpt lat="40.86892663745087" lon="9.312107470319544"><ele>384.0</ele><time>2026-05-01T14:58:34Z</time></trkpt><trkpt lat="40.86905982842302" lon="9.312158879638254"><ele>384.0</ele><time>2026-05-01T14:58:35Z</time></trkpt><trkpt lat="40.869204687182496" lon="9.312190912814128"><ele>384.0</ele><time>2026-05-01T14:58:36Z</time></trkpt><trkpt lat="40.869377022400656" lon="9.31222074689855"><ele>382.3333333333333</ele><time>2026-05-01T14:58:37Z</time></trkpt><trkpt lat="40.869544178797376" lon="9.31222472161069"><ele>380.66666666666663</ele><time>2026-05-01T14:58:38Z</time></trkpt><trkpt lat="40.86971203904058" lon="9.312229142294346"><ele>379.0</ele><time>2026-05-01T14:58:39Z</time></trkpt><trkpt lat="40.86986714338255" lon="9.312240578995484"><ele>380.0</ele><time>2026-05-01T14:58:40Z</time></trkpt><trkpt lat="40.87001381606068" lon="9.312249224959668"><ele>381.0</ele><time>2026-05-01T14:58:41Z</time></trkpt><trkpt lat="40.87016228863291" lon="9.312264762152493"><ele>382.0</ele><time>2026-05-01T14:58:42Z</time></trkpt><trkpt lat="40.870318160500965" lon="9.312272866087948"><ele>382.0</ele><time>2026-05-01T14:58:43Z</time></trkpt><trkpt lat="40.87046560455194" lon="9.312279132166125"><ele>382.0</ele><time>2026-05-01T14:58:44Z</time></trkpt><trkpt lat="40.87061788277579" lon="9.312289947986661"><ele>382.0</ele><time>2026-05-01T14:58:45Z</time></trkpt><trkpt lat="40.870759124065174" lon="9.312293171171438"><ele>382.0</ele><time>2026-05-01T14:58:46Z</time></trkpt><trkpt lat="40.87088726181473" lon="9.312303744071318"><ele>384.66666666666663</ele><time>2026-05-01T14:58:47Z</time></trkpt><trkpt lat="40.871039558293994" lon="9.312316091742614"><ele>387.3333333333333</ele><time>2026-05-01T14:58:48Z</time></trkpt><trkpt lat="40.87119621129507" lon="9.312327750971479"><ele>390.0</ele><time>2026-05-01T14:58:49Z</time></trkpt><trkpt lat="40.87135461856616" lon="9.312340356832097"><ele>390.0</ele><time>2026-05-01T14:58:50Z</time></trkpt><trkpt lat="40.87148960871747" lon="9.312350798914434"><ele>390.0</ele><time>2026-05-01T14:58:51Z</time></trkpt><trkpt lat="40.871609606603805" lon="9.31235846888199"><ele>390.0</ele><time>2026-05-01T14:58:52Z</time></trkpt><trkpt lat="40.8717412675223" lon="9.312358643559946"><ele>390.0</ele><time>2026-05-01T14:58:53Z</time></trkpt><trkpt lat="40.87188030529283" lon="9.312350837775956"><ele>390.0</ele><time>2026-05-01T14:58:54Z</time></trkpt><trkpt lat="40.87201556151134" lon="9.31234585386148"><ele>390.0</ele><time>2026-05-01T14:58:55Z</time></trkpt><trkpt lat="40.87214931378029" lon="9.312344904934925"><ele>390.0</ele><time>2026-05-01T14:58:56Z</time></trkpt><trkpt lat="40.87229519975353" lon="9.312329820618572"><ele>390.0</ele><time>2026-05-01T14:58:57Z</time></trkpt><trkpt lat="40.87247449449806" lon="9.312278970455612"><ele>390.0</ele><time>2026-05-01T14:58:58Z</time></trkpt><trkpt lat="40.872665676950334" lon="9.312210125469534"><ele>390.0</ele><time>2026-05-01T14:58:59Z</time></trkpt><trkpt lat="40.87282677737152" lon="9.312172245871526"><ele>390.0</ele><time>2026-05-01T14:59:00Z</time></trkpt><trkpt lat="40.87298064127766" lon="9.312137205401227"><ele>390.0</ele><time>2026-05-01T14:59:01Z</time></trkpt><trkpt lat="40.87316622791188" lon="9.312088855594745"><ele>390.0</ele><time>2026-05-01T14:59:02Z</time></trkpt><trkpt lat="40.873349702198524" lon="9.312045551309675"><ele>390.0</ele><time>2026-05-01T14:59:03Z</time></trkpt><trkpt lat="40.873547152570026" lon="9.312005929248267"><ele>390.33333333333337</ele><time>2026-05-01T14:59:04Z</time></trkpt><trkpt lat="40.87373101674796" lon="9.311980709813993"><ele>390.6666666666667</ele><time>2026-05-01T14:59:05Z</time></trkpt><trkpt lat="40.87388683474376" lon="9.311960931294934"><ele>391.0</ele><time>2026-05-01T14:59:06Z</time></trkpt><trkpt lat="40.87402427946086" lon="9.311944205698758"><ele>391.0</ele><time>2026-05-01T14:59:07Z</time></trkpt><trkpt lat="40.87415274398972" lon="9.311920782798072"><ele>391.0</ele><time>2026-05-01T14:59:08Z</time></trkpt><trkpt lat="40.874274284676886" lon="9.31190238369643"><ele>391.0</ele><time>2026-05-01T14:59:09Z</time></trkpt><trkpt lat="40.87440658750276" lon="9.311882966863422"><ele>391.0</ele><time>2026-05-01T14:59:10Z</time></trkpt><trkpt lat="40.87454000068324" lon="9.311870613001734"><ele>390.8</ele><time>2026-05-01T14:59:11Z</time></trkpt><trkpt lat="40.87465838617563" lon="9.311871608288698"><ele>390.6</ele><time>2026-05-01T14:59:12Z</time></trkpt><trkpt lat="40.8747374833708" lon="9.311862235726526"><ele>390.4</ele><time>2026-05-01T14:59:12.999Z</time></trkpt><trkpt lat="40.874793490084016" lon="9.311820478969741"><ele>390.2</ele><time>2026-05-01T14:59:13.999Z</time></trkpt><trkpt lat="40.8748536111328" lon="9.311747849398852"><ele>390.0</ele><time>2026-05-01T14:59:14.999Z</time></trkpt><trkpt lat="40.874954935720716" lon="9.311650254543588"><ele>390.0</ele><time>2026-05-01T14:59:15.999Z</time></trkpt><trkpt lat="40.87506946839455" lon="9.311616483689127"><ele>390.0</ele><time>2026-05-01T14:59:16.999Z</time></trkpt><trkpt lat="40.87513767896711" lon="9.311578869512651"><ele>390.0</ele><time>2026-05-01T14:59:17.999Z</time></trkpt><trkpt lat="40.87518829114503" lon="9.311523737377057"><ele>390.0</ele><time>2026-05-01T14:59:19.999Z</time></trkpt><trkpt lat="40.87523671501429" lon="9.311454572215514"><ele>390.0</ele><time>2026-05-01T14:59:21.999Z</time></trkpt><trkpt lat="40.8753076441709" lon="9.31136543334482"><ele>390.0</ele><time>2026-05-01T14:59:23.999Z</time></trkpt><trkpt lat="40.87541324270053" lon="9.31126668130265"><ele>388.8</ele><time>2026-05-01T14:59:25.999Z</time></trkpt><trkpt lat="40.8754647230505" lon="9.311215104169277"><ele>387.6</ele><time>2026-05-01T14:59:26.999Z</time></trkpt><trkpt lat="40.87555893409808" lon="9.311123170511873"><ele>386.4</ele><time>2026-05-01T14:59:28.999Z</time></trkpt><trkpt lat="40.87564085665047" lon="9.31104889570744"><ele>385.2</ele><time>2026-05-01T14:59:30.999Z</time></trkpt><trkpt lat="40.875757812570434" lon="9.310940921740764"><ele>384.0</ele><time>2026-05-01T14:59:32.999Z</time></trkpt><trkpt lat="40.87583918816782" lon="9.310864831184643"><ele>384.0</ele><time>2026-05-01T14:59:33.999Z</time></trkpt><trkpt lat="40.87592619798891" lon="9.310784524466776"><ele>384.0</ele><time>2026-05-01T14:59:34.999Z</time></trkpt><trkpt lat="40.87603308435319" lon="9.310683648897575"><ele>384.0</ele><time>2026-05-01T14:59:35.999Z</time></trkpt><trkpt lat="40.876148398486976" lon="9.31057851029982"><ele>384.0</ele><time>2026-05-01T14:59:36.999Z</time></trkpt><trkpt lat="40.876279114398734" lon="9.310501728965608"><ele>385.2</ele><time>2026-05-01T14:59:37.999Z</time></trkpt><trkpt lat="40.87638979266776" lon="9.310396288932663"><ele>386.4</ele><time>2026-05-01T14:59:38.999Z</time></trkpt><trkpt lat="40.87649213023249" lon="9.310319638831084"><ele>387.6</ele><time>2026-05-01T14:59:39.999Z</time></trkpt><trkpt lat="40.876569672700185" lon="9.310246127032164"><ele>388.8</ele><time>2026-05-01T14:59:40.999Z</time></trkpt><trkpt lat="40.87663712348642" lon="9.310175252279436"><ele>390.0</ele><time>2026-05-01T14:59:41.999Z</time></trkpt><trkpt lat="40.876708511885916" lon="9.310102062605456"><ele>389.5</ele><time>2026-05-01T14:59:42.999Z</time></trkpt><trkpt lat="40.87679136921257" lon="9.310012770881558"><ele>389.0</ele><time>2026-05-01T14:59:43.999Z</time></trkpt><trkpt lat="40.87688089586582" lon="9.309915057552493"><ele>388.5</ele><time>2026-05-01T14:59:44.999Z</time></trkpt><trkpt lat="40.87697297220659" lon="9.309816867487399"><ele>388.0</ele><time>2026-05-01T14:59:45.999Z</time></trkpt><trkpt lat="40.87706987647739" lon="9.309718404058625"><ele>389.5</ele><time>2026-05-01T14:59:46.999Z</time></trkpt><trkpt lat="40.877170344018595" lon="9.309619880334862"><ele>391.0</ele><time>2026-05-01T14:59:47.999Z</time></trkpt><trkpt lat="40.877270256547305" lon="9.309525719957223"><ele>392.5</ele><time>2026-05-01T14:59:48.999Z</time></trkpt><trkpt lat="40.87737701429548" lon="9.309452968438539"><ele>394.0</ele><time>2026-05-01T14:59:49.999Z</time></trkpt><trkpt lat="40.87748687110474" lon="9.309389183565068"><ele>393.5</ele><time>2026-05-01T14:59:50.999Z</time></trkpt><trkpt lat="40.87761052193137" lon="9.309379418743209"><ele>393.0</ele><time>2026-05-01T14:59:51.999Z</time></trkpt><trkpt lat="40.87774647038408" lon="9.30938217833937"><ele>392.5</ele><time>2026-05-01T14:59:52.999Z</time></trkpt><trkpt lat="40.87790711532067" lon="9.309390336905011"><ele>392.0</ele><time>2026-05-01T14:59:53.999Z</time></trkpt><trkpt lat="40.8780705912758" lon="9.309379829597875"><ele>392.0</ele><time>2026-05-01T14:59:54.999Z</time></trkpt><trkpt lat="40.87824295307489" lon="9.309399687432453"><ele>392.0</ele><time>2026-05-01T14:59:55.999Z</time></trkpt><trkpt lat="40.87842574635248" lon="9.309412674697809"><ele>392.0</ele><time>2026-05-01T14:59:56.999Z</time></trkpt><trkpt lat="40.87858900800623" lon="9.309426579894339"><ele>391.5</ele><time>2026-05-01T14:59:58Z</time></trkpt><trkpt lat="40.87873504008262" lon="9.30943316629034"><ele>391.0</ele><time>2026-05-01T14:59:59Z</time></trkpt><trkpt lat="40.87887743371279" lon="9.309446898776446"><ele>390.5</ele><time>2026-05-01T15:00:00Z</time></trkpt><trkpt lat="40.879030346275584" lon="9.30946778919805"><ele>390.0</ele><time>2026-05-01T15:00:01Z</time></trkpt><trkpt lat="40.87916554830655" lon="9.309484551106069"><ele>387.2</ele><time>2026-05-01T15:00:02Z</time></trkpt><trkpt lat="40.87928436405605" lon="9.309487219795553"><ele>384.4</ele><time>2026-05-01T15:00:03Z</time></trkpt><trkpt lat="40.87938703928797" lon="9.30948080612833"><ele>381.6</ele><time>2026-05-01T15:00:04Z</time></trkpt><trkpt lat="40.8794793488075" lon="9.30946773817414"><ele>378.8</ele><time>2026-05-01T15:00:05Z</time></trkpt><trkpt lat="40.87956489688561" lon="9.309431685619131"><ele>376.0</ele><time>2026-05-01T15:00:06Z</time></trkpt><trkpt lat="40.87965207220459" lon="9.309367831383971"><ele>376.0</ele><time>2026-05-01T15:00:07Z</time></trkpt><trkpt lat="40.879762453122645" lon="9.309272944646205"><ele>376.0</ele><time>2026-05-01T15:00:08Z</time></trkpt><trkpt lat="40.87985546400395" lon="9.30911037856062"><ele>376.0</ele><time>2026-05-01T15:00:09Z</time></trkpt><trkpt lat="40.87997775046559" lon="9.30895491755116"><ele>377.3333333333333</ele><time>2026-05-01T15:00:10Z</time></trkpt><trkpt lat="40.88009123723786" lon="9.308807427816943"><ele>378.6666666666667</ele><time>2026-05-01T15:00:11Z</time></trkpt><trkpt lat="40.88018865288311" lon="9.308655001369601"><ele>380.0</ele><time>2026-05-01T15:00:12Z</time></trkpt><trkpt lat="40.88027276751022" lon="9.308499874586316"><ele>376.33333333333337</ele><time>2026-05-01T15:00:13Z</time></trkpt><trkpt lat="40.88033914736597" lon="9.30833548837072"><ele>372.6666666666667</ele><time>2026-05-01T15:00:14Z</time></trkpt><trkpt lat="40.88039837760709" lon="9.308147792448011"><ele>369.0</ele><time>2026-05-01T15:00:15Z</time></trkpt><trkpt lat="40.88044701007456" lon="9.307932095898222"><ele>369.0</ele><time>2026-05-01T15:00:16Z</time></trkpt><trkpt lat="40.88048477888447" lon="9.307690037565447"><ele>369.0</ele><time>2026-05-01T15:00:17Z</time></trkpt><trkpt lat="40.88051389966939" lon="9.307446558104813"><ele>369.0</ele><time>2026-05-01T15:00:18Z</time></trkpt><trkpt lat="40.880556285464635" lon="9.307249532648001"><ele>368.2</ele><time>2026-05-01T15:00:19Z</time></trkpt><trkpt lat="40.8805768158945" lon="9.30708972482155"><ele>367.4</ele><time>2026-05-01T15:00:20Z</time></trkpt><trkpt lat="40.88057580504053" lon="9.306973748922303"><ele>366.6</ele><time>2026-05-01T15:00:21Z</time></trkpt><trkpt lat="40.88058071335943" lon="9.30686216022128"><ele>365.8</ele><time>2026-05-01T15:00:22Z</time></trkpt><trkpt lat="40.880563866198614" lon="9.306728704575072"><ele>365.0</ele><time>2026-05-01T15:00:23Z</time></trkpt><trkpt lat="40.880510933969155" lon="9.306560738194076"><ele>365.0</ele><time>2026-05-01T15:00:24Z</time></trkpt><trkpt lat="40.88046564365435" lon="9.306417803465266"><ele>365.0</ele><time>2026-05-01T15:00:25Z</time></trkpt><trkpt lat="40.88046501427919" lon="9.30630276740009"><ele>365.0</ele><time>2026-05-01T15:00:26Z</time></trkpt><trkpt lat="40.880503544012285" lon="9.30621479404197"><ele>365.0</ele><time>2026-05-01T15:00:27Z</time></trkpt><trkpt lat="40.88057865622082" lon="9.30613327492389"><ele>365.0</ele><time>2026-05-01T15:00:28Z</time></trkpt><trkpt lat="40.880667516254086" lon="9.306080375011927"><ele>365.5</ele><time>2026-05-01T15:00:29Z</time></trkpt><trkpt lat="40.88077063227788" lon="9.306086457615693"><ele>366.0</ele><time>2026-05-01T15:00:30Z</time></trkpt><trkpt lat="40.88092630016763" lon="9.306060225982282"><ele>366.5</ele><time>2026-05-01T15:00:31Z</time></trkpt><trkpt lat="40.88107283265193" lon="9.306046244599774"><ele>367.0</ele><time>2026-05-01T15:00:32Z</time></trkpt><trkpt lat="40.88118006284952" lon="9.306000452498912"><ele>365.75</ele><time>2026-05-01T15:00:33Z</time></trkpt><trkpt lat="40.88128088348115" lon="9.305904222576611"><ele>364.5</ele><time>2026-05-01T15:00:34Z</time></trkpt><trkpt lat="40.881366679947725" lon="9.305774428562751"><ele>363.25</ele><time>2026-05-01T15:00:35Z</time></trkpt><trkpt lat="40.88143948209913" lon="9.305594799431988"><ele>362.0</ele><time>2026-05-01T15:00:36Z</time></trkpt><trkpt lat="40.88149550530404" lon="9.305375048687106"><ele>362.0</ele><time>2026-05-01T15:00:37Z</time></trkpt><trkpt lat="40.881531687820406" lon="9.30512508128864"><ele>362.0</ele><time>2026-05-01T15:00:38Z</time></trkpt><trkpt lat="40.88154575709581" lon="9.304858204107731"><ele>362.0</ele><time>2026-05-01T15:00:39Z</time></trkpt><trkpt lat="40.88154438241463" lon="9.304612405177838"><ele>362.40000000000003</ele><time>2026-05-01T15:00:40Z</time></trkpt><trkpt lat="40.88154996598511" lon="9.304427249842316"><ele>362.8</ele><time>2026-05-01T15:00:41Z</time></trkpt><trkpt lat="40.881569181650114" lon="9.304279057273291"><ele>363.2</ele><time>2026-05-01T15:00:42Z</time></trkpt><trkpt lat="40.88160334020654" lon="9.304195665373674"><ele>363.6</ele><time>2026-05-01T15:00:43Z</time></trkpt><trkpt lat="40.88169073209454" lon="9.304148568096311"><ele>364.0</ele><time>2026-05-01T15:00:45Z</time></trkpt><trkpt lat="40.881792273860356" lon="9.304130496075077"><ele>365.4</ele><time>2026-05-01T15:00:46Z</time></trkpt><trkpt lat="40.88187785646461" lon="9.30411736174651"><ele>366.79999999999995</ele><time>2026-05-01T15:00:47Z</time></trkpt><trkpt lat="40.88195798960313" lon="9.304016457441254"><ele>368.20000000000005</ele><time>2026-05-01T15:00:49Z</time></trkpt><trkpt lat="40.88197326843964" lon="9.303910759695155"><ele>369.6</ele><time>2026-05-01T15:00:50Z</time></trkpt><trkpt lat="40.88197921898393" lon="9.303774341306179"><ele>371.0</ele><time>2026-05-01T15:00:51Z</time></trkpt><trkpt lat="40.88197453741607" lon="9.303611265798157"><ele>371.0</ele><time>2026-05-01T15:00:52Z</time></trkpt><trkpt lat="40.881990116123916" lon="9.303423791364349"><ele>371.0</ele><time>2026-05-01T15:00:53Z</time></trkpt><trkpt lat="40.881984474699344" lon="9.303196752329507"><ele>371.0</ele><time>2026-05-01T15:00:54Z</time></trkpt><trkpt lat="40.88199567502034" lon="9.30295123110183"><ele>372.0</ele><time>2026-05-01T15:00:55Z</time></trkpt><trkpt lat="40.8820025979315" lon="9.302696126846435"><ele>373.0</ele><time>2026-05-01T15:00:56Z</time></trkpt><trkpt lat="40.88202734841387" lon="9.302492590874117"><ele>374.0</ele><time>2026-05-01T15:00:57Z</time></trkpt><trkpt lat="40.88202920102912" lon="9.302282542057988"><ele>375.6666666666667</ele><time>2026-05-01T15:00:58Z</time></trkpt><trkpt lat="40.88202755596936" lon="9.302032272793408"><ele>377.3333333333333</ele><time>2026-05-01T15:00:59Z</time></trkpt><trkpt lat="40.88205520806037" lon="9.301760115365617"><ele>379.0</ele><time>2026-05-01T15:01:00Z</time></trkpt><trkpt lat="40.882077026140465" lon="9.301461814804114"><ele>379.3333333333333</ele><time>2026-05-01T15:01:01Z</time></trkpt><trkpt lat="40.88209171416296" lon="9.30117610322009"><ele>379.6666666666667</ele><time>2026-05-01T15:01:02Z</time></trkpt><trkpt lat="40.88209870289113" lon="9.300963961594316"><ele>380.0</ele><time>2026-05-01T15:01:03Z</time></trkpt><trkpt lat="40.88209269016489" lon="9.300815638270361"><ele>380.0</ele><time>2026-05-01T15:01:04Z</time></trkpt><trkpt lat="40.88209115795593" lon="9.30070092836663"><ele>380.0</ele><time>2026-05-01T15:01:05Z</time></trkpt><trkpt lat="40.88214944851617" lon="9.300568198082582"><ele>380.0</ele><time>2026-05-01T15:01:06.999Z</time></trkpt><trkpt lat="40.88222420731661" lon="9.30054888932967"><ele>380.0</ele><time>2026-05-01T15:01:07.999Z</time></trkpt><trkpt lat="40.8823086114084" lon="9.300579659684784"><ele>380.0</ele><time>2026-05-01T15:01:08.999Z</time></trkpt><trkpt lat="40.882374607878866" lon="9.300657060269193"><ele>380.0</ele><time>2026-05-01T15:01:09.999Z</time></trkpt><trkpt lat="40.88239908241248" lon="9.300749234079216"><ele>380.0</ele><time>2026-05-01T15:01:10.999Z</time></trkpt><trkpt lat="40.88235757519498" lon="9.300853486743229"><ele>380.0</ele><time>2026-05-01T15:01:11.999Z</time></trkpt><trkpt lat="40.882318200183356" lon="9.300976266333066"><ele>380.0</ele><time>2026-05-01T15:01:12.999Z</time></trkpt><trkpt lat="40.882286384814016" lon="9.301134240859481"><ele>380.0</ele><time>2026-05-01T15:01:13.999Z</time></trkpt><trkpt lat="40.88227543959241" lon="9.301284236390668"><ele>379.8</ele><time>2026-05-01T15:01:14.999Z</time></trkpt><trkpt lat="40.88230068582422" lon="9.301416639832413"><ele>379.6</ele><time>2026-05-01T15:01:15.999Z</time></trkpt><trkpt lat="40.88236888981934" lon="9.301516338865765"><ele>379.4</ele><time>2026-05-01T15:01:16.999Z</time></trkpt><trkpt lat="40.88245297645451" lon="9.301564826005063"><ele>379.2</ele><time>2026-05-01T15:01:17.999Z</time></trkpt><trkpt lat="40.88252002956275" lon="9.301587194015651"><ele>379.0</ele><time>2026-05-01T15:01:18.999Z</time></trkpt><trkpt lat="40.882597438025215" lon="9.301511682409917"><ele>382.4</ele><time>2026-05-01T15:01:19.999Z</time></trkpt><trkpt lat="40.882648267042676" lon="9.301437667762725"><ele>385.79999999999995</ele><time>2026-05-01T15:01:20.999Z</time></trkpt><trkpt lat="40.882670384610414" lon="9.301346118904725"><ele>389.20000000000005</ele><time>2026-05-01T15:01:21.999Z</time></trkpt><trkpt lat="40.88267211632363" lon="9.301230809325485"><ele>392.6</ele><time>2026-05-01T15:01:22.999Z</time></trkpt><trkpt lat="40.8826557139393" lon="9.301087966201788"><ele>396.0</ele><time>2026-05-01T15:01:23.999Z</time></trkpt><trkpt lat="40.88262856764214" lon="9.300903690823102"><ele>396.0</ele><time>2026-05-01T15:01:24.999Z</time></trkpt><trkpt lat="40.88263295596366" lon="9.300723582997751"><ele>396.0</ele><time>2026-05-01T15:01:25.999Z</time></trkpt><trkpt lat="40.882659180325206" lon="9.300608651246336"><ele>396.0</ele><time>2026-05-01T15:01:26.999Z</time></trkpt><trkpt lat="40.88271513998335" lon="9.300514115784857"><ele>396.0</ele><time>2026-05-01T15:01:27.999Z</time></trkpt><trkpt lat="40.882794998292276" lon="9.300424953685736"><ele>396.0</ele><time>2026-05-01T15:01:28.999Z</time></trkpt><trkpt lat="40.882908619136465" lon="9.30032489472377"><ele>395.75</ele><time>2026-05-01T15:01:29.999Z</time></trkpt><trkpt lat="40.88303040986629" lon="9.300231149995398"><ele>395.5</ele><time>2026-05-01T15:01:30.999Z</time></trkpt><trkpt lat="40.88312550493976" lon="9.30019795931504"><ele>395.25</ele><time>2026-05-01T15:01:31.999Z</time></trkpt><trkpt lat="40.88323669939773" lon="9.300271110682845"><ele>395.0</ele><time>2026-05-01T15:01:33.999Z</time></trkpt><trkpt lat="40.88326074761696" lon="9.300397262900649"><ele>395.0</ele><time>2026-05-01T15:01:34.999Z</time></trkpt><trkpt lat="40.88333876112302" lon="9.300496800445687"><ele>395.0</ele><time>2026-05-01T15:01:35.999Z</time></trkpt><trkpt lat="40.88339448888835" lon="9.300603307317802"><ele>395.0</ele><time>2026-05-01T15:01:36.999Z</time></trkpt><trkpt lat="40.88346205581998" lon="9.300625437601088"><ele>395.0</ele><time>2026-05-01T15:01:37.999Z</time></trkpt><trkpt lat="40.883558743268296" lon="9.300629548682064"><ele>395.0</ele><time>2026-05-01T15:01:38.999Z</time></trkpt><trkpt lat="40.88368153241854" lon="9.300624353148404"><ele>396.5</ele><time>2026-05-01T15:01:39.999Z</time></trkpt><trkpt lat="40.8838221628686" lon="9.300619097937865"><ele>398.0</ele><time>2026-05-01T15:01:40.999Z</time></trkpt><trkpt lat="40.88394578066382" lon="9.30058756152586"><ele>399.5</ele><time>2026-05-01T15:01:41.999Z</time></trkpt><trkpt lat="40.88406101282071" lon="9.300511055046535"><ele>401.0</ele><time>2026-05-01T15:01:42.999Z</time></trkpt><trkpt lat="40.884178527657426" lon="9.300439913876206"><ele>403.0</ele><time>2026-05-01T15:01:43.999Z</time></trkpt><trkpt lat="40.88429608644541" lon="9.300410313873602"><ele>405.0</ele><time>2026-05-01T15:01:44.999Z</time></trkpt><trkpt lat="40.88442358399516" lon="9.300440559626692"><ele>407.0</ele><time>2026-05-01T15:01:45.999Z</time></trkpt><trkpt lat="40.88458322855165" lon="9.300444620447893"><ele>409.0</ele><time>2026-05-01T15:01:46.999Z</time></trkpt><trkpt lat="40.88476889041782" lon="9.300488402940758"><ele>409.0</ele><time>2026-05-01T15:01:47.999Z</time></trkpt><trkpt lat="40.88496722754518" lon="9.300544774812204"><ele>409.0</ele><time>2026-05-01T15:01:48.999Z</time></trkpt><trkpt lat="40.885116865096926" lon="9.300594744464101"><ele>409.0</ele><time>2026-05-01T15:01:49.999Z</time></trkpt><trkpt lat="40.885235794808565" lon="9.300628902614676"><ele>410.25</ele><time>2026-05-01T15:01:50.999Z</time></trkpt><trkpt lat="40.88533782253041" lon="9.300627387145164"><ele>411.5</ele><time>2026-05-01T15:01:51.999Z</time></trkpt><trkpt lat="40.885462045706504" lon="9.300580044074447"><ele>412.75</ele><time>2026-05-01T15:01:52.999Z</time></trkpt><trkpt lat="40.88561761623665" lon="9.30047330439464"><ele>414.0</ele><time>2026-05-01T15:01:53.999Z</time></trkpt><trkpt lat="40.88576622630634" lon="9.300373709816672"><ele>414.0</ele><time>2026-05-01T15:01:54.999Z</time></trkpt><trkpt lat="40.88592654270683" lon="9.300263442513447"><ele>414.0</ele><time>2026-05-01T15:01:55.999Z</time></trkpt><trkpt lat="40.886074422404775" lon="9.300131443291612"><ele>414.0</ele><time>2026-05-01T15:01:56.999Z</time></trkpt><trkpt lat="40.88622049889203" lon="9.299959560505975"><ele>413.66666666666663</ele><time>2026-05-01T15:01:57.999Z</time></trkpt><trkpt lat="40.886387470907955" lon="9.299754329956635"><ele>413.3333333333333</ele><time>2026-05-01T15:01:58.999Z</time></trkpt><trkpt lat="40.886533982761485" lon="9.299578592998104"><ele>413.0</ele><time>2026-05-01T15:01:59.999Z</time></trkpt><trkpt lat="40.886650077747206" lon="9.299405284554778"><ele>413.66666666666663</ele><time>2026-05-01T15:02:00.999Z</time></trkpt><trkpt lat="40.88676551055854" lon="9.299224077563718"><ele>414.33333333333337</ele><time>2026-05-01T15:02:01.999Z</time></trkpt><trkpt lat="40.88688859997962" lon="9.299034133192208"><ele>415.0</ele><time>2026-05-01T15:02:02.999Z</time></trkpt><trkpt lat="40.88699523085939" lon="9.298874334475723"><ele>416.33333333333337</ele><time>2026-05-01T15:02:04Z</time></trkpt><trkpt lat="40.88709079184627" lon="9.298735200323206"><ele>417.66666666666663</ele><time>2026-05-01T15:02:05Z</time></trkpt><trkpt lat="40.88719772248088" lon="9.29858054049702"><ele>419.0</ele><time>2026-05-01T15:02:06Z</time></trkpt><trkpt lat="40.88730828062446" lon="9.298411540599831"><ele>419.0</ele><time>2026-05-01T15:02:07Z</time></trkpt><trkpt lat="40.887435764113775" lon="9.298213994885927"><ele>419.0</ele><time>2026-05-01T15:02:08Z</time></trkpt><trkpt lat="40.88755234092045" lon="9.298030585064838"><ele>419.0</ele><time>2026-05-01T15:02:09Z</time></trkpt><trkpt lat="40.88764664906993" lon="9.297881552701519"><ele>417.6</ele><time>2026-05-01T15:02:10Z</time></trkpt><trkpt lat="40.88772489873611" lon="9.2977521010916"><ele>416.2</ele><time>2026-05-01T15:02:11Z</time></trkpt><trkpt lat="40.887796056226684" lon="9.29764934082504"><ele>414.8</ele><time>2026-05-01T15:02:12Z</time></trkpt><trkpt lat="40.88786314260387" lon="9.297575586157512"><ele>413.40000000000003</ele><time>2026-05-01T15:02:13Z</time></trkpt><trkpt lat="40.887936433550465" lon="9.297535172520439"><ele>412.0</ele><time>2026-05-01T15:02:14Z</time></trkpt><trkpt lat="40.88803073114989" lon="9.297522574943883"><ele>412.0</ele><time>2026-05-01T15:02:15Z</time></trkpt><trkpt lat="40.88813985100158" lon="9.297564297870005"><ele>412.0</ele><time>2026-05-01T15:02:16Z</time></trkpt><trkpt lat="40.88827042344027" lon="9.297638210163717"><ele>412.0</ele><time>2026-05-01T15:02:17Z</time></trkpt><trkpt lat="40.88838338804314" lon="9.297751839954357"><ele>412.0</ele><time>2026-05-01T15:02:18Z</time></trkpt><trkpt lat="40.8884998807063" lon="9.29790597885093"><ele>412.5</ele><time>2026-05-01T15:02:19Z</time></trkpt><trkpt lat="40.88861289202853" lon="9.29807248068986"><ele>413.0</ele><time>2026-05-01T15:02:20Z</time></trkpt><trkpt lat="40.88870179397933" lon="9.298189917433186"><ele>413.5</ele><time>2026-05-01T15:02:21Z</time></trkpt><trkpt lat="40.88879175159895" lon="9.298292052994684"><ele>414.0</ele><time>2026-05-01T15:02:22Z</time></trkpt><trkpt lat="40.88891325174808" lon="9.298402136305384"><ele>411.0</ele><time>2026-05-01T15:02:23Z</time></trkpt><trkpt lat="40.88906760027832" lon="9.298517172892344"><ele>408.0</ele><time>2026-05-01T15:02:24Z</time></trkpt><trkpt lat="40.889231626438914" lon="9.298641253081605"><ele>405.0</ele><time>2026-05-01T15:02:25Z</time></trkpt><trkpt lat="40.889373067960044" lon="9.29875128192089"><ele>403.33333333333337</ele><time>2026-05-01T15:02:26Z</time></trkpt><trkpt lat="40.889509337453575" lon="9.298850805604362"><ele>401.6666666666667</ele><time>2026-05-01T15:02:27Z</time></trkpt><trkpt lat="40.889653569916" lon="9.298955792865401"><ele>400.0</ele><time>2026-05-01T15:02:28Z</time></trkpt><trkpt lat="40.88979638896985" lon="9.299075920657073"><ele>398.0</ele><time>2026-05-01T15:02:29Z</time></trkpt><trkpt lat="40.8899455381789" lon="9.299214239996736"><ele>396.0</ele><time>2026-05-01T15:02:30Z</time></trkpt><trkpt lat="40.890109057861885" lon="9.299381785050727"><ele>394.0</ele><time>2026-05-01T15:02:31Z</time></trkpt><trkpt lat="40.890262975628566" lon="9.299530369368542"><ele>392.6666666666667</ele><time>2026-05-01T15:02:32Z</time></trkpt><trkpt lat="40.890391532981525" lon="9.299662063855752"><ele>391.33333333333337</ele><time>2026-05-01T15:02:33Z</time></trkpt><trkpt lat="40.89050873595905" lon="9.299776993185086"><ele>390.0</ele><time>2026-05-01T15:02:34Z</time></trkpt><trkpt lat="40.89062266588711" lon="9.299891195601408"><ele>388.25</ele><time>2026-05-01T15:02:35Z</time></trkpt><trkpt lat="40.89074563103898" lon="9.300009247496051"><ele>386.5</ele><time>2026-05-01T15:02:36Z</time></trkpt><trkpt lat="40.890856767349554" lon="9.300118180755932"><ele>384.75</ele><time>2026-05-01T15:02:37Z</time></trkpt><trkpt lat="40.89095521802403" lon="9.30022415025519"><ele>383.0</ele><time>2026-05-01T15:02:38Z</time></trkpt><trkpt lat="40.89104141229115" lon="9.300333827115146"><ele>381.5</ele><time>2026-05-01T15:02:39Z</time></trkpt><trkpt lat="40.89111398752011" lon="9.300460853005532"><ele>380.0</ele><time>2026-05-01T15:02:40Z</time></trkpt><trkpt lat="40.891151514511705" lon="9.300617981011774"><ele>378.5</ele><time>2026-05-01T15:02:41Z</time></trkpt><trkpt lat="40.891216675806234" lon="9.300803127251232"><ele>377.0</ele><time>2026-05-01T15:02:42Z</time></trkpt><trkpt lat="40.89126698168574" lon="9.301021469325413"><ele>376.5</ele><time>2026-05-01T15:02:43Z</time></trkpt><trkpt lat="40.89130700864751" lon="9.30121173339255"><ele>376.0</ele><time>2026-05-01T15:02:44Z</time></trkpt><trkpt lat="40.89135292191191" lon="9.301380244534597"><ele>375.5</ele><time>2026-05-01T15:02:45Z</time></trkpt><trkpt lat="40.891394711793794" lon="9.30153394539908"><ele>375.0</ele><time>2026-05-01T15:02:46Z</time></trkpt><trkpt lat="40.891442915325705" lon="9.301664617836149"><ele>373.6666666666667</ele><time>2026-05-01T15:02:47Z</time></trkpt><trkpt lat="40.89147761230094" lon="9.301758591719738"><ele>372.3333333333333</ele><time>2026-05-01T15:02:48Z</time></trkpt><trkpt lat="40.89153106709427" lon="9.301809549790748"><ele>371.0</ele><time>2026-05-01T15:02:49Z</time></trkpt><trkpt lat="40.891610994147776" lon="9.30182478546321"><ele>369.66666666666663</ele><time>2026-05-01T15:02:50Z</time></trkpt><trkpt lat="40.891700076263156" lon="9.30178029591957"><ele>368.3333333333333</ele><time>2026-05-01T15:02:51Z</time></trkpt><trkpt lat="40.89176695611778" lon="9.301668052245233"><ele>367.0</ele><time>2026-05-01T15:02:52Z</time></trkpt><trkpt lat="40.891842438969626" lon="9.301522284236297"><ele>366.66666666666663</ele><time>2026-05-01T15:02:53Z</time></trkpt><trkpt lat="40.89194555760122" lon="9.301350585521083"><ele>366.3333333333333</ele><time>2026-05-01T15:02:54Z</time></trkpt><trkpt lat="40.89205180490441" lon="9.301152250988785"><ele>366.0</ele><time>2026-05-01T15:02:55Z</time></trkpt><trkpt lat="40.89216699101733" lon="9.300932399387461"><ele>366.0</ele><time>2026-05-01T15:02:55.999Z</time></trkpt><trkpt lat="40.89225421587547" lon="9.300772351269547"><ele>366.0</ele><time>2026-05-01T15:02:56.999Z</time></trkpt><trkpt lat="40.89231806011406" lon="9.300673514560634"><ele>366.0</ele><time>2026-05-01T15:02:57.999Z</time></trkpt><trkpt lat="40.89237252191912" lon="9.300619157719009"><ele>366.0</ele><time>2026-05-01T15:02:58.999Z</time></trkpt><trkpt lat="40.8924806277904" lon="9.300574137975111"><ele>366.0</ele><time>2026-05-01T15:03:00.999Z</time></trkpt><trkpt lat="40.89254867255738" lon="9.300590733290651"><ele>366.20000000000005</ele><time>2026-05-01T15:03:01.999Z</time></trkpt><trkpt lat="40.892658386665886" lon="9.300620529786256"><ele>366.40000000000003</ele><time>2026-05-01T15:03:03.999Z</time></trkpt><trkpt lat="40.892758118342286" lon="9.300646990894085"><ele>366.6</ele><time>2026-05-01T15:03:05.999Z</time></trkpt><trkpt lat="40.892846189570925" lon="9.300674272615016"><ele>366.8</ele><time>2026-05-01T15:03:07.999Z</time></trkpt><trkpt lat="40.89292775288981" lon="9.300686400677295"><ele>367.0</ele><time>2026-05-01T15:03:09.999Z</time></trkpt><trkpt lat="40.89299997753187" lon="9.300714999952795"><ele>367.0</ele><time>2026-05-01T15:03:11.999Z</time></trkpt><trkpt lat="40.89307358998604" lon="9.300765971240168"><ele>367.0</ele><time>2026-05-01T15:03:14.999Z</time></trkpt><trkpt lat="40.893148816486416" lon="9.300800731784781"><ele>367.0</ele><time>2026-05-01T15:03:18.999Z</time></trkpt><trkpt lat="40.89317776718563" lon="9.300926796116764"><ele>367.0</ele><time>2026-05-01T15:10:56.998Z</time></trkpt><trkpt lat="40.89318237532633" lon="9.30103351085101"><ele>367.0</ele><time>2026-05-01T15:10:57.998Z</time></trkpt><trkpt lat="40.89316670267667" lon="9.301156306822824"><ele>367.0</ele><time>2026-05-01T15:10:58.998Z</time></trkpt><trkpt lat="40.89314268176107" lon="9.30128148774202"><ele>368.0</ele><time>2026-05-01T15:10:59.998Z</time></trkpt><trkpt lat="40.89311757257644" lon="9.301424542623813"><ele>369.0</ele><time>2026-05-01T15:11:00.998Z</time></trkpt><trkpt lat="40.89309439768726" lon="9.301583686979999"><ele>370.0</ele><time>2026-05-01T15:11:01.998Z</time></trkpt><trkpt lat="40.89307545368507" lon="9.301761009441682"><ele>371.0</ele><time>2026-05-01T15:11:02.998Z</time></trkpt><trkpt lat="40.89306069097506" lon="9.301939199072928"><ele>371.0</ele><time>2026-05-01T15:11:03.999Z</time></trkpt><trkpt lat="40.893043007101085" lon="9.302116698878196"><ele>371.0</ele><time>2026-05-01T15:11:04.999Z</time></trkpt><trkpt lat="40.89302021918147" lon="9.302300524524883"><ele>371.0</ele><time>2026-05-01T15:11:05.999Z</time></trkpt><trkpt lat="40.89300011191262" lon="9.302482164048067"><ele>371.0</ele><time>2026-05-01T15:11:06.999Z</time></trkpt><trkpt lat="40.892982037037456" lon="9.302665591940556"><ele>371.25</ele><time>2026-05-01T15:11:07.999Z</time></trkpt><trkpt lat="40.89296096490467" lon="9.302849414658727"><ele>371.5</ele><time>2026-05-01T15:11:08.999Z</time></trkpt><trkpt lat="40.89293504408452" lon="9.303031874746802"><ele>371.75</ele><time>2026-05-01T15:11:09.999Z</time></trkpt><trkpt lat="40.89290286294426" lon="9.303205093946199"><ele>372.0</ele><time>2026-05-01T15:11:10.999Z</time></trkpt><trkpt lat="40.89286734029962" lon="9.30336177693601"><ele>372.75</ele><time>2026-05-01T15:11:11.999Z</time></trkpt><trkpt lat="40.89281603514114" lon="9.303519840902236"><ele>373.5</ele><time>2026-05-01T15:11:12.999Z</time></trkpt><trkpt lat="40.89273998014424" lon="9.303672413872633"><ele>374.25</ele><time>2026-05-01T15:11:13.999Z</time></trkpt><trkpt lat="40.89263537737565" lon="9.303804970780725"><ele>375.0</ele><time>2026-05-01T15:11:14.999Z</time></trkpt><trkpt lat="40.89249843384218" lon="9.30388317951305"><ele>374.5</ele><time>2026-05-01T15:11:15.999Z</time></trkpt><trkpt lat="40.89236441039157" lon="9.303959004650972"><ele>374.0</ele><time>2026-05-01T15:11:16.999Z</time></trkpt><trkpt lat="40.892238099171756" lon="9.304032045984524"><ele>373.5</ele><time>2026-05-01T15:11:17.999Z</time></trkpt><trkpt lat="40.89208768903945" lon="9.304115565909981"><ele>373.0</ele><time>2026-05-01T15:11:18.999Z</time></trkpt><trkpt lat="40.8919424051708" lon="9.304192384707367"><ele>373.0</ele><time>2026-05-01T15:11:19.999Z</time></trkpt><trkpt lat="40.891802871057976" lon="9.304290619333305"><ele>373.0</ele><time>2026-05-01T15:11:20.999Z</time></trkpt><trkpt lat="40.891689273021186" lon="9.304432070291167"><ele>373.0</ele><time>2026-05-01T15:11:21.999Z</time></trkpt><trkpt lat="40.891611839837694" lon="9.304615357503797"><ele>374.3333333333333</ele><time>2026-05-01T15:11:22.999Z</time></trkpt><trkpt lat="40.89156739720232" lon="9.304816474974102"><ele>375.6666666666667</ele><time>2026-05-01T15:11:23.999Z</time></trkpt><trkpt lat="40.891569414635285" lon="9.305029572103013"><ele>377.0</ele><time>2026-05-01T15:11:24.999Z</time></trkpt><trkpt lat="40.89160028644385" lon="9.305251109557183"><ele>377.0</ele><time>2026-05-01T15:11:25.999Z</time></trkpt><trkpt lat="40.891644321014255" lon="9.305474143594715"><ele>377.0</ele><time>2026-05-01T15:11:26.999Z</time></trkpt><trkpt lat="40.891713867185324" lon="9.305681516220437"><ele>377.0</ele><time>2026-05-01T15:11:27.999Z</time></trkpt><trkpt lat="40.891812056362966" lon="9.305877573472948"><ele>379.6666666666667</ele><time>2026-05-01T15:11:28.999Z</time></trkpt><trkpt lat="40.89192126564357" lon="9.30606644510046"><ele>382.33333333333337</ele><time>2026-05-01T15:11:29.999Z</time></trkpt><trkpt lat="40.892038567720284" lon="9.30625391235829"><ele>385.0</ele><time>2026-05-01T15:11:30.999Z</time></trkpt><trkpt lat="40.89215248805817" lon="9.306444541256074"><ele>385.6666666666667</ele><time>2026-05-01T15:11:31.999Z</time></trkpt><trkpt lat="40.89226645099425" lon="9.306626698173202"><ele>386.33333333333337</ele><time>2026-05-01T15:11:32.999Z</time></trkpt><trkpt lat="40.89238936015867" lon="9.306801499985506"><ele>387.0</ele><time>2026-05-01T15:11:33.999Z</time></trkpt><trkpt lat="40.89252561964018" lon="9.306956533599893"><ele>387.33333333333337</ele><time>2026-05-01T15:11:34.999Z</time></trkpt><trkpt lat="40.892678365684574" lon="9.30708947974264"><ele>387.6666666666667</ele><time>2026-05-01T15:11:35.999Z</time></trkpt><trkpt lat="40.89284514196162" lon="9.307210564215968"><ele>388.0</ele><time>2026-05-01T15:11:36.999Z</time></trkpt><trkpt lat="40.89301067908199" lon="9.307329652427796"><ele>388.0</ele><time>2026-05-01T15:11:37.999Z</time></trkpt><trkpt lat="40.893176841045054" lon="9.307458361110772"><ele>388.0</ele><time>2026-05-01T15:11:38.999Z</time></trkpt><trkpt lat="40.89333061666634" lon="9.307580811758411"><ele>388.0</ele><time>2026-05-01T15:11:39.999Z</time></trkpt><trkpt lat="40.89347101124368" lon="9.307697200364863"><ele>388.25</ele><time>2026-05-01T15:11:40.999Z</time></trkpt><trkpt lat="40.89359497545461" lon="9.307810793058367"><ele>388.5</ele><time>2026-05-01T15:11:41.999Z</time></trkpt><trkpt lat="40.89370311797656" lon="9.307938014796772"><ele>388.75</ele><time>2026-05-01T15:11:42.999Z</time></trkpt><trkpt lat="40.89378569532568" lon="9.308080390460484"><ele>389.0</ele><time>2026-05-01T15:11:43.999Z</time></trkpt><trkpt lat="40.89382818802549" lon="9.308261321166595"><ele>389.0</ele><time>2026-05-01T15:11:44.999Z</time></trkpt><trkpt lat="40.89384872899916" lon="9.30846717104886"><ele>389.0</ele><time>2026-05-01T15:11:45.999Z</time></trkpt><trkpt lat="40.89386354197229" lon="9.308685141099131"><ele>389.0</ele><time>2026-05-01T15:11:46.999Z</time></trkpt><trkpt lat="40.89388689216718" lon="9.308905242073456"><ele>389.0</ele><time>2026-05-01T15:11:47.999Z</time></trkpt><trkpt lat="40.8939161552875" lon="9.309136310595141"><ele>389.0</ele><time>2026-05-01T15:11:48.999Z</time></trkpt><trkpt lat="40.89394566519999" lon="9.309371270202993"><ele>389.0</ele><time>2026-05-01T15:11:49.999Z</time></trkpt><trkpt lat="40.89397411940127" lon="9.30961406850037"><ele>389.3333333333333</ele><time>2026-05-01T15:11:50.999Z</time></trkpt><trkpt lat="40.89400066222511" lon="9.30985812133062"><ele>389.66666666666663</ele><time>2026-05-01T15:11:51.999Z</time></trkpt><trkpt lat="40.89403065017513" lon="9.310107616544448"><ele>390.0</ele><time>2026-05-01T15:11:52.999Z</time></trkpt><trkpt lat="40.89406094010328" lon="9.310356243090455"><ele>390.66666666666663</ele><time>2026-05-01T15:11:53.999Z</time></trkpt><trkpt lat="40.89408987780797" lon="9.310605888667917"><ele>391.3333333333333</ele><time>2026-05-01T15:11:54.999Z</time></trkpt><trkpt lat="40.8941090922922" lon="9.310849202300064"><ele>392.0</ele><time>2026-05-01T15:11:55.999Z</time></trkpt><trkpt lat="40.89410766756173" lon="9.311091698685106"><ele>392.0</ele><time>2026-05-01T15:11:56.999Z</time></trkpt><trkpt lat="40.8940732599743" lon="9.31133294084974"><ele>392.0</ele><time>2026-05-01T15:11:57.999Z</time></trkpt><trkpt lat="40.89401839523331" lon="9.311575353962038"><ele>392.0</ele><time>2026-05-01T15:11:58.999Z</time></trkpt><trkpt lat="40.89395561930254" lon="9.311819890723363"><ele>393.0</ele><time>2026-05-01T15:11:59.999Z</time></trkpt><trkpt lat="40.893891607799276" lon="9.312062355389514"><ele>394.0</ele><time>2026-05-01T15:12:00.999Z</time></trkpt><trkpt lat="40.89383178137135" lon="9.312305578837107"><ele>395.0</ele><time>2026-05-01T15:12:01.999Z</time></trkpt><trkpt lat="40.89376933637354" lon="9.312544975327633"><ele>395.0</ele><time>2026-05-01T15:12:02.999Z</time></trkpt><trkpt lat="40.89371231767799" lon="9.312772774982996"><ele>395.0</ele><time>2026-05-01T15:12:03.999Z</time></trkpt><trkpt lat="40.89366475803588" lon="9.312980424574015"><ele>395.0</ele><time>2026-05-01T15:12:04.999Z</time></trkpt><trkpt lat="40.893633217355855" lon="9.313179051447902"><ele>394.66666666666663</ele><time>2026-05-01T15:12:05.999Z</time></trkpt><trkpt lat="40.893628947820176" lon="9.313373485968745"><ele>394.33333333333337</ele><time>2026-05-01T15:12:06.999Z</time></trkpt><trkpt lat="40.89366932662023" lon="9.313572088410751"><ele>394.0</ele><time>2026-05-01T15:12:07.999Z</time></trkpt><trkpt lat="40.89373324938882" lon="9.313774585958546"><ele>393.0</ele><time>2026-05-01T15:12:08.999Z</time></trkpt><trkpt lat="40.89379724985238" lon="9.313977229493743"><ele>392.0</ele><time>2026-05-01T15:12:09.999Z</time></trkpt><trkpt lat="40.89385253650546" lon="9.314192005711373"><ele>391.0</ele><time>2026-05-01T15:12:10.999Z</time></trkpt><trkpt lat="40.89388346670484" lon="9.314423108622401"><ele>391.0</ele><time>2026-05-01T15:12:11.999Z</time></trkpt><trkpt lat="40.89389113220867" lon="9.314670171256582"><ele>391.0</ele><time>2026-05-01T15:12:12.999Z</time></trkpt><trkpt lat="40.89387847138342" lon="9.314922614947804"><ele>391.0</ele><time>2026-05-01T15:12:13.999Z</time></trkpt><trkpt lat="40.893850989453846" lon="9.315172505912521"><ele>389.6666666666667</ele><time>2026-05-01T15:12:14.999Z</time></trkpt><trkpt lat="40.89379912710309" lon="9.315419241181411"><ele>388.33333333333337</ele><time>2026-05-01T15:12:15.999Z</time></trkpt><trkpt lat="40.8937061546739" lon="9.31564489901569"><ele>387.0</ele><time>2026-05-01T15:12:16.999Z</time></trkpt><trkpt lat="40.89360339659167" lon="9.315855049395099"><ele>386.66666666666663</ele><time>2026-05-01T15:12:17.999Z</time></trkpt><trkpt lat="40.89349077987667" lon="9.316055197712785"><ele>386.3333333333333</ele><time>2026-05-01T15:12:18.999Z</time></trkpt><trkpt lat="40.89337824022005" lon="9.316255783197079"><ele>386.0</ele><time>2026-05-01T15:12:19.999Z</time></trkpt><trkpt lat="40.89326837696053" lon="9.316457208667279"><ele>386.0</ele><time>2026-05-01T15:12:20.999Z</time></trkpt><trkpt lat="40.89316036313524" lon="9.316652741079476"><ele>386.0</ele><time>2026-05-01T15:12:21.999Z</time></trkpt><trkpt lat="40.893060536654424" lon="9.316837025594149"><ele>386.0</ele><time>2026-05-01T15:12:22.999Z</time></trkpt><trkpt lat="40.892772483792704" lon="9.318273240570806"><ele>385.4</ele><time>2026-05-01T15:12:29.997Z</time></trkpt><trkpt lat="40.892763888097896" lon="9.318444266683482"><ele>384.8</ele><time>2026-05-01T15:12:30.997Z</time></trkpt><trkpt lat="40.892754357866025" lon="9.318596157877018"><ele>384.2</ele><time>2026-05-01T15:12:31.997Z</time></trkpt><trkpt lat="40.892744376058104" lon="9.31871988880471"><ele>383.59999999999997</ele><time>2026-05-01T15:12:32.997Z</time></trkpt><trkpt lat="40.8927346868487" lon="9.318816959016115"><ele>383.0</ele><time>2026-05-01T15:12:33.997Z</time></trkpt><trkpt lat="40.89277078303535" lon="9.318915529373559"><ele>382.4</ele><time>2026-05-01T15:12:35.997Z</time></trkpt><trkpt lat="40.89285326396922" lon="9.318913316398463"><ele>381.79999999999995</ele><time>2026-05-01T15:12:37.997Z</time></trkpt><trkpt lat="40.89298349440583" lon="9.31890994966167"><ele>381.2</ele><time>2026-05-01T15:12:39.997Z</time></trkpt><trkpt lat="40.89306752717924" lon="9.31893525336276"><ele>380.6</ele><time>2026-05-01T15:12:40.997Z</time></trkpt><trkpt lat="40.89315835003444" lon="9.318984494965195"><ele>380.0</ele><time>2026-05-01T15:12:41.997Z</time></trkpt><trkpt lat="40.893253924883204" lon="9.319047137130331"><ele>380.0</ele><time>2026-05-01T15:12:42.998Z</time></trkpt><trkpt lat="40.89335829452717" lon="9.319106993670854"><ele>380.0</ele><time>2026-05-01T15:12:43.998Z</time></trkpt><trkpt lat="40.89346438887553" lon="9.31916219989574"><ele>380.0</ele><time>2026-05-01T15:12:44.998Z</time></trkpt><trkpt lat="40.89355751652073" lon="9.31921191341959"><ele>380.0</ele><time>2026-05-01T15:12:45.998Z</time></trkpt><trkpt lat="40.89363638966933" lon="9.31926211066438"><ele>380.0</ele><time>2026-05-01T15:12:46.998Z</time></trkpt><trkpt lat="40.89370521806971" lon="9.319321335195564"><ele>379.5</ele><time>2026-05-01T15:12:47.998Z</time></trkpt><trkpt lat="40.89375404191168" lon="9.319387315088264"><ele>379.0</ele><time>2026-05-01T15:12:48.998Z</time></trkpt><trkpt lat="40.89378832231911" lon="9.319465347273374"><ele>378.5</ele><time>2026-05-01T15:12:49.998Z</time></trkpt><trkpt lat="40.893812764444746" lon="9.319566178550545"><ele>378.0</ele><time>2026-05-01T15:12:50.998Z</time></trkpt><trkpt lat="40.89382836185965" lon="9.319675869056034"><ele>377.5</ele><time>2026-05-01T15:12:51.998Z</time></trkpt><trkpt lat="40.893858321915275" lon="9.319791423322737"><ele>377.0</ele><time>2026-05-01T15:12:52.998Z</time></trkpt><trkpt lat="40.89389324569834" lon="9.319885852709303"><ele>376.6</ele><time>2026-05-01T15:12:53.998Z</time></trkpt><trkpt lat="40.89394393710965" lon="9.319954092222444"><ele>376.20000000000005</ele><time>2026-05-01T15:12:54.998Z</time></trkpt><trkpt lat="40.89401545484169" lon="9.320032739016483"><ele>375.8</ele><time>2026-05-01T15:12:55.998Z</time></trkpt><trkpt lat="40.89407808455402" lon="9.32012775755666"><ele>375.4</ele><time>2026-05-01T15:12:56.998Z</time></trkpt><trkpt lat="40.89413549527594" lon="9.320244690256802"><ele>375.0</ele><time>2026-05-01T15:12:57.998Z</time></trkpt><trkpt lat="40.894184650582865" lon="9.32036694903851"><ele>375.0</ele><time>2026-05-01T15:12:58.998Z</time></trkpt><trkpt lat="40.89422915354348" lon="9.32049907942038"><ele>375.0</ele><time>2026-05-01T15:12:59.998Z</time></trkpt><trkpt lat="40.89427284995997" lon="9.32063658504966"><ele>375.0</ele><time>2026-05-01T15:13:00.998Z</time></trkpt><trkpt lat="40.894312985807034" lon="9.320772958048241"><ele>375.0</ele><time>2026-05-01T15:13:01.998Z</time></trkpt><trkpt lat="40.89435766025458" lon="9.320906779124858"><ele>375.0</ele><time>2026-05-01T15:13:02.998Z</time></trkpt><trkpt lat="40.894419174262325" lon="9.32104085649776"><ele>372.25</ele><time>2026-05-01T15:13:03.998Z</time></trkpt><trkpt lat="40.89448432865096" lon="9.321174186597453"><ele>369.5</ele><time>2026-05-01T15:13:04.998Z</time></trkpt><trkpt lat="40.89454469033128" lon="9.321325555128597"><ele>366.75</ele><time>2026-05-01T15:13:05.998Z</time></trkpt><trkpt lat="40.89458911541517" lon="9.321463169229485"><ele>364.0</ele><time>2026-05-01T15:13:06.998Z</time></trkpt><trkpt lat="40.89461818480848" lon="9.321592360366239"><ele>363.4</ele><time>2026-05-01T15:13:07.998Z</time></trkpt><trkpt lat="40.89464858133566" lon="9.321720905018157"><ele>362.79999999999995</ele><time>2026-05-01T15:13:08.998Z</time></trkpt><trkpt lat="40.89467529219134" lon="9.321856378246352"><ele>362.20000000000005</ele><time>2026-05-01T15:13:09.998Z</time></trkpt><trkpt lat="40.8946994589572" lon="9.321997433971895"><ele>361.6</ele><time>2026-05-01T15:13:10.998Z</time></trkpt><trkpt lat="40.894722382981385" lon="9.322147618139276"><ele>361.0</ele><time>2026-05-01T15:13:11.998Z</time></trkpt><trkpt lat="40.894749847563446" lon="9.322300945472671"><ele>359.75</ele><time>2026-05-01T15:13:12.998Z</time></trkpt><trkpt lat="40.89477900085444" lon="9.322457731270154"><ele>358.5</ele><time>2026-05-01T15:13:13.998Z</time></trkpt><trkpt lat="40.89480866088196" lon="9.322614146061975"><ele>357.25</ele><time>2026-05-01T15:13:14.998Z</time></trkpt><trkpt lat="40.89484036447761" lon="9.322774533311797"><ele>356.0</ele><time>2026-05-01T15:13:15.998Z</time></trkpt><trkpt lat="40.89487213129526" lon="9.322931226990459"><ele>355.0</ele><time>2026-05-01T15:13:16.998Z</time></trkpt><trkpt lat="40.89489139103215" lon="9.323096947590749"><ele>354.0</ele><time>2026-05-01T15:13:17.998Z</time></trkpt><trkpt lat="40.89490196653101" lon="9.32326808745465"><ele>353.0</ele><time>2026-05-01T15:13:18.998Z</time></trkpt><trkpt lat="40.89490916890951" lon="9.323448485988425"><ele>352.0</ele><time>2026-05-01T15:13:19.998Z</time></trkpt><trkpt lat="40.89492374476736" lon="9.323610583931327"><ele>352.0</ele><time>2026-05-01T15:13:20.998Z</time></trkpt><trkpt lat="40.89495042237755" lon="9.323749265499728"><ele>352.0</ele><time>2026-05-01T15:13:21.998Z</time></trkpt><trkpt lat="40.89498564131823" lon="9.323875816265055"><ele>352.0</ele><time>2026-05-01T15:13:22.998Z</time></trkpt><trkpt lat="40.895030329489636" lon="9.323993883159476"><ele>352.0</ele><time>2026-05-01T15:13:23.998Z</time></trkpt><trkpt lat="40.89508920535349" lon="9.324111078173068"><ele>352.0</ele><time>2026-05-01T15:13:24.998Z</time></trkpt><trkpt lat="40.89515930364492" lon="9.324195535545865"><ele>351.25</ele><time>2026-05-01T15:13:25.998Z</time></trkpt><trkpt lat="40.89524030063363" lon="9.324255105545538"><ele>350.5</ele><time>2026-05-01T15:13:26.998Z</time></trkpt><trkpt lat="40.895347744164425" lon="9.32430642972019"><ele>349.75</ele><time>2026-05-01T15:13:27.998Z</time></trkpt><trkpt lat="40.89545843596926" lon="9.324375787758061"><ele>349.0</ele><time>2026-05-01T15:13:28.998Z</time></trkpt><trkpt lat="40.89556836921646" lon="9.324457892895804"><ele>349.0</ele><time>2026-05-01T15:13:29.998Z</time></trkpt><trkpt lat="40.895660361392444" lon="9.324536746990145"><ele>349.0</ele><time>2026-05-01T15:13:30.998Z</time></trkpt><trkpt lat="40.89573047527487" lon="9.324615978634808"><ele>349.0</ele><time>2026-05-01T15:13:31.998Z</time></trkpt><trkpt lat="40.89577508958141" lon="9.324701957375884"><ele>349.0</ele><time>2026-05-01T15:13:32.998Z</time></trkpt><trkpt lat="40.89579669847223" lon="9.324783618113432"><ele>349.0</ele><time>2026-05-01T15:13:33.998Z</time></trkpt><trkpt lat="40.89575558536413" lon="9.324925885162214"><ele>348.6</ele><time>2026-05-01T15:13:35.999Z</time></trkpt><trkpt lat="40.89570369026482" lon="9.325037840620451"><ele>348.2</ele><time>2026-05-01T15:13:36.999Z</time></trkpt><trkpt lat="40.89565511668013" lon="9.32518473864312"><ele>347.8</ele><time>2026-05-01T15:13:37.999Z</time></trkpt><trkpt lat="40.895628087159764" lon="9.32532433398156"><ele>347.40000000000003</ele><time>2026-05-01T15:13:38.999Z</time></trkpt><trkpt lat="40.89562539525611" lon="9.325428059191292"><ele>347.0</ele><time>2026-05-01T15:13:39.999Z</time></trkpt><trkpt lat="40.89565071988149" lon="9.325542786245638"><ele>346.5</ele><time>2026-05-01T15:13:41Z</time></trkpt><trkpt lat="40.89567510144578" lon="9.325699614783401"><ele>346.0</ele><time>2026-05-01T15:13:42Z</time></trkpt><trkpt lat="40.895744247023224" lon="9.325864479196019"><ele>345.5</ele><time>2026-05-01T15:13:43Z</time></trkpt><trkpt lat="40.895795000465355" lon="9.325980822907434"><ele>345.0</ele><time>2026-05-01T15:13:44Z</time></trkpt><trkpt lat="40.8958500880816" lon="9.32607275370403"><ele>345.0</ele><time>2026-05-01T15:13:45Z</time></trkpt><trkpt lat="40.89587392082335" lon="9.326168178602906"><ele>345.0</ele><time>2026-05-01T15:13:46Z</time></trkpt><trkpt lat="40.89587471839792" lon="9.326263779117195"><ele>345.0</ele><time>2026-05-01T15:13:47Z</time></trkpt><trkpt lat="40.89587419681195" lon="9.326395790253677"><ele>345.0</ele><time>2026-05-01T15:13:48Z</time></trkpt><trkpt lat="40.895878603008654" lon="9.326581671738174"><ele>345.0</ele><time>2026-05-01T15:13:49Z</time></trkpt><trkpt lat="40.89587934872514" lon="9.32675169510462"><ele>345.25</ele><time>2026-05-01T15:13:50Z</time></trkpt><trkpt lat="40.89589233160823" lon="9.326885636998188"><ele>345.5</ele><time>2026-05-01T15:13:51Z</time></trkpt><trkpt lat="40.89592650390807" lon="9.327012934219411"><ele>345.75</ele><time>2026-05-01T15:13:52Z</time></trkpt><trkpt lat="40.895989617624224" lon="9.327151030177157"><ele>346.0</ele><time>2026-05-01T15:13:53Z</time></trkpt><trkpt lat="40.896030341646934" lon="9.327320263251107"><ele>345.5</ele><time>2026-05-01T15:13:54Z</time></trkpt><trkpt lat="40.89607516130483" lon="9.327469377461604"><ele>345.0</ele><time>2026-05-01T15:13:55Z</time></trkpt><trkpt lat="40.89611579458239" lon="9.32761668908941"><ele>344.5</ele><time>2026-05-01T15:13:56Z</time></trkpt><trkpt lat="40.89615496454336" lon="9.327763456460517"><ele>344.0</ele><time>2026-05-01T15:13:57Z</time></trkpt><trkpt lat="40.89619653978102" lon="9.327911500746811"><ele>344.0</ele><time>2026-05-01T15:13:58Z</time></trkpt><trkpt lat="40.89624649361913" lon="9.328085115167397"><ele>344.0</ele><time>2026-05-01T15:13:59Z</time></trkpt><trkpt lat="40.89629797944462" lon="9.328279546588647"><ele>344.0</ele><time>2026-05-01T15:14:00Z</time></trkpt><trkpt lat="40.89635363588128" lon="9.328472758239512"><ele>344.0</ele><time>2026-05-01T15:14:01Z</time></trkpt><trkpt lat="40.89642238681867" lon="9.328653367902838"><ele>344.0</ele><time>2026-05-01T15:14:02Z</time></trkpt><trkpt lat="40.89648040685848" lon="9.328832279549987"><ele>344.0</ele><time>2026-05-01T15:14:03Z</time></trkpt><trkpt lat="40.89649297767925" lon="9.32901751869162"><ele>344.0</ele><time>2026-05-01T15:14:04Z</time></trkpt><trkpt lat="40.896533513679906" lon="9.329201163353776"><ele>343.0</ele><time>2026-05-01T15:14:05Z</time></trkpt><trkpt lat="40.896553219245526" lon="9.329387715519863"><ele>342.0</ele><time>2026-05-01T15:14:06Z</time></trkpt><trkpt lat="40.896599119684545" lon="9.329586564720131"><ele>341.0</ele><time>2026-05-01T15:14:07Z</time></trkpt><trkpt lat="40.89662941642015" lon="9.32980421013897"><ele>340.33333333333337</ele><time>2026-05-01T15:14:08Z</time></trkpt><trkpt lat="40.89667969394706" lon="9.330028300674014"><ele>339.6666666666667</ele><time>2026-05-01T15:14:09Z</time></trkpt><trkpt lat="40.89674112915906" lon="9.33023797930187"><ele>339.0</ele><time>2026-05-01T15:14:10Z</time></trkpt><trkpt lat="40.89677900101271" lon="9.330432542202942"><ele>340.0</ele><time>2026-05-01T15:14:11Z</time></trkpt><trkpt lat="40.896790463537464" lon="9.330621512750886"><ele>341.0</ele><time>2026-05-01T15:14:12Z</time></trkpt><trkpt lat="40.89681445577242" lon="9.330811656508924"><ele>342.0</ele><time>2026-05-01T15:14:13Z</time></trkpt><trkpt lat="40.89685617564623" lon="9.331017445158995"><ele>342.0</ele><time>2026-05-01T15:14:14Z</time></trkpt><trkpt lat="40.89688402862024" lon="9.331237388703718"><ele>342.0</ele><time>2026-05-01T15:14:15Z</time></trkpt><trkpt lat="40.896908535018326" lon="9.331456206328777"><ele>342.0</ele><time>2026-05-01T15:14:16Z</time></trkpt><trkpt lat="40.89691161061647" lon="9.331683791197852"><ele>340.3333333333333</ele><time>2026-05-01T15:14:17Z</time></trkpt><trkpt lat="40.89692146990515" lon="9.331902581756305"><ele>338.66666666666663</ele><time>2026-05-01T15:14:18Z</time></trkpt><trkpt lat="40.89692851779359" lon="9.332104679796833"><ele>337.0</ele><time>2026-05-01T15:14:19Z</time></trkpt><trkpt lat="40.89694882593138" lon="9.332288014203055"><ele>336.25</ele><time>2026-05-01T15:14:20Z</time></trkpt><trkpt lat="40.89693002511757" lon="9.332458629060747"><ele>335.5</ele><time>2026-05-01T15:14:21Z</time></trkpt><trkpt lat="40.896931863242706" lon="9.332625634670624"><ele>334.75</ele><time>2026-05-01T15:14:22Z</time></trkpt><trkpt lat="40.89694936443901" lon="9.332776059033748"><ele>334.0</ele><time>2026-05-01T15:14:23Z</time></trkpt><trkpt lat="40.89700109232649" lon="9.332915324404981"><ele>333.75</ele><time>2026-05-01T15:14:24Z</time></trkpt><trkpt lat="40.89703065006007" lon="9.333067141408385"><ele>333.5</ele><time>2026-05-01T15:14:25Z</time></trkpt><trkpt lat="40.89707942521126" lon="9.333221866704363"><ele>333.25</ele><time>2026-05-01T15:14:26Z</time></trkpt><trkpt lat="40.89712922165049" lon="9.333361229442607"><ele>333.0</ele><time>2026-05-01T15:14:27Z</time></trkpt><trkpt lat="40.89718314340176" lon="9.333457190929217"><ele>333.0</ele><time>2026-05-01T15:14:28Z</time></trkpt><trkpt lat="40.89724283272983" lon="9.333506797082968"><ele>333.0</ele><time>2026-05-01T15:14:29Z</time></trkpt><trkpt lat="40.89733742501214" lon="9.33349160534702"><ele>333.0</ele><time>2026-05-01T15:14:31Z</time></trkpt><trkpt lat="40.89742170701776" lon="9.333447558448318"><ele>333.0</ele><time>2026-05-01T15:14:32Z</time></trkpt><trkpt lat="40.89754060350268" lon="9.333419379597952"><ele>333.0</ele><time>2026-05-01T15:14:33Z</time></trkpt><trkpt lat="40.897651153184135" lon="9.333384208969926"><ele>332.5</ele><time>2026-05-01T15:14:34Z</time></trkpt><trkpt lat="40.89773669464934" lon="9.333366403211366"><ele>332.0</ele><time>2026-05-01T15:14:35Z</time></trkpt><trkpt lat="40.897811811674764" lon="9.333368188517134"><ele>331.5</ele><time>2026-05-01T15:14:35.999Z</time></trkpt><trkpt lat="40.89787729288097" lon="9.333385642866668"><ele>331.0</ele><time>2026-05-01T15:14:36.999Z</time></trkpt><trkpt lat="40.89790662116372" lon="9.333476557555851"><ele>330.5</ele><time>2026-05-01T15:14:37.999Z</time></trkpt><trkpt lat="40.89795488275321" lon="9.333608698942541"><ele>330.0</ele><time>2026-05-01T15:14:39.999Z</time></trkpt><trkpt lat="40.89805775777665" lon="9.333732471244565"><ele>330.0</ele><time>2026-05-01T15:14:41.999Z</time></trkpt><trkpt lat="40.89814175278817" lon="9.333778462346828"><ele>330.0</ele><time>2026-05-01T15:14:42.999Z</time></trkpt><trkpt lat="40.89824748917262" lon="9.333804018782498"><ele>330.0</ele><time>2026-05-01T15:14:43.999Z</time></trkpt><trkpt lat="40.89835158684103" lon="9.333852968335556"><ele>330.0</ele><time>2026-05-01T15:14:44.999Z</time></trkpt><trkpt lat="40.898468695010706" lon="9.333896667778651"><ele>330.0</ele><time>2026-05-01T15:14:46Z</time></trkpt><trkpt lat="40.89859457937731" lon="9.333975117342604"><ele>329.5</ele><time>2026-05-01T15:14:47Z</time></trkpt><trkpt lat="40.89872448174915" lon="9.334052810177484"><ele>329.0</ele><time>2026-05-01T15:14:48Z</time></trkpt><trkpt lat="40.898850691882544" lon="9.334114811253844"><ele>328.5</ele><time>2026-05-01T15:14:49Z</time></trkpt><trkpt lat="40.898959493877626" lon="9.334163081452957"><ele>328.0</ele><time>2026-05-01T15:14:50Z</time></trkpt><trkpt lat="40.89905182741457" lon="9.334202351372166"><ele>328.0</ele><time>2026-05-01T15:14:51Z</time></trkpt><trkpt lat="40.89911393329846" lon="9.334244183441232"><ele>328.0</ele><time>2026-05-01T15:14:52Z</time></trkpt><trkpt lat="40.89916322684087" lon="9.334296700471546"><ele>328.0</ele><time>2026-05-01T15:14:53Z</time></trkpt><trkpt lat="40.89920494530521" lon="9.334384122099971"><ele>328.0</ele><time>2026-05-01T15:14:54Z</time></trkpt><trkpt lat="40.89926161677281" lon="9.33452814470268"><ele>328.0</ele><time>2026-05-01T15:14:55Z</time></trkpt><trkpt lat="40.89931747117939" lon="9.334680035372326"><ele>328.2</ele><time>2026-05-01T15:14:56Z</time></trkpt><trkpt lat="40.899356672832354" lon="9.33480354329065"><ele>328.4</ele><time>2026-05-01T15:14:57Z</time></trkpt><trkpt lat="40.899363707938626" lon="9.334909365719787"><ele>328.59999999999997</ele><time>2026-05-01T15:14:58Z</time></trkpt><trkpt lat="40.89933104362976" lon="9.335018458670882"><ele>328.79999999999995</ele><time>2026-05-01T15:14:59Z</time></trkpt><trkpt lat="40.89929461999648" lon="9.335133440791644"><ele>329.0</ele><time>2026-05-01T15:15:00Z</time></trkpt><trkpt lat="40.8992428777473" lon="9.33524175482809"><ele>328.0</ele><time>2026-05-01T15:15:01Z</time></trkpt><trkpt lat="40.89918969974836" lon="9.335372632473184"><ele>327.0</ele><time>2026-05-01T15:15:02Z</time></trkpt><trkpt lat="40.89913355389706" lon="9.33553555407572"><ele>326.0</ele><time>2026-05-01T15:15:03Z</time></trkpt><trkpt lat="40.89911386827203" lon="9.335721139550593"><ele>325.0</ele><time>2026-05-01T15:15:04Z</time></trkpt><trkpt lat="40.89908514818768" lon="9.335884290545637"><ele>325.0</ele><time>2026-05-01T15:15:05Z</time></trkpt><trkpt lat="40.89910560138799" lon="9.336039138625754"><ele>325.0</ele><time>2026-05-01T15:15:06Z</time></trkpt><trkpt lat="40.899112891767466" lon="9.336187138882778"><ele>325.0</ele><time>2026-05-01T15:15:07Z</time></trkpt><trkpt lat="40.89917435369367" lon="9.336332828081593"><ele>325.0</ele><time>2026-05-01T15:15:08Z</time></trkpt><trkpt lat="40.89920079804732" lon="9.336515537394"><ele>326.0</ele><time>2026-05-01T15:15:09Z</time></trkpt><trkpt lat="40.89924540360697" lon="9.3367286216861"><ele>327.0</ele><time>2026-05-01T15:15:10Z</time></trkpt><trkpt lat="40.89929643277478" lon="9.336948844720327"><ele>328.0</ele><time>2026-05-01T15:15:11Z</time></trkpt><trkpt lat="40.89934289831441" lon="9.337140218740588"><ele>330.4</ele><time>2026-05-01T15:15:12Z</time></trkpt><trkpt lat="40.89937657149905" lon="9.337301482232695"><ele>332.79999999999995</ele><time>2026-05-01T15:15:13Z</time></trkpt><trkpt lat="40.89938655222127" lon="9.337433259594983"><ele>335.2</ele><time>2026-05-01T15:15:14Z</time></trkpt><trkpt lat="40.89937306926568" lon="9.337566259683236"><ele>337.6</ele><time>2026-05-01T15:15:15Z</time></trkpt><trkpt lat="40.89934839013955" lon="9.33771438854478"><ele>340.0</ele><time>2026-05-01T15:15:16Z</time></trkpt><trkpt lat="40.89932521931729" lon="9.337894960855337"><ele>341.75</ele><time>2026-05-01T15:15:17Z</time></trkpt><trkpt lat="40.899315084767146" lon="9.338088917243555"><ele>343.5</ele><time>2026-05-01T15:15:18Z</time></trkpt><trkpt lat="40.899336435366855" lon="9.338269327561433"><ele>345.25</ele><time>2026-05-01T15:15:19Z</time></trkpt><trkpt lat="40.89933980205593" lon="9.338462240779664"><ele>347.0</ele><time>2026-05-01T15:15:20Z</time></trkpt><trkpt lat="40.89935640173522" lon="9.338676846895043"><ele>347.0</ele><time>2026-05-01T15:15:21Z</time></trkpt><trkpt lat="40.899374149510216" lon="9.338906295984993"><ele>347.0</ele><time>2026-05-01T15:15:22Z</time></trkpt><trkpt lat="40.89939173325771" lon="9.339133624466886"><ele>347.0</ele><time>2026-05-01T15:15:23Z</time></trkpt><trkpt lat="40.899498541180996" lon="9.339344365126689"><ele>347.0</ele><time>2026-05-01T15:15:24Z</time></trkpt><trkpt lat="40.899547585697235" lon="9.339553994463886"><ele>347.0</ele><time>2026-05-01T15:15:25Z</time></trkpt><trkpt lat="40.89959521518502" lon="9.339761186747936"><ele>347.0</ele><time>2026-05-01T15:15:26Z</time></trkpt><trkpt lat="40.899659095277045" lon="9.339958497061337"><ele>347.0</ele><time>2026-05-01T15:15:27Z</time></trkpt><trkpt lat="40.89972360723591" lon="9.340158059045384"><ele>347.0</ele><time>2026-05-01T15:15:28Z</time></trkpt><trkpt lat="40.89978751865691" lon="9.340336808591275"><ele>347.0</ele><time>2026-05-01T15:15:29Z</time></trkpt><trkpt lat="40.8998475996834" lon="9.340486640265766"><ele>347.0</ele><time>2026-05-01T15:15:30Z</time></trkpt><trkpt lat="40.899901457224374" lon="9.340613662670968"><ele>346.6</ele><time>2026-05-01T15:15:31Z</time></trkpt><trkpt lat="40.8999498152426" lon="9.340726265606987"><ele>346.20000000000005</ele><time>2026-05-01T15:15:32Z</time></trkpt><trkpt lat="40.89998351763524" lon="9.340821355060509"><ele>345.8</ele><time>2026-05-01T15:15:33Z</time></trkpt><trkpt lat="40.900013964018704" lon="9.340919103866414"><ele>345.4</ele><time>2026-05-01T15:15:34Z</time></trkpt><trkpt lat="40.90003131068324" lon="9.341043747325749"><ele>345.0</ele><time>2026-05-01T15:15:35Z</time></trkpt><trkpt lat="40.90003235860031" lon="9.341218928807583"><ele>345.5</ele><time>2026-05-01T15:15:36Z</time></trkpt><trkpt lat="40.90003117971599" lon="9.341401085810404"><ele>346.0</ele><time>2026-05-01T15:15:37Z</time></trkpt><trkpt lat="40.90002119310771" lon="9.341583769854052"><ele>346.5</ele><time>2026-05-01T15:15:38Z</time></trkpt><trkpt lat="40.900014639828754" lon="9.341763038680938"><ele>347.0</ele><time>2026-05-01T15:15:39Z</time></trkpt><trkpt lat="40.9000156661053" lon="9.341948253060494"><ele>347.0</ele><time>2026-05-01T15:15:40Z</time></trkpt><trkpt lat="40.90003484310734" lon="9.342143375779726"><ele>347.0</ele><time>2026-05-01T15:15:41Z</time></trkpt><trkpt lat="40.900065918437306" lon="9.34234523201093"><ele>347.0</ele><time>2026-05-01T15:15:42Z</time></trkpt><trkpt lat="40.90011501456786" lon="9.342570555977444"><ele>347.25</ele><time>2026-05-01T15:15:43Z</time></trkpt><trkpt lat="40.900150464740676" lon="9.34277398226054"><ele>347.5</ele><time>2026-05-01T15:15:44Z</time></trkpt><trkpt lat="40.900179960528526" lon="9.34294264163402"><ele>347.75</ele><time>2026-05-01T15:15:45Z</time></trkpt><trkpt lat="40.900206480720314" lon="9.343090265223841"><ele>348.0</ele><time>2026-05-01T15:15:46Z</time></trkpt><trkpt lat="40.90022819853789" lon="9.343208933330946"><ele>348.0</ele><time>2026-05-01T15:15:47Z</time></trkpt><trkpt lat="40.900240397093725" lon="9.343331442090108"><ele>348.0</ele><time>2026-05-01T15:15:48Z</time></trkpt><trkpt lat="40.9002283249524" lon="9.343455554210061"><ele>348.0</ele><time>2026-05-01T15:15:49Z</time></trkpt><trkpt lat="40.900190138577415" lon="9.343590624581218"><ele>348.0</ele><time>2026-05-01T15:15:50Z</time></trkpt><trkpt lat="40.90013110279993" lon="9.343760424369128"><ele>348.0</ele><time>2026-05-01T15:15:51Z</time></trkpt><trkpt lat="40.90006914672311" lon="9.343933984866819"><ele>346.5</ele><time>2026-05-01T15:15:52Z</time></trkpt><trkpt lat="40.90004578558257" lon="9.344072486494603"><ele>345.0</ele><time>2026-05-01T15:15:53Z</time></trkpt><trkpt lat="40.90003236764455" lon="9.344250253105855"><ele>343.5</ele><time>2026-05-01T15:15:54Z</time></trkpt><trkpt lat="40.90002828922645" lon="9.344454220675926"><ele>342.0</ele><time>2026-05-01T15:15:55Z</time></trkpt><trkpt lat="40.90002166452792" lon="9.344670645908893"><ele>341.6666666666667</ele><time>2026-05-01T15:15:56Z</time></trkpt><trkpt lat="40.90001685056532" lon="9.344897447324724"><ele>341.33333333333337</ele><time>2026-05-01T15:15:57Z</time></trkpt><trkpt lat="40.90002419114769" lon="9.34512046059609"><ele>341.0</ele><time>2026-05-01T15:15:58Z</time></trkpt><trkpt lat="40.90004648602679" lon="9.345321188902325"><ele>341.0</ele><time>2026-05-01T15:15:59Z</time></trkpt><trkpt lat="40.90006882527843" lon="9.345451381397956"><ele>341.0</ele><time>2026-05-01T15:16:00Z</time></trkpt><trkpt lat="40.900087915758796" lon="9.345537201350808"><ele>341.0</ele><time>2026-05-01T15:16:01Z</time></trkpt><trkpt lat="40.90011422148844" lon="9.345615853987447"><ele>341.0</ele><time>2026-05-01T15:16:02Z</time></trkpt><trkpt lat="40.90015377546725" lon="9.345699544787495"><ele>341.0</ele><time>2026-05-01T15:16:03Z</time></trkpt><trkpt lat="40.900209583678816" lon="9.3458027051398"><ele>341.0</ele><time>2026-05-01T15:16:04Z</time></trkpt><trkpt lat="40.900264446655484" lon="9.345933046868215"><ele>341.25</ele><time>2026-05-01T15:16:05Z</time></trkpt><trkpt lat="40.90031379491522" lon="9.346086757807052"><ele>341.5</ele><time>2026-05-01T15:16:06Z</time></trkpt><trkpt lat="40.90035700692242" lon="9.346259874046636"><ele>341.75</ele><time>2026-05-01T15:16:07Z</time></trkpt><trkpt lat="40.90039366359422" lon="9.346433134853875"><ele>342.0</ele><time>2026-05-01T15:16:08Z</time></trkpt><trkpt lat="40.90042373988383" lon="9.346599878445378"><ele>340.75</ele><time>2026-05-01T15:16:09Z</time></trkpt><trkpt lat="40.90045659399461" lon="9.34675874607771"><ele>339.5</ele><time>2026-05-01T15:16:10Z</time></trkpt><trkpt lat="40.90051351273646" lon="9.34687974820038"><ele>338.25</ele><time>2026-05-01T15:16:11Z</time></trkpt><trkpt lat="40.90060326630577" lon="9.346983470941382"><ele>337.0</ele><time>2026-05-01T15:16:12Z</time></trkpt><trkpt lat="40.90073892954841" lon="9.347071091839133"><ele>337.0</ele><time>2026-05-01T15:16:13Z</time></trkpt><trkpt lat="40.90088174188376" lon="9.347156593684913"><ele>337.0</ele><time>2026-05-01T15:16:14Z</time></trkpt><trkpt lat="40.90104406001554" lon="9.34725239142789"><ele>337.0</ele><time>2026-05-01T15:16:15Z</time></trkpt><trkpt lat="40.90120734552525" lon="9.347366333933874"><ele>335.66666666666663</ele><time>2026-05-01T15:16:16Z</time></trkpt><trkpt lat="40.90137107173984" lon="9.347480218409999"><ele>334.3333333333333</ele><time>2026-05-01T15:16:17Z</time></trkpt><trkpt lat="40.90152902040922" lon="9.347587041196833"><ele>333.0</ele><time>2026-05-01T15:16:18Z</time></trkpt><trkpt lat="40.90167163401349" lon="9.34768935765082"><ele>332.0</ele><time>2026-05-01T15:16:19Z</time></trkpt><trkpt lat="40.90180831198748" lon="9.347789597727203"><ele>331.0</ele><time>2026-05-01T15:16:20Z</time></trkpt><trkpt lat="40.90194859588317" lon="9.347893939490326"><ele>330.0</ele><time>2026-05-01T15:16:21Z</time></trkpt><trkpt lat="40.902096444338746" lon="9.347979224052056"><ele>330.0</ele><time>2026-05-01T15:16:22.001Z</time></trkpt><trkpt lat="40.9022383215923" lon="9.348042140340327"><ele>330.0</ele><time>2026-05-01T15:16:23.001Z</time></trkpt><trkpt lat="40.902379166831125" lon="9.348072424848363"><ele>330.0</ele><time>2026-05-01T15:16:24.001Z</time></trkpt><trkpt lat="40.902518747914655" lon="9.348082610294448"><ele>330.0</ele><time>2026-05-01T15:16:25.001Z</time></trkpt><trkpt lat="40.90265742728511" lon="9.348072524487812"><ele>330.5</ele><time>2026-05-01T15:16:26.001Z</time></trkpt><trkpt lat="40.90279689435443" lon="9.348035777548805"><ele>331.0</ele><time>2026-05-01T15:16:27.001Z</time></trkpt><trkpt lat="40.90293455938465" lon="9.347992176185576"><ele>331.5</ele><time>2026-05-01T15:16:28.001Z</time></trkpt><trkpt lat="40.90306612496012" lon="9.347955442613664"><ele>332.0</ele><time>2026-05-01T15:16:29.001Z</time></trkpt><trkpt lat="40.903187358929486" lon="9.347920695164287"><ele>332.0</ele><time>2026-05-01T15:16:30.001Z</time></trkpt><trkpt lat="40.90328321026824" lon="9.347867570637332"><ele>332.0</ele><time>2026-05-01T15:16:31.001Z</time></trkpt><trkpt lat="40.90336758867197" lon="9.347787236310301"><ele>332.0</ele><time>2026-05-01T15:16:32.001Z</time></trkpt><trkpt lat="40.903453009450466" lon="9.34768111777095"><ele>332.0</ele><time>2026-05-01T15:16:33.001Z</time></trkpt><trkpt lat="40.90354818224632" lon="9.347569499844198"><ele>331.0</ele><time>2026-05-01T15:16:34.001Z</time></trkpt><trkpt lat="40.90365416178003" lon="9.347475131075996"><ele>330.0</ele><time>2026-05-01T15:16:35.001Z</time></trkpt><trkpt lat="40.90377756384238" lon="9.34740958787627"><ele>329.0</ele><time>2026-05-01T15:16:36.001Z</time></trkpt><trkpt lat="40.90391796369782" lon="9.347385059507582"><ele>328.0</ele><time>2026-05-01T15:16:37.001Z</time></trkpt><trkpt lat="40.904031765863124" lon="9.347389832522875"><ele>328.0</ele><time>2026-05-01T15:16:38.001Z</time></trkpt><trkpt lat="40.90412575328767" lon="9.347390865418964"><ele>328.0</ele><time>2026-05-01T15:16:40.001Z</time></trkpt><trkpt lat="40.904187357127356" lon="9.347325026789939"><ele>328.0</ele><time>2026-05-01T15:16:43.001Z</time></trkpt><trkpt lat="40.90422347651093" lon="9.347219883084632"><ele>328.0</ele><time>2026-05-01T15:17:00.001Z</time></trkpt><trkpt lat="40.904242442761294" lon="9.347106686384043"><ele>328.0</ele><time>2026-05-01T15:17:01.001Z</time></trkpt><trkpt lat="40.90425250422668" lon="9.346985391020555"><ele>328.0</ele><time>2026-05-01T15:17:02.001Z</time></trkpt><trkpt lat="40.90425114306152" lon="9.346853775229045"><ele>327.79999999999995</ele><time>2026-05-01T15:17:03.001Z</time></trkpt><trkpt lat="40.90425173171302" lon="9.346714362926342"><ele>327.6</ele><time>2026-05-01T15:17:04.001Z</time></trkpt><trkpt lat="40.904255497251995" lon="9.34657771899208"><ele>327.4</ele><time>2026-05-01T15:17:05.001Z</time></trkpt><trkpt lat="40.90426173682363" lon="9.346444501352204"><ele>327.20000000000005</ele><time>2026-05-01T15:17:06.001Z</time></trkpt><trkpt lat="40.90426672908672" lon="9.346316842165066"><ele>327.0</ele><time>2026-05-01T15:17:07.001Z</time></trkpt><trkpt lat="40.90426856008145" lon="9.346208225849756"><ele>327.40000000000003</ele><time>2026-05-01T15:17:08.001Z</time></trkpt><trkpt lat="40.9042668515455" lon="9.34611438331404"><ele>327.8</ele><time>2026-05-01T15:17:09.001Z</time></trkpt><trkpt lat="40.90425687407611" lon="9.34598885759293"><ele>328.2</ele><time>2026-05-01T15:17:10.001Z</time></trkpt><trkpt lat="40.90423886135938" lon="9.345837955113034"><ele>328.6</ele><time>2026-05-01T15:17:11.001Z</time></trkpt><trkpt lat="40.90421245727117" lon="9.345694541788191"><ele>329.0</ele><time>2026-05-01T15:17:12.001Z</time></trkpt><trkpt lat="40.904180509415596" lon="9.34554450870505"><ele>330.6</ele><time>2026-05-01T15:17:13.001Z</time></trkpt><trkpt lat="40.90416186080801" lon="9.345405264042588"><ele>332.2</ele><time>2026-05-01T15:17:14.001Z</time></trkpt><trkpt lat="40.90415142085459" lon="9.345267668820869"><ele>333.8</ele><time>2026-05-01T15:17:15.001Z</time></trkpt><trkpt lat="40.90416207573712" lon="9.345115495901572"><ele>335.40000000000003</ele><time>2026-05-01T15:17:16.001Z</time></trkpt><trkpt lat="40.904176907007255" lon="9.344972218092266"><ele>337.0</ele><time>2026-05-01T15:17:17.001Z</time></trkpt><trkpt lat="40.90419398071153" lon="9.344827706382464"><ele>337.0</ele><time>2026-05-01T15:17:18.001Z</time></trkpt><trkpt lat="40.90420857266788" lon="9.344688841942526"><ele>337.0</ele><time>2026-05-01T15:17:19.001Z</time></trkpt><trkpt lat="40.90421465985418" lon="9.344554508584142"><ele>337.0</ele><time>2026-05-01T15:17:20.001Z</time></trkpt><trkpt lat="40.90422532618473" lon="9.344418671748464"><ele>337.0</ele><time>2026-05-01T15:17:21.001Z</time></trkpt><trkpt lat="40.90423618243201" lon="9.344292822485569"><ele>337.0</ele><time>2026-05-01T15:17:22.001Z</time></trkpt><trkpt lat="40.90425115661489" lon="9.344171744954998"><ele>337.0</ele><time>2026-05-01T15:17:23.001Z</time></trkpt><trkpt lat="40.904271690664615" lon="9.344052841844727"><ele>337.0</ele><time>2026-05-01T15:17:24.001Z</time></trkpt><trkpt lat="40.90430716832043" lon="9.343947222122592"><ele>337.0</ele><time>2026-05-01T15:17:25.001Z</time></trkpt><trkpt lat="40.904365656950404" lon="9.34384127495933"><ele>337.0</ele><time>2026-05-01T15:17:26.001Z</time></trkpt><trkpt lat="40.90444881576935" lon="9.343729413657472"><ele>337.0</ele><time>2026-05-01T15:17:27.001Z</time></trkpt><trkpt lat="40.90456244117138" lon="9.343584600509676"><ele>338.0</ele><time>2026-05-01T15:17:28.001Z</time></trkpt><trkpt lat="40.90467497958698" lon="9.34344295278117"><ele>339.0</ele><time>2026-05-01T15:17:29.001Z</time></trkpt><trkpt lat="40.90480695127763" lon="9.343313791898444"><ele>340.0</ele><time>2026-05-01T15:17:30.001Z</time></trkpt><trkpt lat="40.904939376643654" lon="9.343202225607806"><ele>340.0</ele><time>2026-05-01T15:17:31.001Z</time></trkpt><trkpt lat="40.90505385347359" lon="9.343139949741152"><ele>340.0</ele><time>2026-05-01T15:17:32.001Z</time></trkpt><trkpt lat="40.90517938856626" lon="9.343096569580343"><ele>340.0</ele><time>2026-05-01T15:17:33.001Z</time></trkpt><trkpt lat="40.905306573239145" lon="9.343066122579625"><ele>340.0</ele><time>2026-05-01T15:17:34.001Z</time></trkpt><trkpt lat="40.90541733877962" lon="9.34305963625233"><ele>339.66666666666663</ele><time>2026-05-01T15:17:35.001Z</time></trkpt><trkpt lat="40.90552082624098" lon="9.343060142463814"><ele>339.3333333333333</ele><time>2026-05-01T15:17:36.001Z</time></trkpt><trkpt lat="40.90559939691815" lon="9.34304683313314"><ele>339.0</ele><time>2026-05-01T15:17:37.001Z</time></trkpt><trkpt lat="40.905669177209326" lon="9.34301045926514"><ele>338.6666666666667</ele><time>2026-05-01T15:17:38.001Z</time></trkpt><trkpt lat="40.905738448469044" lon="9.342945045078272"><ele>338.33333333333337</ele><time>2026-05-01T15:17:39.001Z</time></trkpt><trkpt lat="40.90580556690728" lon="9.342857058337037"><ele>338.0</ele><time>2026-05-01T15:17:40.001Z</time></trkpt><trkpt lat="40.90587298604617" lon="9.342739353444083"><ele>338.79999999999995</ele><time>2026-05-01T15:17:41.001Z</time></trkpt><trkpt lat="40.90593033206838" lon="9.342629074255546"><ele>339.6</ele><time>2026-05-01T15:17:42.001Z</time></trkpt><trkpt lat="40.90601588776887" lon="9.342579523607604"><ele>340.4</ele><time>2026-05-01T15:17:43.001Z</time></trkpt><trkpt lat="40.90610829730146" lon="9.342584623402894"><ele>341.20000000000005</ele><time>2026-05-01T15:17:44.001Z</time></trkpt><trkpt lat="40.906236964567356" lon="9.34254796630514"><ele>342.0</ele><time>2026-05-01T15:17:45.001Z</time></trkpt><trkpt lat="40.90638455772943" lon="9.342482858868767"><ele>342.0</ele><time>2026-05-01T15:17:46.001Z</time></trkpt><trkpt lat="40.90652910898163" lon="9.342410676333404"><ele>342.0</ele><time>2026-05-01T15:17:47.001Z</time></trkpt><trkpt lat="40.9066548639085" lon="9.342351920912959"><ele>342.0</ele><time>2026-05-01T15:17:48.001Z</time></trkpt><trkpt lat="40.90677430858973" lon="9.342305375408417"><ele>342.0</ele><time>2026-05-01T15:17:49.001Z</time></trkpt><trkpt lat="40.90691470641334" lon="9.34226199489033"><ele>342.0</ele><time>2026-05-01T15:17:50.001Z</time></trkpt><trkpt lat="40.90705980408797" lon="9.342213226764384"><ele>342.0</ele><time>2026-05-01T15:17:51.001Z</time></trkpt><trkpt lat="40.90719432686425" lon="9.342164202471393"><ele>342.0</ele><time>2026-05-01T15:17:52.001Z</time></trkpt><trkpt lat="40.9073291900706" lon="9.342114961347063"><ele>342.0</ele><time>2026-05-01T15:17:53.001Z</time></trkpt><trkpt lat="40.90746179540911" lon="9.342083507172859"><ele>342.75</ele><time>2026-05-01T15:17:54.001Z</time></trkpt><trkpt lat="40.90759322575559" lon="9.34204051816398"><ele>343.5</ele><time>2026-05-01T15:17:55.001Z</time></trkpt><trkpt lat="40.90772486605653" lon="9.342005116563673"><ele>344.25</ele><time>2026-05-01T15:17:56.001Z</time></trkpt><trkpt lat="40.90786050629226" lon="9.341966199890166"><ele>345.0</ele><time>2026-05-01T15:17:57.001Z</time></trkpt><trkpt lat="40.90799579185621" lon="9.341916215111453"><ele>345.0</ele><time>2026-05-01T15:17:58.001Z</time></trkpt><trkpt lat="40.90814308059988" lon="9.341867322825415"><ele>345.0</ele><time>2026-05-01T15:17:59.001Z</time></trkpt><trkpt lat="40.90829291990729" lon="9.341824680550959"><ele>345.0</ele><time>2026-05-01T15:18:00.001Z</time></trkpt><trkpt lat="40.908423292559476" lon="9.341790319206213"><ele>345.0</ele><time>2026-05-01T15:18:01.001Z</time></trkpt><trkpt lat="40.90853049229841" lon="9.341758726393351"><ele>344.5</ele><time>2026-05-01T15:18:02.001Z</time></trkpt><trkpt lat="40.90863161523283" lon="9.341708907925478"><ele>344.0</ele><time>2026-05-01T15:18:03.001Z</time></trkpt><trkpt lat="40.90873298833394" lon="9.341633677587705"><ele>343.5</ele><time>2026-05-01T15:18:04.001Z</time></trkpt><trkpt lat="40.90884049592199" lon="9.341546431508227"><ele>343.0</ele><time>2026-05-01T15:18:05.001Z</time></trkpt><trkpt lat="40.90895602420588" lon="9.341457106193223"><ele>343.25</ele><time>2026-05-01T15:18:06.001Z</time></trkpt><trkpt lat="40.90907829443123" lon="9.341367664754518"><ele>343.5</ele><time>2026-05-01T15:18:07.001Z</time></trkpt><trkpt lat="40.90920691215036" lon="9.341271777240802"><ele>343.75</ele><time>2026-05-01T15:18:08.001Z</time></trkpt><trkpt lat="40.90933893611409" lon="9.341169172536357"><ele>344.0</ele><time>2026-05-01T15:18:09.001Z</time></trkpt><trkpt lat="40.909461687538716" lon="9.3410495759398"><ele>344.75</ele><time>2026-05-01T15:18:10.001Z</time></trkpt><trkpt lat="40.90957980098059" lon="9.340922540193969"><ele>345.5</ele><time>2026-05-01T15:18:11.001Z</time></trkpt><trkpt lat="40.909709148464565" lon="9.340830328701431"><ele>346.25</ele><time>2026-05-01T15:18:12.001Z</time></trkpt><trkpt lat="40.909839206579264" lon="9.340748458001936"><ele>347.0</ele><time>2026-05-01T15:18:13.001Z</time></trkpt><trkpt lat="40.90996718991856" lon="9.340665616825119"><ele>347.5</ele><time>2026-05-01T15:18:14.001Z</time></trkpt><trkpt lat="40.9100809536927" lon="9.34056138077557"><ele>348.0</ele><time>2026-05-01T15:18:15.001Z</time></trkpt><trkpt lat="40.91019724893214" lon="9.340474548306966"><ele>348.5</ele><time>2026-05-01T15:18:16.001Z</time></trkpt><trkpt lat="40.91031216854198" lon="9.340404385176376"><ele>349.0</ele><time>2026-05-01T15:18:17.001Z</time></trkpt><trkpt lat="40.9104205011136" lon="9.340392038351338"><ele>349.75</ele><time>2026-05-01T15:18:18.001Z</time></trkpt><trkpt lat="40.910533464405354" lon="9.34039580228263"><ele>350.5</ele><time>2026-05-01T15:18:19.001Z</time></trkpt><trkpt lat="40.91067520497383" lon="9.340380147780913"><ele>351.25</ele><time>2026-05-01T15:18:20.001Z</time></trkpt><trkpt lat="40.91085075154397" lon="9.34039075713645"><ele>352.0</ele><time>2026-05-01T15:18:21.001Z</time></trkpt><trkpt lat="40.910992155830826" lon="9.340400348844604"><ele>352.0</ele><time>2026-05-01T15:18:22.001Z</time></trkpt><trkpt lat="40.91110387414983" lon="9.340415025093122"><ele>352.0</ele><time>2026-05-01T15:18:23.001Z</time></trkpt><trkpt lat="40.9112187956971" lon="9.340435012185255"><ele>352.0</ele><time>2026-05-01T15:18:24.001Z</time></trkpt><trkpt lat="40.91133525299167" lon="9.34045361323387"><ele>352.0</ele><time>2026-05-01T15:18:25.001Z</time></trkpt><trkpt lat="40.911463947165785" lon="9.340473860303186"><ele>352.0</ele><time>2026-05-01T15:18:26.001Z</time></trkpt><trkpt lat="40.91160214936061" lon="9.340492840423675"><ele>352.0</ele><time>2026-05-01T15:18:27.001Z</time></trkpt><trkpt lat="40.911745229614475" lon="9.340498443570153"><ele>352.0</ele><time>2026-05-01T15:18:28.001Z</time></trkpt><trkpt lat="40.91190482069071" lon="9.340488155513917"><ele>352.0</ele><time>2026-05-01T15:18:29.001Z</time></trkpt><trkpt lat="40.91205610896096" lon="9.340481628536285"><ele>351.0</ele><time>2026-05-01T15:18:30.001Z</time></trkpt><trkpt lat="40.912167900662155" lon="9.340478851811355"><ele>350.0</ele><time>2026-05-01T15:18:31.001Z</time></trkpt><trkpt lat="40.91225547501618" lon="9.340468706575956"><ele>349.0</ele><time>2026-05-01T15:18:32.001Z</time></trkpt><trkpt lat="40.912323538361335" lon="9.340426966057727"><ele>348.0</ele><time>2026-05-01T15:18:33.001Z</time></trkpt><trkpt lat="40.91237163380806" lon="9.340349003367775"><ele>347.0</ele><time>2026-05-01T15:18:34.001Z</time></trkpt><trkpt lat="40.91242019406806" lon="9.340225201263106"><ele>347.0</ele><time>2026-05-01T15:18:35.001Z</time></trkpt><trkpt lat="40.91247990404532" lon="9.340048263162032"><ele>347.0</ele><time>2026-05-01T15:18:36.001Z</time></trkpt><trkpt lat="40.912554544668716" lon="9.33985875885004"><ele>347.0</ele><time>2026-05-01T15:18:37.001Z</time></trkpt><trkpt lat="40.91262554645075" lon="9.339683555107642"><ele>349.5</ele><time>2026-05-01T15:18:38.001Z</time></trkpt><trkpt lat="40.91267847861678" lon="9.339508233872392"><ele>352.0</ele><time>2026-05-01T15:18:39.001Z</time></trkpt><trkpt lat="40.912703872568905" lon="9.339319532980085"><ele>354.5</ele><time>2026-05-01T15:18:40.001Z</time></trkpt><trkpt lat="40.91270098104574" lon="9.339144121304908"><ele>357.0</ele><time>2026-05-01T15:18:41.001Z</time></trkpt><trkpt lat="40.91268934767155" lon="9.338959183792019"><ele>357.8</ele><time>2026-05-01T15:18:42.001Z</time></trkpt><trkpt lat="40.91267474632582" lon="9.338799716439123"><ele>358.6</ele><time>2026-05-01T15:18:43.001Z</time></trkpt><trkpt lat="40.91267564859621" lon="9.338670740141117"><ele>359.40000000000003</ele><time>2026-05-01T15:18:44.001Z</time></trkpt><trkpt lat="40.91269774036988" lon="9.338530857599286"><ele>360.20000000000005</ele><time>2026-05-01T15:18:45.001Z</time></trkpt><trkpt lat="40.91274213473514" lon="9.338385112473246"><ele>361.0</ele><time>2026-05-01T15:18:46.001Z</time></trkpt><trkpt lat="40.91279281396875" lon="9.33823657667798"><ele>361.0</ele><time>2026-05-01T15:18:47.001Z</time></trkpt><trkpt lat="40.912838491399235" lon="9.338072624287655"><ele>361.0</ele><time>2026-05-01T15:18:48.001Z</time></trkpt><trkpt lat="40.91287111325874" lon="9.337891562936111"><ele>361.0</ele><time>2026-05-01T15:18:49.001Z</time></trkpt><trkpt lat="40.91290795719693" lon="9.33769600942036"><ele>361.0</ele><time>2026-05-01T15:18:50.001Z</time></trkpt><trkpt lat="40.912919062828315" lon="9.337516237978136"><ele>361.25</ele><time>2026-05-01T15:18:51.001Z</time></trkpt><trkpt lat="40.91294022664564" lon="9.33735444941022"><ele>361.5</ele><time>2026-05-01T15:18:52.001Z</time></trkpt><trkpt lat="40.91296546414563" lon="9.337172546196207"><ele>361.75</ele><time>2026-05-01T15:18:53.001Z</time></trkpt><trkpt lat="40.91299411491962" lon="9.336972184231291"><ele>362.0</ele><time>2026-05-01T15:18:54.001Z</time></trkpt><trkpt lat="40.91302065437697" lon="9.336773387876189"><ele>362.6666666666667</ele><time>2026-05-01T15:18:55.001Z</time></trkpt><trkpt lat="40.913031907392394" lon="9.336571959679217"><ele>363.3333333333333</ele><time>2026-05-01T15:18:56.001Z</time></trkpt><trkpt lat="40.91301558722846" lon="9.336360802608777"><ele>364.0</ele><time>2026-05-01T15:18:57.001Z</time></trkpt><trkpt lat="40.91299311618124" lon="9.336160962149183"><ele>365.75</ele><time>2026-05-01T15:18:58.001Z</time></trkpt><trkpt lat="40.912987068492306" lon="9.335966015119187"><ele>367.5</ele><time>2026-05-01T15:18:59.001Z</time></trkpt><trkpt lat="40.912980873715895" lon="9.33577361696882"><ele>369.25</ele><time>2026-05-01T15:19:00.001Z</time></trkpt><trkpt lat="40.912971452408854" lon="9.335586914508378"><ele>371.0</ele><time>2026-05-01T15:19:01.001Z</time></trkpt><trkpt lat="40.91296926291919" lon="9.335389082291108"><ele>372.0</ele><time>2026-05-01T15:19:02.001Z</time></trkpt><trkpt lat="40.91296084251153" lon="9.335195847891013"><ele>373.0</ele><time>2026-05-01T15:19:03.001Z</time></trkpt><trkpt lat="40.91295721460966" lon="9.335033858634585"><ele>374.0</ele><time>2026-05-01T15:19:04.001Z</time></trkpt><trkpt lat="40.91296619951162" lon="9.334888125833375"><ele>375.0</ele><time>2026-05-01T15:19:05.001Z</time></trkpt><trkpt lat="40.912999633972674" lon="9.334730144726203"><ele>375.0</ele><time>2026-05-01T15:19:06.001Z</time></trkpt><trkpt lat="40.91303723341714" lon="9.334553858781517"><ele>375.0</ele><time>2026-05-01T15:19:07.001Z</time></trkpt><trkpt lat="40.913079695152256" lon="9.33436447850496"><ele>375.0</ele><time>2026-05-01T15:19:08.001Z</time></trkpt><trkpt lat="40.91312465157727" lon="9.334186744650244"><ele>375.0</ele><time>2026-05-01T15:19:09.001Z</time></trkpt><trkpt lat="40.91318148962601" lon="9.3340208602862"><ele>375.5</ele><time>2026-05-01T15:19:10.001Z</time></trkpt><trkpt lat="40.91326159992311" lon="9.333881686454546"><ele>376.0</ele><time>2026-05-01T15:19:11.001Z</time></trkpt><trkpt lat="40.913318422151484" lon="9.333718608580964"><ele>376.5</ele><time>2026-05-01T15:19:12.001Z</time></trkpt><trkpt lat="40.91340080184226" lon="9.333596108637488"><ele>377.0</ele><time>2026-05-01T15:19:13.001Z</time></trkpt><trkpt lat="40.91347752584122" lon="9.333493806075138"><ele>378.6</ele><time>2026-05-01T15:19:14.001Z</time></trkpt><trkpt lat="40.91357201340729" lon="9.333439353975027"><ele>380.20000000000005</ele><time>2026-05-01T15:19:15.001Z</time></trkpt><trkpt lat="40.91366864855658" lon="9.333377111817615"><ele>381.8</ele><time>2026-05-01T15:19:16.001Z</time></trkpt><trkpt lat="40.91375549264774" lon="9.333300526581432"><ele>383.4</ele><time>2026-05-01T15:19:17.001Z</time></trkpt><trkpt lat="40.913837733053604" lon="9.333242461109144"><ele>385.0</ele><time>2026-05-01T15:19:18.001Z</time></trkpt><trkpt lat="40.91391061847578" lon="9.33314544558694"><ele>385.0</ele><time>2026-05-01T15:19:19.001Z</time></trkpt><trkpt lat="40.913975139744664" lon="9.333000563005998"><ele>385.0</ele><time>2026-05-01T15:19:20.001Z</time></trkpt><trkpt lat="40.91405012867888" lon="9.332817105051088"><ele>385.0</ele><time>2026-05-01T15:19:21.001Z</time></trkpt><trkpt lat="40.91411415791881" lon="9.332660033224471"><ele>385.0</ele><time>2026-05-01T15:19:22.001Z</time></trkpt><trkpt lat="40.91417896475223" lon="9.332552696318174"><ele>387.6666666666667</ele><time>2026-05-01T15:19:23.001Z</time></trkpt><trkpt lat="40.914262033670845" lon="9.332390036661891"><ele>390.33333333333337</ele><time>2026-05-01T15:19:24.001Z</time></trkpt><trkpt lat="40.91434742937389" lon="9.33217722186394"><ele>393.0</ele><time>2026-05-01T15:19:25.001Z</time></trkpt><trkpt lat="40.91441192977396" lon="9.332001401530505"><ele>393.2</ele><time>2026-05-01T15:19:26.001Z</time></trkpt><trkpt lat="40.91445589152169" lon="9.33188112202246"><ele>393.4</ele><time>2026-05-01T15:19:27.001Z</time></trkpt><trkpt lat="40.914479998549574" lon="9.331787269646552"><ele>393.59999999999997</ele><time>2026-05-01T15:19:28.001Z</time></trkpt><trkpt lat="40.91447092239751" lon="9.331675023380395"><ele>393.79999999999995</ele><time>2026-05-01T15:19:29.001Z</time></trkpt><trkpt lat="40.9144635268095" lon="9.331519725446162"><ele>394.0</ele><time>2026-05-01T15:19:30.001Z</time></trkpt><trkpt lat="40.91451192490604" lon="9.331409580352078"><ele>394.4</ele><time>2026-05-01T15:19:31.001Z</time></trkpt><trkpt lat="40.91455201990469" lon="9.331325773544126"><ele>394.79999999999995</ele><time>2026-05-01T15:19:32.001Z</time></trkpt><trkpt lat="40.91459306337738" lon="9.331207144529738"><ele>395.20000000000005</ele><time>2026-05-01T15:19:33.001Z</time></trkpt><trkpt lat="40.91464251322986" lon="9.331091662629799"><ele>395.6</ele><time>2026-05-01T15:19:34.001Z</time></trkpt><trkpt lat="40.91470028735417" lon="9.330943027942041"><ele>396.0</ele><time>2026-05-01T15:19:35.001Z</time></trkpt><trkpt lat="40.91475834395356" lon="9.330791618998756"><ele>396.0</ele><time>2026-05-01T15:19:36.001Z</time></trkpt><trkpt lat="40.914801338730484" lon="9.330656010201679"><ele>396.0</ele><time>2026-05-01T15:19:37.001Z</time></trkpt><trkpt lat="40.914842856573316" lon="9.330571756319793"><ele>396.0</ele><time>2026-05-01T15:19:38.001Z</time></trkpt><trkpt lat="40.91495320552684" lon="9.330518447671096"><ele>396.0</ele><time>2026-05-01T15:19:40.001Z</time></trkpt><trkpt lat="40.915014204452135" lon="9.33045746770989"><ele>396.0</ele><time>2026-05-01T15:19:41.001Z</time></trkpt><trkpt lat="40.915090883814415" lon="9.330376854607696"><ele>396.8333333333333</ele><time>2026-05-01T15:19:43.001Z</time></trkpt><trkpt lat="40.91514448447731" lon="9.330302443789408"><ele>397.66666666666663</ele><time>2026-05-01T15:19:45.001Z</time></trkpt><trkpt lat="40.91521167109503" lon="9.330244860727205"><ele>398.5</ele><time>2026-05-01T15:19:47.001Z</time></trkpt><trkpt lat="40.91531445204186" lon="9.330158681732394"><ele>399.3333333333333</ele><time>2026-05-01T15:19:54.001Z</time></trkpt><trkpt lat="40.91537859425662" lon="9.330087744972133"><ele>400.16666666666663</ele><time>2026-05-01T15:19:55.001Z</time></trkpt><trkpt lat="40.915443724108854" lon="9.33003737465677"><ele>401.0</ele><time>2026-05-01T15:19:56.001Z</time></trkpt><trkpt lat="40.91552880235485" lon="9.329929320106103"><ele>401.0</ele><time>2026-05-01T15:19:58.001Z</time></trkpt><trkpt lat="40.915608678288535" lon="9.329867107437035"><ele>401.0</ele><time>2026-05-01T15:19:59.001Z</time></trkpt><trkpt lat="40.91571101419708" lon="9.329864758374422"><ele>401.0</ele><time>2026-05-01T15:20:00.001Z</time></trkpt><trkpt lat="40.91581697192559" lon="9.329844599032198"><ele>401.0</ele><time>2026-05-01T15:20:01.001Z</time></trkpt><trkpt lat="40.915906569095505" lon="9.329810261523994"><ele>401.0</ele><time>2026-05-01T15:20:02.001Z</time></trkpt><trkpt lat="40.91598652395106" lon="9.329774751405926"><ele>402.5</ele><time>2026-05-01T15:20:03.001Z</time></trkpt><trkpt lat="40.916082383965616" lon="9.329704825740766"><ele>404.0</ele><time>2026-05-01T15:20:04.001Z</time></trkpt><trkpt lat="40.9161893614694" lon="9.329616539686294"><ele>405.5</ele><time>2026-05-01T15:20:05.001Z</time></trkpt><trkpt lat="40.91632465263965" lon="9.329522271311642"><ele>407.0</ele><time>2026-05-01T15:20:06.001Z</time></trkpt><trkpt lat="40.916438325848134" lon="9.329442488409947"><ele>407.0</ele><time>2026-05-01T15:20:07.001Z</time></trkpt><trkpt lat="40.91654214217746" lon="9.329371834928759"><ele>407.0</ele><time>2026-05-01T15:20:08.001Z</time></trkpt><trkpt lat="40.91663977363503" lon="9.329283903975618"><ele>407.0</ele><time>2026-05-01T15:20:09.001Z</time></trkpt><trkpt lat="40.91676425362238" lon="9.329243705604172"><ele>407.0</ele><time>2026-05-01T15:20:10.001Z</time></trkpt><trkpt lat="40.91690256743033" lon="9.329195644545223"><ele>407.75</ele><time>2026-05-01T15:20:11.001Z</time></trkpt><trkpt lat="40.91704639356007" lon="9.329121720033116"><ele>408.5</ele><time>2026-05-01T15:20:12.001Z</time></trkpt><trkpt lat="40.9171845138548" lon="9.329072232364336"><ele>409.25</ele><time>2026-05-01T15:20:13.001Z</time></trkpt><trkpt lat="40.917290286718945" lon="9.32905563595332"><ele>410.0</ele><time>2026-05-01T15:20:14.001Z</time></trkpt><trkpt lat="40.91737950114594" lon="9.329054858828744"><ele>410.0</ele><time>2026-05-01T15:20:15.001Z</time></trkpt><trkpt lat="40.91750752680301" lon="9.329043564391451"><ele>410.0</ele><time>2026-05-01T15:20:16.001Z</time></trkpt><trkpt lat="40.917658235973946" lon="9.329061330148027"><ele>410.0</ele><time>2026-05-01T15:20:17.001Z</time></trkpt><trkpt lat="40.917802787220516" lon="9.329072491512251"><ele>410.0</ele><time>2026-05-01T15:20:18.001Z</time></trkpt><trkpt lat="40.917922403260754" lon="9.329029337816355"><ele>411.0</ele><time>2026-05-01T15:20:19.001Z</time></trkpt><trkpt lat="40.9180284525713" lon="9.328979740272684"><ele>412.0</ele><time>2026-05-01T15:20:20.001Z</time></trkpt><trkpt lat="40.918116199390475" lon="9.328937466956829"><ele>413.0</ele><time>2026-05-01T15:20:21.001Z</time></trkpt><trkpt lat="40.9182330688129" lon="9.329005191162981"><ele>414.0</ele><time>2026-05-01T15:20:23.001Z</time></trkpt><trkpt lat="40.918323209359336" lon="9.329120872311261"><ele>412.6</ele><time>2026-05-01T15:20:24.001Z</time></trkpt><trkpt lat="40.918417332588064" lon="9.329235685153634"><ele>411.2</ele><time>2026-05-01T15:20:25.001Z</time></trkpt><trkpt lat="40.91849484193708" lon="9.329321234554142"><ele>409.8</ele><time>2026-05-01T15:20:26.001Z</time></trkpt><trkpt lat="40.91855682583272" lon="9.329412044003629"><ele>408.40000000000003</ele><time>2026-05-01T15:20:27.001Z</time></trkpt><trkpt lat="40.91857989214378" lon="9.329528655514022"><ele>407.0</ele><time>2026-05-01T15:20:28.001Z</time></trkpt><trkpt lat="40.9186123148152" lon="9.329619525571632"><ele>406.99999999999994</ele><time>2026-05-01T15:20:29.001Z</time></trkpt><trkpt lat="40.918646079561896" lon="9.32972282368334"><ele>407.0</ele><time>2026-05-01T15:20:30.001Z</time></trkpt><trkpt lat="40.9186805232864" lon="9.329822221860267"><ele>407.0</ele><time>2026-05-01T15:20:31.001Z</time></trkpt><trkpt lat="40.91872382418723" lon="9.329909872993486"><ele>407.0</ele><time>2026-05-01T15:20:32.001Z</time></trkpt><trkpt lat="40.91877448060269" lon="9.329968861426499"><ele>406.99999999999994</ele><time>2026-05-01T15:20:33.001Z</time></trkpt><trkpt lat="40.918839772611896" lon="9.329958651994232"><ele>407.0</ele><time>2026-05-01T15:20:34.001Z</time></trkpt><trkpt lat="40.91894319668064" lon="9.329911648063428"><ele>406.99999999999994</ele><time>2026-05-01T15:20:36.001Z</time></trkpt><trkpt lat="40.918981351458406" lon="9.329803697956033"><ele>407.0</ele><time>2026-05-01T15:20:37.001Z</time></trkpt><trkpt lat="40.91901478916862" lon="9.329718567061276"><ele>407.0</ele><time>2026-05-01T15:20:38.001Z</time></trkpt><trkpt lat="40.91904176743626" lon="9.329640736569006"><ele>407.0</ele><time>2026-05-01T15:20:40.001Z</time></trkpt><trkpt lat="40.91911207718122" lon="9.329572482197023"><ele>406.99999999999994</ele><time>2026-05-01T15:20:43.001Z</time></trkpt><trkpt lat="40.91917674545957" lon="9.329582264340921"><ele>407.0</ele><time>2026-05-01T15:20:44.001Z</time></trkpt><trkpt lat="40.91925645944589" lon="9.329557795042323"><ele>408.0</ele><time>2026-05-01T15:20:45.001Z</time></trkpt><trkpt lat="40.91934752087625" lon="9.329527987359416"><ele>409.0</ele><time>2026-05-01T15:20:46.001Z</time></trkpt><trkpt lat="40.91944660372266" lon="9.329485272096775"><ele>410.0</ele><time>2026-05-01T15:20:47.001Z</time></trkpt><trkpt lat="40.91954590823326" lon="9.3294205754695"><ele>411.0</ele><time>2026-05-01T15:20:48.001Z</time></trkpt><trkpt lat="40.91965310492052" lon="9.329376247923914"><ele>412.0</ele><time>2026-05-01T15:20:49.001Z</time></trkpt><trkpt lat="40.91975903399622" lon="9.32932783177784"><ele>412.0</ele><time>2026-05-01T15:20:50.001Z</time></trkpt><trkpt lat="40.91985863518499" lon="9.32928427578259"><ele>412.0</ele><time>2026-05-01T15:20:51.001Z</time></trkpt><trkpt lat="40.91995315247383" lon="9.329235090312388"><ele>412.0</ele><time>2026-05-01T15:20:52.001Z</time></trkpt><trkpt lat="40.9200520097707" lon="9.329179121324666"><ele>412.0</ele><time>2026-05-01T15:20:53.001Z</time></trkpt><trkpt lat="40.92015288680272" lon="9.329120272620566"><ele>412.0</ele><time>2026-05-01T15:20:54.002Z</time></trkpt><trkpt lat="40.92024938505862" lon="9.329060516855755"><ele>412.20000000000005</ele><time>2026-05-01T15:20:55.002Z</time></trkpt><trkpt lat="40.920353768439405" lon="9.329001914804076"><ele>412.4</ele><time>2026-05-01T15:20:56.002Z</time></trkpt><trkpt lat="40.92045025068432" lon="9.328954889210031"><ele>412.6</ele><time>2026-05-01T15:20:57.002Z</time></trkpt><trkpt lat="40.92053874190568" lon="9.32889934295545"><ele>412.79999999999995</ele><time>2026-05-01T15:20:58.002Z</time></trkpt><trkpt lat="40.92063305192521" lon="9.328843273730355"><ele>413.0</ele><time>2026-05-01T15:20:59.002Z</time></trkpt><trkpt lat="40.920736254167345" lon="9.328781723764344"><ele>411.75</ele><time>2026-05-01T15:21:00.002Z</time></trkpt><trkpt lat="40.920842907054706" lon="9.328721336486733"><ele>410.5</ele><time>2026-05-01T15:21:01.002Z</time></trkpt><trkpt lat="40.92095742451996" lon="9.32867125192138"><ele>409.25</ele><time>2026-05-01T15:21:02.002Z</time></trkpt><trkpt lat="40.92107893194282" lon="9.328653206419004"><ele>408.0</ele><time>2026-05-01T15:21:03.002Z</time></trkpt><trkpt lat="40.92120098197211" lon="9.328687530771393"><ele>408.0</ele><time>2026-05-01T15:21:04.002Z</time></trkpt><trkpt lat="40.92131393103485" lon="9.328795932931094"><ele>408.0</ele><time>2026-05-01T15:21:05.002Z</time></trkpt><trkpt lat="40.921433224527256" lon="9.32891291750839"><ele>408.0</ele><time>2026-05-01T15:21:06.002Z</time></trkpt><trkpt lat="40.921544643442274" lon="9.329037469445865"><ele>408.0</ele><time>2026-05-01T15:21:07.001Z</time></trkpt><trkpt lat="40.92165342186075" lon="9.329160359369766"><ele>408.0</ele><time>2026-05-01T15:21:08.001Z</time></trkpt><trkpt lat="40.92177286194261" lon="9.32927100736701"><ele>408.0</ele><time>2026-05-01T15:21:09.001Z</time></trkpt><trkpt lat="40.92188280341802" lon="9.329399132947717"><ele>408.0</ele><time>2026-05-01T15:21:10.001Z</time></trkpt><trkpt lat="40.921994202717734" lon="9.329526648233237"><ele>408.0</ele><time>2026-05-01T15:21:11.001Z</time></trkpt><trkpt lat="40.922101190170764" lon="9.329647086292388"><ele>407.5</ele><time>2026-05-01T15:21:12.001Z</time></trkpt><trkpt lat="40.922206842102156" lon="9.32976166282787"><ele>407.0</ele><time>2026-05-01T15:21:13.001Z</time></trkpt><trkpt lat="40.92231192693085" lon="9.329885797330144"><ele>406.5</ele><time>2026-05-01T15:21:14.001Z</time></trkpt><trkpt lat="40.92240959609803" lon="9.330029465542177"><ele>406.0</ele><time>2026-05-01T15:21:15.001Z</time></trkpt><trkpt lat="40.92248558298962" lon="9.330208384233877"><ele>407.33333333333337</ele><time>2026-05-01T15:21:16.001Z</time></trkpt><trkpt lat="40.922593837696056" lon="9.3303691821853"><ele>408.66666666666663</ele><time>2026-05-01T15:21:17.001Z</time></trkpt><trkpt lat="40.92273246321591" lon="9.330489203660397"><ele>410.0</ele><time>2026-05-01T15:21:18.001Z</time></trkpt><trkpt lat="40.92286216090633" lon="9.330577153905168"><ele>407.75</ele><time>2026-05-01T15:21:19.001Z</time></trkpt><trkpt lat="40.92297298759373" lon="9.33068118725604"><ele>405.5</ele><time>2026-05-01T15:21:20.001Z</time></trkpt><trkpt lat="40.92309129295341" lon="9.330757534735767"><ele>403.25</ele><time>2026-05-01T15:21:21.001Z</time></trkpt><trkpt lat="40.923184797171245" lon="9.330900421163232"><ele>401.0</ele><time>2026-05-01T15:21:22.001Z</time></trkpt><trkpt lat="40.92325269024281" lon="9.331053499141106"><ele>401.0</ele><time>2026-05-01T15:21:23.001Z</time></trkpt><trkpt lat="40.92332030021988" lon="9.331243917706272"><ele>401.0</ele><time>2026-05-01T15:21:24.001Z</time></trkpt><trkpt lat="40.923386543743355" lon="9.331444698793387"><ele>401.0</ele><time>2026-05-01T15:21:25.001Z</time></trkpt><trkpt lat="40.923456465620575" lon="9.331639330742348"><ele>400.0</ele><time>2026-05-01T15:21:26.001Z</time></trkpt><trkpt lat="40.923545899523766" lon="9.331793483033032"><ele>399.0</ele><time>2026-05-01T15:21:27.001Z</time></trkpt><trkpt lat="40.92364003747652" lon="9.331945069643222"><ele>398.0</ele><time>2026-05-01T15:21:28.001Z</time></trkpt><trkpt lat="40.92374009429549" lon="9.33208608778678"><ele>397.0</ele><time>2026-05-01T15:21:29.001Z</time></trkpt><trkpt lat="40.92383301673859" lon="9.332233984131642"><ele>396.0</ele><time>2026-05-01T15:21:30.001Z</time></trkpt><trkpt lat="40.92392529373981" lon="9.332381727036307"><ele>395.0</ele><time>2026-05-01T15:21:31.001Z</time></trkpt><trkpt lat="40.92401938977291" lon="9.33252702471627"><ele>394.0</ele><time>2026-05-01T15:21:32.001Z</time></trkpt><trkpt lat="40.92409696323025" lon="9.332684908208398"><ele>393.0</ele><time>2026-05-01T15:21:33.001Z</time></trkpt><trkpt lat="40.92419306892784" lon="9.332786495616023"><ele>393.0</ele><time>2026-05-01T15:21:34.001Z</time></trkpt><trkpt lat="40.9242913832206" lon="9.332859354978115"><ele>393.0</ele><time>2026-05-01T15:21:35.001Z</time></trkpt><trkpt lat="40.92442293858644" lon="9.332891217384335"><ele>393.0</ele><time>2026-05-01T15:21:36.001Z</time></trkpt><trkpt lat="40.924599831116275" lon="9.332885443974554"><ele>393.0</ele><time>2026-05-01T15:21:37.001Z</time></trkpt><trkpt lat="40.924801692488224" lon="9.33287657780153"><ele>393.0</ele><time>2026-05-01T15:21:38.001Z</time></trkpt><trkpt lat="40.92499126400929" lon="9.332878587747729"><ele>393.0</ele><time>2026-05-01T15:21:39.001Z</time></trkpt><trkpt lat="40.92515782005483" lon="9.33290166214439"><ele>393.0</ele><time>2026-05-01T15:21:40.001Z</time></trkpt><trkpt lat="40.92532168701278" lon="9.332871470888033"><ele>393.66666666666663</ele><time>2026-05-01T15:21:41.001Z</time></trkpt><trkpt lat="40.925491266145556" lon="9.332882265375016"><ele>394.3333333333333</ele><time>2026-05-01T15:21:42.001Z</time></trkpt><trkpt lat="40.92564615851265" lon="9.332849114364599"><ele>395.0</ele><time>2026-05-01T15:21:43.001Z</time></trkpt><trkpt lat="40.925800842727966" lon="9.332836629752217"><ele>396.3333333333333</ele><time>2026-05-01T15:21:44.001Z</time></trkpt><trkpt lat="40.92595703187372" lon="9.33286150199286"><ele>397.66666666666663</ele><time>2026-05-01T15:21:45.001Z</time></trkpt><trkpt lat="40.92610572649903" lon="9.332862160545876"><ele>399.0</ele><time>2026-05-01T15:21:46.001Z</time></trkpt><trkpt lat="40.92625769809218" lon="9.332886550015711"><ele>399.0</ele><time>2026-05-01T15:21:47.001Z</time></trkpt><trkpt lat="40.926412010530306" lon="9.332909741832243"><ele>399.0</ele><time>2026-05-01T15:21:48.001Z</time></trkpt><trkpt lat="40.926561961001354" lon="9.332930790870273"><ele>399.0</ele><time>2026-05-01T15:21:49.001Z</time></trkpt><trkpt lat="40.926708914784996" lon="9.332954154437413"><ele>399.0</ele><time>2026-05-01T15:21:50.001Z</time></trkpt><trkpt lat="40.92685640028367" lon="9.332982033582388"><ele>399.0</ele><time>2026-05-01T15:21:51.001Z</time></trkpt><trkpt lat="40.926998950915966" lon="9.333017729262144"><ele>399.0</ele><time>2026-05-01T15:21:52.001Z</time></trkpt><trkpt lat="40.92713910075264" lon="9.33306001155646"><ele>399.0</ele><time>2026-05-01T15:21:53.001Z</time></trkpt><trkpt lat="40.92728416815338" lon="9.333113473009302"><ele>399.25</ele><time>2026-05-01T15:21:54.001Z</time></trkpt><trkpt lat="40.92742639869897" lon="9.333167743901827"><ele>399.5</ele><time>2026-05-01T15:21:55.001Z</time></trkpt><trkpt lat="40.92756732508672" lon="9.33322605083419"><ele>399.75</ele><time>2026-05-01T15:21:56.001Z</time></trkpt><trkpt lat="40.927701896906015" lon="9.333281692551202"><ele>400.0</ele><time>2026-05-01T15:21:57.001Z</time></trkpt><trkpt lat="40.92783101565794" lon="9.333324224785272"><ele>400.0</ele><time>2026-05-01T15:21:58.001Z</time></trkpt><trkpt lat="40.927956699112144" lon="9.333332889779447"><ele>400.0</ele><time>2026-05-01T15:21:59.001Z</time></trkpt><trkpt lat="40.9280791128244" lon="9.333288622285615"><ele>400.0</ele><time>2026-05-01T15:22:00.001Z</time></trkpt><trkpt lat="40.928199101765344" lon="9.33319956067296"><ele>400.0</ele><time>2026-05-01T15:22:01.001Z</time></trkpt><trkpt lat="40.92830559111378" lon="9.333135195073934"><ele>402.0</ele><time>2026-05-01T15:22:02.001Z</time></trkpt><trkpt lat="40.928407427134196" lon="9.333165442260212"><ele>404.0</ele><time>2026-05-01T15:22:03.001Z</time></trkpt><trkpt lat="40.92850563879534" lon="9.33322840384288"><ele>406.0</ele><time>2026-05-01T15:22:04.001Z</time></trkpt><trkpt lat="40.928611631811236" lon="9.333305279280099"><ele>408.0</ele><time>2026-05-01T15:22:05.001Z</time></trkpt><trkpt lat="40.928705935347786" lon="9.333406775177123"><ele>408.0</ele><time>2026-05-01T15:22:06.001Z</time></trkpt><trkpt lat="40.928790553938775" lon="9.333529238163212"><ele>408.0</ele><time>2026-05-01T15:22:07.001Z</time></trkpt><trkpt lat="40.9288601223851" lon="9.333672372120455"><ele>408.0</ele><time>2026-05-01T15:22:08.001Z</time></trkpt><trkpt lat="40.92892212328202" lon="9.333821530540336"><ele>408.0</ele><time>2026-05-01T15:22:09.001Z</time></trkpt><trkpt lat="40.92900175917428" lon="9.333951322054153"><ele>407.75</ele><time>2026-05-01T15:22:10.001Z</time></trkpt><trkpt lat="40.929101162567854" lon="9.334052753997492"><ele>407.5</ele><time>2026-05-01T15:22:11.001Z</time></trkpt><trkpt lat="40.929220425025335" lon="9.334102644799021"><ele>407.25</ele><time>2026-05-01T15:22:12.001Z</time></trkpt><trkpt lat="40.929353967075194" lon="9.334116388037494"><ele>407.0</ele><time>2026-05-01T15:22:13.001Z</time></trkpt><trkpt lat="40.92948000501967" lon="9.33415205987962"><ele>410.5</ele><time>2026-05-01T15:22:14.001Z</time></trkpt><trkpt lat="40.92958850798574" lon="9.334252238343282"><ele>414.0</ele><time>2026-05-01T15:22:15.001Z</time></trkpt><trkpt lat="40.92966829928707" lon="9.334374058392434"><ele>417.5</ele><time>2026-05-01T15:22:16.001Z</time></trkpt><trkpt lat="40.92973996300694" lon="9.334510175037867"><ele>421.0</ele><time>2026-05-01T15:22:17.001Z</time></trkpt><trkpt lat="40.929809805793575" lon="9.334665384223502"><ele>419.5</ele><time>2026-05-01T15:22:18.001Z</time></trkpt><trkpt lat="40.9298743398433" lon="9.334829788588255"><ele>418.0</ele><time>2026-05-01T15:22:19.001Z</time></trkpt><trkpt lat="40.92993445567044" lon="9.335007050520556"><ele>416.5</ele><time>2026-05-01T15:22:20.001Z</time></trkpt><trkpt lat="40.9299730301113" lon="9.3351934904089"><ele>415.0</ele><time>2026-05-01T15:22:21.001Z</time></trkpt><trkpt lat="40.92998080798494" lon="9.335380061610792"><ele>414.25</ele><time>2026-05-01T15:22:22.001Z</time></trkpt><trkpt lat="40.9299710211337" lon="9.335562557566668"><ele>413.5</ele><time>2026-05-01T15:22:23.001Z</time></trkpt><trkpt lat="40.92997298784351" lon="9.335739963015024"><ele>412.75</ele><time>2026-05-01T15:22:24.001Z</time></trkpt><trkpt lat="40.92998794072643" lon="9.3359118330567"><ele>412.0</ele><time>2026-05-01T15:22:25.001Z</time></trkpt><trkpt lat="40.93004702893158" lon="9.336087899076514"><ele>412.0</ele><time>2026-05-01T15:22:26.001Z</time></trkpt><trkpt lat="40.93012827718273" lon="9.33627719085748"><ele>412.0</ele><time>2026-05-01T15:22:27.001Z</time></trkpt><trkpt lat="40.930231330453644" lon="9.336447751117236"><ele>412.0</ele><time>2026-05-01T15:22:28.001Z</time></trkpt><trkpt lat="40.93029770037117" lon="9.33662501864464"><ele>412.0</ele><time>2026-05-01T15:22:29.001Z</time></trkpt><trkpt lat="40.93037268821577" lon="9.33677626882968"><ele>412.0</ele><time>2026-05-01T15:22:30.001Z</time></trkpt><trkpt lat="40.93044731974719" lon="9.33690377361531"><ele>412.0</ele><time>2026-05-01T15:22:31.001Z</time></trkpt><trkpt lat="40.93054960626653" lon="9.336990670267785"><ele>412.0</ele><time>2026-05-01T15:22:32.001Z</time></trkpt><trkpt lat="40.93065480363593" lon="9.337062625805316"><ele>412.0</ele><time>2026-05-01T15:22:33.001Z</time></trkpt><trkpt lat="40.93077830943982" lon="9.337095820767724"><ele>412.0</ele><time>2026-05-01T15:22:34.001Z</time></trkpt><trkpt lat="40.93090223133592" lon="9.337123006191716"><ele>412.0</ele><time>2026-05-01T15:22:35.001Z</time></trkpt><trkpt lat="40.931026982972796" lon="9.33715450794918"><ele>412.0</ele><time>2026-05-01T15:22:36.001Z</time></trkpt><trkpt lat="40.93115351877047" lon="9.337187219080208"><ele>408.75</ele><time>2026-05-01T15:22:37.001Z</time></trkpt><trkpt lat="40.93128123797304" lon="9.337221609900503"><ele>405.5</ele><time>2026-05-01T15:22:38.001Z</time></trkpt><trkpt lat="40.931414751386264" lon="9.337252774073681"><ele>402.25</ele><time>2026-05-01T15:22:39.001Z</time></trkpt><trkpt lat="40.93154824420259" lon="9.337277644643946"><ele>399.0</ele><time>2026-05-01T15:22:40.001Z</time></trkpt><trkpt lat="40.931680089115595" lon="9.337297899907938"><ele>397.25</ele><time>2026-05-01T15:22:41.001Z</time></trkpt><trkpt lat="40.93179634579506" lon="9.337294908203038"><ele>395.5</ele><time>2026-05-01T15:22:42.001Z</time></trkpt><trkpt lat="40.93191181216103" lon="9.337286166077497"><ele>393.75</ele><time>2026-05-01T15:22:43.001Z</time></trkpt><trkpt lat="40.93202229251293" lon="9.337249977594292"><ele>392.0</ele><time>2026-05-01T15:22:44.001Z</time></trkpt><trkpt lat="40.932129860213394" lon="9.337166474351044"><ele>392.0</ele><time>2026-05-01T15:22:45.001Z</time></trkpt><trkpt lat="40.932229014981274" lon="9.337040480177622"><ele>392.0</ele><time>2026-05-01T15:22:46.001Z</time></trkpt><trkpt lat="40.93233182513776" lon="9.336893635209375"><ele>392.0</ele><time>2026-05-01T15:22:47.001Z</time></trkpt><trkpt lat="40.93244100030386" lon="9.336757211332714"><ele>392.0</ele><time>2026-05-01T15:22:48.001Z</time></trkpt><trkpt lat="40.932548956385304" lon="9.336614859859537"><ele>389.75</ele><time>2026-05-01T15:22:49.001Z</time></trkpt><trkpt lat="40.93263483155534" lon="9.336459309990461"><ele>387.5</ele><time>2026-05-01T15:22:50.001Z</time></trkpt><trkpt lat="40.93269126245863" lon="9.336287868627291"><ele>385.25</ele><time>2026-05-01T15:22:51.001Z</time></trkpt><trkpt lat="40.93272620487636" lon="9.336108668255912"><ele>383.0</ele><time>2026-05-01T15:22:52.001Z</time></trkpt><trkpt lat="40.93275902484538" lon="9.33594737690875"><ele>382.75</ele><time>2026-05-01T15:22:53.001Z</time></trkpt><trkpt lat="40.93281125247337" lon="9.335807748507209"><ele>382.5</ele><time>2026-05-01T15:22:54.001Z</time></trkpt><trkpt lat="40.93288886797805" lon="9.335692061587258"><ele>382.25</ele><time>2026-05-01T15:22:55.001Z</time></trkpt><trkpt lat="40.93300386962851" lon="9.335640806648708"><ele>382.0</ele><time>2026-05-01T15:22:56.001Z</time></trkpt><trkpt lat="40.93313114052429" lon="9.33560692849507"><ele>382.0</ele><time>2026-05-01T15:22:57.001Z</time></trkpt><trkpt lat="40.93326100009277" lon="9.33558332110695"><ele>382.0</ele><time>2026-05-01T15:22:58.001Z</time></trkpt><trkpt lat="40.93335886505877" lon="9.335598187883708"><ele>382.0</ele><time>2026-05-01T15:22:59.001Z</time></trkpt><trkpt lat="40.93345029156324" lon="9.335644303815263"><ele>382.0</ele><time>2026-05-01T15:23:00.001Z</time></trkpt><trkpt lat="40.933535642576416" lon="9.33573301356951"><ele>382.0</ele><time>2026-05-01T15:23:01.001Z</time></trkpt><trkpt lat="40.933631617517456" lon="9.33581110129896"><ele>383.0</ele><time>2026-05-01T15:23:02.001Z</time></trkpt><trkpt lat="40.93372077917532" lon="9.335900888281106"><ele>384.0</ele><time>2026-05-01T15:23:03.001Z</time></trkpt><trkpt lat="40.93382543378625" lon="9.33596344609175"><ele>385.0</ele><time>2026-05-01T15:23:04.001Z</time></trkpt><trkpt lat="40.933925121326645" lon="9.336016367732988"><ele>386.0</ele><time>2026-05-01T15:23:05.001Z</time></trkpt><trkpt lat="40.93401555176626" lon="9.336098901062995"><ele>387.0</ele><time>2026-05-01T15:23:06.001Z</time></trkpt><trkpt lat="40.93412631400519" lon="9.336161443927937"><ele>387.40000000000003</ele><time>2026-05-01T15:23:07.001Z</time></trkpt><trkpt lat="40.93422332320896" lon="9.336244763879234"><ele>387.8</ele><time>2026-05-01T15:23:08.001Z</time></trkpt><trkpt lat="40.93430945215269" lon="9.336323522380917"><ele>388.2</ele><time>2026-05-01T15:23:09.001Z</time></trkpt><trkpt lat="40.93438474294969" lon="9.336391754428925"><ele>388.6</ele><time>2026-05-01T15:23:10.001Z</time></trkpt><trkpt lat="40.93444598839029" lon="9.33645671539176"><ele>389.0</ele><time>2026-05-01T15:23:11.001Z</time></trkpt><trkpt lat="40.93449722303091" lon="9.336508276030303"><ele>389.0</ele><time>2026-05-01T15:23:12.001Z</time></trkpt><trkpt lat="40.934584897992586" lon="9.336634536031974"><ele>389.0</ele><time>2026-05-01T15:23:14.001Z</time></trkpt><trkpt lat="40.93461704507694" lon="9.33673496892844"><ele>389.0</ele><time>2026-05-01T15:23:15.001Z</time></trkpt><trkpt lat="40.93464435507593" lon="9.336849075694365"><ele>389.0</ele><time>2026-05-01T15:23:16.001Z</time></trkpt><trkpt lat="40.934670247006935" lon="9.336967075967003"><ele>389.0</ele><time>2026-05-01T15:23:17.001Z</time></trkpt><trkpt lat="40.934702842756046" lon="9.33709093158835"><ele>389.0</ele><time>2026-05-01T15:23:18.001Z</time></trkpt><trkpt lat="40.93473972823113" lon="9.33721782060306"><ele>389.0</ele><time>2026-05-01T15:23:19.001Z</time></trkpt><trkpt lat="40.93478173464481" lon="9.337354438952593"><ele>389.0</ele><time>2026-05-01T15:23:20.001Z</time></trkpt><trkpt lat="40.93481970175572" lon="9.337498598043226"><ele>389.0</ele><time>2026-05-01T15:23:21.001Z</time></trkpt><trkpt lat="40.9348588775934" lon="9.337651816863684"><ele>388.0</ele><time>2026-05-01T15:23:22.001Z</time></trkpt><trkpt lat="40.93490276603741" lon="9.337817279500896"><ele>387.0</ele><time>2026-05-01T15:23:23.001Z</time></trkpt><trkpt lat="40.93493983560785" lon="9.337998518610476"><ele>386.0</ele><time>2026-05-01T15:23:24.001Z</time></trkpt><trkpt lat="40.93494958178733" lon="9.33819619240746"><ele>385.0</ele><time>2026-05-01T15:23:25.001Z</time></trkpt><trkpt lat="40.93493320525779" lon="9.338402510310395"><ele>384.0</ele><time>2026-05-01T15:23:26.001Z</time></trkpt><trkpt lat="40.93488387582298" lon="9.33861296330906"><ele>383.0</ele><time>2026-05-01T15:23:27.001Z</time></trkpt><trkpt lat="40.934815129153606" lon="9.338818969838691"><ele>382.0</ele><time>2026-05-01T15:23:28.001Z</time></trkpt><trkpt lat="40.93472640962608" lon="9.339021148588149"><ele>381.3333333333333</ele><time>2026-05-01T15:23:29.001Z</time></trkpt><trkpt lat="40.93464119869781" lon="9.33922369318361"><ele>380.6666666666667</ele><time>2026-05-01T15:23:30.001Z</time></trkpt><trkpt lat="40.93455964969671" lon="9.339426293603806"><ele>380.0</ele><time>2026-05-01T15:23:31.001Z</time></trkpt><trkpt lat="40.934482899611574" lon="9.339636126641091"><ele>380.6666666666667</ele><time>2026-05-01T15:23:32.001Z</time></trkpt><trkpt lat="40.93442580465752" lon="9.339858437835503"><ele>381.3333333333333</ele><time>2026-05-01T15:23:33.001Z</time></trkpt><trkpt lat="40.93438279932952" lon="9.340079619511354"><ele>382.0</ele><time>2026-05-01T15:23:34.001Z</time></trkpt><trkpt lat="40.9343475902646" lon="9.340315512238277"><ele>382.0</ele><time>2026-05-01T15:23:35.001Z</time></trkpt><trkpt lat="40.93431804951014" lon="9.340534425488311"><ele>382.0</ele><time>2026-05-01T15:23:36.001Z</time></trkpt><trkpt lat="40.93429056573525" lon="9.340748520332063"><ele>382.0</ele><time>2026-05-01T15:23:37.001Z</time></trkpt><trkpt lat="40.93426445991488" lon="9.340948671412768"><ele>381.75</ele><time>2026-05-01T15:23:38.001Z</time></trkpt><trkpt lat="40.934241794168635" lon="9.341125390013906"><ele>381.5</ele><time>2026-05-01T15:23:39.001Z</time></trkpt><trkpt lat="40.93420754645089" lon="9.341287111129912"><ele>381.25</ele><time>2026-05-01T15:23:40.001Z</time></trkpt><trkpt lat="40.9341869625455" lon="9.341440321397396"><ele>381.0</ele><time>2026-05-01T15:23:41.001Z</time></trkpt><trkpt lat="40.93416608839839" lon="9.341593610479455"><ele>380.5</ele><time>2026-05-01T15:23:42.001Z</time></trkpt><trkpt lat="40.93427560934052" lon="9.341782095971165"><ele>380.0</ele><time>2026-05-01T15:23:43.001Z</time></trkpt><trkpt lat="40.93429816266135" lon="9.341949324573996"><ele>379.5</ele><time>2026-05-01T15:23:44.001Z</time></trkpt><trkpt lat="40.934338049583" lon="9.342115717458196"><ele>379.0</ele><time>2026-05-01T15:23:45.001Z</time></trkpt><trkpt lat="40.934362217681176" lon="9.342303892113916"><ele>378.66666666666663</ele><time>2026-05-01T15:23:46.001Z</time></trkpt><trkpt lat="40.93438974987057" lon="9.342495225070406"><ele>378.3333333333333</ele><time>2026-05-01T15:23:47.001Z</time></trkpt><trkpt lat="40.93441255932834" lon="9.34270899807662"><ele>378.0</ele><time>2026-05-01T15:23:48.001Z</time></trkpt><trkpt lat="40.93443416300159" lon="9.342905667338893"><ele>378.75</ele><time>2026-05-01T15:23:49.001Z</time></trkpt><trkpt lat="40.934438060896966" lon="9.343072868329363"><ele>379.5</ele><time>2026-05-01T15:23:50.001Z</time></trkpt><trkpt lat="40.93449193588717" lon="9.343203900392943"><ele>380.25</ele><time>2026-05-01T15:23:51.001Z</time></trkpt><trkpt lat="40.93456151439811" lon="9.343357413951754"><ele>381.0</ele><time>2026-05-01T15:23:52.001Z</time></trkpt><trkpt lat="40.93462624044285" lon="9.343547230279489"><ele>381.0</ele><time>2026-05-01T15:23:53.001Z</time></trkpt><trkpt lat="40.9347047677998" lon="9.343741119497492"><ele>381.0</ele><time>2026-05-01T15:23:54.001Z</time></trkpt><trkpt lat="40.934768091817084" lon="9.343956340584409"><ele>381.0</ele><time>2026-05-01T15:23:55.001Z</time></trkpt><trkpt lat="40.93480734214982" lon="9.344180089858117"><ele>381.6666666666667</ele><time>2026-05-01T15:23:56.001Z</time></trkpt><trkpt lat="40.93482800203903" lon="9.344405715033078"><ele>382.33333333333337</ele><time>2026-05-01T15:23:57.001Z</time></trkpt><trkpt lat="40.934850141581286" lon="9.344630591486423"><ele>383.0</ele><time>2026-05-01T15:23:58.001Z</time></trkpt><trkpt lat="40.93487687058216" lon="9.344849238768518"><ele>383.5</ele><time>2026-05-01T15:23:59.001Z</time></trkpt><trkpt lat="40.93490566102363" lon="9.34504472104339"><ele>384.0</ele><time>2026-05-01T15:24:00.001Z</time></trkpt><trkpt lat="40.934936332229725" lon="9.345219399939102"><ele>384.5</ele><time>2026-05-01T15:24:01.001Z</time></trkpt><trkpt lat="40.93496332801121" lon="9.34537466554904"><ele>385.0</ele><time>2026-05-01T15:24:02.001Z</time></trkpt><trkpt lat="40.93499449156723" lon="9.345536138070816"><ele>385.0</ele><time>2026-05-01T15:24:03.001Z</time></trkpt><trkpt lat="40.935030511897175" lon="9.345674251838414"><ele>385.0</ele><time>2026-05-01T15:24:04.001Z</time></trkpt><trkpt lat="40.935079579876884" lon="9.345781212938633"><ele>385.0</ele><time>2026-05-01T15:24:05.001Z</time></trkpt><trkpt lat="40.93517851713999" lon="9.345814468703132"><ele>385.0</ele><time>2026-05-01T15:24:06.001Z</time></trkpt><trkpt lat="40.93528079502638" lon="9.345837702395064"><ele>385.0</ele><time>2026-05-01T15:24:07.001Z</time></trkpt><trkpt lat="40.935356924254386" lon="9.345906759897638"><ele>384.8</ele><time>2026-05-01T15:24:08.001Z</time></trkpt><trkpt lat="40.93539456557493" lon="9.346005959341486"><ele>384.6</ele><time>2026-05-01T15:24:09.001Z</time></trkpt><trkpt lat="40.93540224016673" lon="9.346162077605873"><ele>384.4</ele><time>2026-05-01T15:24:10.001Z</time></trkpt><trkpt lat="40.93545347194631" lon="9.346308857272371"><ele>384.2</ele><time>2026-05-01T15:24:11.001Z</time></trkpt><trkpt lat="40.935512146307374" lon="9.34642435423534"><ele>384.0</ele><time>2026-05-01T15:24:12.001Z</time></trkpt><trkpt lat="40.93558316153457" lon="9.346491043963795"><ele>383.79999999999995</ele><time>2026-05-01T15:24:13.001Z</time></trkpt><trkpt lat="40.93564996868824" lon="9.346569395829116"><ele>383.59999999999997</ele><time>2026-05-01T15:24:14.001Z</time></trkpt><trkpt lat="40.93572188869231" lon="9.34664130994572"><ele>383.4</ele><time>2026-05-01T15:24:15.001Z</time></trkpt><trkpt lat="40.93579695007282" lon="9.346716763041991"><ele>383.2</ele><time>2026-05-01T15:24:16.001Z</time></trkpt><trkpt lat="40.93588317157229" lon="9.34677941836271"><ele>383.0</ele><time>2026-05-01T15:24:17.001Z</time></trkpt><trkpt lat="40.93596113365526" lon="9.34687203837563"><ele>383.0</ele><time>2026-05-01T15:24:18.001Z</time></trkpt><trkpt lat="40.936049340457686" lon="9.346962563574573"><ele>383.0</ele><time>2026-05-01T15:24:19.001Z</time></trkpt><trkpt lat="40.936135986958035" lon="9.347049871413637"><ele>383.0</ele><time>2026-05-01T15:24:20.001Z</time></trkpt><trkpt lat="40.936214322156346" lon="9.34713667784278"><ele>383.0</ele><time>2026-05-01T15:24:21.001Z</time></trkpt><trkpt lat="40.93628672188549" lon="9.347213086455195"><ele>383.0</ele><time>2026-05-01T15:24:22.001Z</time></trkpt><trkpt lat="40.936362270926885" lon="9.347285604873592"><ele>383.59999999999997</ele><time>2026-05-01T15:24:23.001Z</time></trkpt><trkpt lat="40.93644284242879" lon="9.347361310459537"><ele>384.2</ele><time>2026-05-01T15:24:24.001Z</time></trkpt><trkpt lat="40.93652344312449" lon="9.347438066321311"><ele>384.8</ele><time>2026-05-01T15:24:25.001Z</time></trkpt><trkpt lat="40.93660852542592" lon="9.347518092557403"><ele>385.4</ele><time>2026-05-01T15:24:26.001Z</time></trkpt><trkpt lat="40.936691178671275" lon="9.347596497610503"><ele>386.0</ele><time>2026-05-01T15:24:27.001Z</time></trkpt><trkpt lat="40.936780199282246" lon="9.347688117368065"><ele>386.0</ele><time>2026-05-01T15:24:28.001Z</time></trkpt><trkpt lat="40.936866557810866" lon="9.347773717154167"><ele>386.0</ele><time>2026-05-01T15:24:29.001Z</time></trkpt><trkpt lat="40.93696555510171" lon="9.347866467556699"><ele>386.0</ele><time>2026-05-01T15:24:30.001Z</time></trkpt><trkpt lat="40.937056420050766" lon="9.347956392449596"><ele>386.0</ele><time>2026-05-01T15:24:31.001Z</time></trkpt><trkpt lat="40.93715411734677" lon="9.348052000791979"><ele>385.75</ele><time>2026-05-01T15:24:32.001Z</time></trkpt><trkpt lat="40.93725200277718" lon="9.348145263522888"><ele>385.5</ele><time>2026-05-01T15:24:33.001Z</time></trkpt><trkpt lat="40.93734158667881" lon="9.348261285683282"><ele>385.25</ele><time>2026-05-01T15:24:34.001Z</time></trkpt><trkpt lat="40.93744552303968" lon="9.348363649656598"><ele>385.0</ele><time>2026-05-01T15:24:35.001Z</time></trkpt><trkpt lat="40.937550745373585" lon="9.348464998970043"><ele>386.5</ele><time>2026-05-01T15:24:36.001Z</time></trkpt><trkpt lat="40.937654375970816" lon="9.348541611613845"><ele>388.0</ele><time>2026-05-01T15:24:37.001Z</time></trkpt><trkpt lat="40.93772824860106" lon="9.348612814843372"><ele>389.5</ele><time>2026-05-01T15:24:38.001Z</time></trkpt><trkpt lat="40.93782074334204" lon="9.348669766330431"><ele>391.0</ele><time>2026-05-01T15:24:39.001Z</time></trkpt><trkpt lat="40.93795664268198" lon="9.348743791148264"><ele>391.0</ele><time>2026-05-01T15:24:40.001Z</time></trkpt><trkpt lat="40.93810094575263" lon="9.348837656321926"><ele>391.0</ele><time>2026-05-01T15:24:41.001Z</time></trkpt><trkpt lat="40.93824543759273" lon="9.348900408669389"><ele>391.0</ele><time>2026-05-01T15:24:42.001Z</time></trkpt><trkpt lat="40.93840393939261" lon="9.348973178412125"><ele>393.0</ele><time>2026-05-01T15:24:43.001Z</time></trkpt><trkpt lat="40.93856521916846" lon="9.349041719421841"><ele>395.0</ele><time>2026-05-01T15:24:44.001Z</time></trkpt><trkpt lat="40.93872218449674" lon="9.349113973918042"><ele>397.0</ele><time>2026-05-01T15:24:45.001Z</time></trkpt><trkpt lat="40.93886017246303" lon="9.34918585738158"><ele>397.0</ele><time>2026-05-01T15:24:46.001Z</time></trkpt><trkpt lat="40.93899208007646" lon="9.349255048806128"><ele>397.0</ele><time>2026-05-01T15:24:47.001Z</time></trkpt><trkpt lat="40.9391347002413" lon="9.34932897508307"><ele>397.0</ele><time>2026-05-01T15:24:48.001Z</time></trkpt><trkpt lat="40.93929562214448" lon="9.349407241973156"><ele>399.5</ele><time>2026-05-01T15:24:49.001Z</time></trkpt><trkpt lat="40.93945459436818" lon="9.349480206745923"><ele>402.0</ele><time>2026-05-01T15:24:50.001Z</time></trkpt><trkpt lat="40.939592403485854" lon="9.349527827150814"><ele>404.5</ele><time>2026-05-01T15:24:51.001Z</time></trkpt><trkpt lat="40.93969788655842" lon="9.349553459975661"><ele>407.0</ele><time>2026-05-01T15:24:52.001Z</time></trkpt><trkpt lat="40.939775669685" lon="9.349593261702342"><ele>407.0</ele><time>2026-05-01T15:24:53.001Z</time></trkpt><trkpt lat="40.93985648355914" lon="9.349662036604022"><ele>407.0</ele><time>2026-05-01T15:24:54.001Z</time></trkpt><trkpt lat="40.939907553780394" lon="9.349791619185865"><ele>407.0</ele><time>2026-05-01T15:24:55.001Z</time></trkpt><trkpt lat="40.93999103630474" lon="9.349919061276932"><ele>407.0</ele><time>2026-05-01T15:24:56.001Z</time></trkpt><trkpt lat="40.940058534055446" lon="9.350070579341038"><ele>408.5</ele><time>2026-05-01T15:24:57.001Z</time></trkpt><trkpt lat="40.94010356187822" lon="9.350166274539387"><ele>410.0</ele><time>2026-05-01T15:24:58.001Z</time></trkpt><trkpt lat="40.94015045248329" lon="9.350261516537078"><ele>411.5</ele><time>2026-05-01T15:25:00.001Z</time></trkpt><trkpt lat="40.94030455265544" lon="9.350206062183236"><ele>413.0</ele><time>2026-05-01T15:25:01.001Z</time></trkpt><trkpt lat="40.94043228303088" lon="9.350209084504575"><ele>413.0</ele><time>2026-05-01T15:25:02.001Z</time></trkpt><trkpt lat="40.94057664279597" lon="9.350222218076413"><ele>413.0</ele><time>2026-05-01T15:25:03.001Z</time></trkpt><trkpt lat="40.940744567477545" lon="9.350236175597674"><ele>413.0</ele><time>2026-05-01T15:25:04.001Z</time></trkpt><trkpt lat="40.94093805180208" lon="9.350254043656252"><ele>415.5</ele><time>2026-05-01T15:25:05.001Z</time></trkpt><trkpt lat="40.94111623155272" lon="9.350268159960251"><ele>418.0</ele><time>2026-05-01T15:25:06.001Z</time></trkpt><trkpt lat="40.941244770034324" lon="9.350277392155741"><ele>420.5</ele><time>2026-05-01T15:25:07.001Z</time></trkpt><trkpt lat="40.94135023730629" lon="9.350302548300164"><ele>423.0</ele><time>2026-05-01T15:25:08.001Z</time></trkpt><trkpt lat="40.94144627158358" lon="9.35029165928068"><ele>423.0</ele><time>2026-05-01T15:25:09.001Z</time></trkpt><trkpt lat="40.941524957092575" lon="9.350322257566086"><ele>423.0</ele><time>2026-05-01T15:25:10.001Z</time></trkpt><trkpt lat="40.94160623390473" lon="9.350391374628067"><ele>423.0</ele><time>2026-05-01T15:25:11.001Z</time></trkpt><trkpt lat="40.94165848450633" lon="9.350498903727221"><ele>423.0</ele><time>2026-05-01T15:25:12.001Z</time></trkpt><trkpt lat="40.94174864264534" lon="9.350566985411508"><ele>423.0</ele><time>2026-05-01T15:25:13.001Z</time></trkpt><trkpt lat="40.94183982799158" lon="9.350662632492115"><ele>424.0</ele><time>2026-05-01T15:25:14.001Z</time></trkpt><trkpt lat="40.94195018251007" lon="9.350766807202678"><ele>425.0</ele><time>2026-05-01T15:25:15.001Z</time></trkpt><trkpt lat="40.942034830224856" lon="9.350848039546328"><ele>426.0</ele><time>2026-05-01T15:25:16.001Z</time></trkpt><trkpt lat="40.94210858683842" lon="9.350889529305167"><ele>427.0</ele><time>2026-05-01T15:25:17.001Z</time></trkpt><trkpt lat="40.94226392408119" lon="9.350880567983065"><ele>427.0</ele><time>2026-05-01T15:25:19.001Z</time></trkpt><trkpt lat="40.94237703905703" lon="9.350864832963905"><ele>427.00000000000006</ele><time>2026-05-01T15:25:20.001Z</time></trkpt><trkpt lat="40.942481496030176" lon="9.350855281593565"><ele>427.00000000000006</ele><time>2026-05-01T15:25:21.001Z</time></trkpt><trkpt lat="40.94256467395248" lon="9.350868566482795"><ele>427.0</ele><time>2026-05-01T15:25:22.001Z</time></trkpt><trkpt lat="40.942631168148" lon="9.350942495178467"><ele>427.0</ele><time>2026-05-01T15:25:23.001Z</time></trkpt><trkpt lat="40.942704089912695" lon="9.351045003529267"><ele>428.20000000000005</ele><time>2026-05-01T15:25:24.001Z</time></trkpt><trkpt lat="40.94276758757711" lon="9.351136420034013"><ele>429.40000000000003</ele><time>2026-05-01T15:25:25.001Z</time></trkpt><trkpt lat="40.942847025007595" lon="9.351191871897392"><ele>430.59999999999997</ele><time>2026-05-01T15:25:26.001Z</time></trkpt><trkpt lat="40.942942871680685" lon="9.351226371391007"><ele>431.79999999999995</ele><time>2026-05-01T15:25:27.001Z</time></trkpt><trkpt lat="40.943036640464605" lon="9.351245242938113"><ele>433.0</ele><time>2026-05-01T15:25:28.001Z</time></trkpt><trkpt lat="40.943117645385854" lon="9.351276053120776"><ele>432.59999999999997</ele><time>2026-05-01T15:25:29.001Z</time></trkpt><trkpt lat="40.943164738345544" lon="9.35142538773124"><ele>432.19999999999993</ele><time>2026-05-01T15:25:31.001Z</time></trkpt><trkpt lat="40.943228877629075" lon="9.35154292127098"><ele>431.8</ele><time>2026-05-01T15:25:32.001Z</time></trkpt><trkpt lat="40.94330457369079" lon="9.351627840790593"><ele>431.4</ele><time>2026-05-01T15:25:33.001Z</time></trkpt><trkpt lat="40.94338938066446" lon="9.351691600439935"><ele>431.0</ele><time>2026-05-01T15:25:34.001Z</time></trkpt><trkpt lat="40.94347478651488" lon="9.351767057722403"><ele>431.0</ele><time>2026-05-01T15:25:35.001Z</time></trkpt><trkpt lat="40.943527270966165" lon="9.351844065651544"><ele>431.0</ele><time>2026-05-01T15:25:36.001Z</time></trkpt><trkpt lat="40.94358040684744" lon="9.351909473406412"><ele>431.0</ele><time>2026-05-01T15:25:37.001Z</time></trkpt><trkpt lat="40.94365705889386" lon="9.351947100205837"><ele>431.0</ele><time>2026-05-01T15:25:38.001Z</time></trkpt><trkpt lat="40.943754281457046" lon="9.3519641917013"><ele>431.0</ele><time>2026-05-01T15:25:39.001Z</time></trkpt><trkpt lat="40.94387298658483" lon="9.351992313792895"><ele>431.0</ele><time>2026-05-01T15:25:40.001Z</time></trkpt><trkpt lat="40.943980693296645" lon="9.352039575799077"><ele>431.0</ele><time>2026-05-01T15:25:41.001Z</time></trkpt><trkpt lat="40.94408444796987" lon="9.352099883849881"><ele>431.0</ele><time>2026-05-01T15:25:42.001Z</time></trkpt><trkpt lat="40.94416369881939" lon="9.352168920763159"><ele>431.0</ele><time>2026-05-01T15:25:43.001Z</time></trkpt><trkpt lat="40.944226621971346" lon="9.352250900105936"><ele>431.0</ele><time>2026-05-01T15:25:44.001Z</time></trkpt><trkpt lat="40.94430706063953" lon="9.35235905896901"><ele>431.4</ele><time>2026-05-01T15:25:45.001Z</time></trkpt><trkpt lat="40.94438333290117" lon="9.352458382264421"><ele>431.8</ele><time>2026-05-01T15:25:46.001Z</time></trkpt><trkpt lat="40.94446459499194" lon="9.352534193676627"><ele>432.19999999999993</ele><time>2026-05-01T15:25:47.001Z</time></trkpt><trkpt lat="40.94455992918309" lon="9.352592690494822"><ele>432.59999999999997</ele><time>2026-05-01T15:25:48.001Z</time></trkpt><trkpt lat="40.94463823918801" lon="9.35267421811587"><ele>433.0</ele><time>2026-05-01T15:25:49.001Z</time></trkpt><trkpt lat="40.944732664375614" lon="9.352742992415791"><ele>433.0</ele><time>2026-05-01T15:25:50.001Z</time></trkpt><trkpt lat="40.94484137112388" lon="9.352865906607596"><ele>433.0</ele><time>2026-05-01T15:25:51.001Z</time></trkpt><trkpt lat="40.94495366198712" lon="9.353000560420302"><ele>433.0</ele><time>2026-05-01T15:25:52.001Z</time></trkpt><trkpt lat="40.94506867662341" lon="9.353136873488197"><ele>433.0</ele><time>2026-05-01T15:25:53.001Z</time></trkpt><trkpt lat="40.94518111229078" lon="9.353279180271581"><ele>434.25</ele><time>2026-05-01T15:25:54.001Z</time></trkpt><trkpt lat="40.945282209698455" lon="9.35340176023029"><ele>435.5</ele><time>2026-05-01T15:25:55.001Z</time></trkpt><trkpt lat="40.94536926021033" lon="9.353489018613434"><ele>436.75</ele><time>2026-05-01T15:25:56.001Z</time></trkpt><trkpt lat="40.94544370932189" lon="9.353592920882106"><ele>438.0</ele><time>2026-05-01T15:25:57.001Z</time></trkpt><trkpt lat="40.945530213148764" lon="9.353687964148937"><ele>438.0</ele><time>2026-05-01T15:25:58.001Z</time></trkpt><trkpt lat="40.94561513125907" lon="9.353799056958898"><ele>437.99999999999994</ele><time>2026-05-01T15:25:59.001Z</time></trkpt><trkpt lat="40.94568110471749" lon="9.353904586138965"><ele>437.99999999999994</ele><time>2026-05-01T15:26:00.001Z</time></trkpt><trkpt lat="40.94574765246283" lon="9.353994203724067"><ele>438.0</ele><time>2026-05-01T15:26:01.001Z</time></trkpt><trkpt lat="40.9457955753631" lon="9.354120897739158"><ele>438.0</ele><time>2026-05-01T15:26:02.001Z</time></trkpt><trkpt lat="40.945827814117074" lon="9.354268349599625"><ele>438.5</ele><time>2026-05-01T15:26:03.001Z</time></trkpt><trkpt lat="40.94588715853376" lon="9.354404401957662"><ele>439.0</ele><time>2026-05-01T15:26:04.001Z</time></trkpt><trkpt lat="40.945978512251656" lon="9.354527651740085"><ele>439.5</ele><time>2026-05-01T15:26:05.001Z</time></trkpt><trkpt lat="40.94606707480974" lon="9.354653891545038"><ele>440.0</ele><time>2026-05-01T15:26:06.001Z</time></trkpt><trkpt lat="40.94612537448872" lon="9.354763483860923"><ele>440.0</ele><time>2026-05-01T15:26:07.001Z</time></trkpt><trkpt lat="40.94616271465376" lon="9.354835028156431"><ele>440.0</ele><time>2026-05-01T15:26:08Z</time></trkpt><trkpt lat="40.94619553160435" lon="9.354940224961474"><ele>440.0</ele><time>2026-05-01T15:26:10Z</time></trkpt><trkpt lat="40.946266686266505" lon="9.3550334384585"><ele>440.0</ele><time>2026-05-01T15:26:12Z</time></trkpt><trkpt lat="40.946418174321245" lon="9.355113745802138"><ele>440.0</ele><time>2026-05-01T15:26:14Z</time></trkpt><trkpt lat="40.94646455045038" lon="9.355197250615378"><ele>439.99999999999994</ele><time>2026-05-01T15:26:15Z</time></trkpt><trkpt lat="40.946497656105414" lon="9.355356616154415"><ele>440.0</ele><time>2026-05-01T15:26:17Z</time></trkpt><trkpt lat="40.946525520559305" lon="9.355443516482751"><ele>440.0</ele><time>2026-05-01T15:26:18Z</time></trkpt><trkpt lat="40.94657373093359" lon="9.355531884540675"><ele>440.0</ele><time>2026-05-01T15:26:19Z</time></trkpt><trkpt lat="40.946616185761044" lon="9.355630806959782"><ele>439.99999999999994</ele><time>2026-05-01T15:26:20Z</time></trkpt><trkpt lat="40.946656046044446" lon="9.355705648395015"><ele>440.0</ele><time>2026-05-01T15:26:21Z</time></trkpt><trkpt lat="40.94669729226306" lon="9.355797941095028"><ele>436.2</ele><time>2026-05-01T15:26:22Z</time></trkpt><trkpt lat="40.94673004795059" lon="9.355916401467239"><ele>432.4</ele><time>2026-05-01T15:26:23Z</time></trkpt><trkpt lat="40.946744351556866" lon="9.356028155708968"><ele>428.6</ele><time>2026-05-01T15:26:24Z</time></trkpt><trkpt lat="40.946781979206925" lon="9.35613469621658"><ele>424.8</ele><time>2026-05-01T15:26:25Z</time></trkpt><trkpt lat="40.94684198412968" lon="9.356236327620271"><ele>421.0</ele><time>2026-05-01T15:26:26Z</time></trkpt><trkpt lat="40.94690952407819" lon="9.356332705203128"><ele>420.50000000000006</ele><time>2026-05-01T15:26:27Z</time></trkpt><trkpt lat="40.946980812250374" lon="9.356422351635315"><ele>420.0</ele><time>2026-05-01T15:26:28Z</time></trkpt><trkpt lat="40.94705471351174" lon="9.356495015301416"><ele>419.5</ele><time>2026-05-01T15:26:29Z</time></trkpt><trkpt lat="40.94711483987925" lon="9.356544685406735"><ele>419.0</ele><time>2026-05-01T15:26:30Z</time></trkpt><trkpt lat="40.94716301892178" lon="9.356618916584498"><ele>418.50000000000006</ele><time>2026-05-01T15:26:31Z</time></trkpt><trkpt lat="40.94722332086593" lon="9.35672189186477"><ele>418.0</ele><time>2026-05-01T15:26:32Z</time></trkpt><trkpt lat="40.947279929625516" lon="9.356826985544439"><ele>418.0</ele><time>2026-05-01T15:26:33Z</time></trkpt><trkpt lat="40.947341395424054" lon="9.356922386557468"><ele>418.0</ele><time>2026-05-01T15:26:34Z</time></trkpt><trkpt lat="40.94739932693895" lon="9.35701004990662"><ele>418.0</ele><time>2026-05-01T15:26:35Z</time></trkpt><trkpt lat="40.947453430373905" lon="9.357097866167095"><ele>418.0</ele><time>2026-05-01T15:26:36Z</time></trkpt><trkpt lat="40.94750331485395" lon="9.35720094299866"><ele>418.0</ele><time>2026-05-01T15:26:37Z</time></trkpt><trkpt lat="40.94756074092288" lon="9.357320351213598"><ele>416.59999999999997</ele><time>2026-05-01T15:26:38Z</time></trkpt><trkpt lat="40.947625878229445" lon="9.357418998666923"><ele>415.2</ele><time>2026-05-01T15:26:39Z</time></trkpt><trkpt lat="40.9476846537732" lon="9.357486703834924"><ele>413.8</ele><time>2026-05-01T15:26:40Z</time></trkpt><trkpt lat="40.94777929301252" lon="9.357607246879235"><ele>412.4</ele><time>2026-05-01T15:26:42Z</time></trkpt><trkpt lat="40.94782790381091" lon="9.357682614840733"><ele>411.0</ele><time>2026-05-01T15:26:43Z</time></trkpt><trkpt lat="40.947925142202436" lon="9.357756498387001"><ele>411.0</ele><time>2026-05-01T15:26:45Z</time></trkpt><trkpt lat="40.94806483810201" lon="9.357808471879743"><ele>411.0</ele><time>2026-05-01T15:26:47Z</time></trkpt><trkpt lat="40.94816945059048" lon="9.35787556541674"><ele>411.0</ele><time>2026-05-01T15:26:48Z</time></trkpt><trkpt lat="40.94825302721797" lon="9.357958172237026"><ele>411.0</ele><time>2026-05-01T15:26:49Z</time></trkpt><trkpt lat="40.948323560192016" lon="9.35802304222624"><ele>410.4</ele><time>2026-05-01T15:26:50Z</time></trkpt><trkpt lat="40.94838785458165" lon="9.358081582945289"><ele>409.8</ele><time>2026-05-01T15:26:51Z</time></trkpt><trkpt lat="40.94847726621147" lon="9.35811981693804"><ele>409.2</ele><time>2026-05-01T15:26:52Z</time></trkpt><trkpt lat="40.94858023906045" lon="9.358168129769037"><ele>408.59999999999997</ele><time>2026-05-01T15:26:53Z</time></trkpt><trkpt lat="40.94866151487328" lon="9.358247610442623"><ele>408.0</ele><time>2026-05-01T15:26:54Z</time></trkpt><trkpt lat="40.94873058995458" lon="9.358341655126459"><ele>408.0</ele><time>2026-05-01T15:26:55Z</time></trkpt><trkpt lat="40.948795364627934" lon="9.358446213180644"><ele>408.0</ele><time>2026-05-01T15:26:56Z</time></trkpt><trkpt lat="40.948869629647184" lon="9.358557938038954"><ele>408.0</ele><time>2026-05-01T15:26:57Z</time></trkpt><trkpt lat="40.948953984632176" lon="9.358665084140409"><ele>408.0</ele><time>2026-05-01T15:26:58Z</time></trkpt><trkpt lat="40.94903467487881" lon="9.358754216536122"><ele>408.0</ele><time>2026-05-01T15:26:59Z</time></trkpt><trkpt lat="40.94908651106757" lon="9.358862175472632"><ele>406.25</ele><time>2026-05-01T15:27:00Z</time></trkpt><trkpt lat="40.94914436676649" lon="9.358993346782109"><ele>404.5</ele><time>2026-05-01T15:27:01Z</time></trkpt><trkpt lat="40.9492178175154" lon="9.359161738810972"><ele>402.75</ele><time>2026-05-01T15:27:02Z</time></trkpt><trkpt lat="40.94927055893928" lon="9.359302427411771"><ele>401.0</ele><time>2026-05-01T15:27:03Z</time></trkpt><trkpt lat="40.94930841035611" lon="9.35941043660604"><ele>400.99999999999994</ele><time>2026-05-01T15:27:04Z</time></trkpt><trkpt lat="40.94934364555401" lon="9.35951772774563"><ele>401.0</ele><time>2026-05-01T15:27:05Z</time></trkpt><trkpt lat="40.94937258454952" lon="9.359598517719458"><ele>401.0</ele><time>2026-05-01T15:27:06Z</time></trkpt><trkpt lat="40.94939067723302" lon="9.359708187201806"><ele>401.0</ele><time>2026-05-01T15:27:08Z</time></trkpt><trkpt lat="40.94941185234541" lon="9.359800338900872"><ele>400.99999999999994</ele><time>2026-05-01T15:27:11Z</time></trkpt><trkpt lat="40.94942570164776" lon="9.359886496466507"><ele>401.0</ele><time>2026-05-01T15:27:15.001Z</time></trkpt><trkpt lat="40.949474062012676" lon="9.359979437933301"><ele>403.14285714285717</ele><time>2026-05-01T15:27:18.001Z</time></trkpt><trkpt lat="40.94951520307842" lon="9.360059542369354"><ele>405.28571428571433</ele><time>2026-05-01T15:27:20.001Z</time></trkpt><trkpt lat="40.94953363731785" lon="9.360148178380113"><ele>407.42857142857144</ele><time>2026-05-01T15:27:23.001Z</time></trkpt><trkpt lat="40.94954402061758" lon="9.360236449766376"><ele>409.57142857142856</ele><time>2026-05-01T15:28:37Z</time></trkpt><trkpt lat="40.94955474726497" lon="9.360325743137494"><ele>411.7142857142857</ele><time>2026-05-01T15:33:30Z</time></trkpt><trkpt lat="40.94957674069285" lon="9.360411445323082"><ele>413.85714285714283</ele><time>2026-05-01T15:33:32Z</time></trkpt><trkpt lat="40.94956760810723" lon="9.360521516857212"><ele>416.0</ele><time>2026-05-01T15:33:33Z</time></trkpt><trkpt lat="40.9495632138051" lon="9.360647242999535"><ele>417.3333333333333</ele><time>2026-05-01T15:33:34Z</time></trkpt><trkpt lat="40.949567352320535" lon="9.360760436730104"><ele>418.66666666666663</ele><time>2026-05-01T15:33:35Z</time></trkpt><trkpt lat="40.94957092415632" lon="9.36084914392294"><ele>420.0</ele><time>2026-05-01T15:33:36Z</time></trkpt><trkpt lat="40.94956486666738" lon="9.360934757393196"><ele>421.33333333333337</ele><time>2026-05-01T15:33:38Z</time></trkpt><trkpt lat="40.94950681173819" lon="9.36097789386526"><ele>422.6666666666667</ele><time>2026-05-01T15:33:43Z</time></trkpt><trkpt lat="40.94945075030602" lon="9.360886601226863"><ele>424.0</ele><time>2026-05-01T15:33:45Z</time></trkpt><trkpt lat="40.94940841021524" lon="9.36078181570205"><ele>424.00000000000006</ele><time>2026-05-01T15:33:47Z</time></trkpt><trkpt lat="40.949343141857824" lon="9.360687298746592"><ele>424.0</ele><time>2026-05-01T15:33:49Z</time></trkpt><trkpt lat="40.949285385844505" lon="9.360618336449635"><ele>424.0</ele><time>2026-05-01T15:33:51Z</time></trkpt><trkpt lat="40.94922149774361" lon="9.360546003626165"><ele>424.0</ele><time>2026-05-01T15:33:53Z</time></trkpt><trkpt lat="40.94916247737777" lon="9.360515827660334"><ele>424.00000000000006</ele><time>2026-05-01T15:34:53Z</time></trkpt><trkpt lat="40.949112352514256" lon="9.360446533894716"><ele>424.0</ele><time>2026-05-01T15:34:55Z</time></trkpt><trkpt lat="40.94907691542915" lon="9.36032983065245"><ele>427.33333333333337</ele><time>2026-05-01T15:34:57Z</time></trkpt><trkpt lat="40.94900672387276" lon="9.36030128982108"><ele>430.6666666666667</ele><time>2026-05-01T15:35:00Z</time></trkpt><trkpt lat="40.94894422935287" lon="9.360233350183154"><ele>434.0</ele><time>2026-05-01T15:35:04Z</time></trkpt><trkpt lat="40.94889650585703" lon="9.360123230939172"><ele>437.33333333333337</ele><time>2026-05-01T15:35:07Z</time></trkpt><trkpt lat="40.948819322783095" lon="9.360037818405319"><ele>440.6666666666667</ele><time>2026-05-01T15:35:10Z</time></trkpt><trkpt lat="40.94877297902797" lon="9.359975016778474"><ele>444.0</ele><time>2026-05-01T15:35:12Z</time></trkpt><trkpt lat="40.948715308902514" lon="9.359894424087628"><ele>444.0</ele><time>2026-05-01T15:35:14Z</time></trkpt><trkpt lat="40.948620054274855" lon="9.359847740537472"><ele>444.0</ele><time>2026-05-01T15:35:16Z</time></trkpt><trkpt lat="40.948517713979385" lon="9.359891812151304"><ele>444.0</ele><time>2026-05-01T15:35:18Z</time></trkpt><trkpt lat="40.9485017674134" lon="9.360021832614459"><ele>444.0</ele><time>2026-05-01T15:35:20Z</time></trkpt><trkpt lat="40.94853874123508" lon="9.360123533361765"><ele>444.0</ele><time>2026-05-01T15:35:22Z</time></trkpt><trkpt lat="40.94856854325357" lon="9.360232922440655"><ele>444.0</ele><time>2026-05-01T15:35:25Z</time></trkpt><trkpt lat="40.94860641493134" lon="9.360332313829968"><ele>444.0</ele><time>2026-05-01T15:35:28Z</time></trkpt><trkpt lat="40.94865455120443" lon="9.360387932877096"><ele>444.0</ele><time>2026-05-01T15:35:30Z</time></trkpt><trkpt lat="40.94869502358211" lon="9.360470263968493"><ele>444.0</ele><time>2026-05-01T15:35:32Z</time></trkpt><trkpt lat="40.94872901801791" lon="9.36057497480153"><ele>444.0</ele><time>2026-05-01T15:35:34.999Z</time></trkpt><trkpt lat="40.94865629913075" lon="9.360630692489044"><ele>444.0</ele><time>2026-05-01T15:35:38Z</time></trkpt><trkpt lat="40.94859365385495" lon="9.360598229164198"><ele>444.0</ele><time>2026-05-01T15:35:40Z</time></trkpt><trkpt lat="40.94854868790474" lon="9.36050119813001"><ele>444.0</ele><time>2026-05-01T15:35:43Z</time></trkpt><trkpt lat="40.948471921864574" lon="9.36043967664236"><ele>444.0</ele><time>2026-05-01T15:35:46Z</time></trkpt><trkpt lat="40.948406934706256" lon="9.36035650684437"><ele>444.0</ele><time>2026-05-01T15:35:48Z</time></trkpt><trkpt lat="40.948344580820034" lon="9.360298698263191"><ele>444.0</ele><time>2026-05-01T15:35:50Z</time></trkpt><trkpt lat="40.94826585612026" lon="9.360237267718945"><ele>444.0</ele><time>2026-05-01T15:35:52Z</time></trkpt><trkpt lat="40.948166450446074" lon="9.360166250933995"><ele>448.8333333333333</ele><time>2026-05-01T15:35:54Z</time></trkpt><trkpt lat="40.94811144173903" lon="9.360122820622784"><ele>453.66666666666663</ele><time>2026-05-01T15:35:55Z</time></trkpt><trkpt lat="40.948010432598714" lon="9.360082212373355"><ele>458.5</ele><time>2026-05-01T15:35:57Z</time></trkpt><trkpt lat="40.947908112969074" lon="9.360021189512766"><ele>463.3333333333333</ele><time>2026-05-01T15:35:59Z</time></trkpt><trkpt lat="40.94785774349743" lon="9.359922475684895"><ele>468.16666666666663</ele><time>2026-05-01T15:36:01Z</time></trkpt><trkpt lat="40.94780147047771" lon="9.359879094056224"><ele>473.0</ele><time>2026-05-01T15:36:04Z</time></trkpt><trkpt lat="40.94774364908008" lon="9.359827878621138"><ele>472.99999999999994</ele><time>2026-05-01T15:36:17Z</time></trkpt><trkpt lat="40.947666404413646" lon="9.359786623245247"><ele>473.0</ele><time>2026-05-01T15:39:03.999Z</time></trkpt><trkpt lat="40.947573826132114" lon="9.35972512055606"><ele>473.0</ele><time>2026-05-01T15:40:18.999Z</time></trkpt><trkpt lat="40.94751665460618" lon="9.359682172004673"><ele>473.0</ele><time>2026-05-01T15:40:19.999Z</time></trkpt><trkpt lat="40.947455978141576" lon="9.359629112027989"><ele>472.99999999999994</ele><time>2026-05-01T15:40:20.999Z</time></trkpt><trkpt lat="40.94739317059947" lon="9.359577483576848"><ele>473.0</ele><time>2026-05-01T15:40:21.999Z</time></trkpt><trkpt lat="40.9473316199996" lon="9.359535646176651"><ele>473.2</ele><time>2026-05-01T15:40:22.999Z</time></trkpt><trkpt lat="40.94726409444075" lon="9.359480002237872"><ele>473.4</ele><time>2026-05-01T15:40:23.999Z</time></trkpt><trkpt lat="40.947164810995005" lon="9.359402739735238"><ele>473.59999999999997</ele><time>2026-05-01T15:40:25.999Z</time></trkpt><trkpt lat="40.947064725286914" lon="9.359322493039558"><ele>473.79999999999995</ele><time>2026-05-01T15:40:27.999Z</time></trkpt><trkpt lat="40.94694464443102" lon="9.35926268267379"><ele>474.0</ele><time>2026-05-01T15:40:29.999Z</time></trkpt><trkpt lat="40.9468499754031" lon="9.359168133931309"><ele>474.0</ele><time>2026-05-01T15:40:31.999Z</time></trkpt><trkpt lat="40.9467499561651" lon="9.359075755504909"><ele>474.0</ele><time>2026-05-01T15:40:33.999Z</time></trkpt><trkpt lat="40.9467040033395" lon="9.35900483335517"><ele>474.0</ele><time>2026-05-01T15:40:34.999Z</time></trkpt><trkpt lat="40.946652631276436" lon="9.358925371638872"><ele>474.0</ele><time>2026-05-01T15:40:35.999Z</time></trkpt><trkpt lat="40.94659841435345" lon="9.358840805741401"><ele>474.0</ele><time>2026-05-01T15:40:36.999Z</time></trkpt><trkpt lat="40.94654291651572" lon="9.358756092028065"><ele>474.0</ele><time>2026-05-01T15:40:37.999Z</time></trkpt><trkpt lat="40.946485019801244" lon="9.358666948475758"><ele>474.4</ele><time>2026-05-01T15:40:38.999Z</time></trkpt><trkpt lat="40.94640924124575" lon="9.35861262282336"><ele>474.79999999999995</ele><time>2026-05-01T15:40:39.999Z</time></trkpt><trkpt lat="40.94632382017839" lon="9.358550090407679"><ele>475.20000000000005</ele><time>2026-05-01T15:40:40.999Z</time></trkpt><trkpt lat="40.946245513249785" lon="9.358476318153762"><ele>475.6</ele><time>2026-05-01T15:40:41.999Z</time></trkpt><trkpt lat="40.946174596712076" lon="9.358394649117336"><ele>476.0</ele><time>2026-05-01T15:40:42.999Z</time></trkpt><trkpt lat="40.946111990158094" lon="9.358299801914892"><ele>475.99999999999994</ele><time>2026-05-01T15:40:43.999Z</time></trkpt><trkpt lat="40.94603758349672" lon="9.358228159852946"><ele>476.0</ele><time>2026-05-01T15:40:44.999Z</time></trkpt><trkpt lat="40.94596692393107" lon="9.358167184060756"><ele>476.0</ele><time>2026-05-01T15:40:45.999Z</time></trkpt><trkpt lat="40.945890567843605" lon="9.35810821016176"><ele>476.0</ele><time>2026-05-01T15:40:46.999Z</time></trkpt><trkpt lat="40.945809750541365" lon="9.358049109088475"><ele>475.99999999999994</ele><time>2026-05-01T15:40:47.999Z</time></trkpt><trkpt lat="40.94573347740547" lon="9.357985051412093"><ele>476.0</ele><time>2026-05-01T15:40:48.999Z</time></trkpt><trkpt lat="40.945650093796516" lon="9.3579166488785"><ele>476.25</ele><time>2026-05-01T15:40:49.999Z</time></trkpt><trkpt lat="40.94554692011659" lon="9.357828674157032"><ele>476.5</ele><time>2026-05-01T15:40:50.999Z</time></trkpt><trkpt lat="40.94544372727866" lon="9.357736751577843"><ele>476.75</ele><time>2026-05-01T15:40:51.999Z</time></trkpt><trkpt lat="40.945339963298885" lon="9.357643645313635"><ele>477.0</ele><time>2026-05-01T15:40:52.999Z</time></trkpt><trkpt lat="40.94522858651056" lon="9.357567496290507"><ele>477.0</ele><time>2026-05-01T15:40:53.999Z</time></trkpt><trkpt lat="40.94511400143154" lon="9.357498804464573"><ele>477.00000000000006</ele><time>2026-05-01T15:40:54.999Z</time></trkpt><trkpt lat="40.945009580208776" lon="9.357430494339948"><ele>477.00000000000006</ele><time>2026-05-01T15:40:55.999Z</time></trkpt><trkpt lat="40.944931115122344" lon="9.357370822461709"><ele>477.0</ele><time>2026-05-01T15:40:56.999Z</time></trkpt><trkpt lat="40.94485075673936" lon="9.357329521594139"><ele>477.0</ele><time>2026-05-01T15:40:57.999Z</time></trkpt><trkpt lat="40.944759488863156" lon="9.357293358014747"><ele>479.40000000000003</ele><time>2026-05-01T15:40:58.999Z</time></trkpt><trkpt lat="40.94467830454361" lon="9.35726705959068"><ele>481.80000000000007</ele><time>2026-05-01T15:40:59.999Z</time></trkpt><trkpt lat="40.94460712993617" lon="9.357268414347402"><ele>484.2</ele><time>2026-05-01T15:41:00.999Z</time></trkpt><trkpt lat="40.944534501898666" lon="9.357292254100894"><ele>486.6</ele><time>2026-05-01T15:41:01.999Z</time></trkpt><trkpt lat="40.94442662294522" lon="9.3573439639234"><ele>489.0</ele><time>2026-05-01T15:41:02.999Z</time></trkpt><trkpt lat="40.94430988798633" lon="9.357408792615038"><ele>487.75</ele><time>2026-05-01T15:41:03.999Z</time></trkpt><trkpt lat="40.94419151270835" lon="9.357473659763556"><ele>486.5</ele><time>2026-05-01T15:41:04.999Z</time></trkpt><trkpt lat="40.94408847698386" lon="9.357549289044734"><ele>485.25</ele><time>2026-05-01T15:41:05.999Z</time></trkpt><trkpt lat="40.943987957604136" lon="9.357619624681705"><ele>484.0</ele><time>2026-05-01T15:41:06.999Z</time></trkpt><trkpt lat="40.94388159036879" lon="9.357692425374392"><ele>484.0</ele><time>2026-05-01T15:41:07.999Z</time></trkpt><trkpt lat="40.94377702391737" lon="9.35776848388392"><ele>484.0</ele><time>2026-05-01T15:41:08.999Z</time></trkpt><trkpt lat="40.943679923010734" lon="9.357861455403222"><ele>484.0</ele><time>2026-05-01T15:41:09.999Z</time></trkpt><trkpt lat="40.943590383935174" lon="9.35794124621159"><ele>484.0</ele><time>2026-05-01T15:41:10.999Z</time></trkpt><trkpt lat="40.94351272248234" lon="9.35801722805121"><ele>484.0</ele><time>2026-05-01T15:41:11.999Z</time></trkpt><trkpt lat="40.94342848062414" lon="9.358083230796774"><ele>485.2</ele><time>2026-05-01T15:41:12.999Z</time></trkpt><trkpt lat="40.94333704856468" lon="9.358145979394736"><ele>486.4</ele><time>2026-05-01T15:41:13.999Z</time></trkpt><trkpt lat="40.94323870193136" lon="9.358215280269588"><ele>487.6</ele><time>2026-05-01T15:41:14.999Z</time></trkpt><trkpt lat="40.94314556376624" lon="9.3582932811785"><ele>488.8</ele><time>2026-05-01T15:41:15.999Z</time></trkpt><trkpt lat="40.94307095806098" lon="9.358372248095977"><ele>490.0</ele><time>2026-05-01T15:41:16.999Z</time></trkpt><trkpt lat="40.94300120381805" lon="9.358471890472435"><ele>490.0</ele><time>2026-05-01T15:41:17.999Z</time></trkpt><trkpt lat="40.94292680871825" lon="9.358589562988497"><ele>490.0</ele><time>2026-05-01T15:41:18.999Z</time></trkpt><trkpt lat="40.94284312657779" lon="9.358730726468842"><ele>490.0</ele><time>2026-05-01T15:41:19.999Z</time></trkpt><trkpt lat="40.9427822022654" lon="9.358842552884582"><ele>490.0</ele><time>2026-05-01T15:41:20.999Z</time></trkpt><trkpt lat="40.94275221843142" lon="9.358951035156096"><ele>490.0</ele><time>2026-05-01T15:41:21.999Z</time></trkpt><trkpt lat="40.942735897812426" lon="9.359087362798922"><ele>493.4</ele><time>2026-05-01T15:41:22.999Z</time></trkpt><trkpt lat="40.94271066028374" lon="9.359243465502345"><ele>496.8</ele><time>2026-05-01T15:41:23.999Z</time></trkpt><trkpt lat="40.942680073878954" lon="9.359396742695715"><ele>500.20000000000005</ele><time>2026-05-01T15:41:24.999Z</time></trkpt><trkpt lat="40.94263708815987" lon="9.359509948100337"><ele>503.6</ele><time>2026-05-01T15:41:25.999Z</time></trkpt><trkpt lat="40.94261040853442" lon="9.359600677273024"><ele>507.0</ele><time>2026-05-01T15:41:26.999Z</time></trkpt><trkpt lat="40.94260732064324" lon="9.359693814984567"><ele>508.6</ele><time>2026-05-01T15:41:27.999Z</time></trkpt><trkpt lat="40.94262315230913" lon="9.359805929588482"><ele>510.20000000000005</ele><time>2026-05-01T15:41:28.999Z</time></trkpt><trkpt lat="40.94264498369475" lon="9.359950865554566"><ele>511.8</ele><time>2026-05-01T15:41:29.999Z</time></trkpt><trkpt lat="40.9426500669564" lon="9.360079686789192"><ele>513.4</ele><time>2026-05-01T15:41:30.999Z</time></trkpt><trkpt lat="40.942642019435525" lon="9.360216395772348"><ele>515.0</ele><time>2026-05-01T15:41:31.999Z</time></trkpt><trkpt lat="40.94263726933986" lon="9.3603627457544"><ele>515.0</ele><time>2026-05-01T15:41:32.999Z</time></trkpt><trkpt lat="40.942648977023175" lon="9.36051378597806"><ele>515.0</ele><time>2026-05-01T15:41:33.999Z</time></trkpt><trkpt lat="40.94263801335237" lon="9.360645641830297"><ele>515.0</ele><time>2026-05-01T15:41:34.999Z</time></trkpt><trkpt lat="40.94265823824372" lon="9.360763555686637"><ele>515.0</ele><time>2026-05-01T15:41:35.999Z</time></trkpt><trkpt lat="40.94266766330406" lon="9.360884877628934"><ele>515.0</ele><time>2026-05-01T15:41:36.999Z</time></trkpt><trkpt lat="40.94266088704261" lon="9.361010183472677"><ele>515.8</ele><time>2026-05-01T15:41:37.999Z</time></trkpt><trkpt lat="40.94264085240963" lon="9.361155225367211"><ele>516.6</ele><time>2026-05-01T15:41:38.999Z</time></trkpt><trkpt lat="40.942618522853394" lon="9.36129011829839"><ele>517.4</ele><time>2026-05-01T15:41:39.999Z</time></trkpt><trkpt lat="40.942618232615594" lon="9.361412954276668"><ele>518.2</ele><time>2026-05-01T15:41:40.999Z</time></trkpt><trkpt lat="40.94266594460295" lon="9.36150524101061"><ele>519.0</ele><time>2026-05-01T15:41:41.999Z</time></trkpt><trkpt lat="40.94275674553414" lon="9.361525630592194"><ele>519.0</ele><time>2026-05-01T15:41:42.999Z</time></trkpt><trkpt lat="40.942824324817764" lon="9.36148075023849"><ele>519.0</ele><time>2026-05-01T15:41:43.999Z</time></trkpt><trkpt lat="40.94288294611901" lon="9.36142868432676"><ele>519.0</ele><time>2026-05-01T15:41:44.999Z</time></trkpt><trkpt lat="40.94295583040442" lon="9.361370050234466"><ele>519.0</ele><time>2026-05-01T15:41:45.999Z</time></trkpt><trkpt lat="40.94303782271819" lon="9.36130108793711"><ele>519.0</ele><time>2026-05-01T15:41:46.999Z</time></trkpt><trkpt lat="40.94311092713748" lon="9.361216854645201"><ele>519.0</ele><time>2026-05-01T15:41:47.999Z</time></trkpt><trkpt lat="40.94320143521614" lon="9.361143558860206"><ele>519.0</ele><time>2026-05-01T15:41:48.999Z</time></trkpt><trkpt lat="40.943299052943026" lon="9.361078249121658"><ele>519.0</ele><time>2026-05-01T15:41:49.999Z</time></trkpt><trkpt lat="40.9433676669207" lon="9.360960774955329"><ele>519.0</ele><time>2026-05-01T15:41:50.999Z</time></trkpt><trkpt lat="40.943412727298174" lon="9.360880266157542"><ele>519.0</ele><time>2026-05-01T15:41:51.999Z</time></trkpt><trkpt lat="40.94345534258661" lon="9.360804124919117"><ele>519.0</ele><time>2026-05-01T15:41:53.999Z</time></trkpt><trkpt lat="40.94347059042409" lon="9.360947510848229"><ele>526.0</ele><time>2026-05-01T15:41:58.999Z</time></trkpt><trkpt lat="40.94346051245771" lon="9.36103849796568"><ele>533.0</ele><time>2026-05-01T15:41:59.999Z</time></trkpt><trkpt lat="40.943446546767284" lon="9.36115899690807"><ele>540.0</ele><time>2026-05-01T15:42:00.999Z</time></trkpt><trkpt lat="40.943429596463965" lon="9.361280432406954"><ele>547.0</ele><time>2026-05-01T15:42:01.999Z</time></trkpt><trkpt lat="40.943408728316946" lon="9.361403965363632"><ele>554.0</ele><time>2026-05-01T15:42:02.999Z</time></trkpt><trkpt lat="40.94338535242121" lon="9.361537541976391"><ele>549.8</ele><time>2026-05-01T15:42:03.999Z</time></trkpt><trkpt lat="40.9433631180383" lon="9.361687048158727"><ele>545.5999999999999</ele><time>2026-05-01T15:42:04.999Z</time></trkpt><trkpt lat="40.94334453658503" lon="9.361832512162653"><ele>541.4</ele><time>2026-05-01T15:42:05.999Z</time></trkpt><trkpt lat="40.9433261793366" lon="9.36196795313946"><ele>537.1999999999999</ele><time>2026-05-01T15:42:06.999Z</time></trkpt><trkpt lat="40.943303490070285" lon="9.362105372631568"><ele>533.0</ele><time>2026-05-01T15:42:07.999Z</time></trkpt><trkpt lat="40.943277743409794" lon="9.362227470555188"><ele>533.0</ele><time>2026-05-01T15:42:08.999Z</time></trkpt><trkpt lat="40.9432501797367" lon="9.362354710610736"><ele>533.0</ele><time>2026-05-01T15:42:09.999Z</time></trkpt><trkpt lat="40.94322756326269" lon="9.362482427279364"><ele>533.0</ele><time>2026-05-01T15:42:10.999Z</time></trkpt><trkpt lat="40.9432176107617" lon="9.36259481056971"><ele>533.0</ele><time>2026-05-01T15:42:11.999Z</time></trkpt><trkpt lat="40.943238144278496" lon="9.362700117137727"><ele>533.0</ele><time>2026-05-01T15:42:12.999Z</time></trkpt><trkpt lat="40.94328423637519" lon="9.362776667724798"><ele>533.0</ele><time>2026-05-01T15:42:13.999Z</time></trkpt><trkpt lat="40.94337657431961" lon="9.36280961187066"><ele>537.6666666666666</ele><time>2026-05-01T15:42:14.999Z</time></trkpt><trkpt lat="40.943456780926596" lon="9.362849023598681"><ele>542.3333333333333</ele><time>2026-05-01T15:42:15.999Z</time></trkpt><trkpt lat="40.94353696290023" lon="9.362900466222397"><ele>547.0</ele><time>2026-05-01T15:42:16.999Z</time></trkpt><trkpt lat="40.943631531235866" lon="9.362940160922223"><ele>551.6666666666666</ele><time>2026-05-01T15:42:17.999Z</time></trkpt><trkpt lat="40.943703549867614" lon="9.362998888928027"><ele>556.3333333333334</ele><time>2026-05-01T15:42:18.999Z</time></trkpt><trkpt lat="40.94376524952074" lon="9.363078013882914"><ele>561.0</ele><time>2026-05-01T15:42:19.999Z</time></trkpt><trkpt lat="40.94380131604608" lon="9.3631497714583"><ele>561.0</ele><time>2026-05-01T15:42:20.999Z</time></trkpt><trkpt lat="40.94383011638473" lon="9.363223935041571"><ele>561.0</ele><time>2026-05-01T15:42:21.999Z</time></trkpt><trkpt lat="40.94388117583067" lon="9.36337772286398"><ele>561.0</ele><time>2026-05-01T15:42:23.999Z</time></trkpt><trkpt lat="40.94392816342315" lon="9.363469881007948"><ele>561.0</ele><time>2026-05-01T15:42:24.999Z</time></trkpt><trkpt lat="40.94397391294806" lon="9.363590274016588"><ele>561.0</ele><time>2026-05-01T15:42:25.999Z</time></trkpt><trkpt lat="40.9440302887497" lon="9.363721621125173"><ele>561.0</ele><time>2026-05-01T15:42:26.999Z</time></trkpt><trkpt lat="40.944088206412744" lon="9.363856561046758"><ele>561.0</ele><time>2026-05-01T15:42:27.999Z</time></trkpt><trkpt lat="40.94414535645115" lon="9.363989712321796"><ele>561.0</ele><time>2026-05-01T15:42:28.999Z</time></trkpt><trkpt lat="40.944214743730114" lon="9.364110925637513"><ele>561.0</ele><time>2026-05-01T15:42:29.999Z</time></trkpt><trkpt lat="40.944251218591276" lon="9.364252699875891"><ele>568.0</ele><time>2026-05-01T15:42:30.999Z</time></trkpt><trkpt lat="40.94430007753184" lon="9.364387692082488"><ele>575.0</ele><time>2026-05-01T15:42:31.999Z</time></trkpt><trkpt lat="40.944345674533274" lon="9.36452262864187"><ele>582.0</ele><time>2026-05-01T15:42:32.999Z</time></trkpt><trkpt lat="40.94438873220429" lon="9.364668838369564"><ele>589.0</ele><time>2026-05-01T15:42:33.999Z</time></trkpt><trkpt lat="40.94444382774936" lon="9.36480801178773"><ele>589.0</ele><time>2026-05-01T15:42:34.999Z</time></trkpt><trkpt lat="40.94448209436756" lon="9.364953550152714"><ele>589.0</ele><time>2026-05-01T15:42:35.999Z</time></trkpt><trkpt lat="40.94452085188524" lon="9.365091757170168"><ele>589.0</ele><time>2026-05-01T15:42:36.999Z</time></trkpt><trkpt lat="40.94456561557538" lon="9.365213389421733"><ele>589.0</ele><time>2026-05-01T15:42:37.999Z</time></trkpt><trkpt lat="40.94459801070553" lon="9.365354124798975"><ele>589.0</ele><time>2026-05-01T15:42:38.999Z</time></trkpt><trkpt lat="40.944639712427964" lon="9.36548576748146"><ele>586.2</ele><time>2026-05-01T15:42:39.999Z</time></trkpt><trkpt lat="40.94469249702374" lon="9.365607521761873"><ele>583.4</ele><time>2026-05-01T15:42:40.999Z</time></trkpt><trkpt lat="40.94472787729872" lon="9.365742123231028"><ele>580.6</ele><time>2026-05-01T15:42:41.999Z</time></trkpt><trkpt lat="40.94476104384648" lon="9.365870255911828"><ele>577.8</ele><time>2026-05-01T15:42:42.999Z</time></trkpt><trkpt lat="40.94480056672981" lon="9.365994013699668"><ele>575.0</ele><time>2026-05-01T15:42:43.999Z</time></trkpt><trkpt lat="40.94485066042819" lon="9.366129871786402"><ele>575.0</ele><time>2026-05-01T15:42:44.999Z</time></trkpt><trkpt lat="40.94490879027868" lon="9.366260001865717"><ele>575.0</ele><time>2026-05-01T15:42:45.999Z</time></trkpt><trkpt lat="40.944995409513986" lon="9.366364837433935"><ele>575.0</ele><time>2026-05-01T15:42:46.999Z</time></trkpt><trkpt lat="40.94509098850635" lon="9.36644197979509"><ele>575.0</ele><time>2026-05-01T15:42:47.999Z</time></trkpt><trkpt lat="40.945174648596414" lon="9.366537219267173"><ele>578.8</ele><time>2026-05-01T15:42:48.999Z</time></trkpt><trkpt lat="40.945247186819934" lon="9.366644813192922"><ele>582.6</ele><time>2026-05-01T15:42:49.999Z</time></trkpt><trkpt lat="40.9453367764473" lon="9.366733040475268"><ele>586.4</ele><time>2026-05-01T15:42:50.999Z</time></trkpt><trkpt lat="40.94543867401802" lon="9.366794800972446"><ele>590.2</ele><time>2026-05-01T15:42:51.999Z</time></trkpt><trkpt lat="40.94552965709046" lon="9.366857897546923"><ele>594.0</ele><time>2026-05-01T15:42:52.999Z</time></trkpt><trkpt lat="40.945597893448" lon="9.366916879794891"><ele>594.0</ele><time>2026-05-01T15:42:53.999Z</time></trkpt><trkpt lat="40.94565076354154" lon="9.366969230557949"><ele>594.0</ele><time>2026-05-01T15:42:54.999Z</time></trkpt><trkpt lat="40.94567423084733" lon="9.3670506631822"><ele>594.0</ele><time>2026-05-01T15:42:55.999Z</time></trkpt><trkpt lat="40.94563450108547" lon="9.367131471580809"><ele>594.0</ele><time>2026-05-01T15:42:57.999Z</time></trkpt><trkpt lat="40.945614502547876" lon="9.367243189336007"><ele>594.0</ele><time>2026-05-01T15:42:59.999Z</time></trkpt><trkpt lat="40.94562016724444" lon="9.367355144576822"><ele>594.0</ele><time>2026-05-01T15:43:00.999Z</time></trkpt><trkpt lat="40.945664614589205" lon="9.36749750588255"><ele>594.4</ele><time>2026-05-01T15:43:02.999Z</time></trkpt><trkpt lat="40.945720425653" lon="9.36761216493609"><ele>594.8</ele><time>2026-05-01T15:43:04.999Z</time></trkpt><trkpt lat="40.945839990224286" lon="9.36764094221049"><ele>595.2</ele><time>2026-05-01T15:43:06.999Z</time></trkpt><trkpt lat="40.94591965838313" lon="9.36764793936477"><ele>595.6</ele><time>2026-05-01T15:43:07.999Z</time></trkpt><trkpt lat="40.94601473073985" lon="9.367670408655446"><ele>596.0</ele><time>2026-05-01T15:43:08.999Z</time></trkpt><trkpt lat="40.94611331317262" lon="9.367638676271888"><ele>597.8</ele><time>2026-05-01T15:43:09.999Z</time></trkpt><trkpt lat="40.946207104946" lon="9.367618040098595"><ele>599.6</ele><time>2026-05-01T15:43:10.999Z</time></trkpt><trkpt lat="40.94628908603455" lon="9.367585210950562"><ele>601.4</ele><time>2026-05-01T15:43:11.999Z</time></trkpt><trkpt lat="40.946371189429186" lon="9.367553508071802"><ele>603.2</ele><time>2026-05-01T15:43:12.999Z</time></trkpt><trkpt lat="40.946478612780176" lon="9.367595790879106"><ele>605.0</ele><time>2026-05-01T15:43:14.999Z</time></trkpt><trkpt lat="40.94654669531734" lon="9.36767444799038"><ele>605.0</ele><time>2026-05-01T15:43:16.999Z</time></trkpt><trkpt lat="40.94659767009672" lon="9.36773340108077"><ele>605.0</ele><time>2026-05-01T15:43:18.999Z</time></trkpt><trkpt lat="40.94654951441194" lon="9.3679189548194"><ele>605.0</ele><time>2026-05-01T15:43:23.999Z</time></trkpt><trkpt lat="40.94648538713546" lon="9.367994543771474"><ele>605.0</ele><time>2026-05-01T15:43:26.999Z</time></trkpt><trkpt lat="40.946423447700425" lon="9.368018670330459"><ele>605.0</ele><time>2026-05-01T15:44:04Z</time></trkpt><trkpt lat="40.94631261192453" lon="9.367980169597123"><ele>605.0</ele><time>2026-05-01T15:44:06Z</time></trkpt><trkpt lat="40.946227243832304" lon="9.367981378037681"><ele>605.0</ele><time>2026-05-01T15:44:08Z</time></trkpt><trkpt lat="40.946137593540975" lon="9.368041947372502"><ele>605.0</ele><time>2026-05-01T15:44:10Z</time></trkpt><trkpt lat="40.94606342522709" lon="9.368179673512829"><ele>605.0</ele><time>2026-05-01T15:44:12Z</time></trkpt><trkpt lat="40.94600709607683" lon="9.368260561446926"><ele>605.0</ele><time>2026-05-01T15:44:13Z</time></trkpt><trkpt lat="40.94593209908382" lon="9.368320982871692"><ele>605.5</ele><time>2026-05-01T15:44:14Z</time></trkpt><trkpt lat="40.945861469757766" lon="9.368351766658238"><ele>606.0</ele><time>2026-05-01T15:44:15Z</time></trkpt><trkpt lat="40.94579011314007" lon="9.368359225581365"><ele>606.5</ele><time>2026-05-01T15:44:16Z</time></trkpt><trkpt lat="40.94571925428396" lon="9.368373887412858"><ele>607.0</ele><time>2026-05-01T15:44:17Z</time></trkpt><trkpt lat="40.945670966014866" lon="9.368452785556586"><ele>607.5</ele><time>2026-05-01T15:44:19Z</time></trkpt><trkpt lat="40.945712029614526" lon="9.368541959127308"><ele>608.0</ele><time>2026-05-01T15:44:21Z</time></trkpt><trkpt lat="40.94579714471274" lon="9.368617840286003"><ele>608.0</ele><time>2026-05-01T15:44:23Z</time></trkpt><trkpt lat="40.94585568884974" lon="9.368668991763634"><ele>608.0</ele><time>2026-05-01T15:44:24Z</time></trkpt><trkpt lat="40.94593211671322" lon="9.36872835923954"><ele>608.0</ele><time>2026-05-01T15:44:25Z</time></trkpt><trkpt lat="40.94599183874023" lon="9.368772157444877"><ele>608.0</ele><time>2026-05-01T15:44:26Z</time></trkpt><trkpt lat="40.94598596854731" lon="9.368877799670342"><ele>608.0</ele><time>2026-05-01T15:44:28Z</time></trkpt><trkpt lat="40.945905760891414" lon="9.368927643049592"><ele>608.0</ele><time>2026-05-01T15:44:30Z</time></trkpt><trkpt lat="40.94584413912731" lon="9.368948014526696"><ele>611.1666666666666</ele><time>2026-05-01T15:44:31Z</time></trkpt><trkpt lat="40.945773837003735" lon="9.368958453556314"><ele>614.3333333333333</ele><time>2026-05-01T15:44:32Z</time></trkpt><trkpt lat="40.94568960195668" lon="9.368971272895905"><ele>617.5</ele><time>2026-05-01T15:44:33Z</time></trkpt><trkpt lat="40.9456068492278" lon="9.368995942973754"><ele>620.6666666666666</ele><time>2026-05-01T15:44:34Z</time></trkpt><trkpt lat="40.945529973624005" lon="9.3690628374747"><ele>623.8333333333334</ele><time>2026-05-01T15:44:36Z</time></trkpt><trkpt lat="40.945580355228174" lon="9.369151070762841"><ele>627.0</ele><time>2026-05-01T15:44:38Z</time></trkpt><trkpt lat="40.94566033785142" lon="9.3692517659117"><ele>627.0</ele><time>2026-05-01T15:44:40Z</time></trkpt><trkpt lat="40.94560944222423" lon="9.369335215505565"><ele>627.0</ele><time>2026-05-01T15:44:42Z</time></trkpt><trkpt lat="40.94552057769429" lon="9.369321759193381"><ele>627.0</ele><time>2026-05-01T15:44:44Z</time></trkpt><trkpt lat="40.94541682357036" lon="9.369253176614636"><ele>627.0</ele><time>2026-05-01T15:44:45.999Z</time></trkpt><trkpt lat="40.94535925247178" lon="9.369197488737331"><ele>627.0</ele><time>2026-05-01T15:44:46.999Z</time></trkpt><trkpt lat="40.94529882922238" lon="9.369158470602335"><ele>627.0</ele><time>2026-05-01T15:44:47.999Z</time></trkpt><trkpt lat="40.945219043735186" lon="9.369126240565524"><ele>627.0</ele><time>2026-05-01T15:44:48.999Z</time></trkpt><trkpt lat="40.94512175784024" lon="9.36908519710569"><ele>627.0</ele><time>2026-05-01T15:44:49.999Z</time></trkpt><trkpt lat="40.94503433945221" lon="9.369067425265493"><ele>627.0</ele><time>2026-05-01T15:44:50.999Z</time></trkpt><trkpt lat="40.94495957822864" lon="9.36908037370258"><ele>627.0</ele><time>2026-05-01T15:44:51.999Z</time></trkpt><trkpt lat="40.94490321810532" lon="9.369140544377595"><ele>627.0</ele><time>2026-05-01T15:44:52.999Z</time></trkpt><trkpt lat="40.94485397423083" lon="9.369212901715132"><ele>627.0</ele><time>2026-05-01T15:44:53.999Z</time></trkpt><trkpt lat="40.94480317484745" lon="9.369280505119036"><ele>628.8000000000001</ele><time>2026-05-01T15:44:54.999Z</time></trkpt><trkpt lat="40.94473907584126" lon="9.369356943930791"><ele>630.6</ele><time>2026-05-01T15:44:55.999Z</time></trkpt><trkpt lat="40.94466101009927" lon="9.369427311626541"><ele>632.4000000000001</ele><time>2026-05-01T15:44:56.999Z</time></trkpt><trkpt lat="40.944545827779514" lon="9.369491160992808"><ele>634.2</ele><time>2026-05-01T15:44:57.999Z</time></trkpt><trkpt lat="40.944424330354174" lon="9.369580700054133"><ele>636.0</ele><time>2026-05-01T15:44:58.999Z</time></trkpt><trkpt lat="40.944305130582215" lon="9.36965966274741"><ele>639.0</ele><time>2026-05-01T15:44:59.999Z</time></trkpt><trkpt lat="40.9442359331247" lon="9.369735261540358"><ele>642.0</ele><time>2026-05-01T15:45:00.999Z</time></trkpt><trkpt lat="40.944223703684465" lon="9.36985080342726"><ele>645.0</ele><time>2026-05-01T15:45:02.999Z</time></trkpt><trkpt lat="40.944312061090876" lon="9.36990757334619"><ele>648.0</ele><time>2026-05-01T15:45:04.999Z</time></trkpt><trkpt lat="40.94438280413018" lon="9.36993711275074"><ele>651.0</ele><time>2026-05-01T15:45:05.999Z</time></trkpt><trkpt lat="40.944462986761145" lon="9.369962768872892"><ele>654.0</ele><time>2026-05-01T15:45:06.999Z</time></trkpt><trkpt lat="40.94455764265466" lon="9.370009558425973"><ele>654.0</ele><time>2026-05-01T15:45:07.999Z</time></trkpt><trkpt lat="40.94466207260346" lon="9.37007162768935"><ele>654.0</ele><time>2026-05-01T15:45:08.999Z</time></trkpt><trkpt lat="40.94477212480294" lon="9.37012482447006"><ele>654.0</ele><time>2026-05-01T15:45:09.999Z</time></trkpt><trkpt lat="40.94488367504265" lon="9.370135182954074"><ele>654.0</ele><time>2026-05-01T15:45:10.999Z</time></trkpt><trkpt lat="40.94499286477073" lon="9.370140387847634"><ele>651.8333333333334</ele><time>2026-05-01T15:45:11.999Z</time></trkpt><trkpt lat="40.94508811061715" lon="9.370170925449134"><ele>649.6666666666666</ele><time>2026-05-01T15:45:12.999Z</time></trkpt><trkpt lat="40.945180879028264" lon="9.370227416001905"><ele>647.5</ele><time>2026-05-01T15:45:13.999Z</time></trkpt><trkpt lat="40.945260800001485" lon="9.370288984792838"><ele>645.3333333333333</ele><time>2026-05-01T15:45:14.999Z</time></trkpt><trkpt lat="40.9453439918429" lon="9.370341752610255"><ele>643.1666666666666</ele><time>2026-05-01T15:45:15.999Z</time></trkpt><trkpt lat="40.94539942994663" lon="9.370382995393802"><ele>641.0</ele><time>2026-05-01T15:45:16.999Z</time></trkpt><trkpt lat="40.945394214277975" lon="9.370503097133708"><ele>646.0</ele><time>2026-05-01T15:45:18.999Z</time></trkpt><trkpt lat="40.94529499092593" lon="9.370576281990274"><ele>651.0</ele><time>2026-05-01T15:45:20.999Z</time></trkpt><trkpt lat="40.94522695924245" lon="9.370582343126971"><ele>656.0</ele><time>2026-05-01T15:45:21.999Z</time></trkpt><trkpt lat="40.945147248412574" lon="9.37058429377901"><ele>661.0</ele><time>2026-05-01T15:45:22.999Z</time></trkpt><trkpt lat="40.94507266494617" lon="9.370564739238864"><ele>666.0</ele><time>2026-05-01T15:45:23.999Z</time></trkpt><trkpt lat="40.94499801297333" lon="9.370552489947295"><ele>671.0</ele><time>2026-05-01T15:45:24.999Z</time></trkpt><trkpt lat="40.94492122938817" lon="9.370549496368925"><ele>672.6666666666666</ele><time>2026-05-01T15:45:25.999Z</time></trkpt><trkpt lat="40.94484647613857" lon="9.370566279720936"><ele>674.3333333333333</ele><time>2026-05-01T15:45:26.999Z</time></trkpt><trkpt lat="40.94475453059186" lon="9.370579122814311"><ele>676.0</ele><time>2026-05-01T15:45:27.999Z</time></trkpt><trkpt lat="40.944671187173576" lon="9.370603321702843"><ele>677.6666666666666</ele><time>2026-05-01T15:45:28.999Z</time></trkpt><trkpt lat="40.94458177849948" lon="9.370637193434606"><ele>679.3333333333334</ele><time>2026-05-01T15:45:29.999Z</time></trkpt><trkpt lat="40.94450311118306" lon="9.370683917072798"><ele>681.0</ele><time>2026-05-01T15:45:30.999Z</time></trkpt><trkpt lat="40.94442515720991" lon="9.370722378196836"><ele>681.0</ele><time>2026-05-01T15:45:31.999Z</time></trkpt><trkpt lat="40.94436898611584" lon="9.370765765819534"><ele>681.0</ele><time>2026-05-01T15:45:32.999Z</time></trkpt><trkpt lat="40.944322124520866" lon="9.370826461794277"><ele>681.0</ele><time>2026-05-01T15:45:33.999Z</time></trkpt><trkpt lat="40.94429430180774" lon="9.37098420807298"><ele>681.0</ele><time>2026-05-01T15:45:35.999Z</time></trkpt><trkpt lat="40.94425647228176" lon="9.371106578534876"><ele>681.0</ele><time>2026-05-01T15:45:36.999Z</time></trkpt><trkpt lat="40.9442101498417" lon="9.371235288213365"><ele>680.8</ele><time>2026-05-01T15:45:37.999Z</time></trkpt><trkpt lat="40.94414563709919" lon="9.371365816084445"><ele>680.5999999999999</ele><time>2026-05-01T15:45:38.999Z</time></trkpt><trkpt lat="40.94408947564511" lon="9.371489235759322"><ele>680.4</ele><time>2026-05-01T15:45:39.999Z</time></trkpt><trkpt lat="40.94405925491918" lon="9.37158928016084"><ele>680.2</ele><time>2026-05-01T15:45:40.999Z</time></trkpt><trkpt lat="40.94406153562057" lon="9.37172505449989"><ele>680.0</ele><time>2026-05-01T15:45:42.999Z</time></trkpt><trkpt lat="40.94411467585759" lon="9.371791092142201"><ele>680.0</ele><time>2026-05-01T15:45:44.999Z</time></trkpt><trkpt lat="40.94417348546773" lon="9.371831232303693"><ele>680.0</ele><time>2026-05-01T15:45:56.999Z</time></trkpt><trkpt lat="40.94412571244692" lon="9.371772872897116"><ele>680.0</ele><time>2026-05-01T15:46:06.999Z</time></trkpt><trkpt lat="40.94408242710335" lon="9.371705885336134"><ele>680.0</ele><time>2026-05-01T15:46:08.999Z</time></trkpt><trkpt lat="40.94408977722312" lon="9.371618543451584"><ele>680.0</ele><time>2026-05-01T15:46:14.999Z</time></trkpt><trkpt lat="40.94409439579665" lon="9.371702645081639"><ele>680.0</ele><time>2026-05-01T15:49:14Z</time></trkpt><trkpt lat="40.94403871416013" lon="9.371640470028728"><ele>680.0</ele><time>2026-05-01T15:55:00.998Z</time></trkpt><trkpt lat="40.94407772314018" lon="9.371709260994457"><ele>680.0</ele><time>2026-05-01T15:56:02.999Z</time></trkpt><trkpt lat="40.944117589204915" lon="9.371777552670247"><ele>680.0</ele><time>2026-05-01T15:56:04.999Z</time></trkpt><trkpt lat="40.94419499873492" lon="9.371832590775922"><ele>680.0</ele><time>2026-05-01T15:56:17.999Z</time></trkpt><trkpt lat="40.94428433975804" lon="9.37186533882172"><ele>680.0</ele><time>2026-05-01T15:56:19.999Z</time></trkpt><trkpt lat="40.94439683539193" lon="9.37191338207997"><ele>680.0</ele><time>2026-05-01T15:56:22Z</time></trkpt><trkpt lat="40.94448172833548" lon="9.371974674236432"><ele>682.6666666666666</ele><time>2026-05-01T15:56:24Z</time></trkpt><trkpt lat="40.94451435474074" lon="9.372093726083177"><ele>685.3333333333333</ele><time>2026-05-01T15:56:27Z</time></trkpt><trkpt lat="40.944516676054846" lon="9.372191408598205"><ele>688.0</ele><time>2026-05-01T15:56:29Z</time></trkpt><trkpt lat="40.94454462674449" lon="9.372308589170947"><ele>690.6666666666666</ele><time>2026-05-01T15:56:31Z</time></trkpt><trkpt lat="40.94454414634311" lon="9.372394106014989"><ele>693.3333333333334</ele><time>2026-05-01T15:56:32Z</time></trkpt><trkpt lat="40.94453638790152" lon="9.372552029773313"><ele>696.0</ele><time>2026-05-01T15:56:33.998Z</time></trkpt><trkpt lat="40.94453970616939" lon="9.372725732876455"><ele>696.1666666666666</ele><time>2026-05-01T15:56:35.998Z</time></trkpt><trkpt lat="40.944554594652544" lon="9.372846011429973"><ele>696.3333333333334</ele><time>2026-05-01T15:56:36.998Z</time></trkpt><trkpt lat="40.944573229893074" lon="9.372960921415773"><ele>696.5</ele><time>2026-05-01T15:56:37.998Z</time></trkpt><trkpt lat="40.94458036182002" lon="9.373089792304235"><ele>696.6666666666667</ele><time>2026-05-01T15:56:38.998Z</time></trkpt><trkpt lat="40.944583554475976" lon="9.373194216657945"><ele>696.8333333333334</ele><time>2026-05-01T15:56:39.999Z</time></trkpt><trkpt lat="40.944591018118324" lon="9.37327892187826"><ele>697.0</ele><time>2026-05-01T15:56:40.999Z</time></trkpt><trkpt lat="40.94459538469721" lon="9.373384702482632"><ele>697.6666666666667</ele><time>2026-05-01T15:56:41.999Z</time></trkpt><trkpt lat="40.944591788117684" lon="9.37348818165669"><ele>698.3333333333334</ele><time>2026-05-01T15:56:42.999Z</time></trkpt><trkpt lat="40.94459863932827" lon="9.373603605838007"><ele>699.0</ele><time>2026-05-01T15:56:43.999Z</time></trkpt><trkpt lat="40.94461013331397" lon="9.373718188779511"><ele>699.6666666666666</ele><time>2026-05-01T15:56:44.999Z</time></trkpt><trkpt lat="40.94462477422121" lon="9.373816935150602"><ele>700.3333333333333</ele><time>2026-05-01T15:56:45.999Z</time></trkpt><trkpt lat="40.9446371373542" lon="9.37393509320343"><ele>701.0</ele><time>2026-05-01T15:56:47.999Z</time></trkpt><trkpt lat="40.94465213068355" lon="9.374029664892975"><ele>699.6666666666666</ele><time>2026-05-01T15:56:49.999Z</time></trkpt><trkpt lat="40.94467348087657" lon="9.37411271878756"><ele>698.3333333333333</ele><time>2026-05-01T15:56:50.999Z</time></trkpt><trkpt lat="40.944688581633365" lon="9.37420665327928"><ele>697.0</ele><time>2026-05-01T15:56:51.999Z</time></trkpt><trkpt lat="40.94469996296896" lon="9.374299476748764"><ele>695.6666666666666</ele><time>2026-05-01T15:56:52.999Z</time></trkpt><trkpt lat="40.9447188781969" lon="9.374455368474536"><ele>694.3333333333334</ele><time>2026-05-01T15:56:54.999Z</time></trkpt><trkpt lat="40.94475052209001" lon="9.374551037521739"><ele>693.0</ele><time>2026-05-01T15:56:56.999Z</time></trkpt><trkpt lat="40.944794652596286" lon="9.37462394502588"><ele>690.8333333333334</ele><time>2026-05-01T15:56:58.999Z</time></trkpt><trkpt lat="40.94482340707759" lon="9.374729065833648"><ele>688.6666666666666</ele><time>2026-05-01T15:57:00.999Z</time></trkpt><trkpt lat="40.94477255366606" lon="9.374790080748156"><ele>686.5</ele><time>2026-05-01T15:57:02.999Z</time></trkpt><trkpt lat="40.94470059947412" lon="9.374832906838748"><ele>684.3333333333333</ele><time>2026-05-01T15:57:04.999Z</time></trkpt><trkpt lat="40.94463536217055" lon="9.374883878771298"><ele>682.1666666666666</ele><time>2026-05-01T15:57:07Z</time></trkpt><trkpt lat="40.94465260953723" lon="9.375022710039598"><ele>680.0</ele><time>2026-05-01T15:57:09Z</time></trkpt><trkpt lat="40.94473541085993" lon="9.375090566560912"><ele>680.0</ele><time>2026-05-01T15:57:11Z</time></trkpt><trkpt lat="40.944823892949614" lon="9.375117627976365"><ele>680.0</ele><time>2026-05-01T15:57:13Z</time></trkpt><trkpt lat="40.944877033640566" lon="9.375170187265999"><ele>680.0</ele><time>2026-05-01T15:57:14Z</time></trkpt><trkpt lat="40.94492401383999" lon="9.375248654235365"><ele>680.0</ele><time>2026-05-01T15:57:15Z</time></trkpt><trkpt lat="40.94496717893191" lon="9.375382127610793"><ele>680.0</ele><time>2026-05-01T15:57:17Z</time></trkpt><trkpt lat="40.94499492296359" lon="9.375457326567501"><ele>680.0</ele><time>2026-05-01T15:57:18Z</time></trkpt><trkpt lat="40.94506812197759" lon="9.375559628838182"><ele>680.1666666666666</ele><time>2026-05-01T15:57:20Z</time></trkpt><trkpt lat="40.94510329199955" lon="9.375629381188597"><ele>680.3333333333333</ele><time>2026-05-01T15:57:21Z</time></trkpt><trkpt lat="40.945131975466616" lon="9.375723925123536"><ele>680.5</ele><time>2026-05-01T15:57:22Z</time></trkpt><trkpt lat="40.945163238905685" lon="9.375814003005681"><ele>680.6666666666666</ele><time>2026-05-01T15:57:23Z</time></trkpt><trkpt lat="40.94519460585635" lon="9.375939380181986"><ele>680.8333333333334</ele><time>2026-05-01T15:57:25Z</time></trkpt><trkpt lat="40.94523426854911" lon="9.376048144448792"><ele>681.0</ele><time>2026-05-01T15:57:27Z</time></trkpt><trkpt lat="40.9452768033598" lon="9.376147374609417"><ele>681.0</ele><time>2026-05-01T15:57:29Z</time></trkpt><trkpt lat="40.94534733224001" lon="9.376238501912825"><ele>681.0</ele><time>2026-05-01T15:57:31Z</time></trkpt><trkpt lat="40.94537928287762" lon="9.376317252948898"><ele>681.0</ele><time>2026-05-01T15:57:32Z</time></trkpt><trkpt lat="40.94542395991824" lon="9.376420241717272"><ele>681.0</ele><time>2026-05-01T15:57:35Z</time></trkpt><trkpt lat="40.94550351494094" lon="9.37653054255614"><ele>681.0</ele><time>2026-05-01T15:57:38Z</time></trkpt><trkpt lat="40.94555799069719" lon="9.376622725045127"><ele>676.3333333333334</ele><time>2026-05-01T15:57:40Z</time></trkpt><trkpt lat="40.9456051644236" lon="9.376687633236866"><ele>671.6666666666666</ele><time>2026-05-01T15:57:42Z</time></trkpt><trkpt lat="40.94569967330093" lon="9.37675341999668"><ele>667.0</ele><time>2026-05-01T15:57:45Z</time></trkpt><trkpt lat="40.94575484513666" lon="9.376794086816885"><ele>662.3333333333333</ele><time>2026-05-01T15:57:46Z</time></trkpt><trkpt lat="40.94580984160734" lon="9.376846486336127"><ele>657.6666666666666</ele><time>2026-05-01T15:57:47Z</time></trkpt><trkpt lat="40.945890898582036" lon="9.376915668813172"><ele>653.0</ele><time>2026-05-01T15:57:49Z</time></trkpt><trkpt lat="40.945975791592005" lon="9.376977602964377"><ele>652.5999999999999</ele><time>2026-05-01T15:57:51Z</time></trkpt><trkpt lat="40.946081037733954" lon="9.377030412837849"><ele>652.1999999999999</ele><time>2026-05-01T15:57:53Z</time></trkpt><trkpt lat="40.94616079450665" lon="9.37711192238417"><ele>651.8</ele><time>2026-05-01T15:57:55Z</time></trkpt><trkpt lat="40.94617999366831" lon="9.377241401892809"><ele>651.4</ele><time>2026-05-01T15:57:57Z</time></trkpt><trkpt lat="40.94610239287014" lon="9.377321790997861"><ele>651.0</ele><time>2026-05-01T15:57:59Z</time></trkpt><trkpt lat="40.94603610556144" lon="9.377338291561705"><ele>651.0</ele><time>2026-05-01T15:58:01Z</time></trkpt><trkpt lat="40.94603902625155" lon="9.377454106235772"><ele>651.0</ele><time>2026-05-01T15:58:10Z</time></trkpt><trkpt lat="40.94603091030982" lon="9.377368333433266"><ele>651.0</ele><time>2026-05-01T15:59:15.001Z</time></trkpt><trkpt lat="40.94612767256915" lon="9.377336369817744"><ele>651.0</ele><time>2026-05-01T16:00:44.002Z</time></trkpt><trkpt lat="40.946186206197865" lon="9.37724321836272"><ele>651.0</ele><time>2026-05-01T16:00:46.002Z</time></trkpt><trkpt lat="40.94615539801477" lon="9.377116241217585"><ele>651.0</ele><time>2026-05-01T16:00:48.002Z</time></trkpt><trkpt lat="40.94606656683414" lon="9.37705227740145"><ele>651.0</ele><time>2026-05-01T16:00:50.002Z</time></trkpt><trkpt lat="40.94595107899103" lon="9.37699852694131"><ele>651.0</ele><time>2026-05-01T16:00:52.002Z</time></trkpt><trkpt lat="40.94586711433182" lon="9.376928445239454"><ele>651.0</ele><time>2026-05-01T16:00:54.002Z</time></trkpt><trkpt lat="40.945764075617824" lon="9.376833816802304"><ele>651.0</ele><time>2026-05-01T16:00:56.002Z</time></trkpt><trkpt lat="40.94565655097893" lon="9.376763199893995"><ele>651.3333333333334</ele><time>2026-05-01T16:00:58.002Z</time></trkpt><trkpt lat="40.94557766635734" lon="9.376694030121962"><ele>651.6666666666666</ele><time>2026-05-01T16:01:00.002Z</time></trkpt><trkpt lat="40.94552967088118" lon="9.376607774277554"><ele>652.0</ele><time>2026-05-01T16:01:04.002Z</time></trkpt><trkpt lat="40.945479939697016" lon="9.376529069275293"><ele>652.3333333333333</ele><time>2026-05-01T16:01:06.002Z</time></trkpt><trkpt lat="40.945431297956134" lon="9.37646333331083"><ele>652.6666666666666</ele><time>2026-05-01T16:01:08.002Z</time></trkpt><trkpt lat="40.945381279718006" lon="9.376389998021418"><ele>653.0</ele><time>2026-05-01T16:01:10.002Z</time></trkpt><trkpt lat="40.945345700403266" lon="9.376313744385225"><ele>653.0</ele><time>2026-05-01T16:01:14.002Z</time></trkpt><trkpt lat="40.94531354486658" lon="9.376201225217763"><ele>653.0</ele><time>2026-05-01T16:01:17.002Z</time></trkpt><trkpt lat="40.94535344738045" lon="9.376307573527543"><ele>653.0</ele><time>2026-05-01T16:01:39.001Z</time></trkpt><trkpt lat="40.94538480409461" lon="9.376383566470375"><ele>653.0</ele><time>2026-05-01T16:01:41.001Z</time></trkpt><trkpt lat="40.94543664101564" lon="9.376451588196007"><ele>653.0</ele><time>2026-05-01T16:01:43.001Z</time></trkpt><trkpt lat="40.94551578835961" lon="9.376565716280203"><ele>653.0</ele><time>2026-05-01T16:01:45.001Z</time></trkpt><trkpt lat="40.94557780770847" lon="9.376664024925713"><ele>653.0</ele><time>2026-05-01T16:01:47.002Z</time></trkpt><trkpt lat="40.94562487757387" lon="9.376727689853652"><ele>653.0</ele><time>2026-05-01T16:01:49.002Z</time></trkpt><trkpt lat="40.94571583703498" lon="9.376786254344854"><ele>653.0</ele><time>2026-05-01T16:01:51.002Z</time></trkpt><trkpt lat="40.945819888194784" lon="9.376864323702458"><ele>653.0</ele><time>2026-05-01T16:01:53.002Z</time></trkpt><trkpt lat="40.9458783918524" lon="9.376922820229241"><ele>653.0</ele><time>2026-05-01T16:01:54.002Z</time></trkpt><trkpt lat="40.945941153698165" lon="9.376962882792602"><ele>653.0</ele><time>2026-05-01T16:01:55.002Z</time></trkpt><trkpt lat="40.94599774429601" lon="9.37701200549399"><ele>652.5999999999999</ele><time>2026-05-01T16:01:56.002Z</time></trkpt><trkpt lat="40.94608864274675" lon="9.377041052863023"><ele>652.1999999999999</ele><time>2026-05-01T16:01:58.002Z</time></trkpt><trkpt lat="40.946143516135955" lon="9.377090165920233"><ele>651.8</ele><time>2026-05-01T16:01:59.002Z</time></trkpt><trkpt lat="40.94618313142937" lon="9.377207848068657"><ele>651.4</ele><time>2026-05-01T16:02:01.002Z</time></trkpt><trkpt lat="40.946123129843144" lon="9.37733975824061"><ele>651.0</ele><time>2026-05-01T16:02:03.002Z</time></trkpt><trkpt lat="40.94601065237097" lon="9.377387025470734"><ele>647.6666666666666</ele><time>2026-05-01T16:02:05.002Z</time></trkpt><trkpt lat="40.94592585342823" lon="9.377428286686397"><ele>644.3333333333334</ele><time>2026-05-01T16:02:07.002Z</time></trkpt><trkpt lat="40.945823442748555" lon="9.377398342689427"><ele>641.0</ele><time>2026-05-01T16:02:09.002Z</time></trkpt><trkpt lat="40.945743144212315" lon="9.377344395118827"><ele>637.6666666666667</ele><time>2026-05-01T16:02:11.002Z</time></trkpt><trkpt lat="40.94568886288387" lon="9.377299299081942"><ele>634.3333333333334</ele><time>2026-05-01T16:02:12.002Z</time></trkpt><trkpt lat="40.94562963859917" lon="9.377254616078575"><ele>631.0</ele><time>2026-05-01T16:02:13.002Z</time></trkpt><trkpt lat="40.94556786914869" lon="9.377226047591664"><ele>631.0</ele><time>2026-05-01T16:02:14.002Z</time></trkpt><trkpt lat="40.94550723315051" lon="9.377199445842601"><ele>631.0</ele><time>2026-05-01T16:02:15.002Z</time></trkpt><trkpt lat="40.94543974060686" lon="9.37717717010196"><ele>631.0</ele><time>2026-05-01T16:02:16.002Z</time></trkpt><trkpt lat="40.94532517410189" lon="9.377108906657314"><ele>631.0</ele><time>2026-05-01T16:02:18.002Z</time></trkpt><trkpt lat="40.945218428441564" lon="9.377016181882746"><ele>631.0</ele><time>2026-05-01T16:02:20.002Z</time></trkpt><trkpt lat="40.94512831197133" lon="9.376946962588919"><ele>631.6666666666667</ele><time>2026-05-01T16:02:22.002Z</time></trkpt><trkpt lat="40.945019286999965" lon="9.376882433650593"><ele>632.3333333333334</ele><time>2026-05-01T16:02:24.002Z</time></trkpt><trkpt lat="40.94496138227434" lon="9.376839705783151"><ele>633.0</ele><time>2026-05-01T16:02:25.002Z</time></trkpt><trkpt lat="40.94489794687523" lon="9.37681048734997"><ele>633.6666666666666</ele><time>2026-05-01T16:02:26.002Z</time></trkpt><trkpt lat="40.94483701292004" lon="9.376778678561243"><ele>634.3333333333333</ele><time>2026-05-01T16:02:27.002Z</time></trkpt><trkpt lat="40.9447407292024" lon="9.376730962073824"><ele>635.0</ele><time>2026-05-01T16:02:29.002Z</time></trkpt><trkpt lat="40.94465436562229" lon="9.376724674008065"><ele>635.0</ele><time>2026-05-01T16:02:31.002Z</time></trkpt><trkpt lat="40.94458076333378" lon="9.37666631795745"><ele>635.0</ele><time>2026-05-01T16:02:33.002Z</time></trkpt><trkpt lat="40.94449070392362" lon="9.376633471919256"><ele>635.0</ele><time>2026-05-01T16:02:35.002Z</time></trkpt><trkpt lat="40.944410516400595" lon="9.376573102559883"><ele>635.0</ele><time>2026-05-01T16:02:37.002Z</time></trkpt><trkpt lat="40.94433899421072" lon="9.376520298468888"><ele>635.0</ele><time>2026-05-01T16:02:39.002Z</time></trkpt><trkpt lat="40.944253023634865" lon="9.376462854702242"><ele>635.0</ele><time>2026-05-01T16:02:41.002Z</time></trkpt><trkpt lat="40.94419301103809" lon="9.37643371198164"><ele>635.0</ele><time>2026-05-01T16:02:42.002Z</time></trkpt><trkpt lat="40.94407862705649" lon="9.376464646482153"><ele>635.0</ele><time>2026-05-01T16:02:44.002Z</time></trkpt><trkpt lat="40.94416367719093" lon="9.37644096472104"><ele>635.0</ele><time>2026-05-01T16:03:41.001Z</time></trkpt><trkpt lat="40.9442412382555" lon="9.376470841078552"><ele>635.0</ele><time>2026-05-01T16:03:43.001Z</time></trkpt><trkpt lat="40.94432402533394" lon="9.376514051113215"><ele>635.0</ele><time>2026-05-01T16:03:45.001Z</time></trkpt><trkpt lat="40.94439389525706" lon="9.376561985499194"><ele>635.0</ele><time>2026-05-01T16:03:47.001Z</time></trkpt><trkpt lat="40.94445985590248" lon="9.376606270889036"><ele>635.0</ele><time>2026-05-01T16:03:50.001Z</time></trkpt><trkpt lat="40.944546138122654" lon="9.376657330487175"><ele>635.0</ele><time>2026-05-01T16:04:26.001Z</time></trkpt><trkpt lat="40.94460961032836" lon="9.376704995798471"><ele>635.0</ele><time>2026-05-01T16:04:28.001Z</time></trkpt><trkpt lat="40.94469094872242" lon="9.376720106392234"><ele>635.0</ele><time>2026-05-01T16:04:30.001Z</time></trkpt><trkpt lat="40.94479291245932" lon="9.376757006253799"><ele>635.0</ele><time>2026-05-01T16:04:32.001Z</time></trkpt><trkpt lat="40.944858123386155" lon="9.376774382941027"><ele>635.0</ele><time>2026-05-01T16:04:33.001Z</time></trkpt><trkpt lat="40.94492938604098" lon="9.376809974143274"><ele>635.0</ele><time>2026-05-01T16:04:34.001Z</time></trkpt><trkpt lat="40.94498323447744" lon="9.376853198409126"><ele>635.0</ele><time>2026-05-01T16:04:35.001Z</time></trkpt><trkpt lat="40.94508005374517" lon="9.376916563541391"><ele>635.0</ele><time>2026-05-01T16:04:37.001Z</time></trkpt><trkpt lat="40.9451670520458" lon="9.376972912352334"><ele>635.0</ele><time>2026-05-01T16:04:39.001Z</time></trkpt><trkpt lat="40.9452537424413" lon="9.377035111624428"><ele>635.0</ele><time>2026-05-01T16:04:41.001Z</time></trkpt><trkpt lat="40.9453379812677" lon="9.377103078968105"><ele>634.2</ele><time>2026-05-01T16:04:43.001Z</time></trkpt><trkpt lat="40.945456783908305" lon="9.37716920083376"><ele>633.4</ele><time>2026-05-01T16:04:45.001Z</time></trkpt><trkpt lat="40.945533857997006" lon="9.377196521498202"><ele>632.6</ele><time>2026-05-01T16:04:46.001Z</time></trkpt><trkpt lat="40.945592655406806" lon="9.377237130874349"><ele>631.8</ele><time>2026-05-01T16:04:47.001Z</time></trkpt><trkpt lat="40.9457196292871" lon="9.37730383943278"><ele>631.0</ele><time>2026-05-01T16:04:49.001Z</time></trkpt><trkpt lat="40.94577548717423" lon="9.377344599638942"><ele>631.0</ele><time>2026-05-01T16:04:50.001Z</time></trkpt><trkpt lat="40.94585433260095" lon="9.37738949755369"><ele>631.0</ele><time>2026-05-01T16:04:52.001Z</time></trkpt><trkpt lat="40.94596594050369" lon="9.377398599080324"><ele>631.0</ele><time>2026-05-01T16:04:54.001Z</time></trkpt><trkpt lat="40.94604196679888" lon="9.377439704325802"><ele>631.0</ele><time>2026-05-01T16:05:55.001Z</time></trkpt><trkpt lat="40.946075396662785" lon="9.37751698894168"><ele>631.0</ele><time>2026-05-01T16:05:57.001Z</time></trkpt><trkpt lat="40.94612483941121" lon="9.377579775541951"><ele>631.0</ele><time>2026-05-01T16:05:59.001Z</time></trkpt><trkpt lat="40.94617860634839" lon="9.377647032030275"><ele>629.5714285714286</ele><time>2026-05-01T16:06:01.001Z</time></trkpt><trkpt lat="40.94625384854194" lon="9.377630178741784"><ele>628.1428571428571</ele><time>2026-05-01T16:06:24.001Z</time></trkpt><trkpt lat="40.946298664458475" lon="9.37756448795957"><ele>626.7142857142857</ele><time>2026-05-01T16:06:27.001Z</time></trkpt><trkpt lat="40.94637458485306" lon="9.377508492953767"><ele>625.2857142857142</ele><time>2026-05-01T16:06:30.001Z</time></trkpt><trkpt lat="40.94643855890791" lon="9.377495287000178"><ele>623.8571428571429</ele><time>2026-05-01T16:06:33.001Z</time></trkpt><trkpt lat="40.94644167476326" lon="9.377580849344804"><ele>622.4285714285713</ele><time>2026-05-01T16:06:36.001Z</time></trkpt><trkpt lat="40.94641674969432" lon="9.377662420333799"><ele>621.0</ele><time>2026-05-01T16:06:44.001Z</time></trkpt><trkpt lat="40.94642196371064" lon="9.377763066868335"><ele>621.0</ele><time>2026-05-01T16:06:48.001Z</time></trkpt><trkpt lat="40.94639626451352" lon="9.37787669663353"><ele>621.0</ele><time>2026-05-01T16:06:51.001Z</time></trkpt><trkpt lat="40.946362639776126" lon="9.377977141316288"><ele>621.0</ele><time>2026-05-01T16:06:53.001Z</time></trkpt><trkpt lat="40.94635738051238" lon="9.378065524030491"><ele>621.0</ele><time>2026-05-01T16:06:58.001Z</time></trkpt><trkpt lat="40.94638579839381" lon="9.378158482242835"><ele>621.0</ele><time>2026-05-01T16:07:07.002Z</time></trkpt><trkpt lat="40.9463841945234" lon="9.37826088424517"><ele>621.0</ele><time>2026-05-01T16:07:13.001Z</time></trkpt><trkpt lat="40.94637472251321" lon="9.378382375041658"><ele>619.1666666666666</ele><time>2026-05-01T16:07:17.001Z</time></trkpt><trkpt lat="40.9463723268283" lon="9.378483634752953"><ele>617.3333333333334</ele><time>2026-05-01T16:07:20.001Z</time></trkpt><trkpt lat="40.94638293344575" lon="9.378625300246512"><ele>615.5</ele><time>2026-05-01T16:07:23.001Z</time></trkpt><trkpt lat="40.94639138919102" lon="9.378743167073495"><ele>613.6666666666667</ele><time>2026-05-01T16:07:25.001Z</time></trkpt><trkpt lat="40.94639418782519" lon="9.378842334148837"><ele>611.8333333333334</ele><time>2026-05-01T16:07:27.001Z</time></trkpt><trkpt lat="40.94634819103756" lon="9.378922250007463"><ele>610.0</ele><time>2026-05-01T16:07:30.001Z</time></trkpt><trkpt lat="40.94628692469679" lon="9.378991418176543"><ele>609.4285714285714</ele><time>2026-05-01T16:07:33.001Z</time></trkpt><trkpt lat="40.94626918834047" lon="9.379080040232685"><ele>608.8571428571428</ele><time>2026-05-01T16:07:36.001Z</time></trkpt><trkpt lat="40.94619801330232" lon="9.37911797458449"><ele>608.2857142857142</ele><time>2026-05-01T16:07:39.001Z</time></trkpt><trkpt lat="40.9461229979463" lon="9.379117827104727"><ele>607.7142857142858</ele><time>2026-05-01T16:07:44.001Z</time></trkpt><trkpt lat="40.94606446167251" lon="9.37916568565798"><ele>607.1428571428571</ele><time>2026-05-01T16:07:49.001Z</time></trkpt><trkpt lat="40.946031227788026" lon="9.37923751142093"><ele>606.5714285714286</ele><time>2026-05-01T16:07:54.001Z</time></trkpt><trkpt lat="40.94595862766325" lon="9.379247035133073"><ele>606.0</ele><time>2026-05-01T16:07:59.001Z</time></trkpt><trkpt lat="40.945896142688376" lon="9.379258914249935"><ele>606.0</ele><time>2026-05-01T16:08:07Z</time></trkpt><trkpt lat="40.945887524764274" lon="9.379355230853644"><ele>606.0</ele><time>2026-05-01T16:08:11Z</time></trkpt><trkpt lat="40.945930107026655" lon="9.379426548971834"><ele>606.0</ele><time>2026-05-01T16:08:15Z</time></trkpt><trkpt lat="40.94597888310435" lon="9.379484025328741"><ele>606.0</ele><time>2026-05-01T16:08:23Z</time></trkpt><trkpt lat="40.94602858282802" lon="9.37955992159201"><ele>606.0</ele><time>2026-05-01T16:08:25Z</time></trkpt><trkpt lat="40.94608654297664" lon="9.379610582120165"><ele>606.0</ele><time>2026-05-01T16:08:27Z</time></trkpt><trkpt lat="40.94615393758058" lon="9.379635467091864"><ele>606.0</ele><time>2026-05-01T16:08:31Z</time></trkpt><trkpt lat="40.94621644248462" lon="9.379649842468213"><ele>604.6666666666666</ele><time>2026-05-01T16:08:33Z</time></trkpt><trkpt lat="40.94623599016379" lon="9.379751120615392"><ele>603.3333333333334</ele><time>2026-05-01T16:08:36Z</time></trkpt><trkpt lat="40.9462860142434" lon="9.37984515739733"><ele>602.0</ele><time>2026-05-01T16:08:40Z</time></trkpt><trkpt lat="40.94625835497798" lon="9.379933423413952"><ele>600.6666666666667</ele><time>2026-05-01T16:08:44Z</time></trkpt><trkpt lat="40.94630780748181" lon="9.380024790444557"><ele>599.3333333333334</ele><time>2026-05-01T16:09:02Z</time></trkpt><trkpt lat="40.94639857124327" lon="9.380053876349812"><ele>598.0</ele><time>2026-05-01T16:09:04Z</time></trkpt><trkpt lat="40.94648721738538" lon="9.380095555411344"><ele>598.0</ele><time>2026-05-01T16:09:05Z</time></trkpt><trkpt lat="40.946540159462145" lon="9.380145081726134"><ele>598.0</ele><time>2026-05-01T16:09:06Z</time></trkpt><trkpt lat="40.94658977140558" lon="9.380197855709934"><ele>598.0</ele><time>2026-05-01T16:09:07Z</time></trkpt><trkpt lat="40.946670750262705" lon="9.380298984354038"><ele>598.0</ele><time>2026-05-01T16:09:09.001Z</time></trkpt><trkpt lat="40.946716807943304" lon="9.380355961012201"><ele>598.0</ele><time>2026-05-01T16:09:10.001Z</time></trkpt><trkpt lat="40.94677226492546" lon="9.380410163301379"><ele>598.0</ele><time>2026-05-01T16:09:11.001Z</time></trkpt><trkpt lat="40.94682278956538" lon="9.380464724892182"><ele>598.0</ele><time>2026-05-01T16:09:12.001Z</time></trkpt><trkpt lat="40.946880277945866" lon="9.380530266403687"><ele>595.0</ele><time>2026-05-01T16:09:13.001Z</time></trkpt><trkpt lat="40.94693595939998" lon="9.380581694401435"><ele>592.0</ele><time>2026-05-01T16:09:14.001Z</time></trkpt><trkpt lat="40.94699479008547" lon="9.380648031840433"><ele>589.0</ele><time>2026-05-01T16:09:15.001Z</time></trkpt><trkpt lat="40.94705617557838" lon="9.380702021220255"><ele>586.0</ele><time>2026-05-01T16:09:16.001Z</time></trkpt><trkpt lat="40.947114267780414" lon="9.380768514204094"><ele>583.0</ele><time>2026-05-01T16:09:17.001Z</time></trkpt><trkpt lat="40.947167755694906" lon="9.380841369159915"><ele>580.0</ele><time>2026-05-01T16:09:18.001Z</time></trkpt><trkpt lat="40.94722031980376" lon="9.380898116519068"><ele>577.0</ele><time>2026-05-01T16:09:19.001Z</time></trkpt><trkpt lat="40.94728304371045" lon="9.38095140100564"><ele>577.0</ele><time>2026-05-01T16:09:20.001Z</time></trkpt><trkpt lat="40.94739511600136" lon="9.381030720356263"><ele>577.0</ele><time>2026-05-01T16:09:22.001Z</time></trkpt><trkpt lat="40.94749002938892" lon="9.381140422574493"><ele>577.0</ele><time>2026-05-01T16:09:24.001Z</time></trkpt><trkpt lat="40.94755573709189" lon="9.381206740495768"><ele>577.0</ele><time>2026-05-01T16:09:26Z</time></trkpt><trkpt lat="40.947602312449746" lon="9.381273680708063"><ele>577.0</ele><time>2026-05-01T16:09:29Z</time></trkpt><trkpt lat="40.94762258570745" lon="9.38139313927507"><ele>567.75</ele><time>2026-05-01T16:09:31Z</time></trkpt><trkpt lat="40.947637385137384" lon="9.381544951109367"><ele>558.5</ele><time>2026-05-01T16:09:33Z</time></trkpt><trkpt lat="40.94763494043319" lon="9.381701102220436"><ele>549.25</ele><time>2026-05-01T16:09:35Z</time></trkpt><trkpt lat="40.947641879048064" lon="9.38185843884089"><ele>540.0</ele><time>2026-05-01T16:09:37Z</time></trkpt><trkpt lat="40.94766483848345" lon="9.382019225417055"><ele>539.4</ele><time>2026-05-01T16:09:39Z</time></trkpt><trkpt lat="40.947675271669176" lon="9.382186711780474"><ele>538.8</ele><time>2026-05-01T16:09:41Z</time></trkpt><trkpt lat="40.94767688184504" lon="9.382273169520909"><ele>538.2</ele><time>2026-05-01T16:09:42Z</time></trkpt><trkpt lat="40.947696178283735" lon="9.382404021809208"><ele>537.6</ele><time>2026-05-01T16:09:44Z</time></trkpt><trkpt lat="40.947747335801445" lon="9.382515890986573"><ele>537.0</ele><time>2026-05-01T16:09:46Z</time></trkpt><trkpt lat="40.94779652915606" lon="9.382570159287498"><ele>537.0</ele><time>2026-05-01T16:09:47Z</time></trkpt><trkpt lat="40.94784381622661" lon="9.38264072551852"><ele>537.0</ele><time>2026-05-01T16:09:48Z</time></trkpt><trkpt lat="40.94788729007973" lon="9.382707841600746"><ele>537.0</ele><time>2026-05-01T16:09:49Z</time></trkpt><trkpt lat="40.947958791884226" lon="9.382825378600904"><ele>537.0</ele><time>2026-05-01T16:09:51Z</time></trkpt><trkpt lat="40.94802449071048" lon="9.382931498531319"><ele>537.0</ele><time>2026-05-01T16:09:53Z</time></trkpt><trkpt lat="40.94808185721452" lon="9.383021548179162"><ele>537.0</ele><time>2026-05-01T16:09:55Z</time></trkpt><trkpt lat="40.94816713658635" lon="9.383031280442427"><ele>537.0</ele><time>2026-05-01T16:09:57Z</time></trkpt><trkpt lat="40.948219967461725" lon="9.382983047853863"><ele>537.0</ele><time>2026-05-01T16:09:59Z</time></trkpt><trkpt lat="40.94828713431528" lon="9.383001329339708"><ele>537.0</ele><time>2026-05-01T16:10:53Z</time></trkpt><trkpt lat="40.94832733900694" lon="9.383118597687922"><ele>537.0</ele><time>2026-05-01T16:11:07Z</time></trkpt><trkpt lat="40.94831030399787" lon="9.383248312301372"><ele>537.0</ele><time>2026-05-01T16:11:09Z</time></trkpt><trkpt lat="40.948303981365996" lon="9.38335813406724"><ele>537.0</ele><time>2026-05-01T16:11:11Z</time></trkpt><trkpt lat="40.94829459847079" lon="9.383473575695447"><ele>537.0</ele><time>2026-05-01T16:11:13Z</time></trkpt><trkpt lat="40.94824556759271" lon="9.383576955639555"><ele>537.0</ele><time>2026-05-01T16:11:14.999Z</time></trkpt><trkpt lat="40.94819574612168" lon="9.383663113687383"><ele>537.0</ele><time>2026-05-01T16:11:16.999Z</time></trkpt><trkpt lat="40.94824237195534" lon="9.383737215070592"><ele>537.0</ele><time>2026-05-01T16:11:18.999Z</time></trkpt><trkpt lat="40.94831864414237" lon="9.383703915556687"><ele>537.0</ele><time>2026-05-01T16:11:20.999Z</time></trkpt><trkpt lat="40.94837896627886" lon="9.383605269547552"><ele>537.0</ele><time>2026-05-01T16:11:22.999Z</time></trkpt><trkpt lat="40.9484524196273" lon="9.3834685525613"><ele>532.5</ele><time>2026-05-01T16:11:24.999Z</time></trkpt><trkpt lat="40.94847874894154" lon="9.383382153398804"><ele>528.0</ele><time>2026-05-01T16:11:25.999Z</time></trkpt><trkpt lat="40.948481250849056" lon="9.383298075439775"><ele>523.5</ele><time>2026-05-01T16:11:26.999Z</time></trkpt><trkpt lat="40.94853438084396" lon="9.383225429833448"><ele>519.0</ele><time>2026-05-01T16:11:28.999Z</time></trkpt><trkpt lat="40.94862193934911" lon="9.383335279979928"><ele>514.5</ele><time>2026-05-01T16:11:30.999Z</time></trkpt><trkpt lat="40.9486319924891" lon="9.383418395687919"><ele>510.0</ele><time>2026-05-01T16:11:31.999Z</time></trkpt><trkpt lat="40.94862993748337" lon="9.38351708768657"><ele>510.0</ele><time>2026-05-01T16:11:32.999Z</time></trkpt><trkpt lat="40.94862189216774" lon="9.383609733427392"><ele>510.0</ele><time>2026-05-01T16:11:33.999Z</time></trkpt><trkpt lat="40.94859296412084" lon="9.383744615948284"><ele>510.0</ele><time>2026-05-01T16:11:35.999Z</time></trkpt><trkpt lat="40.94866388237998" lon="9.38384395133177"><ele>510.0</ele><time>2026-05-01T16:11:37.999Z</time></trkpt><trkpt lat="40.94873005419453" lon="9.383825314009153"><ele>510.0</ele><time>2026-05-01T16:11:38.999Z</time></trkpt><trkpt lat="40.94878917012611" lon="9.383765380984"><ele>510.0</ele><time>2026-05-01T16:11:39.999Z</time></trkpt><trkpt lat="40.94883013759551" lon="9.383695153672896"><ele>510.0</ele><time>2026-05-01T16:11:40.999Z</time></trkpt><trkpt lat="40.94887275749204" lon="9.383627196983037"><ele>510.0</ele><time>2026-05-01T16:11:41.999Z</time></trkpt><trkpt lat="40.94899805359024" lon="9.383632572024466"><ele>510.0</ele><time>2026-05-01T16:11:43.999Z</time></trkpt><trkpt lat="40.94907247230277" lon="9.383689606174833"><ele>510.0</ele><time>2026-05-01T16:11:44.999Z</time></trkpt><trkpt lat="40.94912821069214" lon="9.383755260235382"><ele>510.0</ele><time>2026-05-01T16:11:45.999Z</time></trkpt><trkpt lat="40.94919268496585" lon="9.383810938267036"><ele>510.0</ele><time>2026-05-01T16:11:46.999Z</time></trkpt><trkpt lat="40.94925843543652" lon="9.38385752395411"><ele>506.6</ele><time>2026-05-01T16:11:47.999Z</time></trkpt><trkpt lat="40.94937770742692" lon="9.383895306057015"><ele>503.2</ele><time>2026-05-01T16:11:49.999Z</time></trkpt><trkpt lat="40.9494478375491" lon="9.383898905220448"><ele>499.79999999999995</ele><time>2026-05-01T16:11:51.999Z</time></trkpt><trkpt lat="40.94949738238313" lon="9.384017304211614"><ele>496.4</ele><time>2026-05-01T16:11:53.999Z</time></trkpt><trkpt lat="40.949465172095906" lon="9.384139592804145"><ele>493.0</ele><time>2026-05-01T16:11:55.999Z</time></trkpt><trkpt lat="40.94940925485441" lon="9.384179219033587"><ele>493.00000000000006</ele><time>2026-05-01T16:11:59.999Z</time></trkpt><trkpt lat="40.94944865208775" lon="9.384245807728691"><ele>493.0</ele><time>2026-05-01T16:12:12.999Z</time></trkpt><trkpt lat="40.94952163208228" lon="9.38427815426917"><ele>493.0</ele><time>2026-05-01T16:12:14.999Z</time></trkpt><trkpt lat="40.949625077251454" lon="9.384270544168983"><ele>493.0</ele><time>2026-05-01T16:12:15.999Z</time></trkpt><trkpt lat="40.949692015482725" lon="9.384243913099725"><ele>493.00000000000006</ele><time>2026-05-01T16:12:16.999Z</time></trkpt><trkpt lat="40.949752282096455" lon="9.384192426024887"><ele>493.0</ele><time>2026-05-01T16:12:17.999Z</time></trkpt><trkpt lat="40.94979436017123" lon="9.384126870828034"><ele>493.00000000000006</ele><time>2026-05-01T16:12:18.999Z</time></trkpt><trkpt lat="40.94981945621262" lon="9.384037428662314"><ele>493.0</ele><time>2026-05-01T16:12:19.999Z</time></trkpt><trkpt lat="40.949827581956036" lon="9.383936401817042"><ele>493.0</ele><time>2026-05-01T16:12:20.999Z</time></trkpt><trkpt lat="40.9498303122325" lon="9.383844717917254"><ele>493.0</ele><time>2026-05-01T16:12:21.999Z</time></trkpt><trkpt lat="40.949826774788775" lon="9.383741964396458"><ele>493.00000000000006</ele><time>2026-05-01T16:12:23.999Z</time></trkpt><trkpt lat="40.949801686334645" lon="9.38359737202608"><ele>493.0</ele><time>2026-05-01T16:12:26.999Z</time></trkpt><trkpt lat="40.949718828687296" lon="9.383502124391212"><ele>492.6666666666667</ele><time>2026-05-01T16:12:28.999Z</time></trkpt><trkpt lat="40.94964492781361" lon="9.383457812241739"><ele>492.33333333333337</ele><time>2026-05-01T16:12:29.999Z</time></trkpt><trkpt lat="40.94958650837795" lon="9.383418481863037"><ele>492.0</ele><time>2026-05-01T16:12:30.999Z</time></trkpt><trkpt lat="40.94952688954258" lon="9.383353502270136"><ele>491.66666666666663</ele><time>2026-05-01T16:12:31.999Z</time></trkpt><trkpt lat="40.94946668912038" lon="9.383275624353308"><ele>491.3333333333333</ele><time>2026-05-01T16:12:32.999Z</time></trkpt><trkpt lat="40.9494321373632" lon="9.383187844089072"><ele>491.0</ele><time>2026-05-01T16:12:33.999Z</time></trkpt><trkpt lat="40.94941545941099" lon="9.383086035834987"><ele>488.4</ele><time>2026-05-01T16:12:34.999Z</time></trkpt><trkpt lat="40.949393917179755" lon="9.382979946153705"><ele>485.8</ele><time>2026-05-01T16:12:35.999Z</time></trkpt><trkpt lat="40.949381204073404" lon="9.382865187278945"><ele>483.19999999999993</ele><time>2026-05-01T16:12:36.999Z</time></trkpt><trkpt lat="40.94936646943054" lon="9.382740663458256"><ele>480.59999999999997</ele><time>2026-05-01T16:12:37.999Z</time></trkpt><trkpt lat="40.949352829778256" lon="9.382605260830886"><ele>478.0</ele><time>2026-05-01T16:12:38.999Z</time></trkpt><trkpt lat="40.94932839822187" lon="9.382486097905703"><ele>478.0</ele><time>2026-05-01T16:12:39.999Z</time></trkpt><trkpt lat="40.94929898147516" lon="9.38239049373612"><ele>477.99999999999994</ele><time>2026-05-01T16:12:40.999Z</time></trkpt><trkpt lat="40.94933251284005" lon="9.382241775150362"><ele>477.99999999999994</ele><time>2026-05-01T16:12:42.999Z</time></trkpt><trkpt lat="40.949395239832924" lon="9.382162629959067"><ele>478.0</ele><time>2026-05-01T16:12:43.999Z</time></trkpt><trkpt lat="40.94948611693365" lon="9.382109312569852"><ele>478.0</ele><time>2026-05-01T16:12:44.999Z</time></trkpt><trkpt lat="40.94956108718086" lon="9.382054614211228"><ele>478.1666666666667</ele><time>2026-05-01T16:12:45.999Z</time></trkpt><trkpt lat="40.94963488682917" lon="9.38199959645541"><ele>478.33333333333337</ele><time>2026-05-01T16:12:46.999Z</time></trkpt><trkpt lat="40.949689277291164" lon="9.381944534638723"><ele>478.5</ele><time>2026-05-01T16:12:47.999Z</time></trkpt><trkpt lat="40.94974640103766" lon="9.381866554218766"><ele>478.66666666666663</ele><time>2026-05-01T16:12:48.999Z</time></trkpt><trkpt lat="40.94980005737151" lon="9.381774439360113"><ele>478.8333333333333</ele><time>2026-05-01T16:12:49.999Z</time></trkpt><trkpt lat="40.94983964347379" lon="9.38170841165291"><ele>479.0</ele><time>2026-05-01T16:12:50.999Z</time></trkpt><trkpt lat="40.949931375408255" lon="9.38159187210482"><ele>479.0</ele><time>2026-05-01T16:12:52.999Z</time></trkpt><trkpt lat="40.94998720481947" lon="9.381500451254821"><ele>479.0</ele><time>2026-05-01T16:12:54.999Z</time></trkpt><trkpt lat="40.95007035083965" lon="9.381383105620158"><ele>479.0</ele><time>2026-05-01T16:12:56.999Z</time></trkpt><trkpt lat="40.950133550568246" lon="9.381237236955624"><ele>479.0</ele><time>2026-05-01T16:12:58.999Z</time></trkpt><trkpt lat="40.9501640440596" lon="9.381158947640834"><ele>479.0</ele><time>2026-05-01T16:12:59.999Z</time></trkpt><trkpt lat="40.95021757000823" lon="9.381056869710248"><ele>475.57142857142856</ele><time>2026-05-01T16:13:01.999Z</time></trkpt><trkpt lat="40.950279673243905" lon="9.381127846110317"><ele>472.14285714285717</ele><time>2026-05-01T16:13:03.999Z</time></trkpt><trkpt lat="40.950269125974074" lon="9.381219527025777"><ele>468.7142857142857</ele><time>2026-05-01T16:13:05.999Z</time></trkpt><trkpt lat="40.95024485425553" lon="9.38130294518111"><ele>465.2857142857143</ele><time>2026-05-01T16:13:06.999Z</time></trkpt><trkpt lat="40.95022245958877" lon="9.381391983428712"><ele>461.8571428571429</ele><time>2026-05-01T16:13:07.999Z</time></trkpt><trkpt lat="40.95021710043338" lon="9.381478402852272"><ele>458.42857142857144</ele><time>2026-05-01T16:13:08.999Z</time></trkpt><trkpt lat="40.950224363859014" lon="9.381580947575124"><ele>455.0</ele><time>2026-05-01T16:13:09.999Z</time></trkpt><trkpt lat="40.950236517390515" lon="9.381678891171935"><ele>454.4</ele><time>2026-05-01T16:13:10.999Z</time></trkpt><trkpt lat="40.95025625747836" lon="9.381777918927796"><ele>453.8</ele><time>2026-05-01T16:13:11.999Z</time></trkpt><trkpt lat="40.95025731394552" lon="9.381870258325797"><ele>453.20000000000005</ele><time>2026-05-01T16:13:12.999Z</time></trkpt><trkpt lat="40.95024213994107" lon="9.38196179925955"><ele>452.6</ele><time>2026-05-01T16:13:13.999Z</time></trkpt><trkpt lat="40.95024757258582" lon="9.382096056104043"><ele>452.0</ele><time>2026-05-01T16:13:15.999Z</time></trkpt><trkpt lat="40.95034199973001" lon="9.382219540460087"><ele>451.99999999999994</ele><time>2026-05-01T16:13:17.999Z</time></trkpt><trkpt lat="40.95040202171636" lon="9.382262002969897"><ele>452.0</ele><time>2026-05-01T16:13:18.999Z</time></trkpt><trkpt lat="40.950497984719775" lon="9.382310233928612"><ele>452.0</ele><time>2026-05-01T16:13:20.999Z</time></trkpt><trkpt lat="40.95060000283887" lon="9.382361758415836"><ele>452.0</ele><time>2026-05-01T16:13:22.999Z</time></trkpt><trkpt lat="40.95066647333861" lon="9.382406702842077"><ele>451.99999999999994</ele><time>2026-05-01T16:13:23.999Z</time></trkpt><trkpt lat="40.95073159522925" lon="9.382457249901433"><ele>452.0</ele><time>2026-05-01T16:13:24.999Z</time></trkpt><trkpt lat="40.950814557803966" lon="9.38251177056857"><ele>446.99999999999994</ele><time>2026-05-01T16:13:25.999Z</time></trkpt><trkpt lat="40.95088657094218" lon="9.382545183997403"><ele>442.0</ele><time>2026-05-01T16:13:26.999Z</time></trkpt><trkpt lat="40.95095847728927" lon="9.382587546970527"><ele>437.0</ele><time>2026-05-01T16:13:27.999Z</time></trkpt><trkpt lat="40.95103035634679" lon="9.38262299957965"><ele>432.0</ele><time>2026-05-01T16:13:28.999Z</time></trkpt><trkpt lat="40.95109995051009" lon="9.382650605865349"><ele>426.99999999999994</ele><time>2026-05-01T16:13:29.999Z</time></trkpt><trkpt lat="40.95116430971086" lon="9.382674055931412"><ele>422.0</ele><time>2026-05-01T16:13:30.999Z</time></trkpt><trkpt lat="40.95127032142338" lon="9.382725484687283"><ele>421.99999999999994</ele><time>2026-05-01T16:13:32.999Z</time></trkpt><trkpt lat="40.95134469274671" lon="9.382841368550208"><ele>422.0</ele><time>2026-05-01T16:13:34.999Z</time></trkpt><trkpt lat="40.95138968027421" lon="9.382912291068404"><ele>422.0</ele><time>2026-05-01T16:13:35.999Z</time></trkpt><trkpt lat="40.95143029189744" lon="9.383004681750755"><ele>422.0</ele><time>2026-05-01T16:13:36.999Z</time></trkpt><trkpt lat="40.95147178124327" lon="9.383096907107"><ele>421.99999999999994</ele><time>2026-05-01T16:13:37.999Z</time></trkpt><trkpt lat="40.951514143454474" lon="9.383176577911005"><ele>422.0</ele><time>2026-05-01T16:13:38.999Z</time></trkpt><trkpt lat="40.95156334056422" lon="9.38325432664436"><ele>423.49999999999994</ele><time>2026-05-01T16:13:39.999Z</time></trkpt><trkpt lat="40.95160792923698" lon="9.383331561928744"><ele>425.0</ele><time>2026-05-01T16:13:40.999Z</time></trkpt><trkpt lat="40.951633174714445" lon="9.383424075793009"><ele>426.5</ele><time>2026-05-01T16:13:41.999Z</time></trkpt><trkpt lat="40.95165414688598" lon="9.383532539677862"><ele>428.0</ele><time>2026-05-01T16:13:42.999Z</time></trkpt><trkpt lat="40.95165494140415" lon="9.383643689232049"><ele>429.49999999999994</ele><time>2026-05-01T16:13:43.999Z</time></trkpt><trkpt lat="40.95164549189929" lon="9.383754051396956"><ele>431.0</ele><time>2026-05-01T16:13:44.999Z</time></trkpt><trkpt lat="40.95163605718447" lon="9.38385440588648"><ele>430.99999999999994</ele><time>2026-05-01T16:13:45.999Z</time></trkpt><trkpt lat="40.951637215740675" lon="9.383972061265327"><ele>431.0</ele><time>2026-05-01T16:13:46.999Z</time></trkpt><trkpt lat="40.951637845143075" lon="9.384063253588838"><ele>431.0</ele><time>2026-05-01T16:13:47.999Z</time></trkpt><trkpt lat="40.951625410394996" lon="9.384211479558283"><ele>431.0</ele><time>2026-05-01T16:13:49.999Z</time></trkpt><trkpt lat="40.95160623382013" lon="9.384301566979898"><ele>430.99999999999994</ele><time>2026-05-01T16:13:50.999Z</time></trkpt><trkpt lat="40.95158090861176" lon="9.384393223571045"><ele>431.0</ele><time>2026-05-01T16:13:51.999Z</time></trkpt><trkpt lat="40.951544949341546" lon="9.384493047572503"><ele>431.0</ele><time>2026-05-01T16:13:52.999Z</time></trkpt><trkpt lat="40.9515193010581" lon="9.384577706634325"><ele>431.0</ele><time>2026-05-01T16:13:53.999Z</time></trkpt><trkpt lat="40.951481036641106" lon="9.384718041609457"><ele>431.0</ele><time>2026-05-01T16:13:55.999Z</time></trkpt><trkpt lat="40.951454678670316" lon="9.38484599989316"><ele>431.0</ele><time>2026-05-01T16:13:57.999Z</time></trkpt><trkpt lat="40.95143441951177" lon="9.38495137168329"><ele>431.0</ele><time>2026-05-01T16:13:58.999Z</time></trkpt><trkpt lat="40.95141748531959" lon="9.385083127937818"><ele>429.20000000000005</ele><time>2026-05-01T16:14:00.999Z</time></trkpt><trkpt lat="40.9514101426377" lon="9.385225735378205"><ele>427.40000000000003</ele><time>2026-05-01T16:14:02.999Z</time></trkpt><trkpt lat="40.95140929234971" lon="9.385309887651852"><ele>425.6</ele><time>2026-05-01T16:14:03.999Z</time></trkpt><trkpt lat="40.9513827557065" lon="9.385464535065836"><ele>423.8</ele><time>2026-05-01T16:14:05.999Z</time></trkpt><trkpt lat="40.95136734305399" lon="9.385548272185662"><ele>422.0</ele><time>2026-05-01T16:14:06.999Z</time></trkpt><trkpt lat="40.95133635298333" lon="9.385698869927921"><ele>419.20000000000005</ele><time>2026-05-01T16:14:08.999Z</time></trkpt><trkpt lat="40.95135647173202" lon="9.385820536061333"><ele>416.4</ele><time>2026-05-01T16:14:10.999Z</time></trkpt><trkpt lat="40.95144861160955" lon="9.38584652263147"><ele>413.6</ele><time>2026-05-01T16:14:12.999Z</time></trkpt><trkpt lat="40.951550118257245" lon="9.385793957560688"><ele>410.79999999999995</ele><time>2026-05-01T16:14:14.999Z</time></trkpt><trkpt lat="40.951608221648925" lon="9.385731657084603"><ele>408.0</ele><time>2026-05-01T16:14:15.999Z</time></trkpt><trkpt lat="40.95167722400121" lon="9.38565217153358"><ele>406.0</ele><time>2026-05-01T16:14:16.999Z</time></trkpt><trkpt lat="40.95174869041178" lon="9.385579615986607"><ele>404.0</ele><time>2026-05-01T16:14:17.999Z</time></trkpt><trkpt lat="40.95189371277988" lon="9.385541314986028"><ele>402.0</ele><time>2026-05-01T16:14:19.999Z</time></trkpt><trkpt lat="40.95198241181557" lon="9.385524975368664"><ele>400.0</ele><time>2026-05-01T16:14:20.999Z</time></trkpt><trkpt lat="40.952060879813615" lon="9.385536772001066"><ele>398.0</ele><time>2026-05-01T16:14:21.999Z</time></trkpt><trkpt lat="40.952125295097275" lon="9.385577159402693"><ele>398.0</ele><time>2026-05-01T16:14:22.999Z</time></trkpt><trkpt lat="40.95218671387565" lon="9.385614062643763"><ele>398.0</ele><time>2026-05-01T16:14:23.999Z</time></trkpt><trkpt lat="40.95230439640756" lon="9.385661463341714"><ele>398.0</ele><time>2026-05-01T16:14:25.999Z</time></trkpt><trkpt lat="40.9524246551481" lon="9.38562053242342"><ele>398.0</ele><time>2026-05-01T16:14:27.999Z</time></trkpt><trkpt lat="40.95249635791049" lon="9.38559657767802"><ele>398.0</ele><time>2026-05-01T16:14:28.999Z</time></trkpt><trkpt lat="40.95257100518144" lon="9.385594904308737"><ele>396.4</ele><time>2026-05-01T16:14:29.999Z</time></trkpt><trkpt lat="40.95265399171937" lon="9.385599579626048"><ele>394.79999999999995</ele><time>2026-05-01T16:14:30.999Z</time></trkpt><trkpt lat="40.95272177324299" lon="9.385595469008408"><ele>393.2</ele><time>2026-05-01T16:14:31.999Z</time></trkpt><trkpt lat="40.95282808130618" lon="9.38556804367289"><ele>391.6</ele><time>2026-05-01T16:14:32.999Z</time></trkpt><trkpt lat="40.952939902752995" lon="9.385532067427484"><ele>390.0</ele><time>2026-05-01T16:14:33.999Z</time></trkpt><trkpt lat="40.953042760914585" lon="9.385509498525353"><ele>388.5</ele><time>2026-05-01T16:14:34.999Z</time></trkpt><trkpt lat="40.95313338100772" lon="9.385502651903328"><ele>387.0</ele><time>2026-05-01T16:14:35.999Z</time></trkpt><trkpt lat="40.95321531257003" lon="9.385488578688195"><ele>385.5</ele><time>2026-05-01T16:14:36.999Z</time></trkpt><trkpt lat="40.95329546814691" lon="9.385484484860967"><ele>384.0</ele><time>2026-05-01T16:14:37.999Z</time></trkpt><trkpt lat="40.953373699624606" lon="9.38548796562897"><ele>382.5</ele><time>2026-05-01T16:14:38.999Z</time></trkpt><trkpt lat="40.95345914329456" lon="9.385488996798848"><ele>381.0</ele><time>2026-05-01T16:14:39.999Z</time></trkpt><trkpt lat="40.953590287319955" lon="9.38549387260802"><ele>378.3333333333333</ele><time>2026-05-01T16:14:41.999Z</time></trkpt><trkpt lat="40.953672003599436" lon="9.385492293135728"><ele>375.6666666666667</ele><time>2026-05-01T16:14:42.999Z</time></trkpt><trkpt lat="40.953737599222954" lon="9.38550472513726"><ele>373.0</ele><time>2026-05-01T16:14:43.999Z</time></trkpt><trkpt lat="40.95383669939959" lon="9.38554641593483"><ele>370.33333333333337</ele><time>2026-05-01T16:14:45.999Z</time></trkpt><trkpt lat="40.953860664821406" lon="9.385636837389429"><ele>367.6666666666667</ele><time>2026-05-01T16:14:48.999Z</time></trkpt><trkpt lat="40.95384284224888" lon="9.385730502402465"><ele>365.0</ele><time>2026-05-01T16:14:50.999Z</time></trkpt><trkpt lat="40.95383638239539" lon="9.385875839808511"><ele>365.0</ele><time>2026-05-01T16:14:52.999Z</time></trkpt><trkpt lat="40.953850289091456" lon="9.386028269229348"><ele>365.0</ele><time>2026-05-01T16:14:54.999Z</time></trkpt><trkpt lat="40.95389572093005" lon="9.386160774306934"><ele>365.0</ele><time>2026-05-01T16:14:56.999Z</time></trkpt><trkpt lat="40.95391930499626" lon="9.386240326326755"><ele>365.0</ele><time>2026-05-01T16:14:57.999Z</time></trkpt><trkpt lat="40.95394034679131" lon="9.386320120009458"><ele>365.0</ele><time>2026-05-01T16:14:58.999Z</time></trkpt><trkpt lat="40.95393664990583" lon="9.386493748299934"><ele>365.6</ele><time>2026-05-01T16:15:00.999Z</time></trkpt><trkpt lat="40.95391849810664" lon="9.386590721157525"><ele>366.2</ele><time>2026-05-01T16:15:01.999Z</time></trkpt><trkpt lat="40.9538932358384" lon="9.386680730086914"><ele>366.79999999999995</ele><time>2026-05-01T16:15:02.999Z</time></trkpt><trkpt lat="40.953879126578066" lon="9.386802831313135"><ele>367.4</ele><time>2026-05-01T16:15:04.999Z</time></trkpt><trkpt lat="40.95387333404567" lon="9.386902107046945"><ele>368.0</ele><time>2026-05-01T16:15:06.999Z</time></trkpt><trkpt lat="40.95396641062285" lon="9.38709393268337"><ele>368.0</ele><time>2026-05-01T16:15:07.999Z</time></trkpt><trkpt lat="40.954025038997706" lon="9.387171491228294"><ele>368.0</ele><time>2026-05-01T16:15:08.999Z</time></trkpt><trkpt lat="40.954102658331266" lon="9.387236609341038"><ele>368.0</ele><time>2026-05-01T16:15:09.999Z</time></trkpt><trkpt lat="40.95416126207212" lon="9.38727392542372"><ele>368.0</ele><time>2026-05-01T16:15:10.999Z</time></trkpt><trkpt lat="40.954270270115835" lon="9.387299155765875"><ele>368.0</ele><time>2026-05-01T16:15:12.999Z</time></trkpt><trkpt lat="40.95434534827982" lon="9.387310625603856"><ele>368.0</ele><time>2026-05-01T16:15:13.999Z</time></trkpt><trkpt lat="40.95442681390948" lon="9.387316554450575"><ele>366.33333333333337</ele><time>2026-05-01T16:15:14.999Z</time></trkpt><trkpt lat="40.95452574515445" lon="9.38732976097443"><ele>364.6666666666667</ele><time>2026-05-01T16:15:15.999Z</time></trkpt><trkpt lat="40.95461157940198" lon="9.387348872284626"><ele>363.0</ele><time>2026-05-01T16:15:16.999Z</time></trkpt><trkpt lat="40.95467974026256" lon="9.38736953701208"><ele>361.3333333333333</ele><time>2026-05-01T16:15:17.999Z</time></trkpt><trkpt lat="40.95474492872309" lon="9.387387082151495"><ele>359.66666666666663</ele><time>2026-05-01T16:15:18.999Z</time></trkpt><trkpt lat="40.9548133862682" lon="9.387396079497396"><ele>358.0</ele><time>2026-05-01T16:15:19.999Z</time></trkpt><trkpt lat="40.95487994137405" lon="9.387419546064075"><ele>358.0</ele><time>2026-05-01T16:15:20.999Z</time></trkpt><trkpt lat="40.95494799617832" lon="9.387444751425255"><ele>358.0</ele><time>2026-05-01T16:15:21.999Z</time></trkpt><trkpt lat="40.955060588077984" lon="9.38748365941082"><ele>358.0</ele><time>2026-05-01T16:15:23.999Z</time></trkpt><trkpt lat="40.95512743963799" lon="9.387477623110158"><ele>358.0</ele><time>2026-05-01T16:15:24.999Z</time></trkpt><trkpt lat="40.955204333323366" lon="9.387462076849724"><ele>358.0</ele><time>2026-05-01T16:15:25.999Z</time></trkpt><trkpt lat="40.955275159161744" lon="9.387462756821666"><ele>358.0</ele><time>2026-05-01T16:15:26.999Z</time></trkpt><trkpt lat="40.95533990378587" lon="9.387473909269454"><ele>357.3333333333333</ele><time>2026-05-01T16:15:27.999Z</time></trkpt><trkpt lat="40.95543683259513" lon="9.387526691403137"><ele>356.66666666666663</ele><time>2026-05-01T16:15:29.999Z</time></trkpt><trkpt lat="40.95550598276088" lon="9.387593913542581"><ele>356.0</ele><time>2026-05-01T16:15:31.999Z</time></trkpt><trkpt lat="40.95558847729983" lon="9.387615300894169"><ele>355.3333333333333</ele><time>2026-05-01T16:15:33.999Z</time></trkpt><trkpt lat="40.95565427310227" lon="9.387632405897909"><ele>354.6666666666667</ele><time>2026-05-01T16:15:34.999Z</time></trkpt><trkpt lat="40.95574160379936" lon="9.38763977026885"><ele>354.0</ele><time>2026-05-01T16:15:35.999Z</time></trkpt><trkpt lat="40.95583522010343" lon="9.38765155727671"><ele>351.4</ele><time>2026-05-01T16:15:36.999Z</time></trkpt><trkpt lat="40.95593381361775" lon="9.387663334705206"><ele>348.79999999999995</ele><time>2026-05-01T16:15:37.999Z</time></trkpt><trkpt lat="40.95600972775496" lon="9.387657360449671"><ele>346.20000000000005</ele><time>2026-05-01T16:15:38.999Z</time></trkpt><trkpt lat="40.956075318952024" lon="9.387643974462222"><ele>343.6</ele><time>2026-05-01T16:15:39.999Z</time></trkpt><trkpt lat="40.95619041251573" lon="9.387625738085866"><ele>341.0</ele><time>2026-05-01T16:15:42Z</time></trkpt><trkpt lat="40.95629663156199" lon="9.38764432587986"><ele>341.0</ele><time>2026-05-01T16:15:44Z</time></trkpt><trkpt lat="40.95636942161176" lon="9.387660817187394"><ele>341.0</ele><time>2026-05-01T16:15:45Z</time></trkpt><trkpt lat="40.956433061530944" lon="9.387683850259002"><ele>341.0</ele><time>2026-05-01T16:15:46Z</time></trkpt><trkpt lat="40.95654907227074" lon="9.387676286793397"><ele>341.0</ele><time>2026-05-01T16:15:48Z</time></trkpt><trkpt lat="40.95667745601471" lon="9.387685237591501"><ele>341.0</ele><time>2026-05-01T16:15:50Z</time></trkpt><trkpt lat="40.95675823187009" lon="9.387698506831216"><ele>339.5</ele><time>2026-05-01T16:15:51Z</time></trkpt><trkpt lat="40.95684255584489" lon="9.387708207090856"><ele>338.0</ele><time>2026-05-01T16:15:52Z</time></trkpt><trkpt lat="40.95693348500927" lon="9.387705175304932"><ele>336.5</ele><time>2026-05-01T16:15:53Z</time></trkpt><trkpt lat="40.95702381491837" lon="9.387688532211465"><ele>335.0</ele><time>2026-05-01T16:15:54Z</time></trkpt><trkpt lat="40.957112009831874" lon="9.387672326456615"><ele>333.5</ele><time>2026-05-01T16:15:55Z</time></trkpt><trkpt lat="40.957187686169945" lon="9.38764814607024"><ele>332.0</ele><time>2026-05-01T16:15:56Z</time></trkpt><trkpt lat="40.95725993623249" lon="9.38763356809362"><ele>332.0</ele><time>2026-05-01T16:15:57Z</time></trkpt><trkpt lat="40.95733842132425" lon="9.387618834919623"><ele>332.0</ele><time>2026-05-01T16:15:58Z</time></trkpt><trkpt lat="40.957451188585146" lon="9.387651204475187"><ele>332.0</ele><time>2026-05-01T16:16:00Z</time></trkpt><trkpt lat="40.9575618848337" lon="9.387633137935854"><ele>332.0</ele><time>2026-05-01T16:16:02Z</time></trkpt><trkpt lat="40.95764560697284" lon="9.387575300804757"><ele>332.0</ele><time>2026-05-01T16:16:04Z</time></trkpt><trkpt lat="40.9577239419354" lon="9.387557408547696"><ele>330.0</ele><time>2026-05-01T16:16:06Z</time></trkpt><trkpt lat="40.957790291300505" lon="9.387575127444647"><ele>328.0</ele><time>2026-05-01T16:16:10Z</time></trkpt><trkpt lat="40.95786870473655" lon="9.387535737166065"><ele>326.0</ele><time>2026-05-01T16:16:12Z</time></trkpt><trkpt lat="40.95794174728666" lon="9.387477667855421"><ele>324.0</ele><time>2026-05-01T16:16:14Z</time></trkpt><trkpt lat="40.95802810708898" lon="9.387398366489919"><ele>322.0</ele><time>2026-05-01T16:16:16Z</time></trkpt><trkpt lat="40.95810118987831" lon="9.387368357216141"><ele>320.0</ele><time>2026-05-01T16:16:18Z</time></trkpt><trkpt lat="40.95815974057416" lon="9.387451525131006"><ele>320.0</ele><time>2026-05-01T16:16:20Z</time></trkpt><trkpt lat="40.9582140478942" lon="9.387540081922323"><ele>320.0</ele><time>2026-05-01T16:16:22Z</time></trkpt><trkpt lat="40.95829432154865" lon="9.387561410441064"><ele>320.0</ele><time>2026-05-01T16:16:24Z</time></trkpt><trkpt lat="40.95836074371632" lon="9.387522456307845"><ele>320.0</ele><time>2026-05-01T16:16:26Z</time></trkpt><trkpt lat="40.95839002395198" lon="9.387416123144002"><ele>320.0</ele><time>2026-05-01T16:16:43Z</time></trkpt><trkpt lat="40.95842789842727" lon="9.387274781629879"><ele>320.0</ele><time>2026-05-01T16:16:45Z</time></trkpt><trkpt lat="40.95848499304483" lon="9.387118617128248"><ele>318.5</ele><time>2026-05-01T16:16:46.999Z</time></trkpt><trkpt lat="40.95852672437685" lon="9.387032800062507"><ele>317.0</ele><time>2026-05-01T16:16:47.999Z</time></trkpt><trkpt lat="40.95856273243449" lon="9.386958599786935"><ele>315.5</ele><time>2026-05-01T16:16:48.999Z</time></trkpt><trkpt lat="40.95859553434441" lon="9.386885536014004"><ele>314.0</ele><time>2026-05-01T16:16:49.999Z</time></trkpt><trkpt lat="40.958645234109284" lon="9.386788133578182"><ele>312.5</ele><time>2026-05-01T16:16:50.999Z</time></trkpt><trkpt lat="40.958679830177616" lon="9.386674163321807"><ele>311.0</ele><time>2026-05-01T16:16:51.999Z</time></trkpt><trkpt lat="40.95870655366344" lon="9.386589318116641"><ele>311.0</ele><time>2026-05-01T16:16:52.999Z</time></trkpt><trkpt lat="40.9587551638543" lon="9.386529930056046"><ele>311.0</ele><time>2026-05-01T16:16:53.999Z</time></trkpt><trkpt lat="40.95881836282715" lon="9.386504057917245"><ele>311.0</ele><time>2026-05-01T16:16:54.999Z</time></trkpt><trkpt lat="40.95888534448663" lon="9.386507463615732"><ele>311.0</ele><time>2026-05-01T16:16:55.999Z</time></trkpt><trkpt lat="40.95894773567741" lon="9.386534400944894"><ele>311.0</ele><time>2026-05-01T16:16:56.999Z</time></trkpt><trkpt lat="40.959054589988796" lon="9.386599058056218"><ele>311.0</ele><time>2026-05-01T16:16:58.999Z</time></trkpt><trkpt lat="40.95911419981573" lon="9.38663757841185"><ele>311.0</ele><time>2026-05-01T16:16:59.999Z</time></trkpt><trkpt lat="40.95919348458709" lon="9.386654607058029"><ele>311.2857142857143</ele><time>2026-05-01T16:17:00.999Z</time></trkpt><trkpt lat="40.95927397214968" lon="9.386651749671033"><ele>311.5714285714286</ele><time>2026-05-01T16:17:01.999Z</time></trkpt><trkpt lat="40.959346178112774" lon="9.386651067795746"><ele>311.8571428571429</ele><time>2026-05-01T16:17:02.999Z</time></trkpt><trkpt lat="40.95941644222718" lon="9.386629705523264"><ele>312.1428571428571</ele><time>2026-05-01T16:17:03.999Z</time></trkpt><trkpt lat="40.959486234645226" lon="9.386618177732649"><ele>312.42857142857144</ele><time>2026-05-01T16:17:04.999Z</time></trkpt><trkpt lat="40.95955923407274" lon="9.386602081852125"><ele>312.7142857142857</ele><time>2026-05-01T16:17:05.999Z</time></trkpt><trkpt lat="40.95963798299321" lon="9.386587799789261"><ele>313.0</ele><time>2026-05-01T16:17:06.999Z</time></trkpt><trkpt lat="40.95971841275101" lon="9.38657212324697"><ele>313.0</ele><time>2026-05-01T16:17:07.999Z</time></trkpt><trkpt lat="40.959790242735984" lon="9.386556181227677"><ele>313.0</ele><time>2026-05-01T16:17:08.999Z</time></trkpt><trkpt lat="40.95987159990176" lon="9.38654060427943"><ele>313.0</ele><time>2026-05-01T16:17:09.999Z</time></trkpt><trkpt lat="40.9599586329299" lon="9.38651381311128"><ele>313.0</ele><time>2026-05-01T16:17:10.999Z</time></trkpt><trkpt lat="40.960046028668216" lon="9.386488855121017"><ele>313.0</ele><time>2026-05-01T16:17:11.999Z</time></trkpt><trkpt lat="40.96011214279803" lon="9.386450557920833"><ele>313.0</ele><time>2026-05-01T16:17:12.999Z</time></trkpt><trkpt lat="40.96019709261573" lon="9.386369899211754"><ele>310.0</ele><time>2026-05-01T16:17:13.999Z</time></trkpt><trkpt lat="40.96027295614012" lon="9.386338745885789"><ele>307.0</ele><time>2026-05-01T16:17:14.999Z</time></trkpt><trkpt lat="40.96035758062495" lon="9.386297962251628"><ele>304.0</ele><time>2026-05-01T16:17:15.999Z</time></trkpt><trkpt lat="40.96043236019912" lon="9.386243200427785"><ele>301.0</ele><time>2026-05-01T16:17:16.999Z</time></trkpt><trkpt lat="40.96051145028239" lon="9.386194145533445"><ele>298.0</ele><time>2026-05-01T16:17:17.999Z</time></trkpt><trkpt lat="40.9605845667796" lon="9.386152942408991"><ele>295.0</ele><time>2026-05-01T16:17:18.999Z</time></trkpt><trkpt lat="40.96065523198897" lon="9.386082405132388"><ele>295.0</ele><time>2026-05-01T16:17:20.999Z</time></trkpt><trkpt lat="40.96075313190242" lon="9.38607997890762"><ele>295.0</ele><time>2026-05-01T16:17:22.999Z</time></trkpt><trkpt lat="40.96088207939058" lon="9.386054978291114"><ele>295.0</ele><time>2026-05-01T16:17:24.999Z</time></trkpt><trkpt lat="40.960960657703474" lon="9.386028557943103"><ele>295.0</ele><time>2026-05-01T16:17:25.999Z</time></trkpt><trkpt lat="40.96103510506913" lon="9.38600287126341"><ele>295.0</ele><time>2026-05-01T16:17:26.999Z</time></trkpt><trkpt lat="40.961104977858426" lon="9.38598112614556"><ele>296.8</ele><time>2026-05-01T16:17:27.999Z</time></trkpt><trkpt lat="40.96116716418543" lon="9.385949437759184"><ele>298.6</ele><time>2026-05-01T16:17:28.999Z</time></trkpt><trkpt lat="40.961290835478756" lon="9.385875648387831"><ele>300.4</ele><time>2026-05-01T16:17:30.999Z</time></trkpt><trkpt lat="40.961359056166685" lon="9.38581180719481"><ele>302.2</ele><time>2026-05-01T16:17:31.999Z</time></trkpt><trkpt lat="40.961439029578" lon="9.385733665841952"><ele>304.0</ele><time>2026-05-01T16:17:33Z</time></trkpt><trkpt lat="40.96152297459437" lon="9.385668459304483"><ele>304.0</ele><time>2026-05-01T16:17:34Z</time></trkpt><trkpt lat="40.96160262914597" lon="9.385588890881372"><ele>304.0</ele><time>2026-05-01T16:17:35Z</time></trkpt><trkpt lat="40.96166006468532" lon="9.38554493446122"><ele>304.0</ele><time>2026-05-01T16:17:36Z</time></trkpt><trkpt lat="40.96176099526459" lon="9.385507595800888"><ele>304.0</ele><time>2026-05-01T16:17:38Z</time></trkpt><trkpt lat="40.96184161814666" lon="9.385539589116794"><ele>304.0</ele><time>2026-05-01T16:17:40Z</time></trkpt><trkpt lat="40.96193290989349" lon="9.385587379551062"><ele>299.8333333333333</ele><time>2026-05-01T16:17:42Z</time></trkpt><trkpt lat="40.96200342818017" lon="9.38567309849831"><ele>295.66666666666663</ele><time>2026-05-01T16:17:44Z</time></trkpt><trkpt lat="40.96206026017865" lon="9.385752099546364"><ele>291.5</ele><time>2026-05-01T16:17:46Z</time></trkpt><trkpt lat="40.96211969516043" lon="9.385811354708284"><ele>287.3333333333333</ele><time>2026-05-01T16:17:48Z</time></trkpt><trkpt lat="40.96215172773011" lon="9.385912949309018"><ele>283.1666666666667</ele><time>2026-05-01T16:17:51Z</time></trkpt><trkpt lat="40.96217754734739" lon="9.386017495607808"><ele>279.0</ele><time>2026-05-01T16:17:53Z</time></trkpt><trkpt lat="40.962207397896044" lon="9.386091473930211"><ele>279.0</ele><time>2026-05-01T16:17:55Z</time></trkpt><trkpt lat="40.962218591126714" lon="9.386191975540445"><ele>279.0</ele><time>2026-05-01T16:17:57Z</time></trkpt><trkpt lat="40.96221373075906" lon="9.386283063218263"><ele>279.0</ele><time>2026-05-01T16:17:59Z</time></trkpt><trkpt lat="40.96220883030035" lon="9.386413709100534"><ele>279.0</ele><time>2026-05-01T16:18:01Z</time></trkpt><trkpt lat="40.96222383667735" lon="9.386504141453814"><ele>279.0</ele><time>2026-05-01T16:18:03Z</time></trkpt><trkpt lat="40.96227521378052" lon="9.386608826462867"><ele>279.0</ele><time>2026-05-01T16:18:05Z</time></trkpt><trkpt lat="40.962319724467626" lon="9.386699721336138"><ele>280.57142857142856</ele><time>2026-05-01T16:18:07Z</time></trkpt><trkpt lat="40.96239687048924" lon="9.386726354751687"><ele>282.1428571428571</ele><time>2026-05-01T16:18:10Z</time></trkpt><trkpt lat="40.96247761699499" lon="9.386770477201264"><ele>283.7142857142857</ele><time>2026-05-01T16:18:13Z</time></trkpt><trkpt lat="40.96254438174643" lon="9.386805973252775"><ele>285.2857142857143</ele><time>2026-05-01T16:18:16Z</time></trkpt><trkpt lat="40.96261102701318" lon="9.386814183906292"><ele>286.8571428571429</ele><time>2026-05-01T16:18:23Z</time></trkpt><trkpt lat="40.96267489709918" lon="9.386811976292059"><ele>288.42857142857144</ele><time>2026-05-01T16:18:28Z</time></trkpt><trkpt lat="40.96274677616812" lon="9.386829929147256"><ele>290.0</ele><time>2026-05-01T16:18:33Z</time></trkpt><trkpt lat="40.96281557709347" lon="9.38683733502403"><ele>286.0</ele><time>2026-05-01T16:18:37Z</time></trkpt><trkpt lat="40.962917587362455" lon="9.386844429083311"><ele>282.0</ele><time>2026-05-01T16:18:41Z</time></trkpt><trkpt lat="40.962987203841635" lon="9.386829991973023"><ele>278.0</ele><time>2026-05-01T16:18:44Z</time></trkpt><trkpt lat="40.9630586668627" lon="9.386832018739119"><ele>274.0</ele><time>2026-05-01T16:18:51Z</time></trkpt><trkpt lat="40.96312313890659" lon="9.386795117023413"><ele>270.0</ele><time>2026-05-01T16:19:03Z</time></trkpt><trkpt lat="40.96319991425685" lon="9.386790736391413"><ele>266.0</ele><time>2026-05-01T16:19:07Z</time></trkpt><trkpt lat="40.96326507129225" lon="9.386789123916811"><ele>266.0</ele><time>2026-05-01T16:19:10Z</time></trkpt><trkpt lat="40.963356692491836" lon="9.386803306311004"><ele>266.0</ele><time>2026-05-01T16:19:14Z</time></trkpt><trkpt lat="40.96345336427119" lon="9.38681270448543"><ele>266.0</ele><time>2026-05-01T16:19:17Z</time></trkpt><trkpt lat="40.96353454292262" lon="9.386820532416367"><ele>266.0</ele><time>2026-05-01T16:19:19Z</time></trkpt><trkpt lat="40.96360824476084" lon="9.38681757012274"><ele>266.0</ele><time>2026-05-01T16:19:21Z</time></trkpt><trkpt lat="40.96368062470033" lon="9.386827427549553"><ele>266.0</ele><time>2026-05-01T16:19:23.999Z</time></trkpt><trkpt lat="40.963745347785675" lon="9.386822386724637"><ele>264.33333333333337</ele><time>2026-05-01T16:19:27.999Z</time></trkpt><trkpt lat="40.96381814004697" lon="9.386839694002106"><ele>262.6666666666667</ele><time>2026-05-01T16:19:30.999Z</time></trkpt><trkpt lat="40.963902207602885" lon="9.386863766927076"><ele>261.0</ele><time>2026-05-01T16:19:32.999Z</time></trkpt><trkpt lat="40.96397991626956" lon="9.386907214328398"><ele>259.3333333333333</ele><time>2026-05-01T16:19:34.999Z</time></trkpt><trkpt lat="40.96404662495488" lon="9.386933307400286"><ele>257.66666666666663</ele><time>2026-05-01T16:19:36.999Z</time></trkpt><trkpt lat="40.964115528616055" lon="9.386936433153693"><ele>256.0</ele><time>2026-05-01T16:20:10Z</time></trkpt><trkpt lat="40.96419826479286" lon="9.38694365631765"><ele>253.4</ele><time>2026-05-01T16:20:12Z</time></trkpt><trkpt lat="40.96426408400787" lon="9.38693180460215"><ele>250.8</ele><time>2026-05-01T16:20:14Z</time></trkpt><trkpt lat="40.96433655312107" lon="9.38691868469908"><ele>248.20000000000002</ele><time>2026-05-01T16:20:17Z</time></trkpt><trkpt lat="40.964436767284674" lon="9.386864650407851"><ele>245.60000000000002</ele><time>2026-05-01T16:20:21Z</time></trkpt><trkpt lat="40.96452607602405" lon="9.386818972901583"><ele>243.0</ele><time>2026-05-01T16:20:24Z</time></trkpt><trkpt lat="40.96463414307854" lon="9.386780251609013"><ele>243.0</ele><time>2026-05-01T16:20:27Z</time></trkpt><trkpt lat="40.96471089107159" lon="9.386806387131266"><ele>243.0</ele><time>2026-05-01T16:20:29Z</time></trkpt><trkpt lat="40.96477407696835" lon="9.386826278957264"><ele>243.0</ele><time>2026-05-01T16:20:33Z</time></trkpt><trkpt lat="40.96485030332238" lon="9.38684539901546"><ele>243.0</ele><time>2026-05-01T16:20:36Z</time></trkpt><trkpt lat="40.96494949085288" lon="9.386846267275981"><ele>243.0</ele><time>2026-05-01T16:20:38Z</time></trkpt><trkpt lat="40.965022501800604" lon="9.386830426230835"><ele>243.0</ele><time>2026-05-01T16:20:40Z</time></trkpt><trkpt lat="40.96509020215012" lon="9.386820511870592"><ele>240.0</ele><time>2026-05-01T16:20:42Z</time></trkpt><trkpt lat="40.965199063949356" lon="9.386791064959793"><ele>237.0</ele><time>2026-05-01T16:20:44Z</time></trkpt><trkpt lat="40.965251432349994" lon="9.38672227159837"><ele>234.0</ele><time>2026-05-01T16:20:46Z</time></trkpt><trkpt lat="40.96527301649849" lon="9.38662025566642"><ele>231.0</ele><time>2026-05-01T16:20:48Z</time></trkpt><trkpt lat="40.965276547245985" lon="9.386493763663275"><ele>228.0</ele><time>2026-05-01T16:20:50Z</time></trkpt><trkpt lat="40.96527903470205" lon="9.386392098118934"><ele>225.0</ele><time>2026-05-01T16:20:52Z</time></trkpt><trkpt lat="40.96528581108711" lon="9.38630672407409"><ele>223.8571428571429</ele><time>2026-05-01T16:20:54.001Z</time></trkpt><trkpt lat="40.965345286001" lon="9.386267428574664"><ele>222.71428571428572</ele><time>2026-05-01T16:20:57.001Z</time></trkpt><trkpt lat="40.965413801215696" lon="9.386267175416588"><ele>221.57142857142858</ele><time>2026-05-01T16:20:59.001Z</time></trkpt><trkpt lat="40.96547923370862" lon="9.386253142520149"><ele>220.42857142857144</ele><time>2026-05-01T16:21:01.001Z</time></trkpt><trkpt lat="40.96556417738907" lon="9.386276526017124"><ele>219.28571428571428</ele><time>2026-05-01T16:21:04.001Z</time></trkpt><trkpt lat="40.96562723946556" lon="9.386285789854883"><ele>218.14285714285714</ele><time>2026-05-01T16:21:06.001Z</time></trkpt><trkpt lat="40.96570731927505" lon="9.386297716611672"><ele>217.0</ele><time>2026-05-01T16:21:10.001Z</time></trkpt><trkpt lat="40.96578256698311" lon="9.386327655404822"><ele>218.33333333333331</ele><time>2026-05-01T16:21:14.001Z</time></trkpt><trkpt lat="40.96583950248279" lon="9.386407175026068"><ele>219.66666666666666</ele><time>2026-05-01T16:21:17.001Z</time></trkpt><trkpt lat="40.965828051486895" lon="9.38648948867425"><ele>221.0</ele><time>2026-05-01T16:21:58Z</time></trkpt><trkpt lat="40.96576471898945" lon="9.386572669917005"><ele>222.33333333333331</ele><time>2026-05-01T16:22:02Z</time></trkpt><trkpt lat="40.96570706105663" lon="9.386638899881929"><ele>223.66666666666666</ele><time>2026-05-01T16:22:04Z</time></trkpt><trkpt lat="40.96565990961378" lon="9.386716506183454"><ele>225.0</ele><time>2026-05-01T16:22:06Z</time></trkpt><trkpt lat="40.96564295425325" lon="9.386798956100858"><ele>225.0</ele><time>2026-05-01T16:22:08Z</time></trkpt><trkpt lat="40.96565273761638" lon="9.386897771360303"><ele>225.0</ele><time>2026-05-01T16:22:10Z</time></trkpt><trkpt lat="40.96570934973553" lon="9.386957472412412"><ele>225.0</ele><time>2026-05-01T16:22:12Z</time></trkpt><trkpt lat="40.96578114294741" lon="9.38694456680933"><ele>225.0</ele><time>2026-05-01T16:22:14Z</time></trkpt><trkpt lat="40.96586053421868" lon="9.386929727501789"><ele>225.0</ele><time>2026-05-01T16:22:17Z</time></trkpt><trkpt lat="40.96594408549689" lon="9.386940868302608"><ele>225.0</ele><time>2026-05-01T16:22:25Z</time></trkpt><trkpt lat="40.96600827077567" lon="9.386984501544207"><ele>221.16666666666666</ele><time>2026-05-01T16:22:30Z</time></trkpt><trkpt lat="40.96607970661141" lon="9.387031041606276"><ele>217.33333333333331</ele><time>2026-05-01T16:22:34Z</time></trkpt><trkpt lat="40.96614960023885" lon="9.387023073237"><ele>213.5</ele><time>2026-05-01T16:22:37Z</time></trkpt><trkpt lat="40.96621117701986" lon="9.387047111198132"><ele>209.66666666666666</ele><time>2026-05-01T16:22:40Z</time></trkpt><trkpt lat="40.96629470482609" lon="9.38702863743838"><ele>205.83333333333331</ele><time>2026-05-01T16:22:43Z</time></trkpt><trkpt lat="40.96637593958703" lon="9.38701855175811"><ele>202.0</ele><time>2026-05-01T16:22:46Z</time></trkpt><trkpt lat="40.96644585015703" lon="9.386995610860541"><ele>202.0</ele><time>2026-05-01T16:22:49Z</time></trkpt><trkpt lat="40.96651240279257" lon="9.386961535024252"><ele>202.0</ele><time>2026-05-01T16:22:52Z</time></trkpt><trkpt lat="40.966584264646094" lon="9.386919917760197"><ele>202.0</ele><time>2026-05-01T16:22:55Z</time></trkpt><trkpt lat="40.96664461927692" lon="9.38689542018145"><ele>202.0</ele><time>2026-05-01T16:22:57Z</time></trkpt><trkpt lat="40.966707971434005" lon="9.38688498522304"><ele>202.0</ele><time>2026-05-01T16:22:59Z</time></trkpt><trkpt lat="40.96678546768057" lon="9.386897564185938"><ele>202.0</ele><time>2026-05-01T16:23:02Z</time></trkpt><trkpt lat="40.96685291171087" lon="9.386857084594867"><ele>202.0</ele><time>2026-05-01T16:23:07Z</time></trkpt><trkpt lat="40.966911585628125" lon="9.386792127613205"><ele>198.83333333333331</ele><time>2026-05-01T16:23:11Z</time></trkpt><trkpt lat="40.96698297563347" lon="9.386739838252584"><ele>195.66666666666666</ele><time>2026-05-01T16:23:18Z</time></trkpt><trkpt lat="40.96704566805717" lon="9.386673939303774"><ele>192.5</ele><time>2026-05-01T16:23:22Z</time></trkpt><trkpt lat="40.96707945276128" lon="9.386579995008844"><ele>189.33333333333331</ele><time>2026-05-01T16:23:25Z</time></trkpt><trkpt lat="40.96707591488669" lon="9.38648396543418"><ele>186.16666666666666</ele><time>2026-05-01T16:23:27Z</time></trkpt><trkpt lat="40.96706821524927" lon="9.386356837916914"><ele>183.0</ele><time>2026-05-01T16:23:29Z</time></trkpt><trkpt lat="40.967062402130715" lon="9.386263913954153"><ele>181.66666666666666</ele><time>2026-05-01T16:23:31Z</time></trkpt><trkpt lat="40.96705417571002" lon="9.38617977865285"><ele>180.33333333333334</ele><time>2026-05-01T16:23:33Z</time></trkpt><trkpt lat="40.96703410135525" lon="9.386079597739812"><ele>179.0</ele><time>2026-05-01T16:23:36Z</time></trkpt><trkpt lat="40.9670183848891" lon="9.385971527483264"><ele>177.66666666666669</ele><time>2026-05-01T16:23:38Z</time></trkpt><trkpt lat="40.9670040686218" lon="9.385872022124653"><ele>176.33333333333334</ele><time>2026-05-01T16:23:40Z</time></trkpt><trkpt lat="40.96699818061894" lon="9.385770852023391"><ele>175.0</ele><time>2026-05-01T16:23:42Z</time></trkpt><trkpt lat="40.96698599628184" lon="9.385643244081852"><ele>175.0</ele><time>2026-05-01T16:23:44Z</time></trkpt><trkpt lat="40.96696461935166" lon="9.38552681368831"><ele>175.0</ele><time>2026-05-01T16:23:46Z</time></trkpt><trkpt lat="40.96689828504434" lon="9.38538212179351"><ele>175.0</ele><time>2026-05-01T16:23:48Z</time></trkpt><trkpt lat="40.96685595070801" lon="9.38530888490438"><ele>175.0</ele><time>2026-05-01T16:23:49Z</time></trkpt><trkpt lat="40.96682086067806" lon="9.385236420692635"><ele>175.0</ele><time>2026-05-01T16:23:50Z</time></trkpt><trkpt lat="40.96676595317397" lon="9.385113048247307"><ele>176.6</ele><time>2026-05-01T16:23:52Z</time></trkpt><trkpt lat="40.9667082023262" lon="9.384985279118965"><ele>178.2</ele><time>2026-05-01T16:23:54Z</time></trkpt><trkpt lat="40.96666065745874" lon="9.384889584777222"><ele>179.8</ele><time>2026-05-01T16:23:56Z</time></trkpt><trkpt lat="40.966595305945866" lon="9.384813528852286"><ele>181.4</ele><time>2026-05-01T16:23:58Z</time></trkpt><trkpt lat="40.9665174198074" lon="9.384707301849451"><ele>183.0</ele><time>2026-05-01T16:24:00Z</time></trkpt><trkpt lat="40.966469071537304" lon="9.384624978314863"><ele>179.66666666666666</ele><time>2026-05-01T16:24:02Z</time></trkpt><trkpt lat="40.96644075006485" lon="9.384518130588555"><ele>176.33333333333334</ele><time>2026-05-01T16:24:04Z</time></trkpt><trkpt lat="40.966398104011375" lon="9.384442388303823"><ele>173.0</ele><time>2026-05-01T16:24:06Z</time></trkpt><trkpt lat="40.96632819228546" lon="9.384405628570873"><ele>169.66666666666669</ele><time>2026-05-01T16:24:08Z</time></trkpt><trkpt lat="40.966257748583175" lon="9.384393695477415"><ele>166.33333333333334</ele><time>2026-05-01T16:24:11Z</time></trkpt><trkpt lat="40.966188777855955" lon="9.384405574831412"><ele>163.0</ele><time>2026-05-01T16:24:13Z</time></trkpt><trkpt lat="40.96611437946871" lon="9.384439702141322"><ele>163.0</ele><time>2026-05-01T16:24:16Z</time></trkpt><trkpt lat="40.96603270207086" lon="9.384478798053566"><ele>163.0</ele><time>2026-05-01T16:24:19Z</time></trkpt><trkpt lat="40.96596939512807" lon="9.384539231293871"><ele>163.0</ele><time>2026-05-01T16:24:22Z</time></trkpt><trkpt lat="40.965918912430226" lon="9.384484971131618"><ele>163.0</ele><time>2026-05-01T16:24:24Z</time></trkpt><trkpt lat="40.965922706655796" lon="9.38437946392009"><ele>163.0</ele><time>2026-05-01T16:24:28Z</time></trkpt><trkpt lat="40.96587422418382" lon="9.384280723057412"><ele>163.0</ele><time>2026-05-01T16:24:31Z</time></trkpt><trkpt lat="40.965848772218116" lon="9.384178200532197"><ele>163.0</ele><time>2026-05-01T16:24:34Z</time></trkpt><trkpt lat="40.96584610722638" lon="9.384059031343684"><ele>163.0</ele><time>2026-05-01T16:24:36Z</time></trkpt><trkpt lat="40.965862228414586" lon="9.38396952707452"><ele>163.0</ele><time>2026-05-01T16:24:38Z</time></trkpt><trkpt lat="40.9658848777381" lon="9.383869482893246"><ele>163.0</ele><time>2026-05-01T16:24:40Z</time></trkpt><trkpt lat="40.96588460761972" lon="9.38377906661236"><ele>163.0</ele><time>2026-05-01T16:24:42Z</time></trkpt><trkpt lat="40.96583263821254" lon="9.383717828418613"><ele>163.0</ele><time>2026-05-01T16:24:44Z</time></trkpt><trkpt lat="40.965786780590456" lon="9.38364738795825"><ele>163.0</ele><time>2026-05-01T16:24:46Z</time></trkpt><trkpt lat="40.96576302229899" lon="9.383567330679837"><ele>162.16666666666669</ele><time>2026-05-01T16:24:48Z</time></trkpt><trkpt lat="40.96569128983901" lon="9.383515416339112"><ele>161.33333333333334</ele><time>2026-05-01T16:24:50Z</time></trkpt><trkpt lat="40.96562939231395" lon="9.383458340860159"><ele>160.5</ele><time>2026-05-01T16:24:51Z</time></trkpt><trkpt lat="40.96554917397476" lon="9.38339234185742"><ele>159.66666666666666</ele><time>2026-05-01T16:24:53Z</time></trkpt><trkpt lat="40.965499634562626" lon="9.383330824216882"><ele>158.83333333333331</ele><time>2026-05-01T16:24:57Z</time></trkpt><trkpt lat="40.96553156572489" lon="9.383250538969031"><ele>158.0</ele><time>2026-05-01T16:25:26Z</time></trkpt><trkpt lat="40.96560780369427" lon="9.383219244095505"><ele>158.0</ele><time>2026-05-01T16:25:28Z</time></trkpt><trkpt lat="40.965696366352546" lon="9.38322842598304"><ele>158.0</ele><time>2026-05-01T16:25:30Z</time></trkpt><trkpt lat="40.96579116067254" lon="9.383233815071115"><ele>158.0</ele><time>2026-05-01T16:25:33Z</time></trkpt><trkpt lat="40.96587669964337" lon="9.38319344108367"><ele>158.0</ele><time>2026-05-01T16:25:36Z</time></trkpt><trkpt lat="40.96594869641047" lon="9.383150866435042"><ele>158.0</ele><time>2026-05-01T16:25:38Z</time></trkpt><trkpt lat="40.966016393928946" lon="9.383093397787597"><ele>158.0</ele><time>2026-05-01T16:25:40Z</time></trkpt><trkpt lat="40.96607691869428" lon="9.383036234348141"><ele>155.33333333333331</ele><time>2026-05-01T16:25:43Z</time></trkpt><trkpt lat="40.96613841513325" lon="9.382985677975173"><ele>152.66666666666666</ele><time>2026-05-01T16:25:46Z</time></trkpt><trkpt lat="40.96618727467593" lon="9.382910248368537"><ele>150.0</ele><time>2026-05-01T16:25:49Z</time></trkpt><trkpt lat="40.966246488710794" lon="9.382867189941344"><ele>147.33333333333334</ele><time>2026-05-01T16:25:51Z</time></trkpt><trkpt lat="40.96631799466342" lon="9.382800461758036"><ele>144.66666666666669</ele><time>2026-05-01T16:25:53Z</time></trkpt><trkpt lat="40.966403882010376" lon="9.382751911679293"><ele>142.0</ele><time>2026-05-01T16:25:55Z</time></trkpt><trkpt lat="40.96647471636628" lon="9.382729914247006"><ele>142.0</ele><time>2026-05-01T16:25:57.001Z</time></trkpt><trkpt lat="40.96654321307524" lon="9.382729056965728"><ele>142.0</ele><time>2026-05-01T16:26:00.001Z</time></trkpt><trkpt lat="40.966609377791386" lon="9.382713820825524"><ele>142.0</ele><time>2026-05-01T16:26:02.001Z</time></trkpt><trkpt lat="40.96667318902933" lon="9.382683059206677"><ele>142.0</ele><time>2026-05-01T16:26:05.001Z</time></trkpt><trkpt lat="40.966764974018645" lon="9.382639955678057"><ele>142.0</ele><time>2026-05-01T16:26:07.001Z</time></trkpt><trkpt lat="40.966823343518506" lon="9.382602665906592"><ele>142.0</ele><time>2026-05-01T16:26:09.001Z</time></trkpt><trkpt lat="40.966894661860366" lon="9.382696515019164"><ele>141.83333333333334</ele><time>2026-05-01T16:26:12.001Z</time></trkpt><trkpt lat="40.96695350711242" lon="9.382760803617504"><ele>141.66666666666669</ele><time>2026-05-01T16:26:14.001Z</time></trkpt><trkpt lat="40.967017720346334" lon="9.382821730614294"><ele>141.5</ele><time>2026-05-01T16:26:16.001Z</time></trkpt><trkpt lat="40.96711903530915" lon="9.382917184763867"><ele>141.33333333333334</ele><time>2026-05-01T16:26:18.001Z</time></trkpt><trkpt lat="40.96718352427857" lon="9.382979062236583"><ele>141.16666666666666</ele><time>2026-05-01T16:26:19Z</time></trkpt><trkpt lat="40.96724651279774" lon="9.38302434227454"><ele>141.0</ele><time>2026-05-01T16:26:20Z</time></trkpt><trkpt lat="40.967299431784454" lon="9.383078134557874"><ele>141.0</ele><time>2026-05-01T16:26:21Z</time></trkpt><trkpt lat="40.9673654536773" lon="9.383132595708645"><ele>141.0</ele><time>2026-05-01T16:26:22Z</time></trkpt><trkpt lat="40.96742910957423" lon="9.383190914161608"><ele>141.0</ele><time>2026-05-01T16:26:23Z</time></trkpt><trkpt lat="40.96748797192965" lon="9.383253385549867"><ele>141.0</ele><time>2026-05-01T16:26:24Z</time></trkpt><trkpt lat="40.967540806061734" lon="9.383308138385024"><ele>141.0</ele><time>2026-05-01T16:26:25Z</time></trkpt><trkpt lat="40.96759205561174" lon="9.383369824347266"><ele>141.0</ele><time>2026-05-01T16:26:26Z</time></trkpt><trkpt lat="40.967645191104616" lon="9.383423566941826"><ele>141.0</ele><time>2026-05-01T16:26:27Z</time></trkpt><trkpt lat="40.96770124529139" lon="9.383476852890885"><ele>140.5</ele><time>2026-05-01T16:26:28Z</time></trkpt><trkpt lat="40.96775664835398" lon="9.383525963921041"><ele>140.0</ele><time>2026-05-01T16:26:29Z</time></trkpt><trkpt lat="40.967825311470044" lon="9.383594658152203"><ele>139.5</ele><time>2026-05-01T16:26:30Z</time></trkpt><trkpt lat="40.9678901107917" lon="9.383653271258313"><ele>139.0</ele><time>2026-05-01T16:26:31Z</time></trkpt><trkpt lat="40.968004666703926" lon="9.38373752587342"><ele>138.5</ele><time>2026-05-01T16:26:33Z</time></trkpt><trkpt lat="40.96807231541191" lon="9.383784687763685"><ele>138.0</ele><time>2026-05-01T16:26:34Z</time></trkpt><trkpt lat="40.96812992561111" lon="9.38383016006734"><ele>138.0</ele><time>2026-05-01T16:26:35Z</time></trkpt><trkpt lat="40.96821658507703" lon="9.383887007017485"><ele>138.0</ele><time>2026-05-01T16:26:37Z</time></trkpt><trkpt lat="40.96828573449071" lon="9.383814218462838"><ele>138.0</ele><time>2026-05-01T16:26:39Z</time></trkpt><trkpt lat="40.96835314650838" lon="9.383755618719514"><ele>138.0</ele><time>2026-05-01T16:26:41Z</time></trkpt><trkpt lat="40.96843257852175" lon="9.38373558689078"><ele>138.0</ele><time>2026-05-01T16:26:43Z</time></trkpt><trkpt lat="40.96853693362185" lon="9.383781443453222"><ele>138.0</ele><time>2026-05-01T16:27:02Z</time></trkpt><trkpt lat="40.96860395636265" lon="9.383815847626316"><ele>138.0</ele><time>2026-05-01T16:27:03Z</time></trkpt><trkpt lat="40.968705991274234" lon="9.383861964203655"><ele>138.0</ele><time>2026-05-01T16:27:05Z</time></trkpt><trkpt lat="40.96876742146961" lon="9.383795693025304"><ele>138.0</ele><time>2026-05-01T16:27:08Z</time></trkpt><trkpt lat="40.96884970401039" lon="9.383769811049854"><ele>138.0</ele><time>2026-05-01T16:27:10Z</time></trkpt><trkpt lat="40.9689084960274" lon="9.383816870083624"><ele>138.0</ele><time>2026-05-01T16:27:12Z</time></trkpt><trkpt lat="40.969008251806336" lon="9.38386847985918"><ele>137.33333333333334</ele><time>2026-05-01T16:27:14Z</time></trkpt><trkpt lat="40.969090938913936" lon="9.383876320165244"><ele>136.66666666666666</ele><time>2026-05-01T16:27:15Z</time></trkpt><trkpt lat="40.96917461175461" lon="9.383884227280493"><ele>136.0</ele><time>2026-05-01T16:27:16Z</time></trkpt><trkpt lat="40.969245636240615" lon="9.383880545187068"><ele>135.33333333333331</ele><time>2026-05-01T16:27:17Z</time></trkpt><trkpt lat="40.96931630015254" lon="9.3838845997773"><ele>134.66666666666666</ele><time>2026-05-01T16:27:18Z</time></trkpt><trkpt lat="40.969379400164705" lon="9.383906806141601"><ele>134.0</ele><time>2026-05-01T16:27:19Z</time></trkpt><trkpt lat="40.969458179367884" lon="9.38394157587368"><ele>135.33333333333331</ele><time>2026-05-01T16:27:20Z</time></trkpt><trkpt lat="40.96953868157891" lon="9.383980290909841"><ele>136.66666666666666</ele><time>2026-05-01T16:27:21Z</time></trkpt><trkpt lat="40.969610994129766" lon="9.384008397882978"><ele>138.0</ele><time>2026-05-01T16:27:22Z</time></trkpt><trkpt lat="40.969690517241354" lon="9.384038302518345"><ele>139.33333333333334</ele><time>2026-05-01T16:27:23Z</time></trkpt><trkpt lat="40.9697673069248" lon="9.384077731025762"><ele>140.66666666666669</ele><time>2026-05-01T16:27:24Z</time></trkpt><trkpt lat="40.96983969556068" lon="9.38411085678882"><ele>142.0</ele><time>2026-05-01T16:27:25Z</time></trkpt><trkpt lat="40.969942984438305" lon="9.384197710038864"><ele>142.0</ele><time>2026-05-01T16:27:27Z</time></trkpt><trkpt lat="40.97001413794163" lon="9.384287867957918"><ele>142.0</ele><time>2026-05-01T16:27:28Z</time></trkpt><trkpt lat="40.97007827521279" lon="9.384402070230532"><ele>142.0</ele><time>2026-05-01T16:27:29Z</time></trkpt><trkpt lat="40.970142808357274" lon="9.384553036273607"><ele>142.0</ele><time>2026-05-01T16:27:30Z</time></trkpt><trkpt lat="40.970211123571175" lon="9.384747804299398"><ele>147.0</ele><time>2026-05-01T16:27:31Z</time></trkpt><trkpt lat="40.970283312960646" lon="9.384979211878683"><ele>152.0</ele><time>2026-05-01T16:27:32Z</time></trkpt><trkpt lat="40.97036165682523" lon="9.385236019015975"><ele>157.0</ele><time>2026-05-01T16:27:33Z</time></trkpt><trkpt lat="40.97045389073921" lon="9.385488307357937"><ele>154.5</ele><time>2026-05-01T16:27:34Z</time></trkpt><trkpt lat="40.97053931004372" lon="9.385697907515377"><ele>152.0</ele><time>2026-05-01T16:27:35Z</time></trkpt><trkpt lat="40.970601288769394" lon="9.385846725822672"><ele>149.5</ele><time>2026-05-01T16:27:36Z</time></trkpt><trkpt lat="40.97063778838972" lon="9.385962448059901"><ele>147.0</ele><time>2026-05-01T16:27:37Z</time></trkpt><trkpt lat="40.970677033822014" lon="9.38606819368941"><ele>147.0</ele><time>2026-05-01T16:27:38Z</time></trkpt><trkpt lat="40.97073760150501" lon="9.386170310976333"><ele>147.0</ele><time>2026-05-01T16:27:39Z</time></trkpt><trkpt lat="40.970786811413376" lon="9.386287699061647"><ele>147.0</ele><time>2026-05-01T16:27:40Z</time></trkpt><trkpt lat="40.97081864851975" lon="9.386447656522638"><ele>147.0</ele><time>2026-05-01T16:27:41Z</time></trkpt><trkpt lat="40.97085544636206" lon="9.386605441846257"><ele>147.0</ele><time>2026-05-01T16:27:42Z</time></trkpt><trkpt lat="40.970869516709534" lon="9.386745644946469"><ele>145.25</ele><time>2026-05-01T16:27:43Z</time></trkpt><trkpt lat="40.970862230196026" lon="9.386912716342325"><ele>143.5</ele><time>2026-05-01T16:27:44Z</time></trkpt><trkpt lat="40.97083098098605" lon="9.387075312332044"><ele>141.75</ele><time>2026-05-01T16:27:45Z</time></trkpt><trkpt lat="40.97081357484182" lon="9.387224349874531"><ele>140.0</ele><time>2026-05-01T16:27:46Z</time></trkpt><trkpt lat="40.97082042752532" lon="9.387374025822309"><ele>140.8</ele><time>2026-05-01T16:27:47Z</time></trkpt><trkpt lat="40.97085121249996" lon="9.387529051570064"><ele>141.6</ele><time>2026-05-01T16:27:48Z</time></trkpt><trkpt lat="40.970896227767966" lon="9.38767158115133"><ele>142.4</ele><time>2026-05-01T16:27:49Z</time></trkpt><trkpt lat="40.970947171667774" lon="9.387789036011199"><ele>143.2</ele><time>2026-05-01T16:27:50Z</time></trkpt><trkpt lat="40.97098662331292" lon="9.38788281322725"><ele>144.0</ele><time>2026-05-01T16:27:51Z</time></trkpt><trkpt lat="40.97097573362164" lon="9.387978941011797"><ele>143.0</ele><time>2026-05-01T16:27:52Z</time></trkpt><trkpt lat="40.970938978716845" lon="9.388092425917824"><ele>142.0</ele><time>2026-05-01T16:27:53Z</time></trkpt><trkpt lat="40.97087734045837" lon="9.388217755570267"><ele>141.0</ele><time>2026-05-01T16:27:54Z</time></trkpt><trkpt lat="40.97079444643452" lon="9.388367951390398"><ele>140.0</ele><time>2026-05-01T16:27:55Z</time></trkpt><trkpt lat="40.970734798320734" lon="9.38854210084869"><ele>139.66666666666666</ele><time>2026-05-01T16:27:56Z</time></trkpt><trkpt lat="40.97068331136696" lon="9.38871436849832"><ele>139.33333333333334</ele><time>2026-05-01T16:27:57Z</time></trkpt><trkpt lat="40.97060325494737" lon="9.388871556937024"><ele>139.0</ele><time>2026-05-01T16:27:58Z</time></trkpt><trkpt lat="40.9704830144668" lon="9.389037510383847"><ele>139.0</ele><time>2026-05-01T16:27:59Z</time></trkpt><trkpt lat="40.9703858819504" lon="9.389227338817129"><ele>139.0</ele><time>2026-05-01T16:28:00Z</time></trkpt><trkpt lat="40.97033185149952" lon="9.389382930881839"><ele>139.0</ele><time>2026-05-01T16:28:01Z</time></trkpt><trkpt lat="40.9702807494043" lon="9.389492405890643"><ele>139.0</ele><time>2026-05-01T16:28:02Z</time></trkpt><trkpt lat="40.9702085518606" lon="9.389566440088077"><ele>139.0</ele><time>2026-05-01T16:28:03.001Z</time></trkpt><trkpt lat="40.97014684279053" lon="9.389632958411482"><ele>139.0</ele><time>2026-05-01T16:28:04.001Z</time></trkpt><trkpt lat="40.97011627516453" lon="9.389719000104524"><ele>139.0</ele><time>2026-05-01T16:28:05.001Z</time></trkpt><trkpt lat="40.970100957790805" lon="9.389870224840074"><ele>139.0</ele><time>2026-05-01T16:28:06.001Z</time></trkpt><trkpt lat="40.97008454520791" lon="9.390036073209853"><ele>139.0</ele><time>2026-05-01T16:28:07.001Z</time></trkpt><trkpt lat="40.97003612534426" lon="9.390114582405086"><ele>138.8</ele><time>2026-05-01T16:28:08.001Z</time></trkpt><trkpt lat="40.969978273031785" lon="9.390153492740307"><ele>138.60000000000002</ele><time>2026-05-01T16:28:09.001Z</time></trkpt><trkpt lat="40.96987038757248" lon="9.390241182768673"><ele>138.4</ele><time>2026-05-01T16:28:10.001Z</time></trkpt><trkpt lat="40.969795955093126" lon="9.390333582458636"><ele>138.20000000000002</ele><time>2026-05-01T16:28:11.001Z</time></trkpt><trkpt lat="40.96977305549844" lon="9.390424227637071"><ele>138.0</ele><time>2026-05-01T16:28:12.001Z</time></trkpt><trkpt lat="40.9697647110696" lon="9.390552876480648"><ele>141.0</ele><time>2026-05-01T16:28:13.001Z</time></trkpt><trkpt lat="40.969747506845216" lon="9.39072565882025"><ele>144.0</ele><time>2026-05-01T16:28:14.001Z</time></trkpt><trkpt lat="40.969738626307496" lon="9.390958712436632"><ele>147.0</ele><time>2026-05-01T16:28:15.001Z</time></trkpt><trkpt lat="40.96972989091798" lon="9.391181040182216"><ele>147.75</ele><time>2026-05-01T16:28:16.001Z</time></trkpt><trkpt lat="40.96973204973052" lon="9.39136561667594"><ele>148.5</ele><time>2026-05-01T16:28:17.001Z</time></trkpt><trkpt lat="40.96975880610174" lon="9.391546273378982"><ele>149.25</ele><time>2026-05-01T16:28:18.001Z</time></trkpt><trkpt lat="40.96976913142497" lon="9.391719504352636"><ele>150.0</ele><time>2026-05-01T16:28:19.001Z</time></trkpt><trkpt lat="40.96976079392175" lon="9.391863926044062"><ele>150.0</ele><time>2026-05-01T16:28:20.001Z</time></trkpt><trkpt lat="40.96973878175599" lon="9.391961135949257"><ele>150.0</ele><time>2026-05-01T16:28:21.001Z</time></trkpt><trkpt lat="40.96974624636964" lon="9.39206065456498"><ele>150.0</ele><time>2026-05-01T16:28:22.001Z</time></trkpt><trkpt lat="40.96978778978192" lon="9.392216995586994"><ele>150.0</ele><time>2026-05-01T16:28:23.001Z</time></trkpt><trkpt lat="40.96984458579242" lon="9.39240594435891"><ele>150.0</ele><time>2026-05-01T16:28:24.001Z</time></trkpt><trkpt lat="40.96986645029075" lon="9.392578863072321"><ele>149.75</ele><time>2026-05-01T16:28:25.001Z</time></trkpt><trkpt lat="40.969869512430776" lon="9.392764186557175"><ele>149.5</ele><time>2026-05-01T16:28:26.001Z</time></trkpt><trkpt lat="40.96985361555932" lon="9.392928575079186"><ele>149.25</ele><time>2026-05-01T16:28:27.001Z</time></trkpt><trkpt lat="40.96983007841214" lon="9.393068874184722"><ele>149.0</ele><time>2026-05-01T16:28:28.001Z</time></trkpt><trkpt lat="40.969792753950166" lon="9.393165921663472"><ele>148.8</ele><time>2026-05-01T16:28:29.001Z</time></trkpt><trkpt lat="40.96972248333367" lon="9.393274987497216"><ele>148.60000000000002</ele><time>2026-05-01T16:28:30.001Z</time></trkpt><trkpt lat="40.9696246347777" lon="9.393399789824974"><ele>148.4</ele><time>2026-05-01T16:28:31.001Z</time></trkpt><trkpt lat="40.969544322674786" lon="9.393503150957347"><ele>148.20000000000002</ele><time>2026-05-01T16:28:32.001Z</time></trkpt><trkpt lat="40.96950055723171" lon="9.393594346610112"><ele>148.0</ele><time>2026-05-01T16:28:33.001Z</time></trkpt><trkpt lat="40.969472075513195" lon="9.393693157398049"><ele>148.0</ele><time>2026-05-01T16:28:34.001Z</time></trkpt><trkpt lat="40.96944795363886" lon="9.39380776352741"><ele>148.0</ele><time>2026-05-01T16:28:35.001Z</time></trkpt><trkpt lat="40.96944048943965" lon="9.393942445328694"><ele>148.0</ele><time>2026-05-01T16:28:36.001Z</time></trkpt><trkpt lat="40.96944446446776" lon="9.3940718850631"><ele>148.0</ele><time>2026-05-01T16:28:37.001Z</time></trkpt><trkpt lat="40.96946056861419" lon="9.394195677527609"><ele>148.0</ele><time>2026-05-01T16:28:38.001Z</time></trkpt><trkpt lat="40.96949884793265" lon="9.394305789892003"><ele>147.6</ele><time>2026-05-01T16:28:39.001Z</time></trkpt><trkpt lat="40.969544182220815" lon="9.394416877766782"><ele>147.20000000000002</ele><time>2026-05-01T16:28:40Z</time></trkpt><trkpt lat="40.9695880695195" lon="9.394512681847967"><ele>146.8</ele><time>2026-05-01T16:28:41Z</time></trkpt><trkpt lat="40.9696104447605" lon="9.394593531863828"><ele>146.4</ele><time>2026-05-01T16:28:42Z</time></trkpt><trkpt lat="40.969571368871286" lon="9.394765451739204"><ele>146.0</ele><time>2026-05-01T16:28:44Z</time></trkpt><trkpt lat="40.96950568162361" lon="9.394899786755364"><ele>144.6</ele><time>2026-05-01T16:28:45Z</time></trkpt><trkpt lat="40.96942130028854" lon="9.395047398037251"><ele>143.2</ele><time>2026-05-01T16:28:46Z</time></trkpt><trkpt lat="40.96936495410768" lon="9.39517491065725"><ele>141.8</ele><time>2026-05-01T16:28:47Z</time></trkpt><trkpt lat="40.969337533245096" lon="9.395268292846053"><ele>140.4</ele><time>2026-05-01T16:28:48Z</time></trkpt><trkpt lat="40.969349981795986" lon="9.395362761584273"><ele>139.0</ele><time>2026-05-01T16:28:49Z</time></trkpt><trkpt lat="40.96934796890616" lon="9.395543174958277"><ele>138.0</ele><time>2026-05-01T16:28:50Z</time></trkpt><trkpt lat="40.96935345444032" lon="9.395739798230482"><ele>137.0</ele><time>2026-05-01T16:28:51Z</time></trkpt><trkpt lat="40.969359838551824" lon="9.395924322616223"><ele>136.0</ele><time>2026-05-01T16:28:52Z</time></trkpt><trkpt lat="40.96936262002625" lon="9.396052582841104"><ele>135.0</ele><time>2026-05-01T16:28:53Z</time></trkpt><trkpt lat="40.96934837820759" lon="9.396159641099047"><ele>135.0</ele><time>2026-05-01T16:28:54Z</time></trkpt><trkpt lat="40.9693021121903" lon="9.396280333315936"><ele>135.0</ele><time>2026-05-01T16:28:55Z</time></trkpt><trkpt lat="40.969213877208745" lon="9.396405423204696"><ele>135.0</ele><time>2026-05-01T16:28:56Z</time></trkpt><trkpt lat="40.96912118068777" lon="9.396523742362184"><ele>135.0</ele><time>2026-05-01T16:28:57Z</time></trkpt><trkpt lat="40.96906827917567" lon="9.396612687512436"><ele>135.0</ele><time>2026-05-01T16:28:58Z</time></trkpt><trkpt lat="40.9690377242679" lon="9.396717831439755"><ele>133.25</ele><time>2026-05-01T16:28:59Z</time></trkpt><trkpt lat="40.969019954111324" lon="9.396857354375642"><ele>131.5</ele><time>2026-05-01T16:29:00Z</time></trkpt><trkpt lat="40.96900738306649" lon="9.397042264120868"><ele>129.75</ele><time>2026-05-01T16:29:01Z</time></trkpt><trkpt lat="40.968999875679486" lon="9.397221199913744"><ele>128.0</ele><time>2026-05-01T16:29:02Z</time></trkpt><trkpt lat="40.96901774249697" lon="9.397381097453671"><ele>128.0</ele><time>2026-05-01T16:29:03Z</time></trkpt><trkpt lat="40.96907018918971" lon="9.397551603491467"><ele>128.0</ele><time>2026-05-01T16:29:04Z</time></trkpt><trkpt lat="40.9691564996744" lon="9.397744671276627"><ele>128.0</ele><time>2026-05-01T16:29:05Z</time></trkpt><trkpt lat="40.96925348370905" lon="9.39795383876514"><ele>131.0</ele><time>2026-05-01T16:29:06Z</time></trkpt><trkpt lat="40.96935805713903" lon="9.398206214817527"><ele>134.0</ele><time>2026-05-01T16:29:07Z</time></trkpt><trkpt lat="40.96945116129387" lon="9.3984274147206"><ele>137.0</ele><time>2026-05-01T16:29:08Z</time></trkpt><trkpt lat="40.96952784920617" lon="9.398621147463498"><ele>137.0</ele><time>2026-05-01T16:29:09Z</time></trkpt><trkpt lat="40.969595222078574" lon="9.398801199863703"><ele>137.0</ele><time>2026-05-01T16:29:10Z</time></trkpt><trkpt lat="40.96964150467667" lon="9.398961264305242"><ele>137.0</ele><time>2026-05-01T16:29:11Z</time></trkpt><trkpt lat="40.9696668977545" lon="9.399129718322417"><ele>137.0</ele><time>2026-05-01T16:29:12Z</time></trkpt><trkpt lat="40.96967476032514" lon="9.399314196649966"><ele>136.0</ele><time>2026-05-01T16:29:13Z</time></trkpt><trkpt lat="40.96967804404102" lon="9.399477777966823"><ele>135.0</ele><time>2026-05-01T16:29:14Z</time></trkpt><trkpt lat="40.96968682810909" lon="9.399660657841427"><ele>134.0</ele><time>2026-05-01T16:29:15Z</time></trkpt><trkpt lat="40.96970705176694" lon="9.399848012103256"><ele>133.0</ele><time>2026-05-01T16:29:16Z</time></trkpt><trkpt lat="40.969728360454184" lon="9.399994823428324"><ele>132.0</ele><time>2026-05-01T16:29:17Z</time></trkpt><trkpt lat="40.96973739606895" lon="9.400138344077666"><ele>131.0</ele><time>2026-05-01T16:29:18Z</time></trkpt><trkpt lat="40.96974981800357" lon="9.400269265934133"><ele>130.0</ele><time>2026-05-01T16:29:19Z</time></trkpt><trkpt lat="40.969764803874924" lon="9.400401145501567"><ele>129.0</ele><time>2026-05-01T16:29:20Z</time></trkpt><trkpt lat="40.969776934316485" lon="9.40051351561683"><ele>128.0</ele><time>2026-05-01T16:29:21Z</time></trkpt><trkpt lat="40.96977783727658" lon="9.400641980001243"><ele>126.60000000000001</ele><time>2026-05-01T16:29:23Z</time></trkpt><trkpt lat="40.969779708963024" lon="9.400746676781617"><ele>125.20000000000002</ele><time>2026-05-01T16:29:26Z</time></trkpt><trkpt lat="40.96982977062304" lon="9.40080114556591"><ele>123.8</ele><time>2026-05-01T16:32:14Z</time></trkpt><trkpt lat="40.96989183443483" lon="9.400935033921394"><ele>122.4</ele><time>2026-05-01T16:32:25Z</time></trkpt><trkpt lat="40.96993187815028" lon="9.401036358198665"><ele>121.0</ele><time>2026-05-01T16:32:26Z</time></trkpt><trkpt lat="40.97000003844483" lon="9.401164017049837"><ele>122.25</ele><time>2026-05-01T16:32:27Z</time></trkpt><trkpt lat="40.97006824183046" lon="9.401307816586147"><ele>123.5</ele><time>2026-05-01T16:32:28Z</time></trkpt><trkpt lat="40.97013435439049" lon="9.401474360737483"><ele>124.75</ele><time>2026-05-01T16:32:29Z</time></trkpt><trkpt lat="40.970190018812126" lon="9.401611870721979"><ele>126.0</ele><time>2026-05-01T16:32:30Z</time></trkpt><trkpt lat="40.970244959623805" lon="9.401745607707735"><ele>126.0</ele><time>2026-05-01T16:32:31Z</time></trkpt><trkpt lat="40.970299184061595" lon="9.401880063560302"><ele>126.0</ele><time>2026-05-01T16:32:32Z</time></trkpt><trkpt lat="40.970360943218736" lon="9.402010021981587"><ele>126.0</ele><time>2026-05-01T16:32:33Z</time></trkpt><trkpt lat="40.97041980861502" lon="9.402144211288547"><ele>126.0</ele><time>2026-05-01T16:32:34Z</time></trkpt><trkpt lat="40.970477531377526" lon="9.402258811930912"><ele>125.19999999999999</ele><time>2026-05-01T16:32:35Z</time></trkpt><trkpt lat="40.970539040270374" lon="9.402366977766178"><ele>124.39999999999999</ele><time>2026-05-01T16:32:36Z</time></trkpt><trkpt lat="40.97059392048537" lon="9.402479546233504"><ele>123.6</ele><time>2026-05-01T16:32:37Z</time></trkpt><trkpt lat="40.970628645999085" lon="9.40259318009541"><ele>122.8</ele><time>2026-05-01T16:32:38Z</time></trkpt><trkpt lat="40.97064248622795" lon="9.402703926234553"><ele>122.0</ele><time>2026-05-01T16:32:39Z</time></trkpt><trkpt lat="40.97065619120237" lon="9.402845713096028"><ele>122.0</ele><time>2026-05-01T16:32:40Z</time></trkpt><trkpt lat="40.97065964503677" lon="9.402984800208381"><ele>122.0</ele><time>2026-05-01T16:32:41Z</time></trkpt><trkpt lat="40.970673190263135" lon="9.403134758736325"><ele>122.0</ele><time>2026-05-01T16:32:42Z</time></trkpt><trkpt lat="40.97068917531568" lon="9.403283400599662"><ele>122.0</ele><time>2026-05-01T16:32:43Z</time></trkpt><trkpt lat="40.97070651513248" lon="9.403439618183691"><ele>121.0</ele><time>2026-05-01T16:32:44Z</time></trkpt><trkpt lat="40.97072937841206" lon="9.403590040000461"><ele>119.99999999999999</ele><time>2026-05-01T16:32:45Z</time></trkpt><trkpt lat="40.97074809993963" lon="9.40373938536695"><ele>118.99999999999999</ele><time>2026-05-01T16:32:46Z</time></trkpt><trkpt lat="40.970755396917234" lon="9.40388626284095"><ele>118.0</ele><time>2026-05-01T16:32:47Z</time></trkpt><trkpt lat="40.97075663052927" lon="9.404027997425871"><ele>117.0</ele><time>2026-05-01T16:32:48Z</time></trkpt><trkpt lat="40.970759410763726" lon="9.404171663187379"><ele>116.39999999999999</ele><time>2026-05-01T16:32:49Z</time></trkpt><trkpt lat="40.9707631620564" lon="9.404316217519069"><ele>115.79999999999998</ele><time>2026-05-01T16:32:50Z</time></trkpt><trkpt lat="40.97076288705645" lon="9.404453067143647"><ele>115.2</ele><time>2026-05-01T16:32:51Z</time></trkpt><trkpt lat="40.970756453436806" lon="9.404609476146586"><ele>114.6</ele><time>2026-05-01T16:32:52Z</time></trkpt><trkpt lat="40.97076065902964" lon="9.404761428502816"><ele>114.0</ele><time>2026-05-01T16:32:53Z</time></trkpt><trkpt lat="40.97077883025202" lon="9.404905544725082"><ele>113.5</ele><time>2026-05-01T16:32:54Z</time></trkpt><trkpt lat="40.97081086867471" lon="9.405069939109238"><ele>113.0</ele><time>2026-05-01T16:32:55Z</time></trkpt><trkpt lat="40.970853908815975" lon="9.405231840427867"><ele>112.5</ele><time>2026-05-01T16:32:56Z</time></trkpt><trkpt lat="40.97088277513891" lon="9.405372447541305"><ele>112.0</ele><time>2026-05-01T16:32:57Z</time></trkpt><trkpt lat="40.970913926693406" lon="9.405512901530717"><ele>114.8</ele><time>2026-05-01T16:32:58Z</time></trkpt><trkpt lat="40.97097276286592" lon="9.40565410581832"><ele>117.6</ele><time>2026-05-01T16:32:59Z</time></trkpt><trkpt lat="40.97103779604173" lon="9.405758050270524"><ele>120.39999999999999</ele><time>2026-05-01T16:33:00Z</time></trkpt><trkpt lat="40.971092248115326" lon="9.405841844685298"><ele>123.19999999999999</ele><time>2026-05-01T16:33:01Z</time></trkpt><trkpt lat="40.971129797218474" lon="9.405925807348593"><ele>126.0</ele><time>2026-05-01T16:33:02Z</time></trkpt><trkpt lat="40.97116429035281" lon="9.406018556112915"><ele>126.0</ele><time>2026-05-01T16:33:03Z</time></trkpt><trkpt lat="40.97120570728043" lon="9.406094226475897"><ele>126.0</ele><time>2026-05-01T16:33:04Z</time></trkpt><trkpt lat="40.971250908147276" lon="9.406159467074065"><ele>126.0</ele><time>2026-05-01T16:33:05Z</time></trkpt><trkpt lat="40.97129328833711" lon="9.40622377244418"><ele>126.0</ele><time>2026-05-01T16:33:06Z</time></trkpt><trkpt lat="40.971332120125815" lon="9.406296427862204"><ele>126.0</ele><time>2026-05-01T16:33:07Z</time></trkpt><trkpt lat="40.97136200673127" lon="9.40637766170325"><ele>126.0</ele><time>2026-05-01T16:33:08Z</time></trkpt><trkpt lat="40.97139417566762" lon="9.40645995744096"><ele>126.0</ele><time>2026-05-01T16:33:09Z</time></trkpt><trkpt lat="40.9714337951128" lon="9.406563534190731"><ele>124.6</ele><time>2026-05-01T16:33:10Z</time></trkpt><trkpt lat="40.97147692766698" lon="9.406676026583979"><ele>123.19999999999999</ele><time>2026-05-01T16:33:11Z</time></trkpt><trkpt lat="40.971526339182" lon="9.406803658527561"><ele>121.80000000000001</ele><time>2026-05-01T16:33:12Z</time></trkpt><trkpt lat="40.97157662664273" lon="9.406920476107846"><ele>120.4</ele><time>2026-05-01T16:33:13Z</time></trkpt><trkpt lat="40.971634999759296" lon="9.407055487009316"><ele>119.0</ele><time>2026-05-01T16:33:14Z</time></trkpt><trkpt lat="40.97168890449807" lon="9.407198360604733"><ele>120.33333333333333</ele><time>2026-05-01T16:33:15Z</time></trkpt><trkpt lat="40.97175766574495" lon="9.407387328600015"><ele>121.66666666666666</ele><time>2026-05-01T16:33:16Z</time></trkpt><trkpt lat="40.971814920137504" lon="9.407570856091148"><ele>123.0</ele><time>2026-05-01T16:33:17Z</time></trkpt><trkpt lat="40.9718734738837" lon="9.40775851851894"><ele>123.0</ele><time>2026-05-01T16:33:18Z</time></trkpt><trkpt lat="40.97192831831929" lon="9.40793585789643"><ele>123.0</ele><time>2026-05-01T16:33:19Z</time></trkpt><trkpt lat="40.971985745967594" lon="9.40811058287282"><ele>123.0</ele><time>2026-05-01T16:33:20Z</time></trkpt><trkpt lat="40.97203894210627" lon="9.408274260090575"><ele>123.0</ele><time>2026-05-01T16:33:21Z</time></trkpt><trkpt lat="40.97208789276697" lon="9.408448097704003"><ele>122.0</ele><time>2026-05-01T16:33:22Z</time></trkpt><trkpt lat="40.972133397173195" lon="9.408633580925205"><ele>121.0</ele><time>2026-05-01T16:33:23Z</time></trkpt><trkpt lat="40.97217035256587" lon="9.408796083076588"><ele>120.0</ele><time>2026-05-01T16:33:24Z</time></trkpt><trkpt lat="40.97220043981466" lon="9.4089352984818"><ele>119.0</ele><time>2026-05-01T16:33:25Z</time></trkpt><trkpt lat="40.97222399578792" lon="9.409060721637951"><ele>118.49999999999999</ele><time>2026-05-01T16:33:26Z</time></trkpt><trkpt lat="40.97224416884116" lon="9.409170252335603"><ele>118.0</ele><time>2026-05-01T16:33:27Z</time></trkpt><trkpt lat="40.97223738264468" lon="9.409275889002977"><ele>117.5</ele><time>2026-05-01T16:33:28Z</time></trkpt><trkpt lat="40.9722299416443" lon="9.409371169921648"><ele>117.0</ele><time>2026-05-01T16:33:29Z</time></trkpt><trkpt lat="40.97225553421624" lon="9.409465449299251"><ele>116.49999999999999</ele><time>2026-05-01T16:33:30Z</time></trkpt><trkpt lat="40.9722638105719" lon="9.409563892801053"><ele>116.0</ele><time>2026-05-01T16:33:31Z</time></trkpt><trkpt lat="40.972340494914484" lon="9.40962344394518"><ele>114.8</ele><time>2026-05-01T16:33:32Z</time></trkpt><trkpt lat="40.972411084845966" lon="9.409660657245439"><ele>113.6</ele><time>2026-05-01T16:33:33Z</time></trkpt><trkpt lat="40.972512779355704" lon="9.40969215918549"><ele>112.4</ele><time>2026-05-01T16:33:34Z</time></trkpt><trkpt lat="40.97261749619475" lon="9.409747397449832"><ele>111.2</ele><time>2026-05-01T16:33:35Z</time></trkpt><trkpt lat="40.97274452991579" lon="9.409823263393887"><ele>110.0</ele><time>2026-05-01T16:33:36Z</time></trkpt><trkpt lat="40.97286275989456" lon="9.409886799269257"><ele>110.0</ele><time>2026-05-01T16:33:37Z</time></trkpt><trkpt lat="40.97295881006888" lon="9.409933240262268"><ele>110.0</ele><time>2026-05-01T16:33:38Z</time></trkpt><trkpt lat="40.973031372479234" lon="9.41000699122592"><ele>110.0</ele><time>2026-05-01T16:33:39Z</time></trkpt><trkpt lat="40.97309731954569" lon="9.410078522219514"><ele>110.0</ele><time>2026-05-01T16:33:40Z</time></trkpt><trkpt lat="40.97319017377768" lon="9.410197117766137"><ele>110.0</ele><time>2026-05-01T16:33:41Z</time></trkpt><trkpt lat="40.97329621820319" lon="9.4103229662569"><ele>110.0</ele><time>2026-05-01T16:33:42Z</time></trkpt><trkpt lat="40.97334500783874" lon="9.410446977344813"><ele>110.0</ele><time>2026-05-01T16:33:43Z</time></trkpt><trkpt lat="40.97336892157178" lon="9.410553724682103"><ele>110.0</ele><time>2026-05-01T16:33:44Z</time></trkpt><trkpt lat="40.973432518451155" lon="9.410671887336646"><ele>110.0</ele><time>2026-05-01T16:33:45Z</time></trkpt><trkpt lat="40.97348462135827" lon="9.410863113677205"><ele>111.0</ele><time>2026-05-01T16:33:46Z</time></trkpt><trkpt lat="40.97352752518098" lon="9.411045223300624"><ele>112.0</ele><time>2026-05-01T16:33:47Z</time></trkpt><trkpt lat="40.97357213728815" lon="9.41122793557703"><ele>113.0</ele><time>2026-05-01T16:33:48Z</time></trkpt><trkpt lat="40.97359898579395" lon="9.41137747873305"><ele>114.0</ele><time>2026-05-01T16:33:49Z</time></trkpt><trkpt lat="40.97362688470766" lon="9.411513330334468"><ele>112.0</ele><time>2026-05-01T16:33:50Z</time></trkpt><trkpt lat="40.97367100428603" lon="9.411637695443298"><ele>110.0</ele><time>2026-05-01T16:33:51Z</time></trkpt><trkpt lat="40.973742398894046" lon="9.411770236136414"><ele>108.0</ele><time>2026-05-01T16:33:52Z</time></trkpt><trkpt lat="40.97384128653429" lon="9.41190970090674"><ele>106.0</ele><time>2026-05-01T16:33:53Z</time></trkpt><trkpt lat="40.97394852000032" lon="9.41206413012793"><ele>105.66666666666667</ele><time>2026-05-01T16:33:54Z</time></trkpt><trkpt lat="40.97404758098263" lon="9.412224742106096"><ele>105.33333333333334</ele><time>2026-05-01T16:33:55Z</time></trkpt><trkpt lat="40.97415630585023" lon="9.412417790829664"><ele>105.0</ele><time>2026-05-01T16:33:56Z</time></trkpt><trkpt lat="40.97425414848413" lon="9.41261063185686"><ele>105.0</ele><time>2026-05-01T16:33:57Z</time></trkpt><trkpt lat="40.97434762272551" lon="9.412790884720229"><ele>105.0</ele><time>2026-05-01T16:33:58Z</time></trkpt><trkpt lat="40.974444760024966" lon="9.41296939659915"><ele>105.0</ele><time>2026-05-01T16:33:59Z</time></trkpt><trkpt lat="40.97453704531636" lon="9.413136377444907"><ele>103.8</ele><time>2026-05-01T16:34:00Z</time></trkpt><trkpt lat="40.97461906841802" lon="9.413289822116623"><ele>102.6</ele><time>2026-05-01T16:34:01Z</time></trkpt><trkpt lat="40.974676221262904" lon="9.413402997970314"><ele>101.4</ele><time>2026-05-01T16:34:02Z</time></trkpt><trkpt lat="40.97473715512098" lon="9.413503501196324"><ele>100.2</ele><time>2026-05-01T16:34:03Z</time></trkpt><trkpt lat="40.97480262770227" lon="9.413612729044635"><ele>99.0</ele><time>2026-05-01T16:34:04Z</time></trkpt><trkpt lat="40.974847314239476" lon="9.413758259762545"><ele>98.25</ele><time>2026-05-01T16:34:05Z</time></trkpt><trkpt lat="40.97491856276965" lon="9.413898242558492"><ele>97.5</ele><time>2026-05-01T16:34:06Z</time></trkpt><trkpt lat="40.97497157752744" lon="9.414047572128487"><ele>96.75</ele><time>2026-05-01T16:34:07Z</time></trkpt><trkpt lat="40.9750229169725" lon="9.414186464797554"><ele>96.0</ele><time>2026-05-01T16:34:08Z</time></trkpt><trkpt lat="40.97507289356785" lon="9.414295860057624"><ele>96.0</ele><time>2026-05-01T16:34:09Z</time></trkpt><trkpt lat="40.97511778752039" lon="9.414396891055913"><ele>96.0</ele><time>2026-05-01T16:34:10Z</time></trkpt><trkpt lat="40.97514987644179" lon="9.414472983046984"><ele>96.0</ele><time>2026-05-01T16:34:11Z</time></trkpt><trkpt lat="40.97519881544945" lon="9.414588736298132"><ele>96.0</ele><time>2026-05-01T16:34:13Z</time></trkpt><trkpt lat="40.975227932841335" lon="9.414685781687728"><ele>96.0</ele><time>2026-05-01T16:34:14Z</time></trkpt><trkpt lat="40.97527293423813" lon="9.414786695287535"><ele>96.0</ele><time>2026-05-01T16:34:15Z</time></trkpt><trkpt lat="40.9753139490594" lon="9.414891035544725"><ele>95.83333333333333</ele><time>2026-05-01T16:34:16Z</time></trkpt><trkpt lat="40.97536815935234" lon="9.414981500413276"><ele>95.66666666666667</ele><time>2026-05-01T16:34:17Z</time></trkpt><trkpt lat="40.97542469934554" lon="9.415075676371277"><ele>95.5</ele><time>2026-05-01T16:34:18Z</time></trkpt><trkpt lat="40.97547623168913" lon="9.415172081327196"><ele>95.33333333333334</ele><time>2026-05-01T16:34:19Z</time></trkpt><trkpt lat="40.975515248584095" lon="9.41525716027438"><ele>95.16666666666667</ele><time>2026-05-01T16:34:20Z</time></trkpt><trkpt lat="40.97555344258151" lon="9.415336644276355"><ele>95.0</ele><time>2026-05-01T16:34:21Z</time></trkpt><trkpt lat="40.975622500304006" lon="9.415450891178079"><ele>95.0</ele><time>2026-05-01T16:34:23Z</time></trkpt><trkpt lat="40.97576316284873" lon="9.41542014193384"><ele>95.0</ele><time>2026-05-01T16:34:25Z</time></trkpt><trkpt lat="40.9758409482665" lon="9.41538953500028"><ele>95.0</ele><time>2026-05-01T16:34:26Z</time></trkpt><trkpt lat="40.97592042584587" lon="9.415395120368215"><ele>95.0</ele><time>2026-05-01T16:34:27Z</time></trkpt><trkpt lat="40.975982477613606" lon="9.415474287680066"><ele>95.0</ele><time>2026-05-01T16:34:28Z</time></trkpt><trkpt lat="40.97604980212462" lon="9.415548975519405"><ele>93.75</ele><time>2026-05-01T16:34:29Z</time></trkpt><trkpt lat="40.976146244958834" lon="9.415623756698876"><ele>92.5</ele><time>2026-05-01T16:34:30Z</time></trkpt><trkpt lat="40.976247187785305" lon="9.41571774180885"><ele>91.25</ele><time>2026-05-01T16:34:31Z</time></trkpt><trkpt lat="40.976357681072514" lon="9.415793035852824"><ele>90.0</ele><time>2026-05-01T16:34:32Z</time></trkpt><trkpt lat="40.97647430424059" lon="9.415868264989296"><ele>90.0</ele><time>2026-05-01T16:34:33Z</time></trkpt><trkpt lat="40.97660732125731" lon="9.415934779588959"><ele>90.0</ele><time>2026-05-01T16:34:34Z</time></trkpt><trkpt lat="40.97675831160646" lon="9.41600295036096"><ele>90.0</ele><time>2026-05-01T16:34:35Z</time></trkpt><trkpt lat="40.976943640685754" lon="9.416077194873065"><ele>90.75</ele><time>2026-05-01T16:34:36Z</time></trkpt><trkpt lat="40.9770846277734" lon="9.416137591947948"><ele>91.5</ele><time>2026-05-01T16:34:37Z</time></trkpt><trkpt lat="40.97720782147009" lon="9.416181393575863"><ele>92.25</ele><time>2026-05-01T16:34:38Z</time></trkpt><trkpt lat="40.977321022288436" lon="9.416255930677899"><ele>93.0</ele><time>2026-05-01T16:34:39Z</time></trkpt><trkpt lat="40.97744375742687" lon="9.41629313379561"><ele>91.75</ele><time>2026-05-01T16:34:40Z</time></trkpt><trkpt lat="40.97754205679221" lon="9.416341794029826"><ele>90.5</ele><time>2026-05-01T16:34:41Z</time></trkpt><trkpt lat="40.977646030193526" lon="9.41638097935941"><ele>89.25</ele><time>2026-05-01T16:34:42Z</time></trkpt><trkpt lat="40.97776052908713" lon="9.416378336480285"><ele>88.0</ele><time>2026-05-01T16:34:43Z</time></trkpt><trkpt lat="40.97788797173066" lon="9.416367729614107"><ele>88.0</ele><time>2026-05-01T16:34:44Z</time></trkpt><trkpt lat="40.97805248078496" lon="9.41634968873127"><ele>88.0</ele><time>2026-05-01T16:34:45Z</time></trkpt><trkpt lat="40.978211462509336" lon="9.416335960506789"><ele>88.0</ele><time>2026-05-01T16:34:46Z</time></trkpt><trkpt lat="40.97832493498611" lon="9.416317999120631"><ele>88.0</ele><time>2026-05-01T16:34:47Z</time></trkpt><trkpt lat="40.978441590119154" lon="9.416282235946296"><ele>88.25</ele><time>2026-05-01T16:34:48Z</time></trkpt><trkpt lat="40.978576674125115" lon="9.41623135698219"><ele>88.5</ele><time>2026-05-01T16:34:49Z</time></trkpt><trkpt lat="40.97870219860389" lon="9.416156936544265"><ele>88.75</ele><time>2026-05-01T16:34:50Z</time></trkpt><trkpt lat="40.9788579566242" lon="9.416099102688149"><ele>89.0</ele><time>2026-05-01T16:34:51Z</time></trkpt><trkpt lat="40.97900771265498" lon="9.416023921163982"><ele>89.0</ele><time>2026-05-01T16:34:52Z</time></trkpt><trkpt lat="40.9791188176993" lon="9.415956445498741"><ele>89.0</ele><time>2026-05-01T16:34:53Z</time></trkpt><trkpt lat="40.97922081992946" lon="9.415919871781538"><ele>89.0</ele><time>2026-05-01T16:34:54Z</time></trkpt><trkpt lat="40.979301250593366" lon="9.41585292532778"><ele>89.0</ele><time>2026-05-01T16:34:55Z</time></trkpt><trkpt lat="40.97941118346994" lon="9.415773027428672"><ele>89.0</ele><time>2026-05-01T16:34:56Z</time></trkpt><trkpt lat="40.979534682340706" lon="9.41568381365625"><ele>88.5</ele><time>2026-05-01T16:34:57Z</time></trkpt><trkpt lat="40.97964825177595" lon="9.415607943624249"><ele>88.0</ele><time>2026-05-01T16:34:58Z</time></trkpt><trkpt lat="40.979756136495496" lon="9.415516380693703"><ele>87.5</ele><time>2026-05-01T16:34:59Z</time></trkpt><trkpt lat="40.97987160783772" lon="9.415434911759476"><ele>87.0</ele><time>2026-05-01T16:35:00Z</time></trkpt><trkpt lat="40.979980314524454" lon="9.41535217735863"><ele>86.39999999999999</ele><time>2026-05-01T16:35:01Z</time></trkpt><trkpt lat="40.98007114240311" lon="9.415287714645167"><ele>85.8</ele><time>2026-05-01T16:35:02Z</time></trkpt><trkpt lat="40.980169344185946" lon="9.41526472568509"><ele>85.2</ele><time>2026-05-01T16:35:03Z</time></trkpt><trkpt lat="40.98029478852848" lon="9.415248349403273"><ele>84.6</ele><time>2026-05-01T16:35:04Z</time></trkpt><trkpt lat="40.980405430746245" lon="9.41523206916781"><ele>84.0</ele><time>2026-05-01T16:35:05Z</time></trkpt><trkpt lat="40.98050191620024" lon="9.415190298755094"><ele>84.0</ele><time>2026-05-01T16:35:06Z</time></trkpt><trkpt lat="40.98060967971759" lon="9.415124139285778"><ele>84.0</ele><time>2026-05-01T16:35:07Z</time></trkpt><trkpt lat="40.980728708315176" lon="9.415043260946762"><ele>84.0</ele><time>2026-05-01T16:35:08Z</time></trkpt><trkpt lat="40.9808541808137" lon="9.414965668340631"><ele>84.0</ele><time>2026-05-01T16:35:09Z</time></trkpt><trkpt lat="40.98097620487392" lon="9.414901552270484"><ele>83.6</ele><time>2026-05-01T16:35:10Z</time></trkpt><trkpt lat="40.98108589862295" lon="9.414870077710797"><ele>83.2</ele><time>2026-05-01T16:35:11Z</time></trkpt><trkpt lat="40.98117752655785" lon="9.414837781111796"><ele>82.8</ele><time>2026-05-01T16:35:12Z</time></trkpt><trkpt lat="40.9812668965962" lon="9.414790633930451"><ele>82.39999999999999</ele><time>2026-05-01T16:35:13Z</time></trkpt><trkpt lat="40.981359160988845" lon="9.414781482602622"><ele>82.0</ele><time>2026-05-01T16:35:14Z</time></trkpt><trkpt lat="40.98144578489158" lon="9.414779725896127"><ele>82.0</ele><time>2026-05-01T16:35:15Z</time></trkpt><trkpt lat="40.98152740520409" lon="9.414778291923584"><ele>82.0</ele><time>2026-05-01T16:35:16Z</time></trkpt><trkpt lat="40.981632961277136" lon="9.414729332497032"><ele>82.0</ele><time>2026-05-01T16:35:18Z</time></trkpt><trkpt lat="40.981720055978414" lon="9.414701253814732"><ele>82.0</ele><time>2026-05-01T16:35:20Z</time></trkpt><trkpt lat="40.9818203653045" lon="9.414664062315754"><ele>82.0</ele><time>2026-05-01T16:35:23Z</time></trkpt><trkpt lat="40.98189269961658" lon="9.414633091348573"><ele>83.19999999999999</ele><time>2026-05-01T16:35:24Z</time></trkpt><trkpt lat="40.98198056892254" lon="9.414640179515672"><ele>84.4</ele><time>2026-05-01T16:35:25Z</time></trkpt><trkpt lat="40.98209440012746" lon="9.41463132386022"><ele>85.6</ele><time>2026-05-01T16:35:26Z</time></trkpt><trkpt lat="40.98219522309033" lon="9.41461263566652"><ele>86.80000000000001</ele><time>2026-05-01T16:35:27Z</time></trkpt><trkpt lat="40.982289933401816" lon="9.414604337376327"><ele>88.0</ele><time>2026-05-01T16:35:28Z</time></trkpt><trkpt lat="40.982407760137505" lon="9.414561562436422"><ele>90.0</ele><time>2026-05-01T16:35:29Z</time></trkpt><trkpt lat="40.98254982757488" lon="9.414513501372301"><ele>92.0</ele><time>2026-05-01T16:35:30Z</time></trkpt><trkpt lat="40.98268184140437" lon="9.414480208585069"><ele>94.0</ele><time>2026-05-01T16:35:31Z</time></trkpt><trkpt lat="40.982806801986804" lon="9.414457022453082"><ele>96.0</ele><time>2026-05-01T16:35:32Z</time></trkpt><trkpt lat="40.98292253365307" lon="9.414450793192815"><ele>96.0</ele><time>2026-05-01T16:35:33Z</time></trkpt><trkpt lat="40.98302490227847" lon="9.41447333600862"><ele>96.0</ele><time>2026-05-01T16:35:34Z</time></trkpt><trkpt lat="40.98308539699306" lon="9.414512499509316"><ele>96.0</ele><time>2026-05-01T16:35:35Z</time></trkpt><trkpt lat="40.98313468094806" lon="9.414566766484175"><ele>96.0</ele><time>2026-05-01T16:35:36Z</time></trkpt><trkpt lat="40.98322102503057" lon="9.41464633802418"><ele>96.0</ele><time>2026-05-01T16:35:37Z</time></trkpt><trkpt lat="40.98331096686422" lon="9.41478764774757"><ele>93.4</ele><time>2026-05-01T16:35:38Z</time></trkpt><trkpt lat="40.98342166981212" lon="9.414906918378005"><ele>90.8</ele><time>2026-05-01T16:35:39Z</time></trkpt><trkpt lat="40.98350759811791" lon="9.414975858384206"><ele>88.2</ele><time>2026-05-01T16:35:40Z</time></trkpt><trkpt lat="40.98359492213081" lon="9.415015467527551"><ele>85.60000000000001</ele><time>2026-05-01T16:35:41Z</time></trkpt><trkpt lat="40.983679448749356" lon="9.415041310488082"><ele>83.0</ele><time>2026-05-01T16:35:42Z</time></trkpt><trkpt lat="40.98377187696958" lon="9.41505360583705"><ele>83.0</ele><time>2026-05-01T16:35:43Z</time></trkpt><trkpt lat="40.9839008169379" lon="9.41504277938011"><ele>83.0</ele><time>2026-05-01T16:35:44Z</time></trkpt><trkpt lat="40.984050942320074" lon="9.41499348219126"><ele>83.0</ele><time>2026-05-01T16:35:45Z</time></trkpt><trkpt lat="40.98422388912858" lon="9.414920452036327"><ele>82.0</ele><time>2026-05-01T16:35:46Z</time></trkpt><trkpt lat="40.98439788609473" lon="9.414890190702476"><ele>81.0</ele><time>2026-05-01T16:35:47Z</time></trkpt><trkpt lat="40.98455303168794" lon="9.414849018285015"><ele>80.0</ele><time>2026-05-01T16:35:48Z</time></trkpt><trkpt lat="40.984708215344384" lon="9.414805580740628"><ele>80.0</ele><time>2026-05-01T16:35:49Z</time></trkpt><trkpt lat="40.98487911966338" lon="9.41476696053416"><ele>80.0</ele><time>2026-05-01T16:35:50Z</time></trkpt><trkpt lat="40.98503975276207" lon="9.414710408415656"><ele>80.0</ele><time>2026-05-01T16:35:51Z</time></trkpt><trkpt lat="40.985194537257556" lon="9.414672856078136"><ele>79.5</ele><time>2026-05-01T16:35:52Z</time></trkpt><trkpt lat="40.98533077624306" lon="9.414661350795663"><ele>79.0</ele><time>2026-05-01T16:35:53Z</time></trkpt><trkpt lat="40.98546382874604" lon="9.414640825788542"><ele>78.5</ele><time>2026-05-01T16:35:54Z</time></trkpt><trkpt lat="40.98560607035721" lon="9.414603216653177"><ele>78.0</ele><time>2026-05-01T16:35:55Z</time></trkpt><trkpt lat="40.98573371842379" lon="9.414607193857668"><ele>78.0</ele><time>2026-05-01T16:35:56Z</time></trkpt><trkpt lat="40.98587034876505" lon="9.414645239325788"><ele>78.0</ele><time>2026-05-01T16:35:57Z</time></trkpt><trkpt lat="40.98603910027586" lon="9.414673268288688"><ele>78.0</ele><time>2026-05-01T16:35:58Z</time></trkpt><trkpt lat="40.98621760393087" lon="9.414732056189367"><ele>78.0</ele><time>2026-05-01T16:35:59Z</time></trkpt><trkpt lat="40.98636713304796" lon="9.414762890683638"><ele>78.0</ele><time>2026-05-01T16:36:00Z</time></trkpt><trkpt lat="40.986493427245264" lon="9.414769312264482"><ele>78.0</ele><time>2026-05-01T16:36:01Z</time></trkpt><trkpt lat="40.9866388095568" lon="9.414771921950658"><ele>78.0</ele><time>2026-05-01T16:36:02Z</time></trkpt><trkpt lat="40.98677805563633" lon="9.414758614407473"><ele>77.83333333333333</ele><time>2026-05-01T16:36:03Z</time></trkpt><trkpt lat="40.986855052980964" lon="9.414738504313672"><ele>77.66666666666667</ele><time>2026-05-01T16:36:04Z</time></trkpt><trkpt lat="40.986935445525944" lon="9.41470265110704"><ele>77.5</ele><time>2026-05-01T16:36:05Z</time></trkpt><trkpt lat="40.98702170628805" lon="9.414656409256718"><ele>77.33333333333334</ele><time>2026-05-01T16:36:06Z</time></trkpt><trkpt lat="40.98709624452227" lon="9.414630849289034"><ele>77.16666666666667</ele><time>2026-05-01T16:36:07Z</time></trkpt><trkpt lat="40.98716431446234" lon="9.41463894292892"><ele>77.0</ele><time>2026-05-01T16:36:08Z</time></trkpt><trkpt lat="40.987219962581904" lon="9.414714135824577"><ele>77.0</ele><time>2026-05-01T16:36:09Z</time></trkpt><trkpt lat="40.9873153155698" lon="9.414735726835326"><ele>77.0</ele><time>2026-05-01T16:36:10Z</time></trkpt><trkpt lat="40.98741118706664" lon="9.414779343851636"><ele>77.0</ele><time>2026-05-01T16:36:11Z</time></trkpt><trkpt lat="40.98752095383843" lon="9.414797124958424"><ele>77.0</ele><time>2026-05-01T16:36:12Z</time></trkpt><trkpt lat="40.98762763647932" lon="9.414851928189014"><ele>77.0</ele><time>2026-05-01T16:36:13Z</time></trkpt><trkpt lat="40.987754107223026" lon="9.414908634116594"><ele>77.6</ele><time>2026-05-01T16:36:14Z</time></trkpt><trkpt lat="40.987890762034866" lon="9.414957280585575"><ele>78.2</ele><time>2026-05-01T16:36:15Z</time></trkpt><trkpt lat="40.98799547832962" lon="9.41497518750997"><ele>78.8</ele><time>2026-05-01T16:36:16Z</time></trkpt><trkpt lat="40.98807960525347" lon="9.414996755415752"><ele>79.4</ele><time>2026-05-01T16:36:17Z</time></trkpt><trkpt lat="40.98817656362054" lon="9.414997537414672"><ele>80.0</ele><time>2026-05-01T16:36:18Z</time></trkpt><trkpt lat="40.98824531395808" lon="9.415026068846402"><ele>80.0</ele><time>2026-05-01T16:36:19Z</time></trkpt><trkpt lat="40.98832139163676" lon="9.415047976339041"><ele>80.0</ele><time>2026-05-01T16:36:21Z</time></trkpt><trkpt lat="40.98837758008307" lon="9.415087707972946"><ele>80.0</ele><time>2026-05-01T16:36:23Z</time></trkpt><trkpt lat="40.98844356454202" lon="9.4151495610921"><ele>80.0</ele><time>2026-05-01T16:36:24Z</time></trkpt><trkpt lat="40.98851204655036" lon="9.415240783684094"><ele>80.0</ele><time>2026-05-01T16:36:25Z</time></trkpt><trkpt lat="40.98859484514311" lon="9.415296992322702"><ele>80.0</ele><time>2026-05-01T16:36:26Z</time></trkpt><trkpt lat="40.98868608462689" lon="9.415395546075901"><ele>80.4</ele><time>2026-05-01T16:36:27Z</time></trkpt><trkpt lat="40.98878552154696" lon="9.415475287173667"><ele>80.8</ele><time>2026-05-01T16:36:28Z</time></trkpt><trkpt lat="40.9888584875487" lon="9.4155629988001"><ele>81.19999999999999</ele><time>2026-05-01T16:36:29Z</time></trkpt><trkpt lat="40.98890270927517" lon="9.415634903545833"><ele>81.6</ele><time>2026-05-01T16:36:30Z</time></trkpt><trkpt lat="40.98891350908495" lon="9.415777403489132"><ele>82.0</ele><time>2026-05-01T16:36:32Z</time></trkpt><trkpt lat="40.988918647133055" lon="9.415875801763997"><ele>81.99999999999999</ele><time>2026-05-01T16:36:33Z</time></trkpt><trkpt lat="40.98896428171615" lon="9.415950184137776"><ele>82.0</ele><time>2026-05-01T16:36:34Z</time></trkpt><trkpt lat="40.9890357019311" lon="9.415971521007625"><ele>82.0</ele><time>2026-05-01T16:36:35Z</time></trkpt><trkpt lat="40.98910673747439" lon="9.415963760582926"><ele>82.0</ele><time>2026-05-01T16:36:36Z</time></trkpt><trkpt lat="40.98916925085541" lon="9.415919094031974"><ele>82.0</ele><time>2026-05-01T16:36:37Z</time></trkpt><trkpt lat="40.989246583527866" lon="9.415921307598664"><ele>81.99999999999999</ele><time>2026-05-01T16:36:38Z</time></trkpt><trkpt lat="40.98931628653115" lon="9.415936866798496"><ele>82.0</ele><time>2026-05-01T16:36:39Z</time></trkpt><trkpt lat="40.98938850631347" lon="9.416014071350206"><ele>83.8</ele><time>2026-05-01T16:36:41Z</time></trkpt><trkpt lat="40.98943857064817" lon="9.416140642243498"><ele>85.6</ele><time>2026-05-01T16:36:43Z</time></trkpt><trkpt lat="40.989435204408075" lon="9.416263162902965"><ele>87.39999999999999</ele><time>2026-05-01T16:36:45Z</time></trkpt><trkpt lat="40.98938506878893" lon="9.416349962411234"><ele>89.19999999999999</ele><time>2026-05-01T16:36:46Z</time></trkpt><trkpt lat="40.98936438531591" lon="9.416456855648011"><ele>91.0</ele><time>2026-05-01T16:36:47Z</time></trkpt><trkpt lat="40.98939546358616" lon="9.416648907714526"><ele>93.25</ele><time>2026-05-01T16:36:49Z</time></trkpt><trkpt lat="40.989491884586954" lon="9.416709693820485"><ele>95.5</ele><time>2026-05-01T16:36:50Z</time></trkpt><trkpt lat="40.98959186397631" lon="9.416772739182756"><ele>97.75</ele><time>2026-05-01T16:36:51Z</time></trkpt><trkpt lat="40.989703641045445" lon="9.416884611630934"><ele>100.0</ele><time>2026-05-01T16:36:52Z</time></trkpt><trkpt lat="40.989827455604186" lon="9.416966053692617"><ele>100.0</ele><time>2026-05-01T16:36:53Z</time></trkpt><trkpt lat="40.98993205263947" lon="9.416997815767552"><ele>100.0</ele><time>2026-05-01T16:36:54Z</time></trkpt><trkpt lat="40.99001095966996" lon="9.417002047262235"><ele>100.0</ele><time>2026-05-01T16:36:55Z</time></trkpt><trkpt lat="40.990107617093464" lon="9.416966415911435"><ele>100.0</ele><time>2026-05-01T16:36:56Z</time></trkpt><trkpt lat="40.9902279687261" lon="9.416913554545108"><ele>100.0</ele><time>2026-05-01T16:36:57Z</time></trkpt><trkpt lat="40.99036444509297" lon="9.41687489107931"><ele>102.50000000000001</ele><time>2026-05-01T16:36:58Z</time></trkpt><trkpt lat="40.990476401666974" lon="9.41684998294013"><ele>105.0</ele><time>2026-05-01T16:36:59Z</time></trkpt><trkpt lat="40.99054666795993" lon="9.41683817806714"><ele>107.5</ele><time>2026-05-01T16:37:00Z</time></trkpt><trkpt lat="40.990612367652524" lon="9.41689690557803"><ele>110.0</ele><time>2026-05-01T16:37:03Z</time></trkpt><trkpt lat="40.99059291456844" lon="9.41700455121775"><ele>112.50000000000001</ele><time>2026-05-01T16:37:05Z</time></trkpt><trkpt lat="40.990585748748856" lon="9.417091886496106"><ele>115.0</ele><time>2026-05-01T16:37:07Z</time></trkpt><trkpt lat="40.990666270602595" lon="9.417154238713877"><ele>115.00000000000001</ele><time>2026-05-01T16:37:09Z</time></trkpt><trkpt lat="40.9907378459626" lon="9.417147832846501"><ele>115.0</ele><time>2026-05-01T16:37:10Z</time></trkpt><trkpt lat="40.990815407340904" lon="9.417057577053312"><ele>115.0</ele><time>2026-05-01T16:37:11Z</time></trkpt><trkpt lat="40.990889213041875" lon="9.417040266224273"><ele>115.0</ele><time>2026-05-01T16:37:12Z</time></trkpt><trkpt lat="40.99096247317089" lon="9.41700470093205"><ele>115.00000000000001</ele><time>2026-05-01T16:37:13Z</time></trkpt><trkpt lat="40.990997253329404" lon="9.416911583251743"><ele>115.0</ele><time>2026-05-01T16:37:14Z</time></trkpt><trkpt lat="40.99105524902771" lon="9.41679324383345"><ele>118.5</ele><time>2026-05-01T16:37:15Z</time></trkpt><trkpt lat="40.99110268668094" lon="9.416710379361017"><ele>122.0</ele><time>2026-05-01T16:37:16Z</time></trkpt><trkpt lat="40.991194700548995" lon="9.416648203531851"><ele>125.5</ele><time>2026-05-01T16:37:18Z</time></trkpt><trkpt lat="40.991364932118294" lon="9.416636424000453"><ele>129.0</ele><time>2026-05-01T16:37:20Z</time></trkpt><trkpt lat="40.99146443110971" lon="9.41660894315208"><ele>129.0</ele><time>2026-05-01T16:37:21Z</time></trkpt><trkpt lat="40.99153620280133" lon="9.416593425823736"><ele>129.0</ele><time>2026-05-01T16:37:22Z</time></trkpt><trkpt lat="40.99159372339027" lon="9.416494462869919"><ele>129.0</ele><time>2026-05-01T16:37:23Z</time></trkpt><trkpt lat="40.99166882565825" lon="9.416382852133946"><ele>129.0</ele><time>2026-05-01T16:37:24Z</time></trkpt><trkpt lat="40.99173615501851" lon="9.416341041817285"><ele>129.0</ele><time>2026-05-01T16:37:25Z</time></trkpt><trkpt lat="40.99183087001983" lon="9.416433825335979"><ele>129.2</ele><time>2026-05-01T16:37:27Z</time></trkpt><trkpt lat="40.99187515032239" lon="9.416549014028128"><ele>129.4</ele><time>2026-05-01T16:37:28Z</time></trkpt><trkpt lat="40.99194540972045" lon="9.416683783823858"><ele>129.6</ele><time>2026-05-01T16:37:29Z</time></trkpt><trkpt lat="40.99202832202753" lon="9.41680193439111"><ele>129.8</ele><time>2026-05-01T16:37:30Z</time></trkpt><trkpt lat="40.99208874873175" lon="9.416903280653178"><ele>130.0</ele><time>2026-05-01T16:37:31Z</time></trkpt><trkpt lat="40.992175399381374" lon="9.416998216712647"><ele>130.0</ele><time>2026-05-01T16:37:32Z</time></trkpt><trkpt lat="40.99227206312454" lon="9.41708591383282"><ele>130.0</ele><time>2026-05-01T16:37:33Z</time></trkpt><trkpt lat="40.9923630226996" lon="9.417151855647061"><ele>130.0</ele><time>2026-05-01T16:37:34Z</time></trkpt><trkpt lat="40.992448623961536" lon="9.417189983790342"><ele>130.0</ele><time>2026-05-01T16:37:35Z</time></trkpt><trkpt lat="40.992510830439755" lon="9.417286196360275"><ele>130.0</ele><time>2026-05-01T16:37:37Z</time></trkpt><trkpt lat="40.9925653316899" lon="9.41737604384272"><ele>129.16666666666669</ele><time>2026-05-01T16:38:26Z</time></trkpt><trkpt lat="40.99260616395748" lon="9.417448343025965"><ele>128.33333333333334</ele><time>2026-05-01T16:38:27Z</time></trkpt><trkpt lat="40.992659204519" lon="9.417546947342057"><ele>127.5</ele><time>2026-05-01T16:38:28Z</time></trkpt><trkpt lat="40.99272406723792" lon="9.417628880253172"><ele>126.66666666666666</ele><time>2026-05-01T16:38:29Z</time></trkpt><trkpt lat="40.99277363487099" lon="9.417713418561396"><ele>125.83333333333333</ele><time>2026-05-01T16:38:30Z</time></trkpt><trkpt lat="40.992817959088605" lon="9.417800687741025"><ele>125.0</ele><time>2026-05-01T16:38:31Z</time></trkpt><trkpt lat="40.992881361463375" lon="9.417868913008064"><ele>125.0</ele><time>2026-05-01T16:38:32Z</time></trkpt><trkpt lat="40.99295840210458" lon="9.417925703897073"><ele>125.0</ele><time>2026-05-01T16:38:33Z</time></trkpt><trkpt lat="40.9930520245877" lon="9.417943009421878"><ele>125.0</ele><time>2026-05-01T16:38:34Z</time></trkpt><trkpt lat="40.993138622182286" lon="9.417999200315215"><ele>125.0</ele><time>2026-05-01T16:38:35Z</time></trkpt><trkpt lat="40.99323808706717" lon="9.418044253102297"><ele>125.0</ele><time>2026-05-01T16:38:36Z</time></trkpt><trkpt lat="40.993341927493944" lon="9.418100229900917"><ele>122.0</ele><time>2026-05-01T16:38:37Z</time></trkpt><trkpt lat="40.993459366309985" lon="9.418146955207636"><ele>119.0</ele><time>2026-05-01T16:38:38Z</time></trkpt><trkpt lat="40.99356963765634" lon="9.418212313847322"><ele>116.0</ele><time>2026-05-01T16:38:39Z</time></trkpt><trkpt lat="40.993688794658745" lon="9.418281389238492"><ele>113.0</ele><time>2026-05-01T16:38:40Z</time></trkpt><trkpt lat="40.9938038738453" lon="9.418368045646448"><ele>113.0</ele><time>2026-05-01T16:38:41Z</time></trkpt><trkpt lat="40.99392057666378" lon="9.418437821171697"><ele>113.0</ele><time>2026-05-01T16:38:42Z</time></trkpt><trkpt lat="40.99404462110951" lon="9.41849601632968"><ele>113.0</ele><time>2026-05-01T16:38:43Z</time></trkpt><trkpt lat="40.99416159037858" lon="9.418577407880207"><ele>113.0</ele><time>2026-05-01T16:38:44Z</time></trkpt><trkpt lat="40.99428263752474" lon="9.418661750190473"><ele>112.0</ele><time>2026-05-01T16:38:45Z</time></trkpt><trkpt lat="40.9944063093681" lon="9.418754653836741"><ele>111.0</ele><time>2026-05-01T16:38:46Z</time></trkpt><trkpt lat="40.99453495497894" lon="9.418853202808103"><ele>110.0</ele><time>2026-05-01T16:38:47Z</time></trkpt><trkpt lat="40.9946664047751" lon="9.418950689798498"><ele>109.0</ele><time>2026-05-01T16:38:48Z</time></trkpt><trkpt lat="40.994796358535154" lon="9.419046326146816"><ele>109.0</ele><time>2026-05-01T16:38:49Z</time></trkpt><trkpt lat="40.994925208642364" lon="9.419143483759898"><ele>109.0</ele><time>2026-05-01T16:38:50Z</time></trkpt><trkpt lat="40.99503626902433" lon="9.419228459132823"><ele>109.0</ele><time>2026-05-01T16:38:51Z</time></trkpt><trkpt lat="40.99513258713433" lon="9.41930604033187"><ele>109.0</ele><time>2026-05-01T16:38:52Z</time></trkpt><trkpt lat="40.995202103986465" lon="9.41937805873388"><ele>106.0</ele><time>2026-05-01T16:38:53Z</time></trkpt><trkpt lat="40.99524988128625" lon="9.419447963071834"><ele>103.0</ele><time>2026-05-01T16:38:54Z</time></trkpt><trkpt lat="40.99522016971503" lon="9.4195845363314"><ele>100.0</ele><time>2026-05-01T16:38:56Z</time></trkpt><trkpt lat="40.995189231580135" lon="9.419786027461097"><ele>97.0</ele><time>2026-05-01T16:38:58Z</time></trkpt><trkpt lat="40.995149528923854" lon="9.419943861563961"><ele>97.0</ele><time>2026-05-01T16:38:59Z</time></trkpt><trkpt lat="40.995124578412174" lon="9.42012871451751"><ele>97.0</ele><time>2026-05-01T16:39:00Z</time></trkpt><trkpt lat="40.99510345091292" lon="9.420307473932526"><ele>97.0</ele><time>2026-05-01T16:39:01Z</time></trkpt><trkpt lat="40.995094321280405" lon="9.42047605394917"><ele>97.0</ele><time>2026-05-01T16:39:02Z</time></trkpt><trkpt lat="40.99508401187173" lon="9.420642771935048"><ele>96.75</ele><time>2026-05-01T16:39:03Z</time></trkpt><trkpt lat="40.99510804276601" lon="9.42081961653678"><ele>96.5</ele><time>2026-05-01T16:39:04Z</time></trkpt><trkpt lat="40.99513770254178" lon="9.421004063353424"><ele>96.25</ele><time>2026-05-01T16:39:05Z</time></trkpt><trkpt lat="40.99516929393333" lon="9.421179463394033"><ele>96.0</ele><time>2026-05-01T16:39:06Z</time></trkpt><trkpt lat="40.99520618817822" lon="9.421308256529844"><ele>95.5</ele><time>2026-05-01T16:39:07Z</time></trkpt><trkpt lat="40.99520692371958" lon="9.421447766428647"><ele>95.0</ele><time>2026-05-01T16:39:08Z</time></trkpt><trkpt lat="40.995244609577135" lon="9.421621039388846"><ele>94.5</ele><time>2026-05-01T16:39:09Z</time></trkpt><trkpt lat="40.9952679153228" lon="9.421810285111604"><ele>94.0</ele><time>2026-05-01T16:39:10Z</time></trkpt><trkpt lat="40.99528796142091" lon="9.4219768961589"><ele>94.0</ele><time>2026-05-01T16:39:11Z</time></trkpt><trkpt lat="40.99529442671238" lon="9.422124336770924"><ele>94.0</ele><time>2026-05-01T16:39:12Z</time></trkpt><trkpt lat="40.99530917076584" lon="9.422262341993502"><ele>94.0</ele><time>2026-05-01T16:39:13Z</time></trkpt><trkpt lat="40.99532084640336" lon="9.422390491830727"><ele>94.0</ele><time>2026-05-01T16:39:14Z</time></trkpt><trkpt lat="40.99534791445184" lon="9.422504009980269"><ele>94.0</ele><time>2026-05-01T16:39:15Z</time></trkpt><trkpt lat="40.99535621426043" lon="9.422634103881677"><ele>93.4</ele><time>2026-05-01T16:39:16Z</time></trkpt><trkpt lat="40.99536191261678" lon="9.422753646142645"><ele>92.80000000000001</ele><time>2026-05-01T16:39:17Z</time></trkpt><trkpt lat="40.99532189812387" lon="9.4228799607541"><ele>92.19999999999999</ele><time>2026-05-01T16:39:18Z</time></trkpt><trkpt lat="40.99531961817208" lon="9.423033884601287"><ele>91.6</ele><time>2026-05-01T16:39:19Z</time></trkpt><trkpt lat="40.99530230652957" lon="9.423189703481468"><ele>91.0</ele><time>2026-05-01T16:39:20Z</time></trkpt><trkpt lat="40.99529624900734" lon="9.423333118239958"><ele>88.25</ele><time>2026-05-01T16:39:21Z</time></trkpt><trkpt lat="40.995294790877296" lon="9.423482527992578"><ele>85.5</ele><time>2026-05-01T16:39:22Z</time></trkpt><trkpt lat="40.99527276794491" lon="9.423632860772898"><ele>82.75</ele><time>2026-05-01T16:39:23Z</time></trkpt><trkpt lat="40.9952704482416" lon="9.423806869666258"><ele>80.0</ele><time>2026-05-01T16:39:24Z</time></trkpt><trkpt lat="40.99526382396411" lon="9.423985679507746"><ele>78.2</ele><time>2026-05-01T16:39:25Z</time></trkpt><trkpt lat="40.995259480955575" lon="9.42414878956639"><ele>76.4</ele><time>2026-05-01T16:39:26Z</time></trkpt><trkpt lat="40.99526016711113" lon="9.42428466567693"><ele>74.6</ele><time>2026-05-01T16:39:27Z</time></trkpt><trkpt lat="40.99526585014483" lon="9.424402814499807"><ele>72.8</ele><time>2026-05-01T16:39:28Z</time></trkpt><trkpt lat="40.99526222856174" lon="9.42451138642418"><ele>71.0</ele><time>2026-05-01T16:39:29Z</time></trkpt><trkpt lat="40.995257741983735" lon="9.424598594544026"><ele>70.39999999999999</ele><time>2026-05-01T16:39:30Z</time></trkpt><trkpt lat="40.99528307397129" lon="9.424749451825981"><ele>69.8</ele><time>2026-05-01T16:39:32Z</time></trkpt><trkpt lat="40.995301554319475" lon="9.424830578480364"><ele>69.19999999999999</ele><time>2026-05-01T16:39:33Z</time></trkpt><trkpt lat="40.99533316474497" lon="9.424923427058232"><ele>68.6</ele><time>2026-05-01T16:39:34Z</time></trkpt><trkpt lat="40.99538272788699" lon="9.42502568711589"><ele>68.0</ele><time>2026-05-01T16:39:35Z</time></trkpt><trkpt lat="40.99544035492624" lon="9.425135118279421"><ele>68.0</ele><time>2026-05-01T16:39:36Z</time></trkpt><trkpt lat="40.99550336551377" lon="9.425239664977518"><ele>68.0</ele><time>2026-05-01T16:39:37Z</time></trkpt><trkpt lat="40.995557928633865" lon="9.42533297659815"><ele>68.0</ele><time>2026-05-01T16:39:38Z</time></trkpt><trkpt lat="40.99561195932333" lon="9.425427488874627"><ele>68.0</ele><time>2026-05-01T16:39:39Z</time></trkpt><trkpt lat="40.995664371455796" lon="9.425519772822463"><ele>68.0</ele><time>2026-05-01T16:39:40Z</time></trkpt><trkpt lat="40.99570872628359" lon="9.4255987411558"><ele>68.0</ele><time>2026-05-01T16:39:41Z</time></trkpt><trkpt lat="40.99575833541581" lon="9.425693114802582"><ele>67.33333333333334</ele><time>2026-05-01T16:39:42Z</time></trkpt><trkpt lat="40.995790260669246" lon="9.425788498852349"><ele>66.66666666666667</ele><time>2026-05-01T16:39:43Z</time></trkpt><trkpt lat="40.99585149734784" lon="9.425848571370564"><ele>66.0</ele><time>2026-05-01T16:39:44Z</time></trkpt><trkpt lat="40.995894228662735" lon="9.42592721738653"><ele>65.33333333333333</ele><time>2026-05-01T16:39:45Z</time></trkpt><trkpt lat="40.995977384193694" lon="9.425945709157912"><ele>64.66666666666666</ele><time>2026-05-01T16:39:46Z</time></trkpt><trkpt lat="40.99606593981066" lon="9.42597210279604"><ele>64.0</ele><time>2026-05-01T16:39:47Z</time></trkpt><trkpt lat="40.99617563601468" lon="9.425999116636097"><ele>63.166666666666664</ele><time>2026-05-01T16:39:48Z</time></trkpt><trkpt lat="40.99626218429434" lon="9.426023100343413"><ele>62.33333333333333</ele><time>2026-05-01T16:39:49Z</time></trkpt><trkpt lat="40.99631828837063" lon="9.426066178492588"><ele>61.5</ele><time>2026-05-01T16:39:50Z</time></trkpt><trkpt lat="40.99640703510856" lon="9.426164983227968"><ele>60.66666666666667</ele><time>2026-05-01T16:39:52Z</time></trkpt><trkpt lat="40.99641838919792" lon="9.426261183261271"><ele>59.833333333333336</ele><time>2026-05-01T16:39:53Z</time></trkpt><trkpt lat="40.99644483548214" lon="9.426380199163503"><ele>59.0</ele><time>2026-05-01T16:39:55Z</time></trkpt><trkpt lat="40.99645888011338" lon="9.426491633541483"><ele>59.00000000000001</ele><time>2026-05-01T16:39:59Z</time></trkpt><trkpt lat="40.996470541139594" lon="9.42659420863734"><ele>59.0</ele><time>2026-05-01T16:40:01Z</time></trkpt><trkpt lat="40.9964776229735" lon="9.426739392850472"><ele>59.0</ele><time>2026-05-01T16:40:03Z</time></trkpt><trkpt lat="40.99647493692211" lon="9.426832124901152"><ele>59.0</ele><time>2026-05-01T16:40:04Z</time></trkpt><trkpt lat="40.99645090749959" lon="9.426964434424688"><ele>59.00000000000001</ele><time>2026-05-01T16:40:06Z</time></trkpt><trkpt lat="40.99641995303495" lon="9.427041687305854"><ele>59.0</ele><time>2026-05-01T16:40:07Z</time></trkpt><trkpt lat="40.99643532062857" lon="9.427166291445706"><ele>60.5</ele><time>2026-05-01T16:40:09Z</time></trkpt><trkpt lat="40.99653154208064" lon="9.427273542823977"><ele>62.0</ele><time>2026-05-01T16:40:11Z</time></trkpt><trkpt lat="40.99662574225985" lon="9.427312242662152"><ele>63.5</ele><time>2026-05-01T16:40:12Z</time></trkpt><trkpt lat="40.99673737908548" lon="9.427343540458294"><ele>65.0</ele><time>2026-05-01T16:40:13Z</time></trkpt><trkpt lat="40.99684519907068" lon="9.427395352314397"><ele>65.0</ele><time>2026-05-01T16:40:14Z</time></trkpt><trkpt lat="40.996972589029994" lon="9.427412055333605"><ele>65.0</ele><time>2026-05-01T16:40:15Z</time></trkpt><trkpt lat="40.99708550549068" lon="9.427427664594441"><ele>65.0</ele><time>2026-05-01T16:40:16Z</time></trkpt><trkpt lat="40.997173103217186" lon="9.427461182484294"><ele>65.0</ele><time>2026-05-01T16:40:17Z</time></trkpt><trkpt lat="40.99724681529761" lon="9.427494020681564"><ele>65.0</ele><time>2026-05-01T16:40:18Z</time></trkpt><trkpt lat="40.99726052260719" lon="9.42760795813631"><ele>65.0</ele><time>2026-05-01T16:40:19Z</time></trkpt><trkpt lat="40.9972903111379" lon="9.427705750626187"><ele>65.0</ele><time>2026-05-01T16:40:20Z</time></trkpt><trkpt lat="40.99728041461336" lon="9.42782532236201"><ele>65.0</ele><time>2026-05-01T16:40:21Z</time></trkpt><trkpt lat="40.99729250739224" lon="9.427947063956987"><ele>65.0</ele><time>2026-05-01T16:40:22Z</time></trkpt><trkpt lat="40.99731271814941" lon="9.428059444518462"><ele>65.0</ele><time>2026-05-01T16:40:23Z</time></trkpt><trkpt lat="40.997349589534956" lon="9.428156317679939"><ele>65.0</ele><time>2026-05-01T16:40:24Z</time></trkpt><trkpt lat="40.99736784614099" lon="9.42824749418588"><ele>70.0</ele><time>2026-05-01T16:40:25Z</time></trkpt><trkpt lat="40.9973708082443" lon="9.428346245685388"><ele>70.0</ele><time>2026-05-01T16:40:26Z</time></trkpt><trkpt lat="40.9973708082443" lon="9.428346245685388"><ele>70.0</ele><time>2026-05-01T16:40:26Z</time></trkpt></trkseg></trk></gpx>